<?xml version='1.0' encoding='UTF-8'?><gpx version="1.1" creator="JPX - https://github.com/jenetics/jpx" xmlns="http://www.topografix.com/GPX/1/1"><trk><trkseg><trkpt lat="45.58760625219335" lon="9.330635700829905"><ele>170.0</ele><time>2026-03-29T07:22:47.999Z</time></trkpt><trkpt lat="45.58756542549049" lon="9.330563807053755"><ele>170.0</ele><time>2026-03-29T07:22:49.999Z</time></trkpt><trkpt lat="45.58745090826119" lon="9.330462148150993"><ele>170.0</ele><time>2026-03-29T07:22:51.999Z</time></trkpt><trkpt lat="45.5873864137392" lon="9.330437945164071"><ele>170.0</ele><time>2026-03-29T07:22:52.999Z</time></trkpt><trkpt lat="45.58731731055538" lon="9.33041058716549"><ele>170.0</ele><time>2026-03-29T07:22:53.999Z</time></trkpt><trkpt lat="45.587227208562204" lon="9.330386939708156"><ele>170.0</ele><time>2026-03-29T07:22:54.999Z</time></trkpt><trkpt lat="45.587128531167494" lon="9.330352761542965"><ele>169.4</ele><time>2026-03-29T07:22:55.999Z</time></trkpt><trkpt lat="45.58702913759592" lon="9.330315918552017"><ele>168.8</ele><time>2026-03-29T07:22:56.999Z</time></trkpt><trkpt lat="45.58693384387637" lon="9.330297574288599"><ele>168.2</ele><time>2026-03-29T07:22:57.999Z</time></trkpt><trkpt lat="45.586840936498206" lon="9.330291503136129"><ele>167.6</ele><time>2026-03-29T07:22:58.999Z</time></trkpt><trkpt lat="45.58674811328405" lon="9.33029984216899"><ele>167.0</ele><time>2026-03-29T07:22:59.999Z</time></trkpt><trkpt lat="45.586643816211954" lon="9.330296277943994"><ele>167.0</ele><time>2026-03-29T07:23:00.999Z</time></trkpt><trkpt lat="45.58653107216946" lon="9.33028129292841"><ele>167.0</ele><time>2026-03-29T07:23:01.999Z</time></trkpt><trkpt lat="45.58641327554105" lon="9.330251545743605"><ele>167.0</ele><time>2026-03-29T07:23:02.999Z</time></trkpt><trkpt lat="45.5862697665538" lon="9.330216057992285"><ele>167.0</ele><time>2026-03-29T07:23:03.999Z</time></trkpt><trkpt lat="45.5861430622776" lon="9.330188609237688"><ele>167.5</ele><time>2026-03-29T07:23:04.999Z</time></trkpt><trkpt lat="45.58602374415594" lon="9.330163054573434"><ele>168.0</ele><time>2026-03-29T07:23:05.999Z</time></trkpt><trkpt lat="45.585901403592395" lon="9.330137721139014"><ele>168.5</ele><time>2026-03-29T07:23:06.999Z</time></trkpt><trkpt lat="45.58577902064273" lon="9.330109113286522"><ele>169.0</ele><time>2026-03-29T07:23:07.999Z</time></trkpt><trkpt lat="45.58565354609735" lon="9.330075896280706"><ele>169.0</ele><time>2026-03-29T07:23:08.999Z</time></trkpt><trkpt lat="45.585534860370416" lon="9.330039966612976"><ele>169.0</ele><time>2026-03-29T07:23:09.999Z</time></trkpt><trkpt lat="45.58541803365236" lon="9.329987745566612"><ele>169.0</ele><time>2026-03-29T07:23:10.999Z</time></trkpt><trkpt lat="45.58529808561843" lon="9.329925682755508"><ele>169.0</ele><time>2026-03-29T07:23:11.999Z</time></trkpt><trkpt lat="45.58517656964611" lon="9.32983945039004"><ele>168.75</ele><time>2026-03-29T07:23:12.999Z</time></trkpt><trkpt lat="45.58506522607442" lon="9.329723141165237"><ele>168.5</ele><time>2026-03-29T07:23:13.999Z</time></trkpt><trkpt lat="45.58494652842365" lon="9.32958706285947"><ele>168.25</ele><time>2026-03-29T07:23:14.999Z</time></trkpt><trkpt lat="45.584833016301324" lon="9.32946317060222"><ele>168.0</ele><time>2026-03-29T07:23:15.999Z</time></trkpt><trkpt lat="45.58473178649962" lon="9.32936046963035"><ele>168.0</ele><time>2026-03-29T07:23:16.999Z</time></trkpt><trkpt lat="45.584640391907236" lon="9.329265846098012"><ele>168.0</ele><time>2026-03-29T07:23:17.999Z</time></trkpt><trkpt lat="45.58455337258037" lon="9.329180253687126"><ele>168.0</ele><time>2026-03-29T07:23:18.999Z</time></trkpt><trkpt lat="45.58446022416353" lon="9.32908177936407"><ele>168.0</ele><time>2026-03-29T07:23:19.999Z</time></trkpt><trkpt lat="45.584354891668674" lon="9.328975703647242"><ele>168.75</ele><time>2026-03-29T07:23:20.999Z</time></trkpt><trkpt lat="45.584244809121394" lon="9.328859604388471"><ele>169.5</ele><time>2026-03-29T07:23:21.999Z</time></trkpt><trkpt lat="45.584129885425455" lon="9.328738666846288"><ele>170.25</ele><time>2026-03-29T07:23:22.999Z</time></trkpt><trkpt lat="45.584008247736044" lon="9.328617910114136"><ele>171.0</ele><time>2026-03-29T07:23:23.999Z</time></trkpt><trkpt lat="45.58388685803482" lon="9.328485102402698"><ele>171.0</ele><time>2026-03-29T07:23:24.999Z</time></trkpt><trkpt lat="45.583762912591496" lon="9.32835253967374"><ele>171.0</ele><time>2026-03-29T07:23:25.999Z</time></trkpt><trkpt lat="45.583637563770985" lon="9.328220825501933"><ele>171.0</ele><time>2026-03-29T07:23:26.999Z</time></trkpt><trkpt lat="45.58351357953739" lon="9.328092676653378"><ele>169.75</ele><time>2026-03-29T07:23:27.999Z</time></trkpt><trkpt lat="45.58339726818291" lon="9.327970978531738"><ele>168.5</ele><time>2026-03-29T07:23:28.999Z</time></trkpt><trkpt lat="45.5832866603464" lon="9.32785542353815"><ele>167.25</ele><time>2026-03-29T07:23:29.999Z</time></trkpt><trkpt lat="45.583190387000876" lon="9.327747260684083"><ele>166.0</ele><time>2026-03-29T07:23:30.999Z</time></trkpt><trkpt lat="45.58310065403392" lon="9.327647856009904"><ele>166.0</ele><time>2026-03-29T07:23:31.999Z</time></trkpt><trkpt lat="45.58302117146321" lon="9.327552073340158"><ele>166.0</ele><time>2026-03-29T07:23:32.999Z</time></trkpt><trkpt lat="45.582953946828354" lon="9.327457489626898"><ele>166.0</ele><time>2026-03-29T07:23:33.999Z</time></trkpt><trkpt lat="45.58289992193908" lon="9.327355561587416"><ele>166.0</ele><time>2026-03-29T07:23:34.999Z</time></trkpt><trkpt lat="45.582865008708204" lon="9.327242823447536"><ele>166.0</ele><time>2026-03-29T07:23:35.999Z</time></trkpt><trkpt lat="45.58284042876013" lon="9.327125736075214"><ele>165.5</ele><time>2026-03-29T07:23:36.999Z</time></trkpt><trkpt lat="45.582803686094756" lon="9.327027468886902"><ele>165.0</ele><time>2026-03-29T07:23:37.999Z</time></trkpt><trkpt lat="45.58273762876077" lon="9.326960504507616"><ele>164.5</ele><time>2026-03-29T07:23:38.999Z</time></trkpt><trkpt lat="45.58265871820567" lon="9.326935523586869"><ele>164.0</ele><time>2026-03-29T07:23:39.999Z</time></trkpt><trkpt lat="45.582565222544865" lon="9.326941037708838"><ele>163.5</ele><time>2026-03-29T07:23:40.999Z</time></trkpt><trkpt lat="45.58247849725635" lon="9.327003395862741"><ele>163.0</ele><time>2026-03-29T07:23:41.999Z</time></trkpt><trkpt lat="45.58238050227369" lon="9.326891521344212"><ele>163.0</ele><time>2026-03-29T07:23:42.999Z</time></trkpt><trkpt lat="45.582295756067396" lon="9.326804133285195"><ele>163.0</ele><time>2026-03-29T07:23:43.999Z</time></trkpt><trkpt lat="45.58219998810361" lon="9.326706546112273"><ele>163.0</ele><time>2026-03-29T07:23:44.999Z</time></trkpt><trkpt lat="45.582094685743066" lon="9.326617050655079"><ele>163.0</ele><time>2026-03-29T07:23:45.999Z</time></trkpt><trkpt lat="45.58199189899059" lon="9.326507760772017"><ele>163.25</ele><time>2026-03-29T07:23:46.999Z</time></trkpt><trkpt lat="45.58188681130928" lon="9.326393683053025"><ele>163.5</ele><time>2026-03-29T07:23:47.999Z</time></trkpt><trkpt lat="45.58177641460404" lon="9.326279823031836"><ele>163.75</ele><time>2026-03-29T07:23:48.999Z</time></trkpt><trkpt lat="45.5816629677312" lon="9.326166834508633"><ele>164.0</ele><time>2026-03-29T07:23:49.999Z</time></trkpt><trkpt lat="45.58155162267726" lon="9.326055376930563"><ele>164.0</ele><time>2026-03-29T07:23:50.999Z</time></trkpt><trkpt lat="45.58144386905575" lon="9.325946386479227"><ele>164.0</ele><time>2026-03-29T07:23:51.999Z</time></trkpt><trkpt lat="45.581339781038764" lon="9.32583941474907"><ele>164.0</ele><time>2026-03-29T07:23:52.999Z</time></trkpt><trkpt lat="45.58124140308635" lon="9.325739372403545"><ele>164.0</ele><time>2026-03-29T07:23:53.999Z</time></trkpt><trkpt lat="45.58115326803945" lon="9.325652016738914"><ele>164.0</ele><time>2026-03-29T07:23:54.999Z</time></trkpt><trkpt lat="45.58107295438022" lon="9.325570075872196"><ele>164.0</ele><time>2026-03-29T07:23:55.999Z</time></trkpt><trkpt lat="45.58099965046492" lon="9.325492798562527"><ele>164.0</ele><time>2026-03-29T07:23:56.999Z</time></trkpt><trkpt lat="45.580932076174" lon="9.325422335153911"><ele>164.0</ele><time>2026-03-29T07:23:57.999Z</time></trkpt><trkpt lat="45.580856916464555" lon="9.325359591503544"><ele>164.0</ele><time>2026-03-29T07:23:58.999Z</time></trkpt><trkpt lat="45.58079158539998" lon="9.325292003398188"><ele>164.0</ele><time>2026-03-29T07:23:59.999Z</time></trkpt><trkpt lat="45.58073629945473" lon="9.325227687648614"><ele>164.0</ele><time>2026-03-29T07:24:00.999Z</time></trkpt><trkpt lat="45.58068342822609" lon="9.325168877328652"><ele>164.0</ele><time>2026-03-29T07:24:01.999Z</time></trkpt><trkpt lat="45.58062692463744" lon="9.325119800037683"><ele>164.0</ele><time>2026-03-29T07:24:02.999Z</time></trkpt><trkpt lat="45.58056436625514" lon="9.325030716971039"><ele>164.0</ele><time>2026-03-29T07:24:03.999Z</time></trkpt><trkpt lat="45.58046917369023" lon="9.324931751739436"><ele>164.0</ele><time>2026-03-29T07:24:04.999Z</time></trkpt><trkpt lat="45.58035749483102" lon="9.324816303526573"><ele>163.79999999999998</ele><time>2026-03-29T07:24:05.999Z</time></trkpt><trkpt lat="45.58023890712031" lon="9.32472065530775"><ele>163.6</ele><time>2026-03-29T07:24:06.999Z</time></trkpt><trkpt lat="45.580158356645605" lon="9.32464400584776"><ele>163.4</ele><time>2026-03-29T07:24:07.999Z</time></trkpt><trkpt lat="45.5800948573594" lon="9.324573993498847"><ele>163.2</ele><time>2026-03-29T07:24:09.999Z</time></trkpt><trkpt lat="45.58004551193933" lon="9.324485937165324"><ele>163.0</ele><time>2026-03-29T07:25:03.999Z</time></trkpt><trkpt lat="45.57995920341545" lon="9.324380898893361"><ele>163.0</ele><time>2026-03-29T07:25:05.999Z</time></trkpt><trkpt lat="45.57975953563171" lon="9.324278997568411"><ele>163.0</ele><time>2026-03-29T07:25:07.999Z</time></trkpt><trkpt lat="45.579695537731276" lon="9.32430555784802"><ele>163.0</ele><time>2026-03-29T07:25:08.999Z</time></trkpt><trkpt lat="45.57970543622828" lon="9.324675259981461"><ele>162.8</ele><time>2026-03-29T07:25:09.999Z</time></trkpt><trkpt lat="45.5796655777211" lon="9.324812061491844"><ele>162.60000000000002</ele><time>2026-03-29T07:25:10.999Z</time></trkpt><trkpt lat="45.57962518825482" lon="9.324966024751053"><ele>162.39999999999998</ele><time>2026-03-29T07:25:11.999Z</time></trkpt><trkpt lat="45.57958655238589" lon="9.325118250709705"><ele>162.2</ele><time>2026-03-29T07:25:12.999Z</time></trkpt><trkpt lat="45.57954249971204" lon="9.32525822987993"><ele>162.0</ele><time>2026-03-29T07:25:13.999Z</time></trkpt><trkpt lat="45.5794904930457" lon="9.325415882096994"><ele>162.25</ele><time>2026-03-29T07:25:14.999Z</time></trkpt><trkpt lat="45.57943610442216" lon="9.325570643522573"><ele>162.5</ele><time>2026-03-29T07:25:15.999Z</time></trkpt><trkpt lat="45.57937845546501" lon="9.3257298884121"><ele>162.75</ele><time>2026-03-29T07:25:16.999Z</time></trkpt><trkpt lat="45.57931852411133" lon="9.325892719330296"><ele>163.0</ele><time>2026-03-29T07:25:17.999Z</time></trkpt><trkpt lat="45.57925441878165" lon="9.32606533711357"><ele>163.0</ele><time>2026-03-29T07:25:18.999Z</time></trkpt><trkpt lat="45.57918815784935" lon="9.326241256680806"><ele>163.0</ele><time>2026-03-29T07:25:19.999Z</time></trkpt><trkpt lat="45.579123900150684" lon="9.326419483378025"><ele>163.0</ele><time>2026-03-29T07:25:20.999Z</time></trkpt><trkpt lat="45.57905884582866" lon="9.326587728974275"><ele>163.0</ele><time>2026-03-29T07:25:21.999Z</time></trkpt><trkpt lat="45.57899539470608" lon="9.326754428170766"><ele>163.0</ele><time>2026-03-29T07:25:22.999Z</time></trkpt><trkpt lat="45.578933930792395" lon="9.326917986978449"><ele>163.0</ele><time>2026-03-29T07:25:23.999Z</time></trkpt><trkpt lat="45.578871986471135" lon="9.327094061747214"><ele>163.0</ele><time>2026-03-29T07:25:24.999Z</time></trkpt><trkpt lat="45.578808618307704" lon="9.327268583549516"><ele>163.0</ele><time>2026-03-29T07:25:25.999Z</time></trkpt><trkpt lat="45.57874597450986" lon="9.327440906657612"><ele>162.75</ele><time>2026-03-29T07:25:26.999Z</time></trkpt><trkpt lat="45.57868437387804" lon="9.327603755406898"><ele>162.5</ele><time>2026-03-29T07:25:27.999Z</time></trkpt><trkpt lat="45.578627564628874" lon="9.327758596962541"><ele>162.25</ele><time>2026-03-29T07:25:28.999Z</time></trkpt><trkpt lat="45.578573219982935" lon="9.327909526579532"><ele>162.0</ele><time>2026-03-29T07:25:29.999Z</time></trkpt><trkpt lat="45.578522720627994" lon="9.328058467567264"><ele>162.0</ele><time>2026-03-29T07:25:30.999Z</time></trkpt><trkpt lat="45.57846533981984" lon="9.328204525726173"><ele>162.0</ele><time>2026-03-29T07:25:31.999Z</time></trkpt><trkpt lat="45.57840629132131" lon="9.328357489140668"><ele>162.0</ele><time>2026-03-29T07:25:32.999Z</time></trkpt><trkpt lat="45.578347948719376" lon="9.328517242040036"><ele>162.0</ele><time>2026-03-29T07:25:33.999Z</time></trkpt><trkpt lat="45.57828854391589" lon="9.328678484669956"><ele>162.0</ele><time>2026-03-29T07:25:34.999Z</time></trkpt><trkpt lat="45.578227854981954" lon="9.328837870665032"><ele>162.0</ele><time>2026-03-29T07:25:35.999Z</time></trkpt><trkpt lat="45.57816805118881" lon="9.32899655944789"><ele>162.0</ele><time>2026-03-29T07:25:36.999Z</time></trkpt><trkpt lat="45.57810994541756" lon="9.32915154013868"><ele>162.0</ele><time>2026-03-29T07:25:37.999Z</time></trkpt><trkpt lat="45.578053811989854" lon="9.329305650950653"><ele>162.0</ele><time>2026-03-29T07:25:38.999Z</time></trkpt><trkpt lat="45.57799514421578" lon="9.32946075210692"><ele>162.0</ele><time>2026-03-29T07:25:39.999Z</time></trkpt><trkpt lat="45.577932128007724" lon="9.329627755190279"><ele>162.0</ele><time>2026-03-29T07:25:40.999Z</time></trkpt><trkpt lat="45.57786748302881" lon="9.329799581481634"><ele>162.0</ele><time>2026-03-29T07:25:41.999Z</time></trkpt><trkpt lat="45.57779923576798" lon="9.329980914514756"><ele>162.0</ele><time>2026-03-29T07:25:42.999Z</time></trkpt><trkpt lat="45.577727681922354" lon="9.330167533609215"><ele>162.0</ele><time>2026-03-29T07:25:43.999Z</time></trkpt><trkpt lat="45.577656154993925" lon="9.330365797297516"><ele>162.0</ele><time>2026-03-29T07:25:44.999Z</time></trkpt><trkpt lat="45.57758184056265" lon="9.330568711772584"><ele>162.0</ele><time>2026-03-29T07:25:45.999Z</time></trkpt><trkpt lat="45.57750773825884" lon="9.330776472642418"><ele>162.0</ele><time>2026-03-29T07:25:46.999Z</time></trkpt><trkpt lat="45.57743116237211" lon="9.330985161026353"><ele>162.0</ele><time>2026-03-29T07:25:47.999Z</time></trkpt><trkpt lat="45.57735473195732" lon="9.331194217096076"><ele>162.66666666666666</ele><time>2026-03-29T07:25:48.999Z</time></trkpt><trkpt lat="45.577270866448586" lon="9.331413897100234"><ele>163.33333333333331</ele><time>2026-03-29T07:25:49.999Z</time></trkpt><trkpt lat="45.57718721442563" lon="9.331636948887619"><ele>164.0</ele><time>2026-03-29T07:25:50.999Z</time></trkpt><trkpt lat="45.577106713809805" lon="9.331863675932395"><ele>164.0</ele><time>2026-03-29T07:25:51.999Z</time></trkpt><trkpt lat="45.57701979137005" lon="9.332094297069792"><ele>164.0</ele><time>2026-03-29T07:25:52.999Z</time></trkpt><trkpt lat="45.57693617789875" lon="9.332324537207576"><ele>164.0</ele><time>2026-03-29T07:25:53.999Z</time></trkpt><trkpt lat="45.576852457142486" lon="9.332558747860666"><ele>164.0</ele><time>2026-03-29T07:25:54.999Z</time></trkpt><trkpt lat="45.576763743005934" lon="9.332792873663138"><ele>164.0</ele><time>2026-03-29T07:25:55.999Z</time></trkpt><trkpt lat="45.57667484016027" lon="9.333027024929503"><ele>164.0</ele><time>2026-03-29T07:25:56.999Z</time></trkpt><trkpt lat="45.57659563557007" lon="9.333259710423064"><ele>164.0</ele><time>2026-03-29T07:25:57.999Z</time></trkpt><trkpt lat="45.5765195913294" lon="9.333479099943178"><ele>164.0</ele><time>2026-03-29T07:25:58.999Z</time></trkpt><trkpt lat="45.57645414474258" lon="9.33369905781178"><ele>164.0</ele><time>2026-03-29T07:25:59.999Z</time></trkpt><trkpt lat="45.5763960548832" lon="9.333933515942244"><ele>164.0</ele><time>2026-03-29T07:26:00.999Z</time></trkpt><trkpt lat="45.57633519339567" lon="9.334165385477458"><ele>164.0</ele><time>2026-03-29T07:26:01.999Z</time></trkpt><trkpt lat="45.57626826969044" lon="9.334396325280991"><ele>164.0</ele><time>2026-03-29T07:26:02.999Z</time></trkpt><trkpt lat="45.57620532244717" lon="9.334633874523186"><ele>163.33333333333331</ele><time>2026-03-29T07:26:03.999Z</time></trkpt><trkpt lat="45.57614887458739" lon="9.334863650349948"><ele>162.66666666666666</ele><time>2026-03-29T07:26:04.999Z</time></trkpt><trkpt lat="45.57609526567432" lon="9.335100980432786"><ele>162.0</ele><time>2026-03-29T07:26:05.999Z</time></trkpt><trkpt lat="45.576063526663994" lon="9.335348248272624"><ele>162.0</ele><time>2026-03-29T07:26:06.999Z</time></trkpt><trkpt lat="45.576013408677944" lon="9.335595550164614"><ele>162.0</ele><time>2026-03-29T07:26:07.999Z</time></trkpt><trkpt lat="45.575964461686745" lon="9.335844762451218"><ele>162.0</ele><time>2026-03-29T07:26:08.999Z</time></trkpt><trkpt lat="45.57590361954949" lon="9.33608732407313"><ele>162.0</ele><time>2026-03-29T07:26:09.999Z</time></trkpt><trkpt lat="45.57585857889299" lon="9.336348050448018"><ele>162.0</ele><time>2026-03-29T07:26:10.999Z</time></trkpt><trkpt lat="45.57581692250252" lon="9.33660055630781"><ele>162.0</ele><time>2026-03-29T07:26:11.999Z</time></trkpt><trkpt lat="45.57576682659431" lon="9.33685550387806"><ele>162.0</ele><time>2026-03-29T07:26:12.999Z</time></trkpt><trkpt lat="45.57571607814456" lon="9.337108721906036"><ele>162.0</ele><time>2026-03-29T07:26:13.999Z</time></trkpt><trkpt lat="45.57566971146501" lon="9.337360546729569"><ele>162.0</ele><time>2026-03-29T07:26:14.999Z</time></trkpt><trkpt lat="45.5756231310011" lon="9.337614871487553"><ele>162.0</ele><time>2026-03-29T07:26:15.999Z</time></trkpt><trkpt lat="45.575575416765815" lon="9.337868765616221"><ele>162.0</ele><time>2026-03-29T07:26:16.999Z</time></trkpt><trkpt lat="45.57552685583441" lon="9.338115141472931"><ele>162.0</ele><time>2026-03-29T07:26:17.999Z</time></trkpt><trkpt lat="45.57548292874303" lon="9.3383538386286"><ele>162.0</ele><time>2026-03-29T07:26:18.999Z</time></trkpt><trkpt lat="45.57544232961188" lon="9.338586944531631"><ele>162.0</ele><time>2026-03-29T07:26:19.999Z</time></trkpt><trkpt lat="45.575397417704245" lon="9.338808193967747"><ele>162.0</ele><time>2026-03-29T07:26:20.999Z</time></trkpt><trkpt lat="45.575365439505624" lon="9.339031614899971"><ele>162.0</ele><time>2026-03-29T07:26:21.999Z</time></trkpt><trkpt lat="45.57532870100756" lon="9.33923335283302"><ele>162.0</ele><time>2026-03-29T07:26:22.999Z</time></trkpt><trkpt lat="45.575293691806415" lon="9.339418542195933"><ele>162.0</ele><time>2026-03-29T07:26:23.999Z</time></trkpt><trkpt lat="45.57526137754029" lon="9.339589946144729"><ele>162.0</ele><time>2026-03-29T07:26:24.999Z</time></trkpt><trkpt lat="45.57522894672274" lon="9.339757714885899"><ele>162.0</ele><time>2026-03-29T07:26:25.999Z</time></trkpt><trkpt lat="45.57512496068548" lon="9.339879352431675"><ele>162.0</ele><time>2026-03-29T07:26:26.999Z</time></trkpt><trkpt lat="45.57507229026178" lon="9.340012766176134"><ele>162.0</ele><time>2026-03-29T07:26:27.999Z</time></trkpt><trkpt lat="45.575015279599086" lon="9.340123369427943"><ele>162.0</ele><time>2026-03-29T07:26:28.999Z</time></trkpt><trkpt lat="45.574948021367554" lon="9.340191734406421"><ele>162.0</ele><time>2026-03-29T07:26:29.999Z</time></trkpt><trkpt lat="45.57486384793263" lon="9.340228750039088"><ele>162.0</ele><time>2026-03-29T07:26:30.999Z</time></trkpt><trkpt lat="45.57475814380842" lon="9.340222430439542"><ele>162.0</ele><time>2026-03-29T07:26:31.999Z</time></trkpt><trkpt lat="45.574664924711655" lon="9.34017068448402"><ele>162.0</ele><time>2026-03-29T07:26:32.999Z</time></trkpt><trkpt lat="45.57457741165607" lon="9.340085178753391"><ele>162.0</ele><time>2026-03-29T07:26:33.999Z</time></trkpt><trkpt lat="45.57450388780693" lon="9.339948531281749"><ele>162.0</ele><time>2026-03-29T07:26:34.999Z</time></trkpt><trkpt lat="45.57440637073616" lon="9.339848282813628"><ele>162.0</ele><time>2026-03-29T07:26:35.999Z</time></trkpt><trkpt lat="45.57431508896323" lon="9.339725314244934"><ele>162.0</ele><time>2026-03-29T07:26:36.999Z</time></trkpt><trkpt lat="45.57422142245025" lon="9.339610720419017"><ele>162.0</ele><time>2026-03-29T07:26:37.999Z</time></trkpt><trkpt lat="45.5741344573382" lon="9.339514729906886"><ele>162.0</ele><time>2026-03-29T07:26:38.999Z</time></trkpt><trkpt lat="45.57405128745928" lon="9.339442246214274"><ele>162.0</ele><time>2026-03-29T07:26:39.999Z</time></trkpt><trkpt lat="45.573955424228195" lon="9.339410503376737"><ele>162.0</ele><time>2026-03-29T07:26:40.999Z</time></trkpt><trkpt lat="45.573851192549334" lon="9.339423105447462"><ele>162.0</ele><time>2026-03-29T07:26:41.999Z</time></trkpt><trkpt lat="45.57374586727499" lon="9.339477826392125"><ele>162.0</ele><time>2026-03-29T07:26:42.999Z</time></trkpt><trkpt lat="45.573656215816314" lon="9.339597995552568"><ele>162.0</ele><time>2026-03-29T07:26:43.999Z</time></trkpt><trkpt lat="45.57354489107719" lon="9.339669668071748"><ele>162.0</ele><time>2026-03-29T07:26:44.999Z</time></trkpt><trkpt lat="45.57343023294768" lon="9.339731536053907"><ele>162.0</ele><time>2026-03-29T07:26:45.999Z</time></trkpt><trkpt lat="45.57330230049414" lon="9.339776845037743"><ele>162.0</ele><time>2026-03-29T07:26:46.999Z</time></trkpt><trkpt lat="45.573168471742186" lon="9.33979987526677"><ele>162.0</ele><time>2026-03-29T07:26:47.999Z</time></trkpt><trkpt lat="45.57303159543952" lon="9.33978654016491"><ele>162.0</ele><time>2026-03-29T07:26:48.999Z</time></trkpt><trkpt lat="45.5728908645939" lon="9.339747618660384"><ele>162.0</ele><time>2026-03-29T07:26:49.999Z</time></trkpt><trkpt lat="45.5727475101438" lon="9.339679541105166"><ele>162.0</ele><time>2026-03-29T07:26:50.999Z</time></trkpt><trkpt lat="45.572601100933085" lon="9.339591231394675"><ele>161.33333333333334</ele><time>2026-03-29T07:26:51.999Z</time></trkpt><trkpt lat="45.57244498326497" lon="9.339493839858816"><ele>160.66666666666669</ele><time>2026-03-29T07:26:52.999Z</time></trkpt><trkpt lat="45.572285116350784" lon="9.339397858389619"><ele>160.0</ele><time>2026-03-29T07:26:53.999Z</time></trkpt><trkpt lat="45.57211887882177" lon="9.339295764313704"><ele>159.33333333333334</ele><time>2026-03-29T07:26:54.999Z</time></trkpt><trkpt lat="45.57194961886742" lon="9.339190380681272"><ele>158.66666666666666</ele><time>2026-03-29T07:26:55.999Z</time></trkpt><trkpt lat="45.57177550637903" lon="9.339083053495074"><ele>158.0</ele><time>2026-03-29T07:26:56.999Z</time></trkpt><trkpt lat="45.57160101968983" lon="9.338975764432117"><ele>158.33333333333331</ele><time>2026-03-29T07:26:57.999Z</time></trkpt><trkpt lat="45.57142477357953" lon="9.338864592687244"><ele>158.66666666666666</ele><time>2026-03-29T07:26:58.999Z</time></trkpt><trkpt lat="45.57125092389163" lon="9.338752089318065"><ele>159.0</ele><time>2026-03-29T07:26:59.999Z</time></trkpt><trkpt lat="45.57107800560457" lon="9.338643138369099"><ele>158.0</ele><time>2026-03-29T07:27:00.999Z</time></trkpt><trkpt lat="45.570902168592674" lon="9.338538253067808"><ele>157.0</ele><time>2026-03-29T07:27:01.999Z</time></trkpt><trkpt lat="45.57073464726106" lon="9.338436414075103"><ele>156.0</ele><time>2026-03-29T07:27:02.999Z</time></trkpt><trkpt lat="45.570573492350086" lon="9.338338647665884"><ele>156.0</ele><time>2026-03-29T07:27:03.999Z</time></trkpt><trkpt lat="45.57040930760146" lon="9.338236373723415"><ele>156.0</ele><time>2026-03-29T07:27:04.999Z</time></trkpt><trkpt lat="45.57023670790524" lon="9.338130781243464"><ele>156.0</ele><time>2026-03-29T07:27:05.999Z</time></trkpt><trkpt lat="45.57006348408313" lon="9.338028883265611"><ele>156.66666666666666</ele><time>2026-03-29T07:27:06.999Z</time></trkpt><trkpt lat="45.569885952547445" lon="9.337924271612767"><ele>157.33333333333331</ele><time>2026-03-29T07:27:07.999Z</time></trkpt><trkpt lat="45.56970753965621" lon="9.337816860786189"><ele>158.0</ele><time>2026-03-29T07:27:08.999Z</time></trkpt><trkpt lat="45.56953168123206" lon="9.337709347363711"><ele>158.0</ele><time>2026-03-29T07:27:09.999Z</time></trkpt><trkpt lat="45.56934960544259" lon="9.33760004180865"><ele>158.0</ele><time>2026-03-29T07:27:10.999Z</time></trkpt><trkpt lat="45.56916678532303" lon="9.337490060909241"><ele>158.0</ele><time>2026-03-29T07:27:11.999Z</time></trkpt><trkpt lat="45.56897700103111" lon="9.337378817128704"><ele>158.0</ele><time>2026-03-29T07:27:12.999Z</time></trkpt><trkpt lat="45.56879376384957" lon="9.337278111588361"><ele>158.0</ele><time>2026-03-29T07:27:13.999Z</time></trkpt><trkpt lat="45.56860523976956" lon="9.337182784507583"><ele>158.0</ele><time>2026-03-29T07:27:14.999Z</time></trkpt><trkpt lat="45.56841413746536" lon="9.337085815422045"><ele>157.66666666666666</ele><time>2026-03-29T07:27:15.999Z</time></trkpt><trkpt lat="45.568223826841795" lon="9.336990721059845"><ele>157.33333333333334</ele><time>2026-03-29T07:27:16.999Z</time></trkpt><trkpt lat="45.56803287387318" lon="9.336893396088751"><ele>157.0</ele><time>2026-03-29T07:27:17.999Z</time></trkpt><trkpt lat="45.567842785830564" lon="9.336799546844272"><ele>157.0</ele><time>2026-03-29T07:27:18.999Z</time></trkpt><trkpt lat="45.56764985974211" lon="9.336709347812889"><ele>157.0</ele><time>2026-03-29T07:27:19.999Z</time></trkpt><trkpt lat="45.567457322598536" lon="9.336620095403907"><ele>157.0</ele><time>2026-03-29T07:27:20.999Z</time></trkpt><trkpt lat="45.56726161808154" lon="9.336532444014592"><ele>157.0</ele><time>2026-03-29T07:27:21.999Z</time></trkpt><trkpt lat="45.5670662042321" lon="9.336444122251521"><ele>157.0</ele><time>2026-03-29T07:27:22.999Z</time></trkpt><trkpt lat="45.56687113986109" lon="9.336358018930053"><ele>157.0</ele><time>2026-03-29T07:27:23.999Z</time></trkpt><trkpt lat="45.5666727253457" lon="9.336272187794282"><ele>157.33333333333334</ele><time>2026-03-29T07:27:24.999Z</time></trkpt><trkpt lat="45.56647554349236" lon="9.3361848540257"><ele>157.66666666666666</ele><time>2026-03-29T07:27:25.999Z</time></trkpt><trkpt lat="45.56627956158895" lon="9.336094072598225"><ele>158.0</ele><time>2026-03-29T07:27:26.999Z</time></trkpt><trkpt lat="45.56608456844299" lon="9.335993533398513"><ele>158.33333333333331</ele><time>2026-03-29T07:27:27.999Z</time></trkpt><trkpt lat="45.56589469413675" lon="9.335887523372254"><ele>158.66666666666666</ele><time>2026-03-29T07:27:28.999Z</time></trkpt><trkpt lat="45.565703356640384" lon="9.335775481925523"><ele>159.0</ele><time>2026-03-29T07:27:29.999Z</time></trkpt><trkpt lat="45.5655104188688" lon="9.335656510263508"><ele>159.0</ele><time>2026-03-29T07:27:30.999Z</time></trkpt><trkpt lat="45.56532124595793" lon="9.335531693506022"><ele>159.0</ele><time>2026-03-29T07:27:31.999Z</time></trkpt><trkpt lat="45.565137825600715" lon="9.335399746676865"><ele>159.0</ele><time>2026-03-29T07:27:32.999Z</time></trkpt><trkpt lat="45.56495422465748" lon="9.335262013037338"><ele>159.0</ele><time>2026-03-29T07:27:33.999Z</time></trkpt><trkpt lat="45.56477911060069" lon="9.335120909248289"><ele>159.0</ele><time>2026-03-29T07:27:34.999Z</time></trkpt><trkpt lat="45.564599441222484" lon="9.334970972809376"><ele>159.0</ele><time>2026-03-29T07:27:35.999Z</time></trkpt><trkpt lat="45.56442629603356" lon="9.334828233130414"><ele>158.33333333333334</ele><time>2026-03-29T07:27:36.999Z</time></trkpt><trkpt lat="45.56425516632285" lon="9.334691949638136"><ele>157.66666666666669</ele><time>2026-03-29T07:27:37.999Z</time></trkpt><trkpt lat="45.564084298249064" lon="9.334558895252764"><ele>157.0</ele><time>2026-03-29T07:27:38.999Z</time></trkpt><trkpt lat="45.56391546426188" lon="9.334429715125415"><ele>157.0</ele><time>2026-03-29T07:27:39.999Z</time></trkpt><trkpt lat="45.56374666289337" lon="9.334310824080326"><ele>157.0</ele><time>2026-03-29T07:27:40.999Z</time></trkpt><trkpt lat="45.563577769504306" lon="9.334202735437096"><ele>157.0</ele><time>2026-03-29T07:27:41.999Z</time></trkpt><trkpt lat="45.56340694373605" lon="9.334099107111935"><ele>156.33333333333334</ele><time>2026-03-29T07:27:42.999Z</time></trkpt><trkpt lat="45.563249710490545" lon="9.333999526802705"><ele>155.66666666666666</ele><time>2026-03-29T07:27:43.999Z</time></trkpt><trkpt lat="45.563095508498" lon="9.333880536161068"><ele>155.0</ele><time>2026-03-29T07:27:44.999Z</time></trkpt><trkpt lat="45.562949917399365" lon="9.33374552728769"><ele>155.33333333333331</ele><time>2026-03-29T07:27:45.999Z</time></trkpt><trkpt lat="45.56281429447338" lon="9.333598761456585"><ele>155.66666666666666</ele><time>2026-03-29T07:27:46.999Z</time></trkpt><trkpt lat="45.56268192570916" lon="9.33345276072631"><ele>156.0</ele><time>2026-03-29T07:27:47.999Z</time></trkpt><trkpt lat="45.562549399279575" lon="9.33331524357604"><ele>156.0</ele><time>2026-03-29T07:27:48.999Z</time></trkpt><trkpt lat="45.56241685715803" lon="9.333197677027789"><ele>156.0</ele><time>2026-03-29T07:27:49.999Z</time></trkpt><trkpt lat="45.56228754203156" lon="9.333101226161705"><ele>156.0</ele><time>2026-03-29T07:27:50.999Z</time></trkpt><trkpt lat="45.56216171918842" lon="9.333023391727169"><ele>156.0</ele><time>2026-03-29T07:27:51.999Z</time></trkpt><trkpt lat="45.56204292535309" lon="9.332932155699286"><ele>155.6</ele><time>2026-03-29T07:27:52.999Z</time></trkpt><trkpt lat="45.561928703930015" lon="9.332863515569883"><ele>155.2</ele><time>2026-03-29T07:27:53.999Z</time></trkpt><trkpt lat="45.561829757930084" lon="9.33280405480231"><ele>154.8</ele><time>2026-03-29T07:27:54.999Z</time></trkpt><trkpt lat="45.56174939730104" lon="9.332755762899733"><ele>154.4</ele><time>2026-03-29T07:27:55.999Z</time></trkpt><trkpt lat="45.56168167088056" lon="9.332716037009556"><ele>154.0</ele><time>2026-03-29T07:27:56.999Z</time></trkpt><trkpt lat="45.561621766580224" lon="9.33268141177023"><ele>154.0</ele><time>2026-03-29T07:27:57.999Z</time></trkpt><trkpt lat="45.561521416206986" lon="9.332636015576785"><ele>154.0</ele><time>2026-03-29T07:27:59.999Z</time></trkpt><trkpt lat="45.56139872427693" lon="9.332559761001344"><ele>154.0</ele><time>2026-03-29T07:28:01.999Z</time></trkpt><trkpt lat="45.56128328890194" lon="9.332506852043343"><ele>154.0</ele><time>2026-03-29T07:28:02.999Z</time></trkpt><trkpt lat="45.561165912597524" lon="9.332472301661365"><ele>153.25</ele><time>2026-03-29T07:28:03.999Z</time></trkpt><trkpt lat="45.56103490614253" lon="9.332442077664899"><ele>152.5</ele><time>2026-03-29T07:28:04.999Z</time></trkpt><trkpt lat="45.56091045022178" lon="9.332421713788237"><ele>151.75</ele><time>2026-03-29T07:28:05.999Z</time></trkpt><trkpt lat="45.56078457300925" lon="9.33240439772464"><ele>151.0</ele><time>2026-03-29T07:28:06.999Z</time></trkpt><trkpt lat="45.560648680296666" lon="9.332385226318866"><ele>151.0</ele><time>2026-03-29T07:28:07.999Z</time></trkpt><trkpt lat="45.56050520264151" lon="9.332362150980575"><ele>151.0</ele><time>2026-03-29T07:28:08.999Z</time></trkpt><trkpt lat="45.560356095950944" lon="9.332330168999396"><ele>151.0</ele><time>2026-03-29T07:28:09.999Z</time></trkpt><trkpt lat="45.56019260409987" lon="9.332324176013648"><ele>151.0</ele><time>2026-03-29T07:28:10.999Z</time></trkpt><trkpt lat="45.56005364130454" lon="9.332235531064319"><ele>151.0</ele><time>2026-03-29T07:28:11.999Z</time></trkpt><trkpt lat="45.559912193385415" lon="9.332178392471777"><ele>151.0</ele><time>2026-03-29T07:28:12.999Z</time></trkpt><trkpt lat="45.5597679312239" lon="9.332113239904833"><ele>150.66666666666669</ele><time>2026-03-29T07:28:13.999Z</time></trkpt><trkpt lat="45.55962454653571" lon="9.332037988402202"><ele>150.33333333333334</ele><time>2026-03-29T07:28:14.999Z</time></trkpt><trkpt lat="45.559476351998676" lon="9.331955564584218"><ele>150.0</ele><time>2026-03-29T07:28:15.999Z</time></trkpt><trkpt lat="45.55932151201316" lon="9.331874823545949"><ele>149.66666666666666</ele><time>2026-03-29T07:28:16.999Z</time></trkpt><trkpt lat="45.55916145831638" lon="9.331789642539453"><ele>149.33333333333331</ele><time>2026-03-29T07:28:17.999Z</time></trkpt><trkpt lat="45.5589975666419" lon="9.33169670114205"><ele>149.0</ele><time>2026-03-29T07:28:18.999Z</time></trkpt><trkpt lat="45.558826089513275" lon="9.331595516439922"><ele>149.66666666666666</ele><time>2026-03-29T07:28:19.999Z</time></trkpt><trkpt lat="45.55865195888378" lon="9.331492024818452"><ele>150.33333333333334</ele><time>2026-03-29T07:28:20.999Z</time></trkpt><trkpt lat="45.558481986341704" lon="9.331390768372865"><ele>151.0</ele><time>2026-03-29T07:28:21.999Z</time></trkpt><trkpt lat="45.55831850585128" lon="9.331294525635032"><ele>151.33333333333334</ele><time>2026-03-29T07:28:22.999Z</time></trkpt><trkpt lat="45.55814936481071" lon="9.331195398191392"><ele>151.66666666666666</ele><time>2026-03-29T07:28:23.999Z</time></trkpt><trkpt lat="45.557973634652626" lon="9.331094898570331"><ele>152.0</ele><time>2026-03-29T07:28:24.999Z</time></trkpt><trkpt lat="45.55779332184815" lon="9.330994533283569"><ele>152.0</ele><time>2026-03-29T07:28:25.999Z</time></trkpt><trkpt lat="45.55760738587125" lon="9.330891829070106"><ele>152.0</ele><time>2026-03-29T07:28:26.999Z</time></trkpt><trkpt lat="45.557420168912664" lon="9.330782483695943"><ele>152.0</ele><time>2026-03-29T07:28:27.999Z</time></trkpt><trkpt lat="45.557234935616194" lon="9.330672402945211"><ele>151.33333333333331</ele><time>2026-03-29T07:28:28.999Z</time></trkpt><trkpt lat="45.55704319818213" lon="9.33055762398875"><ele>150.66666666666666</ele><time>2026-03-29T07:28:29.999Z</time></trkpt><trkpt lat="45.55684784430364" lon="9.33044035706462"><ele>150.0</ele><time>2026-03-29T07:28:30.999Z</time></trkpt><trkpt lat="45.55664993254315" lon="9.330323001639186"><ele>150.0</ele><time>2026-03-29T07:28:31.999Z</time></trkpt><trkpt lat="45.55645029384597" lon="9.330205798157293"><ele>150.0</ele><time>2026-03-29T07:28:32.999Z</time></trkpt><trkpt lat="45.55625044767387" lon="9.330084259280204"><ele>150.0</ele><time>2026-03-29T07:28:33.999Z</time></trkpt><trkpt lat="45.55604746495842" lon="9.329964049004817"><ele>149.0</ele><time>2026-03-29T07:28:34.999Z</time></trkpt><trkpt lat="45.55584635454277" lon="9.329845917864986"><ele>148.0</ele><time>2026-03-29T07:28:35.999Z</time></trkpt><trkpt lat="45.55565028153301" lon="9.329730606518478"><ele>147.0</ele><time>2026-03-29T07:28:36.999Z</time></trkpt><trkpt lat="45.555456729781596" lon="9.329616636394967"><ele>147.66666666666666</ele><time>2026-03-29T07:28:37.999Z</time></trkpt><trkpt lat="45.55525879342152" lon="9.329500091994676"><ele>148.33333333333331</ele><time>2026-03-29T07:28:38.999Z</time></trkpt><trkpt lat="45.55505841109489" lon="9.329382140825563"><ele>149.0</ele><time>2026-03-29T07:28:39.999Z</time></trkpt><trkpt lat="45.554855477610324" lon="9.32926423192441"><ele>149.0</ele><time>2026-03-29T07:28:40.999Z</time></trkpt><trkpt lat="45.55465115617516" lon="9.329146220513826"><ele>149.0</ele><time>2026-03-29T07:28:41.999Z</time></trkpt><trkpt lat="45.55444493913471" lon="9.329028871285358"><ele>149.0</ele><time>2026-03-29T07:28:42.999Z</time></trkpt><trkpt lat="45.554234362068954" lon="9.328914822303169"><ele>146.5</ele><time>2026-03-29T07:28:43.999Z</time></trkpt><trkpt lat="45.55402576966435" lon="9.328786923913647"><ele>144.0</ele><time>2026-03-29T07:28:44.999Z</time></trkpt><trkpt lat="45.55381779423103" lon="9.328662656853162"><ele>143.5</ele><time>2026-03-29T07:28:45.999Z</time></trkpt><trkpt lat="45.55360976936046" lon="9.328537832352838"><ele>143.0</ele><time>2026-03-29T07:28:46.999Z</time></trkpt><trkpt lat="45.55340122185616" lon="9.328413947840842"><ele>143.0</ele><time>2026-03-29T07:28:47.999Z</time></trkpt><trkpt lat="45.553188419462465" lon="9.32828881702662"><ele>143.0</ele><time>2026-03-29T07:28:48.999Z</time></trkpt><trkpt lat="45.55297805299977" lon="9.328169650318097"><ele>142.5</ele><time>2026-03-29T07:28:49.999Z</time></trkpt><trkpt lat="45.552762644433116" lon="9.32804782367677"><ele>142.0</ele><time>2026-03-29T07:28:50.999Z</time></trkpt><trkpt lat="45.55255237977199" lon="9.327928949942947"><ele>142.0</ele><time>2026-03-29T07:28:51.999Z</time></trkpt><trkpt lat="45.552339347391445" lon="9.327805495702284"><ele>142.0</ele><time>2026-03-29T07:28:52.999Z</time></trkpt><trkpt lat="45.55212619477559" lon="9.327680409910247"><ele>143.0</ele><time>2026-03-29T07:28:53.999Z</time></trkpt><trkpt lat="45.55191580838382" lon="9.327555415264786"><ele>144.0</ele><time>2026-03-29T07:28:54.999Z</time></trkpt><trkpt lat="45.55170518507548" lon="9.327431538245776"><ele>144.0</ele><time>2026-03-29T07:28:55.999Z</time></trkpt><trkpt lat="45.55149038483339" lon="9.327307126778138"><ele>144.0</ele><time>2026-03-29T07:28:56.999Z</time></trkpt><trkpt lat="45.55127506440377" lon="9.327180237299528"><ele>143.0</ele><time>2026-03-29T07:28:57.999Z</time></trkpt><trkpt lat="45.5510564081465" lon="9.327050832858758"><ele>142.0</ele><time>2026-03-29T07:28:58.999Z</time></trkpt><trkpt lat="45.55083843495151" lon="9.3269223808012"><ele>142.0</ele><time>2026-03-29T07:28:59.999Z</time></trkpt><trkpt lat="45.550620437489485" lon="9.326794355285818"><ele>142.0</ele><time>2026-03-29T07:29:00.999Z</time></trkpt><trkpt lat="45.55040556249412" lon="9.32666745851498"><ele>143.0</ele><time>2026-03-29T07:29:01.999Z</time></trkpt><trkpt lat="45.55018850600815" lon="9.326538553157993"><ele>144.0</ele><time>2026-03-29T07:29:02.999Z</time></trkpt><trkpt lat="45.5499732376212" lon="9.326411215265859"><ele>144.0</ele><time>2026-03-29T07:29:03.999Z</time></trkpt><trkpt lat="45.54976186461902" lon="9.326283862947266"><ele>144.0</ele><time>2026-03-29T07:29:04.999Z</time></trkpt><trkpt lat="45.54954903844926" lon="9.32615387565186"><ele>142.5</ele><time>2026-03-29T07:29:05.999Z</time></trkpt><trkpt lat="45.54933393277998" lon="9.326018718418982"><ele>141.0</ele><time>2026-03-29T07:29:06.999Z</time></trkpt><trkpt lat="45.54912633594824" lon="9.325877178896825"><ele>141.0</ele><time>2026-03-29T07:29:07.999Z</time></trkpt><trkpt lat="45.54892264980748" lon="9.325726266174623"><ele>141.0</ele><time>2026-03-29T07:29:08.999Z</time></trkpt><trkpt lat="45.54872438127364" lon="9.325564805110291"><ele>143.0</ele><time>2026-03-29T07:29:09.999Z</time></trkpt><trkpt lat="45.54853104800828" lon="9.325399016596226"><ele>145.0</ele><time>2026-03-29T07:29:10.999Z</time></trkpt><trkpt lat="45.548337326393295" lon="9.32522813108077"><ele>145.0</ele><time>2026-03-29T07:29:11.999Z</time></trkpt><trkpt lat="45.548146515097514" lon="9.325049805329035"><ele>145.0</ele><time>2026-03-29T07:29:12.999Z</time></trkpt><trkpt lat="45.547960724807005" lon="9.324862522469619"><ele>144.0</ele><time>2026-03-29T07:29:13.999Z</time></trkpt><trkpt lat="45.54777172054214" lon="9.324665707682733"><ele>143.0</ele><time>2026-03-29T07:29:14.999Z</time></trkpt><trkpt lat="45.547588738132504" lon="9.324459569243517"><ele>143.0</ele><time>2026-03-29T07:29:15.999Z</time></trkpt><trkpt lat="45.547402631201514" lon="9.324234241252796"><ele>143.0</ele><time>2026-03-29T07:29:16.999Z</time></trkpt><trkpt lat="45.54722472511582" lon="9.323994001073975"><ele>142.5</ele><time>2026-03-29T07:29:17.999Z</time></trkpt><trkpt lat="45.54704870899308" lon="9.323747937020133"><ele>142.0</ele><time>2026-03-29T07:29:18.999Z</time></trkpt><trkpt lat="45.54688106487851" lon="9.323500599136985"><ele>142.0</ele><time>2026-03-29T07:29:19.999Z</time></trkpt><trkpt lat="45.54672692297405" lon="9.323262184362676"><ele>142.0</ele><time>2026-03-29T07:29:20.999Z</time></trkpt><trkpt lat="45.54657026291174" lon="9.323012416157367"><ele>142.5</ele><time>2026-03-29T07:29:21.999Z</time></trkpt><trkpt lat="45.54641355534206" lon="9.322751209294251"><ele>143.0</ele><time>2026-03-29T07:29:22.999Z</time></trkpt><trkpt lat="45.54626189082024" lon="9.322475181373536"><ele>142.0</ele><time>2026-03-29T07:29:23.999Z</time></trkpt><trkpt lat="45.54611611626075" lon="9.322187738240006"><ele>141.0</ele><time>2026-03-29T07:29:24.999Z</time></trkpt><trkpt lat="45.54597827742832" lon="9.321892813835762"><ele>141.0</ele><time>2026-03-29T07:29:25.999Z</time></trkpt><trkpt lat="45.54584286456298" lon="9.321591386382224"><ele>141.0</ele><time>2026-03-29T07:29:26.999Z</time></trkpt><trkpt lat="45.54571416911356" lon="9.3212843271573"><ele>140.5</ele><time>2026-03-29T07:29:27.999Z</time></trkpt><trkpt lat="45.54558706711578" lon="9.320969420470693"><ele>140.0</ele><time>2026-03-29T07:29:28.999Z</time></trkpt><trkpt lat="45.54546073887015" lon="9.320648845564753"><ele>141.0</ele><time>2026-03-29T07:29:29.999Z</time></trkpt><trkpt lat="45.545336887326464" lon="9.320321782458214"><ele>142.0</ele><time>2026-03-29T07:29:30.999Z</time></trkpt><trkpt lat="45.54521338665093" lon="9.319996154191365"><ele>141.5</ele><time>2026-03-29T07:29:31.999Z</time></trkpt><trkpt lat="45.54508522762517" lon="9.319670708603137"><ele>141.0</ele><time>2026-03-29T07:29:32.999Z</time></trkpt><trkpt lat="45.54495304753274" lon="9.319364947838473"><ele>141.0</ele><time>2026-03-29T07:29:33.999Z</time></trkpt><trkpt lat="45.544809312243395" lon="9.319070209875607"><ele>141.0</ele><time>2026-03-29T07:29:34.999Z</time></trkpt><trkpt lat="45.544657841400095" lon="9.318789290653175"><ele>140.5</ele><time>2026-03-29T07:29:35.999Z</time></trkpt><trkpt lat="45.544491575563924" lon="9.318524090632991"><ele>140.0</ele><time>2026-03-29T07:29:36.999Z</time></trkpt><trkpt lat="45.544313623068035" lon="9.318270520492947"><ele>140.0</ele><time>2026-03-29T07:29:37.999Z</time></trkpt><trkpt lat="45.54412273363641" lon="9.318029199596545"><ele>140.0</ele><time>2026-03-29T07:29:38.999Z</time></trkpt><trkpt lat="45.54392585953287" lon="9.317802252642874"><ele>140.0</ele><time>2026-03-29T07:29:39.999Z</time></trkpt><trkpt lat="45.54371670617751" lon="9.317587180809424"><ele>140.0</ele><time>2026-03-29T07:29:40.999Z</time></trkpt><trkpt lat="45.543496764492836" lon="9.317387649844195"><ele>140.5</ele><time>2026-03-29T07:29:41.999Z</time></trkpt><trkpt lat="45.54327028559947" lon="9.317204114063232"><ele>141.0</ele><time>2026-03-29T07:29:42.999Z</time></trkpt><trkpt lat="45.543028325682364" lon="9.317029731104187"><ele>140.5</ele><time>2026-03-29T07:29:43.999Z</time></trkpt><trkpt lat="45.54277576005404" lon="9.316861140066246"><ele>140.0</ele><time>2026-03-29T07:29:44.999Z</time></trkpt><trkpt lat="45.54251805165034" lon="9.316698197467332"><ele>140.0</ele><time>2026-03-29T07:29:45.999Z</time></trkpt><trkpt lat="45.54225774043283" lon="9.31653425258684"><ele>140.0</ele><time>2026-03-29T07:29:46.999Z</time></trkpt><trkpt lat="45.541996462184294" lon="9.316368094721568"><ele>138.5</ele><time>2026-03-29T07:29:47.999Z</time></trkpt><trkpt lat="45.541741019003155" lon="9.316197328169373"><ele>137.0</ele><time>2026-03-29T07:29:48.999Z</time></trkpt><trkpt lat="45.54148510039442" lon="9.316022394568245"><ele>137.0</ele><time>2026-03-29T07:29:49.999Z</time></trkpt><trkpt lat="45.541234885412216" lon="9.315834636802213"><ele>137.0</ele><time>2026-03-29T07:29:50.999Z</time></trkpt><trkpt lat="45.54098392148185" lon="9.315619903895522"><ele>137.5</ele><time>2026-03-29T07:29:51.999Z</time></trkpt><trkpt lat="45.540738283597655" lon="9.315380655844402"><ele>138.0</ele><time>2026-03-29T07:29:52.999Z</time></trkpt><trkpt lat="45.54051069704156" lon="9.315122253958476"><ele>137.0</ele><time>2026-03-29T07:29:53.999Z</time></trkpt><trkpt lat="45.54029873138393" lon="9.314844617258737"><ele>136.0</ele><time>2026-03-29T07:29:54.999Z</time></trkpt><trkpt lat="45.54009585457207" lon="9.314546886402404"><ele>136.0</ele><time>2026-03-29T07:29:55.999Z</time></trkpt><trkpt lat="45.539904875757045" lon="9.314223857564555"><ele>136.0</ele><time>2026-03-29T07:29:56.999Z</time></trkpt><trkpt lat="45.539726865665536" lon="9.313879396921642"><ele>136.0</ele><time>2026-03-29T07:29:57.999Z</time></trkpt><trkpt lat="45.53956339239243" lon="9.313513400136184"><ele>136.0</ele><time>2026-03-29T07:29:58.999Z</time></trkpt><trkpt lat="45.53941950871824" lon="9.313134998872496"><ele>135.5</ele><time>2026-03-29T07:29:59.999Z</time></trkpt><trkpt lat="45.53929710452222" lon="9.312742408503388"><ele>135.0</ele><time>2026-03-29T07:30:00.999Z</time></trkpt><trkpt lat="45.539199923526056" lon="9.312337257271267"><ele>134.5</ele><time>2026-03-29T07:30:01.999Z</time></trkpt><trkpt lat="45.53911470194348" lon="9.31195125955348"><ele>134.0</ele><time>2026-03-29T07:30:02.999Z</time></trkpt><trkpt lat="45.53905657029834" lon="9.311550853508056"><ele>134.5</ele><time>2026-03-29T07:30:03.999Z</time></trkpt><trkpt lat="45.53900978831157" lon="9.31114983392587"><ele>135.0</ele><time>2026-03-29T07:30:04.999Z</time></trkpt><trkpt lat="45.538973654356774" lon="9.310747020975677"><ele>136.0</ele><time>2026-03-29T07:30:05.999Z</time></trkpt><trkpt lat="45.538937664526436" lon="9.310337218837713"><ele>137.0</ele><time>2026-03-29T07:30:06.999Z</time></trkpt><trkpt lat="45.53889980125687" lon="9.309940083148602"><ele>137.0</ele><time>2026-03-29T07:30:07.999Z</time></trkpt><trkpt lat="45.53885503533849" lon="9.309545809503627"><ele>137.0</ele><time>2026-03-29T07:30:08.999Z</time></trkpt><trkpt lat="45.538809263043525" lon="9.309153693340118"><ele>137.5</ele><time>2026-03-29T07:30:09.999Z</time></trkpt><trkpt lat="45.53876185772072" lon="9.308771692005173"><ele>138.0</ele><time>2026-03-29T07:30:10.999Z</time></trkpt><trkpt lat="45.538716183889605" lon="9.308390207349987"><ele>137.5</ele><time>2026-03-29T07:30:11.999Z</time></trkpt><trkpt lat="45.538671651781314" lon="9.308011237014309"><ele>137.0</ele><time>2026-03-29T07:30:12.999Z</time></trkpt><trkpt lat="45.53862872398196" lon="9.307635806807703"><ele>137.0</ele><time>2026-03-29T07:30:13.999Z</time></trkpt><trkpt lat="45.53858567777238" lon="9.307260202517595"><ele>137.0</ele><time>2026-03-29T07:30:14.999Z</time></trkpt><trkpt lat="45.53854461131887" lon="9.306885186309188"><ele>135.0</ele><time>2026-03-29T07:30:15.999Z</time></trkpt><trkpt lat="45.538507720766916" lon="9.306514132351536"><ele>133.0</ele><time>2026-03-29T07:30:17Z</time></trkpt><trkpt lat="45.53846955114006" lon="9.306143591321781"><ele>133.0</ele><time>2026-03-29T07:30:18Z</time></trkpt><trkpt lat="45.5384302221073" lon="9.305772380214707"><ele>133.0</ele><time>2026-03-29T07:30:19Z</time></trkpt><trkpt lat="45.53838924824539" lon="9.305399355108884"><ele>133.5</ele><time>2026-03-29T07:30:20Z</time></trkpt><trkpt lat="45.53834906014146" lon="9.305026774505746"><ele>134.0</ele><time>2026-03-29T07:30:21Z</time></trkpt><trkpt lat="45.53830550583655" lon="9.304649958242546"><ele>134.0</ele><time>2026-03-29T07:30:22Z</time></trkpt><trkpt lat="45.53825555237756" lon="9.304240101010837"><ele>134.0</ele><time>2026-03-29T07:30:23Z</time></trkpt><trkpt lat="45.53822294683508" lon="9.303896260743201"><ele>133.5</ele><time>2026-03-29T07:30:24Z</time></trkpt><trkpt lat="45.53818338191156" lon="9.303522731608227"><ele>133.0</ele><time>2026-03-29T07:30:25Z</time></trkpt><trkpt lat="45.53814157642281" lon="9.303149557696683"><ele>134.5</ele><time>2026-03-29T07:30:26Z</time></trkpt><trkpt lat="45.53809877390836" lon="9.302774225957764"><ele>136.0</ele><time>2026-03-29T07:30:27Z</time></trkpt><trkpt lat="45.538061195945644" lon="9.302394621119559"><ele>136.5</ele><time>2026-03-29T07:30:28Z</time></trkpt><trkpt lat="45.53802016390836" lon="9.30200593963646"><ele>137.0</ele><time>2026-03-29T07:30:29Z</time></trkpt><trkpt lat="45.537977522231444" lon="9.301607598656032"><ele>137.5</ele><time>2026-03-29T07:30:30Z</time></trkpt><trkpt lat="45.53793495095169" lon="9.301206878067466"><ele>138.0</ele><time>2026-03-29T07:30:31Z</time></trkpt><trkpt lat="45.53789164162066" lon="9.300805096365245"><ele>135.0</ele><time>2026-03-29T07:30:32Z</time></trkpt><trkpt lat="45.537848615759856" lon="9.300401747176158"><ele>132.0</ele><time>2026-03-29T07:30:33Z</time></trkpt><trkpt lat="45.53780525686305" lon="9.300001682724101"><ele>132.0</ele><time>2026-03-29T07:30:34Z</time></trkpt><trkpt lat="45.53776603958469" lon="9.299603866554598"><ele>132.0</ele><time>2026-03-29T07:30:35Z</time></trkpt><trkpt lat="45.53772671851693" lon="9.299209802209864"><ele>133.0</ele><time>2026-03-29T07:30:36Z</time></trkpt><trkpt lat="45.53768790176017" lon="9.298822921854853"><ele>134.0</ele><time>2026-03-29T07:30:37Z</time></trkpt><trkpt lat="45.537648007911" lon="9.298452942865705"><ele>134.0</ele><time>2026-03-29T07:30:38Z</time></trkpt><trkpt lat="45.53760812418066" lon="9.298090409668244"><ele>134.0</ele><time>2026-03-29T07:30:39Z</time></trkpt><trkpt lat="45.53756748920297" lon="9.297757404538968"><ele>133.66666666666666</ele><time>2026-03-29T07:30:40Z</time></trkpt><trkpt lat="45.537530367036034" lon="9.297435705070729"><ele>133.33333333333334</ele><time>2026-03-29T07:30:41Z</time></trkpt><trkpt lat="45.53749680527228" lon="9.297123693717873"><ele>133.0</ele><time>2026-03-29T07:30:42Z</time></trkpt><trkpt lat="45.53746987338619" lon="9.296824886281158"><ele>133.0</ele><time>2026-03-29T07:30:43Z</time></trkpt><trkpt lat="45.53743566228667" lon="9.296518858921296"><ele>133.0</ele><time>2026-03-29T07:30:44Z</time></trkpt><trkpt lat="45.53740580636262" lon="9.29619166415861"><ele>133.0</ele><time>2026-03-29T07:30:45Z</time></trkpt><trkpt lat="45.53737668906474" lon="9.295850937444769"><ele>136.5</ele><time>2026-03-29T07:30:46Z</time></trkpt><trkpt lat="45.537344182723636" lon="9.295511001865432"><ele>140.0</ele><time>2026-03-29T07:30:47Z</time></trkpt><trkpt lat="45.53730913890051" lon="9.295164628961283"><ele>140.0</ele><time>2026-03-29T07:30:48Z</time></trkpt><trkpt lat="45.537275552412254" lon="9.29482183719478"><ele>140.0</ele><time>2026-03-29T07:30:49Z</time></trkpt><trkpt lat="45.53723914625292" lon="9.294480602128298"><ele>139.5</ele><time>2026-03-29T07:30:50Z</time></trkpt><trkpt lat="45.53720073204073" lon="9.29413702806755"><ele>139.0</ele><time>2026-03-29T07:30:51Z</time></trkpt><trkpt lat="45.537162425556375" lon="9.293799015824364"><ele>139.0</ele><time>2026-03-29T07:30:52Z</time></trkpt><trkpt lat="45.537125810543344" lon="9.29346415302548"><ele>139.0</ele><time>2026-03-29T07:30:53Z</time></trkpt><trkpt lat="45.53709170182601" lon="9.29312901089531"><ele>137.5</ele><time>2026-03-29T07:30:54Z</time></trkpt><trkpt lat="45.537058269365005" lon="9.29279892568093"><ele>136.0</ele><time>2026-03-29T07:30:55Z</time></trkpt><trkpt lat="45.537022716212256" lon="9.292477415706601"><ele>134.0</ele><time>2026-03-29T07:30:56Z</time></trkpt><trkpt lat="45.53698707602425" lon="9.292155129381765"><ele>132.0</ele><time>2026-03-29T07:30:57Z</time></trkpt><trkpt lat="45.536954466475194" lon="9.291837257411416"><ele>132.0</ele><time>2026-03-29T07:30:58Z</time></trkpt><trkpt lat="45.53692278129775" lon="9.291520211535097"><ele>132.0</ele><time>2026-03-29T07:30:59Z</time></trkpt><trkpt lat="45.536901488431226" lon="9.291209055198749"><ele>132.0</ele><time>2026-03-29T07:31:00Z</time></trkpt><trkpt lat="45.536890265441706" lon="9.290896431464502"><ele>133.0</ele><time>2026-03-29T07:31:01Z</time></trkpt><trkpt lat="45.536896249719014" lon="9.290579352882487"><ele>134.0</ele><time>2026-03-29T07:31:02Z</time></trkpt><trkpt lat="45.53692386030502" lon="9.290269060907303"><ele>135.0</ele><time>2026-03-29T07:31:03Z</time></trkpt><trkpt lat="45.5369646826349" lon="9.289957562151194"><ele>135.5</ele><time>2026-03-29T07:31:04Z</time></trkpt><trkpt lat="45.537015671721456" lon="9.289644280760667"><ele>136.0</ele><time>2026-03-29T07:31:05Z</time></trkpt><trkpt lat="45.53708351476533" lon="9.289325231349116"><ele>136.0</ele><time>2026-03-29T07:31:06Z</time></trkpt><trkpt lat="45.537152451183964" lon="9.28901849872657"><ele>136.0</ele><time>2026-03-29T07:31:07Z</time></trkpt><trkpt lat="45.537243491584725" lon="9.288702535275641"><ele>135.5</ele><time>2026-03-29T07:31:08Z</time></trkpt><trkpt lat="45.537355777341475" lon="9.288397981239356"><ele>135.0</ele><time>2026-03-29T07:31:09Z</time></trkpt><trkpt lat="45.53747687058642" lon="9.288102960498323"><ele>135.5</ele><time>2026-03-29T07:31:10Z</time></trkpt><trkpt lat="45.537605110564265" lon="9.287808972898763"><ele>136.0</ele><time>2026-03-29T07:31:11Z</time></trkpt><trkpt lat="45.53772605965384" lon="9.287509251057708"><ele>137.5</ele><time>2026-03-29T07:31:12Z</time></trkpt><trkpt lat="45.537832995929406" lon="9.287215464728085"><ele>139.0</ele><time>2026-03-29T07:31:13Z</time></trkpt><trkpt lat="45.53792236891622" lon="9.286903454157956"><ele>139.0</ele><time>2026-03-29T07:31:14Z</time></trkpt><trkpt lat="45.53798636170608" lon="9.286572890528653"><ele>139.0</ele><time>2026-03-29T07:31:15Z</time></trkpt><trkpt lat="45.53803926459632" lon="9.286247845123425"><ele>138.0</ele><time>2026-03-29T07:31:16Z</time></trkpt><trkpt lat="45.53806678428256" lon="9.28591600446266"><ele>137.0</ele><time>2026-03-29T07:31:17Z</time></trkpt><trkpt lat="45.538076136550174" lon="9.285595073821572"><ele>136.5</ele><time>2026-03-29T07:31:18Z</time></trkpt><trkpt lat="45.53806672940897" lon="9.285245000424887"><ele>136.0</ele><time>2026-03-29T07:31:19Z</time></trkpt><trkpt lat="45.538033257779986" lon="9.284937171717587"><ele>136.33333333333334</ele><time>2026-03-29T07:31:20Z</time></trkpt><trkpt lat="45.53798225630936" lon="9.284626903772446"><ele>136.66666666666666</ele><time>2026-03-29T07:31:21Z</time></trkpt><trkpt lat="45.537911363008234" lon="9.284331315788549"><ele>137.0</ele><time>2026-03-29T07:31:22Z</time></trkpt><trkpt lat="45.53783615499007" lon="9.284047729652693"><ele>137.66666666666666</ele><time>2026-03-29T07:31:23Z</time></trkpt><trkpt lat="45.537747171360806" lon="9.283770797393753"><ele>138.33333333333334</ele><time>2026-03-29T07:31:24Z</time></trkpt><trkpt lat="45.53764879996111" lon="9.283516753180294"><ele>139.0</ele><time>2026-03-29T07:31:25Z</time></trkpt><trkpt lat="45.537538216866714" lon="9.283276817051537"><ele>139.0</ele><time>2026-03-29T07:31:26Z</time></trkpt><trkpt lat="45.537420045165995" lon="9.283058067144262"><ele>139.0</ele><time>2026-03-29T07:31:27Z</time></trkpt><trkpt lat="45.53729951675131" lon="9.282849118904254"><ele>139.0</ele><time>2026-03-29T07:31:28Z</time></trkpt><trkpt lat="45.537181594080366" lon="9.282638265702507"><ele>139.0</ele><time>2026-03-29T07:31:29Z</time></trkpt><trkpt lat="45.537070894266336" lon="9.282421897098825"><ele>139.0</ele><time>2026-03-29T07:31:30Z</time></trkpt><trkpt lat="45.53696083056958" lon="9.28219998970869"><ele>139.0</ele><time>2026-03-29T07:31:31Z</time></trkpt><trkpt lat="45.53685018754977" lon="9.281969043316273"><ele>138.66666666666669</ele><time>2026-03-29T07:31:32Z</time></trkpt><trkpt lat="45.53672834833357" lon="9.281731603135208"><ele>138.33333333333334</ele><time>2026-03-29T07:31:33Z</time></trkpt><trkpt lat="45.536599966874846" lon="9.281486755695134"><ele>138.0</ele><time>2026-03-29T07:31:34Z</time></trkpt><trkpt lat="45.53647343825582" lon="9.281239851896741"><ele>138.0</ele><time>2026-03-29T07:31:35Z</time></trkpt><trkpt lat="45.53634678488974" lon="9.280981001889714"><ele>138.0</ele><time>2026-03-29T07:31:36Z</time></trkpt><trkpt lat="45.53621741065653" lon="9.280717032712397"><ele>138.0</ele><time>2026-03-29T07:31:37Z</time></trkpt><trkpt lat="45.53608605038683" lon="9.280449264380804"><ele>137.5</ele><time>2026-03-29T07:31:38Z</time></trkpt><trkpt lat="45.5359541435543" lon="9.280180046853802"><ele>137.0</ele><time>2026-03-29T07:31:39Z</time></trkpt><trkpt lat="45.53581728296642" lon="9.279909193803945"><ele>136.5</ele><time>2026-03-29T07:31:40Z</time></trkpt><trkpt lat="45.53567785424616" lon="9.279633048019633"><ele>136.0</ele><time>2026-03-29T07:31:41Z</time></trkpt><trkpt lat="45.535534404747956" lon="9.279350221304275"><ele>136.5</ele><time>2026-03-29T07:31:41.999Z</time></trkpt><trkpt lat="45.535384094558815" lon="9.279056125675964"><ele>137.0</ele><time>2026-03-29T07:31:42.999Z</time></trkpt><trkpt lat="45.535231419874805" lon="9.278758420994846"><ele>137.0</ele><time>2026-03-29T07:31:43.999Z</time></trkpt><trkpt lat="45.53508072383895" lon="9.27844963245895"><ele>137.0</ele><time>2026-03-29T07:31:44.999Z</time></trkpt><trkpt lat="45.53493009285219" lon="9.278130458615365"><ele>138.0</ele><time>2026-03-29T07:31:45.999Z</time></trkpt><trkpt lat="45.53477585455226" lon="9.277810470687413"><ele>139.0</ele><time>2026-03-29T07:31:46.999Z</time></trkpt><trkpt lat="45.53462431041709" lon="9.277489350190104"><ele>137.0</ele><time>2026-03-29T07:31:47.999Z</time></trkpt><trkpt lat="45.53447138809863" lon="9.277161819649853"><ele>135.0</ele><time>2026-03-29T07:31:48.999Z</time></trkpt><trkpt lat="45.534322764219" lon="9.276836779080611"><ele>135.0</ele><time>2026-03-29T07:31:49.999Z</time></trkpt><trkpt lat="45.53416886728444" lon="9.276507670765591"><ele>135.0</ele><time>2026-03-29T07:31:50.999Z</time></trkpt><trkpt lat="45.53401412537399" lon="9.276178341942364"><ele>135.5</ele><time>2026-03-29T07:31:51.999Z</time></trkpt><trkpt lat="45.53385851187785" lon="9.27584870981764"><ele>136.0</ele><time>2026-03-29T07:31:52.999Z</time></trkpt><trkpt lat="45.53370404120611" lon="9.275516184908419"><ele>136.0</ele><time>2026-03-29T07:31:53.999Z</time></trkpt><trkpt lat="45.533550434474634" lon="9.275185645082628"><ele>136.0</ele><time>2026-03-29T07:31:54.999Z</time></trkpt><trkpt lat="45.533398563381525" lon="9.274856998534684"><ele>136.5</ele><time>2026-03-29T07:31:55.999Z</time></trkpt><trkpt lat="45.533238792307365" lon="9.274529798408942"><ele>137.0</ele><time>2026-03-29T07:31:56.999Z</time></trkpt><trkpt lat="45.53307872634626" lon="9.274205663640851"><ele>137.5</ele><time>2026-03-29T07:31:57.999Z</time></trkpt><trkpt lat="45.53292084462053" lon="9.273879961009309"><ele>138.0</ele><time>2026-03-29T07:31:58.999Z</time></trkpt><trkpt lat="45.532765364244" lon="9.273549914836552"><ele>137.0</ele><time>2026-03-29T07:31:59.999Z</time></trkpt><trkpt lat="45.53261103068852" lon="9.273220212924024"><ele>136.0</ele><time>2026-03-29T07:32:01Z</time></trkpt><trkpt lat="45.532462259747845" lon="9.272886995824535"><ele>135.5</ele><time>2026-03-29T07:32:02Z</time></trkpt><trkpt lat="45.532309763758185" lon="9.27255773295026"><ele>135.0</ele><time>2026-03-29T07:32:03Z</time></trkpt><trkpt lat="45.532154490059774" lon="9.272230375416784"><ele>134.0</ele><time>2026-03-29T07:32:04Z</time></trkpt><trkpt lat="45.532002884471964" lon="9.27190819426264"><ele>133.0</ele><time>2026-03-29T07:32:05Z</time></trkpt><trkpt lat="45.531846866096636" lon="9.271587964070687"><ele>134.0</ele><time>2026-03-29T07:32:06Z</time></trkpt><trkpt lat="45.53169297512964" lon="9.27126510895256"><ele>135.0</ele><time>2026-03-29T07:32:07Z</time></trkpt><trkpt lat="45.531541478343144" lon="9.270948061885138"><ele>135.0</ele><time>2026-03-29T07:32:08Z</time></trkpt><trkpt lat="45.531386037529764" lon="9.27063164851399"><ele>135.0</ele><time>2026-03-29T07:32:09Z</time></trkpt><trkpt lat="45.53123537294302" lon="9.270314943907714"><ele>135.5</ele><time>2026-03-29T07:32:10Z</time></trkpt><trkpt lat="45.53108379708713" lon="9.269996568009981"><ele>136.0</ele><time>2026-03-29T07:32:11Z</time></trkpt><trkpt lat="45.530933058868044" lon="9.269686809731905"><ele>136.5</ele><time>2026-03-29T07:32:12Z</time></trkpt><trkpt lat="45.530778953479704" lon="9.269383306505366"><ele>137.0</ele><time>2026-03-29T07:32:13Z</time></trkpt><trkpt lat="45.53063310982119" lon="9.269073671022007"><ele>136.5</ele><time>2026-03-29T07:32:14Z</time></trkpt><trkpt lat="45.53048639706491" lon="9.268771476995077"><ele>136.0</ele><time>2026-03-29T07:32:15Z</time></trkpt><trkpt lat="45.53033922622231" lon="9.268478976584996"><ele>136.0</ele><time>2026-03-29T07:32:16Z</time></trkpt><trkpt lat="45.530186285361275" lon="9.268197116144538"><ele>136.0</ele><time>2026-03-29T07:32:17Z</time></trkpt><trkpt lat="45.530026465713085" lon="9.26793373763471"><ele>135.0</ele><time>2026-03-29T07:32:18Z</time></trkpt><trkpt lat="45.52985886548752" lon="9.267686062609036"><ele>134.0</ele><time>2026-03-29T07:32:19Z</time></trkpt><trkpt lat="45.52968064147706" lon="9.267460057001228"><ele>134.0</ele><time>2026-03-29T07:32:20Z</time></trkpt><trkpt lat="45.529502901274235" lon="9.267249073445583"><ele>134.0</ele><time>2026-03-29T07:32:21Z</time></trkpt><trkpt lat="45.5293202888757" lon="9.267056793513868"><ele>134.0</ele><time>2026-03-29T07:32:22Z</time></trkpt><trkpt lat="45.52913199508324" lon="9.266879193922412"><ele>134.0</ele><time>2026-03-29T07:32:23Z</time></trkpt><trkpt lat="45.52893985430778" lon="9.266713532889888"><ele>134.0</ele><time>2026-03-29T07:32:24Z</time></trkpt><trkpt lat="45.528740870162316" lon="9.266557229396845"><ele>134.0</ele><time>2026-03-29T07:32:25Z</time></trkpt><trkpt lat="45.52853907268883" lon="9.266406280221178"><ele>136.5</ele><time>2026-03-29T07:32:26Z</time></trkpt><trkpt lat="45.52833776439678" lon="9.26625803186621"><ele>139.0</ele><time>2026-03-29T07:32:27Z</time></trkpt><trkpt lat="45.52813449748775" lon="9.266105233015828"><ele>139.0</ele><time>2026-03-29T07:32:28Z</time></trkpt><trkpt lat="45.52792826473822" lon="9.265948886848228"><ele>139.0</ele><time>2026-03-29T07:32:29Z</time></trkpt><trkpt lat="45.52772667634106" lon="9.265784459867634"><ele>135.5</ele><time>2026-03-29T07:32:30Z</time></trkpt><trkpt lat="45.52752805940464" lon="9.265606274858515"><ele>132.0</ele><time>2026-03-29T07:32:31Z</time></trkpt><trkpt lat="45.52733998457326" lon="9.26541447596872"><ele>132.0</ele><time>2026-03-29T07:32:32Z</time></trkpt><trkpt lat="45.527166474456216" lon="9.265208634748907"><ele>132.0</ele><time>2026-03-29T07:32:33Z</time></trkpt><trkpt lat="45.52699582508232" lon="9.264983863001573"><ele>133.66666666666666</ele><time>2026-03-29T07:32:34Z</time></trkpt><trkpt lat="45.526839697568136" lon="9.264752911867843"><ele>135.33333333333331</ele><time>2026-03-29T07:32:35Z</time></trkpt><trkpt lat="45.52669617884681" lon="9.264508136749543"><ele>137.0</ele><time>2026-03-29T07:32:36Z</time></trkpt><trkpt lat="45.52656327912087" lon="9.26424937492705"><ele>137.0</ele><time>2026-03-29T07:32:37Z</time></trkpt><trkpt lat="45.52644521694156" lon="9.263978003176435"><ele>137.0</ele><time>2026-03-29T07:32:38Z</time></trkpt><trkpt lat="45.52633803425859" lon="9.263696019889718"><ele>137.0</ele><time>2026-03-29T07:32:39Z</time></trkpt><trkpt lat="45.52624173799335" lon="9.263415043128681"><ele>136.33333333333331</ele><time>2026-03-29T07:32:40Z</time></trkpt><trkpt lat="45.52615289587477" lon="9.26313014564189"><ele>135.66666666666666</ele><time>2026-03-29T07:32:41Z</time></trkpt><trkpt lat="45.52606576024118" lon="9.262845280167104"><ele>135.0</ele><time>2026-03-29T07:32:42Z</time></trkpt><trkpt lat="45.52596324475726" lon="9.262570159988584"><ele>134.33333333333334</ele><time>2026-03-29T07:32:43Z</time></trkpt><trkpt lat="45.52584544750257" lon="9.262306449189325"><ele>133.66666666666669</ele><time>2026-03-29T07:32:44Z</time></trkpt><trkpt lat="45.52571568806245" lon="9.262052188796481"><ele>133.0</ele><time>2026-03-29T07:32:45Z</time></trkpt><trkpt lat="45.52557284672533" lon="9.261812438979183"><ele>133.0</ele><time>2026-03-29T07:32:46Z</time></trkpt><trkpt lat="45.52541818912301" lon="9.261583775586836"><ele>133.0</ele><time>2026-03-29T07:32:47Z</time></trkpt><trkpt lat="45.525253006144766" lon="9.261371625290696"><ele>133.0</ele><time>2026-03-29T07:32:48Z</time></trkpt><trkpt lat="45.525076145074486" lon="9.26117720026596"><ele>132.66666666666669</ele><time>2026-03-29T07:32:49Z</time></trkpt><trkpt lat="45.52488846769549" lon="9.261003045885634"><ele>132.33333333333334</ele><time>2026-03-29T07:32:50Z</time></trkpt><trkpt lat="45.52469220894546" lon="9.260846944689003"><ele>132.0</ele><time>2026-03-29T07:32:51Z</time></trkpt><trkpt lat="45.524490475492215" lon="9.260712356267971"><ele>131.0</ele><time>2026-03-29T07:32:52Z</time></trkpt><trkpt lat="45.52429115643087" lon="9.26058992435588"><ele>130.0</ele><time>2026-03-29T07:32:53Z</time></trkpt><trkpt lat="45.524067936173424" lon="9.260487225922105"><ele>130.0</ele><time>2026-03-29T07:32:54Z</time></trkpt><trkpt lat="45.52385214995746" lon="9.260418782053087"><ele>130.0</ele><time>2026-03-29T07:32:55Z</time></trkpt><trkpt lat="45.523630198523115" lon="9.26036242472229"><ele>130.0</ele><time>2026-03-29T07:32:56Z</time></trkpt><trkpt lat="45.52340826497864" lon="9.260329205325698"><ele>130.0</ele><time>2026-03-29T07:32:57Z</time></trkpt><trkpt lat="45.523183036047094" lon="9.260320424543835"><ele>130.0</ele><time>2026-03-29T07:32:58Z</time></trkpt><trkpt lat="45.52295914577005" lon="9.260328346982764"><ele>130.0</ele><time>2026-03-29T07:32:59Z</time></trkpt><trkpt lat="45.52273207155895" lon="9.260358786523378"><ele>129.0</ele><time>2026-03-29T07:33:00Z</time></trkpt><trkpt lat="45.522508306246934" lon="9.260408731958272"><ele>128.0</ele><time>2026-03-29T07:33:01Z</time></trkpt><trkpt lat="45.522284740264574" lon="9.260476115769448"><ele>129.5</ele><time>2026-03-29T07:33:02Z</time></trkpt><trkpt lat="45.522059032345524" lon="9.26054643583888"><ele>131.0</ele><time>2026-03-29T07:33:03Z</time></trkpt><trkpt lat="45.521831955631164" lon="9.26061877438874"><ele>131.0</ele><time>2026-03-29T07:33:04Z</time></trkpt><trkpt lat="45.52160175700123" lon="9.260687103130136"><ele>131.0</ele><time>2026-03-29T07:33:05Z</time></trkpt><trkpt lat="45.52136345918891" lon="9.260760787019052"><ele>130.0</ele><time>2026-03-29T07:33:06Z</time></trkpt><trkpt lat="45.52113465220471" lon="9.260829766392364"><ele>129.0</ele><time>2026-03-29T07:33:07Z</time></trkpt><trkpt lat="45.52090437370489" lon="9.260899613588368"><ele>129.0</ele><time>2026-03-29T07:33:08Z</time></trkpt><trkpt lat="45.52067382249015" lon="9.260965769318236"><ele>129.0</ele><time>2026-03-29T07:33:09Z</time></trkpt><trkpt lat="45.52044216509615" lon="9.261028003736298"><ele>129.5</ele><time>2026-03-29T07:33:10Z</time></trkpt><trkpt lat="45.52021478883126" lon="9.261084804482905"><ele>130.0</ele><time>2026-03-29T07:33:11Z</time></trkpt><trkpt lat="45.519984086233464" lon="9.261124667198674"><ele>130.0</ele><time>2026-03-29T07:33:12Z</time></trkpt><trkpt lat="45.51975707085179" lon="9.261166752938069"><ele>130.0</ele><time>2026-03-29T07:33:13Z</time></trkpt><trkpt lat="45.51952892858794" lon="9.261211151769945"><ele>128.0</ele><time>2026-03-29T07:33:14Z</time></trkpt><trkpt lat="45.51930213647265" lon="9.261250349280699"><ele>126.0</ele><time>2026-03-29T07:33:15Z</time></trkpt><trkpt lat="45.519077467251634" lon="9.261283038553387"><ele>126.0</ele><time>2026-03-29T07:33:16Z</time></trkpt><trkpt lat="45.518849021861755" lon="9.261318956352806"><ele>126.0</ele><time>2026-03-29T07:33:17Z</time></trkpt><trkpt lat="45.51861493382627" lon="9.261359419797783"><ele>126.5</ele><time>2026-03-29T07:33:18Z</time></trkpt><trkpt lat="45.51838704783495" lon="9.2613933858746"><ele>127.0</ele><time>2026-03-29T07:33:19Z</time></trkpt><trkpt lat="45.5181596639257" lon="9.26142511560852"><ele>126.0</ele><time>2026-03-29T07:33:20Z</time></trkpt><trkpt lat="45.51792937511137" lon="9.261454599639487"><ele>125.0</ele><time>2026-03-29T07:33:21Z</time></trkpt><trkpt lat="45.517697873654946" lon="9.261479006193833"><ele>124.0</ele><time>2026-03-29T07:33:22Z</time></trkpt><trkpt lat="45.51746611963535" lon="9.26149374416439"><ele>123.0</ele><time>2026-03-29T07:33:23Z</time></trkpt><trkpt lat="45.51723329267024" lon="9.261503701668527"><ele>124.0</ele><time>2026-03-29T07:33:24Z</time></trkpt><trkpt lat="45.51700254200163" lon="9.261504331901245"><ele>125.0</ele><time>2026-03-29T07:33:25Z</time></trkpt><trkpt lat="45.51676905293637" lon="9.261504921583226"><ele>125.0</ele><time>2026-03-29T07:33:26Z</time></trkpt><trkpt lat="45.516531881545255" lon="9.261502996990721"><ele>125.0</ele><time>2026-03-29T07:33:27Z</time></trkpt><trkpt lat="45.516300218712665" lon="9.261492951318388"><ele>126.5</ele><time>2026-03-29T07:33:28Z</time></trkpt><trkpt lat="45.516064061718026" lon="9.261477293959567"><ele>128.0</ele><time>2026-03-29T07:33:29Z</time></trkpt><trkpt lat="45.51582859689532" lon="9.261456329809215"><ele>127.5</ele><time>2026-03-29T07:33:30Z</time></trkpt><trkpt lat="45.51559229505114" lon="9.261427739591378"><ele>127.0</ele><time>2026-03-29T07:33:31Z</time></trkpt><trkpt lat="45.51535957117973" lon="9.261397734567684"><ele>125.5</ele><time>2026-03-29T07:33:32Z</time></trkpt><trkpt lat="45.515127883272314" lon="9.261369554030777"><ele>124.0</ele><time>2026-03-29T07:33:33Z</time></trkpt><trkpt lat="45.51489953633689" lon="9.261343145372557"><ele>124.0</ele><time>2026-03-29T07:33:34Z</time></trkpt><trkpt lat="45.514674469257045" lon="9.261319606391686"><ele>124.0</ele><time>2026-03-29T07:33:35Z</time></trkpt><trkpt lat="45.51445098447608" lon="9.261294339903577"><ele>125.33333333333334</ele><time>2026-03-29T07:33:36Z</time></trkpt><trkpt lat="45.514228071238946" lon="9.261276767969889"><ele>126.66666666666666</ele><time>2026-03-29T07:33:37Z</time></trkpt><trkpt lat="45.51400350101262" lon="9.261260961498994"><ele>128.0</ele><time>2026-03-29T07:33:38Z</time></trkpt><trkpt lat="45.51378064197416" lon="9.261250407724804"><ele>129.66666666666666</ele><time>2026-03-29T07:33:39Z</time></trkpt><trkpt lat="45.513560758726285" lon="9.261244628237852"><ele>131.33333333333334</ele><time>2026-03-29T07:33:40Z</time></trkpt><trkpt lat="45.513337966814426" lon="9.261251622578543"><ele>133.0</ele><time>2026-03-29T07:33:41Z</time></trkpt><trkpt lat="45.51311786302949" lon="9.26126302992467"><ele>131.66666666666669</ele><time>2026-03-29T07:33:42Z</time></trkpt><trkpt lat="45.51289408811696" lon="9.261280632728033"><ele>130.33333333333334</ele><time>2026-03-29T07:33:43Z</time></trkpt><trkpt lat="45.51267361598582" lon="9.261298102549862"><ele>129.0</ele><time>2026-03-29T07:33:44Z</time></trkpt><trkpt lat="45.51245224796269" lon="9.261309698862698"><ele>129.0</ele><time>2026-03-29T07:33:45Z</time></trkpt><trkpt lat="45.5122283620178" lon="9.261321499015862"><ele>129.0</ele><time>2026-03-29T07:33:46Z</time></trkpt><trkpt lat="45.512006223649124" lon="9.261334476172063"><ele>129.0</ele><time>2026-03-29T07:33:47Z</time></trkpt><trkpt lat="45.51178011163259" lon="9.261356468041866"><ele>128.33333333333334</ele><time>2026-03-29T07:33:48Z</time></trkpt><trkpt lat="45.51155571999472" lon="9.261387426640407"><ele>127.66666666666667</ele><time>2026-03-29T07:33:49Z</time></trkpt><trkpt lat="45.51134175063035" lon="9.261429764126486"><ele>127.0</ele><time>2026-03-29T07:33:50Z</time></trkpt><trkpt lat="45.51112968234599" lon="9.261481826511657"><ele>126.33333333333334</ele><time>2026-03-29T07:33:51Z</time></trkpt><trkpt lat="45.510908604664365" lon="9.26153716099451"><ele>125.66666666666666</ele><time>2026-03-29T07:33:52Z</time></trkpt><trkpt lat="45.510729115243564" lon="9.26159887912366"><ele>125.0</ele><time>2026-03-29T07:33:53Z</time></trkpt><trkpt lat="45.510534319154765" lon="9.26166278412792"><ele>125.0</ele><time>2026-03-29T07:33:54Z</time></trkpt><trkpt lat="45.51033801911005" lon="9.261705708787778"><ele>125.0</ele><time>2026-03-29T07:33:55Z</time></trkpt><trkpt lat="45.51014383268938" lon="9.261728446126167"><ele>125.0</ele><time>2026-03-29T07:33:56Z</time></trkpt><trkpt lat="45.5099521778303" lon="9.2617362565779"><ele>125.0</ele><time>2026-03-29T07:33:57Z</time></trkpt><trkpt lat="45.5097609275118" lon="9.261722496041935"><ele>125.0</ele><time>2026-03-29T07:33:58Z</time></trkpt><trkpt lat="45.509574516456915" lon="9.261691764393241"><ele>125.0</ele><time>2026-03-29T07:33:59Z</time></trkpt><trkpt lat="45.50938621622701" lon="9.261647579257895"><ele>124.66666666666666</ele><time>2026-03-29T07:34:00Z</time></trkpt><trkpt lat="45.50920188001484" lon="9.261595901447459"><ele>124.33333333333334</ele><time>2026-03-29T07:34:01Z</time></trkpt><trkpt lat="45.50901691220461" lon="9.261529134203252"><ele>124.0</ele><time>2026-03-29T07:34:02Z</time></trkpt><trkpt lat="45.508837468605705" lon="9.261446178718327"><ele>123.66666666666667</ele><time>2026-03-29T07:34:03Z</time></trkpt><trkpt lat="45.50867138634846" lon="9.261354787055703"><ele>123.33333333333334</ele><time>2026-03-29T07:34:04Z</time></trkpt><trkpt lat="45.508509114944786" lon="9.261256147509934"><ele>123.0</ele><time>2026-03-29T07:34:05Z</time></trkpt><trkpt lat="45.50834782755907" lon="9.261141598990196"><ele>123.0</ele><time>2026-03-29T07:34:06Z</time></trkpt><trkpt lat="45.5081981095599" lon="9.261014742647115"><ele>123.0</ele><time>2026-03-29T07:34:07Z</time></trkpt><trkpt lat="45.50805932187777" lon="9.260879002352869"><ele>123.0</ele><time>2026-03-29T07:34:08Z</time></trkpt><trkpt lat="45.50793646271441" lon="9.260738233042913"><ele>123.25</ele><time>2026-03-29T07:34:09Z</time></trkpt><trkpt lat="45.5078256764062" lon="9.260589876999548"><ele>123.5</ele><time>2026-03-29T07:34:10Z</time></trkpt><trkpt lat="45.50772307170084" lon="9.26043429632749"><ele>123.75</ele><time>2026-03-29T07:34:11Z</time></trkpt><trkpt lat="45.50763045111536" lon="9.260278986236344"><ele>124.0</ele><time>2026-03-29T07:34:12Z</time></trkpt><trkpt lat="45.50754244700392" lon="9.260136237841156"><ele>124.0</ele><time>2026-03-29T07:34:13Z</time></trkpt><trkpt lat="45.5074604552628" lon="9.260010298460962"><ele>124.0</ele><time>2026-03-29T07:34:14Z</time></trkpt><trkpt lat="45.50737723817122" lon="9.259905433201387"><ele>124.0</ele><time>2026-03-29T07:34:15Z</time></trkpt><trkpt lat="45.507296820322274" lon="9.259842612823238"><ele>124.0</ele><time>2026-03-29T07:34:16Z</time></trkpt><trkpt lat="45.507210118915566" lon="9.259809009040161"><ele>124.0</ele><time>2026-03-29T07:34:17Z</time></trkpt><trkpt lat="45.50712363649738" lon="9.259789056357743"><ele>123.83333333333334</ele><time>2026-03-29T07:34:18Z</time></trkpt><trkpt lat="45.50703771554266" lon="9.259768818825378"><ele>123.66666666666667</ele><time>2026-03-29T07:34:19Z</time></trkpt><trkpt lat="45.50695862817598" lon="9.259744303557216"><ele>123.5</ele><time>2026-03-29T07:34:20Z</time></trkpt><trkpt lat="45.50688374243019" lon="9.259711811066992"><ele>123.33333333333334</ele><time>2026-03-29T07:34:21Z</time></trkpt><trkpt lat="45.506814563984896" lon="9.259668014203406"><ele>123.16666666666667</ele><time>2026-03-29T07:34:22Z</time></trkpt><trkpt lat="45.50675204642398" lon="9.25961880179885"><ele>123.0</ele><time>2026-03-29T07:34:23Z</time></trkpt><trkpt lat="45.50664694045524" lon="9.259553405862308"><ele>123.0</ele><time>2026-03-29T07:34:25Z</time></trkpt><trkpt lat="45.50657541287615" lon="9.25951884739883"><ele>123.0</ele><time>2026-03-29T07:34:27Z</time></trkpt><trkpt lat="45.506522693444396" lon="9.259469431288409"><ele>123.0</ele><time>2026-03-29T07:34:53Z</time></trkpt><trkpt lat="45.50642885256903" lon="9.259370663043585"><ele>123.0</ele><time>2026-03-29T07:34:55Z</time></trkpt><trkpt lat="45.50636722497284" lon="9.259323532424695"><ele>123.0</ele><time>2026-03-29T07:34:56Z</time></trkpt><trkpt lat="45.50629501122425" lon="9.259279186395583"><ele>123.0</ele><time>2026-03-29T07:34:57Z</time></trkpt><trkpt lat="45.50620417480309" lon="9.259220474959577"><ele>122.5</ele><time>2026-03-29T07:34:58Z</time></trkpt><trkpt lat="45.5060937712994" lon="9.259172670331829"><ele>122.0</ele><time>2026-03-29T07:34:59Z</time></trkpt><trkpt lat="45.50598233329205" lon="9.259131110224748"><ele>121.5</ele><time>2026-03-29T07:35:00Z</time></trkpt><trkpt lat="45.50585624455534" lon="9.25908616976675"><ele>121.0</ele><time>2026-03-29T07:35:01Z</time></trkpt><trkpt lat="45.50573945125198" lon="9.259042773291343"><ele>121.0</ele><time>2026-03-29T07:35:02Z</time></trkpt><trkpt lat="45.50561419878006" lon="9.258978946473267"><ele>121.0</ele><time>2026-03-29T07:35:03Z</time></trkpt><trkpt lat="45.50548473861699" lon="9.258894538693514"><ele>121.0</ele><time>2026-03-29T07:35:04Z</time></trkpt><trkpt lat="45.50535013377365" lon="9.258792172288874"><ele>121.0</ele><time>2026-03-29T07:35:05Z</time></trkpt><trkpt lat="45.50520922431434" lon="9.25868265896195"><ele>121.66666666666667</ele><time>2026-03-29T07:35:06Z</time></trkpt><trkpt lat="45.50506288018683" lon="9.25856857687074"><ele>122.33333333333334</ele><time>2026-03-29T07:35:07Z</time></trkpt><trkpt lat="45.50491799430256" lon="9.258459918327913"><ele>123.0</ele><time>2026-03-29T07:35:08Z</time></trkpt><trkpt lat="45.50478016792175" lon="9.258358401275418"><ele>123.0</ele><time>2026-03-29T07:35:09Z</time></trkpt><trkpt lat="45.504631855499895" lon="9.258247352771441"><ele>123.0</ele><time>2026-03-29T07:35:10Z</time></trkpt><trkpt lat="45.50447896533423" lon="9.258131790782269"><ele>123.0</ele><time>2026-03-29T07:35:11Z</time></trkpt><trkpt lat="45.50431710779224" lon="9.25801251573033"><ele>121.66666666666666</ele><time>2026-03-29T07:35:12Z</time></trkpt><trkpt lat="45.50414759766481" lon="9.257888161312833"><ele>120.33333333333333</ele><time>2026-03-29T07:35:13Z</time></trkpt><trkpt lat="45.503977333223716" lon="9.257760145457388"><ele>119.0</ele><time>2026-03-29T07:35:14Z</time></trkpt><trkpt lat="45.50380330137401" lon="9.257627720377513"><ele>119.33333333333333</ele><time>2026-03-29T07:35:15Z</time></trkpt><trkpt lat="45.50362437688615" lon="9.257488228283245"><ele>119.66666666666666</ele><time>2026-03-29T07:35:16Z</time></trkpt><trkpt lat="45.50344499997368" lon="9.25734990637539"><ele>120.0</ele><time>2026-03-29T07:35:17Z</time></trkpt><trkpt lat="45.50328191071235" lon="9.257220493677247"><ele>120.0</ele><time>2026-03-29T07:35:18Z</time></trkpt><trkpt lat="45.50311248242337" lon="9.257089811187523"><ele>120.0</ele><time>2026-03-29T07:35:19Z</time></trkpt><trkpt lat="45.50294124092711" lon="9.256958413829013"><ele>120.0</ele><time>2026-03-29T07:35:20Z</time></trkpt><trkpt lat="45.50277303924491" lon="9.256827906718984"><ele>120.0</ele><time>2026-03-29T07:35:21Z</time></trkpt><trkpt lat="45.50260685791598" lon="9.256703754751642"><ele>120.0</ele><time>2026-03-29T07:35:22Z</time></trkpt><trkpt lat="45.50244096116263" lon="9.256578788118482"><ele>120.0</ele><time>2026-03-29T07:35:23Z</time></trkpt><trkpt lat="45.502275081109204" lon="9.256450000530641"><ele>120.0</ele><time>2026-03-29T07:35:24Z</time></trkpt><trkpt lat="45.50210901312171" lon="9.256320845128752"><ele>120.0</ele><time>2026-03-29T07:35:25Z</time></trkpt><trkpt lat="45.501944966101924" lon="9.256191675848122"><ele>120.0</ele><time>2026-03-29T07:35:26Z</time></trkpt><trkpt lat="45.50177355610117" lon="9.256061652086357"><ele>120.33333333333334</ele><time>2026-03-29T07:35:27Z</time></trkpt><trkpt lat="45.50158343988679" lon="9.255942627064762"><ele>120.66666666666667</ele><time>2026-03-29T07:35:28Z</time></trkpt><trkpt lat="45.50138560211229" lon="9.25582889531441"><ele>121.0</ele><time>2026-03-29T07:35:29Z</time></trkpt><trkpt lat="45.5011807492356" lon="9.25572468653999"><ele>121.0</ele><time>2026-03-29T07:35:30Z</time></trkpt><trkpt lat="45.50096968979543" lon="9.255633641818282"><ele>121.0</ele><time>2026-03-29T07:35:31Z</time></trkpt><trkpt lat="45.50075205718957" lon="9.255553282052682"><ele>121.0</ele><time>2026-03-29T07:35:32Z</time></trkpt><trkpt lat="45.50053181404635" lon="9.255482800277273"><ele>121.0</ele><time>2026-03-29T07:35:33Z</time></trkpt><trkpt lat="45.50031012795227" lon="9.255422493821383"><ele>121.0</ele><time>2026-03-29T07:35:34Z</time></trkpt><trkpt lat="45.50009366681541" lon="9.255374038199749"><ele>121.0</ele><time>2026-03-29T07:35:35Z</time></trkpt><trkpt lat="45.49987092340659" lon="9.25533665230747"><ele>121.0</ele><time>2026-03-29T07:35:36Z</time></trkpt><trkpt lat="45.49966573056145" lon="9.255307682248603"><ele>121.0</ele><time>2026-03-29T07:35:37Z</time></trkpt><trkpt lat="45.49942125776549" lon="9.25528649552235"><ele>122.0</ele><time>2026-03-29T07:35:38Z</time></trkpt><trkpt lat="45.49918932430211" lon="9.255265295762051"><ele>123.0</ele><time>2026-03-29T07:35:39Z</time></trkpt><trkpt lat="45.498955143977305" lon="9.255244825010001"><ele>124.5</ele><time>2026-03-29T07:35:40Z</time></trkpt><trkpt lat="45.49872117448097" lon="9.255222107748466"><ele>126.0</ele><time>2026-03-29T07:35:41Z</time></trkpt><trkpt lat="45.498485047661156" lon="9.255200007864794"><ele>126.0</ele><time>2026-03-29T07:35:42Z</time></trkpt><trkpt lat="45.49824771638438" lon="9.2551768904897"><ele>126.0</ele><time>2026-03-29T07:35:43Z</time></trkpt><trkpt lat="45.49801052389987" lon="9.255150956005235"><ele>125.0</ele><time>2026-03-29T07:35:44Z</time></trkpt><trkpt lat="45.497772486297045" lon="9.255127109345551"><ele>124.0</ele><time>2026-03-29T07:35:45Z</time></trkpt><trkpt lat="45.49753252171259" lon="9.25510009149513"><ele>124.0</ele><time>2026-03-29T07:35:46Z</time></trkpt><trkpt lat="45.497294138720754" lon="9.255072258452568"><ele>124.0</ele><time>2026-03-29T07:35:47Z</time></trkpt><trkpt lat="45.49705141795289" lon="9.25503925317418"><ele>121.5</ele><time>2026-03-29T07:35:48Z</time></trkpt><trkpt lat="45.496814941728815" lon="9.254997416478046"><ele>119.0</ele><time>2026-03-29T07:35:49Z</time></trkpt><trkpt lat="45.49658076197765" lon="9.254938903240426"><ele>119.0</ele><time>2026-03-29T07:35:50Z</time></trkpt><trkpt lat="45.49634804042277" lon="9.254862556732673"><ele>119.0</ele><time>2026-03-29T07:35:51Z</time></trkpt><trkpt lat="45.496116078764985" lon="9.254774327153422"><ele>122.0</ele><time>2026-03-29T07:35:52Z</time></trkpt><trkpt lat="45.49588653002706" lon="9.254671347253458"><ele>125.0</ele><time>2026-03-29T07:35:53Z</time></trkpt><trkpt lat="45.49566388396094" lon="9.254556260719188"><ele>125.0</ele><time>2026-03-29T07:35:54Z</time></trkpt><trkpt lat="45.495439603796676" lon="9.254431938283728"><ele>125.0</ele><time>2026-03-29T07:35:55Z</time></trkpt><trkpt lat="45.49521840536488" lon="9.254290650977119"><ele>122.5</ele><time>2026-03-29T07:35:56Z</time></trkpt><trkpt lat="45.494998615490154" lon="9.254150639681718"><ele>120.0</ele><time>2026-03-29T07:35:57Z</time></trkpt><trkpt lat="45.49477778165674" lon="9.254010598914276"><ele>119.0</ele><time>2026-03-29T07:35:58Z</time></trkpt><trkpt lat="45.49455790481153" lon="9.25387453179305"><ele>118.0</ele><time>2026-03-29T07:35:59Z</time></trkpt><trkpt lat="45.4943365242696" lon="9.253741535671452"><ele>118.0</ele><time>2026-03-29T07:36:00Z</time></trkpt><trkpt lat="45.49411564046952" lon="9.253607554862832"><ele>118.0</ele><time>2026-03-29T07:36:01Z</time></trkpt><trkpt lat="45.49389647214607" lon="9.253470195231412"><ele>119.5</ele><time>2026-03-29T07:36:02Z</time></trkpt><trkpt lat="45.49368238200926" lon="9.253330782308714"><ele>121.0</ele><time>2026-03-29T07:36:03Z</time></trkpt><trkpt lat="45.49346562852249" lon="9.25318883997125"><ele>121.0</ele><time>2026-03-29T07:36:04Z</time></trkpt><trkpt lat="45.493246251406404" lon="9.253048493367752"><ele>121.0</ele><time>2026-03-29T07:36:05Z</time></trkpt><trkpt lat="45.49303185768323" lon="9.252910371670023"><ele>121.0</ele><time>2026-03-29T07:36:06Z</time></trkpt><trkpt lat="45.49281018537829" lon="9.252776509538972"><ele>121.0</ele><time>2026-03-29T07:36:07Z</time></trkpt><trkpt lat="45.492591384975164" lon="9.252644509400627"><ele>121.0</ele><time>2026-03-29T07:36:08Z</time></trkpt><trkpt lat="45.49236834409808" lon="9.252523905027836"><ele>121.0</ele><time>2026-03-29T07:36:09Z</time></trkpt><trkpt lat="45.49214487290246" lon="9.25241151964155"><ele>122.5</ele><time>2026-03-29T07:36:10Z</time></trkpt><trkpt lat="45.49191690853929" lon="9.252301043462634"><ele>124.0</ele><time>2026-03-29T07:36:11Z</time></trkpt><trkpt lat="45.49169027143626" lon="9.252194563509644"><ele>124.0</ele><time>2026-03-29T07:36:12Z</time></trkpt><trkpt lat="45.491462071312085" lon="9.252088644040082"><ele>124.0</ele><time>2026-03-29T07:36:13Z</time></trkpt><trkpt lat="45.49122767135248" lon="9.252009154847835"><ele>125.0</ele><time>2026-03-29T07:36:14Z</time></trkpt><trkpt lat="45.49099658384129" lon="9.25193432838492"><ele>126.0</ele><time>2026-03-29T07:36:15Z</time></trkpt><trkpt lat="45.4907690992443" lon="9.25187382323767"><ele>126.0</ele><time>2026-03-29T07:36:16Z</time></trkpt><trkpt lat="45.49053829418461" lon="9.251823286235183"><ele>126.0</ele><time>2026-03-29T07:36:17Z</time></trkpt><trkpt lat="45.49029889542071" lon="9.25178392899432"><ele>123.5</ele><time>2026-03-29T07:36:18Z</time></trkpt><trkpt lat="45.4900518516889" lon="9.251746044934775"><ele>121.0</ele><time>2026-03-29T07:36:19Z</time></trkpt><trkpt lat="45.48980611780016" lon="9.251708296638764"><ele>121.0</ele><time>2026-03-29T07:36:20Z</time></trkpt><trkpt lat="45.48956624785999" lon="9.25167137797858"><ele>121.0</ele><time>2026-03-29T07:36:21Z</time></trkpt><trkpt lat="45.48932638765341" lon="9.251637951106986"><ele>121.0</ele><time>2026-03-29T07:36:22Z</time></trkpt><trkpt lat="45.48908599012017" lon="9.25160072468565"><ele>121.0</ele><time>2026-03-29T07:36:23Z</time></trkpt><trkpt lat="45.4888500678721" lon="9.251556490493156"><ele>120.0</ele><time>2026-03-29T07:36:24Z</time></trkpt><trkpt lat="45.48861002693624" lon="9.251519352633924"><ele>119.0</ele><time>2026-03-29T07:36:25Z</time></trkpt><trkpt lat="45.488369279923646" lon="9.251481483831123"><ele>119.0</ele><time>2026-03-29T07:36:26Z</time></trkpt><trkpt lat="45.48812978550922" lon="9.251442667561271"><ele>119.0</ele><time>2026-03-29T07:36:27Z</time></trkpt><trkpt lat="45.4878858296955" lon="9.25140553923163"><ele>118.0</ele><time>2026-03-29T07:36:28Z</time></trkpt><trkpt lat="45.48763740001864" lon="9.25136628100245"><ele>117.0</ele><time>2026-03-29T07:36:29Z</time></trkpt><trkpt lat="45.48739982374528" lon="9.251326457705611"><ele>117.0</ele><time>2026-03-29T07:36:30Z</time></trkpt><trkpt lat="45.487161090302465" lon="9.251287342023678"><ele>117.0</ele><time>2026-03-29T07:36:31Z</time></trkpt><trkpt lat="45.48692439314922" lon="9.251248295749676"><ele>116.5</ele><time>2026-03-29T07:36:32Z</time></trkpt><trkpt lat="45.48668194137636" lon="9.251214441104674"><ele>116.0</ele><time>2026-03-29T07:36:33Z</time></trkpt><trkpt lat="45.48644371778785" lon="9.251179462997705"><ele>117.0</ele><time>2026-03-29T07:36:34Z</time></trkpt><trkpt lat="45.486205556454024" lon="9.251144491820934"><ele>118.0</ele><time>2026-03-29T07:36:35Z</time></trkpt><trkpt lat="45.48596660847417" lon="9.251108739640953"><ele>118.0</ele><time>2026-03-29T07:36:36Z</time></trkpt><trkpt lat="45.485727847097984" lon="9.251070502301388"><ele>118.0</ele><time>2026-03-29T07:36:37Z</time></trkpt><trkpt lat="45.48548792504891" lon="9.251032422575099"><ele>118.0</ele><time>2026-03-29T07:36:38Z</time></trkpt><trkpt lat="45.48524855708378" lon="9.25099576720474"><ele>118.0</ele><time>2026-03-29T07:36:39Z</time></trkpt><trkpt lat="45.48500806500337" lon="9.25096489124619"><ele>118.0</ele><time>2026-03-29T07:36:40Z</time></trkpt><trkpt lat="45.4847646457482" lon="9.25093806444095"><ele>118.0</ele><time>2026-03-29T07:36:41Z</time></trkpt><trkpt lat="45.48452137730753" lon="9.25091872106103"><ele>119.0</ele><time>2026-03-29T07:36:42Z</time></trkpt><trkpt lat="45.48427555685059" lon="9.250905481027381"><ele>120.0</ele><time>2026-03-29T07:36:43Z</time></trkpt><trkpt lat="45.48403070840195" lon="9.25090487548319"><ele>120.0</ele><time>2026-03-29T07:36:44Z</time></trkpt><trkpt lat="45.48378480089269" lon="9.250918763048693"><ele>120.0</ele><time>2026-03-29T07:36:45Z</time></trkpt><trkpt lat="45.48354129182082" lon="9.250946325963199"><ele>119.0</ele><time>2026-03-29T07:36:46Z</time></trkpt><trkpt lat="45.48330214136105" lon="9.250986916772478"><ele>118.0</ele><time>2026-03-29T07:36:47Z</time></trkpt><trkpt lat="45.483060656773475" lon="9.251033455659112"><ele>119.0</ele><time>2026-03-29T07:36:48Z</time></trkpt><trkpt lat="45.48282287623033" lon="9.251091393620051"><ele>120.0</ele><time>2026-03-29T07:36:49Z</time></trkpt><trkpt lat="45.48258196830771" lon="9.251161026064223"><ele>120.0</ele><time>2026-03-29T07:36:50Z</time></trkpt><trkpt lat="45.48235068026293" lon="9.251244264486404"><ele>120.0</ele><time>2026-03-29T07:36:51Z</time></trkpt><trkpt lat="45.482121090993225" lon="9.25133760738333"><ele>120.5</ele><time>2026-03-29T07:36:52Z</time></trkpt><trkpt lat="45.48189121589283" lon="9.251437365149402"><ele>121.0</ele><time>2026-03-29T07:36:53Z</time></trkpt><trkpt lat="45.4816585278972" lon="9.251542551670559"><ele>121.0</ele><time>2026-03-29T07:36:54Z</time></trkpt><trkpt lat="45.48143123410688" lon="9.251653336681063"><ele>121.0</ele><time>2026-03-29T07:36:55Z</time></trkpt><trkpt lat="45.48120412072457" lon="9.251763762548611"><ele>121.0</ele><time>2026-03-29T07:36:56Z</time></trkpt><trkpt lat="45.4809743071554" lon="9.25186983200122"><ele>121.0</ele><time>2026-03-29T07:36:57Z</time></trkpt><trkpt lat="45.480748340330685" lon="9.251977792771283"><ele>121.0</ele><time>2026-03-29T07:36:58Z</time></trkpt><trkpt lat="45.48051534255324" lon="9.252087111751896"><ele>121.0</ele><time>2026-03-29T07:36:59Z</time></trkpt><trkpt lat="45.48028727781195" lon="9.252196636710138"><ele>119.0</ele><time>2026-03-29T07:37:00Z</time></trkpt><trkpt lat="45.480048841428435" lon="9.252304581080823"><ele>117.0</ele><time>2026-03-29T07:37:01Z</time></trkpt><trkpt lat="45.47981011047739" lon="9.252413174109243"><ele>118.0</ele><time>2026-03-29T07:37:02Z</time></trkpt><trkpt lat="45.479570635981936" lon="9.252523115244191"><ele>119.0</ele><time>2026-03-29T07:37:03Z</time></trkpt><trkpt lat="45.47933571128091" lon="9.252632026870511"><ele>119.0</ele><time>2026-03-29T07:37:04Z</time></trkpt><trkpt lat="45.47910226060125" lon="9.252742419646962"><ele>119.0</ele><time>2026-03-29T07:37:05Z</time></trkpt><trkpt lat="45.47886837212318" lon="9.252842587793868"><ele>117.5</ele><time>2026-03-29T07:37:06Z</time></trkpt><trkpt lat="45.47863253824719" lon="9.252944062135557"><ele>116.0</ele><time>2026-03-29T07:37:07Z</time></trkpt><trkpt lat="45.478399674519075" lon="9.253046132005686"><ele>116.5</ele><time>2026-03-29T07:37:08Z</time></trkpt><trkpt lat="45.47816509627802" lon="9.25314542637483"><ele>117.0</ele><time>2026-03-29T07:37:09.001Z</time></trkpt><trkpt lat="45.47793544929008" lon="9.253241811034535"><ele>115.5</ele><time>2026-03-29T07:37:10.001Z</time></trkpt><trkpt lat="45.47770112450812" lon="9.253327555127294"><ele>114.0</ele><time>2026-03-29T07:37:11.001Z</time></trkpt><trkpt lat="45.47746618959479" lon="9.253400363264275"><ele>114.0</ele><time>2026-03-29T07:37:12.001Z</time></trkpt><trkpt lat="45.477226328371856" lon="9.253459176532917"><ele>114.0</ele><time>2026-03-29T07:37:13.001Z</time></trkpt><trkpt lat="45.47699306773619" lon="9.253498938043373"><ele>115.5</ele><time>2026-03-29T07:37:14.001Z</time></trkpt><trkpt lat="45.47675262363194" lon="9.253524072035832"><ele>117.0</ele><time>2026-03-29T07:37:15.001Z</time></trkpt><trkpt lat="45.47651622788468" lon="9.253532732485285"><ele>117.0</ele><time>2026-03-29T07:37:16.001Z</time></trkpt><trkpt lat="45.47627844173769" lon="9.253529460407945"><ele>117.0</ele><time>2026-03-29T07:37:17.001Z</time></trkpt><trkpt lat="45.47604500101485" lon="9.253511720816329"><ele>117.0</ele><time>2026-03-29T07:37:18.001Z</time></trkpt><trkpt lat="45.47580997934322" lon="9.253474526186169"><ele>117.0</ele><time>2026-03-29T07:37:19.001Z</time></trkpt><trkpt lat="45.475579428072216" lon="9.25342410201368"><ele>118.5</ele><time>2026-03-29T07:37:20.001Z</time></trkpt><trkpt lat="45.475348523081394" lon="9.253357938712444"><ele>120.0</ele><time>2026-03-29T07:37:21.001Z</time></trkpt><trkpt lat="45.475117505305626" lon="9.253280616577596"><ele>120.0</ele><time>2026-03-29T07:37:22.001Z</time></trkpt><trkpt lat="45.47488572299382" lon="9.253192190875398"><ele>120.0</ele><time>2026-03-29T07:37:23.001Z</time></trkpt><trkpt lat="45.47465870991558" lon="9.253103942795995"><ele>118.5</ele><time>2026-03-29T07:37:24.001Z</time></trkpt><trkpt lat="45.47442605127133" lon="9.253020283355728"><ele>117.0</ele><time>2026-03-29T07:37:25.001Z</time></trkpt><trkpt lat="45.47419327710336" lon="9.252942905689011"><ele>117.0</ele><time>2026-03-29T07:37:26.001Z</time></trkpt><trkpt lat="45.47396030763933" lon="9.252865969173682"><ele>117.0</ele><time>2026-03-29T07:37:27.001Z</time></trkpt><trkpt lat="45.47372416797876" lon="9.252787535923709"><ele>118.0</ele><time>2026-03-29T07:37:28.001Z</time></trkpt><trkpt lat="45.47349056605251" lon="9.252707622832146"><ele>119.0</ele><time>2026-03-29T07:37:29.001Z</time></trkpt><trkpt lat="45.47325746602994" lon="9.252628091643734"><ele>119.0</ele><time>2026-03-29T07:37:30.001Z</time></trkpt><trkpt lat="45.47301982941292" lon="9.25255201217179"><ele>119.0</ele><time>2026-03-29T07:37:31.001Z</time></trkpt><trkpt lat="45.47278120285246" lon="9.252476680057047"><ele>120.0</ele><time>2026-03-29T07:37:32.001Z</time></trkpt><trkpt lat="45.472541484309424" lon="9.252406280428676"><ele>121.0</ele><time>2026-03-29T07:37:33.001Z</time></trkpt><trkpt lat="45.4723018436853" lon="9.252340650758043"><ele>117.5</ele><time>2026-03-29T07:37:34.001Z</time></trkpt><trkpt lat="45.47205874932938" lon="9.252279129032596"><ele>114.0</ele><time>2026-03-29T07:37:35.001Z</time></trkpt><trkpt lat="45.47181111394335" lon="9.252222199263594"><ele>114.0</ele><time>2026-03-29T07:37:36.001Z</time></trkpt><trkpt lat="45.471559072584235" lon="9.252169817634119"><ele>114.0</ele><time>2026-03-29T07:37:37.001Z</time></trkpt><trkpt lat="45.47130228671668" lon="9.252122816432978"><ele>113.5</ele><time>2026-03-29T07:37:38.001Z</time></trkpt><trkpt lat="45.47104741089149" lon="9.252080136219615"><ele>113.0</ele><time>2026-03-29T07:37:39.001Z</time></trkpt><trkpt lat="45.47078780352857" lon="9.252042563358712"><ele>113.0</ele><time>2026-03-29T07:37:40.001Z</time></trkpt><trkpt lat="45.470522670103776" lon="9.252012208435799"><ele>113.0</ele><time>2026-03-29T07:37:41.001Z</time></trkpt><trkpt lat="45.47026235634963" lon="9.251985087262474"><ele>113.5</ele><time>2026-03-29T07:37:42.001Z</time></trkpt><trkpt lat="45.47000025352314" lon="9.251959472401392"><ele>114.0</ele><time>2026-03-29T07:37:43.001Z</time></trkpt><trkpt lat="45.4697387078137" lon="9.251944440336235"><ele>113.0</ele><time>2026-03-29T07:37:44.001Z</time></trkpt><trkpt lat="45.46947427810208" lon="9.251932681634488"><ele>112.0</ele><time>2026-03-29T07:37:45.001Z</time></trkpt><trkpt lat="45.46921081229457" lon="9.25192950316338"><ele>112.0</ele><time>2026-03-29T07:37:46.001Z</time></trkpt><trkpt lat="45.468950535924954" lon="9.251929746522872"><ele>112.0</ele><time>2026-03-29T07:37:47.001Z</time></trkpt><trkpt lat="45.46869236739328" lon="9.251933967925398"><ele>113.5</ele><time>2026-03-29T07:37:48.001Z</time></trkpt><trkpt lat="45.46843544270629" lon="9.251941575449747"><ele>115.0</ele><time>2026-03-29T07:37:49.001Z</time></trkpt><trkpt lat="45.46818222479524" lon="9.25194847162946"><ele>115.0</ele><time>2026-03-29T07:37:50.001Z</time></trkpt><trkpt lat="45.46792796131183" lon="9.251959204809186"><ele>115.0</ele><time>2026-03-29T07:37:51.001Z</time></trkpt><trkpt lat="45.46767364307844" lon="9.251964860822765"><ele>115.0</ele><time>2026-03-29T07:37:52.001Z</time></trkpt><trkpt lat="45.467420785141655" lon="9.251958564827465"><ele>115.0</ele><time>2026-03-29T07:37:53.001Z</time></trkpt><trkpt lat="45.46717030150279" lon="9.251941316457795"><ele>115.0</ele><time>2026-03-29T07:37:54.001Z</time></trkpt><trkpt lat="45.46692283845642" lon="9.251911684411574"><ele>115.0</ele><time>2026-03-29T07:37:55.001Z</time></trkpt><trkpt lat="45.466678011056146" lon="9.251865439652958"><ele>115.0</ele><time>2026-03-29T07:37:56.001Z</time></trkpt><trkpt lat="45.46643907999855" lon="9.251807591310117"><ele>115.0</ele><time>2026-03-29T07:37:57.001Z</time></trkpt><trkpt lat="45.46619920010043" lon="9.251742001922002"><ele>114.5</ele><time>2026-03-29T07:37:58.001Z</time></trkpt><trkpt lat="45.465966475653886" lon="9.251668951310322"><ele>114.0</ele><time>2026-03-29T07:37:59.001Z</time></trkpt><trkpt lat="45.46573352729252" lon="9.251574863328084"><ele>114.0</ele><time>2026-03-29T07:38:00Z</time></trkpt><trkpt lat="45.465501850625174" lon="9.251472780170458"><ele>114.0</ele><time>2026-03-29T07:38:01Z</time></trkpt><trkpt lat="45.46527793281872" lon="9.25136365696337"><ele>113.5</ele><time>2026-03-29T07:38:02Z</time></trkpt><trkpt lat="45.46504840045255" lon="9.251248474990492"><ele>113.0</ele><time>2026-03-29T07:38:03Z</time></trkpt><trkpt lat="45.46482328264904" lon="9.251145335476156"><ele>114.0</ele><time>2026-03-29T07:38:04Z</time></trkpt><trkpt lat="45.464587743065415" lon="9.251061098822415"><ele>115.0</ele><time>2026-03-29T07:38:05Z</time></trkpt><trkpt lat="45.464355175761604" lon="9.251000118359716"><ele>115.0</ele><time>2026-03-29T07:38:06Z</time></trkpt><trkpt lat="45.46412086142092" lon="9.250958750971302"><ele>115.0</ele><time>2026-03-29T07:38:07Z</time></trkpt><trkpt lat="45.46388555242354" lon="9.250933747049409"><ele>115.0</ele><time>2026-03-29T07:38:08Z</time></trkpt><trkpt lat="45.463656012511215" lon="9.250928343020567"><ele>115.0</ele><time>2026-03-29T07:38:09Z</time></trkpt><trkpt lat="45.46342766208483" lon="9.250930399873242"><ele>115.0</ele><time>2026-03-29T07:38:10Z</time></trkpt><trkpt lat="45.46319446067973" lon="9.250944468256806"><ele>115.0</ele><time>2026-03-29T07:38:11Z</time></trkpt><trkpt lat="45.46295927394408" lon="9.250962687956909"><ele>111.5</ele><time>2026-03-29T07:38:12Z</time></trkpt><trkpt lat="45.46272612513743" lon="9.250985629185855"><ele>108.0</ele><time>2026-03-29T07:38:13Z</time></trkpt><trkpt lat="45.46249382350103" lon="9.251008513411113"><ele>108.0</ele><time>2026-03-29T07:38:14Z</time></trkpt><trkpt lat="45.46226347493966" lon="9.251028705424735"><ele>108.0</ele><time>2026-03-29T07:38:15Z</time></trkpt><trkpt lat="45.46203229290047" lon="9.25104895700206"><ele>112.0</ele><time>2026-03-29T07:38:16Z</time></trkpt><trkpt lat="45.46180491018953" lon="9.25107067849891"><ele>116.0</ele><time>2026-03-29T07:38:17Z</time></trkpt><trkpt lat="45.461575024098984" lon="9.251093839599465"><ele>116.0</ele><time>2026-03-29T07:38:18Z</time></trkpt><trkpt lat="45.461349851706146" lon="9.251114978001862"><ele>116.0</ele><time>2026-03-29T07:38:19Z</time></trkpt><trkpt lat="45.46112040292176" lon="9.251136505329715"><ele>116.5</ele><time>2026-03-29T07:38:20Z</time></trkpt><trkpt lat="45.460892845643244" lon="9.25115494977614"><ele>117.0</ele><time>2026-03-29T07:38:21Z</time></trkpt><trkpt lat="45.4606649308205" lon="9.251175640119927"><ele>115.0</ele><time>2026-03-29T07:38:22Z</time></trkpt><trkpt lat="45.46042956064621" lon="9.251198442361302"><ele>113.0</ele><time>2026-03-29T07:38:23Z</time></trkpt><trkpt lat="45.460198093360496" lon="9.251219495840562"><ele>113.0</ele><time>2026-03-29T07:38:24Z</time></trkpt><trkpt lat="45.459957970093974" lon="9.251244370123638"><ele>113.0</ele><time>2026-03-29T07:38:25Z</time></trkpt><trkpt lat="45.459719992669484" lon="9.25127609753238"><ele>112.5</ele><time>2026-03-29T07:38:26Z</time></trkpt><trkpt lat="45.45948279802817" lon="9.25132084071215"><ele>112.0</ele><time>2026-03-29T07:38:27Z</time></trkpt><trkpt lat="45.459248323718086" lon="9.251373854858947"><ele>112.0</ele><time>2026-03-29T07:38:28Z</time></trkpt><trkpt lat="45.45900682840194" lon="9.251435428528941"><ele>112.0</ele><time>2026-03-29T07:38:29Z</time></trkpt><trkpt lat="45.45876861217408" lon="9.251505973033492"><ele>113.0</ele><time>2026-03-29T07:38:30Z</time></trkpt><trkpt lat="45.458534824981626" lon="9.251584436945366"><ele>114.0</ele><time>2026-03-29T07:38:31Z</time></trkpt><trkpt lat="45.4583008265381" lon="9.25166761776522"><ele>114.0</ele><time>2026-03-29T07:38:32Z</time></trkpt><trkpt lat="45.4580655424863" lon="9.251759996244472"><ele>114.0</ele><time>2026-03-29T07:38:33Z</time></trkpt><trkpt lat="45.4578333781679" lon="9.251860064469465"><ele>112.5</ele><time>2026-03-29T07:38:34Z</time></trkpt><trkpt lat="45.45760304082969" lon="9.251977666806884"><ele>111.0</ele><time>2026-03-29T07:38:35Z</time></trkpt><trkpt lat="45.45738189210402" lon="9.252103951624417"><ele>111.0</ele><time>2026-03-29T07:38:36Z</time></trkpt><trkpt lat="45.45716295423621" lon="9.252237807473243"><ele>111.0</ele><time>2026-03-29T07:38:37Z</time></trkpt><trkpt lat="45.456942933452424" lon="9.252376801816855"><ele>111.5</ele><time>2026-03-29T07:38:38Z</time></trkpt><trkpt lat="45.45673285714915" lon="9.252505698577494"><ele>112.0</ele><time>2026-03-29T07:38:39Z</time></trkpt><trkpt lat="45.45651664338773" lon="9.252649080842462"><ele>112.0</ele><time>2026-03-29T07:38:40Z</time></trkpt><trkpt lat="45.456307663569795" lon="9.25280060755794"><ele>112.0</ele><time>2026-03-29T07:38:41Z</time></trkpt><trkpt lat="45.456100931608155" lon="9.252965178618732"><ele>111.5</ele><time>2026-03-29T07:38:42Z</time></trkpt><trkpt lat="45.4558989886586" lon="9.25313631870262"><ele>111.0</ele><time>2026-03-29T07:38:43Z</time></trkpt><trkpt lat="45.4556984796038" lon="9.253310053231635"><ele>111.0</ele><time>2026-03-29T07:38:44Z</time></trkpt><trkpt lat="45.45550167723744" lon="9.253482352386131"><ele>111.0</ele><time>2026-03-29T07:38:45Z</time></trkpt><trkpt lat="45.45531051286732" lon="9.2536431902207"><ele>110.66666666666666</ele><time>2026-03-29T07:38:46Z</time></trkpt><trkpt lat="45.45512078385876" lon="9.253802984431873"><ele>110.33333333333333</ele><time>2026-03-29T07:38:47Z</time></trkpt><trkpt lat="45.454931440588375" lon="9.253964325369028"><ele>110.0</ele><time>2026-03-29T07:38:48Z</time></trkpt><trkpt lat="45.454740309687246" lon="9.254125330896313"><ele>109.66666666666666</ele><time>2026-03-29T07:38:49Z</time></trkpt><trkpt lat="45.454548914885976" lon="9.25428638591302"><ele>109.33333333333334</ele><time>2026-03-29T07:38:50Z</time></trkpt><trkpt lat="45.45435801143152" lon="9.254445444237577"><ele>109.0</ele><time>2026-03-29T07:38:51Z</time></trkpt><trkpt lat="45.45416776251203" lon="9.2546055844405"><ele>109.0</ele><time>2026-03-29T07:38:52Z</time></trkpt><trkpt lat="45.45397711333375" lon="9.254767387289666"><ele>109.0</ele><time>2026-03-29T07:38:53Z</time></trkpt><trkpt lat="45.453788635423095" lon="9.254925499493249"><ele>109.0</ele><time>2026-03-29T07:38:54Z</time></trkpt><trkpt lat="45.45359867361767" lon="9.255084007873432"><ele>109.33333333333334</ele><time>2026-03-29T07:38:55Z</time></trkpt><trkpt lat="45.45341069507333" lon="9.25523953484553"><ele>109.66666666666666</ele><time>2026-03-29T07:38:56Z</time></trkpt><trkpt lat="45.453222756261596" lon="9.255397105211458"><ele>110.0</ele><time>2026-03-29T07:38:57Z</time></trkpt><trkpt lat="45.45303408760002" lon="9.255555402638574"><ele>110.0</ele><time>2026-03-29T07:38:58Z</time></trkpt><trkpt lat="45.45284388957544" lon="9.255713499131064"><ele>110.0</ele><time>2026-03-29T07:38:59Z</time></trkpt><trkpt lat="45.452656196339206" lon="9.255871588018554"><ele>110.0</ele><time>2026-03-29T07:39:00Z</time></trkpt><trkpt lat="45.452464176255" lon="9.256035631824975"><ele>110.0</ele><time>2026-03-29T07:39:01Z</time></trkpt><trkpt lat="45.45227535055432" lon="9.256195218934753"><ele>110.0</ele><time>2026-03-29T07:39:02Z</time></trkpt><trkpt lat="45.452077630878904" lon="9.256357611670635"><ele>110.0</ele><time>2026-03-29T07:39:03Z</time></trkpt><trkpt lat="45.45187457407822" lon="9.256529460808144"><ele>110.5</ele><time>2026-03-29T07:39:04Z</time></trkpt><trkpt lat="45.451657756987835" lon="9.256721209643084"><ele>111.0</ele><time>2026-03-29T07:39:05Z</time></trkpt><trkpt lat="45.451432152888515" lon="9.256922295869765"><ele>111.5</ele><time>2026-03-29T07:39:06Z</time></trkpt><trkpt lat="45.45121099741238" lon="9.257113700630123"><ele>112.0</ele><time>2026-03-29T07:39:07Z</time></trkpt><trkpt lat="45.450975569393044" lon="9.257308030676981"><ele>112.0</ele><time>2026-03-29T07:39:08Z</time></trkpt><trkpt lat="45.45073960731518" lon="9.25749755013416"><ele>112.0</ele><time>2026-03-29T07:39:09Z</time></trkpt><trkpt lat="45.4504988573479" lon="9.257678645033966"><ele>112.5</ele><time>2026-03-29T07:39:10Z</time></trkpt><trkpt lat="45.450257665193796" lon="9.257847249832919"><ele>113.0</ele><time>2026-03-29T07:39:11Z</time></trkpt><trkpt lat="45.450016578298055" lon="9.25800336121362"><ele>112.5</ele><time>2026-03-29T07:39:12Z</time></trkpt><trkpt lat="45.44976539155052" lon="9.258148420780975"><ele>112.0</ele><time>2026-03-29T07:39:13Z</time></trkpt><trkpt lat="45.449518094156026" lon="9.258272393317641"><ele>110.5</ele><time>2026-03-29T07:39:14Z</time></trkpt><trkpt lat="45.44926537339834" lon="9.258382367180566"><ele>109.0</ele><time>2026-03-29T07:39:15Z</time></trkpt><trkpt lat="45.449015107320925" lon="9.258476277944562"><ele>108.0</ele><time>2026-03-29T07:39:16Z</time></trkpt><trkpt lat="45.448763338386016" lon="9.258557875195674"><ele>107.0</ele><time>2026-03-29T07:39:17Z</time></trkpt><trkpt lat="45.44851268585908" lon="9.258624502015008"><ele>107.0</ele><time>2026-03-29T07:39:18Z</time></trkpt><trkpt lat="45.44826176260919" lon="9.258673903896549"><ele>107.0</ele><time>2026-03-29T07:39:19Z</time></trkpt><trkpt lat="45.44800685614558" lon="9.25870890009476"><ele>105.5</ele><time>2026-03-29T07:39:20Z</time></trkpt><trkpt lat="45.44775205753105" lon="9.258723662341522"><ele>104.0</ele><time>2026-03-29T07:39:21Z</time></trkpt><trkpt lat="45.44750168222272" lon="9.258724426466832"><ele>104.0</ele><time>2026-03-29T07:39:22Z</time></trkpt><trkpt lat="45.447250115996205" lon="9.258713742166378"><ele>104.0</ele><time>2026-03-29T07:39:23Z</time></trkpt><trkpt lat="45.44699156097139" lon="9.258691525835811"><ele>107.5</ele><time>2026-03-29T07:39:24Z</time></trkpt><trkpt lat="45.44673708387881" lon="9.25865376799703"><ele>111.0</ele><time>2026-03-29T07:39:25Z</time></trkpt><trkpt lat="45.446482601941234" lon="9.258602832470148"><ele>106.0</ele><time>2026-03-29T07:39:26Z</time></trkpt><trkpt lat="45.446228800569926" lon="9.258534567139515"><ele>101.0</ele><time>2026-03-29T07:39:27Z</time></trkpt><trkpt lat="45.44597725110537" lon="9.25846057500309"><ele>101.0</ele><time>2026-03-29T07:39:28Z</time></trkpt><trkpt lat="45.445717644421705" lon="9.258382067980895"><ele>101.0</ele><time>2026-03-29T07:39:29Z</time></trkpt><trkpt lat="45.44546754226528" lon="9.258299798599793"><ele>96.0</ele><time>2026-03-29T07:39:30Z</time></trkpt><trkpt lat="45.44521555740814" lon="9.258216766514868"><ele>91.0</ele><time>2026-03-29T07:39:31Z</time></trkpt><trkpt lat="45.44497088076844" lon="9.258142416663116"><ele>92.5</ele><time>2026-03-29T07:39:32.001Z</time></trkpt><trkpt lat="45.44474422058371" lon="9.258080069063748"><ele>94.0</ele><time>2026-03-29T07:39:33.001Z</time></trkpt><trkpt lat="45.44452760484985" lon="9.258019390176198"><ele>94.0</ele><time>2026-03-29T07:39:34.001Z</time></trkpt><trkpt lat="45.444319731130584" lon="9.257961043000934"><ele>94.0</ele><time>2026-03-29T07:39:35.001Z</time></trkpt><trkpt lat="45.44410317930634" lon="9.257900309445743"><ele>94.0</ele><time>2026-03-29T07:39:36.001Z</time></trkpt><trkpt lat="45.44387811595233" lon="9.257836424160946"><ele>95.5</ele><time>2026-03-29T07:39:37.001Z</time></trkpt><trkpt lat="45.4436464316993" lon="9.257773860925248"><ele>97.0</ele><time>2026-03-29T07:39:38.001Z</time></trkpt><trkpt lat="45.44341075255195" lon="9.257706203132665"><ele>97.0</ele><time>2026-03-29T07:39:39.001Z</time></trkpt><trkpt lat="45.44316938137672" lon="9.257634504118819"><ele>97.0</ele><time>2026-03-29T07:39:40.001Z</time></trkpt><trkpt lat="45.442926680416505" lon="9.257563096520103"><ele>100.5</ele><time>2026-03-29T07:39:41.001Z</time></trkpt><trkpt lat="45.442676468776526" lon="9.257494076092264"><ele>104.0</ele><time>2026-03-29T07:39:42.001Z</time></trkpt><trkpt lat="45.44242559575827" lon="9.257422433152348"><ele>104.0</ele><time>2026-03-29T07:39:43.001Z</time></trkpt><trkpt lat="45.44217072930683" lon="9.257352544906777"><ele>104.0</ele><time>2026-03-29T07:39:44.001Z</time></trkpt><trkpt lat="45.44191347470737" lon="9.257282135405008"><ele>104.0</ele><time>2026-03-29T07:39:45.001Z</time></trkpt><trkpt lat="45.44165927201059" lon="9.257208977977161"><ele>104.0</ele><time>2026-03-29T07:39:46.001Z</time></trkpt><trkpt lat="45.44140332378558" lon="9.257135405282732"><ele>104.0</ele><time>2026-03-29T07:39:47.001Z</time></trkpt><trkpt lat="45.441147084239816" lon="9.257059811529954"><ele>104.0</ele><time>2026-03-29T07:39:48.001Z</time></trkpt><trkpt lat="45.44089206094736" lon="9.256985407501471"><ele>104.0</ele><time>2026-03-29T07:39:49.001Z</time></trkpt><trkpt lat="45.44063426562864" lon="9.256911764791584"><ele>104.0</ele><time>2026-03-29T07:39:50.001Z</time></trkpt><trkpt lat="45.44037695846333" lon="9.256839758071832"><ele>104.5</ele><time>2026-03-29T07:39:51.001Z</time></trkpt><trkpt lat="45.44011837620639" lon="9.256763645150887"><ele>105.0</ele><time>2026-03-29T07:39:52.001Z</time></trkpt><trkpt lat="45.43986364302447" lon="9.256688055169626"><ele>104.5</ele><time>2026-03-29T07:39:53.001Z</time></trkpt><trkpt lat="45.43961092889689" lon="9.256614723798492"><ele>104.0</ele><time>2026-03-29T07:39:54.001Z</time></trkpt><trkpt lat="45.43936052078033" lon="9.256542866187278"><ele>104.0</ele><time>2026-03-29T07:39:55.001Z</time></trkpt><trkpt lat="45.43911077473083" lon="9.256471567977096"><ele>104.0</ele><time>2026-03-29T07:39:56.001Z</time></trkpt><trkpt lat="45.4388588958358" lon="9.256401424875644"><ele>104.5</ele><time>2026-03-29T07:39:57.001Z</time></trkpt><trkpt lat="45.438606851695376" lon="9.256333784855643"><ele>105.0</ele><time>2026-03-29T07:39:58.001Z</time></trkpt><trkpt lat="45.43835678365796" lon="9.256263037783992"><ele>105.0</ele><time>2026-03-29T07:39:59.001Z</time></trkpt><trkpt lat="45.43810893136313" lon="9.256190284441699"><ele>105.0</ele><time>2026-03-29T07:40:00.001Z</time></trkpt><trkpt lat="45.43786434006343" lon="9.256117287459936"><ele>106.5</ele><time>2026-03-29T07:40:01.001Z</time></trkpt><trkpt lat="45.4376171134333" lon="9.256045157625488"><ele>108.0</ele><time>2026-03-29T07:40:02.001Z</time></trkpt><trkpt lat="45.43736987168105" lon="9.255973121615256"><ele>107.0</ele><time>2026-03-29T07:40:03.001Z</time></trkpt><trkpt lat="45.43712452874923" lon="9.255898411921567"><ele>106.0</ele><time>2026-03-29T07:40:04.001Z</time></trkpt><trkpt lat="45.43687705647427" lon="9.25581763827471"><ele>106.0</ele><time>2026-03-29T07:40:05.001Z</time></trkpt><trkpt lat="45.43663159340352" lon="9.25573378945286"><ele>106.0</ele><time>2026-03-29T07:40:06Z</time></trkpt><trkpt lat="45.436388207896826" lon="9.255641916272602"><ele>104.5</ele><time>2026-03-29T07:40:07Z</time></trkpt><trkpt lat="45.436148800791145" lon="9.2555420706563"><ele>103.0</ele><time>2026-03-29T07:40:08Z</time></trkpt><trkpt lat="45.435911102214234" lon="9.255436630225686"><ele>103.0</ele><time>2026-03-29T07:40:09Z</time></trkpt><trkpt lat="45.435675117345546" lon="9.255324360488798"><ele>103.0</ele><time>2026-03-29T07:40:10Z</time></trkpt><trkpt lat="45.43543966651687" lon="9.255202916791813"><ele>104.5</ele><time>2026-03-29T07:40:11Z</time></trkpt><trkpt lat="45.43519483753746" lon="9.255077006165244"><ele>106.0</ele><time>2026-03-29T07:40:12Z</time></trkpt><trkpt lat="45.43495481684287" lon="9.254947017932636"><ele>106.0</ele><time>2026-03-29T07:40:13Z</time></trkpt><trkpt lat="45.43472900921383" lon="9.254803820234201"><ele>106.0</ele><time>2026-03-29T07:40:14Z</time></trkpt><trkpt lat="45.43450182771287" lon="9.25465969187425"><ele>106.5</ele><time>2026-03-29T07:40:15Z</time></trkpt><trkpt lat="45.43427499673402" lon="9.254511028241447"><ele>107.0</ele><time>2026-03-29T07:40:16Z</time></trkpt><trkpt lat="45.434049967453085" lon="9.25435520536789"><ele>107.0</ele><time>2026-03-29T07:40:17Z</time></trkpt><trkpt lat="45.43382958330195" lon="9.254194570302559"><ele>107.0</ele><time>2026-03-29T07:40:18Z</time></trkpt><trkpt lat="45.43360880633232" lon="9.254025204304378"><ele>107.0</ele><time>2026-03-29T07:40:19Z</time></trkpt><trkpt lat="45.433390874724815" lon="9.253847216883534"><ele>107.0</ele><time>2026-03-29T07:40:20Z</time></trkpt><trkpt lat="45.43317289404811" lon="9.253657917257541"><ele>104.5</ele><time>2026-03-29T07:40:21Z</time></trkpt><trkpt lat="45.43296033962161" lon="9.253459190824207"><ele>102.0</ele><time>2026-03-29T07:40:22Z</time></trkpt><trkpt lat="45.43274776234601" lon="9.253250758728795"><ele>102.0</ele><time>2026-03-29T07:40:23Z</time></trkpt><trkpt lat="45.43253652979727" lon="9.253036696775412"><ele>102.0</ele><time>2026-03-29T07:40:24Z</time></trkpt><trkpt lat="45.43232336984616" lon="9.252816503997549"><ele>103.0</ele><time>2026-03-29T07:40:25Z</time></trkpt><trkpt lat="45.43212056401166" lon="9.252586268060753"><ele>104.0</ele><time>2026-03-29T07:40:26Z</time></trkpt><trkpt lat="45.431917384535815" lon="9.252345550876548"><ele>104.5</ele><time>2026-03-29T07:40:27Z</time></trkpt><trkpt lat="45.431723472670505" lon="9.252093978515742"><ele>105.0</ele><time>2026-03-29T07:40:28Z</time></trkpt><trkpt lat="45.43152897879275" lon="9.251833116969067"><ele>105.0</ele><time>2026-03-29T07:40:29Z</time></trkpt><trkpt lat="45.43134006475833" lon="9.251566982407956"><ele>105.0</ele><time>2026-03-29T07:40:30Z</time></trkpt><trkpt lat="45.431156912205076" lon="9.251293251982975"><ele>105.5</ele><time>2026-03-29T07:40:31Z</time></trkpt><trkpt lat="45.4309749572811" lon="9.251018499902349"><ele>106.0</ele><time>2026-03-29T07:40:32Z</time></trkpt><trkpt lat="45.430795136384894" lon="9.250752960600924"><ele>106.5</ele><time>2026-03-29T07:40:33Z</time></trkpt><trkpt lat="45.43060913897861" lon="9.250491486488121"><ele>107.0</ele><time>2026-03-29T07:40:34Z</time></trkpt><trkpt lat="45.43042348132795" lon="9.250232827188821"><ele>107.0</ele><time>2026-03-29T07:40:35Z</time></trkpt><trkpt lat="45.430239421313765" lon="9.249974667545137"><ele>107.0</ele><time>2026-03-29T07:40:36Z</time></trkpt><trkpt lat="45.43006264889709" lon="9.249709028953552"><ele>107.0</ele><time>2026-03-29T07:40:37Z</time></trkpt><trkpt lat="45.42989567332471" lon="9.249435282210367"><ele>107.0</ele><time>2026-03-29T07:40:38Z</time></trkpt><trkpt lat="45.42973293827422" lon="9.249159712209082"><ele>108.5</ele><time>2026-03-29T07:40:39Z</time></trkpt><trkpt lat="45.4295697091085" lon="9.248874734287169"><ele>110.0</ele><time>2026-03-29T07:40:40Z</time></trkpt><trkpt lat="45.42940905023824" lon="9.24859575164003"><ele>110.0</ele><time>2026-03-29T07:40:41Z</time></trkpt><trkpt lat="45.42924450845961" lon="9.248319736104662"><ele>110.0</ele><time>2026-03-29T07:40:42Z</time></trkpt><trkpt lat="45.42907680922521" lon="9.248045607938232"><ele>110.5</ele><time>2026-03-29T07:40:43Z</time></trkpt><trkpt lat="45.42890833357016" lon="9.247770246866086"><ele>111.0</ele><time>2026-03-29T07:40:44Z</time></trkpt><trkpt lat="45.42873915387008" lon="9.247498941236243"><ele>111.5</ele><time>2026-03-29T07:40:45Z</time></trkpt><trkpt lat="45.42856343935448" lon="9.247242478889452"><ele>112.0</ele><time>2026-03-29T07:40:46Z</time></trkpt><trkpt lat="45.4283765634298" lon="9.247006804518016"><ele>112.0</ele><time>2026-03-29T07:40:47Z</time></trkpt><trkpt lat="45.428183463886974" lon="9.246786069272273"><ele>112.0</ele><time>2026-03-29T07:40:48Z</time></trkpt><trkpt lat="45.42797967595978" lon="9.24657860789986"><ele>108.0</ele><time>2026-03-29T07:40:49Z</time></trkpt><trkpt lat="45.42776896722587" lon="9.246385765850663"><ele>104.0</ele><time>2026-03-29T07:40:50Z</time></trkpt><trkpt lat="45.427547813711904" lon="9.246205418990519"><ele>104.0</ele><time>2026-03-29T07:40:51Z</time></trkpt><trkpt lat="45.427322648220404" lon="9.246040047563424"><ele>104.0</ele><time>2026-03-29T07:40:52Z</time></trkpt><trkpt lat="45.42709362674272" lon="9.245893559953986"><ele>102.5</ele><time>2026-03-29T07:40:53Z</time></trkpt><trkpt lat="45.426855317429926" lon="9.24576067647293"><ele>101.0</ele><time>2026-03-29T07:40:54Z</time></trkpt><trkpt lat="45.42661512452045" lon="9.245644133394137"><ele>100.5</ele><time>2026-03-29T07:40:55Z</time></trkpt><trkpt lat="45.42636756606811" lon="9.245547938293939"><ele>100.0</ele><time>2026-03-29T07:40:56Z</time></trkpt><trkpt lat="45.42612014757342" lon="9.245475726382512"><ele>102.5</ele><time>2026-03-29T07:40:57Z</time></trkpt><trkpt lat="45.425865323976986" lon="9.245419116524523"><ele>105.0</ele><time>2026-03-29T07:40:58Z</time></trkpt><trkpt lat="45.42561403285623" lon="9.245382145295146"><ele>104.5</ele><time>2026-03-29T07:40:59Z</time></trkpt><trkpt lat="45.42535939555429" lon="9.245362327031213"><ele>104.0</ele><time>2026-03-29T07:41:00Z</time></trkpt><trkpt lat="45.425106474291916" lon="9.245363103985403"><ele>104.0</ele><time>2026-03-29T07:41:01Z</time></trkpt><trkpt lat="45.4248498749444" lon="9.245380330904302"><ele>104.0</ele><time>2026-03-29T07:41:02Z</time></trkpt><trkpt lat="45.42459402638524" lon="9.245406070336431"><ele>104.0</ele><time>2026-03-29T07:41:03Z</time></trkpt><trkpt lat="45.424343707136494" lon="9.245434569550131"><ele>104.0</ele><time>2026-03-29T07:41:04Z</time></trkpt><trkpt lat="45.42408771430916" lon="9.24546555649673"><ele>104.0</ele><time>2026-03-29T07:41:05Z</time></trkpt><trkpt lat="45.423832462302194" lon="9.245497925112549"><ele>104.0</ele><time>2026-03-29T07:41:06Z</time></trkpt><trkpt lat="45.42357745417212" lon="9.245528912334835"><ele>104.5</ele><time>2026-03-29T07:41:07Z</time></trkpt><trkpt lat="45.4233221298403" lon="9.245559257804226"><ele>105.0</ele><time>2026-03-29T07:41:08Z</time></trkpt><trkpt lat="45.423068114740275" lon="9.245593111969693"><ele>105.0</ele><time>2026-03-29T07:41:09Z</time></trkpt><trkpt lat="45.42281627720341" lon="9.245626870890458"><ele>105.0</ele><time>2026-03-29T07:41:10Z</time></trkpt><trkpt lat="45.422566041379355" lon="9.245662283627217"><ele>105.0</ele><time>2026-03-29T07:41:11Z</time></trkpt><trkpt lat="45.42231175023153" lon="9.245694420107196"><ele>105.0</ele><time>2026-03-29T07:41:12Z</time></trkpt><trkpt lat="45.42205865347813" lon="9.245724544024897"><ele>106.0</ele><time>2026-03-29T07:41:13Z</time></trkpt><trkpt lat="45.42180174010902" lon="9.245753655461428"><ele>107.0</ele><time>2026-03-29T07:41:14Z</time></trkpt><trkpt lat="45.421545854368944" lon="9.245783214095589"><ele>107.0</ele><time>2026-03-29T07:41:15Z</time></trkpt><trkpt lat="45.421288652451246" lon="9.245813949875666"><ele>107.0</ele><time>2026-03-29T07:41:16Z</time></trkpt><trkpt lat="45.421026521897645" lon="9.245847479865423"><ele>107.0</ele><time>2026-03-29T07:41:17Z</time></trkpt><trkpt lat="45.42076578871961" lon="9.245886185696241"><ele>107.0</ele><time>2026-03-29T07:41:18Z</time></trkpt><trkpt lat="45.420510864889636" lon="9.245931040339284"><ele>106.0</ele><time>2026-03-29T07:41:19Z</time></trkpt><trkpt lat="45.42025827825323" lon="9.245987990504961"><ele>105.0</ele><time>2026-03-29T07:41:20Z</time></trkpt><trkpt lat="45.41999650165612" lon="9.246062549888991"><ele>105.0</ele><time>2026-03-29T07:41:21Z</time></trkpt><trkpt lat="45.41974085784809" lon="9.24614780406833"><ele>105.0</ele><time>2026-03-29T07:41:22Z</time></trkpt><trkpt lat="45.41948936792538" lon="9.246248517182705"><ele>105.0</ele><time>2026-03-29T07:41:23Z</time></trkpt><trkpt lat="45.41924068997031" lon="9.246369561610173"><ele>105.0</ele><time>2026-03-29T07:41:24Z</time></trkpt><trkpt lat="45.41899506048995" lon="9.246504688120565"><ele>103.0</ele><time>2026-03-29T07:41:25Z</time></trkpt><trkpt lat="45.418755207846765" lon="9.246658711685848"><ele>101.0</ele><time>2026-03-29T07:41:26Z</time></trkpt><trkpt lat="45.41852169422186" lon="9.246831150832138"><ele>101.0</ele><time>2026-03-29T07:41:27Z</time></trkpt><trkpt lat="45.41829159145453" lon="9.247018608823437"><ele>101.0</ele><time>2026-03-29T07:41:28Z</time></trkpt><trkpt lat="45.418068653803786" lon="9.247214396550602"><ele>100.5</ele><time>2026-03-29T07:41:29Z</time></trkpt><trkpt lat="45.41785355126192" lon="9.247416861581963"><ele>100.0</ele><time>2026-03-29T07:41:30Z</time></trkpt><trkpt lat="45.417646632941675" lon="9.247633880093275"><ele>100.0</ele><time>2026-03-29T07:41:31Z</time></trkpt><trkpt lat="45.41745021964527" lon="9.247868751330303"><ele>100.0</ele><time>2026-03-29T07:41:32Z</time></trkpt><trkpt lat="45.41726378218901" lon="9.248117180130238"><ele>101.0</ele><time>2026-03-29T07:41:33Z</time></trkpt><trkpt lat="45.41708693377743" lon="9.248376855594348"><ele>102.0</ele><time>2026-03-29T07:41:34Z</time></trkpt><trkpt lat="45.41691349780423" lon="9.248638946333886"><ele>102.0</ele><time>2026-03-29T07:41:35Z</time></trkpt><trkpt lat="45.416742962060084" lon="9.248897068336964"><ele>102.0</ele><time>2026-03-29T07:41:36Z</time></trkpt><trkpt lat="45.41657374651105" lon="9.249153944840012"><ele>102.0</ele><time>2026-03-29T07:41:37Z</time></trkpt><trkpt lat="45.416403468872" lon="9.249412464376867"><ele>102.0</ele><time>2026-03-29T07:41:38Z</time></trkpt><trkpt lat="45.41623450356935" lon="9.249666248247022"><ele>102.5</ele><time>2026-03-29T07:41:39Z</time></trkpt><trkpt lat="45.41606637689502" lon="9.249920722462761"><ele>103.0</ele><time>2026-03-29T07:41:40Z</time></trkpt><trkpt lat="45.415900283517736" lon="9.25017539953497"><ele>103.0</ele><time>2026-03-29T07:41:41Z</time></trkpt><trkpt lat="45.415735015907686" lon="9.25042177558474"><ele>103.0</ele><time>2026-03-29T07:41:42Z</time></trkpt><trkpt lat="45.415573174759636" lon="9.250671707370408"><ele>101.0</ele><time>2026-03-29T07:41:43Z</time></trkpt><trkpt lat="45.41540682091905" lon="9.250927100530303"><ele>99.0</ele><time>2026-03-29T07:41:44Z</time></trkpt><trkpt lat="45.41523885652661" lon="9.2511846385525"><ele>99.0</ele><time>2026-03-29T07:41:45Z</time></trkpt><trkpt lat="45.41506515170274" lon="9.251444700348184"><ele>99.0</ele><time>2026-03-29T07:41:46Z</time></trkpt><trkpt lat="45.4148886450004" lon="9.251698982319045"><ele>99.0</ele><time>2026-03-29T07:41:47Z</time></trkpt><trkpt lat="45.414713408961035" lon="9.25195985915381"><ele>99.0</ele><time>2026-03-29T07:41:48Z</time></trkpt><trkpt lat="45.41454567624712" lon="9.252222991080782"><ele>102.5</ele><time>2026-03-29T07:41:49.001Z</time></trkpt><trkpt lat="45.41433598170739" lon="9.25249041552748"><ele>106.0</ele><time>2026-03-29T07:41:50.001Z</time></trkpt><trkpt lat="45.41416372402352" lon="9.252744429366475"><ele>106.0</ele><time>2026-03-29T07:41:51.001Z</time></trkpt><trkpt lat="45.41398341643087" lon="9.253002295053905"><ele>106.0</ele><time>2026-03-29T07:41:52.001Z</time></trkpt><trkpt lat="45.41380047025842" lon="9.253257868199498"><ele>104.5</ele><time>2026-03-29T07:41:53.001Z</time></trkpt><trkpt lat="45.41361446447045" lon="9.25351429557182"><ele>103.0</ele><time>2026-03-29T07:41:54.001Z</time></trkpt><trkpt lat="45.41342674909025" lon="9.253767784696405"><ele>102.0</ele><time>2026-03-29T07:41:55.001Z</time></trkpt><trkpt lat="45.41323826633171" lon="9.254020090169456"><ele>101.0</ele><time>2026-03-29T07:41:56.001Z</time></trkpt><trkpt lat="45.413048443931466" lon="9.254269751365424"><ele>99.5</ele><time>2026-03-29T07:41:57.001Z</time></trkpt><trkpt lat="45.41285115826707" lon="9.254522043134497"><ele>98.0</ele><time>2026-03-29T07:41:58.001Z</time></trkpt><trkpt lat="45.412664245866" lon="9.25476505152157"><ele>99.0</ele><time>2026-03-29T07:41:59.001Z</time></trkpt><trkpt lat="45.412475135905446" lon="9.255007200435697"><ele>100.0</ele><time>2026-03-29T07:42:00.001Z</time></trkpt><trkpt lat="45.41228707240207" lon="9.255249847028098"><ele>100.0</ele><time>2026-03-29T07:42:01.001Z</time></trkpt><trkpt lat="45.412098777921265" lon="9.255489512004008"><ele>100.0</ele><time>2026-03-29T07:42:02.001Z</time></trkpt><trkpt lat="45.41190610005128" lon="9.25572546388453"><ele>100.0</ele><time>2026-03-29T07:42:03.001Z</time></trkpt><trkpt lat="45.41171432522485" lon="9.255960683187036"><ele>100.0</ele><time>2026-03-29T07:42:04.001Z</time></trkpt><trkpt lat="45.41152245430859" lon="9.256192624317272"><ele>100.0</ele><time>2026-03-29T07:42:05.001Z</time></trkpt><trkpt lat="45.41132978634789" lon="9.256423073658466"><ele>100.0</ele><time>2026-03-29T07:42:06.001Z</time></trkpt><trkpt lat="45.41113902413624" lon="9.2566606217853"><ele>99.5</ele><time>2026-03-29T07:42:07.001Z</time></trkpt><trkpt lat="45.41095626817555" lon="9.256904670275885"><ele>99.0</ele><time>2026-03-29T07:42:08.001Z</time></trkpt><trkpt lat="45.41077653449036" lon="9.25713817068205"><ele>99.5</ele><time>2026-03-29T07:42:09.001Z</time></trkpt><trkpt lat="45.41058848770357" lon="9.257369499539946"><ele>100.0</ele><time>2026-03-29T07:42:10.001Z</time></trkpt><trkpt lat="45.410409156610676" lon="9.257605742451332"><ele>100.0</ele><time>2026-03-29T07:42:11.001Z</time></trkpt><trkpt lat="45.410224419643605" lon="9.257836405059289"><ele>100.0</ele><time>2026-03-29T07:42:12Z</time></trkpt><trkpt lat="45.41004255222386" lon="9.25806222286928"><ele>101.0</ele><time>2026-03-29T07:42:13Z</time></trkpt><trkpt lat="45.40986283215993" lon="9.258285818215874"><ele>102.0</ele><time>2026-03-29T07:42:14Z</time></trkpt><trkpt lat="45.409679137731985" lon="9.258518188813788"><ele>100.0</ele><time>2026-03-29T07:42:15Z</time></trkpt><trkpt lat="45.40949527863045" lon="9.258738239863002"><ele>98.0</ele><time>2026-03-29T07:42:16Z</time></trkpt><trkpt lat="45.40931884859829" lon="9.258962624664568"><ele>98.0</ele><time>2026-03-29T07:42:17Z</time></trkpt><trkpt lat="45.409139138028195" lon="9.259192330212032"><ele>98.0</ele><time>2026-03-29T07:42:18Z</time></trkpt><trkpt lat="45.408961021470084" lon="9.259438345819742"><ele>98.0</ele><time>2026-03-29T07:42:19Z</time></trkpt><trkpt lat="45.40877780139865" lon="9.25966869163671"><ele>98.0</ele><time>2026-03-29T07:42:20Z</time></trkpt><trkpt lat="45.408585489365905" lon="9.259888213993793"><ele>98.0</ele><time>2026-03-29T07:42:21Z</time></trkpt><trkpt lat="45.40839453150262" lon="9.260093320267048"><ele>98.0</ele><time>2026-03-29T07:42:22Z</time></trkpt><trkpt lat="45.40819920943692" lon="9.260286663234185"><ele>98.0</ele><time>2026-03-29T07:42:23Z</time></trkpt><trkpt lat="45.4079947401124" lon="9.260460054535617"><ele>98.0</ele><time>2026-03-29T07:42:24Z</time></trkpt><trkpt lat="45.40777877582986" lon="9.260617958776388"><ele>98.0</ele><time>2026-03-29T07:42:25Z</time></trkpt><trkpt lat="45.40755999462359" lon="9.260754096219392"><ele>98.0</ele><time>2026-03-29T07:42:26Z</time></trkpt><trkpt lat="45.40733667891266" lon="9.26087244777716"><ele>98.5</ele><time>2026-03-29T07:42:27Z</time></trkpt><trkpt lat="45.407110461161075" lon="9.260975951704198"><ele>99.0</ele><time>2026-03-29T07:42:28Z</time></trkpt><trkpt lat="45.406879059389645" lon="9.261066499814229"><ele>99.0</ele><time>2026-03-29T07:42:29Z</time></trkpt><trkpt lat="45.406645781974134" lon="9.261145397470209"><ele>99.0</ele><time>2026-03-29T07:42:30Z</time></trkpt><trkpt lat="45.40640076875592" lon="9.261199808834757"><ele>99.5</ele><time>2026-03-29T07:42:31Z</time></trkpt><trkpt lat="45.40616339382141" lon="9.261231476134505"><ele>100.0</ele><time>2026-03-29T07:42:32Z</time></trkpt><trkpt lat="45.405917812833664" lon="9.261243829359453"><ele>100.0</ele><time>2026-03-29T07:42:33Z</time></trkpt><trkpt lat="45.405673887417215" lon="9.26124469107572"><ele>100.0</ele><time>2026-03-29T07:42:34Z</time></trkpt><trkpt lat="45.40543418184031" lon="9.26122593635475"><ele>99.0</ele><time>2026-03-29T07:42:35Z</time></trkpt><trkpt lat="45.40518749747177" lon="9.261203291695958"><ele>98.0</ele><time>2026-03-29T07:42:36Z</time></trkpt><trkpt lat="45.404941454956365" lon="9.261177389785223"><ele>98.0</ele><time>2026-03-29T07:42:37Z</time></trkpt><trkpt lat="45.404689935639524" lon="9.261157799795168"><ele>98.0</ele><time>2026-03-29T07:42:38Z</time></trkpt><trkpt lat="45.40444243180192" lon="9.261136057293516"><ele>98.5</ele><time>2026-03-29T07:42:39Z</time></trkpt><trkpt lat="45.4041922978678" lon="9.261112720939687"><ele>99.0</ele><time>2026-03-29T07:42:40Z</time></trkpt><trkpt lat="45.40394539211846" lon="9.26108391140088"><ele>99.5</ele><time>2026-03-29T07:42:41Z</time></trkpt><trkpt lat="45.40369365150784" lon="9.261055014655355"><ele>100.0</ele><time>2026-03-29T07:42:42Z</time></trkpt><trkpt lat="45.403445862048166" lon="9.261027888617413"><ele>100.0</ele><time>2026-03-29T07:42:43Z</time></trkpt><trkpt lat="45.40319542507769" lon="9.261003029616097"><ele>100.0</ele><time>2026-03-29T07:42:44Z</time></trkpt><trkpt lat="45.40294944646631" lon="9.260974282938191"><ele>99.5</ele><time>2026-03-29T07:42:45Z</time></trkpt><trkpt lat="45.40270008011462" lon="9.260946422302814"><ele>99.0</ele><time>2026-03-29T07:42:46Z</time></trkpt><trkpt lat="45.40245633808431" lon="9.260920116827233"><ele>99.0</ele><time>2026-03-29T07:42:47Z</time></trkpt><trkpt lat="45.402213699377576" lon="9.260897239083652"><ele>99.0</ele><time>2026-03-29T07:42:48Z</time></trkpt><trkpt lat="45.40196692439816" lon="9.260877136182835"><ele>99.0</ele><time>2026-03-29T07:42:49Z</time></trkpt><trkpt lat="45.401720946573874" lon="9.260860806062913"><ele>99.0</ele><time>2026-03-29T07:42:50Z</time></trkpt><trkpt lat="45.40147454642785" lon="9.260840406369729"><ele>98.5</ele><time>2026-03-29T07:42:51Z</time></trkpt><trkpt lat="45.40122645438222" lon="9.2608197211622"><ele>98.0</ele><time>2026-03-29T07:42:52Z</time></trkpt><trkpt lat="45.40097181797758" lon="9.260796408712144"><ele>98.0</ele><time>2026-03-29T07:42:53Z</time></trkpt><trkpt lat="45.400717720423984" lon="9.260771774857975"><ele>98.0</ele><time>2026-03-29T07:42:54Z</time></trkpt><trkpt lat="45.4004589207227" lon="9.260746268840673"><ele>98.0</ele><time>2026-03-29T07:42:55Z</time></trkpt><trkpt lat="45.40019558115963" lon="9.260718362738801"><ele>98.0</ele><time>2026-03-29T07:42:56Z</time></trkpt><trkpt lat="45.39993401379191" lon="9.26069360625734"><ele>98.0</ele><time>2026-03-29T07:42:57Z</time></trkpt><trkpt lat="45.3996790088137" lon="9.26066693819806"><ele>98.0</ele><time>2026-03-29T07:42:58Z</time></trkpt><trkpt lat="45.399426438122504" lon="9.260635938216454"><ele>99.0</ele><time>2026-03-29T07:42:59Z</time></trkpt><trkpt lat="45.39917065492853" lon="9.260610837291866"><ele>100.0</ele><time>2026-03-29T07:43:00Z</time></trkpt><trkpt lat="45.3989180204207" lon="9.2605779472348"><ele>100.5</ele><time>2026-03-29T07:43:01Z</time></trkpt><trkpt lat="45.39866382886543" lon="9.260544817158147"><ele>101.0</ele><time>2026-03-29T07:43:02Z</time></trkpt><trkpt lat="45.3984074389903" lon="9.260513286819812"><ele>101.0</ele><time>2026-03-29T07:43:03Z</time></trkpt><trkpt lat="45.39814989856555" lon="9.260480688009686"><ele>101.0</ele><time>2026-03-29T07:43:04Z</time></trkpt><trkpt lat="45.397888413186" lon="9.260451407541778"><ele>101.0</ele><time>2026-03-29T07:43:05Z</time></trkpt><trkpt lat="45.397632782977404" lon="9.260434036586236"><ele>101.0</ele><time>2026-03-29T07:43:06Z</time></trkpt><trkpt lat="45.39736897303941" lon="9.260398659131255"><ele>100.5</ele><time>2026-03-29T07:43:07Z</time></trkpt><trkpt lat="45.39710418882639" lon="9.260369257632584"><ele>100.0</ele><time>2026-03-29T07:43:08Z</time></trkpt><trkpt lat="45.3968404380789" lon="9.260339957888984"><ele>100.0</ele><time>2026-03-29T07:43:09Z</time></trkpt><trkpt lat="45.39658029063525" lon="9.260309508870144"><ele>100.0</ele><time>2026-03-29T07:43:10Z</time></trkpt><trkpt lat="45.39632474694381" lon="9.260279548768757"><ele>100.0</ele><time>2026-03-29T07:43:11Z</time></trkpt><trkpt lat="45.39606402940598" lon="9.260250226381475"><ele>100.0</ele><time>2026-03-29T07:43:12Z</time></trkpt><trkpt lat="45.39580729038032" lon="9.260223289795361"><ele>100.0</ele><time>2026-03-29T07:43:13Z</time></trkpt><trkpt lat="45.395544949233454" lon="9.26020756706919"><ele>100.0</ele><time>2026-03-29T07:43:14Z</time></trkpt><trkpt lat="45.39528509637528" lon="9.260199384604013"><ele>100.0</ele><time>2026-03-29T07:43:15Z</time></trkpt><trkpt lat="45.395024379613446" lon="9.260208925580127"><ele>100.0</ele><time>2026-03-29T07:43:16Z</time></trkpt><trkpt lat="45.39476419392599" lon="9.26023216502798"><ele>101.0</ele><time>2026-03-29T07:43:17Z</time></trkpt><trkpt lat="45.3945045785631" lon="9.260262766574987"><ele>102.0</ele><time>2026-03-29T07:43:18Z</time></trkpt><trkpt lat="45.39424727185573" lon="9.260299131202125"><ele>102.0</ele><time>2026-03-29T07:43:19Z</time></trkpt><trkpt lat="45.39399354565725" lon="9.260337235843927"><ele>102.0</ele><time>2026-03-29T07:43:20Z</time></trkpt><trkpt lat="45.393739034106325" lon="9.26038480409586"><ele>101.5</ele><time>2026-03-29T07:43:21Z</time></trkpt><trkpt lat="45.39348851804152" lon="9.260441377841094"><ele>101.0</ele><time>2026-03-29T07:43:22Z</time></trkpt><trkpt lat="45.393237229197645" lon="9.260507688754796"><ele>101.0</ele><time>2026-03-29T07:43:23Z</time></trkpt><trkpt lat="45.39298536760349" lon="9.260586089251602"><ele>101.0</ele><time>2026-03-29T07:43:24Z</time></trkpt><trkpt lat="45.39273377579475" lon="9.260672012358706"><ele>101.0</ele><time>2026-03-29T07:43:25Z</time></trkpt><trkpt lat="45.392485265975225" lon="9.26076769403181"><ele>101.0</ele><time>2026-03-29T07:43:26Z</time></trkpt><trkpt lat="45.39225000091518" lon="9.260862508256203"><ele>99.5</ele><time>2026-03-29T07:43:27Z</time></trkpt><trkpt lat="45.39204210106347" lon="9.260938767236679"><ele>98.0</ele><time>2026-03-29T07:43:28Z</time></trkpt><trkpt lat="45.39176022372372" lon="9.261096987255323"><ele>98.0</ele><time>2026-03-29T07:43:29Z</time></trkpt><trkpt lat="45.39151661013148" lon="9.261232432078039"><ele>98.0</ele><time>2026-03-29T07:43:30Z</time></trkpt><trkpt lat="45.391274487660446" lon="9.261370022737006"><ele>98.5</ele><time>2026-03-29T07:43:31Z</time></trkpt><trkpt lat="45.391031748347466" lon="9.261517500830907"><ele>99.0</ele><time>2026-03-29T07:43:32Z</time></trkpt><trkpt lat="45.39079174715523" lon="9.261664214313289"><ele>99.0</ele><time>2026-03-29T07:43:33Z</time></trkpt><trkpt lat="45.39055615225023" lon="9.261817090701737"><ele>99.0</ele><time>2026-03-29T07:43:34Z</time></trkpt><trkpt lat="45.39032368244166" lon="9.261981726208624"><ele>99.0</ele><time>2026-03-29T07:43:35Z</time></trkpt><trkpt lat="45.39009572751097" lon="9.262148027036698"><ele>99.0</ele><time>2026-03-29T07:43:36Z</time></trkpt><trkpt lat="45.389871550068136" lon="9.262327327092322"><ele>98.0</ele><time>2026-03-29T07:43:37Z</time></trkpt><trkpt lat="45.389655682410094" lon="9.262514985562229"><ele>97.0</ele><time>2026-03-29T07:43:38Z</time></trkpt><trkpt lat="45.389444179770585" lon="9.262709775987506"><ele>97.0</ele><time>2026-03-29T07:43:39Z</time></trkpt><trkpt lat="45.38923302380773" lon="9.262908600523687"><ele>97.0</ele><time>2026-03-29T07:43:40Z</time></trkpt><trkpt lat="45.3890270781381" lon="9.263115246327828"><ele>97.5</ele><time>2026-03-29T07:43:41Z</time></trkpt><trkpt lat="45.38882158925697" lon="9.263325882628113"><ele>98.0</ele><time>2026-03-29T07:43:42Z</time></trkpt><trkpt lat="45.38861624699513" lon="9.263542719610472"><ele>98.0</ele><time>2026-03-29T07:43:43Z</time></trkpt><trkpt lat="45.388409596947625" lon="9.263762009672934"><ele>98.0</ele><time>2026-03-29T07:43:44Z</time></trkpt><trkpt lat="45.3882062873643" lon="9.263977558431394"><ele>98.5</ele><time>2026-03-29T07:43:45Z</time></trkpt><trkpt lat="45.38800301799645" lon="9.264191393705893"><ele>99.0</ele><time>2026-03-29T07:43:46Z</time></trkpt><trkpt lat="45.38780012383492" lon="9.264414474780576"><ele>99.0</ele><time>2026-03-29T07:43:47Z</time></trkpt><trkpt lat="45.38759747570432" lon="9.264642637791683"><ele>99.0</ele><time>2026-03-29T07:43:48Z</time></trkpt><trkpt lat="45.38739910558618" lon="9.264870838130728"><ele>98.5</ele><time>2026-03-29T07:43:49Z</time></trkpt><trkpt lat="45.387203467213894" lon="9.26510362255434"><ele>98.0</ele><time>2026-03-29T07:43:50Z</time></trkpt><trkpt lat="45.387008344054905" lon="9.265337180376482"><ele>97.5</ele><time>2026-03-29T07:43:51Z</time></trkpt><trkpt lat="45.38681626706179" lon="9.265574794888233"><ele>97.0</ele><time>2026-03-29T07:43:52Z</time></trkpt><trkpt lat="45.38662729817233" lon="9.26580789437508"><ele>97.0</ele><time>2026-03-29T07:43:53Z</time></trkpt><trkpt lat="45.38643983590867" lon="9.26603795182757"><ele>97.0</ele><time>2026-03-29T07:43:54.001Z</time></trkpt><trkpt lat="45.38625058556243" lon="9.266270373545611"><ele>97.0</ele><time>2026-03-29T07:43:55.001Z</time></trkpt><trkpt lat="45.38606445140517" lon="9.266490902567842"><ele>97.0</ele><time>2026-03-29T07:43:56.001Z</time></trkpt><trkpt lat="45.38589902493293" lon="9.266710640304908"><ele>97.0</ele><time>2026-03-29T07:43:57.001Z</time></trkpt><trkpt lat="45.3857121129871" lon="9.266879321350723"><ele>97.0</ele><time>2026-03-29T07:43:58.001Z</time></trkpt><trkpt lat="45.38553770902134" lon="9.26704341366182"><ele>97.0</ele><time>2026-03-29T07:43:59.001Z</time></trkpt><trkpt lat="45.385363166979786" lon="9.267188187492001"><ele>97.0</ele><time>2026-03-29T07:44:00.001Z</time></trkpt><trkpt lat="45.385185601073026" lon="9.267311439287665"><ele>97.0</ele><time>2026-03-29T07:44:01.001Z</time></trkpt><trkpt lat="45.38500659127362" lon="9.267404173152585"><ele>97.0</ele><time>2026-03-29T07:44:02.001Z</time></trkpt><trkpt lat="45.38481772772153" lon="9.267479620290553"><ele>97.66666666666667</ele><time>2026-03-29T07:44:03.001Z</time></trkpt><trkpt lat="45.38462399477412" lon="9.267526785789697"><ele>98.33333333333334</ele><time>2026-03-29T07:44:04.001Z</time></trkpt><trkpt lat="45.38443194284802" lon="9.267546714755294"><ele>99.0</ele><time>2026-03-29T07:44:05.001Z</time></trkpt><trkpt lat="45.38424599127095" lon="9.267524398745005"><ele>99.0</ele><time>2026-03-29T07:44:06.001Z</time></trkpt><trkpt lat="45.384062747646766" lon="9.267478643707022"><ele>99.0</ele><time>2026-03-29T07:44:07.001Z</time></trkpt><trkpt lat="45.38388591227022" lon="9.26740127806403"><ele>99.0</ele><time>2026-03-29T07:44:08.001Z</time></trkpt><trkpt lat="45.383722268744414" lon="9.267301119925433"><ele>99.66666666666666</ele><time>2026-03-29T07:44:09.001Z</time></trkpt><trkpt lat="45.3835698932455" lon="9.267173266524232"><ele>100.33333333333333</ele><time>2026-03-29T07:44:10.001Z</time></trkpt><trkpt lat="45.38343460197134" lon="9.267007959349701"><ele>101.0</ele><time>2026-03-29T07:44:11.001Z</time></trkpt><trkpt lat="45.383307228456296" lon="9.26681188237331"><ele>101.0</ele><time>2026-03-29T07:44:12.001Z</time></trkpt><trkpt lat="45.383187373041245" lon="9.266600356122117"><ele>101.0</ele><time>2026-03-29T07:44:13.001Z</time></trkpt><trkpt lat="45.38306632860372" lon="9.26638717367411"><ele>101.0</ele><time>2026-03-29T07:44:14.001Z</time></trkpt><trkpt lat="45.382936415951434" lon="9.266182984170698"><ele>100.66666666666666</ele><time>2026-03-29T07:44:15.001Z</time></trkpt><trkpt lat="45.38280848931569" lon="9.265976292176182"><ele>100.33333333333334</ele><time>2026-03-29T07:44:16.001Z</time></trkpt><trkpt lat="45.382690069146854" lon="9.265760391736324"><ele>100.0</ele><time>2026-03-29T07:44:17.001Z</time></trkpt><trkpt lat="45.3825887117113" lon="9.265517484293209"><ele>100.0</ele><time>2026-03-29T07:44:18Z</time></trkpt><trkpt lat="45.38249991671749" lon="9.265262238012136"><ele>100.0</ele><time>2026-03-29T07:44:19Z</time></trkpt><trkpt lat="45.38243032044097" lon="9.264992430239188"><ele>100.0</ele><time>2026-03-29T07:44:20Z</time></trkpt><trkpt lat="45.38237873573409" lon="9.264715785461588"><ele>99.0</ele><time>2026-03-29T07:44:21Z</time></trkpt><trkpt lat="45.38234740476488" lon="9.264427083725867"><ele>98.0</ele><time>2026-03-29T07:44:22Z</time></trkpt><trkpt lat="45.3823386724218" lon="9.264134675626613"><ele>97.0</ele><time>2026-03-29T07:44:23Z</time></trkpt><trkpt lat="45.382357814450586" lon="9.263833571360893"><ele>97.0</ele><time>2026-03-29T07:44:24Z</time></trkpt><trkpt lat="45.382385024605846" lon="9.263532781219947"><ele>97.0</ele><time>2026-03-29T07:44:25Z</time></trkpt><trkpt lat="45.38240463339392" lon="9.263231353622691"><ele>97.0</ele><time>2026-03-29T07:44:26Z</time></trkpt><trkpt lat="45.38241646845622" lon="9.2629199902113"><ele>97.33333333333334</ele><time>2026-03-29T07:44:27Z</time></trkpt><trkpt lat="45.38243652674639" lon="9.262611477619485"><ele>97.66666666666666</ele><time>2026-03-29T07:44:28Z</time></trkpt><trkpt lat="45.38245847029354" lon="9.262294743719789"><ele>98.0</ele><time>2026-03-29T07:44:29Z</time></trkpt><trkpt lat="45.38248272663315" lon="9.261971838516972"><ele>98.5</ele><time>2026-03-29T07:44:30Z</time></trkpt><trkpt lat="45.38250395862106" lon="9.261633466033407"><ele>99.0</ele><time>2026-03-29T07:44:31Z</time></trkpt><trkpt lat="45.382520431228286" lon="9.261304144054233"><ele>98.0</ele><time>2026-03-29T07:44:32Z</time></trkpt><trkpt lat="45.382537876323696" lon="9.260969479633776"><ele>97.0</ele><time>2026-03-29T07:44:33Z</time></trkpt><trkpt lat="45.382555074462346" lon="9.260629412125542"><ele>97.0</ele><time>2026-03-29T07:44:34Z</time></trkpt><trkpt lat="45.382573572870434" lon="9.260292513169148"><ele>97.0</ele><time>2026-03-29T07:44:35Z</time></trkpt><trkpt lat="45.382590506262886" lon="9.259953230368058"><ele>97.5</ele><time>2026-03-29T07:44:36Z</time></trkpt><trkpt lat="45.38260998171302" lon="9.259608342182036"><ele>98.0</ele><time>2026-03-29T07:44:37Z</time></trkpt><trkpt lat="45.38262964995497" lon="9.259265914183018"><ele>98.5</ele><time>2026-03-29T07:44:38Z</time></trkpt><trkpt lat="45.3826491168611" lon="9.2589226137662"><ele>99.0</ele><time>2026-03-29T07:44:39Z</time></trkpt><trkpt lat="45.38266616170781" lon="9.258578047969182"><ele>99.0</ele><time>2026-03-29T07:44:40Z</time></trkpt><trkpt lat="45.382684370400405" lon="9.258226715152013"><ele>99.0</ele><time>2026-03-29T07:44:41Z</time></trkpt><trkpt lat="45.38270285735304" lon="9.257890056834192"><ele>98.5</ele><time>2026-03-29T07:44:42Z</time></trkpt><trkpt lat="45.38272231651849" lon="9.257545614928578"><ele>98.0</ele><time>2026-03-29T07:44:43Z</time></trkpt><trkpt lat="45.382741367076356" lon="9.25719739472273"><ele>97.5</ele><time>2026-03-29T07:44:44Z</time></trkpt><trkpt lat="45.38275915240949" lon="9.256856056776844"><ele>97.0</ele><time>2026-03-29T07:44:45Z</time></trkpt><trkpt lat="45.38277410373989" lon="9.256511119892389"><ele>97.0</ele><time>2026-03-29T07:44:46Z</time></trkpt><trkpt lat="45.38279265146474" lon="9.256164844667948"><ele>97.0</ele><time>2026-03-29T07:44:47Z</time></trkpt><trkpt lat="45.38281230426414" lon="9.255817916970525"><ele>97.5</ele><time>2026-03-29T07:44:48Z</time></trkpt><trkpt lat="45.38283445422952" lon="9.25546314670773"><ele>98.0</ele><time>2026-03-29T07:44:49Z</time></trkpt><trkpt lat="45.38285459542664" lon="9.255105336083115"><ele>98.0</ele><time>2026-03-29T07:44:50Z</time></trkpt><trkpt lat="45.382877078772346" lon="9.25474437209726"><ele>98.0</ele><time>2026-03-29T07:44:51Z</time></trkpt><trkpt lat="45.38290186465151" lon="9.254385663726621"><ele>98.0</ele><time>2026-03-29T07:44:52Z</time></trkpt><trkpt lat="45.38292666332868" lon="9.254024545302293"><ele>98.0</ele><time>2026-03-29T07:44:53Z</time></trkpt><trkpt lat="45.38294877702191" lon="9.253662697191594"><ele>98.0</ele><time>2026-03-29T07:44:54Z</time></trkpt><trkpt lat="45.38297363810636" lon="9.253296204434912"><ele>98.0</ele><time>2026-03-29T07:44:55Z</time></trkpt><trkpt lat="45.38299262463141" lon="9.252924528138827"><ele>99.0</ele><time>2026-03-29T07:44:56Z</time></trkpt><trkpt lat="45.38301051926972" lon="9.252558917123126"><ele>100.0</ele><time>2026-03-29T07:44:57Z</time></trkpt><trkpt lat="45.383028805014405" lon="9.25219024386078"><ele>100.0</ele><time>2026-03-29T07:44:58Z</time></trkpt><trkpt lat="45.38305139475906" lon="9.251820661738801"><ele>100.0</ele><time>2026-03-29T07:44:59Z</time></trkpt><trkpt lat="45.38306430390478" lon="9.251466685733957"><ele>100.0</ele><time>2026-03-29T07:45:00Z</time></trkpt><trkpt lat="45.38309290422705" lon="9.251087767697106"><ele>100.0</ele><time>2026-03-29T07:45:01Z</time></trkpt><trkpt lat="45.38311552063611" lon="9.250724161787847"><ele>99.5</ele><time>2026-03-29T07:45:02Z</time></trkpt><trkpt lat="45.38313670252068" lon="9.250353837966495"><ele>99.0</ele><time>2026-03-29T07:45:03Z</time></trkpt><trkpt lat="45.38315940889587" lon="9.249983265553116"><ele>98.5</ele><time>2026-03-29T07:45:04Z</time></trkpt><trkpt lat="45.383179026028245" lon="9.24962529659043"><ele>98.0</ele><time>2026-03-29T07:45:05Z</time></trkpt><trkpt lat="45.38320160160539" lon="9.249257159000992"><ele>98.0</ele><time>2026-03-29T07:45:06Z</time></trkpt><trkpt lat="45.38321989188221" lon="9.248888632717364"><ele>98.0</ele><time>2026-03-29T07:45:07Z</time></trkpt><trkpt lat="45.38324236237572" lon="9.248526519755787"><ele>98.0</ele><time>2026-03-29T07:45:08Z</time></trkpt><trkpt lat="45.38326416245014" lon="9.248165400482431"><ele>98.0</ele><time>2026-03-29T07:45:09Z</time></trkpt><trkpt lat="45.38328626454202" lon="9.247801512964756"><ele>98.0</ele><time>2026-03-29T07:45:10Z</time></trkpt><trkpt lat="45.38330785771855" lon="9.24743947179772"><ele>98.0</ele><time>2026-03-29T07:45:11Z</time></trkpt><trkpt lat="45.383331106356785" lon="9.24707544422483"><ele>98.0</ele><time>2026-03-29T07:45:12Z</time></trkpt><trkpt lat="45.3833530620483" lon="9.246710321861451"><ele>98.0</ele><time>2026-03-29T07:45:13Z</time></trkpt><trkpt lat="45.383376294823115" lon="9.246348574992673"><ele>98.0</ele><time>2026-03-29T07:45:14Z</time></trkpt><trkpt lat="45.38339688735158" lon="9.245982163869293"><ele>98.0</ele><time>2026-03-29T07:45:15Z</time></trkpt><trkpt lat="45.383417517321156" lon="9.24561595437552"><ele>99.0</ele><time>2026-03-29T07:45:16Z</time></trkpt><trkpt lat="45.38344037415766" lon="9.245249833076612"><ele>100.0</ele><time>2026-03-29T07:45:17Z</time></trkpt><trkpt lat="45.383466834857145" lon="9.244875183611592"><ele>99.0</ele><time>2026-03-29T07:45:18Z</time></trkpt><trkpt lat="45.38349405046809" lon="9.244497964569065"><ele>98.0</ele><time>2026-03-29T07:45:19Z</time></trkpt><trkpt lat="45.38351982074087" lon="9.244130151186972"><ele>98.0</ele><time>2026-03-29T07:45:20Z</time></trkpt><trkpt lat="45.383551362217716" lon="9.243760826107097"><ele>98.0</ele><time>2026-03-29T07:45:21Z</time></trkpt><trkpt lat="45.3835867275861" lon="9.243390418757075"><ele>97.5</ele><time>2026-03-29T07:45:22Z</time></trkpt><trkpt lat="45.38362203350374" lon="9.24302049210173"><ele>97.0</ele><time>2026-03-29T07:45:23Z</time></trkpt><trkpt lat="45.383665256398714" lon="9.242654178132039"><ele>97.5</ele><time>2026-03-29T07:45:24Z</time></trkpt><trkpt lat="45.3837058597732" lon="9.242286330553588"><ele>98.0</ele><time>2026-03-29T07:45:25Z</time></trkpt><trkpt lat="45.3837524946133" lon="9.241921867413954"><ele>98.0</ele><time>2026-03-29T07:45:26Z</time></trkpt><trkpt lat="45.38379992748673" lon="9.241554098585238"><ele>98.0</ele><time>2026-03-29T07:45:27Z</time></trkpt><trkpt lat="45.38385113740647" lon="9.241192533018808"><ele>99.0</ele><time>2026-03-29T07:45:28Z</time></trkpt><trkpt lat="45.38390208915286" lon="9.240830029145734"><ele>100.0</ele><time>2026-03-29T07:45:29Z</time></trkpt><trkpt lat="45.383956742235846" lon="9.240468951790763"><ele>100.0</ele><time>2026-03-29T07:45:30Z</time></trkpt><trkpt lat="45.38401340869946" lon="9.240107722737681"><ele>100.0</ele><time>2026-03-29T07:45:31Z</time></trkpt><trkpt lat="45.38407370766113" lon="9.239754383450617"><ele>100.0</ele><time>2026-03-29T07:45:32Z</time></trkpt><trkpt lat="45.384131385446466" lon="9.23939468033677"><ele>100.0</ele><time>2026-03-29T07:45:33Z</time></trkpt><trkpt lat="45.38419423273552" lon="9.239043596491781"><ele>100.0</ele><time>2026-03-29T07:45:34.001Z</time></trkpt><trkpt lat="45.384261392481015" lon="9.238692601470502"><ele>100.0</ele><time>2026-03-29T07:45:35.001Z</time></trkpt><trkpt lat="45.384328535069784" lon="9.238341041176701"><ele>99.5</ele><time>2026-03-29T07:45:36.001Z</time></trkpt><trkpt lat="45.38439955209513" lon="9.237998838788753"><ele>99.0</ele><time>2026-03-29T07:45:37.001Z</time></trkpt><trkpt lat="45.384471954221254" lon="9.237653881815637"><ele>99.0</ele><time>2026-03-29T07:45:38.001Z</time></trkpt><trkpt lat="45.38454335774562" lon="9.237310141101958"><ele>99.0</ele><time>2026-03-29T07:45:39.001Z</time></trkpt><trkpt lat="45.3846198753712" lon="9.236970728161351"><ele>100.0</ele><time>2026-03-29T07:45:40.001Z</time></trkpt><trkpt lat="45.3846967923643" lon="9.236631198638412"><ele>101.0</ele><time>2026-03-29T07:45:41.001Z</time></trkpt><trkpt lat="45.38477720062361" lon="9.236287031527185"><ele>101.0</ele><time>2026-03-29T07:45:42.001Z</time></trkpt><trkpt lat="45.38485773496588" lon="9.235947360586145"><ele>101.0</ele><time>2026-03-29T07:45:43.001Z</time></trkpt><trkpt lat="45.38494100459838" lon="9.235607650814721"><ele>100.5</ele><time>2026-03-29T07:45:44.001Z</time></trkpt><trkpt lat="45.385022981729946" lon="9.2352684155077"><ele>100.0</ele><time>2026-03-29T07:45:45.001Z</time></trkpt><trkpt lat="45.38510805421246" lon="9.234929198512704"><ele>100.0</ele><time>2026-03-29T07:45:46.001Z</time></trkpt><trkpt lat="45.38519200011588" lon="9.234590647700571"><ele>100.0</ele><time>2026-03-29T07:45:47.001Z</time></trkpt><trkpt lat="45.385278835950416" lon="9.234249007900857"><ele>101.0</ele><time>2026-03-29T07:45:48.001Z</time></trkpt><trkpt lat="45.385362901102106" lon="9.233906506913565"><ele>102.0</ele><time>2026-03-29T07:45:49.001Z</time></trkpt><trkpt lat="45.38544597979546" lon="9.233561061992535"><ele>101.5</ele><time>2026-03-29T07:45:50.001Z</time></trkpt><trkpt lat="45.385530127394716" lon="9.233219738015029"><ele>101.0</ele><time>2026-03-29T07:45:51.001Z</time></trkpt><trkpt lat="45.38561794622218" lon="9.232877446328692"><ele>101.0</ele><time>2026-03-29T07:45:52.001Z</time></trkpt><trkpt lat="45.385701529505155" lon="9.232530291900774"><ele>101.0</ele><time>2026-03-29T07:45:53.001Z</time></trkpt><trkpt lat="45.38578404310684" lon="9.232178992058426"><ele>102.0</ele><time>2026-03-29T07:45:54.001Z</time></trkpt><trkpt lat="45.38586898428512" lon="9.231831792522344"><ele>103.0</ele><time>2026-03-29T07:45:55.001Z</time></trkpt><trkpt lat="45.38595955211528" lon="9.23148758848405"><ele>104.0</ele><time>2026-03-29T07:45:56.001Z</time></trkpt><trkpt lat="45.3860465473556" lon="9.231137239948016"><ele>105.0</ele><time>2026-03-29T07:45:57.001Z</time></trkpt><trkpt lat="45.38613521377701" lon="9.230785938921871"><ele>103.5</ele><time>2026-03-29T07:45:58.001Z</time></trkpt><trkpt lat="45.3862234213969" lon="9.230438537900076"><ele>102.0</ele><time>2026-03-29T07:45:59.001Z</time></trkpt><trkpt lat="45.38631132686993" lon="9.230091198969637"><ele>103.0</ele><time>2026-03-29T07:46:00.001Z</time></trkpt><trkpt lat="45.386400060587306" lon="9.229739862085653"><ele>104.0</ele><time>2026-03-29T07:46:01.001Z</time></trkpt><trkpt lat="45.386486066159684" lon="9.22938917664295"><ele>104.0</ele><time>2026-03-29T07:46:02.001Z</time></trkpt><trkpt lat="45.38657101330445" lon="9.229038272227013"><ele>104.0</ele><time>2026-03-29T07:46:03.001Z</time></trkpt><trkpt lat="45.386656683716005" lon="9.228686210559411"><ele>102.5</ele><time>2026-03-29T07:46:04.001Z</time></trkpt><trkpt lat="45.38674535758611" lon="9.228339068135293"><ele>101.0</ele><time>2026-03-29T07:46:05.001Z</time></trkpt><trkpt lat="45.38683142928735" lon="9.227989072060042"><ele>100.0</ele><time>2026-03-29T07:46:06.001Z</time></trkpt><trkpt lat="45.38691868534278" lon="9.227640525626937"><ele>99.0</ele><time>2026-03-29T07:46:07.001Z</time></trkpt><trkpt lat="45.387005556738934" lon="9.227288990138268"><ele>99.0</ele><time>2026-03-29T07:46:08.001Z</time></trkpt><trkpt lat="45.38709227360061" lon="9.226943562535485"><ele>99.0</ele><time>2026-03-29T07:46:09.001Z</time></trkpt><trkpt lat="45.38717850405978" lon="9.22659393265269"><ele>100.0</ele><time>2026-03-29T07:46:10.001Z</time></trkpt><trkpt lat="45.38726419377441" lon="9.226246575986705"><ele>101.0</ele><time>2026-03-29T07:46:11.001Z</time></trkpt><trkpt lat="45.3873485250704" lon="9.225896801266165"><ele>101.5</ele><time>2026-03-29T07:46:12.001Z</time></trkpt><trkpt lat="45.38743732389676" lon="9.225546201365907"><ele>102.0</ele><time>2026-03-29T07:46:13.001Z</time></trkpt><trkpt lat="45.38752263113053" lon="9.22519691216535"><ele>102.0</ele><time>2026-03-29T07:46:14.001Z</time></trkpt><trkpt lat="45.38761178455684" lon="9.224856316746472"><ele>102.0</ele><time>2026-03-29T07:46:15.001Z</time></trkpt><trkpt lat="45.387697142284104" lon="9.224515924018617"><ele>100.5</ele><time>2026-03-29T07:46:16.001Z</time></trkpt><trkpt lat="45.38778651898529" lon="9.224168674802657"><ele>99.0</ele><time>2026-03-29T07:46:17.001Z</time></trkpt><trkpt lat="45.38787152277634" lon="9.223824180033718"><ele>99.0</ele><time>2026-03-29T07:46:18.001Z</time></trkpt><trkpt lat="45.387958455118834" lon="9.223482060179487"><ele>99.0</ele><time>2026-03-29T07:46:19.001Z</time></trkpt><trkpt lat="45.388042943609676" lon="9.223137305953644"><ele>100.0</ele><time>2026-03-29T07:46:20.001Z</time></trkpt><trkpt lat="45.38812666356163" lon="9.222792701457264"><ele>101.0</ele><time>2026-03-29T07:46:21.001Z</time></trkpt><trkpt lat="45.3882106532708" lon="9.222446500585043"><ele>100.5</ele><time>2026-03-29T07:46:22.001Z</time></trkpt><trkpt lat="45.3882967121552" lon="9.222108042679272"><ele>100.0</ele><time>2026-03-29T07:46:23.001Z</time></trkpt><trkpt lat="45.38837987370783" lon="9.22175187392678"><ele>100.5</ele><time>2026-03-29T07:46:24Z</time></trkpt><trkpt lat="45.38846519748651" lon="9.221405006623765"><ele>101.0</ele><time>2026-03-29T07:46:25Z</time></trkpt><trkpt lat="45.38854877346078" lon="9.221048704763513"><ele>101.0</ele><time>2026-03-29T07:46:26Z</time></trkpt><trkpt lat="45.38863748756485" lon="9.220699817727581"><ele>101.0</ele><time>2026-03-29T07:46:27Z</time></trkpt><trkpt lat="45.3887251712275" lon="9.220346669175363"><ele>100.5</ele><time>2026-03-29T07:46:28Z</time></trkpt><trkpt lat="45.38881492905077" lon="9.219992858498347"><ele>100.0</ele><time>2026-03-29T07:46:29Z</time></trkpt><trkpt lat="45.38890330656565" lon="9.219640496589147"><ele>101.0</ele><time>2026-03-29T07:46:30Z</time></trkpt><trkpt lat="45.388988196432585" lon="9.219281071139552"><ele>102.0</ele><time>2026-03-29T07:46:31Z</time></trkpt><trkpt lat="45.38906998077053" lon="9.218911867735859"><ele>102.0</ele><time>2026-03-29T07:46:32Z</time></trkpt><trkpt lat="45.38915610343744" lon="9.21854248921448"><ele>102.0</ele><time>2026-03-29T07:46:33Z</time></trkpt><trkpt lat="45.38924203579718" lon="9.218151354785284"><ele>102.0</ele><time>2026-03-29T07:46:34Z</time></trkpt><trkpt lat="45.38933405586552" lon="9.217790689549153"><ele>102.0</ele><time>2026-03-29T07:46:35Z</time></trkpt><trkpt lat="45.38942235392801" lon="9.217430236192124"><ele>100.5</ele><time>2026-03-29T07:46:36Z</time></trkpt><trkpt lat="45.38950825336874" lon="9.217078570995309"><ele>99.0</ele><time>2026-03-29T07:46:37Z</time></trkpt><trkpt lat="45.3895935859472" lon="9.21672545835393"><ele>99.0</ele><time>2026-03-29T07:46:38Z</time></trkpt><trkpt lat="45.38967030707314" lon="9.216377848159567"><ele>99.0</ele><time>2026-03-29T07:46:39Z</time></trkpt><trkpt lat="45.38974446492597" lon="9.216033312338801"><ele>101.0</ele><time>2026-03-29T07:46:40Z</time></trkpt><trkpt lat="45.38981559338929" lon="9.215692233151158"><ele>103.0</ele><time>2026-03-29T07:46:41Z</time></trkpt><trkpt lat="45.38988633575486" lon="9.215348858183132"><ele>103.0</ele><time>2026-03-29T07:46:42Z</time></trkpt><trkpt lat="45.38995673119474" lon="9.215006708750153"><ele>103.0</ele><time>2026-03-29T07:46:43Z</time></trkpt><trkpt lat="45.390026101035666" lon="9.214660891036836"><ele>104.0</ele><time>2026-03-29T07:46:44Z</time></trkpt><trkpt lat="45.390091319732335" lon="9.21431103817707"><ele>105.0</ele><time>2026-03-29T07:46:45Z</time></trkpt><trkpt lat="45.39015380812557" lon="9.213970604598918"><ele>105.0</ele><time>2026-03-29T07:46:46Z</time></trkpt><trkpt lat="45.39021527008715" lon="9.213629661416716"><ele>105.0</ele><time>2026-03-29T07:46:47Z</time></trkpt><trkpt lat="45.39027650033507" lon="9.21328516092668"><ele>105.0</ele><time>2026-03-29T07:46:48Z</time></trkpt><trkpt lat="45.39033722620334" lon="9.212940048019115"><ele>105.0</ele><time>2026-03-29T07:46:49Z</time></trkpt><trkpt lat="45.3903977582676" lon="9.212592646785867"><ele>104.5</ele><time>2026-03-29T07:46:50Z</time></trkpt><trkpt lat="45.39045637165211" lon="9.212243971650457"><ele>104.0</ele><time>2026-03-29T07:46:51Z</time></trkpt><trkpt lat="45.39051638774914" lon="9.211893709922366"><ele>104.0</ele><time>2026-03-29T07:46:52Z</time></trkpt><trkpt lat="45.39057574777782" lon="9.21154380946986"><ele>104.0</ele><time>2026-03-29T07:46:53Z</time></trkpt><trkpt lat="45.390631499812024" lon="9.211184228775236"><ele>104.0</ele><time>2026-03-29T07:46:54Z</time></trkpt><trkpt lat="45.39068407269965" lon="9.210828446638466"><ele>104.0</ele><time>2026-03-29T07:46:55Z</time></trkpt><trkpt lat="45.39073363181569" lon="9.210474036229767"><ele>104.0</ele><time>2026-03-29T07:46:56Z</time></trkpt><trkpt lat="45.390784018855165" lon="9.210115661699495"><ele>104.0</ele><time>2026-03-29T07:46:57Z</time></trkpt><trkpt lat="45.39083178401158" lon="9.209753757051681"><ele>104.0</ele><time>2026-03-29T07:46:58Z</time></trkpt><trkpt lat="45.39088027403475" lon="9.209394144531219"><ele>104.0</ele><time>2026-03-29T07:46:59Z</time></trkpt><trkpt lat="45.390926047066316" lon="9.209036601772352"><ele>102.0</ele><time>2026-03-29T07:47:00Z</time></trkpt><trkpt lat="45.39097058470354" lon="9.208676940770383"><ele>100.0</ele><time>2026-03-29T07:47:01Z</time></trkpt><trkpt lat="45.39101394233699" lon="9.208320709811895"><ele>99.5</ele><time>2026-03-29T07:47:02Z</time></trkpt><trkpt lat="45.39105637383385" lon="9.20796242475627"><ele>99.0</ele><time>2026-03-29T07:47:03Z</time></trkpt><trkpt lat="45.391094489423516" lon="9.207610863542504"><ele>101.0</ele><time>2026-03-29T07:47:04Z</time></trkpt><trkpt lat="45.39112970999735" lon="9.207257326592089"><ele>103.0</ele><time>2026-03-29T07:47:05Z</time></trkpt><trkpt lat="45.391165997158936" lon="9.206904586958114"><ele>103.0</ele><time>2026-03-29T07:47:06Z</time></trkpt><trkpt lat="45.39120184557966" lon="9.206554201573269"><ele>103.0</ele><time>2026-03-29T07:47:07Z</time></trkpt><trkpt lat="45.39123613328464" lon="9.206205668387778"><ele>103.0</ele><time>2026-03-29T07:47:08Z</time></trkpt><trkpt lat="45.39126824147441" lon="9.205879706660484"><ele>103.0</ele><time>2026-03-29T07:47:09Z</time></trkpt><trkpt lat="45.391290423899854" lon="9.20556223645582"><ele>102.0</ele><time>2026-03-29T07:47:10Z</time></trkpt><trkpt lat="45.391314133639305" lon="9.205242230854557"><ele>101.0</ele><time>2026-03-29T07:47:11Z</time></trkpt><trkpt lat="45.39133886436821" lon="9.204907652870084"><ele>101.5</ele><time>2026-03-29T07:47:12Z</time></trkpt><trkpt lat="45.39136265300544" lon="9.204568462419129"><ele>102.0</ele><time>2026-03-29T07:47:13Z</time></trkpt><trkpt lat="45.39138098728529" lon="9.20422988186236"><ele>101.5</ele><time>2026-03-29T07:47:14Z</time></trkpt><trkpt lat="45.39139851999781" lon="9.203886694060346"><ele>101.0</ele><time>2026-03-29T07:47:15Z</time></trkpt><trkpt lat="45.39141841402223" lon="9.203545825705"><ele>101.0</ele><time>2026-03-29T07:47:16Z</time></trkpt><trkpt lat="45.39144080512701" lon="9.2032074651886"><ele>101.0</ele><time>2026-03-29T07:47:17Z</time></trkpt><trkpt lat="45.39146236791552" lon="9.202866172566457"><ele>100.5</ele><time>2026-03-29T07:47:18Z</time></trkpt><trkpt lat="45.391481665912615" lon="9.202528636022182"><ele>100.0</ele><time>2026-03-29T07:47:19Z</time></trkpt><trkpt lat="45.39149864055109" lon="9.202190268178745"><ele>101.0</ele><time>2026-03-29T07:47:20Z</time></trkpt><trkpt lat="45.39151251439307" lon="9.201849144486493"><ele>102.0</ele><time>2026-03-29T07:47:21Z</time></trkpt><trkpt lat="45.39152539743884" lon="9.201510878611012"><ele>103.0</ele><time>2026-03-29T07:47:22Z</time></trkpt><trkpt lat="45.39153584002407" lon="9.201162771923432"><ele>104.0</ele><time>2026-03-29T07:47:23Z</time></trkpt><trkpt lat="45.391545153289755" lon="9.200821647901215"><ele>102.5</ele><time>2026-03-29T07:47:24Z</time></trkpt><trkpt lat="45.39155242195621" lon="9.200477009681222"><ele>101.0</ele><time>2026-03-29T07:47:25Z</time></trkpt><trkpt lat="45.391561048729265" lon="9.200135392725993"><ele>101.0</ele><time>2026-03-29T07:47:26Z</time></trkpt><trkpt lat="45.391570646491544" lon="9.199789143547163"><ele>101.0</ele><time>2026-03-29T07:47:27Z</time></trkpt><trkpt lat="45.39158148121859" lon="9.19944974923129"><ele>101.0</ele><time>2026-03-29T07:47:28Z</time></trkpt><trkpt lat="45.39158439075403" lon="9.199114915048463"><ele>101.0</ele><time>2026-03-29T07:47:29Z</time></trkpt><trkpt lat="45.391582579874495" lon="9.198778034449925"><ele>102.0</ele><time>2026-03-29T07:47:30Z</time></trkpt><trkpt lat="45.39158239747456" lon="9.198452993916856"><ele>103.0</ele><time>2026-03-29T07:47:31Z</time></trkpt><trkpt lat="45.391586167512244" lon="9.198114324326845"><ele>103.0</ele><time>2026-03-29T07:47:32Z</time></trkpt><trkpt lat="45.391586892267654" lon="9.197774538165362"><ele>103.0</ele><time>2026-03-29T07:47:33Z</time></trkpt><trkpt lat="45.391581712812034" lon="9.197440325602097"><ele>101.5</ele><time>2026-03-29T07:47:34Z</time></trkpt><trkpt lat="45.39157353260744" lon="9.197100745644152"><ele>100.0</ele><time>2026-03-29T07:47:35Z</time></trkpt><trkpt lat="45.39156390598624" lon="9.19676351864958"><ele>100.0</ele><time>2026-03-29T07:47:36Z</time></trkpt><trkpt lat="45.39155449721456" lon="9.196428353146885"><ele>100.0</ele><time>2026-03-29T07:47:37Z</time></trkpt><trkpt lat="45.39154378248266" lon="9.196085828283158"><ele>100.0</ele><time>2026-03-29T07:47:38Z</time></trkpt><trkpt lat="45.39152877001123" lon="9.195746716844313"><ele>100.0</ele><time>2026-03-29T07:47:39Z</time></trkpt><trkpt lat="45.39151189037808" lon="9.195405273473597"><ele>100.0</ele><time>2026-03-29T07:47:40Z</time></trkpt><trkpt lat="45.39149226391171" lon="9.195065964974384"><ele>100.0</ele><time>2026-03-29T07:47:41Z</time></trkpt><trkpt lat="45.391474024243564" lon="9.194721108206066"><ele>100.5</ele><time>2026-03-29T07:47:42Z</time></trkpt><trkpt lat="45.391454740745026" lon="9.194380561405808"><ele>101.0</ele><time>2026-03-29T07:47:43Z</time></trkpt><trkpt lat="45.391436138772164" lon="9.194042495907237"><ele>101.0</ele><time>2026-03-29T07:47:44Z</time></trkpt><trkpt lat="45.39141674847184" lon="9.193698343446005"><ele>101.0</ele><time>2026-03-29T07:47:45Z</time></trkpt><trkpt lat="45.39139239105044" lon="9.19335575241729"><ele>101.0</ele><time>2026-03-29T07:47:46Z</time></trkpt><trkpt lat="45.39136747378968" lon="9.193013511675765"><ele>101.0</ele><time>2026-03-29T07:47:47Z</time></trkpt><trkpt lat="45.39133711785164" lon="9.192677118849181"><ele>100.0</ele><time>2026-03-29T07:47:48Z</time></trkpt><trkpt lat="45.391305220355584" lon="9.192339687797338"><ele>99.0</ele><time>2026-03-29T07:47:49Z</time></trkpt><trkpt lat="45.39127027243388" lon="9.192007697972143"><ele>99.0</ele><time>2026-03-29T07:47:50Z</time></trkpt><trkpt lat="45.391232367589566" lon="9.191676395166995"><ele>99.0</ele><time>2026-03-29T07:47:51Z</time></trkpt><trkpt lat="45.391195175589814" lon="9.19134722384391"><ele>99.5</ele><time>2026-03-29T07:47:52Z</time></trkpt><trkpt lat="45.39115696712777" lon="9.19101512808258"><ele>100.0</ele><time>2026-03-29T07:47:53Z</time></trkpt><trkpt lat="45.39111398850664" lon="9.190682497496365"><ele>100.0</ele><time>2026-03-29T07:47:54Z</time></trkpt><trkpt lat="45.39107022744143" lon="9.190355675554514"><ele>100.0</ele><time>2026-03-29T07:47:55Z</time></trkpt><trkpt lat="45.39102484067485" lon="9.190025574255408"><ele>101.5</ele><time>2026-03-29T07:47:56Z</time></trkpt><trkpt lat="45.39097853085826" lon="9.189692177609347"><ele>103.0</ele><time>2026-03-29T07:47:57Z</time></trkpt><trkpt lat="45.39092909331764" lon="9.189358828469691"><ele>103.0</ele><time>2026-03-29T07:47:58Z</time></trkpt><trkpt lat="45.39087904158453" lon="9.189033291047378"><ele>103.0</ele><time>2026-03-29T07:47:59Z</time></trkpt><trkpt lat="45.39082447197728" lon="9.188701812996037"><ele>103.0</ele><time>2026-03-29T07:48:00Z</time></trkpt><trkpt lat="45.390767866638015" lon="9.188370357989205"><ele>103.0</ele><time>2026-03-29T07:48:01Z</time></trkpt><trkpt lat="45.39071298562897" lon="9.188040268081162"><ele>102.0</ele><time>2026-03-29T07:48:02Z</time></trkpt><trkpt lat="45.39065481768578" lon="9.18771221322368"><ele>101.0</ele><time>2026-03-29T07:48:03Z</time></trkpt><trkpt lat="45.39059391047019" lon="9.187382733424052"><ele>101.5</ele><time>2026-03-29T07:48:04Z</time></trkpt><trkpt lat="45.390530811661186" lon="9.187060652779843"><ele>102.0</ele><time>2026-03-29T07:48:05Z</time></trkpt><trkpt lat="45.39046594075939" lon="9.186741969856937"><ele>101.5</ele><time>2026-03-29T07:48:06Z</time></trkpt><trkpt lat="45.390397584020846" lon="9.186420675354263"><ele>101.0</ele><time>2026-03-29T07:48:07Z</time></trkpt><trkpt lat="45.390330650191984" lon="9.186105961169314"><ele>101.0</ele><time>2026-03-29T07:48:08Z</time></trkpt><trkpt lat="45.390260871489325" lon="9.185791509832947"><ele>101.0</ele><time>2026-03-29T07:48:09Z</time></trkpt><trkpt lat="45.390186775126885" lon="9.18547282443591"><ele>101.0</ele><time>2026-03-29T07:48:10Z</time></trkpt><trkpt lat="45.390115236955694" lon="9.185156185652792"><ele>101.0</ele><time>2026-03-29T07:48:11Z</time></trkpt><trkpt lat="45.390043435708236" lon="9.184836144544136"><ele>101.0</ele><time>2026-03-29T07:48:12Z</time></trkpt><trkpt lat="45.38996444093279" lon="9.184514540564786"><ele>101.0</ele><time>2026-03-29T07:48:13Z</time></trkpt><trkpt lat="45.389881771445445" lon="9.184191242885092"><ele>101.5</ele><time>2026-03-29T07:48:14Z</time></trkpt><trkpt lat="45.3897980566011" lon="9.18386923991677"><ele>102.0</ele><time>2026-03-29T07:48:15Z</time></trkpt><trkpt lat="45.38971429729913" lon="9.183552929794002"><ele>102.0</ele><time>2026-03-29T07:48:16Z</time></trkpt><trkpt lat="45.38962791519432" lon="9.183236448681834"><ele>102.0</ele><time>2026-03-29T07:48:17Z</time></trkpt><trkpt lat="45.38953849919712" lon="9.182918752042001"><ele>102.5</ele><time>2026-03-29T07:48:18Z</time></trkpt><trkpt lat="45.389451432423705" lon="9.182602208754895"><ele>103.0</ele><time>2026-03-29T07:48:19Z</time></trkpt><trkpt lat="45.38935766916713" lon="9.182282419395095"><ele>103.5</ele><time>2026-03-29T07:48:20Z</time></trkpt><trkpt lat="45.38926202101876" lon="9.181965025956604"><ele>104.0</ele><time>2026-03-29T07:48:21Z</time></trkpt><trkpt lat="45.389167500907824" lon="9.181648880928174"><ele>103.5</ele><time>2026-03-29T07:48:22Z</time></trkpt><trkpt lat="45.389066202988616" lon="9.181335071552551"><ele>103.0</ele><time>2026-03-29T07:48:23Z</time></trkpt><trkpt lat="45.38896626937072" lon="9.181012113373052"><ele>103.0</ele><time>2026-03-29T07:48:24Z</time></trkpt><trkpt lat="45.388860465041226" lon="9.18070672033161"><ele>103.0</ele><time>2026-03-29T07:48:25Z</time></trkpt><trkpt lat="45.388761465758186" lon="9.18039735056022"><ele>102.5</ele><time>2026-03-29T07:48:26Z</time></trkpt><trkpt lat="45.388658767638624" lon="9.180085855576477"><ele>102.0</ele><time>2026-03-29T07:48:27Z</time></trkpt><trkpt lat="45.38854969889306" lon="9.179772190303142"><ele>102.0</ele><time>2026-03-29T07:48:28Z</time></trkpt><trkpt lat="45.38843593804212" lon="9.179460161610047"><ele>102.0</ele><time>2026-03-29T07:48:29Z</time></trkpt><trkpt lat="45.38832534596749" lon="9.179149488040155"><ele>102.5</ele><time>2026-03-29T07:48:30Z</time></trkpt><trkpt lat="45.38821131061697" lon="9.178839581242054"><ele>103.0</ele><time>2026-03-29T07:48:31Z</time></trkpt><trkpt lat="45.38809507821591" lon="9.178531116170943"><ele>103.0</ele><time>2026-03-29T07:48:32Z</time></trkpt><trkpt lat="45.387978295371866" lon="9.178221737134962"><ele>103.0</ele><time>2026-03-29T07:48:33Z</time></trkpt><trkpt lat="45.3878584189804" lon="9.177915574745825"><ele>103.0</ele><time>2026-03-29T07:48:34Z</time></trkpt><trkpt lat="45.38774105075426" lon="9.177610281919987"><ele>103.0</ele><time>2026-03-29T07:48:35Z</time></trkpt><trkpt lat="45.387624468534554" lon="9.177309981086111"><ele>103.5</ele><time>2026-03-29T07:48:36Z</time></trkpt><trkpt lat="45.3875025984316" lon="9.177007541128809"><ele>104.0</ele><time>2026-03-29T07:48:37Z</time></trkpt><trkpt lat="45.38738500331456" lon="9.176709838054485"><ele>103.5</ele><time>2026-03-29T07:48:38Z</time></trkpt><trkpt lat="45.3872731624706" lon="9.176409350112964"><ele>103.0</ele><time>2026-03-29T07:48:39Z</time></trkpt><trkpt lat="45.38716363929315" lon="9.17610914179272"><ele>102.0</ele><time>2026-03-29T07:48:40Z</time></trkpt><trkpt lat="45.3870572376055" lon="9.175805524429547"><ele>101.0</ele><time>2026-03-29T07:48:41Z</time></trkpt><trkpt lat="45.38695992293553" lon="9.175497600571475"><ele>100.5</ele><time>2026-03-29T07:48:42Z</time></trkpt><trkpt lat="45.38687298442711" lon="9.175188207444013"><ele>100.0</ele><time>2026-03-29T07:48:43Z</time></trkpt><trkpt lat="45.386788695060325" lon="9.174879252297156"><ele>100.5</ele><time>2026-03-29T07:48:44Z</time></trkpt><trkpt lat="45.386712688065806" lon="9.1745648438879"><ele>101.0</ele><time>2026-03-29T07:48:45Z</time></trkpt><trkpt lat="45.38663862632898" lon="9.174248233694824"><ele>101.0</ele><time>2026-03-29T07:48:46Z</time></trkpt><trkpt lat="45.386573141541135" lon="9.17392912501524"><ele>101.0</ele><time>2026-03-29T07:48:47Z</time></trkpt><trkpt lat="45.38651426168444" lon="9.1736084921183"><ele>101.0</ele><time>2026-03-29T07:48:48Z</time></trkpt><trkpt lat="45.38646306838494" lon="9.173294646605278"><ele>101.0</ele><time>2026-03-29T07:48:49Z</time></trkpt><trkpt lat="45.386414240825836" lon="9.172982978071586"><ele>101.0</ele><time>2026-03-29T07:48:50Z</time></trkpt><trkpt lat="45.386374785951894" lon="9.172668534128567"><ele>101.0</ele><time>2026-03-29T07:48:51Z</time></trkpt><trkpt lat="45.386338548021854" lon="9.172345808182824"><ele>101.0</ele><time>2026-03-29T07:48:52Z</time></trkpt><trkpt lat="45.38630787452115" lon="9.172022853784787"><ele>101.0</ele><time>2026-03-29T07:48:53Z</time></trkpt><trkpt lat="45.38628274544874" lon="9.171699171997437"><ele>102.5</ele><time>2026-03-29T07:48:54Z</time></trkpt><trkpt lat="45.38626468098665" lon="9.171375150412379"><ele>104.0</ele><time>2026-03-29T07:48:55Z</time></trkpt><trkpt lat="45.38625142674699" lon="9.171057303606029"><ele>104.0</ele><time>2026-03-29T07:48:56Z</time></trkpt><trkpt lat="45.38624405336277" lon="9.170725000161664"><ele>104.0</ele><time>2026-03-29T07:48:57Z</time></trkpt><trkpt lat="45.38624392554915" lon="9.170398465464594"><ele>104.0</ele><time>2026-03-29T07:48:58Z</time></trkpt><trkpt lat="45.38625004753355" lon="9.170071389667873"><ele>104.0</ele><time>2026-03-29T07:48:59Z</time></trkpt><trkpt lat="45.38625898866076" lon="9.169736521002346"><ele>104.0</ele><time>2026-03-29T07:49:00Z</time></trkpt><trkpt lat="45.38627594889104" lon="9.169406441054777"><ele>104.0</ele><time>2026-03-29T07:49:01Z</time></trkpt><trkpt lat="45.38630233008687" lon="9.169073837852642"><ele>102.5</ele><time>2026-03-29T07:49:02Z</time></trkpt><trkpt lat="45.386333978556415" lon="9.16874344976918"><ele>101.0</ele><time>2026-03-29T07:49:03Z</time></trkpt><trkpt lat="45.38636991245627" lon="9.16841226218166"><ele>99.5</ele><time>2026-03-29T07:49:04Z</time></trkpt><trkpt lat="45.386411552823766" lon="9.16807964365567"><ele>98.0</ele><time>2026-03-29T07:49:05Z</time></trkpt><trkpt lat="45.386458746064264" lon="9.16775214123659"><ele>98.0</ele><time>2026-03-29T07:49:06Z</time></trkpt><trkpt lat="45.38651401829123" lon="9.167422622944517"><ele>98.0</ele><time>2026-03-29T07:49:07Z</time></trkpt><trkpt lat="45.386577246033546" lon="9.16710397567744"><ele>98.0</ele><time>2026-03-29T07:49:08Z</time></trkpt><trkpt lat="45.38664516839414" lon="9.166782044988484"><ele>98.0</ele><time>2026-03-29T07:49:09Z</time></trkpt><trkpt lat="45.38671817338809" lon="9.166467075375495"><ele>98.5</ele><time>2026-03-29T07:49:10Z</time></trkpt><trkpt lat="45.386796056222295" lon="9.166149809340965"><ele>99.0</ele><time>2026-03-29T07:49:11Z</time></trkpt><trkpt lat="45.38687919759206" lon="9.16584178230417"><ele>100.0</ele><time>2026-03-29T07:49:12Z</time></trkpt><trkpt lat="45.386968329246486" lon="9.1655380779007"><ele>101.0</ele><time>2026-03-29T07:49:13Z</time></trkpt><trkpt lat="45.38706441711225" lon="9.165234613463483"><ele>101.0</ele><time>2026-03-29T07:49:14Z</time></trkpt><trkpt lat="45.387165310302926" lon="9.164943881808892"><ele>101.0</ele><time>2026-03-29T07:49:15Z</time></trkpt><trkpt lat="45.3872675209206" lon="9.164650164744803"><ele>101.5</ele><time>2026-03-29T07:49:16Z</time></trkpt><trkpt lat="45.38737234094406" lon="9.164355039753609"><ele>102.0</ele><time>2026-03-29T07:49:17Z</time></trkpt><trkpt lat="45.38747551348888" lon="9.16406240369701"><ele>101.5</ele><time>2026-03-29T07:49:18Z</time></trkpt><trkpt lat="45.38758363915384" lon="9.163763537255173"><ele>101.0</ele><time>2026-03-29T07:49:19Z</time></trkpt><trkpt lat="45.387691493968724" lon="9.163464907815479"><ele>101.5</ele><time>2026-03-29T07:49:20Z</time></trkpt><trkpt lat="45.38779814759612" lon="9.163165346258458"><ele>102.0</ele><time>2026-03-29T07:49:21Z</time></trkpt><trkpt lat="45.38790188679479" lon="9.162869876642416"><ele>102.0</ele><time>2026-03-29T07:49:22Z</time></trkpt><trkpt lat="45.38800570628621" lon="9.16257165607669"><ele>102.0</ele><time>2026-03-29T07:49:23Z</time></trkpt><trkpt lat="45.388110227040656" lon="9.162269106992232"><ele>101.5</ele><time>2026-03-29T07:49:24Z</time></trkpt><trkpt lat="45.38821451773519" lon="9.161969253538507"><ele>101.0</ele><time>2026-03-29T07:49:25Z</time></trkpt><trkpt lat="45.3883224145611" lon="9.161660061556374"><ele>101.0</ele><time>2026-03-29T07:49:26Z</time></trkpt><trkpt lat="45.38842986350796" lon="9.161349927707807"><ele>101.0</ele><time>2026-03-29T07:49:27Z</time></trkpt><trkpt lat="45.388539466356136" lon="9.161039503829825"><ele>101.0</ele><time>2026-03-29T07:49:28Z</time></trkpt><trkpt lat="45.38864965649066" lon="9.160731370071561"><ele>101.0</ele><time>2026-03-29T07:49:29Z</time></trkpt><trkpt lat="45.388760075933156" lon="9.160419706844422"><ele>101.5</ele><time>2026-03-29T07:49:30Z</time></trkpt><trkpt lat="45.388866528544355" lon="9.160112688606958"><ele>102.0</ele><time>2026-03-29T07:49:31Z</time></trkpt><trkpt lat="45.38897122131844" lon="9.159810665280373"><ele>102.0</ele><time>2026-03-29T07:49:32Z</time></trkpt><trkpt lat="45.389072811532344" lon="9.159512218286533"><ele>102.0</ele><time>2026-03-29T07:49:33Z</time></trkpt><trkpt lat="45.38917613720784" lon="9.159215114931149"><ele>103.0</ele><time>2026-03-29T07:49:34Z</time></trkpt><trkpt lat="45.389278025914386" lon="9.15892195732591"><ele>104.0</ele><time>2026-03-29T07:49:35Z</time></trkpt><trkpt lat="45.38938095701858" lon="9.158627606553805"><ele>104.0</ele><time>2026-03-29T07:49:36Z</time></trkpt><trkpt lat="45.38948358120422" lon="9.15833411227307"><ele>104.0</ele><time>2026-03-29T07:49:37Z</time></trkpt><trkpt lat="45.38958779009833" lon="9.158039252750154"><ele>104.0</ele><time>2026-03-29T07:49:38Z</time></trkpt><trkpt lat="45.389687751500965" lon="9.157755515691779"><ele>104.0</ele><time>2026-03-29T07:49:39Z</time></trkpt><trkpt lat="45.389790714224524" lon="9.15746131455773"><ele>103.5</ele><time>2026-03-29T07:49:40Z</time></trkpt><trkpt lat="45.389895906088704" lon="9.157155175760627"><ele>103.0</ele><time>2026-03-29T07:49:41Z</time></trkpt><trkpt lat="45.39000499062534" lon="9.15685307857204"><ele>103.5</ele><time>2026-03-29T07:49:42Z</time></trkpt><trkpt lat="45.39010957856154" lon="9.156523859322641"><ele>104.0</ele><time>2026-03-29T07:49:43Z</time></trkpt><trkpt lat="45.39021847798362" lon="9.156210500363672"><ele>104.0</ele><time>2026-03-29T07:49:44Z</time></trkpt><trkpt lat="45.39032510567643" lon="9.155899303181018"><ele>104.0</ele><time>2026-03-29T07:49:45Z</time></trkpt><trkpt lat="45.390434500301836" lon="9.155593689763382"><ele>105.0</ele><time>2026-03-29T07:49:46Z</time></trkpt><trkpt lat="45.39054441335961" lon="9.155294834195116"><ele>106.0</ele><time>2026-03-29T07:49:47Z</time></trkpt><trkpt lat="45.39065094638545" lon="9.155009671779471"><ele>107.0</ele><time>2026-03-29T07:49:48Z</time></trkpt><trkpt lat="45.39075875961815" lon="9.15471970073511"><ele>108.0</ele><time>2026-03-29T07:49:49Z</time></trkpt><trkpt lat="45.390864044470646" lon="9.154429921610188"><ele>108.0</ele><time>2026-03-29T07:49:50Z</time></trkpt><trkpt lat="45.39097041334806" lon="9.154140529000124"><ele>108.0</ele><time>2026-03-29T07:49:51Z</time></trkpt><trkpt lat="45.391074830767934" lon="9.153855755874776"><ele>107.33333333333334</ele><time>2026-03-29T07:49:52Z</time></trkpt><trkpt lat="45.391177890357696" lon="9.15357227892215"><ele>106.66666666666667</ele><time>2026-03-29T07:49:53Z</time></trkpt><trkpt lat="45.391275115558464" lon="9.153297986618963"><ele>106.0</ele><time>2026-03-29T07:49:54Z</time></trkpt><trkpt lat="45.39136941488013" lon="9.153034716202447"><ele>106.0</ele><time>2026-03-29T07:49:55Z</time></trkpt><trkpt lat="45.39146401821496" lon="9.152765997981984"><ele>106.0</ele><time>2026-03-29T07:49:56Z</time></trkpt><trkpt lat="45.39155881998042" lon="9.15249551727092"><ele>106.0</ele><time>2026-03-29T07:49:57Z</time></trkpt><trkpt lat="45.39165389138927" lon="9.152228309151608"><ele>105.66666666666667</ele><time>2026-03-29T07:49:58Z</time></trkpt><trkpt lat="45.39174986746798" lon="9.15195718635805"><ele>105.33333333333334</ele><time>2026-03-29T07:49:59Z</time></trkpt><trkpt lat="45.39184345529962" lon="9.151692190058306"><ele>105.0</ele><time>2026-03-29T07:50:00Z</time></trkpt><trkpt lat="45.39193794365882" lon="9.151424434331993"><ele>105.66666666666666</ele><time>2026-03-29T07:50:01Z</time></trkpt><trkpt lat="45.39203216962581" lon="9.151157801932003"><ele>106.33333333333333</ele><time>2026-03-29T07:50:02Z</time></trkpt><trkpt lat="45.39212568182447" lon="9.150892470855801"><ele>107.0</ele><time>2026-03-29T07:50:03Z</time></trkpt><trkpt lat="45.39221747710096" lon="9.150631987468147"><ele>107.0</ele><time>2026-03-29T07:50:04Z</time></trkpt><trkpt lat="45.392309588595126" lon="9.150367841018907"><ele>107.0</ele><time>2026-03-29T07:50:05Z</time></trkpt><trkpt lat="45.39240309116306" lon="9.150103587226527"><ele>107.0</ele><time>2026-03-29T07:50:06Z</time></trkpt><trkpt lat="45.392497631822486" lon="9.14983822775536"><ele>106.66666666666666</ele><time>2026-03-29T07:50:07Z</time></trkpt><trkpt lat="45.39258732717525" lon="9.149587708962772"><ele>106.33333333333334</ele><time>2026-03-29T07:50:08Z</time></trkpt><trkpt lat="45.39267568363089" lon="9.149329915050973"><ele>106.0</ele><time>2026-03-29T07:50:09Z</time></trkpt><trkpt lat="45.392765968863436" lon="9.149083066088227"><ele>107.33333333333334</ele><time>2026-03-29T07:50:10Z</time></trkpt><trkpt lat="45.392860833925596" lon="9.148830653992517"><ele>108.66666666666666</ele><time>2026-03-29T07:50:11Z</time></trkpt><trkpt lat="45.39295193295286" lon="9.148585498972464"><ele>110.0</ele><time>2026-03-29T07:50:12Z</time></trkpt><trkpt lat="45.393036641624455" lon="9.14835311279675"><ele>109.0</ele><time>2026-03-29T07:50:13Z</time></trkpt><trkpt lat="45.39311999276064" lon="9.148122048846119"><ele>108.0</ele><time>2026-03-29T07:50:14Z</time></trkpt><trkpt lat="45.3932000392684" lon="9.147902358266709"><ele>107.0</ele><time>2026-03-29T07:50:15Z</time></trkpt><trkpt lat="45.39327918637095" lon="9.147682050893392"><ele>107.0</ele><time>2026-03-29T07:50:16Z</time></trkpt><trkpt lat="45.39335558462426" lon="9.14746877202023"><ele>107.0</ele><time>2026-03-29T07:50:17Z</time></trkpt><trkpt lat="45.393431490737825" lon="9.14726469039938"><ele>107.0</ele><time>2026-03-29T07:50:18Z</time></trkpt><trkpt lat="45.3935030457218" lon="9.147070916835606"><ele>107.25</ele><time>2026-03-29T07:50:19Z</time></trkpt><trkpt lat="45.39357456236433" lon="9.146881837680166"><ele>107.5</ele><time>2026-03-29T07:50:20Z</time></trkpt><trkpt lat="45.393645959470774" lon="9.146696029554041"><ele>107.75</ele><time>2026-03-29T07:50:21Z</time></trkpt><trkpt lat="45.39371635424984" lon="9.146509915140761"><ele>108.0</ele><time>2026-03-29T07:50:22Z</time></trkpt><trkpt lat="45.39378056508393" lon="9.146333038929892"><ele>107.25</ele><time>2026-03-29T07:50:23Z</time></trkpt><trkpt lat="45.3938428865676" lon="9.146153482916471"><ele>106.5</ele><time>2026-03-29T07:50:24Z</time></trkpt><trkpt lat="45.39390703542316" lon="9.145977870876987"><ele>105.75</ele><time>2026-03-29T07:50:25Z</time></trkpt><trkpt lat="45.393964513216304" lon="9.145815028719731"><ele>105.0</ele><time>2026-03-29T07:50:26Z</time></trkpt><trkpt lat="45.394023491515924" lon="9.145646905224725"><ele>105.0</ele><time>2026-03-29T07:50:27Z</time></trkpt><trkpt lat="45.39408384755191" lon="9.145476206913786"><ele>105.0</ele><time>2026-03-29T07:50:28Z</time></trkpt><trkpt lat="45.394145780722184" lon="9.145299462127634"><ele>105.0</ele><time>2026-03-29T07:50:29Z</time></trkpt><trkpt lat="45.39421220200667" lon="9.145116205988318"><ele>105.0</ele><time>2026-03-29T07:50:30Z</time></trkpt><trkpt lat="45.39428634599141" lon="9.144919256010445"><ele>105.66666666666666</ele><time>2026-03-29T07:50:31Z</time></trkpt><trkpt lat="45.39436210274177" lon="9.144718998238398"><ele>106.33333333333333</ele><time>2026-03-29T07:50:32Z</time></trkpt><trkpt lat="45.39443762883915" lon="9.144514911313685"><ele>107.0</ele><time>2026-03-29T07:50:33Z</time></trkpt><trkpt lat="45.3945138542899" lon="9.144303382492353"><ele>107.0</ele><time>2026-03-29T07:50:34Z</time></trkpt><trkpt lat="45.394589892884035" lon="9.14408395033411"><ele>107.0</ele><time>2026-03-29T07:50:35Z</time></trkpt><trkpt lat="45.39466835971021" lon="9.143866543207237"><ele>107.0</ele><time>2026-03-29T07:50:36Z</time></trkpt><trkpt lat="45.39474124455456" lon="9.143660882350897"><ele>106.75</ele><time>2026-03-29T07:50:37Z</time></trkpt><trkpt lat="45.3948078679164" lon="9.143473731916387"><ele>106.5</ele><time>2026-03-29T07:50:38Z</time></trkpt><trkpt lat="45.39487116834554" lon="9.14329443948774"><ele>106.25</ele><time>2026-03-29T07:50:39Z</time></trkpt><trkpt lat="45.39493998138381" lon="9.143094145951903"><ele>106.0</ele><time>2026-03-29T07:50:40Z</time></trkpt><trkpt lat="45.395014710935186" lon="9.142874447627628"><ele>106.0</ele><time>2026-03-29T07:50:41Z</time></trkpt><trkpt lat="45.395087002231946" lon="9.142660432886707"><ele>106.0</ele><time>2026-03-29T07:50:42Z</time></trkpt><trkpt lat="45.39515608833614" lon="9.142456277439752"><ele>106.0</ele><time>2026-03-29T07:50:43Z</time></trkpt><trkpt lat="45.395224195843454" lon="9.142261060013833"><ele>105.75</ele><time>2026-03-29T07:50:44Z</time></trkpt><trkpt lat="45.39529035836137" lon="9.142077892671603"><ele>105.5</ele><time>2026-03-29T07:50:45Z</time></trkpt><trkpt lat="45.39535142008583" lon="9.141907516490715"><ele>105.25</ele><time>2026-03-29T07:50:46Z</time></trkpt><trkpt lat="45.395406052483516" lon="9.141756876506017"><ele>105.0</ele><time>2026-03-29T07:50:47Z</time></trkpt><trkpt lat="45.39546073989103" lon="9.141606336031307"><ele>105.5</ele><time>2026-03-29T07:50:48Z</time></trkpt><trkpt lat="45.39551319611252" lon="9.141458027125514"><ele>106.0</ele><time>2026-03-29T07:50:49Z</time></trkpt><trkpt lat="45.39556307378301" lon="9.141313833938554"><ele>106.5</ele><time>2026-03-29T07:50:50Z</time></trkpt><trkpt lat="45.395615684664044" lon="9.141167522937131"><ele>107.0</ele><time>2026-03-29T07:50:51Z</time></trkpt><trkpt lat="45.395664987915666" lon="9.141025889753012"><ele>107.0</ele><time>2026-03-29T07:50:52Z</time></trkpt><trkpt lat="45.39571448548282" lon="9.140887505440189"><ele>106.99999999999999</ele><time>2026-03-29T07:50:53Z</time></trkpt><trkpt lat="45.395764624969964" lon="9.14075587138762"><ele>106.99999999999999</ele><time>2026-03-29T07:50:54Z</time></trkpt><trkpt lat="45.395816230258575" lon="9.140635468520625"><ele>107.0</ele><time>2026-03-29T07:50:55Z</time></trkpt><trkpt lat="45.39587789736538" lon="9.140517970782808"><ele>107.0</ele><time>2026-03-29T07:50:56Z</time></trkpt><trkpt lat="45.39595211492997" lon="9.140411481828139"><ele>107.0</ele><time>2026-03-29T07:50:57Z</time></trkpt><trkpt lat="45.39604046989872" lon="9.140314167360415"><ele>107.0</ele><time>2026-03-29T07:50:58Z</time></trkpt><trkpt lat="45.39614500324468" lon="9.1402231321921"><ele>107.0</ele><time>2026-03-29T07:50:59Z</time></trkpt><trkpt lat="45.39625734887286" lon="9.140154039897753"><ele>107.0</ele><time>2026-03-29T07:51:00Z</time></trkpt><trkpt lat="45.3963737561201" lon="9.140109601317006"><ele>107.0</ele><time>2026-03-29T07:51:01Z</time></trkpt><trkpt lat="45.39648292170846" lon="9.14010498866833"><ele>106.99999999999999</ele><time>2026-03-29T07:51:02Z</time></trkpt><trkpt lat="45.39659255496474" lon="9.140135104339866"><ele>106.99999999999999</ele><time>2026-03-29T07:51:03Z</time></trkpt><trkpt lat="45.3966928378259" lon="9.140204905301037"><ele>107.0</ele><time>2026-03-29T07:51:04Z</time></trkpt><trkpt lat="45.396776609739625" lon="9.140312110587006"><ele>107.0</ele><time>2026-03-29T07:51:05Z</time></trkpt><trkpt lat="45.39683853608391" lon="9.14044049239642"><ele>107.0</ele><time>2026-03-29T07:51:06Z</time></trkpt><trkpt lat="45.39687954264486" lon="9.140585661554718"><ele>106.99999999999999</ele><time>2026-03-29T07:51:07Z</time></trkpt><trkpt lat="45.39687594956097" lon="9.140734418616743"><ele>106.99999999999999</ele><time>2026-03-29T07:51:08Z</time></trkpt><trkpt lat="45.39688157172233" lon="9.14088087701563"><ele>107.0</ele><time>2026-03-29T07:51:09Z</time></trkpt><trkpt lat="45.3968502210963" lon="9.141021708270044"><ele>107.0</ele><time>2026-03-29T07:51:10Z</time></trkpt><trkpt lat="45.39679139930874" lon="9.141146761640009"><ele>106.99999999999999</ele><time>2026-03-29T07:51:11Z</time></trkpt><trkpt lat="45.39671731063599" lon="9.141252971106553"><ele>107.0</ele><time>2026-03-29T07:51:12Z</time></trkpt><trkpt lat="45.396635937405954" lon="9.141325304244143"><ele>107.0</ele><time>2026-03-29T07:51:13Z</time></trkpt><trkpt lat="45.39654819109111" lon="9.141363247072375"><ele>107.0</ele><time>2026-03-29T07:51:14Z</time></trkpt><trkpt lat="45.396471989795145" lon="9.141405450809772"><ele>106.99999999999999</ele><time>2026-03-29T07:51:15Z</time></trkpt><trkpt lat="45.3964098075403" lon="9.141434316203524"><ele>107.0</ele><time>2026-03-29T07:51:16Z</time></trkpt><trkpt lat="45.39630280086687" lon="9.141476024601513"><ele>106.99999999999999</ele><time>2026-03-29T07:51:18Z</time></trkpt><trkpt lat="45.39620591196781" lon="9.141461703816535"><ele>107.0</ele><time>2026-03-29T07:51:20Z</time></trkpt><trkpt lat="45.39613998436702" lon="9.141479371542289"><ele>107.0</ele><time>2026-03-29T07:51:22Z</time></trkpt><trkpt lat="45.39604236391229" lon="9.14147666174522"><ele>107.0</ele><time>2026-03-29T07:51:24Z</time></trkpt><trkpt lat="45.39597389706787" lon="9.141419668116695"><ele>106.99999999999999</ele><time>2026-03-29T07:51:25Z</time></trkpt><trkpt lat="45.39589464107571" lon="9.141399326254486"><ele>107.0</ele><time>2026-03-29T07:51:26Z</time></trkpt><trkpt lat="45.39581406792146" lon="9.141371284190175"><ele>107.0</ele><time>2026-03-29T07:51:27Z</time></trkpt><trkpt lat="45.39571904177653" lon="9.141331095876106"><ele>106.99999999999999</ele><time>2026-03-29T07:51:28Z</time></trkpt><trkpt lat="45.39561481966637" lon="9.14128456716805"><ele>106.99999999999999</ele><time>2026-03-29T07:51:29Z</time></trkpt><trkpt lat="45.395502974355814" lon="9.141235063773347"><ele>107.0</ele><time>2026-03-29T07:51:30Z</time></trkpt><trkpt lat="45.395388628205204" lon="9.1411878232587"><ele>107.0</ele><time>2026-03-29T07:51:31Z</time></trkpt><trkpt lat="45.395272948545546" lon="9.141141445083788"><ele>106.5</ele><time>2026-03-29T07:51:32Z</time></trkpt><trkpt lat="45.395165388357995" lon="9.141097592170754"><ele>106.0</ele><time>2026-03-29T07:51:33Z</time></trkpt><trkpt lat="45.39504019759889" lon="9.14104994353362"><ele>105.5</ele><time>2026-03-29T07:51:34Z</time></trkpt><trkpt lat="45.39490636971552" lon="9.140985662189111"><ele>105.0</ele><time>2026-03-29T07:51:35Z</time></trkpt><trkpt lat="45.3947675304111" lon="9.140923189970703"><ele>104.66666666666666</ele><time>2026-03-29T07:51:36Z</time></trkpt><trkpt lat="45.39462328276645" lon="9.14086006885067"><ele>104.33333333333333</ele><time>2026-03-29T07:51:37Z</time></trkpt><trkpt lat="45.39448022876819" lon="9.140797545270603"><ele>104.0</ele><time>2026-03-29T07:51:38Z</time></trkpt><trkpt lat="45.394334595315705" lon="9.140732879935825"><ele>103.66666666666666</ele><time>2026-03-29T07:51:39Z</time></trkpt><trkpt lat="45.39418623443162" lon="9.140666237385394"><ele>103.33333333333334</ele><time>2026-03-29T07:51:40Z</time></trkpt><trkpt lat="45.39404001915621" lon="9.140602681653125"><ele>103.0</ele><time>2026-03-29T07:51:41Z</time></trkpt><trkpt lat="45.39389968092437" lon="9.140542209906787"><ele>103.33333333333334</ele><time>2026-03-29T07:51:42Z</time></trkpt><trkpt lat="45.39376158572263" lon="9.140481420563265"><ele>103.66666666666666</ele><time>2026-03-29T07:51:43Z</time></trkpt><trkpt lat="45.39361456878267" lon="9.140417253700056"><ele>104.0</ele><time>2026-03-29T07:51:44Z</time></trkpt><trkpt lat="45.393468961470425" lon="9.140353213087742"><ele>104.0</ele><time>2026-03-29T07:51:45Z</time></trkpt><trkpt lat="45.393326816741705" lon="9.140292102970404"><ele>104.0</ele><time>2026-03-29T07:51:46Z</time></trkpt><trkpt lat="45.39318841358828" lon="9.140230509787377"><ele>104.0</ele><time>2026-03-29T07:51:47Z</time></trkpt><trkpt lat="45.39304576234012" lon="9.140168557141294"><ele>104.0</ele><time>2026-03-29T07:51:48Z</time></trkpt><trkpt lat="45.39289698663692" lon="9.140099879858491"><ele>103.66666666666666</ele><time>2026-03-29T07:51:49Z</time></trkpt><trkpt lat="45.392748619945905" lon="9.140035749835546"><ele>103.33333333333334</ele><time>2026-03-29T07:51:50Z</time></trkpt><trkpt lat="45.39259392436864" lon="9.140001659196482"><ele>103.0</ele><time>2026-03-29T07:51:51Z</time></trkpt><trkpt lat="45.39244234227189" lon="9.139927081834351"><ele>103.0</ele><time>2026-03-29T07:51:52Z</time></trkpt><trkpt lat="45.39229795207414" lon="9.139834477296395"><ele>103.0</ele><time>2026-03-29T07:51:53Z</time></trkpt><trkpt lat="45.392154050034684" lon="9.139765672504112"><ele>103.0</ele><time>2026-03-29T07:51:54Z</time></trkpt><trkpt lat="45.392016183305905" lon="9.13970010541571"><ele>102.75</ele><time>2026-03-29T07:51:55Z</time></trkpt><trkpt lat="45.39186696757991" lon="9.13965930025106"><ele>102.5</ele><time>2026-03-29T07:51:56Z</time></trkpt><trkpt lat="45.391727539807206" lon="9.139599542199948"><ele>102.25</ele><time>2026-03-29T07:51:57Z</time></trkpt><trkpt lat="45.391589309077794" lon="9.139541539748361"><ele>102.0</ele><time>2026-03-29T07:51:58Z</time></trkpt><trkpt lat="45.39145034196024" lon="9.13948367653966"><ele>102.25</ele><time>2026-03-29T07:51:59Z</time></trkpt><trkpt lat="45.39131589675775" lon="9.139418410765714"><ele>102.5</ele><time>2026-03-29T07:52:00Z</time></trkpt><trkpt lat="45.391187943760606" lon="9.139336135448495"><ele>102.75</ele><time>2026-03-29T07:52:01Z</time></trkpt><trkpt lat="45.39107540982099" lon="9.139234124095584"><ele>103.0</ele><time>2026-03-29T07:52:02Z</time></trkpt><trkpt lat="45.39095144115341" lon="9.139169759123138"><ele>103.0</ele><time>2026-03-29T07:52:03Z</time></trkpt><trkpt lat="45.39082381757062" lon="9.139103799851997"><ele>103.0</ele><time>2026-03-29T07:52:04Z</time></trkpt><trkpt lat="45.39069446082039" lon="9.139035584237025"><ele>103.0</ele><time>2026-03-29T07:52:05Z</time></trkpt><trkpt lat="45.39056516392838" lon="9.138970082997442"><ele>103.0</ele><time>2026-03-29T07:52:06Z</time></trkpt><trkpt lat="45.3904416926623" lon="9.138907778421423"><ele>103.0</ele><time>2026-03-29T07:52:07Z</time></trkpt><trkpt lat="45.390322295717596" lon="9.138843051073547"><ele>103.0</ele><time>2026-03-29T07:52:08Z</time></trkpt><trkpt lat="45.39021295814171" lon="9.138778209150793"><ele>103.0</ele><time>2026-03-29T07:52:09Z</time></trkpt><trkpt lat="45.39010855627248" lon="9.138716319208434"><ele>103.0</ele><time>2026-03-29T07:52:10Z</time></trkpt><trkpt lat="45.39001967688538" lon="9.138660220042752"><ele>103.00000000000001</ele><time>2026-03-29T07:52:11Z</time></trkpt><trkpt lat="45.38993680768672" lon="9.138610970857266"><ele>103.0</ele><time>2026-03-29T07:52:12Z</time></trkpt><trkpt lat="45.38986012432031" lon="9.138568009175444"><ele>103.0</ele><time>2026-03-29T07:52:13Z</time></trkpt><trkpt lat="45.38979073900991" lon="9.138531831465132"><ele>103.0</ele><time>2026-03-29T07:52:14Z</time></trkpt><trkpt lat="45.38970704296215" lon="9.138488137123268"><ele>103.00000000000001</ele><time>2026-03-29T07:52:16Z</time></trkpt><trkpt lat="45.389641405114794" lon="9.138456812247233"><ele>103.0</ele><time>2026-03-29T07:52:21Z</time></trkpt><trkpt lat="45.38957735840812" lon="9.138427431996808"><ele>103.00000000000001</ele><time>2026-03-29T07:52:24Z</time></trkpt><trkpt lat="45.3894993871906" lon="9.13839581618007"><ele>103.0</ele><time>2026-03-29T07:52:26Z</time></trkpt><trkpt lat="45.38943974738133" lon="9.138357542634118"><ele>103.0</ele><time>2026-03-29T07:52:28Z</time></trkpt><trkpt lat="45.38936192524021" lon="9.138313444617882"><ele>103.0</ele><time>2026-03-29T07:52:30Z</time></trkpt><trkpt lat="45.389266406972546" lon="9.138267035274994"><ele>103.00000000000001</ele><time>2026-03-29T07:52:32Z</time></trkpt><trkpt lat="45.389196070311904" lon="9.13822898707032"><ele>103.0</ele><time>2026-03-29T07:52:33Z</time></trkpt><trkpt lat="45.38912241774057" lon="9.138194132590904"><ele>103.0</ele><time>2026-03-29T07:52:34Z</time></trkpt><trkpt lat="45.38904850325369" lon="9.138152173467867"><ele>103.0</ele><time>2026-03-29T07:52:35Z</time></trkpt><trkpt lat="45.38895773381355" lon="9.138103846503602"><ele>103.0</ele><time>2026-03-29T07:52:36Z</time></trkpt><trkpt lat="45.38884775053079" lon="9.138057934509268"><ele>103.0</ele><time>2026-03-29T07:52:37Z</time></trkpt><trkpt lat="45.38871977257451" lon="9.138011186749017"><ele>103.0</ele><time>2026-03-29T07:52:38Z</time></trkpt><trkpt lat="45.38859996831921" lon="9.137964740563651"><ele>102.75</ele><time>2026-03-29T07:52:39Z</time></trkpt><trkpt lat="45.38848016063817" lon="9.13791886490951"><ele>102.5</ele><time>2026-03-29T07:52:40Z</time></trkpt><trkpt lat="45.388342615517494" lon="9.137874129169822"><ele>102.25</ele><time>2026-03-29T07:52:41Z</time></trkpt><trkpt lat="45.38820202409977" lon="9.137824694971222"><ele>102.0</ele><time>2026-03-29T07:52:42Z</time></trkpt><trkpt lat="45.388051907762794" lon="9.137767936623476"><ele>102.0</ele><time>2026-03-29T07:52:43Z</time></trkpt><trkpt lat="45.38790473867718" lon="9.13770952229612"><ele>102.0</ele><time>2026-03-29T07:52:44Z</time></trkpt><trkpt lat="45.3877656219112" lon="9.137653131639343"><ele>102.0</ele><time>2026-03-29T07:52:45Z</time></trkpt><trkpt lat="45.38761873373849" lon="9.137593348269096"><ele>102.0</ele><time>2026-03-29T07:52:46Z</time></trkpt><trkpt lat="45.387458978024114" lon="9.137521290596723"><ele>102.0</ele><time>2026-03-29T07:52:47Z</time></trkpt><trkpt lat="45.38729788464087" lon="9.137435548784001"><ele>102.0</ele><time>2026-03-29T07:52:48Z</time></trkpt><trkpt lat="45.387133634547354" lon="9.137336677150698"><ele>101.66666666666666</ele><time>2026-03-29T07:52:49Z</time></trkpt><trkpt lat="45.38695593820801" lon="9.137229822060428"><ele>101.33333333333333</ele><time>2026-03-29T07:52:50Z</time></trkpt><trkpt lat="45.38678025820322" lon="9.137124918003186"><ele>101.0</ele><time>2026-03-29T07:52:51Z</time></trkpt><trkpt lat="45.386597559381215" lon="9.137019039347505"><ele>101.0</ele><time>2026-03-29T07:52:52Z</time></trkpt><trkpt lat="45.38639969503987" lon="9.13690618712571"><ele>101.0</ele><time>2026-03-29T07:52:53Z</time></trkpt><trkpt lat="45.38620092800519" lon="9.13678976208366"><ele>101.0</ele><time>2026-03-29T07:52:54Z</time></trkpt><trkpt lat="45.386012999267216" lon="9.136675065805058"><ele>101.0</ele><time>2026-03-29T07:52:55Z</time></trkpt><trkpt lat="45.38582362385097" lon="9.136560716497405"><ele>101.0</ele><time>2026-03-29T07:52:56Z</time></trkpt><trkpt lat="45.38562496991248" lon="9.13644363246918"><ele>101.0</ele><time>2026-03-29T07:52:57Z</time></trkpt><trkpt lat="45.38542027747344" lon="9.13632446762811"><ele>100.33333333333333</ele><time>2026-03-29T07:52:58Z</time></trkpt><trkpt lat="45.385216669776085" lon="9.136201003291683"><ele>99.66666666666666</ele><time>2026-03-29T07:52:59Z</time></trkpt><trkpt lat="45.385007321382716" lon="9.136077939364853"><ele>99.0</ele><time>2026-03-29T07:53:00Z</time></trkpt><trkpt lat="45.38479698732971" lon="9.135952180705027"><ele>99.5</ele><time>2026-03-29T07:53:01Z</time></trkpt><trkpt lat="45.38458191561807" lon="9.135825851795197"><ele>100.0</ele><time>2026-03-29T07:53:02Z</time></trkpt><trkpt lat="45.384364826846934" lon="9.13569712264857"><ele>100.5</ele><time>2026-03-29T07:53:03Z</time></trkpt><trkpt lat="45.384138392781544" lon="9.13556533623551"><ele>101.0</ele><time>2026-03-29T07:53:04Z</time></trkpt><trkpt lat="45.38390875128507" lon="9.135429809518396"><ele>101.0</ele><time>2026-03-29T07:53:05Z</time></trkpt><trkpt lat="45.38367516332223" lon="9.135293258007174"><ele>101.0</ele><time>2026-03-29T07:53:06Z</time></trkpt><trkpt lat="45.383439811598194" lon="9.135155157628198"><ele>101.0</ele><time>2026-03-29T07:53:07Z</time></trkpt><trkpt lat="45.383202935310656" lon="9.135017019641527"><ele>101.0</ele><time>2026-03-29T07:53:08Z</time></trkpt><trkpt lat="45.38296542407158" lon="9.134875294989934"><ele>101.0</ele><time>2026-03-29T07:53:09Z</time></trkpt><trkpt lat="45.382727757749144" lon="9.134734139791385"><ele>101.0</ele><time>2026-03-29T07:53:10Z</time></trkpt><trkpt lat="45.38249060082247" lon="9.134593245028388"><ele>101.0</ele><time>2026-03-29T07:53:11Z</time></trkpt><trkpt lat="45.38225495653797" lon="9.134451079026213"><ele>101.0</ele><time>2026-03-29T07:53:12Z</time></trkpt><trkpt lat="45.38201352049433" lon="9.134307205212092"><ele>101.0</ele><time>2026-03-29T07:53:13Z</time></trkpt><trkpt lat="45.38176888433481" lon="9.134163293852387"><ele>101.0</ele><time>2026-03-29T07:53:14Z</time></trkpt><trkpt lat="45.38152748435759" lon="9.13402062017555"><ele>101.5</ele><time>2026-03-29T07:53:15Z</time></trkpt><trkpt lat="45.38127773000023" lon="9.133877691858402"><ele>102.0</ele><time>2026-03-29T07:53:16Z</time></trkpt><trkpt lat="45.38103715248593" lon="9.133735231458003"><ele>102.0</ele><time>2026-03-29T07:53:17Z</time></trkpt><trkpt lat="45.38079128354081" lon="9.13358806440401"><ele>102.0</ele><time>2026-03-29T07:53:18Z</time></trkpt><trkpt lat="45.38054652866427" lon="9.133444359987372"><ele>102.0</ele><time>2026-03-29T07:53:19Z</time></trkpt><trkpt lat="45.38030195114576" lon="9.133301500393884"><ele>102.0</ele><time>2026-03-29T07:53:20Z</time></trkpt><trkpt lat="45.380058419603905" lon="9.133158252125796"><ele>101.5</ele><time>2026-03-29T07:53:21Z</time></trkpt><trkpt lat="45.37981656756894" lon="9.133014291287974"><ele>101.0</ele><time>2026-03-29T07:53:22Z</time></trkpt><trkpt lat="45.37957846130343" lon="9.132873684017646"><ele>101.0</ele><time>2026-03-29T07:53:23Z</time></trkpt><trkpt lat="45.37933611907826" lon="9.132730869635783"><ele>101.0</ele><time>2026-03-29T07:53:24Z</time></trkpt><trkpt lat="45.379096618702846" lon="9.132589630933762"><ele>101.0</ele><time>2026-03-29T07:53:25Z</time></trkpt><trkpt lat="45.37885371855383" lon="9.132446919094322"><ele>101.0</ele><time>2026-03-29T07:53:26Z</time></trkpt><trkpt lat="45.378612244487066" lon="9.132305187000675"><ele>102.0</ele><time>2026-03-29T07:53:27Z</time></trkpt><trkpt lat="45.37837116939343" lon="9.132161262293055"><ele>103.0</ele><time>2026-03-29T07:53:28Z</time></trkpt><trkpt lat="45.37813314289275" lon="9.132015854280569"><ele>101.5</ele><time>2026-03-29T07:53:29Z</time></trkpt><trkpt lat="45.37788877514968" lon="9.131872461877093"><ele>100.0</ele><time>2026-03-29T07:53:30Z</time></trkpt><trkpt lat="45.377648567306736" lon="9.13172897493979"><ele>100.0</ele><time>2026-03-29T07:53:31Z</time></trkpt><trkpt lat="45.37740938428407" lon="9.131588316916744"><ele>100.0</ele><time>2026-03-29T07:53:32Z</time></trkpt><trkpt lat="45.37716626150348" lon="9.131445675602727"><ele>100.5</ele><time>2026-03-29T07:53:33Z</time></trkpt><trkpt lat="45.37692619420304" lon="9.131303782334253"><ele>101.0</ele><time>2026-03-29T07:53:34Z</time></trkpt><trkpt lat="45.37668472460059" lon="9.131161052811523"><ele>101.0</ele><time>2026-03-29T07:53:35Z</time></trkpt><trkpt lat="45.37644204879957" lon="9.131017331830014"><ele>101.0</ele><time>2026-03-29T07:53:36Z</time></trkpt><trkpt lat="45.37620123533972" lon="9.130874292207267"><ele>100.0</ele><time>2026-03-29T07:53:37Z</time></trkpt><trkpt lat="45.375960010240036" lon="9.130724083209275"><ele>99.0</ele><time>2026-03-29T07:53:38Z</time></trkpt><trkpt lat="45.37572046756563" lon="9.130568140589403"><ele>100.0</ele><time>2026-03-29T07:53:39Z</time></trkpt><trkpt lat="45.37548764393552" lon="9.130407822989941"><ele>101.0</ele><time>2026-03-29T07:53:40Z</time></trkpt><trkpt lat="45.37525291394671" lon="9.130244224485029"><ele>101.0</ele><time>2026-03-29T07:53:41Z</time></trkpt><trkpt lat="45.37502063540555" lon="9.130076346127531"><ele>101.0</ele><time>2026-03-29T07:53:42Z</time></trkpt><trkpt lat="45.374789468264495" lon="9.129902311032273"><ele>102.0</ele><time>2026-03-29T07:53:43Z</time></trkpt><trkpt lat="45.37455908585126" lon="9.129722563975585"><ele>103.0</ele><time>2026-03-29T07:53:44Z</time></trkpt><trkpt lat="45.37432955382123" lon="9.129535508915335"><ele>103.0</ele><time>2026-03-29T07:53:45Z</time></trkpt><trkpt lat="45.37410442515021" lon="9.129342143013591"><ele>103.0</ele><time>2026-03-29T07:53:46Z</time></trkpt><trkpt lat="45.373874955352676" lon="9.12914779309864"><ele>101.0</ele><time>2026-03-29T07:53:47Z</time></trkpt><trkpt lat="45.37364749111639" lon="9.128947177351252"><ele>99.0</ele><time>2026-03-29T07:53:48Z</time></trkpt><trkpt lat="45.37342938764061" lon="9.12874011398659"><ele>99.0</ele><time>2026-03-29T07:53:49Z</time></trkpt><trkpt lat="45.373209068790416" lon="9.128533498636049"><ele>99.0</ele><time>2026-03-29T07:53:50Z</time></trkpt><trkpt lat="45.372989303713055" lon="9.128323330787481"><ele>100.0</ele><time>2026-03-29T07:53:51Z</time></trkpt><trkpt lat="45.37277320045898" lon="9.128115562068889"><ele>101.0</ele><time>2026-03-29T07:53:52Z</time></trkpt><trkpt lat="45.372554377029815" lon="9.127908755363626"><ele>101.0</ele><time>2026-03-29T07:53:53Z</time></trkpt><trkpt lat="45.37233362561383" lon="9.127699217849864"><ele>101.0</ele><time>2026-03-29T07:53:54Z</time></trkpt><trkpt lat="45.37211561717372" lon="9.127493099586113"><ele>100.5</ele><time>2026-03-29T07:53:55Z</time></trkpt><trkpt lat="45.371893215036934" lon="9.12729026930323"><ele>100.0</ele><time>2026-03-29T07:53:56Z</time></trkpt><trkpt lat="45.37167166821254" lon="9.127086651616041"><ele>100.0</ele><time>2026-03-29T07:53:57Z</time></trkpt><trkpt lat="45.37144889957742" lon="9.126882418860683"><ele>100.0</ele><time>2026-03-29T07:53:58Z</time></trkpt><trkpt lat="45.37122885054685" lon="9.126669973388497"><ele>99.0</ele><time>2026-03-29T07:53:59Z</time></trkpt><trkpt lat="45.371012487412884" lon="9.126456126668437"><ele>98.0</ele><time>2026-03-29T07:54:00Z</time></trkpt><trkpt lat="45.37079175282008" lon="9.126244242077496"><ele>98.0</ele><time>2026-03-29T07:54:01Z</time></trkpt><trkpt lat="45.3705706013782" lon="9.12603447837423"><ele>98.0</ele><time>2026-03-29T07:54:02Z</time></trkpt><trkpt lat="45.3703547584268" lon="9.12582345882071"><ele>99.0</ele><time>2026-03-29T07:54:03Z</time></trkpt><trkpt lat="45.37013331346039" lon="9.125614396216992"><ele>100.0</ele><time>2026-03-29T07:54:04Z</time></trkpt><trkpt lat="45.36992014286414" lon="9.125407386569977"><ele>100.0</ele><time>2026-03-29T07:54:05Z</time></trkpt><trkpt lat="45.36970024705142" lon="9.125202422573825"><ele>100.0</ele><time>2026-03-29T07:54:06Z</time></trkpt><trkpt lat="45.36948703601892" lon="9.124999012667494"><ele>100.5</ele><time>2026-03-29T07:54:07Z</time></trkpt><trkpt lat="45.36927417783161" lon="9.124796605662917"><ele>101.0</ele><time>2026-03-29T07:54:08Z</time></trkpt><trkpt lat="45.36906052385403" lon="9.124597776698005"><ele>102.0</ele><time>2026-03-29T07:54:09Z</time></trkpt><trkpt lat="45.368846968881265" lon="9.12439632468096"><ele>103.0</ele><time>2026-03-29T07:54:10Z</time></trkpt><trkpt lat="45.36863825739232" lon="9.12419491302162"><ele>102.0</ele><time>2026-03-29T07:54:11Z</time></trkpt><trkpt lat="45.36842811118071" lon="9.123993628811537"><ele>101.0</ele><time>2026-03-29T07:54:12Z</time></trkpt><trkpt lat="45.368218679694536" lon="9.123796043782885"><ele>101.0</ele><time>2026-03-29T07:54:13Z</time></trkpt><trkpt lat="45.36801106277099" lon="9.123597638337923"><ele>101.0</ele><time>2026-03-29T07:54:14Z</time></trkpt><trkpt lat="45.367800008406775" lon="9.123398278777751"><ele>101.0</ele><time>2026-03-29T07:54:15Z</time></trkpt><trkpt lat="45.367589055552564" lon="9.123197685547119"><ele>101.0</ele><time>2026-03-29T07:54:16Z</time></trkpt><trkpt lat="45.36737453935672" lon="9.12300830765491"><ele>101.5</ele><time>2026-03-29T07:54:17Z</time></trkpt><trkpt lat="45.36717036026193" lon="9.122804267627037"><ele>102.0</ele><time>2026-03-29T07:54:18Z</time></trkpt><trkpt lat="45.366959009638606" lon="9.122601473270214"><ele>102.0</ele><time>2026-03-29T07:54:19Z</time></trkpt><trkpt lat="45.3667481432177" lon="9.122404046639282"><ele>102.0</ele><time>2026-03-29T07:54:20Z</time></trkpt><trkpt lat="45.366536424399584" lon="9.122203088019432"><ele>102.0</ele><time>2026-03-29T07:54:21Z</time></trkpt><trkpt lat="45.366323456636295" lon="9.122005649222983"><ele>102.0</ele><time>2026-03-29T07:54:22Z</time></trkpt><trkpt lat="45.36610969679774" lon="9.121805133878594"><ele>102.0</ele><time>2026-03-29T07:54:23Z</time></trkpt><trkpt lat="45.36590132095069" lon="9.121609788286555"><ele>102.0</ele><time>2026-03-29T07:54:24Z</time></trkpt><trkpt lat="45.3656916717874" lon="9.121409654877986"><ele>101.0</ele><time>2026-03-29T07:54:25Z</time></trkpt><trkpt lat="45.36548111488421" lon="9.121212070229728"><ele>100.0</ele><time>2026-03-29T07:54:26Z</time></trkpt><trkpt lat="45.365266405926974" lon="9.121008053565744"><ele>100.0</ele><time>2026-03-29T07:54:27Z</time></trkpt><trkpt lat="45.365057609159145" lon="9.120809709094182"><ele>100.0</ele><time>2026-03-29T07:54:28Z</time></trkpt><trkpt lat="45.36484514946177" lon="9.12060597606412"><ele>100.0</ele><time>2026-03-29T07:54:29Z</time></trkpt><trkpt lat="45.364630837099284" lon="9.120402040839554"><ele>100.0</ele><time>2026-03-29T07:54:30Z</time></trkpt><trkpt lat="45.36441801751536" lon="9.12020077507281"><ele>100.0</ele><time>2026-03-29T07:54:31Z</time></trkpt><trkpt lat="45.36420485215725" lon="9.11999493101443"><ele>100.0</ele><time>2026-03-29T07:54:32Z</time></trkpt><trkpt lat="45.36399427019981" lon="9.119797067205633"><ele>101.0</ele><time>2026-03-29T07:54:33Z</time></trkpt><trkpt lat="45.363780010578324" lon="9.11959451322039"><ele>102.0</ele><time>2026-03-29T07:54:34Z</time></trkpt><trkpt lat="45.36356806417968" lon="9.119391733346506"><ele>102.0</ele><time>2026-03-29T07:54:35Z</time></trkpt><trkpt lat="45.36335360539672" lon="9.119192881785429"><ele>102.0</ele><time>2026-03-29T07:54:36Z</time></trkpt><trkpt lat="45.36314015766792" lon="9.118990334382266"><ele>102.5</ele><time>2026-03-29T07:54:37Z</time></trkpt><trkpt lat="45.36292935297328" lon="9.11879238991763"><ele>103.0</ele><time>2026-03-29T07:54:38Z</time></trkpt><trkpt lat="45.362715563287075" lon="9.118590780022892"><ele>103.0</ele><time>2026-03-29T07:54:39Z</time></trkpt><trkpt lat="45.36251178269113" lon="9.118395517507713"><ele>103.0</ele><time>2026-03-29T07:54:40Z</time></trkpt><trkpt lat="45.36229610323211" lon="9.118195834799007"><ele>101.5</ele><time>2026-03-29T07:54:41Z</time></trkpt><trkpt lat="45.36208426570949" lon="9.117993862271517"><ele>100.0</ele><time>2026-03-29T07:54:42Z</time></trkpt><trkpt lat="45.36187203741159" lon="9.117795641371078"><ele>100.0</ele><time>2026-03-29T07:54:43Z</time></trkpt><trkpt lat="45.361661340526304" lon="9.117597074622399"><ele>100.0</ele><time>2026-03-29T07:54:44Z</time></trkpt><trkpt lat="45.36145237871571" lon="9.117399141029283"><ele>99.5</ele><time>2026-03-29T07:54:45Z</time></trkpt><trkpt lat="45.36124344684882" lon="9.117203559870706"><ele>99.0</ele><time>2026-03-29T07:54:46Z</time></trkpt><trkpt lat="45.36103288932994" lon="9.117008543468092"><ele>99.0</ele><time>2026-03-29T07:54:47Z</time></trkpt><trkpt lat="45.36081937942668" lon="9.116818311461698"><ele>99.0</ele><time>2026-03-29T07:54:48Z</time></trkpt><trkpt lat="45.36060772850604" lon="9.116630895564656"><ele>98.5</ele><time>2026-03-29T07:54:49Z</time></trkpt><trkpt lat="45.360392436252695" lon="9.11644605099137"><ele>98.0</ele><time>2026-03-29T07:54:50Z</time></trkpt><trkpt lat="45.360177244941504" lon="9.116265165329512"><ele>98.0</ele><time>2026-03-29T07:54:51Z</time></trkpt><trkpt lat="45.35996257301012" lon="9.116083558608302"><ele>98.0</ele><time>2026-03-29T07:54:52Z</time></trkpt><trkpt lat="45.35975185412414" lon="9.115902967574081"><ele>99.0</ele><time>2026-03-29T07:54:53Z</time></trkpt><trkpt lat="45.35953980930625" lon="9.11572103073574"><ele>100.0</ele><time>2026-03-29T07:54:54Z</time></trkpt><trkpt lat="45.359331475262174" lon="9.115541330751677"><ele>100.0</ele><time>2026-03-29T07:54:55Z</time></trkpt><trkpt lat="45.35911985170597" lon="9.115362690074239"><ele>100.0</ele><time>2026-03-29T07:54:56Z</time></trkpt><trkpt lat="45.35891223979407" lon="9.11518340731386"><ele>100.5</ele><time>2026-03-29T07:54:57Z</time></trkpt><trkpt lat="45.35870236302312" lon="9.115007218596242"><ele>101.0</ele><time>2026-03-29T07:54:58Z</time></trkpt><trkpt lat="45.35849532510891" lon="9.11483130961494"><ele>101.0</ele><time>2026-03-29T07:54:59Z</time></trkpt><trkpt lat="45.35828181693471" lon="9.114652474227317"><ele>101.0</ele><time>2026-03-29T07:55:00Z</time></trkpt><trkpt lat="45.358073193221365" lon="9.114477099877778"><ele>101.0</ele><time>2026-03-29T07:55:01Z</time></trkpt><trkpt lat="45.3578577516958" lon="9.114298396176277"><ele>101.0</ele><time>2026-03-29T07:55:02Z</time></trkpt><trkpt lat="45.35764662293173" lon="9.11412218391959"><ele>99.5</ele><time>2026-03-29T07:55:03Z</time></trkpt><trkpt lat="45.35743773961002" lon="9.113945002373802"><ele>98.0</ele><time>2026-03-29T07:55:04Z</time></trkpt><trkpt lat="45.35722606811281" lon="9.113769079530343"><ele>99.0</ele><time>2026-03-29T07:55:05Z</time></trkpt><trkpt lat="45.35701724442282" lon="9.113597077745554"><ele>100.0</ele><time>2026-03-29T07:55:06Z</time></trkpt><trkpt lat="45.35681183439103" lon="9.113427369262826"><ele>100.0</ele><time>2026-03-29T07:55:07Z</time></trkpt><trkpt lat="45.356606086048245" lon="9.113258938123586"><ele>100.0</ele><time>2026-03-29T07:55:08Z</time></trkpt><trkpt lat="45.35640739512423" lon="9.11308888737442"><ele>100.5</ele><time>2026-03-29T07:55:09Z</time></trkpt><trkpt lat="45.35620842430534" lon="9.112921755014638"><ele>101.0</ele><time>2026-03-29T07:55:10Z</time></trkpt><trkpt lat="45.3560051809098" lon="9.112749691675239"><ele>101.0</ele><time>2026-03-29T07:55:11Z</time></trkpt><trkpt lat="45.355799425521994" lon="9.112574234764558"><ele>101.0</ele><time>2026-03-29T07:55:12Z</time></trkpt><trkpt lat="45.35560511436264" lon="9.112389902140464"><ele>100.0</ele><time>2026-03-29T07:55:13Z</time></trkpt><trkpt lat="45.355392030864934" lon="9.112224181728264"><ele>99.0</ele><time>2026-03-29T07:55:14Z</time></trkpt><trkpt lat="45.35518548260226" lon="9.11205002391326"><ele>99.0</ele><time>2026-03-29T07:55:15Z</time></trkpt><trkpt lat="45.35498111225364" lon="9.111874381306636"><ele>99.0</ele><time>2026-03-29T07:55:16Z</time></trkpt><trkpt lat="45.35477794626318" lon="9.111702472373576"><ele>99.0</ele><time>2026-03-29T07:55:17Z</time></trkpt><trkpt lat="45.35458550997835" lon="9.111542564135407"><ele>99.0</ele><time>2026-03-29T07:55:18Z</time></trkpt><trkpt lat="45.354394976193255" lon="9.111382810000753"><ele>99.0</ele><time>2026-03-29T07:55:19Z</time></trkpt><trkpt lat="45.354196422573104" lon="9.111218524444773"><ele>99.0</ele><time>2026-03-29T07:55:20Z</time></trkpt><trkpt lat="45.35399042842236" lon="9.111047931569278"><ele>99.0</ele><time>2026-03-29T07:55:21Z</time></trkpt><trkpt lat="45.35379705018551" lon="9.110885628095435"><ele>99.0</ele><time>2026-03-29T07:55:22Z</time></trkpt><trkpt lat="45.35360993716465" lon="9.110724109059715"><ele>99.0</ele><time>2026-03-29T07:55:23Z</time></trkpt><trkpt lat="45.353426843654916" lon="9.110565300088385"><ele>99.0</ele><time>2026-03-29T07:55:24Z</time></trkpt><trkpt lat="45.35323546807596" lon="9.110403666388926"><ele>99.0</ele><time>2026-03-29T07:55:25Z</time></trkpt><trkpt lat="45.35303228062882" lon="9.110240780886025"><ele>99.0</ele><time>2026-03-29T07:55:26Z</time></trkpt><trkpt lat="45.352815992180865" lon="9.11007365179869"><ele>98.0</ele><time>2026-03-29T07:55:27Z</time></trkpt><trkpt lat="45.35259746885622" lon="9.10989562775857"><ele>97.0</ele><time>2026-03-29T07:55:28Z</time></trkpt><trkpt lat="45.35237875999665" lon="9.109713118916137"><ele>98.0</ele><time>2026-03-29T07:55:29Z</time></trkpt><trkpt lat="45.352156745349035" lon="9.109527789845805"><ele>99.0</ele><time>2026-03-29T07:55:30Z</time></trkpt><trkpt lat="45.351937236328155" lon="9.109341591906478"><ele>99.0</ele><time>2026-03-29T07:55:31Z</time></trkpt><trkpt lat="45.35171806242947" lon="9.10915521526603"><ele>99.0</ele><time>2026-03-29T07:55:32Z</time></trkpt><trkpt lat="45.351499102074655" lon="9.10896606092784"><ele>98.0</ele><time>2026-03-29T07:55:33Z</time></trkpt><trkpt lat="45.35127653020388" lon="9.10877782712203"><ele>97.0</ele><time>2026-03-29T07:55:34Z</time></trkpt><trkpt lat="45.351055147780606" lon="9.10858973474381"><ele>97.0</ele><time>2026-03-29T07:55:35Z</time></trkpt><trkpt lat="45.35083347770657" lon="9.108404449791955"><ele>97.0</ele><time>2026-03-29T07:55:36Z</time></trkpt><trkpt lat="45.35060834514312" lon="9.10821564165265"><ele>97.0</ele><time>2026-03-29T07:55:37Z</time></trkpt><trkpt lat="45.350388305550794" lon="9.108031537157924"><ele>97.0</ele><time>2026-03-29T07:55:38Z</time></trkpt><trkpt lat="45.35017023668713" lon="9.107845231012446"><ele>97.0</ele><time>2026-03-29T07:55:39Z</time></trkpt><trkpt lat="45.349944805077826" lon="9.107654207753372"><ele>97.0</ele><time>2026-03-29T07:55:40Z</time></trkpt><trkpt lat="45.349720522516336" lon="9.10746690883791"><ele>98.0</ele><time>2026-03-29T07:55:41Z</time></trkpt><trkpt lat="45.34949828756409" lon="9.1072810209217"><ele>99.0</ele><time>2026-03-29T07:55:42Z</time></trkpt><trkpt lat="45.34927404094554" lon="9.107090648933449"><ele>99.0</ele><time>2026-03-29T07:55:43Z</time></trkpt><trkpt lat="45.349047869236884" lon="9.106896898231328"><ele>99.0</ele><time>2026-03-29T07:55:44Z</time></trkpt><trkpt lat="45.34881951445488" lon="9.106707441341758"><ele>99.0</ele><time>2026-03-29T07:55:45Z</time></trkpt><trkpt lat="45.348595313402186" lon="9.106520564628244"><ele>99.0</ele><time>2026-03-29T07:55:46Z</time></trkpt><trkpt lat="45.348371230703535" lon="9.106329981775229"><ele>99.0</ele><time>2026-03-29T07:55:47Z</time></trkpt><trkpt lat="45.34814485848419" lon="9.106139158301609"><ele>99.0</ele><time>2026-03-29T07:55:48Z</time></trkpt><trkpt lat="45.34791946538361" lon="9.105946680308007"><ele>98.5</ele><time>2026-03-29T07:55:49Z</time></trkpt><trkpt lat="45.34769259716982" lon="9.105752546102313"><ele>98.0</ele><time>2026-03-29T07:55:50Z</time></trkpt><trkpt lat="45.347466377507224" lon="9.10555983939006"><ele>98.0</ele><time>2026-03-29T07:55:51Z</time></trkpt><trkpt lat="45.34723817937842" lon="9.105362038253613"><ele>98.0</ele><time>2026-03-29T07:55:52Z</time></trkpt><trkpt lat="45.34701238223821" lon="9.10516911885901"><ele>97.5</ele><time>2026-03-29T07:55:53Z</time></trkpt><trkpt lat="45.34678101488852" lon="9.104976789575236"><ele>97.0</ele><time>2026-03-29T07:55:54Z</time></trkpt><trkpt lat="45.34655021234467" lon="9.104786270490733"><ele>97.0</ele><time>2026-03-29T07:55:55Z</time></trkpt><trkpt lat="45.346322272905944" lon="9.104594229532905"><ele>97.0</ele><time>2026-03-29T07:55:56Z</time></trkpt><trkpt lat="45.34609447924876" lon="9.10439912209666"><ele>97.0</ele><time>2026-03-29T07:55:57Z</time></trkpt><trkpt lat="45.34586819249021" lon="9.10420030758051"><ele>97.0</ele><time>2026-03-29T07:55:58Z</time></trkpt><trkpt lat="45.345645761767756" lon="9.104000082928811"><ele>97.5</ele><time>2026-03-29T07:55:59Z</time></trkpt><trkpt lat="45.34542609774602" lon="9.10379554402138"><ele>98.0</ele><time>2026-03-29T07:56:00Z</time></trkpt><trkpt lat="45.345209573651914" lon="9.10358696751773"><ele>98.0</ele><time>2026-03-29T07:56:01Z</time></trkpt><trkpt lat="45.34499416106775" lon="9.103380263139034"><ele>98.0</ele><time>2026-03-29T07:56:02Z</time></trkpt><trkpt lat="45.34477998800258" lon="9.1031749090274"><ele>98.0</ele><time>2026-03-29T07:56:03Z</time></trkpt><trkpt lat="45.344567572412956" lon="9.102973956155063"><ele>98.0</ele><time>2026-03-29T07:56:04Z</time></trkpt><trkpt lat="45.344352583107444" lon="9.102772594602424"><ele>98.0</ele><time>2026-03-29T07:56:05Z</time></trkpt><trkpt lat="45.34413539123631" lon="9.102569980102702"><ele>98.0</ele><time>2026-03-29T07:56:06Z</time></trkpt><trkpt lat="45.343919410697346" lon="9.102368547633029"><ele>99.0</ele><time>2026-03-29T07:56:07Z</time></trkpt><trkpt lat="45.34370925036731" lon="9.102170993220565"><ele>100.0</ele><time>2026-03-29T07:56:08Z</time></trkpt><trkpt lat="45.343496671733696" lon="9.101971788108662"><ele>100.0</ele><time>2026-03-29T07:56:09Z</time></trkpt><trkpt lat="45.343283311618734" lon="9.101773654316561"><ele>100.0</ele><time>2026-03-29T07:56:10Z</time></trkpt><trkpt lat="45.3430733267193" lon="9.101577939698291"><ele>99.0</ele><time>2026-03-29T07:56:11Z</time></trkpt><trkpt lat="45.342863843746926" lon="9.101380885118541"><ele>98.0</ele><time>2026-03-29T07:56:12Z</time></trkpt><trkpt lat="45.342654242545564" lon="9.101180414605679"><ele>98.0</ele><time>2026-03-29T07:56:13Z</time></trkpt><trkpt lat="45.34244080481694" lon="9.100983865764809"><ele>98.0</ele><time>2026-03-29T07:56:14Z</time></trkpt><trkpt lat="45.34223016512809" lon="9.10078609747926"><ele>99.0</ele><time>2026-03-29T07:56:15Z</time></trkpt><trkpt lat="45.34201547213601" lon="9.100588048944102"><ele>100.0</ele><time>2026-03-29T07:56:16Z</time></trkpt><trkpt lat="45.34180248720732" lon="9.10038872930658"><ele>100.0</ele><time>2026-03-29T07:56:17Z</time></trkpt><trkpt lat="45.34158789795273" lon="9.100192142528773"><ele>100.0</ele><time>2026-03-29T07:56:18Z</time></trkpt><trkpt lat="45.34137285771434" lon="9.09999709951272"><ele>100.0</ele><time>2026-03-29T07:56:19Z</time></trkpt><trkpt lat="45.341159461596106" lon="9.099800682304"><ele>100.0</ele><time>2026-03-29T07:56:20Z</time></trkpt><trkpt lat="45.34094591962542" lon="9.099605248123682"><ele>100.0</ele><time>2026-03-29T07:56:21Z</time></trkpt><trkpt lat="45.34073309408805" lon="9.099399946395817"><ele>100.0</ele><time>2026-03-29T07:56:22Z</time></trkpt><trkpt lat="45.34052385694648" lon="9.099191197268569"><ele>99.5</ele><time>2026-03-29T07:56:23Z</time></trkpt><trkpt lat="45.34031212128029" lon="9.098983316553333"><ele>99.0</ele><time>2026-03-29T07:56:24Z</time></trkpt><trkpt lat="45.34010152769698" lon="9.098775392552993"><ele>99.0</ele><time>2026-03-29T07:56:25Z</time></trkpt><trkpt lat="45.33989150532604" lon="9.09857092081295"><ele>99.0</ele><time>2026-03-29T07:56:26Z</time></trkpt><trkpt lat="45.339680766232455" lon="9.09836537431697"><ele>98.5</ele><time>2026-03-29T07:56:27Z</time></trkpt><trkpt lat="45.339472627020264" lon="9.098163144846072"><ele>98.0</ele><time>2026-03-29T07:56:28Z</time></trkpt><trkpt lat="45.3392510595887" lon="9.097965051722571"><ele>98.0</ele><time>2026-03-29T07:56:29Z</time></trkpt><trkpt lat="45.33903591584276" lon="9.09776450104591"><ele>98.0</ele><time>2026-03-29T07:56:30Z</time></trkpt><trkpt lat="45.33881599215935" lon="9.097561337357215"><ele>99.0</ele><time>2026-03-29T07:56:31Z</time></trkpt><trkpt lat="45.33860682070243" lon="9.097360486416756"><ele>100.0</ele><time>2026-03-29T07:56:32Z</time></trkpt><trkpt lat="45.3383960729166" lon="9.097160186271944"><ele>100.0</ele><time>2026-03-29T07:56:33Z</time></trkpt><trkpt lat="45.33817954632326" lon="9.096962719494215"><ele>100.0</ele><time>2026-03-29T07:56:34Z</time></trkpt><trkpt lat="45.337963787677005" lon="9.096759375925016"><ele>99.5</ele><time>2026-03-29T07:56:35Z</time></trkpt><trkpt lat="45.33774873565281" lon="9.096566264913614"><ele>99.0</ele><time>2026-03-29T07:56:36Z</time></trkpt><trkpt lat="45.33753537823367" lon="9.096375026233849"><ele>99.0</ele><time>2026-03-29T07:56:37Z</time></trkpt><trkpt lat="45.33731306575772" lon="9.096193992278428"><ele>99.0</ele><time>2026-03-29T07:56:38Z</time></trkpt><trkpt lat="45.33709168636905" lon="9.096014719530897"><ele>98.5</ele><time>2026-03-29T07:56:39Z</time></trkpt><trkpt lat="45.3368706039217" lon="9.09583502435348"><ele>98.0</ele><time>2026-03-29T07:56:40Z</time></trkpt><trkpt lat="45.33664768168416" lon="9.095659211144085"><ele>98.0</ele><time>2026-03-29T07:56:41Z</time></trkpt><trkpt lat="45.336421731067205" lon="9.0954944542034"><ele>98.0</ele><time>2026-03-29T07:56:42Z</time></trkpt><trkpt lat="45.33619558541244" lon="9.095332460366746"><ele>99.0</ele><time>2026-03-29T07:56:43Z</time></trkpt><trkpt lat="45.33596870385112" lon="9.095178212261605"><ele>100.0</ele><time>2026-03-29T07:56:44Z</time></trkpt><trkpt lat="45.335740132011765" lon="9.095028042724882"><ele>100.0</ele><time>2026-03-29T07:56:45Z</time></trkpt><trkpt lat="45.335510423010746" lon="9.09488162841965"><ele>100.0</ele><time>2026-03-29T07:56:46Z</time></trkpt><trkpt lat="45.33528238869696" lon="9.09473837544763"><ele>100.0</ele><time>2026-03-29T07:56:47Z</time></trkpt><trkpt lat="45.3350536156781" lon="9.09460264611173"><ele>100.0</ele><time>2026-03-29T07:56:48Z</time></trkpt><trkpt lat="45.3348246343932" lon="9.094473861307169"><ele>100.0</ele><time>2026-03-29T07:56:49Z</time></trkpt><trkpt lat="45.33459047746098" lon="9.094354215640978"><ele>100.0</ele><time>2026-03-29T07:56:50Z</time></trkpt><trkpt lat="45.33435269131604" lon="9.094238630019403"><ele>100.0</ele><time>2026-03-29T07:56:51Z</time></trkpt><trkpt lat="45.33411547960129" lon="9.094123874410965"><ele>100.0</ele><time>2026-03-29T07:56:52Z</time></trkpt><trkpt lat="45.3338791098072" lon="9.094001551550125"><ele>98.5</ele><time>2026-03-29T07:56:53Z</time></trkpt><trkpt lat="45.3336409202156" lon="9.093876709209889"><ele>97.0</ele><time>2026-03-29T07:56:54Z</time></trkpt><trkpt lat="45.33340540948909" lon="9.09374673252888"><ele>97.0</ele><time>2026-03-29T07:56:55Z</time></trkpt><trkpt lat="45.33317007418532" lon="9.093614459053963"><ele>97.0</ele><time>2026-03-29T07:56:56Z</time></trkpt><trkpt lat="45.33293245745383" lon="9.09348039748558"><ele>98.0</ele><time>2026-03-29T07:56:57Z</time></trkpt><trkpt lat="45.332700195248954" lon="9.093347227629073"><ele>99.0</ele><time>2026-03-29T07:56:58Z</time></trkpt><trkpt lat="45.33246201767782" lon="9.093212732809377"><ele>100.0</ele><time>2026-03-29T07:56:59Z</time></trkpt><trkpt lat="45.33222916354892" lon="9.093078139547238"><ele>101.0</ele><time>2026-03-29T07:57:00Z</time></trkpt><trkpt lat="45.33199557578685" lon="9.09294449406242"><ele>101.5</ele><time>2026-03-29T07:57:01Z</time></trkpt><trkpt lat="45.33176593665306" lon="9.092816070771729"><ele>102.0</ele><time>2026-03-29T07:57:02Z</time></trkpt><trkpt lat="45.33153421689078" lon="9.092680782588987"><ele>101.0</ele><time>2026-03-29T07:57:03Z</time></trkpt><trkpt lat="45.331310473520205" lon="9.092535881077918"><ele>100.0</ele><time>2026-03-29T07:57:04Z</time></trkpt><trkpt lat="45.33108524609135" lon="9.09238070706701"><ele>99.0</ele><time>2026-03-29T07:57:05Z</time></trkpt><trkpt lat="45.33086140927674" lon="9.092232092004902"><ele>98.0</ele><time>2026-03-29T07:57:06Z</time></trkpt><trkpt lat="45.330645125135796" lon="9.09208471389863"><ele>99.0</ele><time>2026-03-29T07:57:07Z</time></trkpt><trkpt lat="45.330419622988906" lon="9.091940240776873"><ele>100.0</ele><time>2026-03-29T07:57:08Z</time></trkpt><trkpt lat="45.33019212641037" lon="9.091804608621839"><ele>100.0</ele><time>2026-03-29T07:57:09Z</time></trkpt><trkpt lat="45.329966867727656" lon="9.091670234424116"><ele>100.0</ele><time>2026-03-29T07:57:10Z</time></trkpt><trkpt lat="45.32973908825927" lon="9.091541392289903"><ele>99.5</ele><time>2026-03-29T07:57:11Z</time></trkpt><trkpt lat="45.32950809178372" lon="9.09141404640768"><ele>99.0</ele><time>2026-03-29T07:57:12Z</time></trkpt><trkpt lat="45.32927772097754" lon="9.091286572675182"><ele>99.0</ele><time>2026-03-29T07:57:13Z</time></trkpt><trkpt lat="45.32904830258176" lon="9.091157067933747"><ele>99.0</ele><time>2026-03-29T07:57:14Z</time></trkpt><trkpt lat="45.32881959970848" lon="9.091026682511519"><ele>99.5</ele><time>2026-03-29T07:57:15Z</time></trkpt><trkpt lat="45.328588387543014" lon="9.090897535384189"><ele>100.0</ele><time>2026-03-29T07:57:16Z</time></trkpt><trkpt lat="45.32835888973194" lon="9.09076522966656"><ele>100.0</ele><time>2026-03-29T07:57:17Z</time></trkpt><trkpt lat="45.32812169106614" lon="9.09063304529201"><ele>100.0</ele><time>2026-03-29T07:57:18Z</time></trkpt><trkpt lat="45.32789166855216" lon="9.09050041155934"><ele>100.5</ele><time>2026-03-29T07:57:19Z</time></trkpt><trkpt lat="45.32765447828295" lon="9.090368536869748"><ele>101.0</ele><time>2026-03-29T07:57:20Z</time></trkpt><trkpt lat="45.327421681642114" lon="9.090239288198044"><ele>100.5</ele><time>2026-03-29T07:57:21Z</time></trkpt><trkpt lat="45.32718622835003" lon="9.09010502932032"><ele>100.0</ele><time>2026-03-29T07:57:22Z</time></trkpt><trkpt lat="45.326948227135496" lon="9.089971952758678"><ele>100.0</ele><time>2026-03-29T07:57:23Z</time></trkpt><trkpt lat="45.32670810714841" lon="9.089835179941582"><ele>100.0</ele><time>2026-03-29T07:57:24Z</time></trkpt><trkpt lat="45.32647394650525" lon="9.089691173464264"><ele>99.0</ele><time>2026-03-29T07:57:25Z</time></trkpt><trkpt lat="45.32623087512963" lon="9.089560562798358"><ele>98.0</ele><time>2026-03-29T07:57:26Z</time></trkpt><trkpt lat="45.325992970462075" lon="9.089423440371196"><ele>98.0</ele><time>2026-03-29T07:57:27Z</time></trkpt><trkpt lat="45.32575007443851" lon="9.089289795766254"><ele>98.0</ele><time>2026-03-29T07:57:28Z</time></trkpt><trkpt lat="45.325509192713874" lon="9.089153510436462"><ele>99.0</ele><time>2026-03-29T07:57:29Z</time></trkpt><trkpt lat="45.32526683724438" lon="9.089014445900302"><ele>100.0</ele><time>2026-03-29T07:57:30Z</time></trkpt><trkpt lat="45.32502633121738" lon="9.088874259119189"><ele>100.0</ele><time>2026-03-29T07:57:31Z</time></trkpt><trkpt lat="45.32478429898423" lon="9.088734825419579"><ele>100.0</ele><time>2026-03-29T07:57:32Z</time></trkpt><trkpt lat="45.324542024218" lon="9.088597236447418"><ele>99.5</ele><time>2026-03-29T07:57:33Z</time></trkpt><trkpt lat="45.32429441332522" lon="9.088461481178186"><ele>99.0</ele><time>2026-03-29T07:57:34Z</time></trkpt><trkpt lat="45.32404726968808" lon="9.088323137238937"><ele>98.5</ele><time>2026-03-29T07:57:35Z</time></trkpt><trkpt lat="45.32380832810238" lon="9.088182240985502"><ele>98.0</ele><time>2026-03-29T07:57:36Z</time></trkpt><trkpt lat="45.3235603702549" lon="9.088044373231673"><ele>98.0</ele><time>2026-03-29T07:57:37Z</time></trkpt><trkpt lat="45.323315952623695" lon="9.087906468440012"><ele>98.0</ele><time>2026-03-29T07:57:38Z</time></trkpt><trkpt lat="45.323074653293205" lon="9.087767755344188"><ele>98.0</ele><time>2026-03-29T07:57:39Z</time></trkpt><trkpt lat="45.32282820993381" lon="9.087627895472377"><ele>98.0</ele><time>2026-03-29T07:57:40Z</time></trkpt><trkpt lat="45.322587897649356" lon="9.08747813076531"><ele>97.5</ele><time>2026-03-29T07:57:41Z</time></trkpt><trkpt lat="45.3223539257271" lon="9.0873182292617"><ele>97.0</ele><time>2026-03-29T07:57:42Z</time></trkpt><trkpt lat="45.32211504180536" lon="9.087157039424095"><ele>97.0</ele><time>2026-03-29T07:57:43Z</time></trkpt><trkpt lat="45.32187737645091" lon="9.086987357146937"><ele>97.0</ele><time>2026-03-29T07:57:44Z</time></trkpt><trkpt lat="45.32164515683334" lon="9.086807002426793"><ele>97.0</ele><time>2026-03-29T07:57:45Z</time></trkpt><trkpt lat="45.32141458998692" lon="9.086626547759174"><ele>97.0</ele><time>2026-03-29T07:57:46Z</time></trkpt><trkpt lat="45.32118858367391" lon="9.08642307583361"><ele>96.5</ele><time>2026-03-29T07:57:47Z</time></trkpt><trkpt lat="45.32096635098327" lon="9.086220707061615"><ele>96.0</ele><time>2026-03-29T07:57:48Z</time></trkpt><trkpt lat="45.32074907261956" lon="9.086007874768843"><ele>96.5</ele><time>2026-03-29T07:57:49Z</time></trkpt><trkpt lat="45.32052945223392" lon="9.085792113555977"><ele>97.0</ele><time>2026-03-29T07:57:50Z</time></trkpt><trkpt lat="45.32031055862145" lon="9.085576884477009"><ele>97.0</ele><time>2026-03-29T07:57:51Z</time></trkpt><trkpt lat="45.320088270487545" lon="9.085364232395316"><ele>97.0</ele><time>2026-03-29T07:57:52Z</time></trkpt><trkpt lat="45.319867859559295" lon="9.085154584132745"><ele>96.5</ele><time>2026-03-29T07:57:53Z</time></trkpt><trkpt lat="45.31964688299384" lon="9.0849427940076"><ele>96.0</ele><time>2026-03-29T07:57:54Z</time></trkpt><trkpt lat="45.31942499537859" lon="9.084731140888827"><ele>96.0</ele><time>2026-03-29T07:57:55Z</time></trkpt><trkpt lat="45.319203569695986" lon="9.084519679575399"><ele>96.0</ele><time>2026-03-29T07:57:56Z</time></trkpt><trkpt lat="45.31898269849136" lon="9.084309662419363"><ele>96.0</ele><time>2026-03-29T07:57:57Z</time></trkpt><trkpt lat="45.31876567836074" lon="9.084100860504316"><ele>96.0</ele><time>2026-03-29T07:57:58Z</time></trkpt><trkpt lat="45.31854798105197" lon="9.083891014222186"><ele>96.0</ele><time>2026-03-29T07:57:59Z</time></trkpt><trkpt lat="45.31833041201898" lon="9.083682197314802"><ele>96.0</ele><time>2026-03-29T07:58:00Z</time></trkpt><trkpt lat="45.31811448137955" lon="9.083475595320108"><ele>96.5</ele><time>2026-03-29T07:58:01Z</time></trkpt><trkpt lat="45.31789863188526" lon="9.083269243493286"><ele>97.0</ele><time>2026-03-29T07:58:02Z</time></trkpt><trkpt lat="45.31768257406923" lon="9.08306197036853"><ele>97.0</ele><time>2026-03-29T07:58:03Z</time></trkpt><trkpt lat="45.317464492073455" lon="9.08285331391027"><ele>97.0</ele><time>2026-03-29T07:58:04Z</time></trkpt><trkpt lat="45.31724947793999" lon="9.082642144010618"><ele>96.5</ele><time>2026-03-29T07:58:05Z</time></trkpt><trkpt lat="45.31703118318859" lon="9.082432533326015"><ele>96.0</ele><time>2026-03-29T07:58:06Z</time></trkpt><trkpt lat="45.316809799489384" lon="9.082225932130674"><ele>96.0</ele><time>2026-03-29T07:58:07Z</time></trkpt><trkpt lat="45.31659169722487" lon="9.082019145170607"><ele>96.0</ele><time>2026-03-29T07:58:08Z</time></trkpt><trkpt lat="45.31636935265328" lon="9.081805551319201"><ele>96.5</ele><time>2026-03-29T07:58:09Z</time></trkpt><trkpt lat="45.31614772514209" lon="9.081592229400437"><ele>97.0</ele><time>2026-03-29T07:58:10Z</time></trkpt><trkpt lat="45.31592834886537" lon="9.081380642329483"><ele>97.0</ele><time>2026-03-29T07:58:11Z</time></trkpt><trkpt lat="45.315705389827684" lon="9.081170194698386"><ele>97.0</ele><time>2026-03-29T07:58:12Z</time></trkpt><trkpt lat="45.315478052267764" lon="9.08095795961873"><ele>96.5</ele><time>2026-03-29T07:58:13Z</time></trkpt><trkpt lat="45.31525568591003" lon="9.080747299275608"><ele>96.0</ele><time>2026-03-29T07:58:14Z</time></trkpt><trkpt lat="45.315034673769176" lon="9.080534908800594"><ele>96.0</ele><time>2026-03-29T07:58:15Z</time></trkpt><trkpt lat="45.31481124945292" lon="9.080320301642509"><ele>96.0</ele><time>2026-03-29T07:58:16.001Z</time></trkpt><trkpt lat="45.314589865042784" lon="9.080107263166061"><ele>96.0</ele><time>2026-03-29T07:58:17.001Z</time></trkpt><trkpt lat="45.31436306253743" lon="9.079897699719973"><ele>96.0</ele><time>2026-03-29T07:58:18.001Z</time></trkpt><trkpt lat="45.314141649962785" lon="9.079685067569606"><ele>96.0</ele><time>2026-03-29T07:58:19.001Z</time></trkpt><trkpt lat="45.313922282862855" lon="9.079471095618455"><ele>96.0</ele><time>2026-03-29T07:58:20.001Z</time></trkpt><trkpt lat="45.313699282193575" lon="9.07926008816065"><ele>95.0</ele><time>2026-03-29T07:58:21.001Z</time></trkpt><trkpt lat="45.31348180034901" lon="9.079047668500015"><ele>94.0</ele><time>2026-03-29T07:58:22.001Z</time></trkpt><trkpt lat="45.313263591291765" lon="9.078836596988088"><ele>94.5</ele><time>2026-03-29T07:58:23.001Z</time></trkpt><trkpt lat="45.31304251522277" lon="9.078630972495159"><ele>95.0</ele><time>2026-03-29T07:58:24.001Z</time></trkpt><trkpt lat="45.312825506992276" lon="9.078425814458562"><ele>95.5</ele><time>2026-03-29T07:58:25.001Z</time></trkpt><trkpt lat="45.312610263224" lon="9.078218723978567"><ele>96.0</ele><time>2026-03-29T07:58:26.001Z</time></trkpt><trkpt lat="45.31239351960729" lon="9.078016703604892"><ele>96.0</ele><time>2026-03-29T07:58:27.001Z</time></trkpt><trkpt lat="45.312182599019884" lon="9.077809668182715"><ele>96.0</ele><time>2026-03-29T07:58:28.001Z</time></trkpt><trkpt lat="45.31197194888287" lon="9.077604152022651"><ele>96.5</ele><time>2026-03-29T07:58:29.001Z</time></trkpt><trkpt lat="45.31175775010983" lon="9.07740043278449"><ele>97.0</ele><time>2026-03-29T07:58:30.001Z</time></trkpt><trkpt lat="45.31153856484828" lon="9.077196693398179"><ele>96.0</ele><time>2026-03-29T07:58:31.001Z</time></trkpt><trkpt lat="45.31132489832004" lon="9.076993554978898"><ele>95.0</ele><time>2026-03-29T07:58:32.001Z</time></trkpt><trkpt lat="45.31111068515922" lon="9.076789438776085"><ele>95.5</ele><time>2026-03-29T07:58:33.001Z</time></trkpt><trkpt lat="45.31089238958384" lon="9.076584958794966"><ele>96.0</ele><time>2026-03-29T07:58:34.001Z</time></trkpt><trkpt lat="45.3106776058909" lon="9.076381081689535"><ele>96.0</ele><time>2026-03-29T07:58:35.001Z</time></trkpt><trkpt lat="45.310468031390066" lon="9.076176284587625"><ele>96.0</ele><time>2026-03-29T07:58:36.001Z</time></trkpt><trkpt lat="45.31025621882727" lon="9.07597136817915"><ele>95.5</ele><time>2026-03-29T07:58:37.001Z</time></trkpt><trkpt lat="45.31004207656821" lon="9.075766688248933"><ele>95.0</ele><time>2026-03-29T07:58:38.001Z</time></trkpt><trkpt lat="45.309827101741796" lon="9.075564330447518"><ele>94.0</ele><time>2026-03-29T07:58:39.001Z</time></trkpt><trkpt lat="45.30961592122013" lon="9.075362306742202"><ele>93.0</ele><time>2026-03-29T07:58:40.001Z</time></trkpt><trkpt lat="45.309397091586185" lon="9.075167718649029"><ele>93.0</ele><time>2026-03-29T07:58:41.001Z</time></trkpt><trkpt lat="45.309172105272495" lon="9.074984118418417"><ele>93.0</ele><time>2026-03-29T07:58:42.001Z</time></trkpt><trkpt lat="45.30894948059921" lon="9.074803118534785"><ele>94.5</ele><time>2026-03-29T07:58:43.001Z</time></trkpt><trkpt lat="45.308720082738624" lon="9.074629684158339"><ele>96.0</ele><time>2026-03-29T07:58:44.001Z</time></trkpt><trkpt lat="45.308487173980964" lon="9.074460959785423"><ele>96.0</ele><time>2026-03-29T07:58:45.001Z</time></trkpt><trkpt lat="45.30824680082652" lon="9.07429936197535"><ele>96.0</ele><time>2026-03-29T07:58:46.001Z</time></trkpt><trkpt lat="45.308009685071845" lon="9.074137881359748"><ele>96.0</ele><time>2026-03-29T07:58:47.001Z</time></trkpt><trkpt lat="45.30777173677349" lon="9.073976935719013"><ele>96.0</ele><time>2026-03-29T07:58:48.001Z</time></trkpt><trkpt lat="45.30753354993948" lon="9.073815620967688"><ele>96.0</ele><time>2026-03-29T07:58:49.001Z</time></trkpt><trkpt lat="45.30729448665818" lon="9.073655921821501"><ele>96.0</ele><time>2026-03-29T07:58:50.001Z</time></trkpt><trkpt lat="45.30705395866753" lon="9.073495241596534"><ele>96.0</ele><time>2026-03-29T07:58:51.001Z</time></trkpt><trkpt lat="45.30681659120055" lon="9.073333199660818"><ele>96.0</ele><time>2026-03-29T07:58:52.001Z</time></trkpt><trkpt lat="45.306577911719685" lon="9.073174692909545"><ele>96.0</ele><time>2026-03-29T07:58:53.001Z</time></trkpt><trkpt lat="45.30633870542055" lon="9.073015410937108"><ele>96.0</ele><time>2026-03-29T07:58:54.001Z</time></trkpt><trkpt lat="45.3061012395905" lon="9.072856476019943"><ele>96.0</ele><time>2026-03-29T07:58:55.001Z</time></trkpt><trkpt lat="45.30586611096786" lon="9.072698383947907"><ele>96.0</ele><time>2026-03-29T07:58:56.001Z</time></trkpt><trkpt lat="45.30563022318931" lon="9.072538386210628"><ele>95.5</ele><time>2026-03-29T07:58:57.001Z</time></trkpt><trkpt lat="45.30539257100829" lon="9.072377013782159"><ele>95.0</ele><time>2026-03-29T07:58:58.001Z</time></trkpt><trkpt lat="45.30515354167221" lon="9.072216568632747"><ele>95.0</ele><time>2026-03-29T07:58:59.001Z</time></trkpt><trkpt lat="45.30491613967887" lon="9.072057907992319"><ele>95.0</ele><time>2026-03-29T07:59:00.001Z</time></trkpt><trkpt lat="45.30467818047687" lon="9.071900821441275"><ele>95.5</ele><time>2026-03-29T07:59:01.001Z</time></trkpt><trkpt lat="45.30443872065257" lon="9.071743068689063"><ele>96.0</ele><time>2026-03-29T07:59:02.001Z</time></trkpt><trkpt lat="45.30420081704693" lon="9.071583155622875"><ele>96.0</ele><time>2026-03-29T07:59:03.001Z</time></trkpt><trkpt lat="45.3039648266348" lon="9.07142371829735"><ele>96.0</ele><time>2026-03-29T07:59:04.001Z</time></trkpt><trkpt lat="45.3037288976471" lon="9.071266837866357"><ele>95.5</ele><time>2026-03-29T07:59:05.001Z</time></trkpt><trkpt lat="45.303490739655466" lon="9.071110186702038"><ele>95.0</ele><time>2026-03-29T07:59:06.001Z</time></trkpt><trkpt lat="45.303258850140395" lon="9.070947008798086"><ele>95.0</ele><time>2026-03-29T07:59:07.001Z</time></trkpt><trkpt lat="45.303023007251625" lon="9.070787312317737"><ele>95.0</ele><time>2026-03-29T07:59:08.001Z</time></trkpt><trkpt lat="45.30278687779653" lon="9.070628864432305"><ele>95.5</ele><time>2026-03-29T07:59:09.001Z</time></trkpt><trkpt lat="45.3025530123769" lon="9.070470075167776"><ele>96.0</ele><time>2026-03-29T07:59:10Z</time></trkpt><trkpt lat="45.302318224972495" lon="9.070315243482442"><ele>96.0</ele><time>2026-03-29T07:59:11Z</time></trkpt><trkpt lat="45.30208617033863" lon="9.070161950213883"><ele>96.0</ele><time>2026-03-29T07:59:12Z</time></trkpt><trkpt lat="45.3018516681031" lon="9.070005731139744"><ele>96.0</ele><time>2026-03-29T07:59:13Z</time></trkpt><trkpt lat="45.301620009341846" lon="9.069847848900027"><ele>96.0</ele><time>2026-03-29T07:59:14Z</time></trkpt><trkpt lat="45.30138949658344" lon="9.069689616517715"><ele>96.0</ele><time>2026-03-29T07:59:15Z</time></trkpt><trkpt lat="45.301156963402526" lon="9.069534332283071"><ele>96.0</ele><time>2026-03-29T07:59:16Z</time></trkpt><trkpt lat="45.30092211642925" lon="9.069375747463786"><ele>96.0</ele><time>2026-03-29T07:59:17Z</time></trkpt><trkpt lat="45.30068470139589" lon="9.069222831971821"><ele>96.0</ele><time>2026-03-29T07:59:18Z</time></trkpt><trkpt lat="45.30044952699278" lon="9.069068750982016"><ele>96.0</ele><time>2026-03-29T07:59:19Z</time></trkpt><trkpt lat="45.30021498259578" lon="9.068908595216273"><ele>96.0</ele><time>2026-03-29T07:59:20Z</time></trkpt><trkpt lat="45.29998744417523" lon="9.068749369421525"><ele>96.0</ele><time>2026-03-29T07:59:21Z</time></trkpt><trkpt lat="45.299753878309524" lon="9.068592738657545"><ele>96.0</ele><time>2026-03-29T07:59:22Z</time></trkpt><trkpt lat="45.29952018468447" lon="9.068435453984483"><ele>95.5</ele><time>2026-03-29T07:59:23Z</time></trkpt><trkpt lat="45.299291903878704" lon="9.068278473153189"><ele>95.0</ele><time>2026-03-29T07:59:24Z</time></trkpt><trkpt lat="45.299061489258214" lon="9.068123791244913"><ele>94.0</ele><time>2026-03-29T07:59:25Z</time></trkpt><trkpt lat="45.29883268420808" lon="9.067970635660565"><ele>93.0</ele><time>2026-03-29T07:59:26Z</time></trkpt><trkpt lat="45.29860728348944" lon="9.067817273319958"><ele>93.0</ele><time>2026-03-29T07:59:27Z</time></trkpt><trkpt lat="45.298374336904686" lon="9.067662880858586"><ele>93.0</ele><time>2026-03-29T07:59:28Z</time></trkpt><trkpt lat="45.29814408959952" lon="9.067507000180546"><ele>94.0</ele><time>2026-03-29T07:59:29Z</time></trkpt><trkpt lat="45.29791324346211" lon="9.067349735830941"><ele>95.0</ele><time>2026-03-29T07:59:30Z</time></trkpt><trkpt lat="45.297680998740994" lon="9.067193066381986"><ele>95.0</ele><time>2026-03-29T07:59:31Z</time></trkpt><trkpt lat="45.29744883721405" lon="9.067037749834322"><ele>95.0</ele><time>2026-03-29T07:59:32Z</time></trkpt><trkpt lat="45.297213787026216" lon="9.066880207544536"><ele>94.5</ele><time>2026-03-29T07:59:33Z</time></trkpt><trkpt lat="45.29698480607215" lon="9.06672177848779"><ele>94.0</ele><time>2026-03-29T07:59:34Z</time></trkpt><trkpt lat="45.29674933258977" lon="9.066563037425137"><ele>94.0</ele><time>2026-03-29T07:59:35Z</time></trkpt><trkpt lat="45.29651382579737" lon="9.066402815154923"><ele>94.0</ele><time>2026-03-29T07:59:36Z</time></trkpt><trkpt lat="45.29627581022457" lon="9.066245650897113"><ele>94.0</ele><time>2026-03-29T07:59:37Z</time></trkpt><trkpt lat="45.2960403431626" lon="9.066088029399353"><ele>94.0</ele><time>2026-03-29T07:59:38Z</time></trkpt><trkpt lat="45.29580389254511" lon="9.065931186319034"><ele>94.0</ele><time>2026-03-29T07:59:39Z</time></trkpt><trkpt lat="45.29556504491531" lon="9.06577331421299"><ele>94.0</ele><time>2026-03-29T07:59:40Z</time></trkpt><trkpt lat="45.29532438776597" lon="9.06561569903866"><ele>94.0</ele><time>2026-03-29T07:59:41Z</time></trkpt><trkpt lat="45.295084539190505" lon="9.06545716075708"><ele>94.0</ele><time>2026-03-29T07:59:42Z</time></trkpt><trkpt lat="45.29485075596678" lon="9.065296271243918"><ele>94.5</ele><time>2026-03-29T07:59:43Z</time></trkpt><trkpt lat="45.294612248600814" lon="9.065138667775763"><ele>95.0</ele><time>2026-03-29T07:59:44Z</time></trkpt><trkpt lat="45.294373736079834" lon="9.064980358269775"><ele>94.0</ele><time>2026-03-29T07:59:45Z</time></trkpt><trkpt lat="45.294137044602586" lon="9.064819968607573"><ele>93.0</ele><time>2026-03-29T07:59:46Z</time></trkpt><trkpt lat="45.293901525219006" lon="9.064662153112122"><ele>93.0</ele><time>2026-03-29T07:59:47Z</time></trkpt><trkpt lat="45.29366628558898" lon="9.064507275561684"><ele>93.0</ele><time>2026-03-29T07:59:48Z</time></trkpt><trkpt lat="45.2934301866094" lon="9.064357435690603"><ele>93.0</ele><time>2026-03-29T07:59:49Z</time></trkpt><trkpt lat="45.2931885234993" lon="9.064220262168467"><ele>93.0</ele><time>2026-03-29T07:59:50Z</time></trkpt><trkpt lat="45.29294653188888" lon="9.064095162406726"><ele>94.5</ele><time>2026-03-29T07:59:51Z</time></trkpt><trkpt lat="45.29269970232528" lon="9.06398681955941"><ele>96.0</ele><time>2026-03-29T07:59:52Z</time></trkpt><trkpt lat="45.292451582587354" lon="9.063886083772115"><ele>96.0</ele><time>2026-03-29T07:59:53Z</time></trkpt><trkpt lat="45.292200153311285" lon="9.063790627011052"><ele>96.0</ele><time>2026-03-29T07:59:54Z</time></trkpt><trkpt lat="45.29194209032636" lon="9.06370539376271"><ele>96.0</ele><time>2026-03-29T07:59:55Z</time></trkpt><trkpt lat="45.29169785312794" lon="9.063622132313252"><ele>96.0</ele><time>2026-03-29T07:59:56Z</time></trkpt><trkpt lat="45.29144468935398" lon="9.06353219232539"><ele>96.0</ele><time>2026-03-29T07:59:57Z</time></trkpt><trkpt lat="45.2911972689062" lon="9.063437259941454"><ele>96.0</ele><time>2026-03-29T07:59:58Z</time></trkpt><trkpt lat="45.29094369624777" lon="9.063345388721622"><ele>95.0</ele><time>2026-03-29T07:59:59Z</time></trkpt><trkpt lat="45.2906946307293" lon="9.063251288091674"><ele>94.0</ele><time>2026-03-29T08:00:00Z</time></trkpt><trkpt lat="45.29044212798413" lon="9.063159422854355"><ele>93.5</ele><time>2026-03-29T08:00:01Z</time></trkpt><trkpt lat="45.29019324511913" lon="9.063061901426869"><ele>93.0</ele><time>2026-03-29T08:00:02Z</time></trkpt><trkpt lat="45.289939367832666" lon="9.062969872812639"><ele>93.5</ele><time>2026-03-29T08:00:03Z</time></trkpt><trkpt lat="45.289692913305736" lon="9.062875979903513"><ele>94.0</ele><time>2026-03-29T08:00:04Z</time></trkpt><trkpt lat="45.28943713797497" lon="9.062786403498935"><ele>94.0</ele><time>2026-03-29T08:00:05Z</time></trkpt><trkpt lat="45.289186142221865" lon="9.062692679884517"><ele>94.0</ele><time>2026-03-29T08:00:06Z</time></trkpt><trkpt lat="45.28893160331116" lon="9.062605206208463"><ele>94.5</ele><time>2026-03-29T08:00:07Z</time></trkpt><trkpt lat="45.288683795517045" lon="9.06251196242635"><ele>95.0</ele><time>2026-03-29T08:00:08Z</time></trkpt><trkpt lat="45.28842972758636" lon="9.062418043623923"><ele>95.0</ele><time>2026-03-29T08:00:09Z</time></trkpt><trkpt lat="45.28817601334519" lon="9.062325288442976"><ele>95.0</ele><time>2026-03-29T08:00:10Z</time></trkpt><trkpt lat="45.287922185968604" lon="9.062231660598217"><ele>96.0</ele><time>2026-03-29T08:00:11Z</time></trkpt><trkpt lat="45.287665799769506" lon="9.062137238250635"><ele>97.0</ele><time>2026-03-29T08:00:12Z</time></trkpt><trkpt lat="45.28741032856539" lon="9.062042009438311"><ele>95.5</ele><time>2026-03-29T08:00:13Z</time></trkpt><trkpt lat="45.2871550880752" lon="9.06194769410216"><ele>94.0</ele><time>2026-03-29T08:00:14Z</time></trkpt><trkpt lat="45.286901935818726" lon="9.061853505410843"><ele>94.0</ele><time>2026-03-29T08:00:15Z</time></trkpt><trkpt lat="45.286647124077696" lon="9.061759829394305"><ele>94.0</ele><time>2026-03-29T08:00:16Z</time></trkpt><trkpt lat="45.28639314067278" lon="9.061664358422737"><ele>94.0</ele><time>2026-03-29T08:00:17Z</time></trkpt><trkpt lat="45.286137564854414" lon="9.061571152183987"><ele>94.0</ele><time>2026-03-29T08:00:18Z</time></trkpt><trkpt lat="45.285881910481024" lon="9.061479522747817"><ele>94.0</ele><time>2026-03-29T08:00:19Z</time></trkpt><trkpt lat="45.28563054173182" lon="9.06138567019637"><ele>94.0</ele><time>2026-03-29T08:00:20Z</time></trkpt><trkpt lat="45.28537343131237" lon="9.061295158770628"><ele>93.5</ele><time>2026-03-29T08:00:21Z</time></trkpt><trkpt lat="45.285118716966046" lon="9.061203730851883"><ele>93.0</ele><time>2026-03-29T08:00:22Z</time></trkpt><trkpt lat="45.28486679686869" lon="9.061108471613563"><ele>93.0</ele><time>2026-03-29T08:00:23Z</time></trkpt><trkpt lat="45.28461136638993" lon="9.06101734115127"><ele>93.0</ele><time>2026-03-29T08:00:24Z</time></trkpt><trkpt lat="45.28435871793807" lon="9.060923330579072"><ele>93.0</ele><time>2026-03-29T08:00:25Z</time></trkpt><trkpt lat="45.28410479577115" lon="9.060826965517172"><ele>93.0</ele><time>2026-03-29T08:00:26Z</time></trkpt><trkpt lat="45.28384952705861" lon="9.060732389448894"><ele>93.0</ele><time>2026-03-29T08:00:27Z</time></trkpt><trkpt lat="45.28359694839604" lon="9.060639332912434"><ele>93.0</ele><time>2026-03-29T08:00:28Z</time></trkpt><trkpt lat="45.28333975584282" lon="9.060546632473278"><ele>94.0</ele><time>2026-03-29T08:00:29Z</time></trkpt><trkpt lat="45.283087566597445" lon="9.060452481418057"><ele>95.0</ele><time>2026-03-29T08:00:30Z</time></trkpt><trkpt lat="45.28283282413248" lon="9.060362487085344"><ele>95.0</ele><time>2026-03-29T08:00:31Z</time></trkpt><trkpt lat="45.282579408275865" lon="9.060265523935078"><ele>95.0</ele><time>2026-03-29T08:00:32Z</time></trkpt><trkpt lat="45.282326038836075" lon="9.060174737304624"><ele>95.0</ele><time>2026-03-29T08:00:33Z</time></trkpt><trkpt lat="45.282090063866455" lon="9.060082267693303"><ele>95.0</ele><time>2026-03-29T08:00:34Z</time></trkpt><trkpt lat="45.281831614776074" lon="9.059987944906307"><ele>95.0</ele><time>2026-03-29T08:00:35Z</time></trkpt><trkpt lat="45.28157878655028" lon="9.059895746720958"><ele>95.0</ele><time>2026-03-29T08:00:36Z</time></trkpt><trkpt lat="45.28132326434613" lon="9.059803886606812"><ele>95.0</ele><time>2026-03-29T08:00:37Z</time></trkpt><trkpt lat="45.2810713256643" lon="9.059712358624838"><ele>95.0</ele><time>2026-03-29T08:00:38Z</time></trkpt><trkpt lat="45.28081808267755" lon="9.059620986409925"><ele>94.5</ele><time>2026-03-29T08:00:39Z</time></trkpt><trkpt lat="45.280572510390115" lon="9.059527151636571"><ele>94.0</ele><time>2026-03-29T08:00:40Z</time></trkpt><trkpt lat="45.28031963380924" lon="9.059432588838805"><ele>94.0</ele><time>2026-03-29T08:00:41Z</time></trkpt><trkpt lat="45.28006744368576" lon="9.059337320149465"><ele>94.0</ele><time>2026-03-29T08:00:42Z</time></trkpt><trkpt lat="45.27981873895763" lon="9.05924412315254"><ele>94.0</ele><time>2026-03-29T08:00:43Z</time></trkpt><trkpt lat="45.27956392200733" lon="9.059155469050646"><ele>94.0</ele><time>2026-03-29T08:00:44Z</time></trkpt><trkpt lat="45.27931384285355" lon="9.05906442593739"><ele>93.0</ele><time>2026-03-29T08:00:45Z</time></trkpt><trkpt lat="45.279066766770846" lon="9.058967428928147"><ele>92.0</ele><time>2026-03-29T08:00:46Z</time></trkpt><trkpt lat="45.278818950954324" lon="9.058876971183064"><ele>92.0</ele><time>2026-03-29T08:00:47Z</time></trkpt><trkpt lat="45.27856823812192" lon="9.058783656846817"><ele>92.0</ele><time>2026-03-29T08:00:48Z</time></trkpt><trkpt lat="45.27831594141726" lon="9.0586921534597"><ele>92.5</ele><time>2026-03-29T08:00:49Z</time></trkpt><trkpt lat="45.27806205646119" lon="9.058600860522075"><ele>93.0</ele><time>2026-03-29T08:00:50Z</time></trkpt><trkpt lat="45.27781033114978" lon="9.05850920257235"><ele>93.0</ele><time>2026-03-29T08:00:51.001Z</time></trkpt><trkpt lat="45.27755603722032" lon="9.058417205973704"><ele>93.0</ele><time>2026-03-29T08:00:52.001Z</time></trkpt><trkpt lat="45.2773064466392" lon="9.058322681197184"><ele>93.0</ele><time>2026-03-29T08:00:53.001Z</time></trkpt><trkpt lat="45.27705210241494" lon="9.058233837310437"><ele>93.0</ele><time>2026-03-29T08:00:54.001Z</time></trkpt><trkpt lat="45.27680337870051" lon="9.058142651899393"><ele>93.0</ele><time>2026-03-29T08:00:55.001Z</time></trkpt><trkpt lat="45.27655619083605" lon="9.058049168605558"><ele>93.0</ele><time>2026-03-29T08:00:56.001Z</time></trkpt><trkpt lat="45.276304630626626" lon="9.057957750766274"><ele>93.0</ele><time>2026-03-29T08:00:57.001Z</time></trkpt><trkpt lat="45.276055697240885" lon="9.057866257650584"><ele>93.0</ele><time>2026-03-29T08:00:58.001Z</time></trkpt><trkpt lat="45.275809071925444" lon="9.057772443021003"><ele>92.5</ele><time>2026-03-29T08:00:59.001Z</time></trkpt><trkpt lat="45.275560516167" lon="9.057680781397577"><ele>92.0</ele><time>2026-03-29T08:01:00.001Z</time></trkpt><trkpt lat="45.27530576410529" lon="9.057592485273853"><ele>92.0</ele><time>2026-03-29T08:01:01.001Z</time></trkpt><trkpt lat="45.275050945638974" lon="9.057500860404842"><ele>92.0</ele><time>2026-03-29T08:01:02.001Z</time></trkpt><trkpt lat="45.274799774340224" lon="9.057405710692944"><ele>93.0</ele><time>2026-03-29T08:01:03.001Z</time></trkpt><trkpt lat="45.274549111031234" lon="9.057311816022409"><ele>94.0</ele><time>2026-03-29T08:01:04.001Z</time></trkpt><trkpt lat="45.27430040476824" lon="9.057217905486715"><ele>94.0</ele><time>2026-03-29T08:01:05.001Z</time></trkpt><trkpt lat="45.274049978170765" lon="9.057128301580207"><ele>94.0</ele><time>2026-03-29T08:01:06Z</time></trkpt><trkpt lat="45.273798636897666" lon="9.0570389510763"><ele>93.5</ele><time>2026-03-29T08:01:07Z</time></trkpt><trkpt lat="45.27354609753191" lon="9.056946518113602"><ele>93.0</ele><time>2026-03-29T08:01:08Z</time></trkpt><trkpt lat="45.27329653938517" lon="9.056852650295149"><ele>93.5</ele><time>2026-03-29T08:01:09Z</time></trkpt><trkpt lat="45.2730442750463" lon="9.056760932509228"><ele>94.0</ele><time>2026-03-29T08:01:10Z</time></trkpt><trkpt lat="45.272796077983266" lon="9.056667413808759"><ele>93.5</ele><time>2026-03-29T08:01:11Z</time></trkpt><trkpt lat="45.2725467030606" lon="9.056573389766031"><ele>93.0</ele><time>2026-03-29T08:01:12Z</time></trkpt><trkpt lat="45.272289998430374" lon="9.056483771434577"><ele>92.5</ele><time>2026-03-29T08:01:13Z</time></trkpt><trkpt lat="45.27203815617986" lon="9.056391621809647"><ele>92.0</ele><time>2026-03-29T08:01:14Z</time></trkpt><trkpt lat="45.271786868832066" lon="9.056299850461416"><ele>92.0</ele><time>2026-03-29T08:01:15Z</time></trkpt><trkpt lat="45.27153476252458" lon="9.056203745186476"><ele>92.0</ele><time>2026-03-29T08:01:16Z</time></trkpt><trkpt lat="45.27128166147873" lon="9.056111628861922"><ele>92.5</ele><time>2026-03-29T08:01:17Z</time></trkpt><trkpt lat="45.27102819516156" lon="9.056017981573797"><ele>93.0</ele><time>2026-03-29T08:01:18Z</time></trkpt><trkpt lat="45.27077480420244" lon="9.055923266245557"><ele>93.0</ele><time>2026-03-29T08:01:19Z</time></trkpt><trkpt lat="45.27052477462524" lon="9.05582645784057"><ele>93.0</ele><time>2026-03-29T08:01:20Z</time></trkpt><trkpt lat="45.27027190144358" lon="9.055736226953469"><ele>92.0</ele><time>2026-03-29T08:01:21Z</time></trkpt><trkpt lat="45.27001730135066" lon="9.055648295320086"><ele>91.0</ele><time>2026-03-29T08:01:22Z</time></trkpt><trkpt lat="45.26976303713298" lon="9.055557675434903"><ele>91.0</ele><time>2026-03-29T08:01:23Z</time></trkpt><trkpt lat="45.26951785454787" lon="9.055463229188739"><ele>91.0</ele><time>2026-03-29T08:01:24Z</time></trkpt><trkpt lat="45.269272295281404" lon="9.055369851701878"><ele>91.0</ele><time>2026-03-29T08:01:25Z</time></trkpt><trkpt lat="45.26902149175809" lon="9.055275441007547"><ele>91.0</ele><time>2026-03-29T08:01:26Z</time></trkpt><trkpt lat="45.268772401023554" lon="9.055184218695663"><ele>91.0</ele><time>2026-03-29T08:01:27Z</time></trkpt><trkpt lat="45.268522096009114" lon="9.0550940004583"><ele>91.0</ele><time>2026-03-29T08:01:28Z</time></trkpt><trkpt lat="45.26826960190011" lon="9.055003869861492"><ele>91.5</ele><time>2026-03-29T08:01:29Z</time></trkpt><trkpt lat="45.268020210055134" lon="9.054910028438696"><ele>92.0</ele><time>2026-03-29T08:01:30Z</time></trkpt><trkpt lat="45.2677690573475" lon="9.054813251574235"><ele>92.0</ele><time>2026-03-29T08:01:31Z</time></trkpt><trkpt lat="45.267519426926285" lon="9.05472590872"><ele>92.0</ele><time>2026-03-29T08:01:32Z</time></trkpt><trkpt lat="45.26727335751949" lon="9.054636632036399"><ele>91.5</ele><time>2026-03-29T08:01:33Z</time></trkpt><trkpt lat="45.26702588511323" lon="9.054545810932021"><ele>91.0</ele><time>2026-03-29T08:01:34Z</time></trkpt><trkpt lat="45.26677552027418" lon="9.054454953451893"><ele>91.0</ele><time>2026-03-29T08:01:35Z</time></trkpt><trkpt lat="45.26652940589033" lon="9.054360126431307"><ele>91.0</ele><time>2026-03-29T08:01:36Z</time></trkpt><trkpt lat="45.266275252339014" lon="9.05426851552925"><ele>91.0</ele><time>2026-03-29T08:01:37Z</time></trkpt><trkpt lat="45.2660232866433" lon="9.054177045466743"><ele>91.0</ele><time>2026-03-29T08:01:38Z</time></trkpt><trkpt lat="45.265772096143124" lon="9.05408362195971"><ele>91.5</ele><time>2026-03-29T08:01:39Z</time></trkpt><trkpt lat="45.265514030829806" lon="9.053994561876427"><ele>92.0</ele><time>2026-03-29T08:01:40Z</time></trkpt><trkpt lat="45.265260918116674" lon="9.05390335167158"><ele>92.0</ele><time>2026-03-29T08:01:41Z</time></trkpt><trkpt lat="45.26500673021086" lon="9.053810770961704"><ele>92.0</ele><time>2026-03-29T08:01:42Z</time></trkpt><trkpt lat="45.264753915853234" lon="9.053715539255794"><ele>92.0</ele><time>2026-03-29T08:01:43Z</time></trkpt><trkpt lat="45.264497885099885" lon="9.053619689278474"><ele>92.0</ele><time>2026-03-29T08:01:44Z</time></trkpt><trkpt lat="45.264243564749094" lon="9.05351895543175"><ele>92.0</ele><time>2026-03-29T08:01:45Z</time></trkpt><trkpt lat="45.263986857140864" lon="9.053419280034387"><ele>92.0</ele><time>2026-03-29T08:01:46Z</time></trkpt><trkpt lat="45.2637381697125" lon="9.053307763331821"><ele>92.5</ele><time>2026-03-29T08:01:47Z</time></trkpt><trkpt lat="45.26348356232804" lon="9.053185105645698"><ele>93.0</ele><time>2026-03-29T08:01:48Z</time></trkpt><trkpt lat="45.26323109697972" lon="9.053063308351993"><ele>91.5</ele><time>2026-03-29T08:01:49Z</time></trkpt><trkpt lat="45.26298162056927" lon="9.052929093216662"><ele>90.0</ele><time>2026-03-29T08:01:50Z</time></trkpt><trkpt lat="45.26273350831031" lon="9.05278616252035"><ele>90.0</ele><time>2026-03-29T08:01:51Z</time></trkpt><trkpt lat="45.26249632985553" lon="9.052631996499608"><ele>90.0</ele><time>2026-03-29T08:01:52Z</time></trkpt><trkpt lat="45.262255462214064" lon="9.052474972409794"><ele>91.0</ele><time>2026-03-29T08:01:53Z</time></trkpt><trkpt lat="45.26201582432799" lon="9.052318059050906"><ele>92.0</ele><time>2026-03-29T08:01:54Z</time></trkpt><trkpt lat="45.26177601155799" lon="9.052163736998493"><ele>92.0</ele><time>2026-03-29T08:01:55Z</time></trkpt><trkpt lat="45.26153446968259" lon="9.052012221595756"><ele>92.0</ele><time>2026-03-29T08:01:56Z</time></trkpt><trkpt lat="45.2612962829829" lon="9.051858486942715"><ele>92.0</ele><time>2026-03-29T08:01:57Z</time></trkpt><trkpt lat="45.26105160427428" lon="9.051708002368402"><ele>92.0</ele><time>2026-03-29T08:01:58Z</time></trkpt><trkpt lat="45.260814674075576" lon="9.051552439893072"><ele>92.0</ele><time>2026-03-29T08:01:59Z</time></trkpt><trkpt lat="45.260576477743236" lon="9.051398693573205"><ele>92.0</ele><time>2026-03-29T08:02:00Z</time></trkpt><trkpt lat="45.260343774827355" lon="9.051242996684522"><ele>92.0</ele><time>2026-03-29T08:02:01Z</time></trkpt><trkpt lat="45.260102508506215" lon="9.051090876741002"><ele>92.0</ele><time>2026-03-29T08:02:02Z</time></trkpt><trkpt lat="45.25986458994471" lon="9.050935884794546"><ele>92.5</ele><time>2026-03-29T08:02:03Z</time></trkpt><trkpt lat="45.259627004757824" lon="9.050783311960007"><ele>93.0</ele><time>2026-03-29T08:02:04Z</time></trkpt><trkpt lat="45.25938720142195" lon="9.050628502227713"><ele>93.0</ele><time>2026-03-29T08:02:05Z</time></trkpt><trkpt lat="45.25914377337013" lon="9.050473959012685"><ele>93.0</ele><time>2026-03-29T08:02:06Z</time></trkpt><trkpt lat="45.25890739845902" lon="9.050318140678252"><ele>92.0</ele><time>2026-03-29T08:02:07Z</time></trkpt><trkpt lat="45.25865255217623" lon="9.050160909700494"><ele>91.0</ele><time>2026-03-29T08:02:08Z</time></trkpt><trkpt lat="45.258416015702394" lon="9.050005235955846"><ele>91.0</ele><time>2026-03-29T08:02:09Z</time></trkpt><trkpt lat="45.25817662070404" lon="9.049849793941007"><ele>91.0</ele><time>2026-03-29T08:02:10Z</time></trkpt><trkpt lat="45.25793270538012" lon="9.049695219243894"><ele>91.0</ele><time>2026-03-29T08:02:11Z</time></trkpt><trkpt lat="45.25769011971491" lon="9.0495398133596"><ele>91.0</ele><time>2026-03-29T08:02:12Z</time></trkpt><trkpt lat="45.25745041680603" lon="9.049384968079455"><ele>91.5</ele><time>2026-03-29T08:02:13Z</time></trkpt><trkpt lat="45.25720680047669" lon="9.049230117666994"><ele>92.0</ele><time>2026-03-29T08:02:14Z</time></trkpt><trkpt lat="45.25696606065697" lon="9.049073582736233"><ele>92.0</ele><time>2026-03-29T08:02:15Z</time></trkpt><trkpt lat="45.25672340823546" lon="9.048918180766535"><ele>92.0</ele><time>2026-03-29T08:02:16Z</time></trkpt><trkpt lat="45.25648119239627" lon="9.048759186544267"><ele>91.5</ele><time>2026-03-29T08:02:17Z</time></trkpt><trkpt lat="45.25623781209368" lon="9.048601932631213"><ele>91.0</ele><time>2026-03-29T08:02:18Z</time></trkpt><trkpt lat="45.255995774119" lon="9.04844735470648"><ele>91.0</ele><time>2026-03-29T08:02:19Z</time></trkpt><trkpt lat="45.25575048708351" lon="9.048293684030895"><ele>91.0</ele><time>2026-03-29T08:02:20Z</time></trkpt><trkpt lat="45.25550610765198" lon="9.048137716131038"><ele>92.0</ele><time>2026-03-29T08:02:21Z</time></trkpt><trkpt lat="45.25525778137091" lon="9.047982466540985"><ele>93.0</ele><time>2026-03-29T08:02:22Z</time></trkpt><trkpt lat="45.25501116685688" lon="9.047822239001983"><ele>92.5</ele><time>2026-03-29T08:02:23Z</time></trkpt><trkpt lat="45.25476760550948" lon="9.04766671499651"><ele>92.0</ele><time>2026-03-29T08:02:24Z</time></trkpt><trkpt lat="45.25452437250445" lon="9.047509514388794"><ele>91.5</ele><time>2026-03-29T08:02:25Z</time></trkpt><trkpt lat="45.25427751049608" lon="9.047352729378266"><ele>91.0</ele><time>2026-03-29T08:02:26Z</time></trkpt><trkpt lat="45.2540323176602" lon="9.047199213704928"><ele>91.5</ele><time>2026-03-29T08:02:27Z</time></trkpt><trkpt lat="45.25378525345496" lon="9.047043580186969"><ele>92.0</ele><time>2026-03-29T08:02:28Z</time></trkpt><trkpt lat="45.25354235876426" lon="9.046888485143525"><ele>92.0</ele><time>2026-03-29T08:02:29Z</time></trkpt><trkpt lat="45.253297743396395" lon="9.046733002498318"><ele>92.0</ele><time>2026-03-29T08:02:30Z</time></trkpt><trkpt lat="45.25305287354087" lon="9.046575784393756"><ele>92.0</ele><time>2026-03-29T08:02:31Z</time></trkpt><trkpt lat="45.25281190534223" lon="9.04641850717361"><ele>92.0</ele><time>2026-03-29T08:02:32Z</time></trkpt><trkpt lat="45.25256927737491" lon="9.046261846400174"><ele>92.0</ele><time>2026-03-29T08:02:33Z</time></trkpt><trkpt lat="45.252323447075554" lon="9.04610414899052"><ele>92.0</ele><time>2026-03-29T08:02:34Z</time></trkpt><trkpt lat="45.25207708201726" lon="9.04594733773662"><ele>91.5</ele><time>2026-03-29T08:02:35Z</time></trkpt><trkpt lat="45.25183834984993" lon="9.045789558362692"><ele>91.0</ele><time>2026-03-29T08:02:36Z</time></trkpt><trkpt lat="45.251590519220464" lon="9.04563512403053"><ele>91.5</ele><time>2026-03-29T08:02:37Z</time></trkpt><trkpt lat="45.251347414693726" lon="9.045476339489891"><ele>92.0</ele><time>2026-03-29T08:02:38Z</time></trkpt><trkpt lat="45.251099620524286" lon="9.04532066971157"><ele>92.0</ele><time>2026-03-29T08:02:39Z</time></trkpt><trkpt lat="45.25085539453757" lon="9.045163290504107"><ele>92.0</ele><time>2026-03-29T08:02:40Z</time></trkpt><trkpt lat="45.250618437920245" lon="9.04500417796682"><ele>91.5</ele><time>2026-03-29T08:02:41Z</time></trkpt><trkpt lat="45.25036689768931" lon="9.044851630862151"><ele>91.0</ele><time>2026-03-29T08:02:42Z</time></trkpt><trkpt lat="45.25012219888551" lon="9.044695215943408"><ele>91.0</ele><time>2026-03-29T08:02:43Z</time></trkpt><trkpt lat="45.249878860557686" lon="9.044540280952507"><ele>91.0</ele><time>2026-03-29T08:02:44Z</time></trkpt><trkpt lat="45.24963489029904" lon="9.044383241560801"><ele>91.0</ele><time>2026-03-29T08:02:45Z</time></trkpt><trkpt lat="45.24939237563111" lon="9.04422500831005"><ele>91.0</ele><time>2026-03-29T08:02:46Z</time></trkpt><trkpt lat="45.24915197773602" lon="9.044066330581217"><ele>91.5</ele><time>2026-03-29T08:02:47Z</time></trkpt><trkpt lat="45.248914396584176" lon="9.0439146758132"><ele>92.0</ele><time>2026-03-29T08:02:48Z</time></trkpt><trkpt lat="45.24865922808071" lon="9.04375357731727"><ele>92.0</ele><time>2026-03-29T08:02:49Z</time></trkpt><trkpt lat="45.2484139217453" lon="9.043595450295884"><ele>92.0</ele><time>2026-03-29T08:02:50Z</time></trkpt><trkpt lat="45.24816634211058" lon="9.043437528135673"><ele>91.0</ele><time>2026-03-29T08:02:51Z</time></trkpt><trkpt lat="45.24791603667653" lon="9.04327988189657"><ele>90.0</ele><time>2026-03-29T08:02:52Z</time></trkpt><trkpt lat="45.24767198464686" lon="9.043115740992986"><ele>90.0</ele><time>2026-03-29T08:02:53Z</time></trkpt><trkpt lat="45.24742518274197" lon="9.04296009642289"><ele>90.0</ele><time>2026-03-29T08:02:54Z</time></trkpt><trkpt lat="45.2471758606541" lon="9.042803644794624"><ele>89.5</ele><time>2026-03-29T08:02:55Z</time></trkpt><trkpt lat="45.246926333030814" lon="9.042644625110883"><ele>89.0</ele><time>2026-03-29T08:02:56.001Z</time></trkpt><trkpt lat="45.24667510700535" lon="9.042487409315148"><ele>90.0</ele><time>2026-03-29T08:02:57.001Z</time></trkpt><trkpt lat="45.24642844883287" lon="9.042330664017749"><ele>91.0</ele><time>2026-03-29T08:02:58.001Z</time></trkpt><trkpt lat="45.24617611004159" lon="9.042173148517024"><ele>91.0</ele><time>2026-03-29T08:02:59.001Z</time></trkpt><trkpt lat="45.245928130488984" lon="9.042012473502005"><ele>91.0</ele><time>2026-03-29T08:03:00.001Z</time></trkpt><trkpt lat="45.24568697295725" lon="9.041855122676193"><ele>91.0</ele><time>2026-03-29T08:03:01.001Z</time></trkpt><trkpt lat="45.245425520373715" lon="9.041676184746107"><ele>91.0</ele><time>2026-03-29T08:03:02.001Z</time></trkpt><trkpt lat="45.245162687462326" lon="9.04148664734198"><ele>90.5</ele><time>2026-03-29T08:03:03.001Z</time></trkpt><trkpt lat="45.244931533027135" lon="9.041348695762796"><ele>90.0</ele><time>2026-03-29T08:03:04.001Z</time></trkpt><trkpt lat="45.24468922341104" lon="9.041187609675491"><ele>89.5</ele><time>2026-03-29T08:03:05.001Z</time></trkpt><trkpt lat="45.244442201783805" lon="9.041022040295863"><ele>89.0</ele><time>2026-03-29T08:03:06.001Z</time></trkpt><trkpt lat="45.244200443427864" lon="9.0408390202501"><ele>89.0</ele><time>2026-03-29T08:03:07.001Z</time></trkpt><trkpt lat="45.243965402870344" lon="9.040648299975512"><ele>89.0</ele><time>2026-03-29T08:03:08.001Z</time></trkpt><trkpt lat="45.24373081394834" lon="9.040455025012092"><ele>88.0</ele><time>2026-03-29T08:03:09.001Z</time></trkpt><trkpt lat="45.243501569188496" lon="9.040252222935136"><ele>87.0</ele><time>2026-03-29T08:03:10.001Z</time></trkpt><trkpt lat="45.24326960262824" lon="9.040047993162007"><ele>85.5</ele><time>2026-03-29T08:03:11.001Z</time></trkpt><trkpt lat="45.24303595319005" lon="9.03984609102516"><ele>84.0</ele><time>2026-03-29T08:03:12.001Z</time></trkpt><trkpt lat="45.2428041832552" lon="9.039639650103272"><ele>84.0</ele><time>2026-03-29T08:03:13.001Z</time></trkpt><trkpt lat="45.24256969195822" lon="9.039437164712858"><ele>84.0</ele><time>2026-03-29T08:03:14.001Z</time></trkpt><trkpt lat="45.24233700095602" lon="9.039234167652152"><ele>84.5</ele><time>2026-03-29T08:03:15.001Z</time></trkpt><trkpt lat="45.242099797062856" lon="9.039031576990428"><ele>85.0</ele><time>2026-03-29T08:03:16.001Z</time></trkpt><trkpt lat="45.24186355294031" lon="9.038828497179203"><ele>85.0</ele><time>2026-03-29T08:03:17.001Z</time></trkpt><trkpt lat="45.241630399183656" lon="9.038623716007407"><ele>85.0</ele><time>2026-03-29T08:03:18.001Z</time></trkpt><trkpt lat="45.241395478297264" lon="9.038422377047647"><ele>83.5</ele><time>2026-03-29T08:03:19.001Z</time></trkpt><trkpt lat="45.24116214640436" lon="9.038209119525144"><ele>82.0</ele><time>2026-03-29T08:03:20.001Z</time></trkpt><trkpt lat="45.24092736408195" lon="9.038009982175428"><ele>82.0</ele><time>2026-03-29T08:03:21Z</time></trkpt><trkpt lat="45.24069409394307" lon="9.037803316960737"><ele>82.0</ele><time>2026-03-29T08:03:22Z</time></trkpt><trkpt lat="45.24045943607461" lon="9.037595005073454"><ele>82.0</ele><time>2026-03-29T08:03:23Z</time></trkpt><trkpt lat="45.24022532450372" lon="9.037387401448512"><ele>82.0</ele><time>2026-03-29T08:03:24Z</time></trkpt><trkpt lat="45.23999448344186" lon="9.037184909497745"><ele>80.5</ele><time>2026-03-29T08:03:25Z</time></trkpt><trkpt lat="45.23975834123896" lon="9.03698712680772"><ele>79.0</ele><time>2026-03-29T08:03:26Z</time></trkpt><trkpt lat="45.23952773646613" lon="9.036785684313237"><ele>80.0</ele><time>2026-03-29T08:03:27Z</time></trkpt><trkpt lat="45.23929671109065" lon="9.036580806569585"><ele>81.0</ele><time>2026-03-29T08:03:28Z</time></trkpt><trkpt lat="45.23906174089152" lon="9.036375733859488"><ele>76.5</ele><time>2026-03-29T08:03:29Z</time></trkpt><trkpt lat="45.238830037991406" lon="9.036171767136649"><ele>72.0</ele><time>2026-03-29T08:03:30Z</time></trkpt><trkpt lat="45.238603088091644" lon="9.035972374643197"><ele>73.0</ele><time>2026-03-29T08:03:31Z</time></trkpt><trkpt lat="45.23837332489069" lon="9.035773539501017"><ele>74.0</ele><time>2026-03-29T08:03:32Z</time></trkpt><trkpt lat="45.238148478557164" lon="9.035576620738423"><ele>71.5</ele><time>2026-03-29T08:03:33Z</time></trkpt><trkpt lat="45.23792741922483" lon="9.035377952105417"><ele>69.0</ele><time>2026-03-29T08:03:34Z</time></trkpt><trkpt lat="45.237705445313374" lon="9.035182679019593"><ele>69.0</ele><time>2026-03-29T08:03:35Z</time></trkpt><trkpt lat="45.237480389993294" lon="9.034991628666457"><ele>69.0</ele><time>2026-03-29T08:03:36Z</time></trkpt><trkpt lat="45.23725670309518" lon="9.034800667207364"><ele>69.0</ele><time>2026-03-29T08:03:37Z</time></trkpt><trkpt lat="45.23703592333489" lon="9.034612242518845"><ele>69.0</ele><time>2026-03-29T08:03:38Z</time></trkpt><trkpt lat="45.236813093500544" lon="9.03441806641651"><ele>69.0</ele><time>2026-03-29T08:03:39Z</time></trkpt><trkpt lat="45.23659024298772" lon="9.03421860122936"><ele>69.0</ele><time>2026-03-29T08:03:40Z</time></trkpt><trkpt lat="45.236367800272376" lon="9.034021716025405"><ele>67.0</ele><time>2026-03-29T08:03:41Z</time></trkpt><trkpt lat="45.23614413820367" lon="9.033827799540349"><ele>65.0</ele><time>2026-03-29T08:03:42Z</time></trkpt><trkpt lat="45.23592197496239" lon="9.033635788351509"><ele>65.0</ele><time>2026-03-29T08:03:43Z</time></trkpt><trkpt lat="45.235702890574665" lon="9.033444131303073"><ele>65.0</ele><time>2026-03-29T08:03:44Z</time></trkpt><trkpt lat="45.235484371206994" lon="9.033258670650381"><ele>66.5</ele><time>2026-03-29T08:03:45Z</time></trkpt><trkpt lat="45.23526805039911" lon="9.033068767580227"><ele>68.0</ele><time>2026-03-29T08:03:46Z</time></trkpt><trkpt lat="45.23504649580681" lon="9.03287890340527"><ele>68.0</ele><time>2026-03-29T08:03:47Z</time></trkpt><trkpt lat="45.23482260637467" lon="9.032685300456473"><ele>68.0</ele><time>2026-03-29T08:03:48Z</time></trkpt><trkpt lat="45.234602945303905" lon="9.032489299406846"><ele>67.5</ele><time>2026-03-29T08:03:49Z</time></trkpt><trkpt lat="45.2343799219759" lon="9.032297805883008"><ele>67.0</ele><time>2026-03-29T08:03:50Z</time></trkpt><trkpt lat="45.23416263645495" lon="9.032106405536744"><ele>66.0</ele><time>2026-03-29T08:03:51Z</time></trkpt><trkpt lat="45.23394662334464" lon="9.031917234496127"><ele>65.0</ele><time>2026-03-29T08:03:52Z</time></trkpt><trkpt lat="45.23372934058847" lon="9.031725900233525"><ele>64.5</ele><time>2026-03-29T08:03:53Z</time></trkpt><trkpt lat="45.23350935273981" lon="9.031535074484365"><ele>64.0</ele><time>2026-03-29T08:03:54Z</time></trkpt><trkpt lat="45.23328963338028" lon="9.031340331412622"><ele>64.5</ele><time>2026-03-29T08:03:55Z</time></trkpt><trkpt lat="45.23306623949365" lon="9.031150746341629"><ele>65.0</ele><time>2026-03-29T08:03:56Z</time></trkpt><trkpt lat="45.23284826604132" lon="9.030960980872736"><ele>65.5</ele><time>2026-03-29T08:03:57Z</time></trkpt><trkpt lat="45.2326322867664" lon="9.030772191243852"><ele>66.0</ele><time>2026-03-29T08:03:58Z</time></trkpt><trkpt lat="45.23241387800862" lon="9.030586720024239"><ele>65.0</ele><time>2026-03-29T08:03:59Z</time></trkpt><trkpt lat="45.23219793550191" lon="9.030400168059918"><ele>64.0</ele><time>2026-03-29T08:04:00Z</time></trkpt><trkpt lat="45.23197953653708" lon="9.030210670324921"><ele>64.0</ele><time>2026-03-29T08:04:01Z</time></trkpt><trkpt lat="45.23176073481797" lon="9.03002274041403"><ele>64.0</ele><time>2026-03-29T08:04:02Z</time></trkpt><trkpt lat="45.231543874880145" lon="9.02983494624829"><ele>64.0</ele><time>2026-03-29T08:04:03Z</time></trkpt><trkpt lat="45.231328201638675" lon="9.029645271209365"><ele>64.0</ele><time>2026-03-29T08:04:04Z</time></trkpt><trkpt lat="45.23109425834904" lon="9.029463128293015"><ele>64.0</ele><time>2026-03-29T08:04:05Z</time></trkpt><trkpt lat="45.23084460149153" lon="9.029267701709744"><ele>64.0</ele><time>2026-03-29T08:04:06Z</time></trkpt><trkpt lat="45.23059146957736" lon="9.029061447271884"><ele>64.0</ele><time>2026-03-29T08:04:07Z</time></trkpt><trkpt lat="45.230340258603526" lon="9.028849155669999"><ele>64.0</ele><time>2026-03-29T08:04:08Z</time></trkpt><trkpt lat="45.23009409118572" lon="9.028628625133049"><ele>64.0</ele><time>2026-03-29T08:04:09Z</time></trkpt><trkpt lat="45.2298399023232" lon="9.028402688926416"><ele>64.0</ele><time>2026-03-29T08:04:10Z</time></trkpt><trkpt lat="45.22958317581539" lon="9.02817454266453"><ele>65.5</ele><time>2026-03-29T08:04:11Z</time></trkpt><trkpt lat="45.22933933113344" lon="9.027949574008424"><ele>67.0</ele><time>2026-03-29T08:04:12Z</time></trkpt><trkpt lat="45.22909389449157" lon="9.027721351732701"><ele>67.5</ele><time>2026-03-29T08:04:13Z</time></trkpt><trkpt lat="45.22885169343318" lon="9.027499659004883"><ele>68.0</ele><time>2026-03-29T08:04:14Z</time></trkpt><trkpt lat="45.22861661121398" lon="9.02728685384437"><ele>67.0</ele><time>2026-03-29T08:04:15Z</time></trkpt><trkpt lat="45.22837992655342" lon="9.02707452651623"><ele>66.0</ele><time>2026-03-29T08:04:16Z</time></trkpt><trkpt lat="45.228141229578824" lon="9.026867599634999"><ele>66.0</ele><time>2026-03-29T08:04:17Z</time></trkpt><trkpt lat="45.227913069733816" lon="9.026661323421735"><ele>66.0</ele><time>2026-03-29T08:04:18Z</time></trkpt><trkpt lat="45.22768140477632" lon="9.026456353373021"><ele>65.5</ele><time>2026-03-29T08:04:19Z</time></trkpt><trkpt lat="45.22745331429183" lon="9.026258295323622"><ele>65.0</ele><time>2026-03-29T08:04:20Z</time></trkpt><trkpt lat="45.22722719901047" lon="9.026056491495488"><ele>65.0</ele><time>2026-03-29T08:04:21Z</time></trkpt><trkpt lat="45.226999754784636" lon="9.02586194672651"><ele>65.0</ele><time>2026-03-29T08:04:22Z</time></trkpt><trkpt lat="45.22677313898211" lon="9.025669741635879"><ele>64.0</ele><time>2026-03-29T08:04:23Z</time></trkpt><trkpt lat="45.22654993235747" lon="9.025477594728297"><ele>63.0</ele><time>2026-03-29T08:04:24Z</time></trkpt><trkpt lat="45.226336059106956" lon="9.025291701386456"><ele>62.5</ele><time>2026-03-29T08:04:25Z</time></trkpt><trkpt lat="45.22611663201103" lon="9.025098193486901"><ele>62.0</ele><time>2026-03-29T08:04:26Z</time></trkpt><trkpt lat="45.22589755132165" lon="9.024904801552827"><ele>61.5</ele><time>2026-03-29T08:04:27Z</time></trkpt><trkpt lat="45.22567949049624" lon="9.024711846336777"><ele>61.0</ele><time>2026-03-29T08:04:28Z</time></trkpt><trkpt lat="45.22546280094678" lon="9.02452346924658"><ele>61.0</ele><time>2026-03-29T08:04:29Z</time></trkpt><trkpt lat="45.225251182741985" lon="9.024333703966438"><ele>61.0</ele><time>2026-03-29T08:04:30Z</time></trkpt><trkpt lat="45.22503358816413" lon="9.024147705902354"><ele>61.5</ele><time>2026-03-29T08:04:31Z</time></trkpt><trkpt lat="45.224820442425845" lon="9.023963972105282"><ele>62.0</ele><time>2026-03-29T08:04:32Z</time></trkpt><trkpt lat="45.224606744300246" lon="9.023776163926028"><ele>62.5</ele><time>2026-03-29T08:04:33Z</time></trkpt><trkpt lat="45.2243954238741" lon="9.023589917610048"><ele>63.0</ele><time>2026-03-29T08:04:34Z</time></trkpt><trkpt lat="45.224182538711005" lon="9.023401288820732"><ele>63.5</ele><time>2026-03-29T08:04:35Z</time></trkpt><trkpt lat="45.2239709858186" lon="9.023217393199554"><ele>64.0</ele><time>2026-03-29T08:04:36Z</time></trkpt><trkpt lat="45.223758230241984" lon="9.023031565248612"><ele>64.0</ele><time>2026-03-29T08:04:37Z</time></trkpt><trkpt lat="45.223544338524825" lon="9.022841612313249"><ele>64.0</ele><time>2026-03-29T08:04:38Z</time></trkpt><trkpt lat="45.223330140177666" lon="9.022653862186623"><ele>62.5</ele><time>2026-03-29T08:04:39Z</time></trkpt><trkpt lat="45.22311288599934" lon="9.02246517752893"><ele>61.0</ele><time>2026-03-29T08:04:40Z</time></trkpt><trkpt lat="45.22289524238044" lon="9.02227494480575"><ele>61.0</ele><time>2026-03-29T08:04:41Z</time></trkpt><trkpt lat="45.22267913357799" lon="9.022088313628407"><ele>61.0</ele><time>2026-03-29T08:04:42Z</time></trkpt><trkpt lat="45.22245968436376" lon="9.021897068319491"><ele>62.5</ele><time>2026-03-29T08:04:43Z</time></trkpt><trkpt lat="45.22223925277853" lon="9.021701482954676"><ele>64.0</ele><time>2026-03-29T08:04:44Z</time></trkpt><trkpt lat="45.222020494981685" lon="9.021505029312795"><ele>64.0</ele><time>2026-03-29T08:04:45Z</time></trkpt><trkpt lat="45.221800459548355" lon="9.021314192909426"><ele>64.0</ele><time>2026-03-29T08:04:46Z</time></trkpt><trkpt lat="45.22157395650844" lon="9.021120768036894"><ele>63.5</ele><time>2026-03-29T08:04:47Z</time></trkpt><trkpt lat="45.2213499199016" lon="9.020927084719839"><ele>63.0</ele><time>2026-03-29T08:04:48Z</time></trkpt><trkpt lat="45.22112709390653" lon="9.020734344563673"><ele>63.0</ele><time>2026-03-29T08:04:49Z</time></trkpt><trkpt lat="45.220905024896346" lon="9.020541806429518"><ele>63.0</ele><time>2026-03-29T08:04:50Z</time></trkpt><trkpt lat="45.220681392584304" lon="9.020346429443713"><ele>62.5</ele><time>2026-03-29T08:04:51Z</time></trkpt><trkpt lat="45.220460072630694" lon="9.020152492058653"><ele>62.0</ele><time>2026-03-29T08:04:52Z</time></trkpt><trkpt lat="45.22024088826804" lon="9.019957197706182"><ele>62.0</ele><time>2026-03-29T08:04:53Z</time></trkpt><trkpt lat="45.22001905612112" lon="9.01976448410623"><ele>62.0</ele><time>2026-03-29T08:04:54Z</time></trkpt><trkpt lat="45.21980151986414" lon="9.01957731411367"><ele>63.0</ele><time>2026-03-29T08:04:55Z</time></trkpt><trkpt lat="45.219578411292744" lon="9.019390639193904"><ele>64.0</ele><time>2026-03-29T08:04:56Z</time></trkpt><trkpt lat="45.21935599878103" lon="9.01921239165371"><ele>64.0</ele><time>2026-03-29T08:04:57Z</time></trkpt><trkpt lat="45.21912996253193" lon="9.019036093175025"><ele>64.0</ele><time>2026-03-29T08:04:58Z</time></trkpt><trkpt lat="45.21889891497833" lon="9.018865300826157"><ele>64.0</ele><time>2026-03-29T08:04:59Z</time></trkpt><trkpt lat="45.21865990592975" lon="9.018707169089947"><ele>64.0</ele><time>2026-03-29T08:05:00Z</time></trkpt><trkpt lat="45.21842279219612" lon="9.018553974571034"><ele>64.0</ele><time>2026-03-29T08:05:01Z</time></trkpt><trkpt lat="45.21818227651721" lon="9.018406957124679"><ele>64.0</ele><time>2026-03-29T08:05:02Z</time></trkpt><trkpt lat="45.21793123424989" lon="9.018272156188509"><ele>63.5</ele><time>2026-03-29T08:05:03Z</time></trkpt><trkpt lat="45.21768135167188" lon="9.018143341364532"><ele>63.0</ele><time>2026-03-29T08:05:04Z</time></trkpt><trkpt lat="45.21743188341805" lon="9.018022155056812"><ele>64.5</ele><time>2026-03-29T08:05:05Z</time></trkpt><trkpt lat="45.21717997012446" lon="9.017911115007701"><ele>66.0</ele><time>2026-03-29T08:05:06Z</time></trkpt><trkpt lat="45.216926549044366" lon="9.017810993732821"><ele>66.0</ele><time>2026-03-29T08:05:07Z</time></trkpt><trkpt lat="45.21667248663098" lon="9.017719344575054"><ele>66.0</ele><time>2026-03-29T08:05:08Z</time></trkpt><trkpt lat="45.21642128191426" lon="9.017640093377274"><ele>64.5</ele><time>2026-03-29T08:05:09Z</time></trkpt><trkpt lat="45.216168971920354" lon="9.0175714346016"><ele>63.0</ele><time>2026-03-29T08:05:10Z</time></trkpt><trkpt lat="45.21591498362066" lon="9.017501309505395"><ele>63.0</ele><time>2026-03-29T08:05:11Z</time></trkpt><trkpt lat="45.21566024308835" lon="9.017442324652919"><ele>63.0</ele><time>2026-03-29T08:05:12Z</time></trkpt><trkpt lat="45.2154047294507" lon="9.01738883689256"><ele>63.5</ele><time>2026-03-29T08:05:13Z</time></trkpt><trkpt lat="45.21515017436557" lon="9.017338593317334"><ele>64.0</ele><time>2026-03-29T08:05:14Z</time></trkpt><trkpt lat="45.21489332010845" lon="9.017285196338753"><ele>64.0</ele><time>2026-03-29T08:05:15Z</time></trkpt><trkpt lat="45.214638498548645" lon="9.017228909664755"><ele>64.0</ele><time>2026-03-29T08:05:16Z</time></trkpt><trkpt lat="45.21438526414958" lon="9.017171364677525"><ele>64.0</ele><time>2026-03-29T08:05:17Z</time></trkpt><trkpt lat="45.21412888662098" lon="9.017116686212873"><ele>64.0</ele><time>2026-03-29T08:05:18Z</time></trkpt><trkpt lat="45.213875930389214" lon="9.017062356598517"><ele>64.0</ele><time>2026-03-29T08:05:19Z</time></trkpt><trkpt lat="45.2136210795829" lon="9.017011551085718"><ele>64.0</ele><time>2026-03-29T08:05:20Z</time></trkpt><trkpt lat="45.213366246424556" lon="9.016960608335237"><ele>64.0</ele><time>2026-03-29T08:05:21Z</time></trkpt><trkpt lat="45.21310707381163" lon="9.016908232491454"><ele>64.0</ele><time>2026-03-29T08:05:22Z</time></trkpt><trkpt lat="45.21285035360352" lon="9.016855284604"><ele>64.0</ele><time>2026-03-29T08:05:23Z</time></trkpt><trkpt lat="45.21259654284632" lon="9.016801253715254"><ele>64.0</ele><time>2026-03-29T08:05:24Z</time></trkpt><trkpt lat="45.21233878558796" lon="9.016746227240827"><ele>63.5</ele><time>2026-03-29T08:05:25Z</time></trkpt><trkpt lat="45.21208824103241" lon="9.016685185698426"><ele>63.0</ele><time>2026-03-29T08:05:26Z</time></trkpt><trkpt lat="45.211828255352934" lon="9.016626967296196"><ele>63.0</ele><time>2026-03-29T08:05:27Z</time></trkpt><trkpt lat="45.21157010891835" lon="9.016571444124862"><ele>63.0</ele><time>2026-03-29T08:05:28Z</time></trkpt><trkpt lat="45.21131142733205" lon="9.01652273772086"><ele>64.0</ele><time>2026-03-29T08:05:29Z</time></trkpt><trkpt lat="45.21105647675277" lon="9.01648172250448"><ele>65.0</ele><time>2026-03-29T08:05:30Z</time></trkpt><trkpt lat="45.21080230513206" lon="9.01645272063293"><ele>65.0</ele><time>2026-03-29T08:05:31Z</time></trkpt><trkpt lat="45.21054509959235" lon="9.0164339698531"><ele>65.0</ele><time>2026-03-29T08:05:32Z</time></trkpt><trkpt lat="45.21028807283738" lon="9.016424712906856"><ele>65.0</ele><time>2026-03-29T08:05:33Z</time></trkpt><trkpt lat="45.21003219906843" lon="9.016417510938467"><ele>65.0</ele><time>2026-03-29T08:05:34Z</time></trkpt><trkpt lat="45.20977874383185" lon="9.016417656442185"><ele>65.0</ele><time>2026-03-29T08:05:35Z</time></trkpt><trkpt lat="45.20952493642564" lon="9.016429167683254"><ele>65.0</ele><time>2026-03-29T08:05:36Z</time></trkpt><trkpt lat="45.20926401621454" lon="9.016452068795967"><ele>65.0</ele><time>2026-03-29T08:05:37Z</time></trkpt><trkpt lat="45.209004645167134" lon="9.016487539606192"><ele>65.0</ele><time>2026-03-29T08:05:38Z</time></trkpt><trkpt lat="45.20874598843793" lon="9.016524906714082"><ele>64.5</ele><time>2026-03-29T08:05:39Z</time></trkpt><trkpt lat="45.20848760667003" lon="9.016571046967094"><ele>64.0</ele><time>2026-03-29T08:05:40Z</time></trkpt><trkpt lat="45.20822899678134" lon="9.016629674322568"><ele>65.0</ele><time>2026-03-29T08:05:41Z</time></trkpt><trkpt lat="45.207970877063445" lon="9.016687818365165"><ele>66.0</ele><time>2026-03-29T08:05:42Z</time></trkpt><trkpt lat="45.20771452641219" lon="9.016745135716997"><ele>66.0</ele><time>2026-03-29T08:05:43Z</time></trkpt><trkpt lat="45.2074608534675" lon="9.016799929905693"><ele>66.0</ele><time>2026-03-29T08:05:44Z</time></trkpt><trkpt lat="45.20720617719724" lon="9.01685322764772"><ele>66.0</ele><time>2026-03-29T08:05:45Z</time></trkpt><trkpt lat="45.206950721158606" lon="9.016907712949871"><ele>66.0</ele><time>2026-03-29T08:05:46Z</time></trkpt><trkpt lat="45.206698275971455" lon="9.016958889059651"><ele>66.0</ele><time>2026-03-29T08:05:47Z</time></trkpt><trkpt lat="45.20644910304556" lon="9.017010558401562"><ele>66.0</ele><time>2026-03-29T08:05:48Z</time></trkpt><trkpt lat="45.20619766687239" lon="9.017062317807444"><ele>66.0</ele><time>2026-03-29T08:05:49Z</time></trkpt><trkpt lat="45.20594205323932" lon="9.017120066299876"><ele>66.0</ele><time>2026-03-29T08:05:50Z</time></trkpt><trkpt lat="45.20568616054907" lon="9.017175282969678"><ele>66.5</ele><time>2026-03-29T08:05:51Z</time></trkpt><trkpt lat="45.205432645238105" lon="9.017231574642937"><ele>67.0</ele><time>2026-03-29T08:05:52Z</time></trkpt><trkpt lat="45.20517978275733" lon="9.01728635121794"><ele>67.0</ele><time>2026-03-29T08:05:53Z</time></trkpt><trkpt lat="45.204918887956495" lon="9.017345045551348"><ele>67.0</ele><time>2026-03-29T08:05:54Z</time></trkpt><trkpt lat="45.204659400106486" lon="9.017399172178184"><ele>67.0</ele><time>2026-03-29T08:05:55Z</time></trkpt><trkpt lat="45.20440624834748" lon="9.017453848698658"><ele>67.0</ele><time>2026-03-29T08:05:56Z</time></trkpt><trkpt lat="45.20414531345235" lon="9.017514362981782"><ele>67.0</ele><time>2026-03-29T08:05:57Z</time></trkpt><trkpt lat="45.20388604485414" lon="9.017567432424464"><ele>67.0</ele><time>2026-03-29T08:05:58Z</time></trkpt><trkpt lat="45.203629558673036" lon="9.017619558757445"><ele>67.0</ele><time>2026-03-29T08:05:59Z</time></trkpt><trkpt lat="45.2033690530328" lon="9.017670699080632"><ele>67.0</ele><time>2026-03-29T08:06:00Z</time></trkpt><trkpt lat="45.20310494785356" lon="9.01773093646245"><ele>66.5</ele><time>2026-03-29T08:06:01Z</time></trkpt><trkpt lat="45.202837721773946" lon="9.017782572753411"><ele>66.0</ele><time>2026-03-29T08:06:02Z</time></trkpt><trkpt lat="45.20257779048531" lon="9.01783531105807"><ele>65.0</ele><time>2026-03-29T08:06:03Z</time></trkpt><trkpt lat="45.2023191035311" lon="9.017887566749245"><ele>64.0</ele><time>2026-03-29T08:06:04Z</time></trkpt><trkpt lat="45.20206041726172" lon="9.017938762809063"><ele>64.0</ele><time>2026-03-29T08:06:05Z</time></trkpt><trkpt lat="45.201801739977356" lon="9.017987400198283"><ele>64.0</ele><time>2026-03-29T08:06:06Z</time></trkpt><trkpt lat="45.201542804288884" lon="9.018039545584177"><ele>64.5</ele><time>2026-03-29T08:06:07Z</time></trkpt><trkpt lat="45.20128543338999" lon="9.018088171610755"><ele>65.0</ele><time>2026-03-29T08:06:08Z</time></trkpt><trkpt lat="45.201027794426814" lon="9.01813586055495"><ele>65.0</ele><time>2026-03-29T08:06:09Z</time></trkpt><trkpt lat="45.20077028224781" lon="9.018176774984891"><ele>65.0</ele><time>2026-03-29T08:06:10Z</time></trkpt><trkpt lat="45.20051018916695" lon="9.018211802864741"><ele>65.0</ele><time>2026-03-29T08:06:11Z</time></trkpt><trkpt lat="45.200251149623284" lon="9.018233051902818"><ele>65.0</ele><time>2026-03-29T08:06:12Z</time></trkpt><trkpt lat="45.19999964870817" lon="9.0182343608468"><ele>65.0</ele><time>2026-03-29T08:06:13Z</time></trkpt><trkpt lat="45.19974688900489" lon="9.018218954996385"><ele>65.0</ele><time>2026-03-29T08:06:14Z</time></trkpt><trkpt lat="45.19950006545543" lon="9.018196267065493"><ele>65.0</ele><time>2026-03-29T08:06:15Z</time></trkpt><trkpt lat="45.19924412308288" lon="9.018171255946605"><ele>65.0</ele><time>2026-03-29T08:06:16Z</time></trkpt><trkpt lat="45.19899312309546" lon="9.018136909134078"><ele>64.5</ele><time>2026-03-29T08:06:17Z</time></trkpt><trkpt lat="45.19874301484681" lon="9.018092790104571"><ele>64.0</ele><time>2026-03-29T08:06:18Z</time></trkpt><trkpt lat="45.19849709055505" lon="9.018038446335753"><ele>64.0</ele><time>2026-03-29T08:06:19Z</time></trkpt><trkpt lat="45.19825115501264" lon="9.017972540068678"><ele>64.0</ele><time>2026-03-29T08:06:20Z</time></trkpt><trkpt lat="45.19800635907496" lon="9.017896403487642"><ele>64.0</ele><time>2026-03-29T08:06:21Z</time></trkpt><trkpt lat="45.19775858682331" lon="9.017812486401292"><ele>64.0</ele><time>2026-03-29T08:06:22Z</time></trkpt><trkpt lat="45.19751521443262" lon="9.01771782989645"><ele>64.5</ele><time>2026-03-29T08:06:23Z</time></trkpt><trkpt lat="45.19727016331542" lon="9.017613423846198"><ele>65.0</ele><time>2026-03-29T08:06:24Z</time></trkpt><trkpt lat="45.19703114132432" lon="9.017495091356357"><ele>65.0</ele><time>2026-03-29T08:06:25Z</time></trkpt><trkpt lat="45.196793006651575" lon="9.017367008038432"><ele>65.0</ele><time>2026-03-29T08:06:26Z</time></trkpt><trkpt lat="45.19655354654723" lon="9.017226428012608"><ele>65.0</ele><time>2026-03-29T08:06:27Z</time></trkpt><trkpt lat="45.196316949002714" lon="9.017081883004735"><ele>65.0</ele><time>2026-03-29T08:06:28Z</time></trkpt><trkpt lat="45.196073902418746" lon="9.016933971987745"><ele>65.0</ele><time>2026-03-29T08:06:29Z</time></trkpt><trkpt lat="45.19583238735924" lon="9.01678637450653"><ele>65.0</ele><time>2026-03-29T08:06:30Z</time></trkpt><trkpt lat="45.19559117435176" lon="9.01664531747301"><ele>65.0</ele><time>2026-03-29T08:06:31Z</time></trkpt><trkpt lat="45.195355090547174" lon="9.016501481386486"><ele>65.0</ele><time>2026-03-29T08:06:32Z</time></trkpt><trkpt lat="45.195113852485655" lon="9.016358231110225"><ele>65.0</ele><time>2026-03-29T08:06:33Z</time></trkpt><trkpt lat="45.19487903005186" lon="9.016215426909463"><ele>65.0</ele><time>2026-03-29T08:06:34Z</time></trkpt><trkpt lat="45.194636973735754" lon="9.016072743161342"><ele>65.0</ele><time>2026-03-29T08:06:35Z</time></trkpt><trkpt lat="45.19439473420239" lon="9.015930145319532"><ele>65.0</ele><time>2026-03-29T08:06:36Z</time></trkpt><trkpt lat="45.19416057660594" lon="9.015788467263874"><ele>65.0</ele><time>2026-03-29T08:06:37Z</time></trkpt><trkpt lat="45.19392477570823" lon="9.015645304148276"><ele>65.0</ele><time>2026-03-29T08:06:38Z</time></trkpt><trkpt lat="45.1936821219063" lon="9.015503317844354"><ele>65.0</ele><time>2026-03-29T08:06:39Z</time></trkpt><trkpt lat="45.19344456496676" lon="9.015358558545323"><ele>65.0</ele><time>2026-03-29T08:06:40Z</time></trkpt><trkpt lat="45.19321004731532" lon="9.015217222560876"><ele>65.0</ele><time>2026-03-29T08:06:41Z</time></trkpt><trkpt lat="45.19296930573865" lon="9.015074024843411"><ele>65.0</ele><time>2026-03-29T08:06:42Z</time></trkpt><trkpt lat="45.19272847842907" lon="9.014929938428727"><ele>65.0</ele><time>2026-03-29T08:06:43Z</time></trkpt><trkpt lat="45.19248931704736" lon="9.014789256245326"><ele>65.0</ele><time>2026-03-29T08:06:44Z</time></trkpt><trkpt lat="45.19225399664084" lon="9.014646321753665"><ele>65.0</ele><time>2026-03-29T08:06:45Z</time></trkpt><trkpt lat="45.19201164533421" lon="9.014505802507507"><ele>65.0</ele><time>2026-03-29T08:06:46Z</time></trkpt><trkpt lat="45.19177176809822" lon="9.01436450748159"><ele>65.0</ele><time>2026-03-29T08:06:47Z</time></trkpt><trkpt lat="45.19153143880026" lon="9.014221062304546"><ele>65.0</ele><time>2026-03-29T08:06:48Z</time></trkpt><trkpt lat="45.1912872672078" lon="9.014077731917805"><ele>65.0</ele><time>2026-03-29T08:06:49Z</time></trkpt><trkpt lat="45.19104339551483" lon="9.0139339965776"><ele>65.0</ele><time>2026-03-29T08:06:50Z</time></trkpt><trkpt lat="45.1908024880984" lon="9.013787337713547"><ele>65.0</ele><time>2026-03-29T08:06:51Z</time></trkpt><trkpt lat="45.19056045191004" lon="9.01364156484173"><ele>65.0</ele><time>2026-03-29T08:06:52Z</time></trkpt><trkpt lat="45.190320905666006" lon="9.013496445784838"><ele>65.0</ele><time>2026-03-29T08:06:53Z</time></trkpt><trkpt lat="45.19008144432638" lon="9.013352546118663"><ele>65.0</ele><time>2026-03-29T08:06:54Z</time></trkpt><trkpt lat="45.189845438593416" lon="9.013212999248767"><ele>65.0</ele><time>2026-03-29T08:06:55Z</time></trkpt><trkpt lat="45.189609812040494" lon="9.013072881486428"><ele>65.0</ele><time>2026-03-29T08:06:56Z</time></trkpt><trkpt lat="45.1893716409169" lon="9.012933655874438"><ele>65.0</ele><time>2026-03-29T08:06:57Z</time></trkpt><trkpt lat="45.18913731618714" lon="9.01279686372523"><ele>65.0</ele><time>2026-03-29T08:06:58Z</time></trkpt><trkpt lat="45.18890307486752" lon="9.012657791087143"><ele>66.0</ele><time>2026-03-29T08:06:59Z</time></trkpt><trkpt lat="45.1886633583338" lon="9.012515283762273"><ele>67.0</ele><time>2026-03-29T08:07:00Z</time></trkpt><trkpt lat="45.18842497704355" lon="9.012372371062373"><ele>67.0</ele><time>2026-03-29T08:07:01Z</time></trkpt><trkpt lat="45.18818619119403" lon="9.01223212185038"><ele>67.0</ele><time>2026-03-29T08:07:02Z</time></trkpt><trkpt lat="45.18794547164795" lon="9.012089301810084"><ele>66.5</ele><time>2026-03-29T08:07:03Z</time></trkpt><trkpt lat="45.187703834217075" lon="9.01195011945051"><ele>66.0</ele><time>2026-03-29T08:07:04Z</time></trkpt><trkpt lat="45.18746445224659" lon="9.01180777771437"><ele>66.0</ele><time>2026-03-29T08:07:05Z</time></trkpt><trkpt lat="45.18722727380401" lon="9.011665124728026"><ele>66.0</ele><time>2026-03-29T08:07:06Z</time></trkpt><trkpt lat="45.18698985437589" lon="9.011520366404303"><ele>66.0</ele><time>2026-03-29T08:07:07Z</time></trkpt><trkpt lat="45.18674703541192" lon="9.01138192266741"><ele>66.0</ele><time>2026-03-29T08:07:08Z</time></trkpt><trkpt lat="45.186510504283994" lon="9.0112372146617"><ele>65.0</ele><time>2026-03-29T08:07:09Z</time></trkpt><trkpt lat="45.186267029276934" lon="9.01109440889439"><ele>64.0</ele><time>2026-03-29T08:07:10Z</time></trkpt><trkpt lat="45.186028341221075" lon="9.010949445517218"><ele>64.0</ele><time>2026-03-29T08:07:11Z</time></trkpt><trkpt lat="45.185785653146816" lon="9.010806821852785"><ele>64.0</ele><time>2026-03-29T08:07:12Z</time></trkpt><trkpt lat="45.185546695519484" lon="9.01066096242348"><ele>64.0</ele><time>2026-03-29T08:07:13Z</time></trkpt><trkpt lat="45.18530499949054" lon="9.01051616425806"><ele>64.0</ele><time>2026-03-29T08:07:14Z</time></trkpt><trkpt lat="45.185065261557305" lon="9.010371811500576"><ele>63.5</ele><time>2026-03-29T08:07:15Z</time></trkpt><trkpt lat="45.18482150968135" lon="9.010225247401232"><ele>63.0</ele><time>2026-03-29T08:07:16Z</time></trkpt><trkpt lat="45.18458438177182" lon="9.01008372967183"><ele>63.5</ele><time>2026-03-29T08:07:17Z</time></trkpt><trkpt lat="45.18434329552917" lon="9.009942502266746"><ele>64.0</ele><time>2026-03-29T08:07:18Z</time></trkpt><trkpt lat="45.18410461044947" lon="9.009800978538468"><ele>64.5</ele><time>2026-03-29T08:07:19Z</time></trkpt><trkpt lat="45.18386582150643" lon="9.00966121551314"><ele>65.0</ele><time>2026-03-29T08:07:20Z</time></trkpt><trkpt lat="45.18362677214648" lon="9.009522852624833"><ele>65.0</ele><time>2026-03-29T08:07:21Z</time></trkpt><trkpt lat="45.183391352971626" lon="9.009379351308894"><ele>65.0</ele><time>2026-03-29T08:07:22Z</time></trkpt><trkpt lat="45.1831530678317" lon="9.009239011047754"><ele>65.0</ele><time>2026-03-29T08:07:23Z</time></trkpt><trkpt lat="45.18290720085723" lon="9.009100776058728"><ele>65.0</ele><time>2026-03-29T08:07:24Z</time></trkpt><trkpt lat="45.18266782894306" lon="9.008959129669346"><ele>65.0</ele><time>2026-03-29T08:07:25Z</time></trkpt><trkpt lat="45.18242567051271" lon="9.008818078870997"><ele>65.0</ele><time>2026-03-29T08:07:26Z</time></trkpt><trkpt lat="45.182185448299904" lon="9.008674762206041"><ele>66.5</ele><time>2026-03-29T08:07:27Z</time></trkpt><trkpt lat="45.18194511043736" lon="9.008531423730465"><ele>68.0</ele><time>2026-03-29T08:07:28Z</time></trkpt><trkpt lat="45.18170344261691" lon="9.008387039099103"><ele>67.0</ele><time>2026-03-29T08:07:29Z</time></trkpt><trkpt lat="45.181461388100324" lon="9.008244895172934"><ele>66.0</ele><time>2026-03-29T08:07:30Z</time></trkpt><trkpt lat="45.18122337434198" lon="9.008099733303288"><ele>66.0</ele><time>2026-03-29T08:07:31Z</time></trkpt><trkpt lat="45.18098145390229" lon="9.007953490366381"><ele>66.0</ele><time>2026-03-29T08:07:32Z</time></trkpt><trkpt lat="45.18074306161819" lon="9.007807175577868"><ele>66.5</ele><time>2026-03-29T08:07:33Z</time></trkpt><trkpt lat="45.180502822493054" lon="9.007667228264152"><ele>67.0</ele><time>2026-03-29T08:07:34Z</time></trkpt><trkpt lat="45.18026193196507" lon="9.007522177974428"><ele>66.5</ele><time>2026-03-29T08:07:35Z</time></trkpt><trkpt lat="45.18001984127968" lon="9.007378608288787"><ele>66.0</ele><time>2026-03-29T08:07:36Z</time></trkpt><trkpt lat="45.179780311981595" lon="9.00723225164048"><ele>69.0</ele><time>2026-03-29T08:07:37Z</time></trkpt><trkpt lat="45.17953404682773" lon="9.007091126548023"><ele>72.0</ele><time>2026-03-29T08:07:38Z</time></trkpt><trkpt lat="45.179290577758174" lon="9.006947324836155"><ele>72.0</ele><time>2026-03-29T08:07:39Z</time></trkpt><trkpt lat="45.17904310332997" lon="9.006804391628878"><ele>72.0</ele><time>2026-03-29T08:07:40Z</time></trkpt><trkpt lat="45.178803348273675" lon="9.006656184681772"><ele>73.5</ele><time>2026-03-29T08:07:41Z</time></trkpt><trkpt lat="45.1785627012684" lon="9.006508294387032"><ele>75.0</ele><time>2026-03-29T08:07:42Z</time></trkpt><trkpt lat="45.17831947798631" lon="9.00636208353969"><ele>77.5</ele><time>2026-03-29T08:07:43Z</time></trkpt><trkpt lat="45.178077081748235" lon="9.006215859759504"><ele>80.0</ele><time>2026-03-29T08:07:44Z</time></trkpt><trkpt lat="45.17783319643916" lon="9.006072439564855"><ele>80.0</ele><time>2026-03-29T08:07:45Z</time></trkpt><trkpt lat="45.177591998380954" lon="9.005929618362295"><ele>80.0</ele><time>2026-03-29T08:07:46Z</time></trkpt><trkpt lat="45.177350192263965" lon="9.00578996997713"><ele>83.0</ele><time>2026-03-29T08:07:47Z</time></trkpt><trkpt lat="45.17711001731096" lon="9.005649696241525"><ele>86.0</ele><time>2026-03-29T08:07:48Z</time></trkpt><trkpt lat="45.176874367216826" lon="9.005516352493336"><ele>86.0</ele><time>2026-03-29T08:07:49Z</time></trkpt><trkpt lat="45.17663515518747" lon="9.00537064071326"><ele>86.0</ele><time>2026-03-29T08:07:50Z</time></trkpt><trkpt lat="45.176392705047746" lon="9.005248475203796"><ele>85.5</ele><time>2026-03-29T08:07:51Z</time></trkpt><trkpt lat="45.17615206578366" lon="9.00513135883172"><ele>85.0</ele><time>2026-03-29T08:07:52Z</time></trkpt><trkpt lat="45.17590696497683" lon="9.005018844546216"><ele>86.0</ele><time>2026-03-29T08:07:53Z</time></trkpt><trkpt lat="45.17566405589538" lon="9.004905038859846"><ele>87.0</ele><time>2026-03-29T08:07:54Z</time></trkpt><trkpt lat="45.17541703710619" lon="9.004788859217088"><ele>87.0</ele><time>2026-03-29T08:07:55Z</time></trkpt><trkpt lat="45.17517205100614" lon="9.004668492987495"><ele>87.0</ele><time>2026-03-29T08:07:56Z</time></trkpt><trkpt lat="45.17492338636242" lon="9.004546441855236"><ele>87.0</ele><time>2026-03-29T08:07:57Z</time></trkpt><trkpt lat="45.174674611283336" lon="9.004427378290728"><ele>87.0</ele><time>2026-03-29T08:07:58Z</time></trkpt><trkpt lat="45.174424814902785" lon="9.004308049372005"><ele>87.0</ele><time>2026-03-29T08:07:59Z</time></trkpt><trkpt lat="45.174178587734716" lon="9.004190294672922"><ele>87.0</ele><time>2026-03-29T08:08:00Z</time></trkpt><trkpt lat="45.17392926386664" lon="9.004073084944471"><ele>87.0</ele><time>2026-03-29T08:08:01Z</time></trkpt><trkpt lat="45.17368584831062" lon="9.003958605476308"><ele>87.0</ele><time>2026-03-29T08:08:02Z</time></trkpt><trkpt lat="45.17344061751379" lon="9.003841053166814"><ele>87.0</ele><time>2026-03-29T08:08:03Z</time></trkpt><trkpt lat="45.173197379536845" lon="9.003725047053667"><ele>87.0</ele><time>2026-03-29T08:08:04Z</time></trkpt><trkpt lat="45.172957394296034" lon="9.003610142172905"><ele>86.5</ele><time>2026-03-29T08:08:05Z</time></trkpt><trkpt lat="45.1727145111074" lon="9.003496446056085"><ele>86.0</ele><time>2026-03-29T08:08:06Z</time></trkpt><trkpt lat="45.17247351334625" lon="9.003373964972083"><ele>85.5</ele><time>2026-03-29T08:08:07Z</time></trkpt><trkpt lat="45.17223277178578" lon="9.003252463831782"><ele>85.0</ele><time>2026-03-29T08:08:08Z</time></trkpt><trkpt lat="45.171990439430886" lon="9.003134241841364"><ele>85.0</ele><time>2026-03-29T08:08:09Z</time></trkpt><trkpt lat="45.17174895521405" lon="9.003016251276845"><ele>85.0</ele><time>2026-03-29T08:08:10Z</time></trkpt><trkpt lat="45.17150284474495" lon="9.002905411454607"><ele>85.5</ele><time>2026-03-29T08:08:11Z</time></trkpt><trkpt lat="45.17125910314183" lon="9.002798107305944"><ele>86.0</ele><time>2026-03-29T08:08:12Z</time></trkpt><trkpt lat="45.171015582842934" lon="9.002693237773224"><ele>86.0</ele><time>2026-03-29T08:08:13Z</time></trkpt><trkpt lat="45.170769665530756" lon="9.002586607127036"><ele>86.0</ele><time>2026-03-29T08:08:14Z</time></trkpt><trkpt lat="45.170527461814146" lon="9.00247730358844"><ele>86.0</ele><time>2026-03-29T08:08:15Z</time></trkpt><trkpt lat="45.17028464377999" lon="9.002361308799635"><ele>86.0</ele><time>2026-03-29T08:08:16Z</time></trkpt><trkpt lat="45.170042416510476" lon="9.002241690204636"><ele>85.5</ele><time>2026-03-29T08:08:17Z</time></trkpt><trkpt lat="45.16979583787966" lon="9.00212428378508"><ele>85.0</ele><time>2026-03-29T08:08:18Z</time></trkpt><trkpt lat="45.16954963619" lon="9.00200637705412"><ele>85.0</ele><time>2026-03-29T08:08:19Z</time></trkpt><trkpt lat="45.16930239009604" lon="9.001884217102218"><ele>85.0</ele><time>2026-03-29T08:08:20Z</time></trkpt><trkpt lat="45.169052838776324" lon="9.00176334423178"><ele>85.0</ele><time>2026-03-29T08:08:21Z</time></trkpt><trkpt lat="45.168799058265684" lon="9.001644568164016"><ele>85.0</ele><time>2026-03-29T08:08:22Z</time></trkpt><trkpt lat="45.16854978835835" lon="9.00152279836912"><ele>85.0</ele><time>2026-03-29T08:08:23Z</time></trkpt><trkpt lat="45.168296110980336" lon="9.001405434802988"><ele>85.0</ele><time>2026-03-29T08:08:24Z</time></trkpt><trkpt lat="45.16804149039436" lon="9.001282014700056"><ele>85.0</ele><time>2026-03-29T08:08:25Z</time></trkpt><trkpt lat="45.167787634934406" lon="9.00115706173829"><ele>85.0</ele><time>2026-03-29T08:08:26Z</time></trkpt><trkpt lat="45.16753286342183" lon="9.001033144508641"><ele>85.0</ele><time>2026-03-29T08:08:27Z</time></trkpt><trkpt lat="45.167281564593324" lon="9.000907913397628"><ele>85.0</ele><time>2026-03-29T08:08:28Z</time></trkpt><trkpt lat="45.16702652419582" lon="9.00078046683578"><ele>85.0</ele><time>2026-03-29T08:08:29Z</time></trkpt><trkpt lat="45.166774575439234" lon="9.000657562024871"><ele>85.0</ele><time>2026-03-29T08:08:30Z</time></trkpt><trkpt lat="45.1665162620509" lon="9.00054022967616"><ele>85.5</ele><time>2026-03-29T08:08:31Z</time></trkpt><trkpt lat="45.16626260880823" lon="9.000419514381317"><ele>86.0</ele><time>2026-03-29T08:08:32Z</time></trkpt><trkpt lat="45.166011170833585" lon="9.000294069226555"><ele>86.0</ele><time>2026-03-29T08:08:33Z</time></trkpt><trkpt lat="45.16576105497937" lon="9.00016467699306"><ele>86.0</ele><time>2026-03-29T08:08:34Z</time></trkpt><trkpt lat="45.16551738409674" lon="9.000031218303429"><ele>86.5</ele><time>2026-03-29T08:08:35Z</time></trkpt><trkpt lat="45.165275495961595" lon="8.99990085335527"><ele>87.0</ele><time>2026-03-29T08:08:36Z</time></trkpt><trkpt lat="45.16502776915904" lon="8.999777400371629"><ele>86.5</ele><time>2026-03-29T08:08:37Z</time></trkpt><trkpt lat="45.16477737276545" lon="8.999662514089467"><ele>86.0</ele><time>2026-03-29T08:08:38Z</time></trkpt><trkpt lat="45.164533338136756" lon="8.999543302529819"><ele>86.0</ele><time>2026-03-29T08:08:39Z</time></trkpt><trkpt lat="45.16428299090296" lon="8.999429524809026"><ele>86.0</ele><time>2026-03-29T08:08:40Z</time></trkpt><trkpt lat="45.164038952548694" lon="8.999306636502514"><ele>85.5</ele><time>2026-03-29T08:08:41Z</time></trkpt><trkpt lat="45.1637911721142" lon="8.999184152256884"><ele>85.0</ele><time>2026-03-29T08:08:42Z</time></trkpt><trkpt lat="45.16353101432545" lon="8.999068255441095"><ele>85.0</ele><time>2026-03-29T08:08:43Z</time></trkpt><trkpt lat="45.1632787972701" lon="8.998944912134746"><ele>85.0</ele><time>2026-03-29T08:08:44Z</time></trkpt><trkpt lat="45.163047158171615" lon="8.99882335575549"><ele>85.0</ele><time>2026-03-29T08:08:45Z</time></trkpt><trkpt lat="45.16280541452087" lon="8.998700315930323"><ele>85.0</ele><time>2026-03-29T08:08:46Z</time></trkpt><trkpt lat="45.162556389097446" lon="8.99858126418293"><ele>85.5</ele><time>2026-03-29T08:08:47Z</time></trkpt><trkpt lat="45.16231082122693" lon="8.998458209388494"><ele>86.0</ele><time>2026-03-29T08:08:48Z</time></trkpt><trkpt lat="45.162063312255675" lon="8.998336327125571"><ele>86.0</ele><time>2026-03-29T08:08:49Z</time></trkpt><trkpt lat="45.161813764799646" lon="8.998214660928488"><ele>86.0</ele><time>2026-03-29T08:08:50Z</time></trkpt><trkpt lat="45.16156354950479" lon="8.99809313413766"><ele>86.5</ele><time>2026-03-29T08:08:51Z</time></trkpt><trkpt lat="45.16131478437882" lon="8.997967345773235"><ele>87.0</ele><time>2026-03-29T08:08:52Z</time></trkpt><trkpt lat="45.16106338912106" lon="8.997845326760032"><ele>87.0</ele><time>2026-03-29T08:08:53Z</time></trkpt><trkpt lat="45.160809367858725" lon="8.997723737379154"><ele>87.0</ele><time>2026-03-29T08:08:54Z</time></trkpt><trkpt lat="45.160552489512156" lon="8.997602189476003"><ele>87.0</ele><time>2026-03-29T08:08:55Z</time></trkpt><trkpt lat="45.16029665299189" lon="8.997481267131125"><ele>87.0</ele><time>2026-03-29T08:08:56Z</time></trkpt><trkpt lat="45.160041710613115" lon="8.99736033876193"><ele>86.5</ele><time>2026-03-29T08:08:57Z</time></trkpt><trkpt lat="45.159785677844425" lon="8.99723910438209"><ele>86.0</ele><time>2026-03-29T08:08:58Z</time></trkpt><trkpt lat="45.15953231984431" lon="8.9971143921029"><ele>86.0</ele><time>2026-03-29T08:08:59Z</time></trkpt><trkpt lat="45.15927881344024" lon="8.996989547990124"><ele>86.0</ele><time>2026-03-29T08:09:00Z</time></trkpt><trkpt lat="45.15902659473475" lon="8.996865324674141"><ele>86.5</ele><time>2026-03-29T08:09:01Z</time></trkpt><trkpt lat="45.15878072475708" lon="8.99673714749646"><ele>87.0</ele><time>2026-03-29T08:09:02Z</time></trkpt><trkpt lat="45.15852120463352" lon="8.996608703286153"><ele>87.5</ele><time>2026-03-29T08:09:03Z</time></trkpt><trkpt lat="45.15826483881978" lon="8.996489065477688"><ele>88.0</ele><time>2026-03-29T08:09:04Z</time></trkpt><trkpt lat="45.1580135247327" lon="8.996363597891888"><ele>88.0</ele><time>2026-03-29T08:09:05Z</time></trkpt><trkpt lat="45.15775479462184" lon="8.996240723968196"><ele>88.0</ele><time>2026-03-29T08:09:06Z</time></trkpt><trkpt lat="45.15750340255932" lon="8.99611390565312"><ele>88.5</ele><time>2026-03-29T08:09:07Z</time></trkpt><trkpt lat="45.15724777573759" lon="8.995991406939812"><ele>89.0</ele><time>2026-03-29T08:09:08Z</time></trkpt><trkpt lat="45.15699701411976" lon="8.995878700617705"><ele>88.5</ele><time>2026-03-29T08:09:09Z</time></trkpt><trkpt lat="45.15672913037912" lon="8.995746685420414"><ele>88.0</ele><time>2026-03-29T08:09:10Z</time></trkpt><trkpt lat="45.15647648123497" lon="8.995624829229248"><ele>87.5</ele><time>2026-03-29T08:09:11Z</time></trkpt><trkpt lat="45.156221085064445" lon="8.995504437643179"><ele>87.0</ele><time>2026-03-29T08:09:12Z</time></trkpt><trkpt lat="45.15596069302777" lon="8.99537901797953"><ele>85.5</ele><time>2026-03-29T08:09:13Z</time></trkpt><trkpt lat="45.15570299128712" lon="8.995250732193442"><ele>84.0</ele><time>2026-03-29T08:09:14Z</time></trkpt><trkpt lat="45.15544205207239" lon="8.99513096325784"><ele>84.0</ele><time>2026-03-29T08:09:15Z</time></trkpt><trkpt lat="45.15518455472897" lon="8.995007814405012"><ele>84.0</ele><time>2026-03-29T08:09:16Z</time></trkpt><trkpt lat="45.154931091015236" lon="8.994882203567478"><ele>84.5</ele><time>2026-03-29T08:09:17Z</time></trkpt><trkpt lat="45.15467680485528" lon="8.994755476890546"><ele>85.0</ele><time>2026-03-29T08:09:18Z</time></trkpt><trkpt lat="45.154420957116294" lon="8.994630996588626"><ele>85.0</ele><time>2026-03-29T08:09:19Z</time></trkpt><trkpt lat="45.15417172260246" lon="8.994507364236268"><ele>85.0</ele><time>2026-03-29T08:09:20Z</time></trkpt><trkpt lat="45.153916712725035" lon="8.994390202588926"><ele>85.0</ele><time>2026-03-29T08:09:21Z</time></trkpt><trkpt lat="45.15366775445146" lon="8.994270921234795"><ele>85.0</ele><time>2026-03-29T08:09:22Z</time></trkpt><trkpt lat="45.15341782391682" lon="8.994149747417113"><ele>84.5</ele><time>2026-03-29T08:09:23Z</time></trkpt><trkpt lat="45.15316774298272" lon="8.994027923336068"><ele>84.0</ele><time>2026-03-29T08:09:24Z</time></trkpt><trkpt lat="45.152919564509794" lon="8.99390540693004"><ele>84.0</ele><time>2026-03-29T08:09:25Z</time></trkpt><trkpt lat="45.15267071854246" lon="8.993784978137725"><ele>84.0</ele><time>2026-03-29T08:09:26Z</time></trkpt><trkpt lat="45.15241913894915" lon="8.993668396571659"><ele>83.5</ele><time>2026-03-29T08:09:27Z</time></trkpt><trkpt lat="45.15217174506271" lon="8.993549012730055"><ele>83.0</ele><time>2026-03-29T08:09:28Z</time></trkpt><trkpt lat="45.15192317672647" lon="8.993426713753747"><ele>83.5</ele><time>2026-03-29T08:09:29Z</time></trkpt><trkpt lat="45.151675333100165" lon="8.993304115864186"><ele>84.0</ele><time>2026-03-29T08:09:30Z</time></trkpt><trkpt lat="45.151425262220016" lon="8.993182684783685"><ele>85.0</ele><time>2026-03-29T08:09:31Z</time></trkpt><trkpt lat="45.15117542021519" lon="8.993061714919481"><ele>86.0</ele><time>2026-03-29T08:09:32Z</time></trkpt><trkpt lat="45.15092773175416" lon="8.992938631763687"><ele>86.5</ele><time>2026-03-29T08:09:33Z</time></trkpt><trkpt lat="45.15067794090836" lon="8.992814159017488"><ele>87.0</ele><time>2026-03-29T08:09:34Z</time></trkpt><trkpt lat="45.150427951153986" lon="8.99268798639928"><ele>87.0</ele><time>2026-03-29T08:09:35Z</time></trkpt><trkpt lat="45.15017903736527" lon="8.992559952533936"><ele>87.0</ele><time>2026-03-29T08:09:36Z</time></trkpt><trkpt lat="45.149929826024966" lon="8.992427369349203"><ele>87.0</ele><time>2026-03-29T08:09:37Z</time></trkpt><trkpt lat="45.1496850060086" lon="8.992287532698507"><ele>87.0</ele><time>2026-03-29T08:09:38Z</time></trkpt><trkpt lat="45.149442807878756" lon="8.992139921163451"><ele>87.0</ele><time>2026-03-29T08:09:39Z</time></trkpt><trkpt lat="45.149202647006426" lon="8.991987968434092"><ele>87.0</ele><time>2026-03-29T08:09:40Z</time></trkpt><trkpt lat="45.148958951380564" lon="8.991835619077712"><ele>87.0</ele><time>2026-03-29T08:09:41Z</time></trkpt><trkpt lat="45.148714354505984" lon="8.991685563543708"><ele>87.0</ele><time>2026-03-29T08:09:42Z</time></trkpt><trkpt lat="45.14847048673087" lon="8.9915360925103"><ele>87.5</ele><time>2026-03-29T08:09:43Z</time></trkpt><trkpt lat="45.14822695270189" lon="8.991387754400762"><ele>88.0</ele><time>2026-03-29T08:09:44Z</time></trkpt><trkpt lat="45.14798607340005" lon="8.99123952366987"><ele>88.5</ele><time>2026-03-29T08:09:45Z</time></trkpt><trkpt lat="45.147749664393935" lon="8.991085224943511"><ele>89.0</ele><time>2026-03-29T08:09:46Z</time></trkpt><trkpt lat="45.14750694435736" lon="8.990939987824524"><ele>89.0</ele><time>2026-03-29T08:09:47Z</time></trkpt><trkpt lat="45.147260161641945" lon="8.990785104103875"><ele>89.0</ele><time>2026-03-29T08:09:48Z</time></trkpt><trkpt lat="45.147018525047756" lon="8.990634028183413"><ele>89.0</ele><time>2026-03-29T08:09:49Z</time></trkpt><trkpt lat="45.146773667013626" lon="8.990485345788922"><ele>89.0</ele><time>2026-03-29T08:09:50Z</time></trkpt><trkpt lat="45.14653141116387" lon="8.9903368049625"><ele>87.0</ele><time>2026-03-29T08:09:51Z</time></trkpt><trkpt lat="45.14628691113049" lon="8.99018708550799"><ele>85.0</ele><time>2026-03-29T08:09:52Z</time></trkpt><trkpt lat="45.14604063990219" lon="8.990039552543056"><ele>85.0</ele><time>2026-03-29T08:09:53Z</time></trkpt><trkpt lat="45.14579898952078" lon="8.989884110499643"><ele>85.0</ele><time>2026-03-29T08:09:54Z</time></trkpt><trkpt lat="45.1455566070638" lon="8.989730805990423"><ele>83.5</ele><time>2026-03-29T08:09:55Z</time></trkpt><trkpt lat="45.14531026600562" lon="8.989579775700467"><ele>82.0</ele><time>2026-03-29T08:09:56Z</time></trkpt><trkpt lat="45.145065028415644" lon="8.98943028653108"><ele>81.5</ele><time>2026-03-29T08:09:57Z</time></trkpt><trkpt lat="45.14481922872911" lon="8.989280623210062"><ele>81.0</ele><time>2026-03-29T08:09:58Z</time></trkpt><trkpt lat="45.144578258254136" lon="8.989128087620537"><ele>82.0</ele><time>2026-03-29T08:09:59Z</time></trkpt><trkpt lat="45.14433313405274" lon="8.988977130437334"><ele>83.0</ele><time>2026-03-29T08:10:00Z</time></trkpt><trkpt lat="45.14408777369045" lon="8.988822467854947"><ele>83.5</ele><time>2026-03-29T08:10:01Z</time></trkpt><trkpt lat="45.143841510156726" lon="8.988674576601428"><ele>84.0</ele><time>2026-03-29T08:10:02Z</time></trkpt><trkpt lat="45.14359562157895" lon="8.98852348965503"><ele>84.0</ele><time>2026-03-29T08:10:03Z</time></trkpt><trkpt lat="45.143352907370534" lon="8.98837118527236"><ele>84.0</ele><time>2026-03-29T08:10:04Z</time></trkpt><trkpt lat="45.1431105987526" lon="8.98821578886653"><ele>84.5</ele><time>2026-03-29T08:10:05Z</time></trkpt><trkpt lat="45.14286507441735" lon="8.988070601875553"><ele>85.0</ele><time>2026-03-29T08:10:06Z</time></trkpt><trkpt lat="45.14262360331474" lon="8.987913308446284"><ele>84.5</ele><time>2026-03-29T08:10:07Z</time></trkpt><trkpt lat="45.14237665523254" lon="8.987761408060413"><ele>84.0</ele><time>2026-03-29T08:10:08Z</time></trkpt><trkpt lat="45.142132061910246" lon="8.987611005320188"><ele>84.0</ele><time>2026-03-29T08:10:09Z</time></trkpt><trkpt lat="45.14188850182052" lon="8.987461969696646"><ele>84.0</ele><time>2026-03-29T08:10:10Z</time></trkpt><trkpt lat="45.14164400332011" lon="8.987314060093524"><ele>83.5</ele><time>2026-03-29T08:10:11Z</time></trkpt><trkpt lat="45.14140025615553" lon="8.987167495869956"><ele>83.0</ele><time>2026-03-29T08:10:12Z</time></trkpt><trkpt lat="45.14115896582729" lon="8.987020859039934"><ele>83.0</ele><time>2026-03-29T08:10:13Z</time></trkpt><trkpt lat="45.140917328756984" lon="8.986872193631106"><ele>83.0</ele><time>2026-03-29T08:10:14Z</time></trkpt><trkpt lat="45.14067859904368" lon="8.986720354911549"><ele>83.0</ele><time>2026-03-29T08:10:15Z</time></trkpt><trkpt lat="45.140440800026624" lon="8.986567822294177"><ele>83.0</ele><time>2026-03-29T08:10:16Z</time></trkpt><trkpt lat="45.140200399329515" lon="8.98642027387774"><ele>83.0</ele><time>2026-03-29T08:10:17Z</time></trkpt><trkpt lat="45.13995884415227" lon="8.986273948464873"><ele>83.0</ele><time>2026-03-29T08:10:18Z</time></trkpt><trkpt lat="45.139723968005065" lon="8.986123043865316"><ele>83.0</ele><time>2026-03-29T08:10:19Z</time></trkpt><trkpt lat="45.139481355476185" lon="8.985975253068045"><ele>83.0</ele><time>2026-03-29T08:10:20Z</time></trkpt><trkpt lat="45.1392430631549" lon="8.98582487468837"><ele>83.0</ele><time>2026-03-29T08:10:21Z</time></trkpt><trkpt lat="45.13900187204731" lon="8.985678823422935"><ele>83.0</ele><time>2026-03-29T08:10:22Z</time></trkpt><trkpt lat="45.138761832365404" lon="8.98553162783277"><ele>83.0</ele><time>2026-03-29T08:10:23Z</time></trkpt><trkpt lat="45.13852632046508" lon="8.985382743593826"><ele>83.0</ele><time>2026-03-29T08:10:24Z</time></trkpt><trkpt lat="45.138290557393795" lon="8.985236814311747"><ele>83.5</ele><time>2026-03-29T08:10:25Z</time></trkpt><trkpt lat="45.138053103648396" lon="8.985091879908047"><ele>84.0</ele><time>2026-03-29T08:10:26Z</time></trkpt><trkpt lat="45.137816729436025" lon="8.984945317797232"><ele>84.5</ele><time>2026-03-29T08:10:27Z</time></trkpt><trkpt lat="45.13757828222686" lon="8.984805102973416"><ele>85.0</ele><time>2026-03-29T08:10:28Z</time></trkpt><trkpt lat="45.13734320893935" lon="8.98465559776961"><ele>83.5</ele><time>2026-03-29T08:10:29Z</time></trkpt><trkpt lat="45.13711088480762" lon="8.984513805232906"><ele>82.0</ele><time>2026-03-29T08:10:30Z</time></trkpt><trkpt lat="45.13687323499533" lon="8.98436601140594"><ele>82.0</ele><time>2026-03-29T08:10:31Z</time></trkpt><trkpt lat="45.1366370794019" lon="8.984221829485225"><ele>82.0</ele><time>2026-03-29T08:10:32Z</time></trkpt><trkpt lat="45.13640353616715" lon="8.98407668789441"><ele>82.0</ele><time>2026-03-29T08:10:33Z</time></trkpt><trkpt lat="45.13616945267875" lon="8.983932179845931"><ele>82.0</ele><time>2026-03-29T08:10:34Z</time></trkpt><trkpt lat="45.13593498454024" lon="8.98378917176967"><ele>82.5</ele><time>2026-03-29T08:10:35Z</time></trkpt><trkpt lat="45.13570065220796" lon="8.983646373609727"><ele>83.0</ele><time>2026-03-29T08:10:36Z</time></trkpt><trkpt lat="45.13546972222589" lon="8.983502569980546"><ele>83.0</ele><time>2026-03-29T08:10:37Z</time></trkpt><trkpt lat="45.135235896441216" lon="8.983360461739299"><ele>83.0</ele><time>2026-03-29T08:10:38Z</time></trkpt><trkpt lat="45.13500822724129" lon="8.983215200376472"><ele>82.0</ele><time>2026-03-29T08:10:39Z</time></trkpt><trkpt lat="45.134775963368426" lon="8.983072772714861"><ele>81.0</ele><time>2026-03-29T08:10:40Z</time></trkpt><trkpt lat="45.13454541724609" lon="8.982928054320436"><ele>81.0</ele><time>2026-03-29T08:10:41Z</time></trkpt><trkpt lat="45.134316934366616" lon="8.982783123228419"><ele>81.0</ele><time>2026-03-29T08:10:42Z</time></trkpt><trkpt lat="45.134082465211506" lon="8.982641372109857"><ele>80.5</ele><time>2026-03-29T08:10:43Z</time></trkpt><trkpt lat="45.133854200638424" lon="8.982496219494026"><ele>80.0</ele><time>2026-03-29T08:10:44Z</time></trkpt><trkpt lat="45.13362175934708" lon="8.982353520338076"><ele>80.0</ele><time>2026-03-29T08:10:45Z</time></trkpt><trkpt lat="45.13339118555105" lon="8.98221026733498"><ele>80.0</ele><time>2026-03-29T08:10:46Z</time></trkpt><trkpt lat="45.13316103061911" lon="8.982066142285982"><ele>81.0</ele><time>2026-03-29T08:10:47Z</time></trkpt><trkpt lat="45.13293008325421" lon="8.981921523301082"><ele>82.0</ele><time>2026-03-29T08:10:48Z</time></trkpt><trkpt lat="45.13269802469261" lon="8.9817786045052"><ele>82.0</ele><time>2026-03-29T08:10:49Z</time></trkpt><trkpt lat="45.13246391534781" lon="8.98163494346343"><ele>82.0</ele><time>2026-03-29T08:10:50Z</time></trkpt><trkpt lat="45.132228220377456" lon="8.981490467595735"><ele>82.5</ele><time>2026-03-29T08:10:51Z</time></trkpt><trkpt lat="45.1319947419918" lon="8.981346542654965"><ele>83.0</ele><time>2026-03-29T08:10:52Z</time></trkpt><trkpt lat="45.13175943027693" lon="8.981205718917147"><ele>83.5</ele><time>2026-03-29T08:10:53Z</time></trkpt><trkpt lat="45.131523143343486" lon="8.981061946171423"><ele>84.0</ele><time>2026-03-29T08:10:54Z</time></trkpt><trkpt lat="45.13128516742486" lon="8.980918105085209"><ele>82.5</ele><time>2026-03-29T08:10:55Z</time></trkpt><trkpt lat="45.13104554646177" lon="8.980773442332117"><ele>81.0</ele><time>2026-03-29T08:10:56Z</time></trkpt><trkpt lat="45.130814495250846" lon="8.980628436243407"><ele>80.5</ele><time>2026-03-29T08:10:57Z</time></trkpt><trkpt lat="45.13057225018212" lon="8.980484013856557"><ele>80.0</ele><time>2026-03-29T08:10:58Z</time></trkpt><trkpt lat="45.13033539792551" lon="8.980333383928292"><ele>80.0</ele><time>2026-03-29T08:10:59Z</time></trkpt><trkpt lat="45.13009430402498" lon="8.980185348357187"><ele>80.0</ele><time>2026-03-29T08:11:00Z</time></trkpt><trkpt lat="45.12985384663144" lon="8.980035756094534"><ele>80.0</ele><time>2026-03-29T08:11:01Z</time></trkpt><trkpt lat="45.12961193228163" lon="8.979885960518182"><ele>80.0</ele><time>2026-03-29T08:11:02Z</time></trkpt><trkpt lat="45.12937074832927" lon="8.979733938179553"><ele>80.0</ele><time>2026-03-29T08:11:03Z</time></trkpt><trkpt lat="45.12912776285726" lon="8.979583049836608"><ele>80.0</ele><time>2026-03-29T08:11:04Z</time></trkpt><trkpt lat="45.12888501727861" lon="8.979431827917006"><ele>80.0</ele><time>2026-03-29T08:11:05Z</time></trkpt><trkpt lat="45.128642826949864" lon="8.979281544401536"><ele>80.0</ele><time>2026-03-29T08:11:06Z</time></trkpt><trkpt lat="45.12839946101475" lon="8.979132514109947"><ele>80.5</ele><time>2026-03-29T08:11:07Z</time></trkpt><trkpt lat="45.12815642188717" lon="8.978986213510199"><ele>81.0</ele><time>2026-03-29T08:11:08Z</time></trkpt><trkpt lat="45.12791245708422" lon="8.978844854758966"><ele>81.0</ele><time>2026-03-29T08:11:09Z</time></trkpt><trkpt lat="45.127664655262116" lon="8.978714719877214"><ele>81.0</ele><time>2026-03-29T08:11:10Z</time></trkpt><trkpt lat="45.12741745667094" lon="8.978594149289624"><ele>80.0</ele><time>2026-03-29T08:11:11Z</time></trkpt><trkpt lat="45.127168969694424" lon="8.978479409226015"><ele>79.0</ele><time>2026-03-29T08:11:12Z</time></trkpt><trkpt lat="45.12692227598174" lon="8.978370960812095"><ele>79.5</ele><time>2026-03-29T08:11:13Z</time></trkpt><trkpt lat="45.126672695376065" lon="8.978270167989898"><ele>80.0</ele><time>2026-03-29T08:11:14Z</time></trkpt><trkpt lat="45.12642382260882" lon="8.978179625126888"><ele>80.5</ele><time>2026-03-29T08:11:15Z</time></trkpt><trkpt lat="45.12616781016787" lon="8.978090830024964"><ele>81.0</ele><time>2026-03-29T08:11:16Z</time></trkpt><trkpt lat="45.12591781070261" lon="8.978008995686945"><ele>79.5</ele><time>2026-03-29T08:11:17Z</time></trkpt><trkpt lat="45.12566191524002" lon="8.977934225520324"><ele>78.0</ele><time>2026-03-29T08:11:18Z</time></trkpt><trkpt lat="45.125407669172624" lon="8.977863752023264"><ele>78.0</ele><time>2026-03-29T08:11:19Z</time></trkpt><trkpt lat="45.125153687714146" lon="8.977798596666226"><ele>78.0</ele><time>2026-03-29T08:11:20Z</time></trkpt><trkpt lat="45.124893104163405" lon="8.977744300118964"><ele>78.0</ele><time>2026-03-29T08:11:21Z</time></trkpt><trkpt lat="45.12463635088966" lon="8.97769448665783"><ele>78.0</ele><time>2026-03-29T08:11:22Z</time></trkpt><trkpt lat="45.12438344530751" lon="8.97765110371001"><ele>78.0</ele><time>2026-03-29T08:11:23Z</time></trkpt><trkpt lat="45.1241259474784" lon="8.97760800549662"><ele>78.0</ele><time>2026-03-29T08:11:24Z</time></trkpt><trkpt lat="45.12387114311426" lon="8.977560629429728"><ele>77.5</ele><time>2026-03-29T08:11:25Z</time></trkpt><trkpt lat="45.1236199731445" lon="8.977510330367565"><ele>77.0</ele><time>2026-03-29T08:11:26Z</time></trkpt><trkpt lat="45.12336284086174" lon="8.977462699032163"><ele>74.5</ele><time>2026-03-29T08:11:27Z</time></trkpt><trkpt lat="45.12310826644086" lon="8.977417897997764"><ele>72.0</ele><time>2026-03-29T08:11:28Z</time></trkpt><trkpt lat="45.12285225693121" lon="8.977373778050355"><ele>72.0</ele><time>2026-03-29T08:11:29Z</time></trkpt><trkpt lat="45.12259938534947" lon="8.977327534074751"><ele>72.0</ele><time>2026-03-29T08:11:30Z</time></trkpt><trkpt lat="45.12234490485946" lon="8.97727819612984"><ele>72.5</ele><time>2026-03-29T08:11:31Z</time></trkpt><trkpt lat="45.122088056889794" lon="8.977231434643505"><ele>73.0</ele><time>2026-03-29T08:11:32Z</time></trkpt><trkpt lat="45.12183313503211" lon="8.977183915544709"><ele>73.0</ele><time>2026-03-29T08:11:33Z</time></trkpt><trkpt lat="45.121578218024965" lon="8.977138647382164"><ele>73.0</ele><time>2026-03-29T08:11:34Z</time></trkpt><trkpt lat="45.12132111985953" lon="8.977094890839133"><ele>72.0</ele><time>2026-03-29T08:11:35Z</time></trkpt><trkpt lat="45.1210623096247" lon="8.97705367244543"><ele>71.0</ele><time>2026-03-29T08:11:36Z</time></trkpt><trkpt lat="45.12080580300022" lon="8.977009452618548"><ele>71.5</ele><time>2026-03-29T08:11:37Z</time></trkpt><trkpt lat="45.120549141447604" lon="8.976966040429547"><ele>72.0</ele><time>2026-03-29T08:11:38Z</time></trkpt><trkpt lat="45.12029087005692" lon="8.976918822459528"><ele>72.0</ele><time>2026-03-29T08:11:39Z</time></trkpt><trkpt lat="45.120030349410165" lon="8.976870310882036"><ele>72.0</ele><time>2026-03-29T08:11:40Z</time></trkpt><trkpt lat="45.11977321119238" lon="8.976816722358567"><ele>73.5</ele><time>2026-03-29T08:11:41Z</time></trkpt><trkpt lat="45.11951324911866" lon="8.976772798192702"><ele>75.0</ele><time>2026-03-29T08:11:42Z</time></trkpt><trkpt lat="45.11925253887154" lon="8.976725595912981"><ele>76.5</ele><time>2026-03-29T08:11:43Z</time></trkpt><trkpt lat="45.118990004771604" lon="8.976682645846905"><ele>78.0</ele><time>2026-03-29T08:11:44Z</time></trkpt><trkpt lat="45.11872841666942" lon="8.976637094577278"><ele>78.0</ele><time>2026-03-29T08:11:45Z</time></trkpt><trkpt lat="45.1184655473947" lon="8.976589757491137"><ele>78.0</ele><time>2026-03-29T08:11:46Z</time></trkpt><trkpt lat="45.118206449995476" lon="8.976537470345768"><ele>79.5</ele><time>2026-03-29T08:11:47Z</time></trkpt><trkpt lat="45.11794082957039" lon="8.97648880841865"><ele>81.0</ele><time>2026-03-29T08:11:48Z</time></trkpt><trkpt lat="45.117680361121714" lon="8.976439052029795"><ele>81.0</ele><time>2026-03-29T08:11:49Z</time></trkpt><trkpt lat="45.11741967427139" lon="8.976388991335185"><ele>81.0</ele><time>2026-03-29T08:11:50Z</time></trkpt><trkpt lat="45.11715764700174" lon="8.976344845853987"><ele>78.5</ele><time>2026-03-29T08:11:51Z</time></trkpt><trkpt lat="45.11689710374557" lon="8.9762906738822"><ele>76.0</ele><time>2026-03-29T08:11:52Z</time></trkpt><trkpt lat="45.11663884708941" lon="8.97624154618551"><ele>76.5</ele><time>2026-03-29T08:11:53Z</time></trkpt><trkpt lat="45.11637455292823" lon="8.976200800407453"><ele>77.0</ele><time>2026-03-29T08:11:54Z</time></trkpt><trkpt lat="45.11611873312699" lon="8.976151408823757"><ele>77.0</ele><time>2026-03-29T08:11:55Z</time></trkpt><trkpt lat="45.11585967724471" lon="8.976102794594736"><ele>77.0</ele><time>2026-03-29T08:11:56Z</time></trkpt><trkpt lat="45.115601447160174" lon="8.976051551322625"><ele>76.5</ele><time>2026-03-29T08:11:57Z</time></trkpt><trkpt lat="45.11534320995914" lon="8.97600623843313"><ele>76.0</ele><time>2026-03-29T08:11:58Z</time></trkpt><trkpt lat="45.11508633546519" lon="8.975959337308776"><ele>73.5</ele><time>2026-03-29T08:11:59Z</time></trkpt><trkpt lat="45.114827757148575" lon="8.975913441447213"><ele>71.0</ele><time>2026-03-29T08:12:00Z</time></trkpt><trkpt lat="45.114570727229655" lon="8.975865881197628"><ele>71.0</ele><time>2026-03-29T08:12:01Z</time></trkpt><trkpt lat="45.11431508898553" lon="8.975813861850252"><ele>71.0</ele><time>2026-03-29T08:12:02Z</time></trkpt><trkpt lat="45.11405729668821" lon="8.975766012803625"><ele>69.0</ele><time>2026-03-29T08:12:03Z</time></trkpt><trkpt lat="45.11379357324125" lon="8.975724909410529"><ele>67.0</ele><time>2026-03-29T08:12:04Z</time></trkpt><trkpt lat="45.11354051175922" lon="8.975670235611615"><ele>67.0</ele><time>2026-03-29T08:12:05Z</time></trkpt><trkpt lat="45.11327792943609" lon="8.975625926354265"><ele>67.0</ele><time>2026-03-29T08:12:06Z</time></trkpt><trkpt lat="45.11301998185788" lon="8.97557844130312"><ele>67.5</ele><time>2026-03-29T08:12:07Z</time></trkpt><trkpt lat="45.11275926289863" lon="8.975527156412246"><ele>68.0</ele><time>2026-03-29T08:12:08Z</time></trkpt><trkpt lat="45.11249963877051" lon="8.975471554753998"><ele>68.5</ele><time>2026-03-29T08:12:09Z</time></trkpt><trkpt lat="45.11224045419073" lon="8.975408686614086"><ele>69.0</ele><time>2026-03-29T08:12:10Z</time></trkpt><trkpt lat="45.11198062736936" lon="8.975339125082039"><ele>69.0</ele><time>2026-03-29T08:12:11Z</time></trkpt><trkpt lat="45.1117225737178" lon="8.97526404914526"><ele>69.0</ele><time>2026-03-29T08:12:12Z</time></trkpt><trkpt lat="45.11146603460925" lon="8.975177389032394"><ele>69.0</ele><time>2026-03-29T08:12:13Z</time></trkpt><trkpt lat="45.11120939043129" lon="8.975079653234712"><ele>69.0</ele><time>2026-03-29T08:12:14Z</time></trkpt><trkpt lat="45.110954341587366" lon="8.974972702966868"><ele>68.5</ele><time>2026-03-29T08:12:15Z</time></trkpt><trkpt lat="45.11069835021971" lon="8.974862413007953"><ele>68.0</ele><time>2026-03-29T08:12:16Z</time></trkpt><trkpt lat="45.110446275090034" lon="8.974747109964389"><ele>68.0</ele><time>2026-03-29T08:12:17Z</time></trkpt><trkpt lat="45.11019069089316" lon="8.974634168225858"><ele>68.0</ele><time>2026-03-29T08:12:18Z</time></trkpt><trkpt lat="45.10993584192164" lon="8.974520476933641"><ele>67.0</ele><time>2026-03-29T08:12:19Z</time></trkpt><trkpt lat="45.109679618803845" lon="8.974407624062197"><ele>66.0</ele><time>2026-03-29T08:12:20Z</time></trkpt><trkpt lat="45.10942744555769" lon="8.97429841665019"><ele>66.0</ele><time>2026-03-29T08:12:21Z</time></trkpt><trkpt lat="45.10916963595665" lon="8.974188250255832"><ele>66.0</ele><time>2026-03-29T08:12:22Z</time></trkpt><trkpt lat="45.10891877314842" lon="8.97407798837107"><ele>67.0</ele><time>2026-03-29T08:12:23Z</time></trkpt><trkpt lat="45.1086626616298" lon="8.973970622826533"><ele>68.0</ele><time>2026-03-29T08:12:24Z</time></trkpt><trkpt lat="45.10841001555784" lon="8.973854949393548"><ele>66.5</ele><time>2026-03-29T08:12:25Z</time></trkpt><trkpt lat="45.10815504139641" lon="8.973743151050437"><ele>65.0</ele><time>2026-03-29T08:12:26Z</time></trkpt><trkpt lat="45.10790084079707" lon="8.973631881080745"><ele>65.0</ele><time>2026-03-29T08:12:27Z</time></trkpt><trkpt lat="45.10764436891908" lon="8.973522099975705"><ele>65.0</ele><time>2026-03-29T08:12:28Z</time></trkpt><trkpt lat="45.10738884230242" lon="8.973412317870777"><ele>65.0</ele><time>2026-03-29T08:12:29Z</time></trkpt><trkpt lat="45.1071372861194" lon="8.973302708081581"><ele>65.0</ele><time>2026-03-29T08:12:30Z</time></trkpt><trkpt lat="45.10688291152655" lon="8.973192368835734"><ele>65.0</ele><time>2026-03-29T08:12:31Z</time></trkpt><trkpt lat="45.10662816984711" lon="8.973083801370711"><ele>65.0</ele><time>2026-03-29T08:12:32Z</time></trkpt><trkpt lat="45.10637943451968" lon="8.972972071254954"><ele>65.0</ele><time>2026-03-29T08:12:33Z</time></trkpt><trkpt lat="45.1061292301632" lon="8.972858687343896"><ele>65.0</ele><time>2026-03-29T08:12:34Z</time></trkpt><trkpt lat="45.10587894435913" lon="8.972751916721942"><ele>65.5</ele><time>2026-03-29T08:12:35Z</time></trkpt><trkpt lat="45.10562888882772" lon="8.972643146157335"><ele>66.0</ele><time>2026-03-29T08:12:36Z</time></trkpt><trkpt lat="45.105380905414044" lon="8.972533668628383"><ele>65.5</ele><time>2026-03-29T08:12:37Z</time></trkpt><trkpt lat="45.105133808794136" lon="8.97242143996558"><ele>65.0</ele><time>2026-03-29T08:12:38Z</time></trkpt><trkpt lat="45.10488343047845" lon="8.972310400449908"><ele>65.0</ele><time>2026-03-29T08:12:39Z</time></trkpt><trkpt lat="45.104632977083476" lon="8.97220015592028"><ele>65.0</ele><time>2026-03-29T08:12:40Z</time></trkpt><trkpt lat="45.10438054869249" lon="8.97209221389467"><ele>65.0</ele><time>2026-03-29T08:12:41Z</time></trkpt><trkpt lat="45.1041272099525" lon="8.971981735555"><ele>65.0</ele><time>2026-03-29T08:12:42Z</time></trkpt><trkpt lat="45.103877141773225" lon="8.971868718511246"><ele>66.5</ele><time>2026-03-29T08:12:43Z</time></trkpt><trkpt lat="45.103620348612026" lon="8.971760364031185"><ele>68.0</ele><time>2026-03-29T08:12:44Z</time></trkpt><trkpt lat="45.10336663430349" lon="8.9716520152288"><ele>67.0</ele><time>2026-03-29T08:12:45Z</time></trkpt><trkpt lat="45.10311203718304" lon="8.971538649614402"><ele>66.0</ele><time>2026-03-29T08:12:46Z</time></trkpt><trkpt lat="45.1028575559659" lon="8.971422787272466"><ele>66.0</ele><time>2026-03-29T08:12:47Z</time></trkpt><trkpt lat="45.10260090453068" lon="8.971311897910427"><ele>66.0</ele><time>2026-03-29T08:12:48Z</time></trkpt><trkpt lat="45.10234820510608" lon="8.97119848792823"><ele>66.0</ele><time>2026-03-29T08:12:49Z</time></trkpt><trkpt lat="45.10209447703769" lon="8.97108666230553"><ele>66.0</ele><time>2026-03-29T08:12:50Z</time></trkpt><trkpt lat="45.10183861356401" lon="8.970976812808605"><ele>66.0</ele><time>2026-03-29T08:12:51Z</time></trkpt><trkpt lat="45.10158188118518" lon="8.970867619350734"><ele>66.0</ele><time>2026-03-29T08:12:52Z</time></trkpt><trkpt lat="45.101327642370855" lon="8.970757539641276"><ele>66.0</ele><time>2026-03-29T08:12:53Z</time></trkpt><trkpt lat="45.101074022020924" lon="8.97064727106404"><ele>66.0</ele><time>2026-03-29T08:12:54Z</time></trkpt><trkpt lat="45.10081889039112" lon="8.970536966628794"><ele>66.0</ele><time>2026-03-29T08:12:55Z</time></trkpt><trkpt lat="45.100568882450425" lon="8.970422913817565"><ele>66.0</ele><time>2026-03-29T08:12:56Z</time></trkpt><trkpt lat="45.100314541265476" lon="8.97031019336604"><ele>66.0</ele><time>2026-03-29T08:12:57Z</time></trkpt><trkpt lat="45.10006219276516" lon="8.970197166820789"><ele>66.0</ele><time>2026-03-29T08:12:58Z</time></trkpt><trkpt lat="45.099809438067346" lon="8.970084663480257"><ele>65.0</ele><time>2026-03-29T08:12:59Z</time></trkpt><trkpt lat="45.099554294536674" lon="8.969975008867866"><ele>64.0</ele><time>2026-03-29T08:13:00Z</time></trkpt><trkpt lat="45.09930336816692" lon="8.969863182417111"><ele>65.0</ele><time>2026-03-29T08:13:01Z</time></trkpt><trkpt lat="45.09905369779034" lon="8.969749778950568"><ele>66.0</ele><time>2026-03-29T08:13:02Z</time></trkpt><trkpt lat="45.09879861259903" lon="8.969638555585957"><ele>66.0</ele><time>2026-03-29T08:13:03Z</time></trkpt><trkpt lat="45.09854657500116" lon="8.969527153747974"><ele>66.0</ele><time>2026-03-29T08:13:04Z</time></trkpt><trkpt lat="45.09829240545982" lon="8.969417019713395"><ele>66.0</ele><time>2026-03-29T08:13:05Z</time></trkpt><trkpt lat="45.09803790725325" lon="8.969309070447533"><ele>66.0</ele><time>2026-03-29T08:13:06Z</time></trkpt><trkpt lat="45.09778814277117" lon="8.96919663770712"><ele>66.0</ele><time>2026-03-29T08:13:07Z</time></trkpt><trkpt lat="45.09753460213239" lon="8.969087315011924"><ele>66.0</ele><time>2026-03-29T08:13:08Z</time></trkpt><trkpt lat="45.09728474093339" lon="8.968979597146708"><ele>66.5</ele><time>2026-03-29T08:13:09Z</time></trkpt><trkpt lat="45.097031301034455" lon="8.968877398197652"><ele>67.0</ele><time>2026-03-29T08:13:10Z</time></trkpt><trkpt lat="45.09677476129098" lon="8.968784252666135"><ele>66.5</ele><time>2026-03-29T08:13:11Z</time></trkpt><trkpt lat="45.09651751229831" lon="8.968695603891835"><ele>66.0</ele><time>2026-03-29T08:13:12Z</time></trkpt><trkpt lat="45.09626314093619" lon="8.968612837775165"><ele>66.0</ele><time>2026-03-29T08:13:13Z</time></trkpt><trkpt lat="45.09600380228478" lon="8.968540788868989"><ele>66.0</ele><time>2026-03-29T08:13:14Z</time></trkpt><trkpt lat="45.095745495875775" lon="8.968477527552194"><ele>66.5</ele><time>2026-03-29T08:13:15Z</time></trkpt><trkpt lat="45.09548421167456" lon="8.968413766641184"><ele>67.0</ele><time>2026-03-29T08:13:16Z</time></trkpt><trkpt lat="45.095220813518786" lon="8.968373432664114"><ele>66.5</ele><time>2026-03-29T08:13:17Z</time></trkpt><trkpt lat="45.094955629386185" lon="8.968333510484344"><ele>66.0</ele><time>2026-03-29T08:13:18Z</time></trkpt><trkpt lat="45.094692857899766" lon="8.968298105261907"><ele>66.0</ele><time>2026-03-29T08:13:19Z</time></trkpt><trkpt lat="45.09442753521914" lon="8.968272439204002"><ele>66.0</ele><time>2026-03-29T08:13:20Z</time></trkpt><trkpt lat="45.09416327074929" lon="8.968252733651399"><ele>66.5</ele><time>2026-03-29T08:13:21Z</time></trkpt><trkpt lat="45.09390016824281" lon="8.96823633814612"><ele>67.0</ele><time>2026-03-29T08:13:22Z</time></trkpt><trkpt lat="45.09363462445156" lon="8.968232202274725"><ele>67.0</ele><time>2026-03-29T08:13:23Z</time></trkpt><trkpt lat="45.093372504373264" lon="8.968232844861037"><ele>67.0</ele><time>2026-03-29T08:13:24Z</time></trkpt><trkpt lat="45.09310767658309" lon="8.968248586838207"><ele>67.5</ele><time>2026-03-29T08:13:25Z</time></trkpt><trkpt lat="45.09284403067731" lon="8.968273431957916"><ele>68.0</ele><time>2026-03-29T08:13:26Z</time></trkpt><trkpt lat="45.09258318563309" lon="8.968301826811212"><ele>68.0</ele><time>2026-03-29T08:13:27Z</time></trkpt><trkpt lat="45.09232136035487" lon="8.968335134119885"><ele>68.0</ele><time>2026-03-29T08:13:28Z</time></trkpt><trkpt lat="45.092059707422415" lon="8.968375101223744"><ele>68.0</ele><time>2026-03-29T08:13:29Z</time></trkpt><trkpt lat="45.09179769458307" lon="8.96842796459941"><ele>68.0</ele><time>2026-03-29T08:13:30Z</time></trkpt><trkpt lat="45.091540014785686" lon="8.968480602762272"><ele>68.0</ele><time>2026-03-29T08:13:31Z</time></trkpt><trkpt lat="45.0912845499968" lon="8.968533445802192"><ele>68.0</ele><time>2026-03-29T08:13:32Z</time></trkpt><trkpt lat="45.09102544816127" lon="8.968595720193528"><ele>68.0</ele><time>2026-03-29T08:13:33Z</time></trkpt><trkpt lat="45.09076930302592" lon="8.968664146443968"><ele>68.0</ele><time>2026-03-29T08:13:34Z</time></trkpt><trkpt lat="45.09050854604204" lon="8.968746523656558"><ele>68.0</ele><time>2026-03-29T08:13:35Z</time></trkpt><trkpt lat="45.09024641282936" lon="8.968836694331461"><ele>68.0</ele><time>2026-03-29T08:13:36Z</time></trkpt><trkpt lat="45.089987373611756" lon="8.968930490366274"><ele>68.0</ele><time>2026-03-29T08:13:37Z</time></trkpt><trkpt lat="45.08973409149059" lon="8.969025903605031"><ele>68.0</ele><time>2026-03-29T08:13:38Z</time></trkpt><trkpt lat="45.08947452341198" lon="8.969130399483571"><ele>68.0</ele><time>2026-03-29T08:13:39Z</time></trkpt><trkpt lat="45.08921826069527" lon="8.969233916053298"><ele>68.0</ele><time>2026-03-29T08:13:40Z</time></trkpt><trkpt lat="45.08896370428707" lon="8.969335109486465"><ele>69.5</ele><time>2026-03-29T08:13:41Z</time></trkpt><trkpt lat="45.08870786379969" lon="8.969444093979513"><ele>71.0</ele><time>2026-03-29T08:13:42Z</time></trkpt><trkpt lat="45.08845367915973" lon="8.96955133252346"><ele>70.5</ele><time>2026-03-29T08:13:43Z</time></trkpt><trkpt lat="45.08819882632326" lon="8.96966226980621"><ele>70.0</ele><time>2026-03-29T08:13:44Z</time></trkpt><trkpt lat="45.08794244900801" lon="8.96977407949347"><ele>70.0</ele><time>2026-03-29T08:13:45Z</time></trkpt><trkpt lat="45.08768974078281" lon="8.969879259354709"><ele>70.0</ele><time>2026-03-29T08:13:46Z</time></trkpt><trkpt lat="45.08743252052924" lon="8.969985558984886"><ele>69.0</ele><time>2026-03-29T08:13:47Z</time></trkpt><trkpt lat="45.08717626863905" lon="8.970090661757508"><ele>68.0</ele><time>2026-03-29T08:13:48Z</time></trkpt><trkpt lat="45.08691967920669" lon="8.970197624824335"><ele>68.0</ele><time>2026-03-29T08:13:49Z</time></trkpt><trkpt lat="45.08666488832514" lon="8.970305607887017"><ele>68.0</ele><time>2026-03-29T08:13:50Z</time></trkpt><trkpt lat="45.08640801149218" lon="8.970416721431212"><ele>67.5</ele><time>2026-03-29T08:13:51Z</time></trkpt><trkpt lat="45.0861476931574" lon="8.970529713029501"><ele>67.0</ele><time>2026-03-29T08:13:52Z</time></trkpt><trkpt lat="45.0858894572842" lon="8.970639175723388"><ele>67.0</ele><time>2026-03-29T08:13:53Z</time></trkpt><trkpt lat="45.08562996777564" lon="8.970747867425228"><ele>67.0</ele><time>2026-03-29T08:13:54Z</time></trkpt><trkpt lat="45.0853678711307" lon="8.970859533862155"><ele>67.0</ele><time>2026-03-29T08:13:55Z</time></trkpt><trkpt lat="45.08510414652082" lon="8.970968733662895"><ele>67.0</ele><time>2026-03-29T08:13:56Z</time></trkpt><trkpt lat="45.08483990460946" lon="8.971079697479365"><ele>65.5</ele><time>2026-03-29T08:13:57Z</time></trkpt><trkpt lat="45.084575121281844" lon="8.97119323676387"><ele>64.0</ele><time>2026-03-29T08:13:58Z</time></trkpt><trkpt lat="45.08430983958737" lon="8.971304739289723"><ele>63.0</ele><time>2026-03-29T08:13:59Z</time></trkpt><trkpt lat="45.08404306770545" lon="8.971419605744973"><ele>62.0</ele><time>2026-03-29T08:14:00Z</time></trkpt><trkpt lat="45.08377853739193" lon="8.971527129884155"><ele>62.0</ele><time>2026-03-29T08:14:01Z</time></trkpt><trkpt lat="45.08351346382111" lon="8.971640618990845"><ele>62.0</ele><time>2026-03-29T08:14:02Z</time></trkpt><trkpt lat="45.08324663648473" lon="8.971750995852718"><ele>62.5</ele><time>2026-03-29T08:14:03Z</time></trkpt><trkpt lat="45.0829806289312" lon="8.971857387214527"><ele>63.0</ele><time>2026-03-29T08:14:04Z</time></trkpt><trkpt lat="45.08271188583633" lon="8.971966485887904"><ele>63.0</ele><time>2026-03-29T08:14:05Z</time></trkpt><trkpt lat="45.082446099983734" lon="8.972073066834247"><ele>63.0</ele><time>2026-03-29T08:14:06Z</time></trkpt><trkpt lat="45.08217809186966" lon="8.972187608370653"><ele>62.5</ele><time>2026-03-29T08:14:07Z</time></trkpt><trkpt lat="45.081914332224365" lon="8.97229846987932"><ele>62.0</ele><time>2026-03-29T08:14:08Z</time></trkpt><trkpt lat="45.081653653717964" lon="8.972407778399672"><ele>61.5</ele><time>2026-03-29T08:14:09Z</time></trkpt><trkpt lat="45.08138655000973" lon="8.97251933073345"><ele>61.0</ele><time>2026-03-29T08:14:10Z</time></trkpt><trkpt lat="45.08112520812868" lon="8.972627719018956"><ele>63.0</ele><time>2026-03-29T08:14:11Z</time></trkpt><trkpt lat="45.08086199469447" lon="8.972740001573973"><ele>65.0</ele><time>2026-03-29T08:14:12Z</time></trkpt><trkpt lat="45.080599889804795" lon="8.972850568774753"><ele>68.5</ele><time>2026-03-29T08:14:13Z</time></trkpt><trkpt lat="45.08033875315078" lon="8.972961971732849"><ele>72.0</ele><time>2026-03-29T08:14:14Z</time></trkpt><trkpt lat="45.08007728675782" lon="8.973071792336933"><ele>70.5</ele><time>2026-03-29T08:14:15Z</time></trkpt><trkpt lat="45.079818916334226" lon="8.973179820919478"><ele>69.0</ele><time>2026-03-29T08:14:16Z</time></trkpt><trkpt lat="45.07955990943696" lon="8.973284637586529"><ele>69.5</ele><time>2026-03-29T08:14:17Z</time></trkpt><trkpt lat="45.07930132567789" lon="8.973388500853313"><ele>70.0</ele><time>2026-03-29T08:14:18Z</time></trkpt><trkpt lat="45.079040193312" lon="8.97348287123558"><ele>70.0</ele><time>2026-03-29T08:14:19Z</time></trkpt><trkpt lat="45.07877826458514" lon="8.973564638156319"><ele>70.0</ele><time>2026-03-29T08:14:20Z</time></trkpt><trkpt lat="45.07851582475468" lon="8.973630788560063"><ele>69.5</ele><time>2026-03-29T08:14:21Z</time></trkpt><trkpt lat="45.07825340297333" lon="8.973681273435739"><ele>69.0</ele><time>2026-03-29T08:14:22Z</time></trkpt><trkpt lat="45.077988156183324" lon="8.973718521223596"><ele>69.0</ele><time>2026-03-29T08:14:23Z</time></trkpt><trkpt lat="45.077722080992466" lon="8.973742937651341"><ele>69.0</ele><time>2026-03-29T08:14:24Z</time></trkpt><trkpt lat="45.077456484348524" lon="8.973758889211394"><ele>69.0</ele><time>2026-03-29T08:14:25Z</time></trkpt><trkpt lat="45.07719498620774" lon="8.973758343416954"><ele>69.0</ele><time>2026-03-29T08:14:26Z</time></trkpt><trkpt lat="45.076928285197376" lon="8.973745695897335"><ele>69.0</ele><time>2026-03-29T08:14:27Z</time></trkpt><trkpt lat="45.076661053789" lon="8.973719157847103"><ele>69.0</ele><time>2026-03-29T08:14:28Z</time></trkpt><trkpt lat="45.07640041152482" lon="8.973665947482594"><ele>68.5</ele><time>2026-03-29T08:14:29Z</time></trkpt><trkpt lat="45.0761360657994" lon="8.973603482108409"><ele>68.0</ele><time>2026-03-29T08:14:30Z</time></trkpt><trkpt lat="45.07587814890615" lon="8.973525147334826"><ele>67.5</ele><time>2026-03-29T08:14:31Z</time></trkpt><trkpt lat="45.07562065848717" lon="8.97343812789398"><ele>67.0</ele><time>2026-03-29T08:14:32Z</time></trkpt><trkpt lat="45.07536378277358" lon="8.97334219885221"><ele>67.0</ele><time>2026-03-29T08:14:33Z</time></trkpt><trkpt lat="45.07510753948649" lon="8.973234650209298"><ele>67.0</ele><time>2026-03-29T08:14:34Z</time></trkpt><trkpt lat="45.07485510760342" lon="8.973112562782894"><ele>67.0</ele><time>2026-03-29T08:14:35Z</time></trkpt><trkpt lat="45.07460885713481" lon="8.972971665016967"><ele>67.0</ele><time>2026-03-29T08:14:36Z</time></trkpt><trkpt lat="45.07436498749211" lon="8.972816237640266"><ele>67.0</ele><time>2026-03-29T08:14:37Z</time></trkpt><trkpt lat="45.07412390729767" lon="8.972648841722107"><ele>67.0</ele><time>2026-03-29T08:14:38Z</time></trkpt><trkpt lat="45.07388551595518" lon="8.972470698708385"><ele>67.5</ele><time>2026-03-29T08:14:39Z</time></trkpt><trkpt lat="45.07365181582055" lon="8.972280823529504"><ele>68.0</ele><time>2026-03-29T08:14:40Z</time></trkpt><trkpt lat="45.07341985713336" lon="8.972079969219877"><ele>68.5</ele><time>2026-03-29T08:14:41Z</time></trkpt><trkpt lat="45.073194982055135" lon="8.971868734438639"><ele>69.0</ele><time>2026-03-29T08:14:42Z</time></trkpt><trkpt lat="45.07297400399529" lon="8.971647149177185"><ele>69.5</ele><time>2026-03-29T08:14:43Z</time></trkpt><trkpt lat="45.07275970708634" lon="8.971416312919958"><ele>70.0</ele><time>2026-03-29T08:14:44Z</time></trkpt><trkpt lat="45.07254800561957" lon="8.971177806225587"><ele>70.0</ele><time>2026-03-29T08:14:45Z</time></trkpt><trkpt lat="45.07234026227098" lon="8.970937435429398"><ele>70.0</ele><time>2026-03-29T08:14:46Z</time></trkpt><trkpt lat="45.07212631082555" lon="8.9707018613508"><ele>69.0</ele><time>2026-03-29T08:14:47Z</time></trkpt><trkpt lat="45.07191299835528" lon="8.970469323854811"><ele>68.0</ele><time>2026-03-29T08:14:48Z</time></trkpt><trkpt lat="45.07169612430128" lon="8.970237820090544"><ele>68.5</ele><time>2026-03-29T08:14:49Z</time></trkpt><trkpt lat="45.07148394568127" lon="8.970004709875134"><ele>69.0</ele><time>2026-03-29T08:14:50Z</time></trkpt><trkpt lat="45.07127239912814" lon="8.969774219926014"><ele>69.0</ele><time>2026-03-29T08:14:51Z</time></trkpt><trkpt lat="45.071062664479356" lon="8.969541538702487"><ele>69.0</ele><time>2026-03-29T08:14:52Z</time></trkpt><trkpt lat="45.070845650305316" lon="8.969312400317163"><ele>69.0</ele><time>2026-03-29T08:14:53Z</time></trkpt><trkpt lat="45.07063465313648" lon="8.969078853542372"><ele>69.0</ele><time>2026-03-29T08:14:54Z</time></trkpt><trkpt lat="45.070422640950504" lon="8.968846882246048"><ele>69.0</ele><time>2026-03-29T08:14:55Z</time></trkpt><trkpt lat="45.07021311283197" lon="8.96861149859758"><ele>69.0</ele><time>2026-03-29T08:14:56Z</time></trkpt><trkpt lat="45.06999589313841" lon="8.96837511961967"><ele>69.0</ele><time>2026-03-29T08:14:57Z</time></trkpt><trkpt lat="45.06977931367493" lon="8.96813719452021"><ele>69.0</ele><time>2026-03-29T08:14:58Z</time></trkpt><trkpt lat="45.06956413571219" lon="8.967904440781453"><ele>69.0</ele><time>2026-03-29T08:14:59Z</time></trkpt><trkpt lat="45.069351755649116" lon="8.967672321880215"><ele>69.0</ele><time>2026-03-29T08:15:00Z</time></trkpt><trkpt lat="45.069140161650424" lon="8.967441047398736"><ele>68.0</ele><time>2026-03-29T08:15:01Z</time></trkpt><trkpt lat="45.06892889128808" lon="8.967209048506646"><ele>67.0</ele><time>2026-03-29T08:15:02Z</time></trkpt><trkpt lat="45.06871747411401" lon="8.966976964820798"><ele>67.0</ele><time>2026-03-29T08:15:03Z</time></trkpt><trkpt lat="45.068505294754914" lon="8.966747606355389"><ele>67.0</ele><time>2026-03-29T08:15:04Z</time></trkpt><trkpt lat="45.06829527994102" lon="8.966515189459226"><ele>68.0</ele><time>2026-03-29T08:15:05Z</time></trkpt><trkpt lat="45.06808674529171" lon="8.966283712402548"><ele>69.0</ele><time>2026-03-29T08:15:06Z</time></trkpt><trkpt lat="45.06787828979643" lon="8.966053078274177"><ele>68.5</ele><time>2026-03-29T08:15:07Z</time></trkpt><trkpt lat="45.06766969911222" lon="8.965823660016142"><ele>68.0</ele><time>2026-03-29T08:15:08Z</time></trkpt><trkpt lat="45.06745821412232" lon="8.965596720302557"><ele>68.5</ele><time>2026-03-29T08:15:09Z</time></trkpt><trkpt lat="45.06724401331022" lon="8.9653692605924"><ele>69.0</ele><time>2026-03-29T08:15:10Z</time></trkpt><trkpt lat="45.06703883170905" lon="8.96513621885207"><ele>69.0</ele><time>2026-03-29T08:15:11Z</time></trkpt><trkpt lat="45.06683035416405" lon="8.964905037491354"><ele>69.0</ele><time>2026-03-29T08:15:12Z</time></trkpt><trkpt lat="45.066620908729355" lon="8.96467042042484"><ele>69.5</ele><time>2026-03-29T08:15:13Z</time></trkpt><trkpt lat="45.06641249870798" lon="8.964441565966887"><ele>70.0</ele><time>2026-03-29T08:15:14Z</time></trkpt><trkpt lat="45.06620242781264" lon="8.964212515868574"><ele>69.0</ele><time>2026-03-29T08:15:15Z</time></trkpt><trkpt lat="45.06599218634696" lon="8.963985828598394"><ele>68.0</ele><time>2026-03-29T08:15:16Z</time></trkpt><trkpt lat="45.06577999781186" lon="8.963757466437407"><ele>68.0</ele><time>2026-03-29T08:15:17Z</time></trkpt><trkpt lat="45.06556732195431" lon="8.963530614118362"><ele>68.0</ele><time>2026-03-29T08:15:18Z</time></trkpt><trkpt lat="45.06536054559771" lon="8.963301173640353"><ele>68.0</ele><time>2026-03-29T08:15:19Z</time></trkpt><trkpt lat="45.065154988646654" lon="8.963072073577928"><ele>68.0</ele><time>2026-03-29T08:15:20Z</time></trkpt><trkpt lat="45.06494477308746" lon="8.962843211196311"><ele>68.5</ele><time>2026-03-29T08:15:21Z</time></trkpt><trkpt lat="45.06473779125918" lon="8.962615638592283"><ele>69.0</ele><time>2026-03-29T08:15:22Z</time></trkpt><trkpt lat="45.06452775897916" lon="8.962387332493073"><ele>69.0</ele><time>2026-03-29T08:15:23Z</time></trkpt><trkpt lat="45.06432142018742" lon="8.962162475453445"><ele>69.0</ele><time>2026-03-29T08:15:24Z</time></trkpt><trkpt lat="45.06411251670842" lon="8.961935064848882"><ele>68.5</ele><time>2026-03-29T08:15:25Z</time></trkpt><trkpt lat="45.06390277802828" lon="8.96170781774008"><ele>68.0</ele><time>2026-03-29T08:15:26Z</time></trkpt><trkpt lat="45.06369073693605" lon="8.961481730171805"><ele>68.0</ele><time>2026-03-29T08:15:27Z</time></trkpt><trkpt lat="45.0634791417407" lon="8.961250902982727"><ele>68.0</ele><time>2026-03-29T08:15:28Z</time></trkpt><trkpt lat="45.0632710264114" lon="8.961018820840868"><ele>68.0</ele><time>2026-03-29T08:15:29Z</time></trkpt><trkpt lat="45.063059800689736" lon="8.960791817112218"><ele>68.0</ele><time>2026-03-29T08:15:30Z</time></trkpt><trkpt lat="45.06285156208865" lon="8.960563301633954"><ele>68.0</ele><time>2026-03-29T08:15:31Z</time></trkpt><trkpt lat="45.06263948801462" lon="8.96033275284001"><ele>68.0</ele><time>2026-03-29T08:15:32Z</time></trkpt><trkpt lat="45.062420295115714" lon="8.960102875574284"><ele>69.0</ele><time>2026-03-29T08:15:33Z</time></trkpt><trkpt lat="45.0622094877989" lon="8.959861078514695"><ele>70.0</ele><time>2026-03-29T08:15:34Z</time></trkpt><trkpt lat="45.06199783085135" lon="8.959627417478641"><ele>70.0</ele><time>2026-03-29T08:15:35Z</time></trkpt><trkpt lat="45.06178533227977" lon="8.959395276478428"><ele>70.0</ele><time>2026-03-29T08:15:36Z</time></trkpt><trkpt lat="45.06157135255105" lon="8.959160632136074"><ele>70.0</ele><time>2026-03-29T08:15:37Z</time></trkpt><trkpt lat="45.061358874786194" lon="8.95892806538456"><ele>70.0</ele><time>2026-03-29T08:15:38Z</time></trkpt><trkpt lat="45.06114474824411" lon="8.958692050878232"><ele>70.0</ele><time>2026-03-29T08:15:39Z</time></trkpt><trkpt lat="45.060929527447726" lon="8.958457476687217"><ele>70.0</ele><time>2026-03-29T08:15:40Z</time></trkpt><trkpt lat="45.06071676855727" lon="8.958225598701024"><ele>69.0</ele><time>2026-03-29T08:15:41Z</time></trkpt><trkpt lat="45.060499562056464" lon="8.957991701371583"><ele>68.0</ele><time>2026-03-29T08:15:42Z</time></trkpt><trkpt lat="45.06028616104876" lon="8.957758999370203"><ele>68.5</ele><time>2026-03-29T08:15:43Z</time></trkpt><trkpt lat="45.06007720147291" lon="8.957526030831383"><ele>69.0</ele><time>2026-03-29T08:15:44Z</time></trkpt><trkpt lat="45.059864497324114" lon="8.957295472322452"><ele>69.0</ele><time>2026-03-29T08:15:45Z</time></trkpt><trkpt lat="45.05965229746366" lon="8.957061589178839"><ele>69.0</ele><time>2026-03-29T08:15:46Z</time></trkpt><trkpt lat="45.05944059631415" lon="8.956830600030365"><ele>69.0</ele><time>2026-03-29T08:15:47Z</time></trkpt><trkpt lat="45.05922860448978" lon="8.956598949028514"><ele>69.0</ele><time>2026-03-29T08:15:48Z</time></trkpt><trkpt lat="45.0590157437814" lon="8.956367764767748"><ele>69.0</ele><time>2026-03-29T08:15:49Z</time></trkpt><trkpt lat="45.05880317197305" lon="8.956135207735928"><ele>69.0</ele><time>2026-03-29T08:15:50Z</time></trkpt><trkpt lat="45.05859297596968" lon="8.955900773837955"><ele>69.0</ele><time>2026-03-29T08:15:51Z</time></trkpt><trkpt lat="45.0583843916172" lon="8.955669287686028"><ele>69.0</ele><time>2026-03-29T08:15:52Z</time></trkpt><trkpt lat="45.05817555328741" lon="8.955438623764529"><ele>69.0</ele><time>2026-03-29T08:15:53Z</time></trkpt><trkpt lat="45.05796520974203" lon="8.955207996820032"><ele>69.0</ele><time>2026-03-29T08:15:54Z</time></trkpt><trkpt lat="45.057754545850756" lon="8.954982245655913"><ele>69.0</ele><time>2026-03-29T08:15:55Z</time></trkpt><trkpt lat="45.05754582510393" lon="8.95475377300862"><ele>69.0</ele><time>2026-03-29T08:15:56Z</time></trkpt><trkpt lat="45.057338936853476" lon="8.954526578554413"><ele>69.5</ele><time>2026-03-29T08:15:57Z</time></trkpt><trkpt lat="45.05713285766858" lon="8.954305246466634"><ele>70.0</ele><time>2026-03-29T08:15:58Z</time></trkpt><trkpt lat="45.05692253114279" lon="8.954083029029293"><ele>70.0</ele><time>2026-03-29T08:15:59Z</time></trkpt><trkpt lat="45.05671482751401" lon="8.953865869703511"><ele>70.0</ele><time>2026-03-29T08:16:00Z</time></trkpt><trkpt lat="45.05650621236626" lon="8.95365221231622"><ele>68.5</ele><time>2026-03-29T08:16:01Z</time></trkpt><trkpt lat="45.056292897681416" lon="8.953449941701292"><ele>67.0</ele><time>2026-03-29T08:16:02Z</time></trkpt><trkpt lat="45.05607147715767" lon="8.953256290209756"><ele>67.0</ele><time>2026-03-29T08:16:03Z</time></trkpt><trkpt lat="45.055844043204615" lon="8.953074915408541"><ele>67.0</ele><time>2026-03-29T08:16:04Z</time></trkpt><trkpt lat="45.05561766252157" lon="8.952901936451578"><ele>68.0</ele><time>2026-03-29T08:16:05Z</time></trkpt><trkpt lat="45.05538483173131" lon="8.95273604942537"><ele>69.0</ele><time>2026-03-29T08:16:06Z</time></trkpt><trkpt lat="45.0551558886983" lon="8.952569021306395"><ele>70.5</ele><time>2026-03-29T08:16:07Z</time></trkpt><trkpt lat="45.05492102644606" lon="8.952403989303864"><ele>72.0</ele><time>2026-03-29T08:16:08Z</time></trkpt><trkpt lat="45.054686161594084" lon="8.952237898816652"><ele>72.0</ele><time>2026-03-29T08:16:09Z</time></trkpt><trkpt lat="45.05445620996217" lon="8.95207238258484"><ele>72.0</ele><time>2026-03-29T08:16:10Z</time></trkpt><trkpt lat="45.05421998172136" lon="8.951905574982707"><ele>72.0</ele><time>2026-03-29T08:16:11Z</time></trkpt><trkpt lat="45.05398396418476" lon="8.951738564101676"><ele>72.0</ele><time>2026-03-29T08:16:12Z</time></trkpt><trkpt lat="45.053754611775815" lon="8.951572879020155"><ele>72.0</ele><time>2026-03-29T08:16:13Z</time></trkpt><trkpt lat="45.05352028687954" lon="8.951408015426273"><ele>72.0</ele><time>2026-03-29T08:16:14Z</time></trkpt><trkpt lat="45.05329049127714" lon="8.951240035418802"><ele>73.5</ele><time>2026-03-29T08:16:15Z</time></trkpt><trkpt lat="45.05305840376368" lon="8.951072723247568"><ele>75.0</ele><time>2026-03-29T08:16:16Z</time></trkpt><trkpt lat="45.05282504046632" lon="8.95090842960699"><ele>74.0</ele><time>2026-03-29T08:16:17Z</time></trkpt><trkpt lat="45.052598674603026" lon="8.95074022595274"><ele>73.0</ele><time>2026-03-29T08:16:18Z</time></trkpt><trkpt lat="45.052370677099326" lon="8.950575890742513"><ele>73.0</ele><time>2026-03-29T08:16:19Z</time></trkpt><trkpt lat="45.052137763357386" lon="8.950412074796906"><ele>73.0</ele><time>2026-03-29T08:16:20Z</time></trkpt><trkpt lat="45.05190257404352" lon="8.950250690320956"><ele>73.0</ele><time>2026-03-29T08:16:21Z</time></trkpt><trkpt lat="45.05167315703581" lon="8.950089725641876"><ele>73.0</ele><time>2026-03-29T08:16:22Z</time></trkpt><trkpt lat="45.051444541394105" lon="8.949921038289013"><ele>71.5</ele><time>2026-03-29T08:16:23Z</time></trkpt><trkpt lat="45.05121245451989" lon="8.94975356682196"><ele>70.0</ele><time>2026-03-29T08:16:24Z</time></trkpt><trkpt lat="45.050973231155616" lon="8.949587041351204"><ele>70.5</ele><time>2026-03-29T08:16:25Z</time></trkpt><trkpt lat="45.050740411200024" lon="8.949423598955185"><ele>71.0</ele><time>2026-03-29T08:16:26Z</time></trkpt><trkpt lat="45.050510065250016" lon="8.949256091086886"><ele>72.0</ele><time>2026-03-29T08:16:27Z</time></trkpt><trkpt lat="45.050275815612935" lon="8.94908819714933"><ele>73.0</ele><time>2026-03-29T08:16:28Z</time></trkpt><trkpt lat="45.05004334594652" lon="8.948919547728524"><ele>72.5</ele><time>2026-03-29T08:16:29Z</time></trkpt><trkpt lat="45.049807015834105" lon="8.948749998006791"><ele>72.0</ele><time>2026-03-29T08:16:30Z</time></trkpt><trkpt lat="45.049571002638984" lon="8.948581463848589"><ele>72.0</ele><time>2026-03-29T08:16:31Z</time></trkpt><trkpt lat="45.04933637149313" lon="8.948412969509828"><ele>72.0</ele><time>2026-03-29T08:16:32Z</time></trkpt><trkpt lat="45.04910013475449" lon="8.948245860073024"><ele>72.5</ele><time>2026-03-29T08:16:33Z</time></trkpt><trkpt lat="45.04886519238048" lon="8.948080734642799"><ele>73.0</ele><time>2026-03-29T08:16:34Z</time></trkpt><trkpt lat="45.0486298247077" lon="8.947915487796518"><ele>73.0</ele><time>2026-03-29T08:16:35Z</time></trkpt><trkpt lat="45.0483981033137" lon="8.947747029577803"><ele>73.0</ele><time>2026-03-29T08:16:36Z</time></trkpt><trkpt lat="45.04816345810758" lon="8.947580076832322"><ele>72.5</ele><time>2026-03-29T08:16:37Z</time></trkpt><trkpt lat="45.04792703154711" lon="8.94741008559136"><ele>72.0</ele><time>2026-03-29T08:16:38Z</time></trkpt><trkpt lat="45.04769224725379" lon="8.947238232812193"><ele>73.0</ele><time>2026-03-29T08:16:39Z</time></trkpt><trkpt lat="45.04745852730885" lon="8.947067340496046"><ele>74.0</ele><time>2026-03-29T08:16:40Z</time></trkpt><trkpt lat="45.04722204205335" lon="8.946898310261222"><ele>74.0</ele><time>2026-03-29T08:16:41Z</time></trkpt><trkpt lat="45.04698423644064" lon="8.94672932435932"><ele>74.0</ele><time>2026-03-29T08:16:42Z</time></trkpt><trkpt lat="45.04674703902477" lon="8.946563107967139"><ele>75.0</ele><time>2026-03-29T08:16:43Z</time></trkpt><trkpt lat="45.046509163620094" lon="8.946394863689068"><ele>76.0</ele><time>2026-03-29T08:16:44Z</time></trkpt><trkpt lat="45.04627045361795" lon="8.946226307959934"><ele>76.0</ele><time>2026-03-29T08:16:45Z</time></trkpt><trkpt lat="45.046034907293524" lon="8.946058060911968"><ele>76.0</ele><time>2026-03-29T08:16:46Z</time></trkpt><trkpt lat="45.04579801976926" lon="8.945890627272684"><ele>75.5</ele><time>2026-03-29T08:16:47Z</time></trkpt><trkpt lat="45.04555599591673" lon="8.945727051064303"><ele>75.0</ele><time>2026-03-29T08:16:48Z</time></trkpt><trkpt lat="45.04532463363343" lon="8.945552216595166"><ele>75.0</ele><time>2026-03-29T08:16:49Z</time></trkpt><trkpt lat="45.04508844750726" lon="8.945380656857074"><ele>75.0</ele><time>2026-03-29T08:16:50Z</time></trkpt><trkpt lat="45.044850942013966" lon="8.945211296279972"><ele>73.5</ele><time>2026-03-29T08:16:51Z</time></trkpt><trkpt lat="45.04461129116034" lon="8.945044047773143"><ele>72.0</ele><time>2026-03-29T08:16:52Z</time></trkpt><trkpt lat="45.04437515329448" lon="8.944873607795973"><ele>72.0</ele><time>2026-03-29T08:16:53Z</time></trkpt><trkpt lat="45.04413512043708" lon="8.944705521716516"><ele>72.0</ele><time>2026-03-29T08:16:54Z</time></trkpt><trkpt lat="45.043895730287986" lon="8.944535695660532"><ele>72.0</ele><time>2026-03-29T08:16:55Z</time></trkpt><trkpt lat="45.043655868966894" lon="8.944366628118951"><ele>72.0</ele><time>2026-03-29T08:16:56Z</time></trkpt><trkpt lat="45.04342046450483" lon="8.94419491671886"><ele>72.0</ele><time>2026-03-29T08:16:57Z</time></trkpt><trkpt lat="45.04318685658387" lon="8.944024626566716"><ele>72.0</ele><time>2026-03-29T08:16:58Z</time></trkpt><trkpt lat="45.04295614853967" lon="8.943853576147625"><ele>72.0</ele><time>2026-03-29T08:16:59Z</time></trkpt><trkpt lat="45.04272160752321" lon="8.943683975892617"><ele>72.0</ele><time>2026-03-29T08:17:00Z</time></trkpt><trkpt lat="45.042487919147916" lon="8.943517730244418"><ele>72.5</ele><time>2026-03-29T08:17:01Z</time></trkpt><trkpt lat="45.04225250030908" lon="8.943352106192739"><ele>73.0</ele><time>2026-03-29T08:17:02Z</time></trkpt><trkpt lat="45.04201872991017" lon="8.943182659094706"><ele>73.0</ele><time>2026-03-29T08:17:03Z</time></trkpt><trkpt lat="45.041782052061066" lon="8.943019112397483"><ele>73.0</ele><time>2026-03-29T08:17:04Z</time></trkpt><trkpt lat="45.04154839744606" lon="8.942850431526722"><ele>72.5</ele><time>2026-03-29T08:17:05Z</time></trkpt><trkpt lat="45.04131097547803" lon="8.94268282562984"><ele>72.0</ele><time>2026-03-29T08:17:06Z</time></trkpt><trkpt lat="45.041075060547435" lon="8.942512610972036"><ele>71.5</ele><time>2026-03-29T08:17:07Z</time></trkpt><trkpt lat="45.040838118906805" lon="8.942344735269392"><ele>71.0</ele><time>2026-03-29T08:17:08Z</time></trkpt><trkpt lat="45.040600906073664" lon="8.942176071936792"><ele>73.0</ele><time>2026-03-29T08:17:09Z</time></trkpt><trkpt lat="45.040363844145865" lon="8.942009390035558"><ele>75.0</ele><time>2026-03-29T08:17:10Z</time></trkpt><trkpt lat="45.040124479374334" lon="8.941842312623194"><ele>74.0</ele><time>2026-03-29T08:17:11Z</time></trkpt><trkpt lat="45.039885339878175" lon="8.94167212628108"><ele>73.0</ele><time>2026-03-29T08:17:12Z</time></trkpt><trkpt lat="45.039649842216924" lon="8.941501262511341"><ele>73.0</ele><time>2026-03-29T08:17:13Z</time></trkpt><trkpt lat="45.03940872255366" lon="8.941336840785903"><ele>73.0</ele><time>2026-03-29T08:17:14Z</time></trkpt><trkpt lat="45.0391734947271" lon="8.941170747109748"><ele>73.0</ele><time>2026-03-29T08:17:15Z</time></trkpt><trkpt lat="45.03893095745161" lon="8.940997888885471"><ele>73.0</ele><time>2026-03-29T08:17:16Z</time></trkpt><trkpt lat="45.038697156508356" lon="8.94083973859457"><ele>73.0</ele><time>2026-03-29T08:17:17Z</time></trkpt><trkpt lat="45.03846107346337" lon="8.940677081271083"><ele>73.0</ele><time>2026-03-29T08:17:18Z</time></trkpt><trkpt lat="45.03822653030228" lon="8.940513267552271"><ele>73.5</ele><time>2026-03-29T08:17:19Z</time></trkpt><trkpt lat="45.03799291635649" lon="8.94034838971278"><ele>74.0</ele><time>2026-03-29T08:17:20Z</time></trkpt><trkpt lat="45.037761976132586" lon="8.940185077740168"><ele>73.0</ele><time>2026-03-29T08:17:21Z</time></trkpt><trkpt lat="45.037526516372225" lon="8.940023860579414"><ele>72.0</ele><time>2026-03-29T08:17:22Z</time></trkpt><trkpt lat="45.03729611117585" lon="8.939861926588957"><ele>72.0</ele><time>2026-03-29T08:17:23Z</time></trkpt><trkpt lat="45.037069356089255" lon="8.939700095921816"><ele>72.0</ele><time>2026-03-29T08:17:24Z</time></trkpt><trkpt lat="45.03684320094057" lon="8.939538520018303"><ele>72.0</ele><time>2026-03-29T08:17:25Z</time></trkpt><trkpt lat="45.03661459409614" lon="8.939376241867226"><ele>72.0</ele><time>2026-03-29T08:17:26Z</time></trkpt><trkpt lat="45.03638880042966" lon="8.939213834983807"><ele>72.0</ele><time>2026-03-29T08:17:27Z</time></trkpt><trkpt lat="45.03616113146213" lon="8.939057239389715"><ele>72.0</ele><time>2026-03-29T08:17:28Z</time></trkpt><trkpt lat="45.0359297945532" lon="8.938902923656455"><ele>72.5</ele><time>2026-03-29T08:17:29Z</time></trkpt><trkpt lat="45.03570000261224" lon="8.938747112784085"><ele>73.0</ele><time>2026-03-29T08:17:30Z</time></trkpt><trkpt lat="45.035465661304734" lon="8.93859037032781"><ele>73.0</ele><time>2026-03-29T08:17:31Z</time></trkpt><trkpt lat="45.035239069929965" lon="8.938429065078386"><ele>73.0</ele><time>2026-03-29T08:17:32Z</time></trkpt><trkpt lat="45.03500946098981" lon="8.938265523695177"><ele>74.5</ele><time>2026-03-29T08:17:33Z</time></trkpt><trkpt lat="45.03477839467652" lon="8.938099273982218"><ele>76.0</ele><time>2026-03-29T08:17:34Z</time></trkpt><trkpt lat="45.03454042682814" lon="8.937934795628346"><ele>76.0</ele><time>2026-03-29T08:17:35Z</time></trkpt><trkpt lat="45.034304779204156" lon="8.9377742573427"><ele>76.0</ele><time>2026-03-29T08:17:36Z</time></trkpt><trkpt lat="45.034064746008006" lon="8.93760708420891"><ele>75.5</ele><time>2026-03-29T08:17:37Z</time></trkpt><trkpt lat="45.033829387096034" lon="8.937440799545199"><ele>75.0</ele><time>2026-03-29T08:17:38Z</time></trkpt><trkpt lat="45.03359460068478" lon="8.93727399756263"><ele>75.0</ele><time>2026-03-29T08:17:39Z</time></trkpt><trkpt lat="45.03335487103815" lon="8.937106866434151"><ele>75.0</ele><time>2026-03-29T08:17:40Z</time></trkpt><trkpt lat="45.03311938005608" lon="8.936939871875467"><ele>74.0</ele><time>2026-03-29T08:17:41Z</time></trkpt><trkpt lat="45.03288236283229" lon="8.936775314826976"><ele>73.0</ele><time>2026-03-29T08:17:42Z</time></trkpt><trkpt lat="45.03264552544825" lon="8.936611727671398"><ele>74.0</ele><time>2026-03-29T08:17:43Z</time></trkpt><trkpt lat="45.03240987862339" lon="8.936447804510006"><ele>75.0</ele><time>2026-03-29T08:17:44Z</time></trkpt><trkpt lat="45.03217549277703" lon="8.936285342981332"><ele>75.0</ele><time>2026-03-29T08:17:45Z</time></trkpt><trkpt lat="45.03193692893291" lon="8.936123551734951"><ele>75.0</ele><time>2026-03-29T08:17:46Z</time></trkpt><trkpt lat="45.031702693272514" lon="8.93595871089005"><ele>75.5</ele><time>2026-03-29T08:17:47Z</time></trkpt><trkpt lat="45.0314699827873" lon="8.935793876161815"><ele>76.0</ele><time>2026-03-29T08:17:48Z</time></trkpt><trkpt lat="45.03123648574041" lon="8.935629888121547"><ele>76.0</ele><time>2026-03-29T08:17:49Z</time></trkpt><trkpt lat="45.03100693016692" lon="8.935465115393498"><ele>76.0</ele><time>2026-03-29T08:17:50Z</time></trkpt><trkpt lat="45.03076995512356" lon="8.935303032092653"><ele>76.0</ele><time>2026-03-29T08:17:51Z</time></trkpt><trkpt lat="45.03053666223477" lon="8.935138167065784"><ele>76.0</ele><time>2026-03-29T08:17:52Z</time></trkpt><trkpt lat="45.03030929291285" lon="8.934969299026486"><ele>76.0</ele><time>2026-03-29T08:17:53Z</time></trkpt><trkpt lat="45.03008162262378" lon="8.934803159559268"><ele>76.0</ele><time>2026-03-29T08:17:54Z</time></trkpt><trkpt lat="45.02984279947582" lon="8.934644892877891"><ele>77.0</ele><time>2026-03-29T08:17:55Z</time></trkpt><trkpt lat="45.029609532398815" lon="8.934486182176556"><ele>78.0</ele><time>2026-03-29T08:17:56Z</time></trkpt><trkpt lat="45.029383234585964" lon="8.93432592390669"><ele>78.0</ele><time>2026-03-29T08:17:57Z</time></trkpt><trkpt lat="45.02914907182994" lon="8.934163528343811"><ele>78.0</ele><time>2026-03-29T08:17:58Z</time></trkpt><trkpt lat="45.02891564587888" lon="8.93400209638611"><ele>77.5</ele><time>2026-03-29T08:17:59Z</time></trkpt><trkpt lat="45.02868752561374" lon="8.933838668621203"><ele>77.0</ele><time>2026-03-29T08:18:00Z</time></trkpt><trkpt lat="45.028457062198086" lon="8.933677733898396"><ele>77.5</ele><time>2026-03-29T08:18:01Z</time></trkpt><trkpt lat="45.028225567783586" lon="8.933518004320472"><ele>78.0</ele><time>2026-03-29T08:18:02Z</time></trkpt><trkpt lat="45.027994732281144" lon="8.93335804690599"><ele>78.0</ele><time>2026-03-29T08:18:03Z</time></trkpt><trkpt lat="45.02776330507819" lon="8.933197719430733"><ele>78.0</ele><time>2026-03-29T08:18:04Z</time></trkpt><trkpt lat="45.027534862670244" lon="8.933035530783547"><ele>76.5</ele><time>2026-03-29T08:18:05Z</time></trkpt><trkpt lat="45.02730117127138" lon="8.932874555155243"><ele>75.0</ele><time>2026-03-29T08:18:06Z</time></trkpt><trkpt lat="45.02707132557032" lon="8.932712620005288"><ele>75.0</ele><time>2026-03-29T08:18:07Z</time></trkpt><trkpt lat="45.02683929736635" lon="8.932550272534858"><ele>75.0</ele><time>2026-03-29T08:18:08Z</time></trkpt><trkpt lat="45.02660976421612" lon="8.932383712931653"><ele>75.5</ele><time>2026-03-29T08:18:09Z</time></trkpt><trkpt lat="45.0263718507349" lon="8.932221250601794"><ele>76.0</ele><time>2026-03-29T08:18:10Z</time></trkpt><trkpt lat="45.026138176648736" lon="8.932060542992446"><ele>76.0</ele><time>2026-03-29T08:18:11Z</time></trkpt><trkpt lat="45.02590346252635" lon="8.93190238028631"><ele>76.0</ele><time>2026-03-29T08:18:12Z</time></trkpt><trkpt lat="45.025670550689405" lon="8.931738068590986"><ele>76.5</ele><time>2026-03-29T08:18:13Z</time></trkpt><trkpt lat="45.02543570337509" lon="8.931575446549923"><ele>77.0</ele><time>2026-03-29T08:18:14Z</time></trkpt><trkpt lat="45.02520316407784" lon="8.931409097126723"><ele>78.0</ele><time>2026-03-29T08:18:15Z</time></trkpt><trkpt lat="45.02496851088617" lon="8.93124692821153"><ele>79.0</ele><time>2026-03-29T08:18:16Z</time></trkpt><trkpt lat="45.024734935192754" lon="8.931082013652185"><ele>79.0</ele><time>2026-03-29T08:18:17Z</time></trkpt><trkpt lat="45.02450379309764" lon="8.930913052548382"><ele>79.0</ele><time>2026-03-29T08:18:18Z</time></trkpt><trkpt lat="45.02426710945332" lon="8.930747767985105"><ele>78.0</ele><time>2026-03-29T08:18:19Z</time></trkpt><trkpt lat="45.024029647228815" lon="8.930586913863026"><ele>77.0</ele><time>2026-03-29T08:18:20Z</time></trkpt><trkpt lat="45.0237999374219" lon="8.930422203814215"><ele>77.0</ele><time>2026-03-29T08:18:21Z</time></trkpt><trkpt lat="45.02356568134312" lon="8.930257060759105"><ele>77.0</ele><time>2026-03-29T08:18:22Z</time></trkpt><trkpt lat="45.02333008285743" lon="8.930102203937148"><ele>77.5</ele><time>2026-03-29T08:18:23Z</time></trkpt><trkpt lat="45.023097328212934" lon="8.929941791902236"><ele>78.0</ele><time>2026-03-29T08:18:24Z</time></trkpt><trkpt lat="45.0228671328435" lon="8.929776592825958"><ele>78.0</ele><time>2026-03-29T08:18:25Z</time></trkpt><trkpt lat="45.02263664258579" lon="8.929610395108693"><ele>78.0</ele><time>2026-03-29T08:18:26Z</time></trkpt><trkpt lat="45.02240876512467" lon="8.929443483685226"><ele>78.0</ele><time>2026-03-29T08:18:27Z</time></trkpt><trkpt lat="45.02217956865549" lon="8.929280750416993"><ele>78.0</ele><time>2026-03-29T08:18:28Z</time></trkpt><trkpt lat="45.021949760988505" lon="8.929120133134782"><ele>78.0</ele><time>2026-03-29T08:18:29Z</time></trkpt><trkpt lat="45.02171616271632" lon="8.928961644098393"><ele>78.0</ele><time>2026-03-29T08:18:30Z</time></trkpt><trkpt lat="45.0214853326067" lon="8.928803274265764"><ele>78.5</ele><time>2026-03-29T08:18:31Z</time></trkpt><trkpt lat="45.02125069377878" lon="8.928651238753163"><ele>79.0</ele><time>2026-03-29T08:18:32Z</time></trkpt><trkpt lat="45.021018562265944" lon="8.928494888404737"><ele>80.0</ele><time>2026-03-29T08:18:33Z</time></trkpt><trkpt lat="45.02078889148883" lon="8.928332276557063"><ele>81.0</ele><time>2026-03-29T08:18:34Z</time></trkpt><trkpt lat="45.02055933432526" lon="8.928171035834202"><ele>81.0</ele><time>2026-03-29T08:18:35Z</time></trkpt><trkpt lat="45.02033100520087" lon="8.928006449191054"><ele>81.0</ele><time>2026-03-29T08:18:36Z</time></trkpt><trkpt lat="45.02010192318232" lon="8.927841206692015"><ele>81.0</ele><time>2026-03-29T08:18:37Z</time></trkpt><trkpt lat="45.01987192035877" lon="8.927676590197366"><ele>81.0</ele><time>2026-03-29T08:18:38Z</time></trkpt><trkpt lat="45.01964447744989" lon="8.92751444424594"><ele>80.0</ele><time>2026-03-29T08:18:39Z</time></trkpt><trkpt lat="45.019415871683144" lon="8.927350101665015"><ele>79.0</ele><time>2026-03-29T08:18:40Z</time></trkpt><trkpt lat="45.01918926574502" lon="8.927192404211768"><ele>79.5</ele><time>2026-03-29T08:18:41Z</time></trkpt><trkpt lat="45.0189566788353" lon="8.927039531606122"><ele>80.0</ele><time>2026-03-29T08:18:42Z</time></trkpt><trkpt lat="45.01872253767898" lon="8.92688976958304"><ele>80.0</ele><time>2026-03-29T08:18:43Z</time></trkpt><trkpt lat="45.01848680347228" lon="8.926743137256121"><ele>80.0</ele><time>2026-03-29T08:18:44Z</time></trkpt><trkpt lat="45.01825506035405" lon="8.926591685717787"><ele>79.0</ele><time>2026-03-29T08:18:45Z</time></trkpt><trkpt lat="45.01802432009114" lon="8.926436233354856"><ele>78.0</ele><time>2026-03-29T08:18:46Z</time></trkpt><trkpt lat="45.017800167604015" lon="8.926274920121221"><ele>78.0</ele><time>2026-03-29T08:18:47Z</time></trkpt><trkpt lat="45.0175758151059" lon="8.92611297179952"><ele>78.0</ele><time>2026-03-29T08:18:48Z</time></trkpt><trkpt lat="45.017351521890504" lon="8.925946357218908"><ele>79.0</ele><time>2026-03-29T08:18:49Z</time></trkpt><trkpt lat="45.01713093671941" lon="8.925776189841352"><ele>80.0</ele><time>2026-03-29T08:18:50Z</time></trkpt><trkpt lat="45.016912467380926" lon="8.925601154131957"><ele>80.0</ele><time>2026-03-29T08:18:51Z</time></trkpt><trkpt lat="45.01669035298976" lon="8.925432524787462"><ele>80.0</ele><time>2026-03-29T08:18:52Z</time></trkpt><trkpt lat="45.016468372294796" lon="8.925268249857158"><ele>79.0</ele><time>2026-03-29T08:18:53Z</time></trkpt><trkpt lat="45.01624792459645" lon="8.925110145991589"><ele>78.0</ele><time>2026-03-29T08:18:54Z</time></trkpt><trkpt lat="45.01601849829453" lon="8.924948570385999"><ele>77.5</ele><time>2026-03-29T08:18:55Z</time></trkpt><trkpt lat="45.01579368801645" lon="8.92478504709594"><ele>77.0</ele><time>2026-03-29T08:18:56Z</time></trkpt><trkpt lat="45.015566416359334" lon="8.924623024380091"><ele>77.0</ele><time>2026-03-29T08:18:57Z</time></trkpt><trkpt lat="45.015337024000544" lon="8.924460046120855"><ele>77.0</ele><time>2026-03-29T08:18:58Z</time></trkpt><trkpt lat="45.01510880333427" lon="8.924295409351267"><ele>77.5</ele><time>2026-03-29T08:18:59Z</time></trkpt><trkpt lat="45.01488157496729" lon="8.924129294554369"><ele>78.0</ele><time>2026-03-29T08:19:00Z</time></trkpt><trkpt lat="45.01465451204747" lon="8.92396377292779"><ele>78.0</ele><time>2026-03-29T08:19:01Z</time></trkpt><trkpt lat="45.0144251702709" lon="8.923798910419766"><ele>78.0</ele><time>2026-03-29T08:19:02Z</time></trkpt><trkpt lat="45.01418576870237" lon="8.923639782824976"><ele>77.5</ele><time>2026-03-29T08:19:03Z</time></trkpt><trkpt lat="45.01396069963739" lon="8.923471532294489"><ele>77.0</ele><time>2026-03-29T08:19:04Z</time></trkpt><trkpt lat="45.013732214778145" lon="8.923306339070471"><ele>76.5</ele><time>2026-03-29T08:19:05Z</time></trkpt><trkpt lat="45.013504760235634" lon="8.923139522186208"><ele>76.0</ele><time>2026-03-29T08:19:06Z</time></trkpt><trkpt lat="45.01327911823064" lon="8.922974151389983"><ele>76.0</ele><time>2026-03-29T08:19:07Z</time></trkpt><trkpt lat="45.013052081196435" lon="8.922807191156654"><ele>76.0</ele><time>2026-03-29T08:19:08Z</time></trkpt><trkpt lat="45.012820503312945" lon="8.922644507332516"><ele>76.0</ele><time>2026-03-29T08:19:09Z</time></trkpt><trkpt lat="45.01259440842918" lon="8.92247788290591"><ele>76.0</ele><time>2026-03-29T08:19:10Z</time></trkpt><trkpt lat="45.012369589975556" lon="8.922312675582464"><ele>78.5</ele><time>2026-03-29T08:19:11Z</time></trkpt><trkpt lat="45.01214292598958" lon="8.922149469488161"><ele>81.0</ele><time>2026-03-29T08:19:12Z</time></trkpt><trkpt lat="45.01190765923617" lon="8.921986101219925"><ele>81.0</ele><time>2026-03-29T08:19:13Z</time></trkpt><trkpt lat="45.011672405979816" lon="8.921828739293606"><ele>81.0</ele><time>2026-03-29T08:19:14Z</time></trkpt><trkpt lat="45.01144945898335" lon="8.921653998625958"><ele>80.0</ele><time>2026-03-29T08:19:15Z</time></trkpt><trkpt lat="45.01121400108655" lon="8.921486625115936"><ele>79.0</ele><time>2026-03-29T08:19:16Z</time></trkpt><trkpt lat="45.010980146979776" lon="8.921320925053191"><ele>78.5</ele><time>2026-03-29T08:19:17Z</time></trkpt><trkpt lat="45.01074672586663" lon="8.921155889313175"><ele>78.0</ele><time>2026-03-29T08:19:18Z</time></trkpt><trkpt lat="45.01051261475685" lon="8.92099098393285"><ele>78.0</ele><time>2026-03-29T08:19:19Z</time></trkpt><trkpt lat="45.01028220072028" lon="8.920824205399821"><ele>78.0</ele><time>2026-03-29T08:19:20Z</time></trkpt><trkpt lat="45.01004533056846" lon="8.920657291298019"><ele>78.0</ele><time>2026-03-29T08:19:21Z</time></trkpt><trkpt lat="45.00980995726399" lon="8.92049288727087"><ele>78.0</ele><time>2026-03-29T08:19:22Z</time></trkpt><trkpt lat="45.00957741706544" lon="8.920327938321876"><ele>78.0</ele><time>2026-03-29T08:19:23Z</time></trkpt><trkpt lat="45.009343417496645" lon="8.920162009170635"><ele>78.0</ele><time>2026-03-29T08:19:24Z</time></trkpt><trkpt lat="45.00911137008641" lon="8.9199945385759"><ele>78.5</ele><time>2026-03-29T08:19:25Z</time></trkpt><trkpt lat="45.00887898483162" lon="8.919827033068575"><ele>79.0</ele><time>2026-03-29T08:19:26Z</time></trkpt><trkpt lat="45.00864526721384" lon="8.919660173929843"><ele>79.0</ele><time>2026-03-29T08:19:27Z</time></trkpt><trkpt lat="45.00841250440145" lon="8.919492312080111"><ele>79.0</ele><time>2026-03-29T08:19:28Z</time></trkpt><trkpt lat="45.00818068569682" lon="8.919325929090736"><ele>78.5</ele><time>2026-03-29T08:19:29Z</time></trkpt><trkpt lat="45.00794929141885" lon="8.919159135589512"><ele>78.0</ele><time>2026-03-29T08:19:30Z</time></trkpt><trkpt lat="45.007720331871575" lon="8.918989345620224"><ele>77.5</ele><time>2026-03-29T08:19:31Z</time></trkpt><trkpt lat="45.007487155934726" lon="8.918822239297173"><ele>77.0</ele><time>2026-03-29T08:19:32Z</time></trkpt><trkpt lat="45.007259206950714" lon="8.918657834455017"><ele>77.0</ele><time>2026-03-29T08:19:33Z</time></trkpt><trkpt lat="45.00702352884905" lon="8.918489221413829"><ele>77.0</ele><time>2026-03-29T08:19:34Z</time></trkpt><trkpt lat="45.006792119356106" lon="8.918321578762086"><ele>78.0</ele><time>2026-03-29T08:19:35Z</time></trkpt><trkpt lat="45.00655847436946" lon="8.918155306098692"><ele>79.0</ele><time>2026-03-29T08:19:36Z</time></trkpt><trkpt lat="45.00632584244909" lon="8.917986160737062"><ele>79.0</ele><time>2026-03-29T08:19:37Z</time></trkpt><trkpt lat="45.00609388008797" lon="8.917820966813496"><ele>79.0</ele><time>2026-03-29T08:19:38Z</time></trkpt><trkpt lat="45.00586072638394" lon="8.917652302619713"><ele>77.5</ele><time>2026-03-29T08:19:39Z</time></trkpt><trkpt lat="45.005623318183204" lon="8.917484097876804"><ele>76.0</ele><time>2026-03-29T08:19:40Z</time></trkpt><trkpt lat="45.005389461804775" lon="8.917314625044517"><ele>76.0</ele><time>2026-03-29T08:19:41Z</time></trkpt><trkpt lat="45.00515489589806" lon="8.917147880134753"><ele>76.0</ele><time>2026-03-29T08:19:42Z</time></trkpt><trkpt lat="45.004918879473074" lon="8.916981123026055"><ele>76.0</ele><time>2026-03-29T08:19:43Z</time></trkpt><trkpt lat="45.004682934833106" lon="8.916813253225179"><ele>76.0</ele><time>2026-03-29T08:19:44Z</time></trkpt><trkpt lat="45.00444977104822" lon="8.916643354045432"><ele>76.5</ele><time>2026-03-29T08:19:45Z</time></trkpt><trkpt lat="45.00421121330573" lon="8.916472972291787"><ele>77.0</ele><time>2026-03-29T08:19:46Z</time></trkpt><trkpt lat="45.0039766940179" lon="8.916303786551298"><ele>78.0</ele><time>2026-03-29T08:19:47Z</time></trkpt><trkpt lat="45.00374506045394" lon="8.916136878608741"><ele>79.0</ele><time>2026-03-29T08:19:48Z</time></trkpt><trkpt lat="45.003507336637426" lon="8.915968376011163"><ele>78.0</ele><time>2026-03-29T08:19:49Z</time></trkpt><trkpt lat="45.00327355900976" lon="8.915800875913911"><ele>77.0</ele><time>2026-03-29T08:19:50Z</time></trkpt><trkpt lat="45.003037222146006" lon="8.915644512205157"><ele>77.0</ele><time>2026-03-29T08:19:51Z</time></trkpt><trkpt lat="45.0028029789106" lon="8.91546955638713"><ele>77.0</ele><time>2026-03-29T08:19:52Z</time></trkpt><trkpt lat="45.002573825723466" lon="8.915300515341379"><ele>76.5</ele><time>2026-03-29T08:19:53Z</time></trkpt><trkpt lat="45.00233928470952" lon="8.915132111246814"><ele>76.0</ele><time>2026-03-29T08:19:54Z</time></trkpt><trkpt lat="45.00210696966327" lon="8.914964503189964"><ele>76.0</ele><time>2026-03-29T08:19:55Z</time></trkpt><trkpt lat="45.001876288315884" lon="8.91479658322573"><ele>76.0</ele><time>2026-03-29T08:19:56Z</time></trkpt><trkpt lat="45.00164112007743" lon="8.914629384043012"><ele>76.0</ele><time>2026-03-29T08:19:57Z</time></trkpt><trkpt lat="45.00141003607207" lon="8.914461840350617"><ele>76.0</ele><time>2026-03-29T08:19:58Z</time></trkpt><trkpt lat="45.00117468399208" lon="8.914295040275011"><ele>76.5</ele><time>2026-03-29T08:19:59Z</time></trkpt><trkpt lat="45.00094219866987" lon="8.91413020355544"><ele>77.0</ele><time>2026-03-29T08:20:00Z</time></trkpt><trkpt lat="45.00070762181613" lon="8.913963386914617"><ele>78.0</ele><time>2026-03-29T08:20:01Z</time></trkpt><trkpt lat="45.000472334307425" lon="8.913797685304"><ele>79.0</ele><time>2026-03-29T08:20:02Z</time></trkpt><trkpt lat="45.000238877943566" lon="8.91363162984338"><ele>79.0</ele><time>2026-03-29T08:20:03Z</time></trkpt><trkpt lat="45.000008576956006" lon="8.913464352501034"><ele>79.0</ele><time>2026-03-29T08:20:04Z</time></trkpt><trkpt lat="44.99977493882747" lon="8.913294285282081"><ele>79.5</ele><time>2026-03-29T08:20:05Z</time></trkpt><trkpt lat="44.9995445431726" lon="8.913126219125607"><ele>80.0</ele><time>2026-03-29T08:20:06Z</time></trkpt><trkpt lat="44.99930878082855" lon="8.912957008783566"><ele>80.0</ele><time>2026-03-29T08:20:07Z</time></trkpt><trkpt lat="44.99907693455686" lon="8.912789832199211"><ele>80.0</ele><time>2026-03-29T08:20:08Z</time></trkpt><trkpt lat="44.99884534930559" lon="8.912624278186536"><ele>78.5</ele><time>2026-03-29T08:20:09Z</time></trkpt><trkpt lat="44.998610708148505" lon="8.912459578192559"><ele>77.0</ele><time>2026-03-29T08:20:10Z</time></trkpt><trkpt lat="44.998379592176406" lon="8.912293153070992"><ele>78.0</ele><time>2026-03-29T08:20:11Z</time></trkpt><trkpt lat="44.99814973597159" lon="8.912125400432238"><ele>79.0</ele><time>2026-03-29T08:20:12Z</time></trkpt><trkpt lat="44.997917520646624" lon="8.911957809423493"><ele>79.0</ele><time>2026-03-29T08:20:13Z</time></trkpt><trkpt lat="44.99769420325658" lon="8.911791434927295"><ele>79.0</ele><time>2026-03-29T08:20:14Z</time></trkpt><trkpt lat="44.99746575405918" lon="8.911626871005991"><ele>79.0</ele><time>2026-03-29T08:20:15Z</time></trkpt><trkpt lat="44.99723654915941" lon="8.911464403771404"><ele>79.0</ele><time>2026-03-29T08:20:16Z</time></trkpt><trkpt lat="44.99700552079251" lon="8.911301658234128"><ele>79.0</ele><time>2026-03-29T08:20:17Z</time></trkpt><trkpt lat="44.996774458810926" lon="8.911138944443108"><ele>79.0</ele><time>2026-03-29T08:20:18Z</time></trkpt><trkpt lat="44.99654676176338" lon="8.91097327788478"><ele>78.5</ele><time>2026-03-29T08:20:19Z</time></trkpt><trkpt lat="44.99631947972594" lon="8.91080828115228"><ele>78.0</ele><time>2026-03-29T08:20:20Z</time></trkpt><trkpt lat="44.99608769416147" lon="8.910645404942874"><ele>78.0</ele><time>2026-03-29T08:20:21Z</time></trkpt><trkpt lat="44.995862844609775" lon="8.910480921035461"><ele>78.0</ele><time>2026-03-29T08:20:22Z</time></trkpt><trkpt lat="44.99562614627456" lon="8.910315611892019"><ele>78.0</ele><time>2026-03-29T08:20:23Z</time></trkpt><trkpt lat="44.99539608943382" lon="8.910151322393466"><ele>78.0</ele><time>2026-03-29T08:20:24Z</time></trkpt><trkpt lat="44.995169373196156" lon="8.909985529968505"><ele>78.0</ele><time>2026-03-29T08:20:25Z</time></trkpt><trkpt lat="44.994934694423236" lon="8.909821883672032"><ele>78.0</ele><time>2026-03-29T08:20:26Z</time></trkpt><trkpt lat="44.99470840728924" lon="8.909656233378412"><ele>78.0</ele><time>2026-03-29T08:20:27Z</time></trkpt><trkpt lat="44.9944754409043" lon="8.909492540397263"><ele>78.0</ele><time>2026-03-29T08:20:28Z</time></trkpt><trkpt lat="44.99424125634494" lon="8.909327741533843"><ele>78.5</ele><time>2026-03-29T08:20:29Z</time></trkpt><trkpt lat="44.994007576621364" lon="8.909162090390916"><ele>79.0</ele><time>2026-03-29T08:20:30Z</time></trkpt><trkpt lat="44.99377224476838" lon="8.908996549853569"><ele>79.0</ele><time>2026-03-29T08:20:31Z</time></trkpt><trkpt lat="44.99353974888278" lon="8.908829002310343"><ele>79.0</ele><time>2026-03-29T08:20:32Z</time></trkpt><trkpt lat="44.99330319407625" lon="8.908663428789877"><ele>79.0</ele><time>2026-03-29T08:20:33Z</time></trkpt><trkpt lat="44.99306939737323" lon="8.908495578868342"><ele>79.0</ele><time>2026-03-29T08:20:34Z</time></trkpt><trkpt lat="44.99283278520894" lon="8.908328733273798"><ele>79.5</ele><time>2026-03-29T08:20:35Z</time></trkpt><trkpt lat="44.99259580464667" lon="8.908159082707758"><ele>80.0</ele><time>2026-03-29T08:20:36Z</time></trkpt><trkpt lat="44.992356130856955" lon="8.907988984269464"><ele>80.0</ele><time>2026-03-29T08:20:37Z</time></trkpt><trkpt lat="44.99211675935029" lon="8.907815585255822"><ele>80.0</ele><time>2026-03-29T08:20:38Z</time></trkpt><trkpt lat="44.99187948147178" lon="8.90764275879391"><ele>81.5</ele><time>2026-03-29T08:20:39Z</time></trkpt><trkpt lat="44.99164005818326" lon="8.90747085046316"><ele>83.0</ele><time>2026-03-29T08:20:40Z</time></trkpt><trkpt lat="44.99140096297636" lon="8.907298245181025"><ele>83.0</ele><time>2026-03-29T08:20:41Z</time></trkpt><trkpt lat="44.99116496746666" lon="8.90712722184664"><ele>83.0</ele><time>2026-03-29T08:20:42Z</time></trkpt><trkpt lat="44.99092831166253" lon="8.906956915491271"><ele>82.5</ele><time>2026-03-29T08:20:43Z</time></trkpt><trkpt lat="44.99069379674391" lon="8.906787547454433"><ele>82.0</ele><time>2026-03-29T08:20:44Z</time></trkpt><trkpt lat="44.99046197167371" lon="8.906612509728616"><ele>82.0</ele><time>2026-03-29T08:20:45Z</time></trkpt><trkpt lat="44.990227017892636" lon="8.906451219903772"><ele>82.0</ele><time>2026-03-29T08:20:46Z</time></trkpt><trkpt lat="44.98999318244761" lon="8.906284197003433"><ele>82.0</ele><time>2026-03-29T08:20:47Z</time></trkpt><trkpt lat="44.98976073978309" lon="8.906117314195049"><ele>82.0</ele><time>2026-03-29T08:20:48Z</time></trkpt><trkpt lat="44.98952535777778" lon="8.905950000288524"><ele>82.0</ele><time>2026-03-29T08:20:49Z</time></trkpt><trkpt lat="44.98928792447257" lon="8.905780008268506"><ele>82.0</ele><time>2026-03-29T08:20:50Z</time></trkpt><trkpt lat="44.98905343991841" lon="8.905610792307478"><ele>82.0</ele><time>2026-03-29T08:20:51Z</time></trkpt><trkpt lat="44.98881389615153" lon="8.905443411043265"><ele>82.0</ele><time>2026-03-29T08:20:52Z</time></trkpt><trkpt lat="44.98857312786789" lon="8.905277409378723"><ele>81.5</ele><time>2026-03-29T08:20:53Z</time></trkpt><trkpt lat="44.98833993029517" lon="8.905105000577324"><ele>81.0</ele><time>2026-03-29T08:20:54Z</time></trkpt><trkpt lat="44.98810036679672" lon="8.904934774857397"><ele>81.0</ele><time>2026-03-29T08:20:55Z</time></trkpt><trkpt lat="44.98786335400056" lon="8.904762958891965"><ele>81.0</ele><time>2026-03-29T08:20:56Z</time></trkpt><trkpt lat="44.987626052226844" lon="8.904593904734435"><ele>80.5</ele><time>2026-03-29T08:20:57Z</time></trkpt><trkpt lat="44.987389870234075" lon="8.904422665633982"><ele>80.0</ele><time>2026-03-29T08:20:58Z</time></trkpt><trkpt lat="44.98715269326998" lon="8.904254968371955"><ele>80.0</ele><time>2026-03-29T08:20:59Z</time></trkpt><trkpt lat="44.986914753908785" lon="8.904085561006296"><ele>80.0</ele><time>2026-03-29T08:21:00Z</time></trkpt><trkpt lat="44.98668097217343" lon="8.903913459573621"><ele>79.5</ele><time>2026-03-29T08:21:01Z</time></trkpt><trkpt lat="44.98644457525766" lon="8.903745086934302"><ele>79.0</ele><time>2026-03-29T08:21:02Z</time></trkpt><trkpt lat="44.98620881473932" lon="8.903578315526435"><ele>79.0</ele><time>2026-03-29T08:21:03Z</time></trkpt><trkpt lat="44.985974177741234" lon="8.903410448773357"><ele>79.0</ele><time>2026-03-29T08:21:04Z</time></trkpt><trkpt lat="44.98574051757728" lon="8.903243128399698"><ele>80.0</ele><time>2026-03-29T08:21:05Z</time></trkpt><trkpt lat="44.985507990018014" lon="8.903075594955794"><ele>81.0</ele><time>2026-03-29T08:21:06Z</time></trkpt><trkpt lat="44.98527591972115" lon="8.902906993444656"><ele>81.0</ele><time>2026-03-29T08:21:07Z</time></trkpt><trkpt lat="44.985045399645784" lon="8.902741913298975"><ele>81.0</ele><time>2026-03-29T08:21:08Z</time></trkpt><trkpt lat="44.98481194349338" lon="8.9025794257219"><ele>80.5</ele><time>2026-03-29T08:21:09Z</time></trkpt><trkpt lat="44.984578976369704" lon="8.902415257700124"><ele>80.0</ele><time>2026-03-29T08:21:10Z</time></trkpt><trkpt lat="44.984345733853445" lon="8.902250018303066"><ele>81.0</ele><time>2026-03-29T08:21:11Z</time></trkpt><trkpt lat="44.984113862732585" lon="8.90208706014236"><ele>82.0</ele><time>2026-03-29T08:21:12Z</time></trkpt><trkpt lat="44.983881847429636" lon="8.901921917846252"><ele>82.0</ele><time>2026-03-29T08:21:13Z</time></trkpt><trkpt lat="44.98365036337964" lon="8.901758023171574"><ele>82.0</ele><time>2026-03-29T08:21:14Z</time></trkpt><trkpt lat="44.98341978157659" lon="8.90159171912742"><ele>82.5</ele><time>2026-03-29T08:21:15Z</time></trkpt><trkpt lat="44.98318981137639" lon="8.901425443801179"><ele>83.0</ele><time>2026-03-29T08:21:16Z</time></trkpt><trkpt lat="44.9829705817331" lon="8.901266779333836"><ele>83.0</ele><time>2026-03-29T08:21:17Z</time></trkpt><trkpt lat="44.98273154459199" lon="8.901098136718161"><ele>83.0</ele><time>2026-03-29T08:21:18Z</time></trkpt><trkpt lat="44.98249335397436" lon="8.900936495518478"><ele>82.5</ele><time>2026-03-29T08:21:19Z</time></trkpt><trkpt lat="44.98225866273775" lon="8.900768524978004"><ele>82.0</ele><time>2026-03-29T08:21:20Z</time></trkpt><trkpt lat="44.98202496352287" lon="8.900598873941785"><ele>82.0</ele><time>2026-03-29T08:21:21Z</time></trkpt><trkpt lat="44.98178899405362" lon="8.900432015221826"><ele>82.0</ele><time>2026-03-29T08:21:22Z</time></trkpt><trkpt lat="44.981555628985674" lon="8.900261723584597"><ele>82.0</ele><time>2026-03-29T08:21:23Z</time></trkpt><trkpt lat="44.981318304155835" lon="8.900091539666496"><ele>82.0</ele><time>2026-03-29T08:21:24Z</time></trkpt><trkpt lat="44.98108262209" lon="8.89991970148637"><ele>82.5</ele><time>2026-03-29T08:21:25Z</time></trkpt><trkpt lat="44.980846623221076" lon="8.899749159644042"><ele>83.0</ele><time>2026-03-29T08:21:26Z</time></trkpt><trkpt lat="44.98061028796192" lon="8.899575835769554"><ele>83.0</ele><time>2026-03-29T08:21:27Z</time></trkpt><trkpt lat="44.98037129758218" lon="8.899403314659175"><ele>83.0</ele><time>2026-03-29T08:21:28Z</time></trkpt><trkpt lat="44.98013203833006" lon="8.899229769871544"><ele>83.0</ele><time>2026-03-29T08:21:29Z</time></trkpt><trkpt lat="44.97989026128984" lon="8.899059390637175"><ele>83.0</ele><time>2026-03-29T08:21:30Z</time></trkpt><trkpt lat="44.97965032079863" lon="8.898887662401583"><ele>83.0</ele><time>2026-03-29T08:21:31Z</time></trkpt><trkpt lat="44.979410210262465" lon="8.89871735006569"><ele>83.0</ele><time>2026-03-29T08:21:32Z</time></trkpt><trkpt lat="44.979162366916825" lon="8.89853982855592"><ele>83.5</ele><time>2026-03-29T08:21:33Z</time></trkpt><trkpt lat="44.97893171996227" lon="8.898376564038157"><ele>84.0</ele><time>2026-03-29T08:21:34Z</time></trkpt><trkpt lat="44.97870285550726" lon="8.898220444136788"><ele>84.0</ele><time>2026-03-29T08:21:35Z</time></trkpt><trkpt lat="44.978451913046726" lon="8.898040527125863"><ele>84.0</ele><time>2026-03-29T08:21:36Z</time></trkpt><trkpt lat="44.97821708184564" lon="8.897871246802062"><ele>84.5</ele><time>2026-03-29T08:21:37Z</time></trkpt><trkpt lat="44.97798408707968" lon="8.897705803976182"><ele>85.0</ele><time>2026-03-29T08:21:38Z</time></trkpt><trkpt lat="44.97775372984583" lon="8.897537549040312"><ele>85.0</ele><time>2026-03-29T08:21:39Z</time></trkpt><trkpt lat="44.977518774419046" lon="8.897368785832898"><ele>85.0</ele><time>2026-03-29T08:21:40Z</time></trkpt><trkpt lat="44.97729448321668" lon="8.897202208162227"><ele>85.0</ele><time>2026-03-29T08:21:41Z</time></trkpt><trkpt lat="44.97705447892326" lon="8.897030627435026"><ele>85.0</ele><time>2026-03-29T08:21:42Z</time></trkpt><trkpt lat="44.976819310951115" lon="8.896858355061418"><ele>84.0</ele><time>2026-03-29T08:21:43Z</time></trkpt><trkpt lat="44.97658611826235" lon="8.89668578145"><ele>83.0</ele><time>2026-03-29T08:21:44Z</time></trkpt><trkpt lat="44.976354914237035" lon="8.89650172676548"><ele>83.0</ele><time>2026-03-29T08:21:45Z</time></trkpt><trkpt lat="44.976131277155616" lon="8.896304066896803"><ele>83.0</ele><time>2026-03-29T08:21:46Z</time></trkpt><trkpt lat="44.975910819262786" lon="8.896097224617403"><ele>82.5</ele><time>2026-03-29T08:21:47Z</time></trkpt><trkpt lat="44.975694465361116" lon="8.895875446223725"><ele>82.0</ele><time>2026-03-29T08:21:48Z</time></trkpt><trkpt lat="44.97548178823019" lon="8.895649596191149"><ele>82.0</ele><time>2026-03-29T08:21:49Z</time></trkpt><trkpt lat="44.97527029185912" lon="8.895421637181359"><ele>82.0</ele><time>2026-03-29T08:21:50Z</time></trkpt><trkpt lat="44.97505983345577" lon="8.895190230658269"><ele>82.0</ele><time>2026-03-29T08:21:51Z</time></trkpt><trkpt lat="44.974845605297766" lon="8.894962784772456"><ele>82.0</ele><time>2026-03-29T08:21:52Z</time></trkpt><trkpt lat="44.97463123192665" lon="8.894737416125624"><ele>82.0</ele><time>2026-03-29T08:21:53Z</time></trkpt><trkpt lat="44.97441686618551" lon="8.89451021843326"><ele>82.0</ele><time>2026-03-29T08:21:54Z</time></trkpt><trkpt lat="44.97420548818308" lon="8.894281305346984"><ele>83.0</ele><time>2026-03-29T08:21:55Z</time></trkpt><trkpt lat="44.97399461341727" lon="8.894052402653355"><ele>84.0</ele><time>2026-03-29T08:21:56Z</time></trkpt><trkpt lat="44.97377930116219" lon="8.893825111959996"><ele>84.0</ele><time>2026-03-29T08:21:57Z</time></trkpt><trkpt lat="44.97356543728161" lon="8.893600322073128"><ele>84.0</ele><time>2026-03-29T08:21:58Z</time></trkpt><trkpt lat="44.97335091697325" lon="8.893373948917027"><ele>84.5</ele><time>2026-03-29T08:21:59Z</time></trkpt><trkpt lat="44.97313729633752" lon="8.893148395732998"><ele>85.0</ele><time>2026-03-29T08:22:00Z</time></trkpt><trkpt lat="44.972924606702634" lon="8.89292357751828"><ele>85.0</ele><time>2026-03-29T08:22:01Z</time></trkpt><trkpt lat="44.97271184635876" lon="8.892698772102559"><ele>85.0</ele><time>2026-03-29T08:22:02Z</time></trkpt><trkpt lat="44.972497250661355" lon="8.892468331367535"><ele>84.5</ele><time>2026-03-29T08:22:03Z</time></trkpt><trkpt lat="44.97228527348395" lon="8.892251663911072"><ele>84.0</ele><time>2026-03-29T08:22:04Z</time></trkpt><trkpt lat="44.97207495817067" lon="8.892026903949967"><ele>84.0</ele><time>2026-03-29T08:22:05Z</time></trkpt><trkpt lat="44.97186375776315" lon="8.891801995508139"><ele>84.0</ele><time>2026-03-29T08:22:06Z</time></trkpt><trkpt lat="44.97165315930201" lon="8.89157899030918"><ele>83.0</ele><time>2026-03-29T08:22:07Z</time></trkpt><trkpt lat="44.971443203519826" lon="8.891355477603163"><ele>82.0</ele><time>2026-03-29T08:22:08Z</time></trkpt><trkpt lat="44.97123291997236" lon="8.891130805847377"><ele>83.5</ele><time>2026-03-29T08:22:09Z</time></trkpt><trkpt lat="44.97102232263643" lon="8.89090500609904"><ele>85.0</ele><time>2026-03-29T08:22:10Z</time></trkpt><trkpt lat="44.97080832090658" lon="8.890680992287278"><ele>85.5</ele><time>2026-03-29T08:22:11Z</time></trkpt><trkpt lat="44.97059350576621" lon="8.890456215179562"><ele>86.0</ele><time>2026-03-29T08:22:12Z</time></trkpt><trkpt lat="44.9703762351557" lon="8.89023364149113"><ele>85.5</ele><time>2026-03-29T08:22:13Z</time></trkpt><trkpt lat="44.97016784814953" lon="8.890010573636161"><ele>85.0</ele><time>2026-03-29T08:22:14Z</time></trkpt><trkpt lat="44.96995280757777" lon="8.889786624829544"><ele>86.0</ele><time>2026-03-29T08:22:15Z</time></trkpt><trkpt lat="44.96974403777352" lon="8.889564452905773"><ele>87.0</ele><time>2026-03-29T08:22:16Z</time></trkpt><trkpt lat="44.96953504558284" lon="8.889338639647777"><ele>86.0</ele><time>2026-03-29T08:22:17Z</time></trkpt><trkpt lat="44.969323707187584" lon="8.889114289036979"><ele>85.0</ele><time>2026-03-29T08:22:18Z</time></trkpt><trkpt lat="44.96911470253144" lon="8.888889560682584"><ele>87.0</ele><time>2026-03-29T08:22:19Z</time></trkpt><trkpt lat="44.968902280946324" lon="8.888667477017165"><ele>89.0</ele><time>2026-03-29T08:22:20Z</time></trkpt><trkpt lat="44.9686918362539" lon="8.888445029846249"><ele>88.5</ele><time>2026-03-29T08:22:21Z</time></trkpt><trkpt lat="44.9684768847748" lon="8.888222997905201"><ele>88.0</ele><time>2026-03-29T08:22:22Z</time></trkpt><trkpt lat="44.968263863349186" lon="8.888002586193021"><ele>88.0</ele><time>2026-03-29T08:22:23Z</time></trkpt><trkpt lat="44.96804967704541" lon="8.887787542676021"><ele>88.0</ele><time>2026-03-29T08:22:24Z</time></trkpt><trkpt lat="44.96783619539082" lon="8.887564340243793"><ele>88.0</ele><time>2026-03-29T08:22:25Z</time></trkpt><trkpt lat="44.96761835497059" lon="8.887350903438476"><ele>88.0</ele><time>2026-03-29T08:22:26Z</time></trkpt><trkpt lat="44.96740717862327" lon="8.887130329694514"><ele>87.5</ele><time>2026-03-29T08:22:27Z</time></trkpt><trkpt lat="44.967197060204946" lon="8.886906169232981"><ele>87.0</ele><time>2026-03-29T08:22:28Z</time></trkpt><trkpt lat="44.96698898604995" lon="8.886681716841881"><ele>87.0</ele><time>2026-03-29T08:22:29Z</time></trkpt><trkpt lat="44.96677995848925" lon="8.88646031817271"><ele>87.0</ele><time>2026-03-29T08:22:30Z</time></trkpt><trkpt lat="44.966573672835295" lon="8.88624157898721"><ele>88.0</ele><time>2026-03-29T08:22:31Z</time></trkpt><trkpt lat="44.96636812407875" lon="8.886021258340314"><ele>89.0</ele><time>2026-03-29T08:22:32Z</time></trkpt><trkpt lat="44.966164532066514" lon="8.8857995079134"><ele>88.0</ele><time>2026-03-29T08:22:33Z</time></trkpt><trkpt lat="44.96596288692892" lon="8.885577273600804"><ele>87.0</ele><time>2026-03-29T08:22:34Z</time></trkpt><trkpt lat="44.96575875999589" lon="8.88534986881442"><ele>87.0</ele><time>2026-03-29T08:22:35Z</time></trkpt><trkpt lat="44.96555460775729" lon="8.885124133657921"><ele>87.0</ele><time>2026-03-29T08:22:36Z</time></trkpt><trkpt lat="44.96535016035552" lon="8.884898784737825"><ele>87.0</ele><time>2026-03-29T08:22:37Z</time></trkpt><trkpt lat="44.96513953959131" lon="8.884673001140925"><ele>87.0</ele><time>2026-03-29T08:22:38Z</time></trkpt><trkpt lat="44.96493473811399" lon="8.88445166707177"><ele>87.0</ele><time>2026-03-29T08:22:39Z</time></trkpt><trkpt lat="44.964725060886735" lon="8.88422959273165"><ele>87.0</ele><time>2026-03-29T08:22:40Z</time></trkpt><trkpt lat="44.96451792757673" lon="8.884009634119888"><ele>87.0</ele><time>2026-03-29T08:22:41Z</time></trkpt><trkpt lat="44.96430825887243" lon="8.883790164721525"><ele>87.0</ele><time>2026-03-29T08:22:42Z</time></trkpt><trkpt lat="44.964097794688854" lon="8.883571508908338"><ele>86.0</ele><time>2026-03-29T08:22:43Z</time></trkpt><trkpt lat="44.96389141909402" lon="8.88335201209503"><ele>85.0</ele><time>2026-03-29T08:22:44Z</time></trkpt><trkpt lat="44.96368300328816" lon="8.883128476320055"><ele>85.0</ele><time>2026-03-29T08:22:45Z</time></trkpt><trkpt lat="44.96347323591446" lon="8.882905476773653"><ele>85.0</ele><time>2026-03-29T08:22:46Z</time></trkpt><trkpt lat="44.963265629894316" lon="8.882685419780463"><ele>87.5</ele><time>2026-03-29T08:22:47Z</time></trkpt><trkpt lat="44.96305395062454" lon="8.882462741735045"><ele>90.0</ele><time>2026-03-29T08:22:48Z</time></trkpt><trkpt lat="44.96284316312944" lon="8.882236048854804"><ele>90.0</ele><time>2026-03-29T08:22:49Z</time></trkpt><trkpt lat="44.96263017893518" lon="8.882009191196076"><ele>90.0</ele><time>2026-03-29T08:22:50Z</time></trkpt><trkpt lat="44.9624176085769" lon="8.88178140107687"><ele>90.5</ele><time>2026-03-29T08:22:51Z</time></trkpt><trkpt lat="44.9622011888832" lon="8.881553497851712"><ele>91.0</ele><time>2026-03-29T08:22:52Z</time></trkpt><trkpt lat="44.9619848976419" lon="8.881324201870786"><ele>91.0</ele><time>2026-03-29T08:22:53Z</time></trkpt><trkpt lat="44.961778362661896" lon="8.881110268278512"><ele>91.0</ele><time>2026-03-29T08:22:54Z</time></trkpt><trkpt lat="44.961557320422294" lon="8.880874683573781"><ele>89.5</ele><time>2026-03-29T08:22:55Z</time></trkpt><trkpt lat="44.961347843338935" lon="8.880650951173527"><ele>88.0</ele><time>2026-03-29T08:22:56Z</time></trkpt><trkpt lat="44.961139077326365" lon="8.880427061389225"><ele>88.0</ele><time>2026-03-29T08:22:57Z</time></trkpt><trkpt lat="44.960927420071606" lon="8.880198463772432"><ele>88.0</ele><time>2026-03-29T08:22:58Z</time></trkpt><trkpt lat="44.960719047035994" lon="8.879976087606076"><ele>88.5</ele><time>2026-03-29T08:22:59Z</time></trkpt><trkpt lat="44.96050934708201" lon="8.879752508164167"><ele>89.0</ele><time>2026-03-29T08:23:00Z</time></trkpt><trkpt lat="44.96029892884395" lon="8.87953368833342"><ele>89.0</ele><time>2026-03-29T08:23:01Z</time></trkpt><trkpt lat="44.96008785504979" lon="8.879311548184992"><ele>89.0</ele><time>2026-03-29T08:23:02Z</time></trkpt><trkpt lat="44.95987973533271" lon="8.87908958657315"><ele>88.0</ele><time>2026-03-29T08:23:03Z</time></trkpt><trkpt lat="44.959671537688635" lon="8.878867089451644"><ele>87.0</ele><time>2026-03-29T08:23:04Z</time></trkpt><trkpt lat="44.95946323391549" lon="8.878645035816083"><ele>87.0</ele><time>2026-03-29T08:23:05Z</time></trkpt><trkpt lat="44.959255675584885" lon="8.878426652136104"><ele>87.0</ele><time>2026-03-29T08:23:06Z</time></trkpt><trkpt lat="44.959048484943445" lon="8.878204674317136"><ele>88.5</ele><time>2026-03-29T08:23:07Z</time></trkpt><trkpt lat="44.95884114488705" lon="8.877983408633375"><ele>90.0</ele><time>2026-03-29T08:23:08Z</time></trkpt><trkpt lat="44.95863360566868" lon="8.877768900258447"><ele>90.0</ele><time>2026-03-29T08:23:09Z</time></trkpt><trkpt lat="44.95843000489649" lon="8.877552981050208"><ele>90.0</ele><time>2026-03-29T08:23:10Z</time></trkpt><trkpt lat="44.95822434847407" lon="8.877332852046093"><ele>90.0</ele><time>2026-03-29T08:23:11Z</time></trkpt><trkpt lat="44.958015882925174" lon="8.877108829405932"><ele>90.0</ele><time>2026-03-29T08:23:12Z</time></trkpt><trkpt lat="44.957808642877346" lon="8.876885507204644"><ele>89.5</ele><time>2026-03-29T08:23:13Z</time></trkpt><trkpt lat="44.95759796242027" lon="8.876666111719155"><ele>89.0</ele><time>2026-03-29T08:23:14Z</time></trkpt><trkpt lat="44.95738806795596" lon="8.876443013563946"><ele>89.0</ele><time>2026-03-29T08:23:15Z</time></trkpt><trkpt lat="44.957175608432486" lon="8.87622073055167"><ele>89.0</ele><time>2026-03-29T08:23:16Z</time></trkpt><trkpt lat="44.95696434552633" lon="8.876000425462387"><ele>89.5</ele><time>2026-03-29T08:23:17Z</time></trkpt><trkpt lat="44.95675594420515" lon="8.875778621786113"><ele>90.0</ele><time>2026-03-29T08:23:18Z</time></trkpt><trkpt lat="44.956548342451555" lon="8.875557719548699"><ele>90.0</ele><time>2026-03-29T08:23:19Z</time></trkpt><trkpt lat="44.95634117390716" lon="8.875332736436384"><ele>90.0</ele><time>2026-03-29T08:23:20Z</time></trkpt><trkpt lat="44.95613586127333" lon="8.875108887981225"><ele>90.0</ele><time>2026-03-29T08:23:21Z</time></trkpt><trkpt lat="44.95593413129562" lon="8.874878304910261"><ele>90.0</ele><time>2026-03-29T08:23:22Z</time></trkpt><trkpt lat="44.95573654365617" lon="8.874646432599585"><ele>90.0</ele><time>2026-03-29T08:23:23Z</time></trkpt><trkpt lat="44.95554384246057" lon="8.874406896092731"><ele>90.0</ele><time>2026-03-29T08:23:24Z</time></trkpt><trkpt lat="44.95535780460223" lon="8.874154012110797"><ele>90.0</ele><time>2026-03-29T08:23:25Z</time></trkpt><trkpt lat="44.955173316080156" lon="8.873890861251926"><ele>90.0</ele><time>2026-03-29T08:23:26Z</time></trkpt><trkpt lat="44.955001491713375" lon="8.873625160555335"><ele>89.5</ele><time>2026-03-29T08:23:27Z</time></trkpt><trkpt lat="44.9548348730702" lon="8.873349825780947"><ele>89.0</ele><time>2026-03-29T08:23:28Z</time></trkpt><trkpt lat="44.95467719629775" lon="8.873071684208366"><ele>89.0</ele><time>2026-03-29T08:23:29Z</time></trkpt><trkpt lat="44.954523611910524" lon="8.872789738735804"><ele>89.0</ele><time>2026-03-29T08:23:30Z</time></trkpt><trkpt lat="44.95437907999777" lon="8.872502114505535"><ele>89.5</ele><time>2026-03-29T08:23:31Z</time></trkpt><trkpt lat="44.95423870333985" lon="8.872215844777767"><ele>90.0</ele><time>2026-03-29T08:23:32Z</time></trkpt><trkpt lat="44.954103576961465" lon="8.871924472818563"><ele>90.5</ele><time>2026-03-29T08:23:33Z</time></trkpt><trkpt lat="44.95397134203188" lon="8.871623609159695"><ele>91.0</ele><time>2026-03-29T08:23:34Z</time></trkpt><trkpt lat="44.95384624887301" lon="8.871320984212518"><ele>91.0</ele><time>2026-03-29T08:23:35Z</time></trkpt><trkpt lat="44.95372332598866" lon="8.87100975080032"><ele>91.0</ele><time>2026-03-29T08:23:36Z</time></trkpt><trkpt lat="44.95360482280262" lon="8.870708841723493"><ele>90.5</ele><time>2026-03-29T08:23:37Z</time></trkpt><trkpt lat="44.95348544454803" lon="8.870395642678497"><ele>90.0</ele><time>2026-03-29T08:23:38Z</time></trkpt><trkpt lat="44.95336502380755" lon="8.87008050379077"><ele>90.0</ele><time>2026-03-29T08:23:39Z</time></trkpt><trkpt lat="44.95324301530394" lon="8.8697619337538"><ele>90.0</ele><time>2026-03-29T08:23:40Z</time></trkpt><trkpt lat="44.95312149116067" lon="8.869443106515496"><ele>89.0</ele><time>2026-03-29T08:23:41Z</time></trkpt><trkpt lat="44.9529983731912" lon="8.869122068472068"><ele>88.0</ele><time>2026-03-29T08:23:42Z</time></trkpt><trkpt lat="44.95287314641381" lon="8.86879695671371"><ele>88.0</ele><time>2026-03-29T08:23:43Z</time></trkpt><trkpt lat="44.95274463998003" lon="8.868467742953865"><ele>88.0</ele><time>2026-03-29T08:23:44Z</time></trkpt><trkpt lat="44.9526181839468" lon="8.868138313473358"><ele>89.5</ele><time>2026-03-29T08:23:45Z</time></trkpt><trkpt lat="44.952488645706765" lon="8.867811848172403"><ele>91.0</ele><time>2026-03-29T08:23:46Z</time></trkpt><trkpt lat="44.9523624464094" lon="8.867483419031272"><ele>92.0</ele><time>2026-03-29T08:23:47Z</time></trkpt><trkpt lat="44.9522356659492" lon="8.867159442065049"><ele>93.0</ele><time>2026-03-29T08:23:48Z</time></trkpt><trkpt lat="44.952107048348644" lon="8.866836093850255"><ele>92.5</ele><time>2026-03-29T08:23:49Z</time></trkpt><trkpt lat="44.95197532168338" lon="8.866519898917186"><ele>92.0</ele><time>2026-03-29T08:23:50Z</time></trkpt><trkpt lat="44.951841145779525" lon="8.866206502778308"><ele>93.5</ele><time>2026-03-29T08:23:51Z</time></trkpt><trkpt lat="44.95169995461194" lon="8.865893595884396"><ele>95.0</ele><time>2026-03-29T08:23:52Z</time></trkpt><trkpt lat="44.95155395820799" lon="8.865590934389655"><ele>95.0</ele><time>2026-03-29T08:23:53Z</time></trkpt><trkpt lat="44.95140347893517" lon="8.865300104459516"><ele>95.0</ele><time>2026-03-29T08:23:54Z</time></trkpt><trkpt lat="44.95124332272058" lon="8.86500596061563"><ele>93.5</ele><time>2026-03-29T08:23:55Z</time></trkpt><trkpt lat="44.95108022760422" lon="8.864728278103074"><ele>92.0</ele><time>2026-03-29T08:23:56Z</time></trkpt><trkpt lat="44.9509074312077" lon="8.864450365664032"><ele>91.5</ele><time>2026-03-29T08:23:57Z</time></trkpt><trkpt lat="44.95072903185308" lon="8.8641757738541"><ele>91.0</ele><time>2026-03-29T08:23:58Z</time></trkpt><trkpt lat="44.95054705190605" lon="8.863909254230684"><ele>91.0</ele><time>2026-03-29T08:23:59Z</time></trkpt><trkpt lat="44.95035862018624" lon="8.86364913726514"><ele>91.0</ele><time>2026-03-29T08:24:00Z</time></trkpt><trkpt lat="44.95016370190993" lon="8.86339700333387"><ele>90.5</ele><time>2026-03-29T08:24:01Z</time></trkpt><trkpt lat="44.94996035603797" lon="8.863150023474727"><ele>90.0</ele><time>2026-03-29T08:24:02Z</time></trkpt><trkpt lat="44.949754425225336" lon="8.862912017042014"><ele>90.0</ele><time>2026-03-29T08:24:03Z</time></trkpt><trkpt lat="44.9495426000571" lon="8.86268445385305"><ele>90.0</ele><time>2026-03-29T08:24:04Z</time></trkpt><trkpt lat="44.94932369992152" lon="8.862467908346218"><ele>90.5</ele><time>2026-03-29T08:24:05Z</time></trkpt><trkpt lat="44.94910050838927" lon="8.862262213822394"><ele>91.0</ele><time>2026-03-29T08:24:06Z</time></trkpt><trkpt lat="44.94887255918571" lon="8.862061544312116"><ele>91.0</ele><time>2026-03-29T08:24:07Z</time></trkpt><trkpt lat="44.94864284680002" lon="8.861870964220284"><ele>91.0</ele><time>2026-03-29T08:24:08Z</time></trkpt><trkpt lat="44.948406133757786" lon="8.861688578268682"><ele>91.0</ele><time>2026-03-29T08:24:09Z</time></trkpt><trkpt lat="44.94816779809822" lon="8.861515694731839"><ele>91.0</ele><time>2026-03-29T08:24:10Z</time></trkpt><trkpt lat="44.94792451255371" lon="8.8613509791288"><ele>91.0</ele><time>2026-03-29T08:24:11Z</time></trkpt><trkpt lat="44.947683363506286" lon="8.861197043374721"><ele>91.0</ele><time>2026-03-29T08:24:12Z</time></trkpt><trkpt lat="44.94743367455447" lon="8.86105008090923"><ele>92.0</ele><time>2026-03-29T08:24:13Z</time></trkpt><trkpt lat="44.94718879137615" lon="8.860902140786155"><ele>93.0</ele><time>2026-03-29T08:24:14Z</time></trkpt><trkpt lat="44.94694304278503" lon="8.860747952100589"><ele>93.0</ele><time>2026-03-29T08:24:15Z</time></trkpt><trkpt lat="44.94669799851522" lon="8.860592734441227"><ele>93.0</ele><time>2026-03-29T08:24:16Z</time></trkpt><trkpt lat="44.946454714985016" lon="8.86044001236563"><ele>93.0</ele><time>2026-03-29T08:24:17Z</time></trkpt><trkpt lat="44.946208676707926" lon="8.860288485266484"><ele>93.0</ele><time>2026-03-29T08:24:18Z</time></trkpt><trkpt lat="44.94596742165532" lon="8.86013300534239"><ele>93.0</ele><time>2026-03-29T08:24:19Z</time></trkpt><trkpt lat="44.945727908802475" lon="8.85998036721369"><ele>93.0</ele><time>2026-03-29T08:24:20Z</time></trkpt><trkpt lat="44.945481471554096" lon="8.859829812169474"><ele>93.0</ele><time>2026-03-29T08:24:21Z</time></trkpt><trkpt lat="44.94524401436308" lon="8.859680084147998"><ele>93.0</ele><time>2026-03-29T08:24:22Z</time></trkpt><trkpt lat="44.9450014185295" lon="8.859532115712884"><ele>93.0</ele><time>2026-03-29T08:24:23Z</time></trkpt><trkpt lat="44.94475881289358" lon="8.859380190530299"><ele>93.0</ele><time>2026-03-29T08:24:24Z</time></trkpt><trkpt lat="44.944517505377156" lon="8.85922618936554"><ele>93.5</ele><time>2026-03-29T08:24:25Z</time></trkpt><trkpt lat="44.94427926861742" lon="8.859070145170673"><ele>94.0</ele><time>2026-03-29T08:24:26Z</time></trkpt><trkpt lat="44.94403839579606" lon="8.858915482381606"><ele>95.0</ele><time>2026-03-29T08:24:27Z</time></trkpt><trkpt lat="44.94379487037813" lon="8.858759901974993"><ele>96.0</ele><time>2026-03-29T08:24:28Z</time></trkpt><trkpt lat="44.94355181271059" lon="8.858605239450567"><ele>96.0</ele><time>2026-03-29T08:24:29Z</time></trkpt><trkpt lat="44.94330592201331" lon="8.85845474848645"><ele>96.0</ele><time>2026-03-29T08:24:30Z</time></trkpt><trkpt lat="44.94306419273309" lon="8.858301476834948"><ele>97.0</ele><time>2026-03-29T08:24:31Z</time></trkpt><trkpt lat="44.9428233857857" lon="8.858147054353458"><ele>98.0</ele><time>2026-03-29T08:24:32Z</time></trkpt><trkpt lat="44.94257561522116" lon="8.857994640302508"><ele>96.5</ele><time>2026-03-29T08:24:33Z</time></trkpt><trkpt lat="44.94233141650814" lon="8.85784308358861"><ele>95.0</ele><time>2026-03-29T08:24:34Z</time></trkpt><trkpt lat="44.94208742225676" lon="8.857692489165261"><ele>95.0</ele><time>2026-03-29T08:24:35Z</time></trkpt><trkpt lat="44.94184214450479" lon="8.857540529874482"><ele>95.0</ele><time>2026-03-29T08:24:36Z</time></trkpt><trkpt lat="44.941596962649584" lon="8.857386630119395"><ele>94.5</ele><time>2026-03-29T08:24:37Z</time></trkpt><trkpt lat="44.9413513015099" lon="8.857230345113244"><ele>94.0</ele><time>2026-03-29T08:24:38Z</time></trkpt><trkpt lat="44.94110762916623" lon="8.857073487283856"><ele>94.0</ele><time>2026-03-29T08:24:39Z</time></trkpt><trkpt lat="44.94086364497901" lon="8.856918035365418"><ele>94.0</ele><time>2026-03-29T08:24:40Z</time></trkpt><trkpt lat="44.94061997990067" lon="8.856762167588707"><ele>94.5</ele><time>2026-03-29T08:24:41Z</time></trkpt><trkpt lat="44.94037566070745" lon="8.856605742584051"><ele>95.0</ele><time>2026-03-29T08:24:42Z</time></trkpt><trkpt lat="44.94013262492969" lon="8.856450041628962"><ele>95.0</ele><time>2026-03-29T08:24:43Z</time></trkpt><trkpt lat="44.93988550687328" lon="8.856297683828421"><ele>95.0</ele><time>2026-03-29T08:24:44Z</time></trkpt><trkpt lat="44.939639273396416" lon="8.856144429886342"><ele>95.0</ele><time>2026-03-29T08:24:45Z</time></trkpt><trkpt lat="44.93939417849884" lon="8.855991871526125"><ele>95.0</ele><time>2026-03-29T08:24:46Z</time></trkpt><trkpt lat="44.93915093316753" lon="8.855836618352704"><ele>95.5</ele><time>2026-03-29T08:24:47Z</time></trkpt><trkpt lat="44.938907027180065" lon="8.855682562666594"><ele>96.0</ele><time>2026-03-29T08:24:48Z</time></trkpt><trkpt lat="44.93866277594033" lon="8.855529792948339"><ele>96.0</ele><time>2026-03-29T08:24:49Z</time></trkpt><trkpt lat="44.938417481344565" lon="8.855376623877614"><ele>96.0</ele><time>2026-03-29T08:24:50Z</time></trkpt><trkpt lat="44.93817305714416" lon="8.85522224444284"><ele>96.0</ele><time>2026-03-29T08:24:51Z</time></trkpt><trkpt lat="44.937928121900654" lon="8.855069647749255"><ele>96.0</ele><time>2026-03-29T08:24:52Z</time></trkpt><trkpt lat="44.937685461057285" lon="8.854917251256147"><ele>96.5</ele><time>2026-03-29T08:24:53Z</time></trkpt><trkpt lat="44.93744122541724" lon="8.854766099386433"><ele>97.0</ele><time>2026-03-29T08:24:54Z</time></trkpt><trkpt lat="44.9371987725459" lon="8.854615162836561"><ele>97.0</ele><time>2026-03-29T08:24:55Z</time></trkpt><trkpt lat="44.93695331721482" lon="8.85446331995359"><ele>97.0</ele><time>2026-03-29T08:24:56Z</time></trkpt><trkpt lat="44.9367157773977" lon="8.854310311001996"><ele>97.5</ele><time>2026-03-29T08:24:57Z</time></trkpt><trkpt lat="44.93647731912896" lon="8.854157747193783"><ele>98.0</ele><time>2026-03-29T08:24:58Z</time></trkpt><trkpt lat="44.93623439492559" lon="8.854004805917931"><ele>98.0</ele><time>2026-03-29T08:24:59Z</time></trkpt><trkpt lat="44.93599452865452" lon="8.853853977001723"><ele>98.0</ele><time>2026-03-29T08:25:00Z</time></trkpt><trkpt lat="44.93575291504263" lon="8.853703619355667"><ele>97.0</ele><time>2026-03-29T08:25:01Z</time></trkpt><trkpt lat="44.93551265986398" lon="8.853554524529104"><ele>96.0</ele><time>2026-03-29T08:25:02Z</time></trkpt><trkpt lat="44.93527366584643" lon="8.853403828211995"><ele>98.0</ele><time>2026-03-29T08:25:03Z</time></trkpt><trkpt lat="44.93503295676326" lon="8.85325251098294"><ele>100.0</ele><time>2026-03-29T08:25:04Z</time></trkpt><trkpt lat="44.93479611040893" lon="8.853102129607516"><ele>100.0</ele><time>2026-03-29T08:25:05Z</time></trkpt><trkpt lat="44.934555807612746" lon="8.852953697481729"><ele>100.0</ele><time>2026-03-29T08:25:06Z</time></trkpt><trkpt lat="44.93431609654811" lon="8.852804465105757"><ele>100.0</ele><time>2026-03-29T08:25:07Z</time></trkpt><trkpt lat="44.93408119954525" lon="8.852652723676949"><ele>100.0</ele><time>2026-03-29T08:25:08Z</time></trkpt><trkpt lat="44.93383944962664" lon="8.85250345332398"><ele>100.5</ele><time>2026-03-29T08:25:09Z</time></trkpt><trkpt lat="44.93360328554272" lon="8.852355470216825"><ele>101.0</ele><time>2026-03-29T08:25:10Z</time></trkpt><trkpt lat="44.93337012818926" lon="8.85221040212452"><ele>101.5</ele><time>2026-03-29T08:25:11Z</time></trkpt><trkpt lat="44.93313303971652" lon="8.852064880141313"><ele>102.0</ele><time>2026-03-29T08:25:12Z</time></trkpt><trkpt lat="44.93289817464849" lon="8.851918687062916"><ele>101.5</ele><time>2026-03-29T08:25:13Z</time></trkpt><trkpt lat="44.93266474797364" lon="8.851771018628716"><ele>101.0</ele><time>2026-03-29T08:25:14Z</time></trkpt><trkpt lat="44.932434291908024" lon="8.851621944961806"><ele>101.0</ele><time>2026-03-29T08:25:15Z</time></trkpt><trkpt lat="44.932201534628774" lon="8.851473906681894"><ele>101.0</ele><time>2026-03-29T08:25:16Z</time></trkpt><trkpt lat="44.93196650520854" lon="8.851325712065142"><ele>101.0</ele><time>2026-03-29T08:25:17Z</time></trkpt><trkpt lat="44.93173223289898" lon="8.851176660708452"><ele>101.0</ele><time>2026-03-29T08:25:18Z</time></trkpt><trkpt lat="44.93149870503037" lon="8.851028147008838"><ele>100.0</ele><time>2026-03-29T08:25:19Z</time></trkpt><trkpt lat="44.93126221834811" lon="8.850881366682724"><ele>99.0</ele><time>2026-03-29T08:25:20Z</time></trkpt><trkpt lat="44.93102807572779" lon="8.850732780668192"><ele>99.0</ele><time>2026-03-29T08:25:21Z</time></trkpt><trkpt lat="44.93079346286217" lon="8.850587308610109"><ele>99.0</ele><time>2026-03-29T08:25:22Z</time></trkpt><trkpt lat="44.930557938740506" lon="8.850441533801183"><ele>99.0</ele><time>2026-03-29T08:25:23Z</time></trkpt><trkpt lat="44.93032324973478" lon="8.850295444984322"><ele>99.0</ele><time>2026-03-29T08:25:24Z</time></trkpt><trkpt lat="44.930093176756564" lon="8.85014948338055"><ele>100.0</ele><time>2026-03-29T08:25:25Z</time></trkpt><trkpt lat="44.92985623378537" lon="8.849999331817063"><ele>101.0</ele><time>2026-03-29T08:25:26Z</time></trkpt><trkpt lat="44.92961742578802" lon="8.849848993904791"><ele>101.0</ele><time>2026-03-29T08:25:27Z</time></trkpt><trkpt lat="44.929385459270186" lon="8.849696582712708"><ele>101.0</ele><time>2026-03-29T08:25:28Z</time></trkpt><trkpt lat="44.92914649679673" lon="8.849548618742133"><ele>101.0</ele><time>2026-03-29T08:25:29Z</time></trkpt><trkpt lat="44.92890914710883" lon="8.849401803927917"><ele>101.0</ele><time>2026-03-29T08:25:30Z</time></trkpt><trkpt lat="44.92867611069859" lon="8.849253088530123"><ele>100.0</ele><time>2026-03-29T08:25:31Z</time></trkpt><trkpt lat="44.92844214985002" lon="8.84910553665022"><ele>99.0</ele><time>2026-03-29T08:25:32Z</time></trkpt><trkpt lat="44.92820638249238" lon="8.848962177415816"><ele>99.0</ele><time>2026-03-29T08:25:33Z</time></trkpt><trkpt lat="44.927975402213335" lon="8.848816809491508"><ele>99.0</ele><time>2026-03-29T08:25:34Z</time></trkpt><trkpt lat="44.92774307472976" lon="8.848673217121327"><ele>99.5</ele><time>2026-03-29T08:25:35Z</time></trkpt><trkpt lat="44.927505726738815" lon="8.848526605606718"><ele>100.0</ele><time>2026-03-29T08:25:36Z</time></trkpt><trkpt lat="44.92727165658298" lon="8.84837626929107"><ele>100.0</ele><time>2026-03-29T08:25:37Z</time></trkpt><trkpt lat="44.927037019827715" lon="8.848224543376174"><ele>100.0</ele><time>2026-03-29T08:25:38Z</time></trkpt><trkpt lat="44.92680089453225" lon="8.848075214707194"><ele>100.0</ele><time>2026-03-29T08:25:39Z</time></trkpt><trkpt lat="44.926562700462334" lon="8.84792559099462"><ele>100.0</ele><time>2026-03-29T08:25:40Z</time></trkpt><trkpt lat="44.92632446544667" lon="8.847777057807248"><ele>100.0</ele><time>2026-03-29T08:25:41Z</time></trkpt><trkpt lat="44.9260865075926" lon="8.84762682918655"><ele>100.0</ele><time>2026-03-29T08:25:42Z</time></trkpt><trkpt lat="44.92584857881825" lon="8.847476851558708"><ele>100.0</ele><time>2026-03-29T08:25:43Z</time></trkpt><trkpt lat="44.925608965547845" lon="8.847326240096734"><ele>100.0</ele><time>2026-03-29T08:25:44Z</time></trkpt><trkpt lat="44.92537219971636" lon="8.84717457022409"><ele>100.0</ele><time>2026-03-29T08:25:45Z</time></trkpt><trkpt lat="44.92512802966407" lon="8.847025813917728"><ele>100.0</ele><time>2026-03-29T08:25:46Z</time></trkpt><trkpt lat="44.92488892621235" lon="8.846876569015182"><ele>101.5</ele><time>2026-03-29T08:25:47Z</time></trkpt><trkpt lat="44.924653918612165" lon="8.846725416670097"><ele>103.0</ele><time>2026-03-29T08:25:48Z</time></trkpt><trkpt lat="44.92442096748034" lon="8.846572949156185"><ele>103.0</ele><time>2026-03-29T08:25:49Z</time></trkpt><trkpt lat="44.924183983208216" lon="8.846428798277799"><ele>103.0</ele><time>2026-03-29T08:25:50Z</time></trkpt><trkpt lat="44.9239490579506" lon="8.846289233850165"><ele>103.0</ele><time>2026-03-29T08:25:51Z</time></trkpt><trkpt lat="44.923710947355126" lon="8.84615735926075"><ele>103.0</ele><time>2026-03-29T08:25:52Z</time></trkpt><trkpt lat="44.92347730405442" lon="8.846031270272654"><ele>103.0</ele><time>2026-03-29T08:25:53Z</time></trkpt><trkpt lat="44.92324047907192" lon="8.845912968568047"><ele>103.0</ele><time>2026-03-29T08:25:54Z</time></trkpt><trkpt lat="44.923006645601326" lon="8.845795899261093"><ele>103.0</ele><time>2026-03-29T08:25:55Z</time></trkpt><trkpt lat="44.92277361823892" lon="8.845683210750204"><ele>103.0</ele><time>2026-03-29T08:25:56Z</time></trkpt><trkpt lat="44.922539293929205" lon="8.845575592558491"><ele>104.0</ele><time>2026-03-29T08:25:57Z</time></trkpt><trkpt lat="44.92229980151445" lon="8.845469637593318"><ele>105.0</ele><time>2026-03-29T08:25:58Z</time></trkpt><trkpt lat="44.922059244121606" lon="8.845369319327741"><ele>105.0</ele><time>2026-03-29T08:25:59Z</time></trkpt><trkpt lat="44.921820821399415" lon="8.845270892132008"><ele>105.0</ele><time>2026-03-29T08:26:00Z</time></trkpt><trkpt lat="44.92157973038557" lon="8.84517983881008"><ele>105.5</ele><time>2026-03-29T08:26:01Z</time></trkpt><trkpt lat="44.92133492702489" lon="8.845098157976524"><ele>106.0</ele><time>2026-03-29T08:26:02Z</time></trkpt><trkpt lat="44.921091572042506" lon="8.845020270678091"><ele>106.5</ele><time>2026-03-29T08:26:03Z</time></trkpt><trkpt lat="44.92084681750909" lon="8.84494428622017"><ele>107.0</ele><time>2026-03-29T08:26:04Z</time></trkpt><trkpt lat="44.9206025144856" lon="8.84487305219946"><ele>107.0</ele><time>2026-03-29T08:26:05Z</time></trkpt><trkpt lat="44.92036065099126" lon="8.844804691652527"><ele>107.0</ele><time>2026-03-29T08:26:06Z</time></trkpt><trkpt lat="44.920109818560334" lon="8.844736588208143"><ele>106.0</ele><time>2026-03-29T08:26:07Z</time></trkpt><trkpt lat="44.919864165566295" lon="8.844693546347399"><ele>105.0</ele><time>2026-03-29T08:26:08Z</time></trkpt><trkpt lat="44.91961601563211" lon="8.844648704896528"><ele>105.0</ele><time>2026-03-29T08:26:09Z</time></trkpt><trkpt lat="44.91936735598599" lon="8.844609285655384"><ele>105.0</ele><time>2026-03-29T08:26:10Z</time></trkpt><trkpt lat="44.91912021353744" lon="8.844572722628323"><ele>105.5</ele><time>2026-03-29T08:26:11Z</time></trkpt><trkpt lat="44.918870968890495" lon="8.84453668169447"><ele>106.0</ele><time>2026-03-29T08:26:12Z</time></trkpt><trkpt lat="44.918624763976844" lon="8.844502483741708"><ele>105.5</ele><time>2026-03-29T08:26:13Z</time></trkpt><trkpt lat="44.918377585438414" lon="8.844474181751531"><ele>105.0</ele><time>2026-03-29T08:26:14Z</time></trkpt><trkpt lat="44.91813149402003" lon="8.844451434244089"><ele>105.0</ele><time>2026-03-29T08:26:15Z</time></trkpt><trkpt lat="44.917882526843506" lon="8.844430605553095"><ele>105.0</ele><time>2026-03-29T08:26:16Z</time></trkpt><trkpt lat="44.91763612677928" lon="8.844411341771421"><ele>105.5</ele><time>2026-03-29T08:26:17Z</time></trkpt><trkpt lat="44.91738634206589" lon="8.844386755637725"><ele>106.0</ele><time>2026-03-29T08:26:18Z</time></trkpt><trkpt lat="44.917138681815146" lon="8.844360252860698"><ele>106.0</ele><time>2026-03-29T08:26:19Z</time></trkpt><trkpt lat="44.916890524689514" lon="8.844337470621182"><ele>106.0</ele><time>2026-03-29T08:26:20Z</time></trkpt><trkpt lat="44.916638830684875" lon="8.844314417768794"><ele>108.5</ele><time>2026-03-29T08:26:21Z</time></trkpt><trkpt lat="44.91639159373835" lon="8.844288559152384"><ele>111.0</ele><time>2026-03-29T08:26:22Z</time></trkpt><trkpt lat="44.916140949144456" lon="8.84425908321695"><ele>111.0</ele><time>2026-03-29T08:26:23Z</time></trkpt><trkpt lat="44.915913180735764" lon="8.844237088574543"><ele>111.0</ele><time>2026-03-29T08:26:24Z</time></trkpt><trkpt lat="44.91564736346126" lon="8.844212214712952"><ele>110.0</ele><time>2026-03-29T08:26:25Z</time></trkpt><trkpt lat="44.91539591894581" lon="8.844186718757918"><ele>109.0</ele><time>2026-03-29T08:26:26Z</time></trkpt><trkpt lat="44.91514553519531" lon="8.844162738200678"><ele>108.0</ele><time>2026-03-29T08:26:27Z</time></trkpt><trkpt lat="44.91489587703911" lon="8.844140908730415"><ele>107.0</ele><time>2026-03-29T08:26:28Z</time></trkpt><trkpt lat="44.91464790762326" lon="8.844119304114082"><ele>107.0</ele><time>2026-03-29T08:26:29Z</time></trkpt><trkpt lat="44.914400629101856" lon="8.84409994682268"><ele>107.0</ele><time>2026-03-29T08:26:30Z</time></trkpt><trkpt lat="44.91415602488772" lon="8.844079292806706"><ele>106.0</ele><time>2026-03-29T08:26:31Z</time></trkpt><trkpt lat="44.91391300029249" lon="8.844054714190598"><ele>105.0</ele><time>2026-03-29T08:26:32Z</time></trkpt><trkpt lat="44.91367223758387" lon="8.844024444525692"><ele>105.0</ele><time>2026-03-29T08:26:33Z</time></trkpt><trkpt lat="44.913436655941474" lon="8.843990196436756"><ele>105.0</ele><time>2026-03-29T08:26:34Z</time></trkpt><trkpt lat="44.91319511461287" lon="8.843962188918667"><ele>105.5</ele><time>2026-03-29T08:26:35Z</time></trkpt><trkpt lat="44.91295670769285" lon="8.8439372707636"><ele>106.0</ele><time>2026-03-29T08:26:36Z</time></trkpt><trkpt lat="44.91271577148588" lon="8.843915625667671"><ele>105.5</ele><time>2026-03-29T08:26:37Z</time></trkpt><trkpt lat="44.912476263641196" lon="8.843892329299756"><ele>105.0</ele><time>2026-03-29T08:26:38Z</time></trkpt><trkpt lat="44.91223385429434" lon="8.843871554534465"><ele>105.0</ele><time>2026-03-29T08:26:39Z</time></trkpt><trkpt lat="44.91199446399689" lon="8.843850521001086"><ele>105.0</ele><time>2026-03-29T08:26:40Z</time></trkpt><trkpt lat="44.911753961974476" lon="8.84382803918847"><ele>105.0</ele><time>2026-03-29T08:26:41Z</time></trkpt><trkpt lat="44.91151744074418" lon="8.843806924255802"><ele>105.0</ele><time>2026-03-29T08:26:42Z</time></trkpt><trkpt lat="44.91129307783614" lon="8.843782617244088"><ele>105.0</ele><time>2026-03-29T08:26:43Z</time></trkpt><trkpt lat="44.91108320563755" lon="8.84376029477968"><ele>105.0</ele><time>2026-03-29T08:26:44Z</time></trkpt><trkpt lat="44.91088807718479" lon="8.84374218266215"><ele>105.0</ele><time>2026-03-29T08:26:45Z</time></trkpt><trkpt lat="44.91069992578346" lon="8.843724514982416"><ele>105.66666666666666</ele><time>2026-03-29T08:26:46Z</time></trkpt><trkpt lat="44.9105231533011" lon="8.843709583357501"><ele>106.33333333333333</ele><time>2026-03-29T08:26:47Z</time></trkpt><trkpt lat="44.910354392745155" lon="8.843694293756295"><ele>107.0</ele><time>2026-03-29T08:26:48Z</time></trkpt><trkpt lat="44.91019227677914" lon="8.843681524913125"><ele>107.25</ele><time>2026-03-29T08:26:49Z</time></trkpt><trkpt lat="44.910035787229596" lon="8.843668494244803"><ele>107.5</ele><time>2026-03-29T08:26:50Z</time></trkpt><trkpt lat="44.90988696828037" lon="8.843653718845186"><ele>107.75</ele><time>2026-03-29T08:26:51Z</time></trkpt><trkpt lat="44.90974875818389" lon="8.843644225022116"><ele>108.0</ele><time>2026-03-29T08:26:52Z</time></trkpt><trkpt lat="44.90962485567155" lon="8.84362896465754"><ele>108.0</ele><time>2026-03-29T08:26:53Z</time></trkpt><trkpt lat="44.909506845293365" lon="8.843599012157107"><ele>108.0</ele><time>2026-03-29T08:26:54Z</time></trkpt><trkpt lat="44.90940187686656" lon="8.843548355305646"><ele>108.0</ele><time>2026-03-29T08:26:55Z</time></trkpt><trkpt lat="44.909302047955244" lon="8.843470409433108"><ele>108.0</ele><time>2026-03-29T08:26:56Z</time></trkpt><trkpt lat="44.909211199932706" lon="8.84336797029503"><ele>108.0</ele><time>2026-03-29T08:26:57Z</time></trkpt><trkpt lat="44.90912620194734" lon="8.843231287089404"><ele>108.0</ele><time>2026-03-29T08:26:58Z</time></trkpt><trkpt lat="44.90906312593564" lon="8.843066829942325"><ele>108.0</ele><time>2026-03-29T08:26:59Z</time></trkpt><trkpt lat="44.909015118002756" lon="8.84287479038148"><ele>108.0</ele><time>2026-03-29T08:27:00Z</time></trkpt><trkpt lat="44.90897551242531" lon="8.842665961503249"><ele>108.0</ele><time>2026-03-29T08:27:01Z</time></trkpt><trkpt lat="44.9089394099429" lon="8.842453954090821"><ele>108.0</ele><time>2026-03-29T08:27:02Z</time></trkpt><trkpt lat="44.908916569591" lon="8.842250893020143"><ele>108.0</ele><time>2026-03-29T08:27:03Z</time></trkpt><trkpt lat="44.908916458368914" lon="8.84205842258471"><ele>108.0</ele><time>2026-03-29T08:27:04Z</time></trkpt><trkpt lat="44.908924748684974" lon="8.841860342676426"><ele>108.25</ele><time>2026-03-29T08:27:05Z</time></trkpt><trkpt lat="44.90894460271986" lon="8.841670511475138"><ele>108.5</ele><time>2026-03-29T08:27:06Z</time></trkpt><trkpt lat="44.90897132299307" lon="8.841498123964687"><ele>108.75</ele><time>2026-03-29T08:27:07Z</time></trkpt><trkpt lat="44.90901214707075" lon="8.841332471837495"><ele>109.0</ele><time>2026-03-29T08:27:08Z</time></trkpt><trkpt lat="44.90905309419903" lon="8.841156140577448"><ele>109.0</ele><time>2026-03-29T08:27:09Z</time></trkpt><trkpt lat="44.90910500622724" lon="8.840998722158258"><ele>109.0</ele><time>2026-03-29T08:27:10Z</time></trkpt><trkpt lat="44.909103043475966" lon="8.840832939825471"><ele>109.0</ele><time>2026-03-29T08:27:11Z</time></trkpt><trkpt lat="44.909236904124064" lon="8.840716148820764"><ele>109.0</ele><time>2026-03-29T08:27:12Z</time></trkpt><trkpt lat="44.90915916960021" lon="8.840457374340296"><ele>109.5</ele><time>2026-03-29T08:27:13Z</time></trkpt><trkpt lat="44.90919479735258" lon="8.840309412145368"><ele>110.0</ele><time>2026-03-29T08:27:14Z</time></trkpt><trkpt lat="44.90922977796759" lon="8.84016151205766"><ele>110.5</ele><time>2026-03-29T08:27:15Z</time></trkpt><trkpt lat="44.909263654869484" lon="8.84002124433769"><ele>111.0</ele><time>2026-03-29T08:27:16Z</time></trkpt><trkpt lat="44.909416808381216" lon="8.839944170860983"><ele>111.19999999999999</ele><time>2026-03-29T08:27:17Z</time></trkpt><trkpt lat="44.90944486868331" lon="8.839815804369831"><ele>111.39999999999999</ele><time>2026-03-29T08:27:18Z</time></trkpt><trkpt lat="44.90947206075488" lon="8.839704956920938"><ele>111.6</ele><time>2026-03-29T08:27:19Z</time></trkpt><trkpt lat="44.90949683973534" lon="8.83960278307863"><ele>111.8</ele><time>2026-03-29T08:27:20Z</time></trkpt><trkpt lat="44.90939829663282" lon="8.839459391632314"><ele>112.0</ele><time>2026-03-29T08:27:21Z</time></trkpt><trkpt lat="44.90944061778922" lon="8.839275242025375"><ele>111.6</ele><time>2026-03-29T08:27:23Z</time></trkpt><trkpt lat="44.909466709405756" lon="8.839161823290114"><ele>111.19999999999999</ele><time>2026-03-29T08:27:24Z</time></trkpt><trkpt lat="44.909496956821634" lon="8.839030339544848"><ele>110.8</ele><time>2026-03-29T08:27:25Z</time></trkpt><trkpt lat="44.90953256506507" lon="8.838875554315882"><ele>110.4</ele><time>2026-03-29T08:27:26Z</time></trkpt><trkpt lat="44.90950613586563" lon="8.83871645998146"><ele>110.0</ele><time>2026-03-29T08:27:27Z</time></trkpt><trkpt lat="44.90953710445135" lon="8.838572036957464"><ele>109.8</ele><time>2026-03-29T08:27:28Z</time></trkpt><trkpt lat="44.90955935270007" lon="8.838447696133027"><ele>109.6</ele><time>2026-03-29T08:27:29Z</time></trkpt><trkpt lat="44.909577209624956" lon="8.838334539314658"><ele>109.4</ele><time>2026-03-29T08:27:30Z</time></trkpt><trkpt lat="44.90959012540983" lon="8.838230296543742"><ele>109.2</ele><time>2026-03-29T08:27:31Z</time></trkpt><trkpt lat="44.90958814487906" lon="8.83805067978753"><ele>109.0</ele><time>2026-03-29T08:27:33Z</time></trkpt><trkpt lat="44.90966229072671" lon="8.837917826027498"><ele>109.0</ele><time>2026-03-29T08:27:34Z</time></trkpt><trkpt lat="44.909628892052666" lon="8.837806937313292"><ele>109.0</ele><time>2026-03-29T08:27:35Z</time></trkpt><trkpt lat="44.909579561254674" lon="8.837695272957085"><ele>109.0</ele><time>2026-03-29T08:27:36Z</time></trkpt><trkpt lat="44.90952155250224" lon="8.837578977004943"><ele>109.0</ele><time>2026-03-29T08:27:37Z</time></trkpt><trkpt lat="44.9094487289022" lon="8.837467931969295"><ele>109.0</ele><time>2026-03-29T08:27:38Z</time></trkpt><trkpt lat="44.909370107899996" lon="8.837367247510594"><ele>108.75</ele><time>2026-03-29T08:27:39Z</time></trkpt><trkpt lat="44.90927924842816" lon="8.837277082409393"><ele>108.5</ele><time>2026-03-29T08:27:40Z</time></trkpt><trkpt lat="44.90917368657384" lon="8.837204513187261"><ele>108.25</ele><time>2026-03-29T08:27:41Z</time></trkpt><trkpt lat="44.90905897268949" lon="8.837158717784943"><ele>108.0</ele><time>2026-03-29T08:27:42Z</time></trkpt><trkpt lat="44.90894152061182" lon="8.837134359667731"><ele>108.75</ele><time>2026-03-29T08:27:43Z</time></trkpt><trkpt lat="44.90882025231017" lon="8.837120856983304"><ele>109.5</ele><time>2026-03-29T08:27:44Z</time></trkpt><trkpt lat="44.90869978758751" lon="8.837101230445407"><ele>110.25</ele><time>2026-03-29T08:27:45Z</time></trkpt><trkpt lat="44.90856883558467" lon="8.837074209542614"><ele>111.0</ele><time>2026-03-29T08:27:46Z</time></trkpt><trkpt lat="44.90844235985211" lon="8.837035813892308"><ele>111.0</ele><time>2026-03-29T08:27:47Z</time></trkpt><trkpt lat="44.90833229852344" lon="8.836985679760534"><ele>111.0</ele><time>2026-03-29T08:27:48Z</time></trkpt><trkpt lat="44.9082402246917" lon="8.83692970882222"><ele>111.0</ele><time>2026-03-29T08:27:49Z</time></trkpt><trkpt lat="44.908149432391546" lon="8.836868303092945"><ele>111.0</ele><time>2026-03-29T08:27:50Z</time></trkpt><trkpt lat="44.908069627376996" lon="8.836802034475042"><ele>111.0</ele><time>2026-03-29T08:27:51Z</time></trkpt><trkpt lat="44.90800646579386" lon="8.836720218067601"><ele>111.0</ele><time>2026-03-29T08:27:52Z</time></trkpt><trkpt lat="44.907957419318905" lon="8.836621403225314"><ele>111.0</ele><time>2026-03-29T08:27:53Z</time></trkpt><trkpt lat="44.90790251690267" lon="8.8365045605992"><ele>111.0</ele><time>2026-03-29T08:27:54Z</time></trkpt><trkpt lat="44.907843240658636" lon="8.836396057037884"><ele>111.0</ele><time>2026-03-29T08:27:55Z</time></trkpt><trkpt lat="44.907773679739215" lon="8.836315062676725"><ele>111.0</ele><time>2026-03-29T08:27:56Z</time></trkpt><trkpt lat="44.90769018207733" lon="8.836253079512232"><ele>111.0</ele><time>2026-03-29T08:27:57Z</time></trkpt><trkpt lat="44.907588946500915" lon="8.836226337567334"><ele>111.0</ele><time>2026-03-29T08:27:58Z</time></trkpt><trkpt lat="44.907486361334456" lon="8.836237277380857"><ele>111.0</ele><time>2026-03-29T08:27:59Z</time></trkpt><trkpt lat="44.907387738252524" lon="8.836277138989393"><ele>111.0</ele><time>2026-03-29T08:28:00Z</time></trkpt><trkpt lat="44.90729935975708" lon="8.836334802968597"><ele>111.0</ele><time>2026-03-29T08:28:01Z</time></trkpt><trkpt lat="44.9072193219623" lon="8.836430357573077"><ele>111.0</ele><time>2026-03-29T08:28:02Z</time></trkpt><trkpt lat="44.907153366191935" lon="8.836534250970535"><ele>111.0</ele><time>2026-03-29T08:28:03Z</time></trkpt><trkpt lat="44.907106776601864" lon="8.83666099337597"><ele>111.0</ele><time>2026-03-29T08:28:04Z</time></trkpt><trkpt lat="44.90705623286511" lon="8.836782306591514"><ele>111.0</ele><time>2026-03-29T08:28:05Z</time></trkpt><trkpt lat="44.90698823886023" lon="8.836892584509469"><ele>111.0</ele><time>2026-03-29T08:28:06Z</time></trkpt><trkpt lat="44.90690362590104" lon="8.836976819409156"><ele>111.0</ele><time>2026-03-29T08:28:07Z</time></trkpt><trkpt lat="44.90678839998705" lon="8.837029598158175"><ele>111.0</ele><time>2026-03-29T08:28:08Z</time></trkpt><trkpt lat="44.9066654737314" lon="8.837082500068481"><ele>111.0</ele><time>2026-03-29T08:28:09Z</time></trkpt><trkpt lat="44.90653233274252" lon="8.83713924191944"><ele>111.0</ele><time>2026-03-29T08:28:10Z</time></trkpt><trkpt lat="44.90637724573002" lon="8.8371932387264"><ele>110.66666666666666</ele><time>2026-03-29T08:28:11Z</time></trkpt><trkpt lat="44.9062106780338" lon="8.837237910506124"><ele>110.33333333333333</ele><time>2026-03-29T08:28:12Z</time></trkpt><trkpt lat="44.90603664693331" lon="8.83727204908222"><ele>110.0</ele><time>2026-03-29T08:28:13Z</time></trkpt><trkpt lat="44.90587243232852" lon="8.837290101520821"><ele>110.0</ele><time>2026-03-29T08:28:14Z</time></trkpt><trkpt lat="44.90570368281311" lon="8.83729840948246"><ele>110.0</ele><time>2026-03-29T08:28:15Z</time></trkpt><trkpt lat="44.90553585527982" lon="8.837305976266261"><ele>110.0</ele><time>2026-03-29T08:28:16Z</time></trkpt><trkpt lat="44.90535248863719" lon="8.83732802200537"><ele>110.0</ele><time>2026-03-29T08:28:17Z</time></trkpt><trkpt lat="44.90516805324777" lon="8.837383356021784"><ele>110.0</ele><time>2026-03-29T08:28:18Z</time></trkpt><trkpt lat="44.90498436576061" lon="8.837457011938987"><ele>110.0</ele><time>2026-03-29T08:28:19Z</time></trkpt><trkpt lat="44.90479778669953" lon="8.8375287763911"><ele>110.0</ele><time>2026-03-29T08:28:20Z</time></trkpt><trkpt lat="44.904616066291624" lon="8.837595741122719"><ele>110.0</ele><time>2026-03-29T08:28:21Z</time></trkpt><trkpt lat="44.90444271697281" lon="8.837662228332594"><ele>110.0</ele><time>2026-03-29T08:28:22Z</time></trkpt><trkpt lat="44.90426097027807" lon="8.837730008388379"><ele>110.33333333333333</ele><time>2026-03-29T08:28:23Z</time></trkpt><trkpt lat="44.904079376886585" lon="8.837801308085421"><ele>110.66666666666666</ele><time>2026-03-29T08:28:24Z</time></trkpt><trkpt lat="44.90389408515931" lon="8.83787606175746"><ele>111.0</ele><time>2026-03-29T08:28:25Z</time></trkpt><trkpt lat="44.903709954260364" lon="8.837948512116213"><ele>111.0</ele><time>2026-03-29T08:28:26Z</time></trkpt><trkpt lat="44.903524824925974" lon="8.838017088455109"><ele>111.0</ele><time>2026-03-29T08:28:27Z</time></trkpt><trkpt lat="44.903343416626996" lon="8.838085654129253"><ele>111.0</ele><time>2026-03-29T08:28:28Z</time></trkpt><trkpt lat="44.90317086297313" lon="8.838151152330006"><ele>111.66666666666666</ele><time>2026-03-29T08:28:29Z</time></trkpt><trkpt lat="44.9030092852909" lon="8.83821159635249"><ele>112.33333333333333</ele><time>2026-03-29T08:28:30Z</time></trkpt><trkpt lat="44.9028594489033" lon="8.838271262164472"><ele>113.0</ele><time>2026-03-29T08:28:31Z</time></trkpt><trkpt lat="44.9027155725641" lon="8.838324007635888"><ele>113.0</ele><time>2026-03-29T08:28:32Z</time></trkpt><trkpt lat="44.902581939426014" lon="8.838362256180822"><ele>113.0</ele><time>2026-03-29T08:28:33Z</time></trkpt><trkpt lat="44.902455726306854" lon="8.838378846070517"><ele>113.0</ele><time>2026-03-29T08:28:34Z</time></trkpt><trkpt lat="44.9023351626453" lon="8.838364632348734"><ele>113.0</ele><time>2026-03-29T08:28:35Z</time></trkpt><trkpt lat="44.902219838048346" lon="8.838314833657533"><ele>113.0</ele><time>2026-03-29T08:28:36Z</time></trkpt><trkpt lat="44.90211004731537" lon="8.838273847820789"><ele>113.0</ele><time>2026-03-29T08:28:37Z</time></trkpt><trkpt lat="44.90199356748614" lon="8.838308071593659"><ele>113.0</ele><time>2026-03-29T08:28:38Z</time></trkpt><trkpt lat="44.90190628188927" lon="8.838432851180759"><ele>113.0</ele><time>2026-03-29T08:28:39Z</time></trkpt><trkpt lat="44.901822130035185" lon="8.838552393371508"><ele>112.5</ele><time>2026-03-29T08:28:40Z</time></trkpt><trkpt lat="44.90172161657142" lon="8.838646386849707"><ele>112.0</ele><time>2026-03-29T08:28:41Z</time></trkpt><trkpt lat="44.90158894026229" lon="8.838710277114458"><ele>111.5</ele><time>2026-03-29T08:28:42Z</time></trkpt><trkpt lat="44.90144698777697" lon="8.838755294004393"><ele>111.0</ele><time>2026-03-29T08:28:43Z</time></trkpt><trkpt lat="44.90128868972819" lon="8.838792602703744"><ele>111.0</ele><time>2026-03-29T08:28:44Z</time></trkpt><trkpt lat="44.90112073842459" lon="8.838843424177266"><ele>111.0</ele><time>2026-03-29T08:28:45Z</time></trkpt><trkpt lat="44.90094355231709" lon="8.838907866364485"><ele>111.0</ele><time>2026-03-29T08:28:46Z</time></trkpt><trkpt lat="44.90076314125557" lon="8.838978101941256"><ele>110.66666666666666</ele><time>2026-03-29T08:28:47Z</time></trkpt><trkpt lat="44.900573512095605" lon="8.83904975308995"><ele>110.33333333333333</ele><time>2026-03-29T08:28:48Z</time></trkpt><trkpt lat="44.90038115588144" lon="8.839118609738051"><ele>110.0</ele><time>2026-03-29T08:28:49Z</time></trkpt><trkpt lat="44.90017905065397" lon="8.839191926654722"><ele>110.33333333333333</ele><time>2026-03-29T08:28:50Z</time></trkpt><trkpt lat="44.89999280513913" lon="8.839262131696001"><ele>110.66666666666666</ele><time>2026-03-29T08:28:51Z</time></trkpt><trkpt lat="44.89981380878153" lon="8.839328699547133"><ele>111.0</ele><time>2026-03-29T08:28:52Z</time></trkpt><trkpt lat="44.899637943972536" lon="8.839392933740065"><ele>111.0</ele><time>2026-03-29T08:28:53Z</time></trkpt><trkpt lat="44.89945786519719" lon="8.839460247690242"><ele>111.0</ele><time>2026-03-29T08:28:54Z</time></trkpt><trkpt lat="44.89927246179138" lon="8.839524522317639"><ele>111.0</ele><time>2026-03-29T08:28:55Z</time></trkpt><trkpt lat="44.89908768677743" lon="8.839591465747425"><ele>111.66666666666666</ele><time>2026-03-29T08:28:56Z</time></trkpt><trkpt lat="44.89890050126751" lon="8.839653050450105"><ele>112.33333333333333</ele><time>2026-03-29T08:28:57Z</time></trkpt><trkpt lat="44.89871694416747" lon="8.839703647814193"><ele>113.0</ele><time>2026-03-29T08:28:58Z</time></trkpt><trkpt lat="44.898528404318526" lon="8.839749607008846"><ele>113.66666666666666</ele><time>2026-03-29T08:28:59Z</time></trkpt><trkpt lat="44.898342735320284" lon="8.839789146960284"><ele>114.33333333333334</ele><time>2026-03-29T08:29:00Z</time></trkpt><trkpt lat="44.89816297164988" lon="8.839822735074735"><ele>115.0</ele><time>2026-03-29T08:29:01Z</time></trkpt><trkpt lat="44.89797549048584" lon="8.839851813706689"><ele>115.0</ele><time>2026-03-29T08:29:02Z</time></trkpt><trkpt lat="44.897796425933414" lon="8.839877386466032"><ele>115.0</ele><time>2026-03-29T08:29:03Z</time></trkpt><trkpt lat="44.89762081488659" lon="8.839892752397544"><ele>115.0</ele><time>2026-03-29T08:29:04Z</time></trkpt><trkpt lat="44.89744595226226" lon="8.839902020607873"><ele>115.33333333333334</ele><time>2026-03-29T08:29:05Z</time></trkpt><trkpt lat="44.897267870302166" lon="8.83990660591608"><ele>115.66666666666666</ele><time>2026-03-29T08:29:06Z</time></trkpt><trkpt lat="44.89708589118262" lon="8.839905102448306"><ele>116.0</ele><time>2026-03-29T08:29:07Z</time></trkpt><trkpt lat="44.89692571610222" lon="8.839898318717479"><ele>116.0</ele><time>2026-03-29T08:29:08Z</time></trkpt><trkpt lat="44.89675410478435" lon="8.839880710767316"><ele>116.0</ele><time>2026-03-29T08:29:09Z</time></trkpt><trkpt lat="44.89657928875182" lon="8.83985945617848"><ele>116.0</ele><time>2026-03-29T08:29:10Z</time></trkpt><trkpt lat="44.89640958707968" lon="8.839840463783728"><ele>116.0</ele><time>2026-03-29T08:29:11Z</time></trkpt><trkpt lat="44.89624860334348" lon="8.839826802846751"><ele>116.0</ele><time>2026-03-29T08:29:12Z</time></trkpt><trkpt lat="44.896102668316374" lon="8.839813193158674"><ele>116.0</ele><time>2026-03-29T08:29:13Z</time></trkpt><trkpt lat="44.89596415730497" lon="8.839800106880649"><ele>116.0</ele><time>2026-03-29T08:29:14Z</time></trkpt><trkpt lat="44.89583256274637" lon="8.839788585154025"><ele>116.0</ele><time>2026-03-29T08:29:15Z</time></trkpt><trkpt lat="44.895705315404285" lon="8.839775101299363"><ele>116.0</ele><time>2026-03-29T08:29:16Z</time></trkpt><trkpt lat="44.89558062659832" lon="8.839763241008013"><ele>116.0</ele><time>2026-03-29T08:29:17Z</time></trkpt><trkpt lat="44.89544477915028" lon="8.839747068266291"><ele>116.0</ele><time>2026-03-29T08:29:18Z</time></trkpt><trkpt lat="44.89529969313937" lon="8.839729877157076"><ele>116.0</ele><time>2026-03-29T08:29:19Z</time></trkpt><trkpt lat="44.89514700408066" lon="8.839714858536436"><ele>116.0</ele><time>2026-03-29T08:29:20Z</time></trkpt><trkpt lat="44.89499435868077" lon="8.839698765810201"><ele>116.0</ele><time>2026-03-29T08:29:21Z</time></trkpt><trkpt lat="44.89483802786471" lon="8.839678652845876"><ele>116.66666666666666</ele><time>2026-03-29T08:29:22Z</time></trkpt><trkpt lat="44.89467484438251" lon="8.839658378913537"><ele>117.33333333333334</ele><time>2026-03-29T08:29:23Z</time></trkpt><trkpt lat="44.89451855537357" lon="8.839636798139862"><ele>118.0</ele><time>2026-03-29T08:29:24Z</time></trkpt><trkpt lat="44.894367438639755" lon="8.839616447037224"><ele>117.75</ele><time>2026-03-29T08:29:25Z</time></trkpt><trkpt lat="44.89422426698993" lon="8.839594388735632"><ele>117.5</ele><time>2026-03-29T08:29:26Z</time></trkpt><trkpt lat="44.894082719497646" lon="8.839576300025751"><ele>117.25</ele><time>2026-03-29T08:29:27Z</time></trkpt><trkpt lat="44.89395124711172" lon="8.839559744455567"><ele>117.0</ele><time>2026-03-29T08:29:28Z</time></trkpt><trkpt lat="44.89383538171419" lon="8.839543270460089"><ele>117.0</ele><time>2026-03-29T08:29:29Z</time></trkpt><trkpt lat="44.89373863366972" lon="8.83952246750892"><ele>116.99999999999999</ele><time>2026-03-29T08:29:30Z</time></trkpt><trkpt lat="44.89366382934678" lon="8.839485267378969"><ele>116.99999999999999</ele><time>2026-03-29T08:29:31Z</time></trkpt><trkpt lat="44.893599690713856" lon="8.839468484788293"><ele>117.0</ele><time>2026-03-29T08:29:32Z</time></trkpt><trkpt lat="44.893532587484394" lon="8.839225382753307"><ele>117.0</ele><time>2026-03-29T08:29:34Z</time></trkpt><trkpt lat="44.89351919206239" lon="8.839096113855636"><ele>117.0</ele><time>2026-03-29T08:29:35Z</time></trkpt><trkpt lat="44.893526986858056" lon="8.838965645645057"><ele>116.99999999999999</ele><time>2026-03-29T08:29:36Z</time></trkpt><trkpt lat="44.893568334792036" lon="8.838838185713618"><ele>116.99999999999999</ele><time>2026-03-29T08:29:37Z</time></trkpt><trkpt lat="44.893639964885395" lon="8.838727578828236"><ele>117.0</ele><time>2026-03-29T08:29:38Z</time></trkpt><trkpt lat="44.89372140752638" lon="8.838617387062213"><ele>117.0</ele><time>2026-03-29T08:29:39Z</time></trkpt><trkpt lat="44.89385346160429" lon="8.838557239178828"><ele>117.0</ele><time>2026-03-29T08:29:40Z</time></trkpt><trkpt lat="44.89396243106785" lon="8.838485868972452"><ele>116.99999999999999</ele><time>2026-03-29T08:29:41Z</time></trkpt><trkpt lat="44.894063137296186" lon="8.838437864864742"><ele>116.99999999999999</ele><time>2026-03-29T08:29:42Z</time></trkpt><trkpt lat="44.894165985676395" lon="8.838425056513609"><ele>117.0</ele><time>2026-03-29T08:29:43Z</time></trkpt><trkpt lat="44.89427347265821" lon="8.83844782617497"><ele>117.0</ele><time>2026-03-29T08:29:44Z</time></trkpt><trkpt lat="44.8943711833839" lon="8.83851260480989"><ele>116.8</ele><time>2026-03-29T08:29:45Z</time></trkpt><trkpt lat="44.89445709280872" lon="8.838609728464345"><ele>116.6</ele><time>2026-03-29T08:29:46Z</time></trkpt><trkpt lat="44.8945194041382" lon="8.838724413771759"><ele>116.39999999999999</ele><time>2026-03-29T08:29:47Z</time></trkpt><trkpt lat="44.8945579094006" lon="8.838853210989308"><ele>116.19999999999999</ele><time>2026-03-29T08:29:48Z</time></trkpt><trkpt lat="44.894578545282144" lon="8.838995974504018"><ele>116.0</ele><time>2026-03-29T08:29:49Z</time></trkpt><trkpt lat="44.8946105632722" lon="8.839155682239756"><ele>116.5</ele><time>2026-03-29T08:29:50Z</time></trkpt><trkpt lat="44.8945924299384" lon="8.839347711457666"><ele>117.0</ele><time>2026-03-29T08:29:51Z</time></trkpt><trkpt lat="44.89460192416518" lon="8.839551809046933"><ele>117.5</ele><time>2026-03-29T08:29:52Z</time></trkpt><trkpt lat="44.89461167411783" lon="8.839764278242583"><ele>118.0</ele><time>2026-03-29T08:29:53Z</time></trkpt><trkpt lat="44.89461791312872" lon="8.839990634339703"><ele>117.66666666666667</ele><time>2026-03-29T08:29:54Z</time></trkpt><trkpt lat="44.89462288568909" lon="8.840207129936864"><ele>117.33333333333334</ele><time>2026-03-29T08:29:55Z</time></trkpt><trkpt lat="44.89463173822448" lon="8.840408451208114"><ele>117.0</ele><time>2026-03-29T08:29:56Z</time></trkpt><trkpt lat="44.89463301596337" lon="8.840628775346921"><ele>117.0</ele><time>2026-03-29T08:29:57Z</time></trkpt><trkpt lat="44.89463619799198" lon="8.840854487967498"><ele>117.0</ele><time>2026-03-29T08:29:58Z</time></trkpt><trkpt lat="44.894638478459356" lon="8.841076721754028"><ele>117.0</ele><time>2026-03-29T08:29:59Z</time></trkpt><trkpt lat="44.8946424965014" lon="8.84131797676423"><ele>117.33333333333334</ele><time>2026-03-29T08:30:00Z</time></trkpt><trkpt lat="44.89464836675071" lon="8.841580730855329"><ele>117.66666666666667</ele><time>2026-03-29T08:30:01Z</time></trkpt><trkpt lat="44.894653900146444" lon="8.841854149854129"><ele>118.0</ele><time>2026-03-29T08:30:02Z</time></trkpt><trkpt lat="44.894660754614364" lon="8.842145110950463"><ele>117.33333333333334</ele><time>2026-03-29T08:30:03Z</time></trkpt><trkpt lat="44.89466569020709" lon="8.842442580767749"><ele>116.66666666666666</ele><time>2026-03-29T08:30:04Z</time></trkpt><trkpt lat="44.89467584770493" lon="8.842723560273765"><ele>116.0</ele><time>2026-03-29T08:30:05Z</time></trkpt><trkpt lat="44.89468391997449" lon="8.842985241611327"><ele>115.33333333333333</ele><time>2026-03-29T08:30:06Z</time></trkpt><trkpt lat="44.89469007662144" lon="8.843223346978295"><ele>114.66666666666666</ele><time>2026-03-29T08:30:07Z</time></trkpt><trkpt lat="44.89469692470966" lon="8.84345610866709"><ele>114.0</ele><time>2026-03-29T08:30:08Z</time></trkpt><trkpt lat="44.89470033560431" lon="8.843689095886523"><ele>112.66666666666666</ele><time>2026-03-29T08:30:09Z</time></trkpt><trkpt lat="44.89470291252688" lon="8.843926580842068"><ele>111.33333333333333</ele><time>2026-03-29T08:30:10Z</time></trkpt><trkpt lat="44.89470394731322" lon="8.844161504088929"><ele>110.0</ele><time>2026-03-29T08:30:11Z</time></trkpt><trkpt lat="44.89471021719516" lon="8.844408456112996"><ele>110.0</ele><time>2026-03-29T08:30:12Z</time></trkpt><trkpt lat="44.89471414140202" lon="8.84465267707326"><ele>110.0</ele><time>2026-03-29T08:30:13Z</time></trkpt><trkpt lat="44.894718129822046" lon="8.844903892162634"><ele>110.0</ele><time>2026-03-29T08:30:14Z</time></trkpt><trkpt lat="44.89472101472301" lon="8.84515107553413"><ele>110.33333333333333</ele><time>2026-03-29T08:30:15Z</time></trkpt><trkpt lat="44.89472570210232" lon="8.84540367879889"><ele>110.66666666666666</ele><time>2026-03-29T08:30:16Z</time></trkpt><trkpt lat="44.894729661678944" lon="8.845653023755737"><ele>111.0</ele><time>2026-03-29T08:30:17Z</time></trkpt><trkpt lat="44.89473505053181" lon="8.84590563388345"><ele>112.33333333333334</ele><time>2026-03-29T08:30:18Z</time></trkpt><trkpt lat="44.89473906081689" lon="8.846158244341803"><ele>113.66666666666667</ele><time>2026-03-29T08:30:19Z</time></trkpt><trkpt lat="44.89474250966948" lon="8.846409398080135"><ele>115.0</ele><time>2026-03-29T08:30:20Z</time></trkpt><trkpt lat="44.89474668462411" lon="8.846655674096004"><ele>115.66666666666667</ele><time>2026-03-29T08:30:21Z</time></trkpt><trkpt lat="44.89475026354633" lon="8.846903969118763"><ele>116.33333333333334</ele><time>2026-03-29T08:30:22Z</time></trkpt><trkpt lat="44.8947501403923" lon="8.847145304175491"><ele>117.0</ele><time>2026-03-29T08:30:23Z</time></trkpt><trkpt lat="44.89474882507645" lon="8.847376845011302"><ele>117.0</ele><time>2026-03-29T08:30:24Z</time></trkpt><trkpt lat="44.89475226892159" lon="8.84762695416257"><ele>117.0</ele><time>2026-03-29T08:30:25Z</time></trkpt><trkpt lat="44.894760346685786" lon="8.847882858872026"><ele>117.0</ele><time>2026-03-29T08:30:26Z</time></trkpt><trkpt lat="44.89476504846134" lon="8.848131459541289"><ele>117.0</ele><time>2026-03-29T08:30:27Z</time></trkpt><trkpt lat="44.89476873651449" lon="8.848376157147504"><ele>117.0</ele><time>2026-03-29T08:30:28Z</time></trkpt><trkpt lat="44.89477221270548" lon="8.848623893207437"><ele>117.0</ele><time>2026-03-29T08:30:29Z</time></trkpt><trkpt lat="44.8947790409816" lon="8.848872692653547"><ele>117.0</ele><time>2026-03-29T08:30:29.999Z</time></trkpt><trkpt lat="44.89478356223042" lon="8.849118887099369"><ele>117.0</ele><time>2026-03-29T08:30:30.999Z</time></trkpt><trkpt lat="44.894785830920156" lon="8.849358163251248"><ele>117.0</ele><time>2026-03-29T08:30:31.999Z</time></trkpt><trkpt lat="44.894789862650626" lon="8.849579600721766"><ele>117.5</ele><time>2026-03-29T08:30:32.999Z</time></trkpt><trkpt lat="44.89479615432222" lon="8.849792456532015"><ele>118.0</ele><time>2026-03-29T08:30:33.999Z</time></trkpt><trkpt lat="44.89480096525412" lon="8.850003684562838"><ele>118.5</ele><time>2026-03-29T08:30:34.999Z</time></trkpt><trkpt lat="44.89480385100306" lon="8.850205771837635"><ele>119.0</ele><time>2026-03-29T08:30:35.999Z</time></trkpt><trkpt lat="44.89480468474725" lon="8.85039997210517"><ele>119.0</ele><time>2026-03-29T08:30:36.999Z</time></trkpt><trkpt lat="44.8948001578979" lon="8.850585600143594"><ele>119.0</ele><time>2026-03-29T08:30:37.999Z</time></trkpt><trkpt lat="44.89480579816502" lon="8.850751349274798"><ele>119.0</ele><time>2026-03-29T08:30:38.999Z</time></trkpt><trkpt lat="44.894804498945724" lon="8.850904632485614"><ele>119.0</ele><time>2026-03-29T08:30:39.999Z</time></trkpt><trkpt lat="44.89479923217441" lon="8.851064465839725"><ele>118.75</ele><time>2026-03-29T08:30:40.999Z</time></trkpt><trkpt lat="44.89480678364963" lon="8.851222403934022"><ele>118.5</ele><time>2026-03-29T08:30:41.999Z</time></trkpt><trkpt lat="44.89482192632117" lon="8.851376784992482"><ele>118.25</ele><time>2026-03-29T08:30:42.999Z</time></trkpt><trkpt lat="44.89483543677899" lon="8.851547165117584"><ele>118.0</ele><time>2026-03-29T08:30:43.999Z</time></trkpt><trkpt lat="44.89483591886127" lon="8.851732789639948"><ele>118.25</ele><time>2026-03-29T08:30:44.999Z</time></trkpt><trkpt lat="44.89482728025175" lon="8.851918437651964"><ele>118.5</ele><time>2026-03-29T08:30:45.999Z</time></trkpt><trkpt lat="44.894828750003164" lon="8.852113936203386"><ele>118.75</ele><time>2026-03-29T08:30:46.999Z</time></trkpt><trkpt lat="44.89484101418647" lon="8.852307084087442"><ele>119.0</ele><time>2026-03-29T08:30:48Z</time></trkpt><trkpt lat="44.89485154554497" lon="8.852477429223248"><ele>118.5</ele><time>2026-03-29T08:30:49Z</time></trkpt><trkpt lat="44.89488188839146" lon="8.852644637575711"><ele>118.0</ele><time>2026-03-29T08:30:50Z</time></trkpt><trkpt lat="44.89493342346845" lon="8.852819296390823"><ele>117.5</ele><time>2026-03-29T08:30:51Z</time></trkpt><trkpt lat="44.895006473710644" lon="8.852981183564086"><ele>117.0</ele><time>2026-03-29T08:30:52Z</time></trkpt><trkpt lat="44.89510314001679" lon="8.85314376741548"><ele>117.0</ele><time>2026-03-29T08:30:53Z</time></trkpt><trkpt lat="44.89520613150674" lon="8.853299790845316"><ele>117.0</ele><time>2026-03-29T08:30:54Z</time></trkpt><trkpt lat="44.89533010308195" lon="8.853448635888201"><ele>117.0</ele><time>2026-03-29T08:30:55Z</time></trkpt><trkpt lat="44.895450107145955" lon="8.85360476729393"><ele>118.0</ele><time>2026-03-29T08:30:56Z</time></trkpt><trkpt lat="44.89556943925601" lon="8.853758076891998"><ele>119.0</ele><time>2026-03-29T08:30:57Z</time></trkpt><trkpt lat="44.895687223567975" lon="8.853917813147891"><ele>120.0</ele><time>2026-03-29T08:30:58Z</time></trkpt><trkpt lat="44.89579549489034" lon="8.854079358107635"><ele>120.0</ele><time>2026-03-29T08:30:59Z</time></trkpt><trkpt lat="44.895896319048944" lon="8.854229655414061"><ele>120.0</ele><time>2026-03-29T08:31:00Z</time></trkpt><trkpt lat="44.895978206956414" lon="8.854371156076933"><ele>120.0</ele><time>2026-03-29T08:31:01Z</time></trkpt><trkpt lat="44.896046998950695" lon="8.854508948593528"><ele>120.0</ele><time>2026-03-29T08:31:02Z</time></trkpt><trkpt lat="44.896094969737675" lon="8.85464130994822"><ele>119.83333333333333</ele><time>2026-03-29T08:31:03Z</time></trkpt><trkpt lat="44.896137610850985" lon="8.85477494977209"><ele>119.66666666666666</ele><time>2026-03-29T08:31:04Z</time></trkpt><trkpt lat="44.896157100641176" lon="8.854896636011352"><ele>119.5</ele><time>2026-03-29T08:31:05Z</time></trkpt><trkpt lat="44.89616894430171" lon="8.854997168437098"><ele>119.33333333333333</ele><time>2026-03-29T08:31:06Z</time></trkpt><trkpt lat="44.89617178956705" lon="8.855087423234862"><ele>119.16666666666666</ele><time>2026-03-29T08:31:07Z</time></trkpt><trkpt lat="44.89615969532375" lon="8.85517547032559"><ele>119.0</ele><time>2026-03-29T08:31:08Z</time></trkpt><trkpt lat="44.89608693127456" lon="8.855337122470855"><ele>118.80000000000001</ele><time>2026-03-29T08:31:10Z</time></trkpt><trkpt lat="44.89602352498801" lon="8.855408822267359"><ele>118.60000000000001</ele><time>2026-03-29T08:31:11Z</time></trkpt><trkpt lat="44.89593906452583" lon="8.85547133878965"><ele>118.4</ele><time>2026-03-29T08:31:12Z</time></trkpt><trkpt lat="44.895840890450266" lon="8.85551968850224"><ele>118.2</ele><time>2026-03-29T08:31:13Z</time></trkpt><trkpt lat="44.895739324425584" lon="8.855564417624517"><ele>118.0</ele><time>2026-03-29T08:31:14Z</time></trkpt><trkpt lat="44.89562887082049" lon="8.855599664233866"><ele>118.5</ele><time>2026-03-29T08:31:15Z</time></trkpt><trkpt lat="44.89550273044056" lon="8.855626263052024"><ele>119.0</ele><time>2026-03-29T08:31:16Z</time></trkpt><trkpt lat="44.89536594333977" lon="8.855646176659443"><ele>119.5</ele><time>2026-03-29T08:31:17Z</time></trkpt><trkpt lat="44.89520926386252" lon="8.855655337050823"><ele>120.0</ele><time>2026-03-29T08:31:18Z</time></trkpt><trkpt lat="44.895060083433386" lon="8.855658062359689"><ele>120.33333333333334</ele><time>2026-03-29T08:31:19Z</time></trkpt><trkpt lat="44.89491879209322" lon="8.85566082344113"><ele>120.66666666666667</ele><time>2026-03-29T08:31:20Z</time></trkpt><trkpt lat="44.89476654431534" lon="8.855663778671412"><ele>121.0</ele><time>2026-03-29T08:31:21Z</time></trkpt><trkpt lat="44.894606723524284" lon="8.85566707080613"><ele>121.0</ele><time>2026-03-29T08:31:22Z</time></trkpt><trkpt lat="44.894446737499585" lon="8.855671264524426"><ele>121.0</ele><time>2026-03-29T08:31:23Z</time></trkpt><trkpt lat="44.89428619680857" lon="8.855689723656498"><ele>121.0</ele><time>2026-03-29T08:31:24Z</time></trkpt><trkpt lat="44.89411863951206" lon="8.855692201930827"><ele>120.66666666666667</ele><time>2026-03-29T08:31:25Z</time></trkpt><trkpt lat="44.89394755415932" lon="8.855684274300469"><ele>120.33333333333334</ele><time>2026-03-29T08:31:26Z</time></trkpt><trkpt lat="44.89378193194006" lon="8.855680935548474"><ele>120.0</ele><time>2026-03-29T08:31:27Z</time></trkpt><trkpt lat="44.893619688430974" lon="8.855691444603515"><ele>120.0</ele><time>2026-03-29T08:31:28Z</time></trkpt><trkpt lat="44.89347216551931" lon="8.855698152263527"><ele>120.0</ele><time>2026-03-29T08:31:29Z</time></trkpt><trkpt lat="44.89332534677324" lon="8.855701494402233"><ele>120.0</ele><time>2026-03-29T08:31:30Z</time></trkpt><trkpt lat="44.89317571515295" lon="8.855705541414874"><ele>120.0</ele><time>2026-03-29T08:31:31Z</time></trkpt><trkpt lat="44.89301714816559" lon="8.855712181682273"><ele>119.66666666666666</ele><time>2026-03-29T08:31:32Z</time></trkpt><trkpt lat="44.89285636414288" lon="8.855718722206252"><ele>119.33333333333333</ele><time>2026-03-29T08:31:33Z</time></trkpt><trkpt lat="44.89269741714875" lon="8.855723125861449"><ele>119.0</ele><time>2026-03-29T08:31:34Z</time></trkpt><trkpt lat="44.892539811784324" lon="8.855727200823416"><ele>119.0</ele><time>2026-03-29T08:31:35Z</time></trkpt><trkpt lat="44.892381431916746" lon="8.855726500792517"><ele>119.0</ele><time>2026-03-29T08:31:36Z</time></trkpt><trkpt lat="44.892218847765854" lon="8.855741322606516"><ele>119.0</ele><time>2026-03-29T08:31:37Z</time></trkpt><trkpt lat="44.892061956007346" lon="8.855742639068714"><ele>119.0</ele><time>2026-03-29T08:31:38Z</time></trkpt><trkpt lat="44.89190510294037" lon="8.855741569804529"><ele>119.0</ele><time>2026-03-29T08:31:39Z</time></trkpt><trkpt lat="44.89174570787004" lon="8.855743700561689"><ele>119.0</ele><time>2026-03-29T08:31:40Z</time></trkpt><trkpt lat="44.891583893197414" lon="8.855747726544728"><ele>120.0</ele><time>2026-03-29T08:31:41Z</time></trkpt><trkpt lat="44.891421126843895" lon="8.855749034547623"><ele>121.0</ele><time>2026-03-29T08:31:42Z</time></trkpt><trkpt lat="44.89125593782137" lon="8.855752516890409"><ele>122.0</ele><time>2026-03-29T08:31:43Z</time></trkpt><trkpt lat="44.89108925668041" lon="8.855757784045569"><ele>122.0</ele><time>2026-03-29T08:31:44Z</time></trkpt><trkpt lat="44.89093546846866" lon="8.85575874671724"><ele>122.0</ele><time>2026-03-29T08:31:45Z</time></trkpt><trkpt lat="44.890795887742335" lon="8.855764823724705"><ele>122.0</ele><time>2026-03-29T08:31:46Z</time></trkpt><trkpt lat="44.890662747218016" lon="8.85575863545246"><ele>122.0</ele><time>2026-03-29T08:31:47Z</time></trkpt><trkpt lat="44.89054121957287" lon="8.855763010234236"><ele>122.19999999999999</ele><time>2026-03-29T08:31:48Z</time></trkpt><trkpt lat="44.89042470276566" lon="8.855774480702442"><ele>122.39999999999999</ele><time>2026-03-29T08:31:49Z</time></trkpt><trkpt lat="44.89031610631705" lon="8.855783757264625"><ele>122.60000000000001</ele><time>2026-03-29T08:31:50Z</time></trkpt><trkpt lat="44.89020763653019" lon="8.855790793766605"><ele>122.80000000000001</ele><time>2026-03-29T08:31:51Z</time></trkpt><trkpt lat="44.89010279233927" lon="8.855786989397533"><ele>123.0</ele><time>2026-03-29T08:31:52Z</time></trkpt><trkpt lat="44.889992209373034" lon="8.855801420850549"><ele>123.0</ele><time>2026-03-29T08:31:53Z</time></trkpt><trkpt lat="44.88989349653881" lon="8.855800296525109"><ele>123.0</ele><time>2026-03-29T08:31:54Z</time></trkpt><trkpt lat="44.88980816370454" lon="8.85580522431624"><ele>123.0</ele><time>2026-03-29T08:31:55Z</time></trkpt><trkpt lat="44.889736150605195" lon="8.85577739101417"><ele>123.0</ele><time>2026-03-29T08:31:56Z</time></trkpt><trkpt lat="44.88966622965702" lon="8.85577875513114"><ele>123.0</ele><time>2026-03-29T08:31:57Z</time></trkpt><trkpt lat="44.889600633175085" lon="8.855780036847875"><ele>123.0</ele><time>2026-03-29T08:31:58Z</time></trkpt><trkpt lat="44.889489087023996" lon="8.85578221305456"><ele>123.0</ele><time>2026-03-29T08:32:00Z</time></trkpt><trkpt lat="44.88942286836624" lon="8.855793979120005"><ele>123.0</ele><time>2026-03-29T08:32:02Z</time></trkpt><trkpt lat="44.88930733602195" lon="8.855779585359462"><ele>123.0</ele><time>2026-03-29T08:32:09Z</time></trkpt><trkpt lat="44.88922562229091" lon="8.855778037986262"><ele>123.0</ele><time>2026-03-29T08:32:10Z</time></trkpt><trkpt lat="44.88914377333559" lon="8.855777144493576"><ele>123.0</ele><time>2026-03-29T08:32:11Z</time></trkpt><trkpt lat="44.889067905929274" lon="8.855780168147454"><ele>123.0</ele><time>2026-03-29T08:32:12Z</time></trkpt><trkpt lat="44.888968455185825" lon="8.855785691047759"><ele>123.25</ele><time>2026-03-29T08:32:13Z</time></trkpt><trkpt lat="44.888859046897934" lon="8.855792021933935"><ele>123.5</ele><time>2026-03-29T08:32:14Z</time></trkpt><trkpt lat="44.8887441218352" lon="8.855794948375397"><ele>123.75</ele><time>2026-03-29T08:32:15Z</time></trkpt><trkpt lat="44.888629766155354" lon="8.855793402233752"><ele>124.0</ele><time>2026-03-29T08:32:16Z</time></trkpt><trkpt lat="44.88851590538266" lon="8.855794730996877"><ele>124.0</ele><time>2026-03-29T08:32:17Z</time></trkpt><trkpt lat="44.8883886801867" lon="8.855797659264207"><ele>124.0</ele><time>2026-03-29T08:32:18Z</time></trkpt><trkpt lat="44.888250760836705" lon="8.855802496756445"><ele>124.0</ele><time>2026-03-29T08:32:19Z</time></trkpt><trkpt lat="44.8881076707123" lon="8.855813409219934"><ele>124.0</ele><time>2026-03-29T08:32:20Z</time></trkpt><trkpt lat="44.88795691957851" lon="8.855824738212048"><ele>124.0</ele><time>2026-03-29T08:32:21Z</time></trkpt><trkpt lat="44.88779760019566" lon="8.855830031837375"><ele>124.0</ele><time>2026-03-29T08:32:22Z</time></trkpt><trkpt lat="44.887646028584555" lon="8.855834070676806"><ele>124.0</ele><time>2026-03-29T08:32:23Z</time></trkpt><trkpt lat="44.88750260617461" lon="8.855844855847183"><ele>124.25</ele><time>2026-03-29T08:32:24Z</time></trkpt><trkpt lat="44.88736887215495" lon="8.855872495278641"><ele>124.5</ele><time>2026-03-29T08:32:25Z</time></trkpt><trkpt lat="44.887239321540335" lon="8.855889376253524"><ele>124.75</ele><time>2026-03-29T08:32:26Z</time></trkpt><trkpt lat="44.88710694599421" lon="8.855921113397711"><ele>125.0</ele><time>2026-03-29T08:32:27Z</time></trkpt><trkpt lat="44.88697607521579" lon="8.855960962917019"><ele>125.0</ele><time>2026-03-29T08:32:28Z</time></trkpt><trkpt lat="44.886836472874634" lon="8.856011793227406"><ele>125.0</ele><time>2026-03-29T08:32:29Z</time></trkpt><trkpt lat="44.88670102045108" lon="8.856065866540616"><ele>125.0</ele><time>2026-03-29T08:32:30Z</time></trkpt><trkpt lat="44.88656579188568" lon="8.856126872874857"><ele>125.0</ele><time>2026-03-29T08:32:31Z</time></trkpt><trkpt lat="44.886426144009135" lon="8.85619246167893"><ele>125.0</ele><time>2026-03-29T08:32:32Z</time></trkpt><trkpt lat="44.88628879062658" lon="8.856261043629443"><ele>125.0</ele><time>2026-03-29T08:32:33Z</time></trkpt><trkpt lat="44.88615702229797" lon="8.856335743868563"><ele>125.0</ele><time>2026-03-29T08:32:34Z</time></trkpt><trkpt lat="44.88603482284885" lon="8.856415403396136"><ele>125.0</ele><time>2026-03-29T08:32:35Z</time></trkpt><trkpt lat="44.88592343100949" lon="8.856492884114562"><ele>125.33333333333333</ele><time>2026-03-29T08:32:35.999Z</time></trkpt><trkpt lat="44.88581928368483" lon="8.85657025087498"><ele>125.66666666666666</ele><time>2026-03-29T08:32:36.999Z</time></trkpt><trkpt lat="44.88574195518294" lon="8.856645389736492"><ele>126.0</ele><time>2026-03-29T08:32:37.999Z</time></trkpt><trkpt lat="44.885672601522494" lon="8.856713709581408"><ele>126.33333333333334</ele><time>2026-03-29T08:32:38.999Z</time></trkpt><trkpt lat="44.88561348511926" lon="8.856773128568125"><ele>126.66666666666667</ele><time>2026-03-29T08:32:39.999Z</time></trkpt><trkpt lat="44.8855542157881" lon="8.856840076529341"><ele>127.0</ele><time>2026-03-29T08:32:40.999Z</time></trkpt><trkpt lat="44.885494720913144" lon="8.85689714280299"><ele>127.00000000000001</ele><time>2026-03-29T08:32:41.999Z</time></trkpt><trkpt lat="44.88542642981" lon="8.856941898336952"><ele>127.0</ele><time>2026-03-29T08:32:42.999Z</time></trkpt><trkpt lat="44.88534823456957" lon="8.856972720471697"><ele>127.0</ele><time>2026-03-29T08:32:43.999Z</time></trkpt><trkpt lat="44.885281750794014" lon="8.856974404580646"><ele>127.0</ele><time>2026-03-29T08:32:44.999Z</time></trkpt><trkpt lat="44.88520219167026" lon="8.856952356193093"><ele>127.00000000000001</ele><time>2026-03-29T08:32:45.999Z</time></trkpt><trkpt lat="44.88510864010363" lon="8.856914932334218"><ele>127.0</ele><time>2026-03-29T08:32:46.999Z</time></trkpt><trkpt lat="44.88501362270388" lon="8.856854990581308"><ele>127.19999999999999</ele><time>2026-03-29T08:32:47.999Z</time></trkpt><trkpt lat="44.88491725243106" lon="8.856793628169306"><ele>127.39999999999999</ele><time>2026-03-29T08:32:48.999Z</time></trkpt><trkpt lat="44.884830842009904" lon="8.856742600760029"><ele>127.60000000000001</ele><time>2026-03-29T08:32:49.999Z</time></trkpt><trkpt lat="44.884745835921926" lon="8.856678114284563"><ele>127.80000000000001</ele><time>2026-03-29T08:32:50.999Z</time></trkpt><trkpt lat="44.884647807163546" lon="8.856609137011647"><ele>128.0</ele><time>2026-03-29T08:32:51.999Z</time></trkpt><trkpt lat="44.88454834443139" lon="8.856548040542313"><ele>128.0</ele><time>2026-03-29T08:32:52.999Z</time></trkpt><trkpt lat="44.88445911564553" lon="8.856491222061305"><ele>128.0</ele><time>2026-03-29T08:32:53.999Z</time></trkpt><trkpt lat="44.88437654290874" lon="8.85644012576694"><ele>128.0</ele><time>2026-03-29T08:32:54.999Z</time></trkpt><trkpt lat="44.884287324540814" lon="8.856386988454044"><ele>128.0</ele><time>2026-03-29T08:32:55.999Z</time></trkpt><trkpt lat="44.8841947999648" lon="8.856327120915259"><ele>128.0</ele><time>2026-03-29T08:32:56.999Z</time></trkpt><trkpt lat="44.88411148529214" lon="8.856275124741149"><ele>128.0</ele><time>2026-03-29T08:32:57.999Z</time></trkpt><trkpt lat="44.88402588699264" lon="8.856220494259667"><ele>128.0</ele><time>2026-03-29T08:32:58.999Z</time></trkpt><trkpt lat="44.88394637212766" lon="8.85616833009729"><ele>128.0</ele><time>2026-03-29T08:32:59.999Z</time></trkpt><trkpt lat="44.8838691430548" lon="8.856117024995543"><ele>128.0</ele><time>2026-03-29T08:33:00.999Z</time></trkpt><trkpt lat="44.88378226406802" lon="8.856057588325106"><ele>128.0</ele><time>2026-03-29T08:33:02Z</time></trkpt><trkpt lat="44.88370408372001" lon="8.85600330965137"><ele>128.0</ele><time>2026-03-29T08:33:03Z</time></trkpt><trkpt lat="44.88362504094526" lon="8.85595002900233"><ele>128.0</ele><time>2026-03-29T08:33:04Z</time></trkpt><trkpt lat="44.883545101632784" lon="8.855895051082447"><ele>128.0</ele><time>2026-03-29T08:33:05Z</time></trkpt><trkpt lat="44.88345765854854" lon="8.855835536974363"><ele>128.0</ele><time>2026-03-29T08:33:06Z</time></trkpt><trkpt lat="44.883369560346694" lon="8.855778600854826"><ele>128.0</ele><time>2026-03-29T08:33:07Z</time></trkpt><trkpt lat="44.883280438596906" lon="8.855718656601214"><ele>127.99999999999999</ele><time>2026-03-29T08:33:08Z</time></trkpt><trkpt lat="44.88319496964352" lon="8.855662785109812"><ele>128.0</ele><time>2026-03-29T08:33:09Z</time></trkpt><trkpt lat="44.88312111207288" lon="8.855609332497899"><ele>128.0</ele><time>2026-03-29T08:33:10Z</time></trkpt><trkpt lat="44.883048380032996" lon="8.855559807988746"><ele>128.0</ele><time>2026-03-29T08:33:11Z</time></trkpt><trkpt lat="44.88297084748576" lon="8.85550713679366"><ele>127.99999999999999</ele><time>2026-03-29T08:33:12Z</time></trkpt><trkpt lat="44.88288168107854" lon="8.855450636700189"><ele>128.0</ele><time>2026-03-29T08:33:13Z</time></trkpt><trkpt lat="44.882776833394466" lon="8.855388728271896"><ele>128.0</ele><time>2026-03-29T08:33:14Z</time></trkpt><trkpt lat="44.88264511694171" lon="8.855318193729978"><ele>128.0</ele><time>2026-03-29T08:33:15Z</time></trkpt><trkpt lat="44.882500752118034" lon="8.855238210090565"><ele>128.0</ele><time>2026-03-29T08:33:16Z</time></trkpt><trkpt lat="44.88235721565163" lon="8.855143622271049"><ele>128.0</ele><time>2026-03-29T08:33:17Z</time></trkpt><trkpt lat="44.882206229163266" lon="8.855034544780459"><ele>128.0</ele><time>2026-03-29T08:33:18Z</time></trkpt><trkpt lat="44.8820660547948" lon="8.854928273993325"><ele>128.0</ele><time>2026-03-29T08:33:19Z</time></trkpt><trkpt lat="44.881932358058975" lon="8.854843321536924"><ele>128.0</ele><time>2026-03-29T08:33:20Z</time></trkpt><trkpt lat="44.88179149732288" lon="8.854778803915435"><ele>128.0</ele><time>2026-03-29T08:33:21Z</time></trkpt><trkpt lat="44.88164855425933" lon="8.854719853674261"><ele>128.0</ele><time>2026-03-29T08:33:22Z</time></trkpt><trkpt lat="44.881492777519924" lon="8.854677038265145"><ele>128.0</ele><time>2026-03-29T08:33:23Z</time></trkpt><trkpt lat="44.88133058942244" lon="8.854645174181485"><ele>128.0</ele><time>2026-03-29T08:33:24Z</time></trkpt><trkpt lat="44.881188797027114" lon="8.854625427748452"><ele>128.0</ele><time>2026-03-29T08:33:25Z</time></trkpt><trkpt lat="44.881036030148" lon="8.854607864743766"><ele>128.0</ele><time>2026-03-29T08:33:26Z</time></trkpt><trkpt lat="44.88089888328413" lon="8.854581024651427"><ele>128.0</ele><time>2026-03-29T08:33:27Z</time></trkpt><trkpt lat="44.88077369475906" lon="8.854554856204434"><ele>128.0</ele><time>2026-03-29T08:33:28Z</time></trkpt><trkpt lat="44.88065306246223" lon="8.854541169902163"><ele>128.0</ele><time>2026-03-29T08:33:29Z</time></trkpt><trkpt lat="44.88051914066391" lon="8.854512469586124"><ele>128.0</ele><time>2026-03-29T08:33:30Z</time></trkpt><trkpt lat="44.880401484778005" lon="8.854491209096738"><ele>128.0</ele><time>2026-03-29T08:33:31Z</time></trkpt><trkpt lat="44.880274319694195" lon="8.854468242073638"><ele>128.0</ele><time>2026-03-29T08:33:32Z</time></trkpt><trkpt lat="44.88012745385427" lon="8.85444096506528"><ele>128.0</ele><time>2026-03-29T08:33:33Z</time></trkpt><trkpt lat="44.8799733583508" lon="8.854415808260375"><ele>127.66666666666666</ele><time>2026-03-29T08:33:34Z</time></trkpt><trkpt lat="44.879822454612714" lon="8.854391834460227"><ele>127.33333333333334</ele><time>2026-03-29T08:33:35Z</time></trkpt><trkpt lat="44.87966866948349" lon="8.85436654686885"><ele>127.0</ele><time>2026-03-29T08:33:36Z</time></trkpt><trkpt lat="44.87951652305212" lon="8.854340107471819"><ele>127.0</ele><time>2026-03-29T08:33:37Z</time></trkpt><trkpt lat="44.87936592160497" lon="8.854326287854109"><ele>127.0</ele><time>2026-03-29T08:33:38Z</time></trkpt><trkpt lat="44.87920539782147" lon="8.854302219872391"><ele>127.0</ele><time>2026-03-29T08:33:39Z</time></trkpt><trkpt lat="44.8790348184872" lon="8.854276850008192"><ele>127.33333333333334</ele><time>2026-03-29T08:33:40Z</time></trkpt><trkpt lat="44.8788588573586" lon="8.854248656041639"><ele>127.66666666666666</ele><time>2026-03-29T08:33:41Z</time></trkpt><trkpt lat="44.87868860842918" lon="8.854213455878568"><ele>128.0</ele><time>2026-03-29T08:33:42Z</time></trkpt><trkpt lat="44.87851718405711" lon="8.85417918447057"><ele>128.33333333333331</ele><time>2026-03-29T08:33:43Z</time></trkpt><trkpt lat="44.87834341225276" lon="8.854150229702896"><ele>128.66666666666666</ele><time>2026-03-29T08:33:44Z</time></trkpt><trkpt lat="44.878158895679256" lon="8.854125605683823"><ele>129.0</ele><time>2026-03-29T08:33:45Z</time></trkpt><trkpt lat="44.87796463794086" lon="8.854098752687905"><ele>129.0</ele><time>2026-03-29T08:33:46Z</time></trkpt><trkpt lat="44.87777609663835" lon="8.854068914253562"><ele>129.0</ele><time>2026-03-29T08:33:47Z</time></trkpt><trkpt lat="44.87757839002622" lon="8.85404494718463"><ele>129.0</ele><time>2026-03-29T08:33:48Z</time></trkpt><trkpt lat="44.87737912585697" lon="8.854013085831431"><ele>129.0</ele><time>2026-03-29T08:33:49Z</time></trkpt><trkpt lat="44.8771907189711" lon="8.853981262664362"><ele>129.0</ele><time>2026-03-29T08:33:50Z</time></trkpt><trkpt lat="44.87701676467294" lon="8.853957846468209"><ele>129.0</ele><time>2026-03-29T08:33:51Z</time></trkpt><trkpt lat="44.87683624735945" lon="8.853931975980448"><ele>129.0</ele><time>2026-03-29T08:33:52Z</time></trkpt><trkpt lat="44.87666218085802" lon="8.853909322719074"><ele>129.0</ele><time>2026-03-29T08:33:53Z</time></trkpt><trkpt lat="44.87649014532591" lon="8.853890864306697"><ele>129.0</ele><time>2026-03-29T08:33:54Z</time></trkpt><trkpt lat="44.87632779495669" lon="8.853877798314254"><ele>129.0</ele><time>2026-03-29T08:33:55Z</time></trkpt><trkpt lat="44.876177907947564" lon="8.853879250019347"><ele>129.0</ele><time>2026-03-29T08:33:56Z</time></trkpt><trkpt lat="44.87603530914987" lon="8.853893719110012"><ele>129.0</ele><time>2026-03-29T08:33:57Z</time></trkpt><trkpt lat="44.87590063077569" lon="8.85391107528537"><ele>129.0</ele><time>2026-03-29T08:33:58Z</time></trkpt><trkpt lat="44.87577761162994" lon="8.853935733855504"><ele>129.0</ele><time>2026-03-29T08:33:59Z</time></trkpt><trkpt lat="44.875667825824685" lon="8.853954923114463"><ele>129.0</ele><time>2026-03-29T08:34:00Z</time></trkpt><trkpt lat="44.875585810430984" lon="8.85398495324169"><ele>129.0</ele><time>2026-03-29T08:34:01Z</time></trkpt><trkpt lat="44.87550611365678" lon="8.854015682928456"><ele>129.0</ele><time>2026-03-29T08:34:02Z</time></trkpt><trkpt lat="44.87542418691257" lon="8.854057949210912"><ele>129.0</ele><time>2026-03-29T08:34:03Z</time></trkpt><trkpt lat="44.875344604765004" lon="8.854103173731275"><ele>129.0</ele><time>2026-03-29T08:34:04Z</time></trkpt><trkpt lat="44.875273974788314" lon="8.854151131934056"><ele>129.0</ele><time>2026-03-29T08:34:05Z</time></trkpt><trkpt lat="44.87521678658097" lon="8.854196712495357"><ele>129.0</ele><time>2026-03-29T08:34:06Z</time></trkpt><trkpt lat="44.87510775499717" lon="8.854288807002444"><ele>129.0</ele><time>2026-03-29T08:34:08Z</time></trkpt><trkpt lat="44.875002746615024" lon="8.854371418147545"><ele>129.0</ele><time>2026-03-29T08:34:10Z</time></trkpt><trkpt lat="44.87494044024804" lon="8.854419310236807"><ele>129.4</ele><time>2026-03-29T08:34:11Z</time></trkpt><trkpt lat="44.874835077437645" lon="8.854512670886212"><ele>129.8</ele><time>2026-03-29T08:34:13Z</time></trkpt><trkpt lat="44.87477595825019" lon="8.85456496358591"><ele>130.2</ele><time>2026-03-29T08:34:14Z</time></trkpt><trkpt lat="44.874710114671245" lon="8.854622008001172"><ele>130.6</ele><time>2026-03-29T08:34:15Z</time></trkpt><trkpt lat="44.87462728046112" lon="8.85469773402822"><ele>131.0</ele><time>2026-03-29T08:34:16Z</time></trkpt><trkpt lat="44.87452473356247" lon="8.854784735300594"><ele>131.0</ele><time>2026-03-29T08:34:17Z</time></trkpt><trkpt lat="44.874422040577386" lon="8.854871478851203"><ele>131.0</ele><time>2026-03-29T08:34:18Z</time></trkpt><trkpt lat="44.874310971231196" lon="8.854961967772631"><ele>131.0</ele><time>2026-03-29T08:34:19Z</time></trkpt><trkpt lat="44.87420801531046" lon="8.855043587612077"><ele>131.0</ele><time>2026-03-29T08:34:20Z</time></trkpt><trkpt lat="44.87410031248083" lon="8.855138111555988"><ele>130.75</ele><time>2026-03-29T08:34:21Z</time></trkpt><trkpt lat="44.87398515122849" lon="8.855227361335563"><ele>130.5</ele><time>2026-03-29T08:34:22Z</time></trkpt><trkpt lat="44.87387768152587" lon="8.855311304187024"><ele>130.25</ele><time>2026-03-29T08:34:23Z</time></trkpt><trkpt lat="44.873775249279525" lon="8.855390025611777"><ele>130.0</ele><time>2026-03-29T08:34:24Z</time></trkpt><trkpt lat="44.87365229429327" lon="8.85549718376588"><ele>130.0</ele><time>2026-03-29T08:34:25Z</time></trkpt><trkpt lat="44.87353099579553" lon="8.855597986551038"><ele>130.0</ele><time>2026-03-29T08:34:26Z</time></trkpt><trkpt lat="44.87340447546907" lon="8.855705833211282"><ele>130.0</ele><time>2026-03-29T08:34:27Z</time></trkpt><trkpt lat="44.87327891877988" lon="8.8558132569561"><ele>130.0</ele><time>2026-03-29T08:34:28Z</time></trkpt><trkpt lat="44.87316180852879" lon="8.855910923645856"><ele>130.75</ele><time>2026-03-29T08:34:29Z</time></trkpt><trkpt lat="44.8730525981843" lon="8.855998283738309"><ele>131.5</ele><time>2026-03-29T08:34:30Z</time></trkpt><trkpt lat="44.872939298119675" lon="8.856090139107948"><ele>132.25</ele><time>2026-03-29T08:34:31Z</time></trkpt><trkpt lat="44.87281971816864" lon="8.85618782963277"><ele>133.0</ele><time>2026-03-29T08:34:32Z</time></trkpt><trkpt lat="44.87269506035617" lon="8.856280371492042"><ele>132.75</ele><time>2026-03-29T08:34:33Z</time></trkpt><trkpt lat="44.87257160530429" lon="8.85638254908014"><ele>132.5</ele><time>2026-03-29T08:34:34Z</time></trkpt><trkpt lat="44.87246319736961" lon="8.856478109870107"><ele>132.25</ele><time>2026-03-29T08:34:35Z</time></trkpt><trkpt lat="44.872359592301834" lon="8.856569181361206"><ele>132.0</ele><time>2026-03-29T08:34:36Z</time></trkpt><trkpt lat="44.872265822141635" lon="8.856657108807482"><ele>132.0</ele><time>2026-03-29T08:34:37Z</time></trkpt><trkpt lat="44.87218276087254" lon="8.85673599777364"><ele>132.0</ele><time>2026-03-29T08:34:38Z</time></trkpt><trkpt lat="44.87211079147537" lon="8.85680588686166"><ele>132.0</ele><time>2026-03-29T08:34:39Z</time></trkpt><trkpt lat="44.87202404890745" lon="8.85689059476995"><ele>132.0</ele><time>2026-03-29T08:34:41Z</time></trkpt><trkpt lat="44.872018223405256" lon="8.856992971890381"><ele>132.0</ele><time>2026-03-29T08:34:43.999Z</time></trkpt><trkpt lat="44.87186385726059" lon="8.856979116057655"><ele>132.4</ele><time>2026-03-29T08:34:48.999Z</time></trkpt><trkpt lat="44.871767003644344" lon="8.856962614745369"><ele>132.79999999999998</ele><time>2026-03-29T08:34:49.999Z</time></trkpt><trkpt lat="44.871684951250195" lon="8.856946524924004"><ele>133.2</ele><time>2026-03-29T08:34:50.999Z</time></trkpt><trkpt lat="44.871599721157935" lon="8.856930482125614"><ele>133.6</ele><time>2026-03-29T08:34:51.999Z</time></trkpt><trkpt lat="44.87150491620835" lon="8.856910843177925"><ele>134.0</ele><time>2026-03-29T08:34:52.999Z</time></trkpt><trkpt lat="44.87139552876766" lon="8.85689483310909"><ele>134.0</ele><time>2026-03-29T08:34:53.999Z</time></trkpt><trkpt lat="44.87127237712712" lon="8.856876593623229"><ele>134.0</ele><time>2026-03-29T08:34:54.999Z</time></trkpt><trkpt lat="44.871137287056825" lon="8.85685377219041"><ele>134.0</ele><time>2026-03-29T08:34:55.999Z</time></trkpt><trkpt lat="44.871006658428605" lon="8.856829683729964"><ele>134.0</ele><time>2026-03-29T08:34:56.999Z</time></trkpt><trkpt lat="44.87085641114186" lon="8.856811176507941"><ele>134.0</ele><time>2026-03-29T08:34:57.999Z</time></trkpt><trkpt lat="44.87068669274166" lon="8.856790860464251"><ele>134.0</ele><time>2026-03-29T08:34:58.999Z</time></trkpt><trkpt lat="44.87049239873151" lon="8.856760764862754"><ele>134.0</ele><time>2026-03-29T08:35:00Z</time></trkpt><trkpt lat="44.87028906365146" lon="8.856731135266942"><ele>134.0</ele><time>2026-03-29T08:35:01Z</time></trkpt><trkpt lat="44.87010135353771" lon="8.85669777210278"><ele>134.0</ele><time>2026-03-29T08:35:02Z</time></trkpt><trkpt lat="44.869904883670536" lon="8.856669806793358"><ele>134.0</ele><time>2026-03-29T08:35:03Z</time></trkpt><trkpt lat="44.86970980250776" lon="8.856640144002597"><ele>134.0</ele><time>2026-03-29T08:35:04Z</time></trkpt><trkpt lat="44.869510981795536" lon="8.85661464044936"><ele>134.0</ele><time>2026-03-29T08:35:05Z</time></trkpt><trkpt lat="44.869334575245816" lon="8.856591557552289"><ele>134.0</ele><time>2026-03-29T08:35:06Z</time></trkpt><trkpt lat="44.869172271229814" lon="8.85656566319509"><ele>133.0</ele><time>2026-03-29T08:35:07Z</time></trkpt><trkpt lat="44.869008089762175" lon="8.856544425885918"><ele>132.0</ele><time>2026-03-29T08:35:08Z</time></trkpt><trkpt lat="44.86875668727325" lon="8.856509336088688"><ele>131.0</ele><time>2026-03-29T08:35:09Z</time></trkpt><trkpt lat="44.868571413739375" lon="8.856483715313948"><ele>131.33333333333331</ele><time>2026-03-29T08:35:10Z</time></trkpt><trkpt lat="44.86838593714593" lon="8.856457686446202"><ele>131.66666666666666</ele><time>2026-03-29T08:35:11Z</time></trkpt><trkpt lat="44.86819425952863" lon="8.85642724814227"><ele>132.0</ele><time>2026-03-29T08:35:12Z</time></trkpt><trkpt lat="44.8680094602598" lon="8.856396591170741"><ele>132.0</ele><time>2026-03-29T08:35:13Z</time></trkpt><trkpt lat="44.86781879033903" lon="8.85636825665562"><ele>132.0</ele><time>2026-03-29T08:35:14Z</time></trkpt><trkpt lat="44.867635283604145" lon="8.85633997498394"><ele>132.0</ele><time>2026-03-29T08:35:15Z</time></trkpt><trkpt lat="44.86744714091966" lon="8.856312941760997"><ele>133.0</ele><time>2026-03-29T08:35:16Z</time></trkpt><trkpt lat="44.86726157437362" lon="8.856286240179319"><ele>134.0</ele><time>2026-03-29T08:35:17Z</time></trkpt><trkpt lat="44.86707660779834" lon="8.856258702987152"><ele>135.0</ele><time>2026-03-29T08:35:18Z</time></trkpt><trkpt lat="44.866886217480214" lon="8.856229148829796"><ele>135.33333333333334</ele><time>2026-03-29T08:35:19Z</time></trkpt><trkpt lat="44.86668779302931" lon="8.856199980376488"><ele>135.66666666666669</ele><time>2026-03-29T08:35:20Z</time></trkpt><trkpt lat="44.86648228144505" lon="8.856168755234563"><ele>136.0</ele><time>2026-03-29T08:35:21Z</time></trkpt><trkpt lat="44.866276867307974" lon="8.856128169375769"><ele>136.0</ele><time>2026-03-29T08:35:22Z</time></trkpt><trkpt lat="44.86608683570363" lon="8.856105037696842"><ele>136.0</ele><time>2026-03-29T08:35:23Z</time></trkpt><trkpt lat="44.86589025071995" lon="8.856078074192968"><ele>136.0</ele><time>2026-03-29T08:35:24Z</time></trkpt><trkpt lat="44.865690980123176" lon="8.856050373366466"><ele>136.33333333333334</ele><time>2026-03-29T08:35:25Z</time></trkpt><trkpt lat="44.86548558715175" lon="8.856023622504539"><ele>136.66666666666666</ele><time>2026-03-29T08:35:26Z</time></trkpt><trkpt lat="44.86528087360276" lon="8.855991126317248"><ele>137.0</ele><time>2026-03-29T08:35:27Z</time></trkpt><trkpt lat="44.86507052786878" lon="8.855958899096196"><ele>137.0</ele><time>2026-03-29T08:35:28Z</time></trkpt><trkpt lat="44.864859723023756" lon="8.855927235994395"><ele>137.0</ele><time>2026-03-29T08:35:29Z</time></trkpt><trkpt lat="44.86464691187687" lon="8.85589599676531"><ele>137.0</ele><time>2026-03-29T08:35:30Z</time></trkpt><trkpt lat="44.86443646544889" lon="8.855864508775728"><ele>137.0</ele><time>2026-03-29T08:35:31Z</time></trkpt><trkpt lat="44.8642185538011" lon="8.855828542661929"><ele>137.0</ele><time>2026-03-29T08:35:32Z</time></trkpt><trkpt lat="44.86400181437909" lon="8.855793292044147"><ele>137.0</ele><time>2026-03-29T08:35:33Z</time></trkpt><trkpt lat="44.86378748506964" lon="8.855759494960449"><ele>137.0</ele><time>2026-03-29T08:35:34Z</time></trkpt><trkpt lat="44.863573701994795" lon="8.855729715013913"><ele>137.0</ele><time>2026-03-29T08:35:35Z</time></trkpt><trkpt lat="44.86336507104705" lon="8.855699804072955"><ele>137.0</ele><time>2026-03-29T08:35:36Z</time></trkpt><trkpt lat="44.86317534766253" lon="8.85566915541491"><ele>137.33333333333331</ele><time>2026-03-29T08:35:37Z</time></trkpt><trkpt lat="44.86299408008123" lon="8.855640649724704"><ele>137.66666666666666</ele><time>2026-03-29T08:35:38Z</time></trkpt><trkpt lat="44.86281834938658" lon="8.855612205023881"><ele>138.0</ele><time>2026-03-29T08:35:39Z</time></trkpt><trkpt lat="44.862640971511546" lon="8.855587047643077"><ele>137.33333333333334</ele><time>2026-03-29T08:35:40Z</time></trkpt><trkpt lat="44.86246434574967" lon="8.855560245336566"><ele>136.66666666666669</ele><time>2026-03-29T08:35:41Z</time></trkpt><trkpt lat="44.862277051964966" lon="8.855531983182082"><ele>136.0</ele><time>2026-03-29T08:35:42Z</time></trkpt><trkpt lat="44.862088398369494" lon="8.855503764529576"><ele>136.0</ele><time>2026-03-29T08:35:43Z</time></trkpt><trkpt lat="44.861899859566215" lon="8.855475895031134"><ele>136.0</ele><time>2026-03-29T08:35:44Z</time></trkpt><trkpt lat="44.86171052145266" lon="8.855445728408474"><ele>136.0</ele><time>2026-03-29T08:35:45Z</time></trkpt><trkpt lat="44.8615197263052" lon="8.855417633595255"><ele>136.33333333333334</ele><time>2026-03-29T08:35:46Z</time></trkpt><trkpt lat="44.86132466462365" lon="8.855388937473755"><ele>136.66666666666666</ele><time>2026-03-29T08:35:47Z</time></trkpt><trkpt lat="44.861135060108744" lon="8.855356113779862"><ele>137.0</ele><time>2026-03-29T08:35:48Z</time></trkpt><trkpt lat="44.86094510584372" lon="8.855326914116986"><ele>138.0</ele><time>2026-03-29T08:35:49Z</time></trkpt><trkpt lat="44.860758993846225" lon="8.855299033872882"><ele>139.0</ele><time>2026-03-29T08:35:50Z</time></trkpt><trkpt lat="44.860575602724985" lon="8.855272171583843"><ele>140.0</ele><time>2026-03-29T08:35:51Z</time></trkpt><trkpt lat="44.86040648136074" lon="8.855245435274544"><ele>140.0</ele><time>2026-03-29T08:35:52Z</time></trkpt><trkpt lat="44.86024579364542" lon="8.855225959080249"><ele>140.0</ele><time>2026-03-29T08:35:53Z</time></trkpt><trkpt lat="44.86009379332384" lon="8.85520387719026"><ele>140.0</ele><time>2026-03-29T08:35:54Z</time></trkpt><trkpt lat="44.85995101447926" lon="8.855178946934744"><ele>140.0</ele><time>2026-03-29T08:35:55Z</time></trkpt><trkpt lat="44.85981125131263" lon="8.855161283266947"><ele>140.0</ele><time>2026-03-29T08:35:56Z</time></trkpt><trkpt lat="44.859670335784294" lon="8.85514274179455"><ele>140.0</ele><time>2026-03-29T08:35:57Z</time></trkpt><trkpt lat="44.859530130497575" lon="8.855124608672131"><ele>140.0</ele><time>2026-03-29T08:35:58Z</time></trkpt><trkpt lat="44.85938756615426" lon="8.85510616335475"><ele>139.33333333333331</ele><time>2026-03-29T08:35:59Z</time></trkpt><trkpt lat="44.85923805762493" lon="8.855078394492363"><ele>138.66666666666666</ele><time>2026-03-29T08:36:00Z</time></trkpt><trkpt lat="44.85908018375512" lon="8.855047416715193"><ele>138.0</ele><time>2026-03-29T08:36:01Z</time></trkpt><trkpt lat="44.85891157676411" lon="8.855034194946652"><ele>138.0</ele><time>2026-03-29T08:36:02Z</time></trkpt><trkpt lat="44.85873627863936" lon="8.855006362544769"><ele>138.0</ele><time>2026-03-29T08:36:03Z</time></trkpt><trkpt lat="44.85856437504092" lon="8.854976899388186"><ele>138.0</ele><time>2026-03-29T08:36:04Z</time></trkpt><trkpt lat="44.85838612728892" lon="8.854942701230735"><ele>138.0</ele><time>2026-03-29T08:36:05Z</time></trkpt><trkpt lat="44.85820536214893" lon="8.854916926410297"><ele>138.0</ele><time>2026-03-29T08:36:06Z</time></trkpt><trkpt lat="44.85802936141845" lon="8.854889476110698"><ele>138.0</ele><time>2026-03-29T08:36:07Z</time></trkpt><trkpt lat="44.85785018873827" lon="8.854860976503803"><ele>138.0</ele><time>2026-03-29T08:36:08Z</time></trkpt><trkpt lat="44.857674296234514" lon="8.854830801123807"><ele>138.0</ele><time>2026-03-29T08:36:09Z</time></trkpt><trkpt lat="44.85750385488442" lon="8.854794641518666"><ele>138.0</ele><time>2026-03-29T08:36:10Z</time></trkpt><trkpt lat="44.85733147753719" lon="8.854778381928963"><ele>138.33333333333334</ele><time>2026-03-29T08:36:11Z</time></trkpt><trkpt lat="44.85715827960642" lon="8.854753388078326"><ele>138.66666666666669</ele><time>2026-03-29T08:36:12Z</time></trkpt><trkpt lat="44.85697865533374" lon="8.854727313236063"><ele>139.0</ele><time>2026-03-29T08:36:13Z</time></trkpt><trkpt lat="44.85680164494104" lon="8.854706994516555"><ele>139.0</ele><time>2026-03-29T08:36:14Z</time></trkpt><trkpt lat="44.85661869132536" lon="8.854678718901123"><ele>139.0</ele><time>2026-03-29T08:36:15Z</time></trkpt><trkpt lat="44.85643580340223" lon="8.854648492146465"><ele>139.0</ele><time>2026-03-29T08:36:16Z</time></trkpt><trkpt lat="44.85625910464787" lon="8.85460577109071"><ele>139.0</ele><time>2026-03-29T08:36:17Z</time></trkpt><trkpt lat="44.85607440225059" lon="8.85457663354541"><ele>139.0</ele><time>2026-03-29T08:36:18Z</time></trkpt><trkpt lat="44.85588952543423" lon="8.854554274911836"><ele>139.0</ele><time>2026-03-29T08:36:19Z</time></trkpt><trkpt lat="44.8557030357416" lon="8.854522410640824"><ele>138.66666666666669</ele><time>2026-03-29T08:36:20Z</time></trkpt><trkpt lat="44.85551468552896" lon="8.854489483491282"><ele>138.33333333333334</ele><time>2026-03-29T08:36:21Z</time></trkpt><trkpt lat="44.85533568723547" lon="8.8544625050824"><ele>138.0</ele><time>2026-03-29T08:36:22Z</time></trkpt><trkpt lat="44.85515921255175" lon="8.85443530983606"><ele>138.33333333333334</ele><time>2026-03-29T08:36:23Z</time></trkpt><trkpt lat="44.85498080954471" lon="8.854410608242157"><ele>138.66666666666669</ele><time>2026-03-29T08:36:24Z</time></trkpt><trkpt lat="44.854807740177165" lon="8.85438652499534"><ele>139.0</ele><time>2026-03-29T08:36:25Z</time></trkpt><trkpt lat="44.85463277902149" lon="8.854360272545541"><ele>139.0</ele><time>2026-03-29T08:36:26Z</time></trkpt><trkpt lat="44.85445774800582" lon="8.85433567472924"><ele>139.0</ele><time>2026-03-29T08:36:27Z</time></trkpt><trkpt lat="44.854290030588956" lon="8.854310970511346"><ele>139.0</ele><time>2026-03-29T08:36:28Z</time></trkpt><trkpt lat="44.85411565000265" lon="8.854285619149488"><ele>139.33333333333334</ele><time>2026-03-29T08:36:29Z</time></trkpt><trkpt lat="44.85394083853967" lon="8.854260346402143"><ele>139.66666666666666</ele><time>2026-03-29T08:36:30Z</time></trkpt><trkpt lat="44.85376343182109" lon="8.854237276458326"><ele>140.0</ele><time>2026-03-29T08:36:31Z</time></trkpt><trkpt lat="44.85358588903711" lon="8.85421094395485"><ele>140.33333333333331</ele><time>2026-03-29T08:36:32Z</time></trkpt><trkpt lat="44.85341025070415" lon="8.854186677239865"><ele>140.66666666666666</ele><time>2026-03-29T08:36:33Z</time></trkpt><trkpt lat="44.8532292402764" lon="8.854160007621683"><ele>141.0</ele><time>2026-03-29T08:36:34Z</time></trkpt><trkpt lat="44.85305424067697" lon="8.854133307912157"><ele>141.0</ele><time>2026-03-29T08:36:35Z</time></trkpt><trkpt lat="44.85287039074233" lon="8.854108659747316"><ele>141.0</ele><time>2026-03-29T08:36:36Z</time></trkpt><trkpt lat="44.85269362951592" lon="8.854078721181235"><ele>141.0</ele><time>2026-03-29T08:36:37Z</time></trkpt><trkpt lat="44.85250969510307" lon="8.854050954984384"><ele>141.0</ele><time>2026-03-29T08:36:38Z</time></trkpt><trkpt lat="44.852324702297096" lon="8.854023081794905"><ele>141.0</ele><time>2026-03-29T08:36:39Z</time></trkpt><trkpt lat="44.852138413237434" lon="8.853996084604184"><ele>141.0</ele><time>2026-03-29T08:36:40Z</time></trkpt><trkpt lat="44.851954901392496" lon="8.853971645447759"><ele>141.33333333333334</ele><time>2026-03-29T08:36:41Z</time></trkpt><trkpt lat="44.85176738129286" lon="8.853945821990818"><ele>141.66666666666669</ele><time>2026-03-29T08:36:42Z</time></trkpt><trkpt lat="44.85157739378715" lon="8.85391570384629"><ele>142.0</ele><time>2026-03-29T08:36:43Z</time></trkpt><trkpt lat="44.85138067132659" lon="8.853887460045096"><ele>142.0</ele><time>2026-03-29T08:36:44Z</time></trkpt><trkpt lat="44.8511848600392" lon="8.853859837803432"><ele>142.0</ele><time>2026-03-29T08:36:45Z</time></trkpt><trkpt lat="44.85098970477238" lon="8.853831136515085"><ele>142.0</ele><time>2026-03-29T08:36:46Z</time></trkpt><trkpt lat="44.850797428472234" lon="8.853802855311159"><ele>141.66666666666669</ele><time>2026-03-29T08:36:47Z</time></trkpt><trkpt lat="44.85060938296602" lon="8.853774665121671"><ele>141.33333333333334</ele><time>2026-03-29T08:36:48Z</time></trkpt><trkpt lat="44.85043234222754" lon="8.85375008855543"><ele>141.0</ele><time>2026-03-29T08:36:49Z</time></trkpt><trkpt lat="44.850262645242346" lon="8.853727664848082"><ele>142.33333333333334</ele><time>2026-03-29T08:36:50Z</time></trkpt><trkpt lat="44.85009542700986" lon="8.853703324073011"><ele>143.66666666666669</ele><time>2026-03-29T08:36:51Z</time></trkpt><trkpt lat="44.84993465036102" lon="8.853678913342941"><ele>145.0</ele><time>2026-03-29T08:36:52Z</time></trkpt><trkpt lat="44.84977821072037" lon="8.85365595741708"><ele>145.0</ele><time>2026-03-29T08:36:53Z</time></trkpt><trkpt lat="44.84962771923561" lon="8.853633783536944"><ele>145.0</ele><time>2026-03-29T08:36:54Z</time></trkpt><trkpt lat="44.849476798156694" lon="8.853610094557427"><ele>145.0</ele><time>2026-03-29T08:36:55Z</time></trkpt><trkpt lat="44.84933589738072" lon="8.85358677294494"><ele>145.0</ele><time>2026-03-29T08:36:56Z</time></trkpt><trkpt lat="44.84920502494913" lon="8.85356583559345"><ele>145.6</ele><time>2026-03-29T08:36:57Z</time></trkpt><trkpt lat="44.84907722494531" lon="8.85354745133087"><ele>146.2</ele><time>2026-03-29T08:36:58Z</time></trkpt><trkpt lat="44.84897144338381" lon="8.853536143589768"><ele>146.8</ele><time>2026-03-29T08:36:59Z</time></trkpt><trkpt lat="44.84888669832717" lon="8.853544954322421"><ele>147.4</ele><time>2026-03-29T08:37:01Z</time></trkpt><trkpt lat="44.84881639790845" lon="8.853533174532478"><ele>148.0</ele><time>2026-03-29T08:37:04Z</time></trkpt><trkpt lat="44.84871168525631" lon="8.853468455498282"><ele>148.0</ele><time>2026-03-29T08:37:06Z</time></trkpt><trkpt lat="44.848637170790276" lon="8.85343673020239"><ele>148.0</ele><time>2026-03-29T08:37:07Z</time></trkpt><trkpt lat="44.84855884365063" lon="8.853447800903279"><ele>148.0</ele><time>2026-03-29T08:37:08Z</time></trkpt><trkpt lat="44.848476350307216" lon="8.853473701346111"><ele>148.0</ele><time>2026-03-29T08:37:09Z</time></trkpt><trkpt lat="44.8483806443617" lon="8.853485529999912"><ele>148.0</ele><time>2026-03-29T08:37:10Z</time></trkpt><trkpt lat="44.84827542842626" lon="8.853462720685464"><ele>148.0</ele><time>2026-03-29T08:37:11Z</time></trkpt><trkpt lat="44.848157762467906" lon="8.853424969746099"><ele>146.75</ele><time>2026-03-29T08:37:12Z</time></trkpt><trkpt lat="44.8480398910921" lon="8.85339176207955"><ele>145.5</ele><time>2026-03-29T08:37:13Z</time></trkpt><trkpt lat="44.84792481421237" lon="8.853371395849381"><ele>144.25</ele><time>2026-03-29T08:37:14Z</time></trkpt><trkpt lat="44.84779427541686" lon="8.853356401532736"><ele>143.0</ele><time>2026-03-29T08:37:15Z</time></trkpt><trkpt lat="44.84765492606395" lon="8.853338338503749"><ele>143.0</ele><time>2026-03-29T08:37:16Z</time></trkpt><trkpt lat="44.847508778252184" lon="8.85332119390337"><ele>143.0</ele><time>2026-03-29T08:37:17Z</time></trkpt><trkpt lat="44.84734978101172" lon="8.853301968209978"><ele>143.0</ele><time>2026-03-29T08:37:18Z</time></trkpt><trkpt lat="44.84718834735065" lon="8.853281286209986"><ele>143.0</ele><time>2026-03-29T08:37:19Z</time></trkpt><trkpt lat="44.84701885804804" lon="8.853257977385491"><ele>143.0</ele><time>2026-03-29T08:37:20Z</time></trkpt><trkpt lat="44.84685694971289" lon="8.85323441750483"><ele>143.0</ele><time>2026-03-29T08:37:21Z</time></trkpt><trkpt lat="44.846711133573955" lon="8.853213383847713"><ele>142.66666666666666</ele><time>2026-03-29T08:37:22Z</time></trkpt><trkpt lat="44.84656160750586" lon="8.853196032275381"><ele>142.33333333333334</ele><time>2026-03-29T08:37:23Z</time></trkpt><trkpt lat="44.846405986178816" lon="8.853175149165756"><ele>142.0</ele><time>2026-03-29T08:37:24Z</time></trkpt><trkpt lat="44.84624454920037" lon="8.853153725451467"><ele>142.0</ele><time>2026-03-29T08:37:25Z</time></trkpt><trkpt lat="44.846080727744216" lon="8.853129910217605"><ele>142.0</ele><time>2026-03-29T08:37:26Z</time></trkpt><trkpt lat="44.84590910049604" lon="8.853109128236852"><ele>142.0</ele><time>2026-03-29T08:37:27Z</time></trkpt><trkpt lat="44.84573625087974" lon="8.853089317619682"><ele>142.33333333333334</ele><time>2026-03-29T08:37:28Z</time></trkpt><trkpt lat="44.8455566877457" lon="8.853072155913152"><ele>142.66666666666666</ele><time>2026-03-29T08:37:29Z</time></trkpt><trkpt lat="44.84536931963847" lon="8.853059127905857"><ele>143.0</ele><time>2026-03-29T08:37:30Z</time></trkpt><trkpt lat="44.845173663446644" lon="8.85305957426135"><ele>143.0</ele><time>2026-03-29T08:37:31Z</time></trkpt><trkpt lat="44.84498072986116" lon="8.85306526160721"><ele>143.0</ele><time>2026-03-29T08:37:32Z</time></trkpt><trkpt lat="44.8447975860133" lon="8.853072415899993"><ele>143.0</ele><time>2026-03-29T08:37:33Z</time></trkpt><trkpt lat="44.84461018935576" lon="8.853086585900897"><ele>143.0</ele><time>2026-03-29T08:37:34Z</time></trkpt><trkpt lat="44.84441899921286" lon="8.853104321137822"><ele>143.0</ele><time>2026-03-29T08:37:35Z</time></trkpt><trkpt lat="44.844225185610846" lon="8.853118585356256"><ele>143.0</ele><time>2026-03-29T08:37:36Z</time></trkpt><trkpt lat="44.8440280893533" lon="8.85313169204687"><ele>143.33333333333331</ele><time>2026-03-29T08:37:37Z</time></trkpt><trkpt lat="44.8438300546955" lon="8.853142454344129"><ele>143.66666666666666</ele><time>2026-03-29T08:37:38Z</time></trkpt><trkpt lat="44.84364299570063" lon="8.853153226759924"><ele>144.0</ele><time>2026-03-29T08:37:39Z</time></trkpt><trkpt lat="44.843456095639084" lon="8.853163269325284"><ele>144.0</ele><time>2026-03-29T08:37:40Z</time></trkpt><trkpt lat="44.84326673090674" lon="8.853175844927119"><ele>144.0</ele><time>2026-03-29T08:37:41Z</time></trkpt><trkpt lat="44.84307662085755" lon="8.853189313761048"><ele>144.0</ele><time>2026-03-29T08:37:42Z</time></trkpt><trkpt lat="44.842884967053884" lon="8.853202572395945"><ele>144.0</ele><time>2026-03-29T08:37:43Z</time></trkpt><trkpt lat="44.84269594465983" lon="8.853215155593352"><ele>144.0</ele><time>2026-03-29T08:37:44Z</time></trkpt><trkpt lat="44.842503279433856" lon="8.853227712348081"><ele>144.0</ele><time>2026-03-29T08:37:45Z</time></trkpt><trkpt lat="44.84231645001724" lon="8.853242566841065"><ele>144.33333333333334</ele><time>2026-03-29T08:37:46Z</time></trkpt><trkpt lat="44.84212796474673" lon="8.853257308612479"><ele>144.66666666666669</ele><time>2026-03-29T08:37:47Z</time></trkpt><trkpt lat="44.84193863375627" lon="8.853273502156169"><ele>145.0</ele><time>2026-03-29T08:37:48Z</time></trkpt><trkpt lat="44.841751874722654" lon="8.853289054631489"><ele>145.0</ele><time>2026-03-29T08:37:49Z</time></trkpt><trkpt lat="44.841560248087035" lon="8.853300581014548"><ele>145.0</ele><time>2026-03-29T08:37:50Z</time></trkpt><trkpt lat="44.841374165417015" lon="8.85331004219112"><ele>145.0</ele><time>2026-03-29T08:37:51Z</time></trkpt><trkpt lat="44.841187101850636" lon="8.853320554601227"><ele>145.0</ele><time>2026-03-29T08:37:52Z</time></trkpt><trkpt lat="44.841005261530746" lon="8.853329418658259"><ele>145.0</ele><time>2026-03-29T08:37:53Z</time></trkpt><trkpt lat="44.84082787558586" lon="8.853340066369084"><ele>145.0</ele><time>2026-03-29T08:37:54Z</time></trkpt><trkpt lat="44.84066091252261" lon="8.853353167125762"><ele>145.33333333333334</ele><time>2026-03-29T08:37:55Z</time></trkpt><trkpt lat="44.84048900607957" lon="8.853368908638268"><ele>145.66666666666666</ele><time>2026-03-29T08:37:56Z</time></trkpt><trkpt lat="44.84030735964421" lon="8.853382326154309"><ele>146.0</ele><time>2026-03-29T08:37:57Z</time></trkpt><trkpt lat="44.84012723571927" lon="8.853392817343922"><ele>146.0</ele><time>2026-03-29T08:37:58Z</time></trkpt><trkpt lat="44.839950082900344" lon="8.853398516555574"><ele>146.0</ele><time>2026-03-29T08:37:59Z</time></trkpt><trkpt lat="44.83977055822431" lon="8.853407332653662"><ele>146.0</ele><time>2026-03-29T08:38:00Z</time></trkpt><trkpt lat="44.83958735525791" lon="8.853419489682485"><ele>146.0</ele><time>2026-03-29T08:38:01Z</time></trkpt><trkpt lat="44.839403654991955" lon="8.853429682813832"><ele>146.0</ele><time>2026-03-29T08:38:02Z</time></trkpt><trkpt lat="44.83922049149982" lon="8.853443770764065"><ele>146.0</ele><time>2026-03-29T08:38:03Z</time></trkpt><trkpt lat="44.83903648600256" lon="8.853454151102982"><ele>147.33333333333331</ele><time>2026-03-29T08:38:04Z</time></trkpt><trkpt lat="44.8388595684076" lon="8.853465554773058"><ele>148.66666666666666</ele><time>2026-03-29T08:38:05Z</time></trkpt><trkpt lat="44.83867756061784" lon="8.85347690143798"><ele>150.0</ele><time>2026-03-29T08:38:06Z</time></trkpt><trkpt lat="44.83849832308662" lon="8.853487398034135"><ele>150.0</ele><time>2026-03-29T08:38:07Z</time></trkpt><trkpt lat="44.838316919711616" lon="8.853500240305143"><ele>150.0</ele><time>2026-03-29T08:38:08Z</time></trkpt><trkpt lat="44.8381403296113" lon="8.853512361158906"><ele>150.0</ele><time>2026-03-29T08:38:09Z</time></trkpt><trkpt lat="44.83796226923575" lon="8.853524418455759"><ele>150.0</ele><time>2026-03-29T08:38:10Z</time></trkpt><trkpt lat="44.83778442415255" lon="8.853532529230483"><ele>150.0</ele><time>2026-03-29T08:38:11Z</time></trkpt><trkpt lat="44.837603737052646" lon="8.853543105293594"><ele>150.0</ele><time>2026-03-29T08:38:12Z</time></trkpt><trkpt lat="44.83742149828826" lon="8.853556749504028"><ele>149.66666666666666</ele><time>2026-03-29T08:38:13Z</time></trkpt><trkpt lat="44.83723759553355" lon="8.8535664868234"><ele>149.33333333333331</ele><time>2026-03-29T08:38:14Z</time></trkpt><trkpt lat="44.83704777203199" lon="8.853576469821027"><ele>149.0</ele><time>2026-03-29T08:38:15Z</time></trkpt><trkpt lat="44.83684927566695" lon="8.853586477770255"><ele>149.66666666666666</ele><time>2026-03-29T08:38:16Z</time></trkpt><trkpt lat="44.83664507242122" lon="8.853597514818505"><ele>150.33333333333334</ele><time>2026-03-29T08:38:17Z</time></trkpt><trkpt lat="44.83643760659702" lon="8.853611381726704"><ele>151.0</ele><time>2026-03-29T08:38:18Z</time></trkpt><trkpt lat="44.83623469024321" lon="8.853625308685794"><ele>151.0</ele><time>2026-03-29T08:38:19Z</time></trkpt><trkpt lat="44.836032104261136" lon="8.853638651206357"><ele>151.0</ele><time>2026-03-29T08:38:20Z</time></trkpt><trkpt lat="44.83583056155758" lon="8.853649588167688"><ele>151.0</ele><time>2026-03-29T08:38:21Z</time></trkpt><trkpt lat="44.83563252583454" lon="8.85366150843376"><ele>151.0</ele><time>2026-03-29T08:38:22Z</time></trkpt><trkpt lat="44.835441988618555" lon="8.853676332128382"><ele>151.0</ele><time>2026-03-29T08:38:23Z</time></trkpt><trkpt lat="44.83525502632714" lon="8.853687800754155"><ele>151.0</ele><time>2026-03-29T08:38:24Z</time></trkpt><trkpt lat="44.835071500650464" lon="8.853699832260698"><ele>151.0</ele><time>2026-03-29T08:38:25Z</time></trkpt><trkpt lat="44.83488864619001" lon="8.853708266786207"><ele>151.0</ele><time>2026-03-29T08:38:26Z</time></trkpt><trkpt lat="44.83470871098346" lon="8.853719139567115"><ele>151.0</ele><time>2026-03-29T08:38:27Z</time></trkpt><trkpt lat="44.834525108863645" lon="8.853730668014409"><ele>151.0</ele><time>2026-03-29T08:38:28Z</time></trkpt><trkpt lat="44.83433846643701" lon="8.85374189274836"><ele>151.0</ele><time>2026-03-29T08:38:29Z</time></trkpt><trkpt lat="44.83415054901051" lon="8.853753737506258"><ele>151.0</ele><time>2026-03-29T08:38:30.001Z</time></trkpt><trkpt lat="44.83396083031654" lon="8.853765138479615"><ele>151.0</ele><time>2026-03-29T08:38:31.001Z</time></trkpt><trkpt lat="44.83376605781409" lon="8.853776435100592"><ele>151.0</ele><time>2026-03-29T08:38:32.001Z</time></trkpt><trkpt lat="44.833577782566266" lon="8.85378496293901"><ele>151.0</ele><time>2026-03-29T08:38:33.001Z</time></trkpt><trkpt lat="44.833383018914425" lon="8.853796770459086"><ele>151.0</ele><time>2026-03-29T08:38:34.001Z</time></trkpt><trkpt lat="44.833188999237045" lon="8.85380759501022"><ele>151.0</ele><time>2026-03-29T08:38:35.001Z</time></trkpt><trkpt lat="44.83299700378467" lon="8.853820844561685"><ele>151.0</ele><time>2026-03-29T08:38:36.001Z</time></trkpt><trkpt lat="44.832816775502494" lon="8.853834569983617"><ele>151.33333333333334</ele><time>2026-03-29T08:38:37.001Z</time></trkpt><trkpt lat="44.832637242241326" lon="8.853846281083586"><ele>151.66666666666666</ele><time>2026-03-29T08:38:38.001Z</time></trkpt><trkpt lat="44.832468725357245" lon="8.853855484721556"><ele>152.0</ele><time>2026-03-29T08:38:39.001Z</time></trkpt><trkpt lat="44.832296032842535" lon="8.853867223003721"><ele>152.0</ele><time>2026-03-29T08:38:40.001Z</time></trkpt><trkpt lat="44.83212732682524" lon="8.85387517196954"><ele>152.0</ele><time>2026-03-29T08:38:41.001Z</time></trkpt><trkpt lat="44.831961489812194" lon="8.853885809275601"><ele>152.0</ele><time>2026-03-29T08:38:42.001Z</time></trkpt><trkpt lat="44.831792569598576" lon="8.853896362407223"><ele>151.66666666666666</ele><time>2026-03-29T08:38:43.001Z</time></trkpt><trkpt lat="44.831638168159984" lon="8.853907289772357"><ele>151.33333333333334</ele><time>2026-03-29T08:38:44.001Z</time></trkpt><trkpt lat="44.83148615090733" lon="8.8539170101228"><ele>151.0</ele><time>2026-03-29T08:38:45.001Z</time></trkpt><trkpt lat="44.83134077968097" lon="8.853925934313695"><ele>151.0</ele><time>2026-03-29T08:38:46.001Z</time></trkpt><trkpt lat="44.8311966978321" lon="8.853933823455158"><ele>151.0</ele><time>2026-03-29T08:38:47.001Z</time></trkpt><trkpt lat="44.83105667086737" lon="8.853943769527488"><ele>151.0</ele><time>2026-03-29T08:38:48.001Z</time></trkpt><trkpt lat="44.83092639973293" lon="8.853951450962782"><ele>151.0</ele><time>2026-03-29T08:38:49.001Z</time></trkpt><trkpt lat="44.830794227234264" lon="8.853960283584259"><ele>150.75</ele><time>2026-03-29T08:38:50.001Z</time></trkpt><trkpt lat="44.83065795232709" lon="8.853967415972184"><ele>150.5</ele><time>2026-03-29T08:38:51.001Z</time></trkpt><trkpt lat="44.83052510489785" lon="8.853974538994358"><ele>150.25</ele><time>2026-03-29T08:38:52.001Z</time></trkpt><trkpt lat="44.83038745188801" lon="8.853984179631505"><ele>150.0</ele><time>2026-03-29T08:38:53.001Z</time></trkpt><trkpt lat="44.83024636022988" lon="8.85399373253782"><ele>150.5</ele><time>2026-03-29T08:38:54Z</time></trkpt><trkpt lat="44.83011083298491" lon="8.854000899415897"><ele>151.0</ele><time>2026-03-29T08:38:55Z</time></trkpt><trkpt lat="44.829985576522404" lon="8.854012556408769"><ele>151.5</ele><time>2026-03-29T08:38:56Z</time></trkpt><trkpt lat="44.82987904178272" lon="8.854018230989395"><ele>152.0</ele><time>2026-03-29T08:38:57Z</time></trkpt><trkpt lat="44.829787018025534" lon="8.854029429376968"><ele>152.0</ele><time>2026-03-29T08:38:58Z</time></trkpt><trkpt lat="44.82969760279141" lon="8.854047411651193"><ele>152.0</ele><time>2026-03-29T08:38:59Z</time></trkpt><trkpt lat="44.82961342248208" lon="8.85405685029024"><ele>152.0</ele><time>2026-03-29T08:39:00Z</time></trkpt><trkpt lat="44.829520329662394" lon="8.85405721063182"><ele>152.0</ele><time>2026-03-29T08:39:01Z</time></trkpt><trkpt lat="44.82942562261009" lon="8.854061078791883"><ele>152.0</ele><time>2026-03-29T08:39:02Z</time></trkpt><trkpt lat="44.82933973052924" lon="8.854061455004453"><ele>152.0</ele><time>2026-03-29T08:39:03Z</time></trkpt><trkpt lat="44.82926727748907" lon="8.854068207399784"><ele>152.33333333333331</ele><time>2026-03-29T08:39:04Z</time></trkpt><trkpt lat="44.8291705377573" lon="8.854074333425523"><ele>152.66666666666666</ele><time>2026-03-29T08:39:06Z</time></trkpt><trkpt lat="44.8290781197793" lon="8.854087002531022"><ele>153.0</ele><time>2026-03-29T08:39:24Z</time></trkpt><trkpt lat="44.82900518366716" lon="8.854082362248926"><ele>153.33333333333334</ele><time>2026-03-29T08:39:25Z</time></trkpt><trkpt lat="44.82892298576568" lon="8.854090319106865"><ele>153.66666666666669</ele><time>2026-03-29T08:39:26Z</time></trkpt><trkpt lat="44.82883662672441" lon="8.854092389504672"><ele>154.0</ele><time>2026-03-29T08:39:27Z</time></trkpt><trkpt lat="44.828731148509426" lon="8.854094147170919"><ele>154.0</ele><time>2026-03-29T08:39:28Z</time></trkpt><trkpt lat="44.828617001999014" lon="8.854102278245612"><ele>154.0</ele><time>2026-03-29T08:39:29Z</time></trkpt><trkpt lat="44.82849646078097" lon="8.854108451217336"><ele>154.0</ele><time>2026-03-29T08:39:30Z</time></trkpt><trkpt lat="44.82837883825423" lon="8.854113154644002"><ele>154.0</ele><time>2026-03-29T08:39:31Z</time></trkpt><trkpt lat="44.828250999691896" lon="8.85411052517913"><ele>154.25</ele><time>2026-03-29T08:39:32Z</time></trkpt><trkpt lat="44.82811789266922" lon="8.854117286209746"><ele>154.5</ele><time>2026-03-29T08:39:33Z</time></trkpt><trkpt lat="44.827966611741395" lon="8.854124336981542"><ele>154.75</ele><time>2026-03-29T08:39:34Z</time></trkpt><trkpt lat="44.82780291137663" lon="8.854146257441922"><ele>155.0</ele><time>2026-03-29T08:39:35Z</time></trkpt><trkpt lat="44.82764393908942" lon="8.854154339510677"><ele>154.66666666666666</ele><time>2026-03-29T08:39:36Z</time></trkpt><trkpt lat="44.82749120763269" lon="8.854162431238619"><ele>154.33333333333334</ele><time>2026-03-29T08:39:37Z</time></trkpt><trkpt lat="44.82734227970411" lon="8.854168816750295"><ele>154.0</ele><time>2026-03-29T08:39:38Z</time></trkpt><trkpt lat="44.82718917226009" lon="8.854178224624711"><ele>154.0</ele><time>2026-03-29T08:39:39Z</time></trkpt><trkpt lat="44.82702759681532" lon="8.854188293770315"><ele>154.0</ele><time>2026-03-29T08:39:40Z</time></trkpt><trkpt lat="44.82685686304764" lon="8.85419853361482"><ele>154.0</ele><time>2026-03-29T08:39:41Z</time></trkpt><trkpt lat="44.826675570766184" lon="8.854209421266026"><ele>154.0</ele><time>2026-03-29T08:39:42Z</time></trkpt><trkpt lat="44.82648984901992" lon="8.854219845454468"><ele>154.0</ele><time>2026-03-29T08:39:43Z</time></trkpt><trkpt lat="44.826300206413876" lon="8.854228297569103"><ele>154.0</ele><time>2026-03-29T08:39:44Z</time></trkpt><trkpt lat="44.82612221971449" lon="8.854238451194814"><ele>154.33333333333334</ele><time>2026-03-29T08:39:45Z</time></trkpt><trkpt lat="44.825949070327084" lon="8.854248791528573"><ele>154.66666666666666</ele><time>2026-03-29T08:39:46Z</time></trkpt><trkpt lat="44.825771637808465" lon="8.854259203019721"><ele>155.0</ele><time>2026-03-29T08:39:47Z</time></trkpt><trkpt lat="44.82559039192434" lon="8.85427134777475"><ele>155.0</ele><time>2026-03-29T08:39:48Z</time></trkpt><trkpt lat="44.825407629093725" lon="8.854282089654479"><ele>155.0</ele><time>2026-03-29T08:39:49Z</time></trkpt><trkpt lat="44.825222176730726" lon="8.8542940655541"><ele>155.0</ele><time>2026-03-29T08:39:50Z</time></trkpt><trkpt lat="44.82503098235152" lon="8.854308000968247"><ele>155.33333333333331</ele><time>2026-03-29T08:39:51Z</time></trkpt><trkpt lat="44.82483567477726" lon="8.854320575841468"><ele>155.66666666666666</ele><time>2026-03-29T08:39:52Z</time></trkpt><trkpt lat="44.824639354382" lon="8.854334453335898"><ele>156.0</ele><time>2026-03-29T08:39:53Z</time></trkpt><trkpt lat="44.82444318264774" lon="8.854346256552446"><ele>156.33333333333334</ele><time>2026-03-29T08:39:54Z</time></trkpt><trkpt lat="44.82425073474525" lon="8.854358073712604"><ele>156.66666666666669</ele><time>2026-03-29T08:39:55Z</time></trkpt><trkpt lat="44.82406780170042" lon="8.85437033189437"><ele>157.0</ele><time>2026-03-29T08:39:56.001Z</time></trkpt><trkpt lat="44.82389992060022" lon="8.854381616436196"><ele>157.0</ele><time>2026-03-29T08:39:57.001Z</time></trkpt><trkpt lat="44.8237339785275" lon="8.854397207828823"><ele>157.0</ele><time>2026-03-29T08:39:58.001Z</time></trkpt><trkpt lat="44.82356540879162" lon="8.854406557835304"><ele>157.0</ele><time>2026-03-29T08:39:59.001Z</time></trkpt><trkpt lat="44.82339517559199" lon="8.854416041284281"><ele>156.66666666666669</ele><time>2026-03-29T08:40:00.001Z</time></trkpt><trkpt lat="44.82322318021203" lon="8.854429512465824"><ele>156.33333333333334</ele><time>2026-03-29T08:40:01.001Z</time></trkpt><trkpt lat="44.823052130373036" lon="8.854441639857885"><ele>156.0</ele><time>2026-03-29T08:40:02.001Z</time></trkpt><trkpt lat="44.82287635410902" lon="8.854450623260501"><ele>156.0</ele><time>2026-03-29T08:40:03.001Z</time></trkpt><trkpt lat="44.822699560943306" lon="8.85445854042893"><ele>156.0</ele><time>2026-03-29T08:40:04.001Z</time></trkpt><trkpt lat="44.822526265706486" lon="8.854468691494837"><ele>156.0</ele><time>2026-03-29T08:40:05.001Z</time></trkpt><trkpt lat="44.82235023240679" lon="8.85447952817786"><ele>156.33333333333334</ele><time>2026-03-29T08:40:06.001Z</time></trkpt><trkpt lat="44.822178727049184" lon="8.854492645125289"><ele>156.66666666666669</ele><time>2026-03-29T08:40:07.001Z</time></trkpt><trkpt lat="44.82200306925114" lon="8.854504147234097"><ele>157.0</ele><time>2026-03-29T08:40:08.001Z</time></trkpt><trkpt lat="44.82182135471901" lon="8.85451833374814"><ele>156.66666666666669</ele><time>2026-03-29T08:40:09.001Z</time></trkpt><trkpt lat="44.82164164894613" lon="8.854532905793915"><ele>156.33333333333334</ele><time>2026-03-29T08:40:10.001Z</time></trkpt><trkpt lat="44.82146158303382" lon="8.854543492318513"><ele>156.0</ele><time>2026-03-29T08:40:11.001Z</time></trkpt><trkpt lat="44.82128739027397" lon="8.854552160771712"><ele>156.0</ele><time>2026-03-29T08:40:12.001Z</time></trkpt><trkpt lat="44.82112173708766" lon="8.854563878696446"><ele>156.0</ele><time>2026-03-29T08:40:13.001Z</time></trkpt><trkpt lat="44.82095855195295" lon="8.854572071170862"><ele>156.0</ele><time>2026-03-29T08:40:14.001Z</time></trkpt><trkpt lat="44.82080184599567" lon="8.85458293392278"><ele>156.25</ele><time>2026-03-29T08:40:15.001Z</time></trkpt><trkpt lat="44.82065350040749" lon="8.854591044568357"><ele>156.5</ele><time>2026-03-29T08:40:16.001Z</time></trkpt><trkpt lat="44.82051468093243" lon="8.854602562399926"><ele>156.75</ele><time>2026-03-29T08:40:17.001Z</time></trkpt><trkpt lat="44.82038610138012" lon="8.854610625750665"><ele>157.0</ele><time>2026-03-29T08:40:18.001Z</time></trkpt><trkpt lat="44.82027342342152" lon="8.854611869643584"><ele>157.0</ele><time>2026-03-29T08:40:19.001Z</time></trkpt><trkpt lat="44.820174529710066" lon="8.85459542930831"><ele>157.0</ele><time>2026-03-29T08:40:20.001Z</time></trkpt><trkpt lat="44.820087004259236" lon="8.85455838429913"><ele>157.0</ele><time>2026-03-29T08:40:21.001Z</time></trkpt><trkpt lat="44.819999579888574" lon="8.854529909608377"><ele>157.0</ele><time>2026-03-29T08:40:22.001Z</time></trkpt><trkpt lat="44.819918678130755" lon="8.854537451355906"><ele>157.0</ele><time>2026-03-29T08:40:23.001Z</time></trkpt><trkpt lat="44.819843202911144" lon="8.854582717083993"><ele>157.0</ele><time>2026-03-29T08:40:24.001Z</time></trkpt><trkpt lat="44.81975588150589" lon="8.854634615532007"><ele>157.5</ele><time>2026-03-29T08:40:25.001Z</time></trkpt><trkpt lat="44.819647752053164" lon="8.854655640597148"><ele>158.0</ele><time>2026-03-29T08:40:26.001Z</time></trkpt><trkpt lat="44.8195302432487" lon="8.854660451152549"><ele>158.5</ele><time>2026-03-29T08:40:27.001Z</time></trkpt><trkpt lat="44.8194069745779" lon="8.854668849103621"><ele>159.0</ele><time>2026-03-29T08:40:28.001Z</time></trkpt><trkpt lat="44.81928204111621" lon="8.854680679401765"><ele>159.0</ele><time>2026-03-29T08:40:29.001Z</time></trkpt><trkpt lat="44.81915130248236" lon="8.854686736036566"><ele>159.0</ele><time>2026-03-29T08:40:30.001Z</time></trkpt><trkpt lat="44.81902385216204" lon="8.85468576045571"><ele>159.0</ele><time>2026-03-29T08:40:31.001Z</time></trkpt><trkpt lat="44.81888979646145" lon="8.85469234297033"><ele>159.0</ele><time>2026-03-29T08:40:32.001Z</time></trkpt><trkpt lat="44.81875739083544" lon="8.854702247761356"><ele>159.0</ele><time>2026-03-29T08:40:33.001Z</time></trkpt><trkpt lat="44.81863127719904" lon="8.854709264571358"><ele>159.0</ele><time>2026-03-29T08:40:34.001Z</time></trkpt><trkpt lat="44.81851756007965" lon="8.854714933110067"><ele>159.0</ele><time>2026-03-29T08:40:35.001Z</time></trkpt><trkpt lat="44.81840967985015" lon="8.854716142146026"><ele>159.0</ele><time>2026-03-29T08:40:36.001Z</time></trkpt><trkpt lat="44.81831276406491" lon="8.854722462928757"><ele>159.0</ele><time>2026-03-29T08:40:37.001Z</time></trkpt><trkpt lat="44.818225502372975" lon="8.854731143581517"><ele>159.16666666666666</ele><time>2026-03-29T08:40:38.001Z</time></trkpt><trkpt lat="44.818141480231155" lon="8.8547356116749"><ele>159.33333333333334</ele><time>2026-03-29T08:40:39.001Z</time></trkpt><trkpt lat="44.818066179163644" lon="8.854743326274898"><ele>159.5</ele><time>2026-03-29T08:40:40.001Z</time></trkpt><trkpt lat="44.81800062055049" lon="8.854748708016528"><ele>159.66666666666669</ele><time>2026-03-29T08:40:41.001Z</time></trkpt><trkpt lat="44.81793499748581" lon="8.854752165732986"><ele>159.83333333333334</ele><time>2026-03-29T08:40:42.001Z</time></trkpt><trkpt lat="44.81781129301487" lon="8.854763925257428"><ele>160.0</ele><time>2026-03-29T08:40:44.001Z</time></trkpt><trkpt lat="44.81769358834422" lon="8.85476968761705"><ele>160.4</ele><time>2026-03-29T08:40:46.001Z</time></trkpt><trkpt lat="44.817618900033686" lon="8.854775727645286"><ele>160.8</ele><time>2026-03-29T08:40:47.001Z</time></trkpt><trkpt lat="44.81752653153048" lon="8.854780332695698"><ele>161.2</ele><time>2026-03-29T08:40:48.001Z</time></trkpt><trkpt lat="44.81742207205521" lon="8.854785653885507"><ele>161.6</ele><time>2026-03-29T08:40:49.001Z</time></trkpt><trkpt lat="44.817314106898344" lon="8.854795922918932"><ele>162.0</ele><time>2026-03-29T08:40:50.001Z</time></trkpt><trkpt lat="44.81720270055341" lon="8.85480234356066"><ele>162.0</ele><time>2026-03-29T08:40:51.001Z</time></trkpt><trkpt lat="44.81709859182385" lon="8.854802642121784"><ele>162.0</ele><time>2026-03-29T08:40:52.001Z</time></trkpt><trkpt lat="44.81698805645415" lon="8.8548099653406"><ele>162.0</ele><time>2026-03-29T08:40:53.001Z</time></trkpt><trkpt lat="44.8168670295381" lon="8.854825066575627"><ele>162.0</ele><time>2026-03-29T08:40:54.001Z</time></trkpt><trkpt lat="44.81673894897129" lon="8.854835966593038"><ele>161.75</ele><time>2026-03-29T08:40:55.001Z</time></trkpt><trkpt lat="44.81660973653964" lon="8.85484856537933"><ele>161.5</ele><time>2026-03-29T08:40:56.001Z</time></trkpt><trkpt lat="44.81646560769112" lon="8.854858923882125"><ele>161.25</ele><time>2026-03-29T08:40:57.001Z</time></trkpt><trkpt lat="44.81632917923999" lon="8.854855210826555"><ele>161.0</ele><time>2026-03-29T08:40:58.001Z</time></trkpt><trkpt lat="44.81618468463532" lon="8.85486970766665"><ele>161.0</ele><time>2026-03-29T08:40:59.001Z</time></trkpt><trkpt lat="44.81604090327016" lon="8.854885069297097"><ele>161.0</ele><time>2026-03-29T08:41:00.001Z</time></trkpt><trkpt lat="44.81590838851391" lon="8.854900916689626"><ele>161.0</ele><time>2026-03-29T08:41:01.001Z</time></trkpt><trkpt lat="44.81578334693895" lon="8.854910809986867"><ele>161.0</ele><time>2026-03-29T08:41:02.001Z</time></trkpt><trkpt lat="44.815661157591975" lon="8.854911693548143"><ele>161.0</ele><time>2026-03-29T08:41:03.001Z</time></trkpt><trkpt lat="44.815546578660715" lon="8.854917926644596"><ele>161.0</ele><time>2026-03-29T08:41:04.001Z</time></trkpt><trkpt lat="44.81542912982158" lon="8.854925736762283"><ele>161.0</ele><time>2026-03-29T08:41:05.001Z</time></trkpt><trkpt lat="44.81531113369749" lon="8.854929785930938"><ele>161.0</ele><time>2026-03-29T08:41:06.001Z</time></trkpt><trkpt lat="44.8151925926777" lon="8.85493912966492"><ele>161.0</ele><time>2026-03-29T08:41:07.001Z</time></trkpt><trkpt lat="44.81507650007531" lon="8.854947891114138"><ele>161.0</ele><time>2026-03-29T08:41:08.001Z</time></trkpt><trkpt lat="44.814960576650215" lon="8.854954703455372"><ele>161.0</ele><time>2026-03-29T08:41:09.001Z</time></trkpt><trkpt lat="44.81484596457098" lon="8.854961565635994"><ele>161.0</ele><time>2026-03-29T08:41:10.001Z</time></trkpt><trkpt lat="44.81472734563604" lon="8.85496852909248"><ele>161.0</ele><time>2026-03-29T08:41:11.001Z</time></trkpt><trkpt lat="44.814592251876206" lon="8.854977538471294"><ele>161.0</ele><time>2026-03-29T08:41:12.001Z</time></trkpt><trkpt lat="44.81444563084875" lon="8.854987465923559"><ele>161.0</ele><time>2026-03-29T08:41:13.001Z</time></trkpt><trkpt lat="44.814297261181444" lon="8.85499393431052"><ele>161.0</ele><time>2026-03-29T08:41:14.001Z</time></trkpt><trkpt lat="44.81414260279917" lon="8.854999584109633"><ele>162.33333333333331</ele><time>2026-03-29T08:41:15.001Z</time></trkpt><trkpt lat="44.81398252444753" lon="8.855007750724038"><ele>163.66666666666666</ele><time>2026-03-29T08:41:16.001Z</time></trkpt><trkpt lat="44.813826563134256" lon="8.855018798720598"><ele>165.0</ele><time>2026-03-29T08:41:17.001Z</time></trkpt><trkpt lat="44.81366564478859" lon="8.855034167541211"><ele>165.0</ele><time>2026-03-29T08:41:18.001Z</time></trkpt><trkpt lat="44.813510284016104" lon="8.855049470041411"><ele>165.0</ele><time>2026-03-29T08:41:19.001Z</time></trkpt><trkpt lat="44.81336555344617" lon="8.855087591682873"><ele>165.0</ele><time>2026-03-29T08:41:20.001Z</time></trkpt><trkpt lat="44.81322195011929" lon="8.85511648149968"><ele>165.0</ele><time>2026-03-29T08:41:21.001Z</time></trkpt><trkpt lat="44.81307539183006" lon="8.855177266830552"><ele>165.25</ele><time>2026-03-29T08:41:22.001Z</time></trkpt><trkpt lat="44.81292701737771" lon="8.855239883637724"><ele>165.5</ele><time>2026-03-29T08:41:23.001Z</time></trkpt><trkpt lat="44.81278523892528" lon="8.855311328151252"><ele>165.75</ele><time>2026-03-29T08:41:24.001Z</time></trkpt><trkpt lat="44.81265404047951" lon="8.855380468769164"><ele>166.0</ele><time>2026-03-29T08:41:25.001Z</time></trkpt><trkpt lat="44.8125288220015" lon="8.855449332129266"><ele>166.0</ele><time>2026-03-29T08:41:26.001Z</time></trkpt><trkpt lat="44.81240300518726" lon="8.855518359764485"><ele>166.0</ele><time>2026-03-29T08:41:27.001Z</time></trkpt><trkpt lat="44.81227382280072" lon="8.855590253536608"><ele>166.0</ele><time>2026-03-29T08:41:28.001Z</time></trkpt><trkpt lat="44.81214071718046" lon="8.855661104344673"><ele>166.0</ele><time>2026-03-29T08:41:29.001Z</time></trkpt><trkpt lat="44.81201598882822" lon="8.855732937537777"><ele>166.0</ele><time>2026-03-29T08:41:30.001Z</time></trkpt><trkpt lat="44.81189314823492" lon="8.85580124453656"><ele>166.0</ele><time>2026-03-29T08:41:31.001Z</time></trkpt><trkpt lat="44.81177196690183" lon="8.855864600443324"><ele>166.0</ele><time>2026-03-29T08:41:32.001Z</time></trkpt><trkpt lat="44.81164722754199" lon="8.855928173232973"><ele>166.0</ele><time>2026-03-29T08:41:33.001Z</time></trkpt><trkpt lat="44.81151838407134" lon="8.855999130878791"><ele>165.75</ele><time>2026-03-29T08:41:34.001Z</time></trkpt><trkpt lat="44.811388879166415" lon="8.856070290568073"><ele>165.5</ele><time>2026-03-29T08:41:35.001Z</time></trkpt><trkpt lat="44.811256006792114" lon="8.856140503480214"><ele>165.25</ele><time>2026-03-29T08:41:36.001Z</time></trkpt><trkpt lat="44.81111865005018" lon="8.856215207216042"><ele>165.0</ele><time>2026-03-29T08:41:37.001Z</time></trkpt><trkpt lat="44.81097369784701" lon="8.856290377851641"><ele>165.0</ele><time>2026-03-29T08:41:38.001Z</time></trkpt><trkpt lat="44.81081627938187" lon="8.85637627048865"><ele>165.0</ele><time>2026-03-29T08:41:39Z</time></trkpt><trkpt lat="44.810654319092095" lon="8.856463195259167"><ele>165.0</ele><time>2026-03-29T08:41:40Z</time></trkpt><trkpt lat="44.81048797931459" lon="8.856556784932566"><ele>165.0</ele><time>2026-03-29T08:41:41Z</time></trkpt><trkpt lat="44.8103156471859" lon="8.856646924847642"><ele>165.0</ele><time>2026-03-29T08:41:42Z</time></trkpt><trkpt lat="44.81014027845587" lon="8.856736757705274"><ele>165.0</ele><time>2026-03-29T08:41:43Z</time></trkpt><trkpt lat="44.80998015962543" lon="8.856825440566228"><ele>166.66666666666666</ele><time>2026-03-29T08:41:44Z</time></trkpt><trkpt lat="44.80981185737715" lon="8.85691348630675"><ele>168.33333333333331</ele><time>2026-03-29T08:41:45Z</time></trkpt><trkpt lat="44.809643865347944" lon="8.85700205776749"><ele>170.0</ele><time>2026-03-29T08:41:46Z</time></trkpt><trkpt lat="44.809462241840606" lon="8.857101620827947"><ele>169.0</ele><time>2026-03-29T08:41:47Z</time></trkpt><trkpt lat="44.809276707495656" lon="8.857201794028967"><ele>168.0</ele><time>2026-03-29T08:41:48Z</time></trkpt><trkpt lat="44.80908745009723" lon="8.857305111529485"><ele>167.0</ele><time>2026-03-29T08:41:49Z</time></trkpt><trkpt lat="44.80889234634729" lon="8.857409075938692"><ele>167.0</ele><time>2026-03-29T08:41:50Z</time></trkpt><trkpt lat="44.80868887057559" lon="8.857518832955813"><ele>167.0</ele><time>2026-03-29T08:41:51Z</time></trkpt><trkpt lat="44.808479358304204" lon="8.85763161393574"><ele>167.0</ele><time>2026-03-29T08:41:52Z</time></trkpt><trkpt lat="44.808268472008244" lon="8.857745999751433"><ele>167.5</ele><time>2026-03-29T08:41:53Z</time></trkpt><trkpt lat="44.80805676342551" lon="8.857858597171996"><ele>168.0</ele><time>2026-03-29T08:41:54Z</time></trkpt><trkpt lat="44.807840670166506" lon="8.857971519755186"><ele>167.5</ele><time>2026-03-29T08:41:55Z</time></trkpt><trkpt lat="44.80762275491915" lon="8.858084808220951"><ele>167.0</ele><time>2026-03-29T08:41:56Z</time></trkpt><trkpt lat="44.807402732088754" lon="8.858199369995393"><ele>167.0</ele><time>2026-03-29T08:41:57Z</time></trkpt><trkpt lat="44.80718067505228" lon="8.858317422443012"><ele>167.0</ele><time>2026-03-29T08:41:58Z</time></trkpt><trkpt lat="44.806962147170516" lon="8.858436670967995"><ele>167.0</ele><time>2026-03-29T08:41:59Z</time></trkpt><trkpt lat="44.80674140172802" lon="8.858559918660358"><ele>167.0</ele><time>2026-03-29T08:42:00Z</time></trkpt><trkpt lat="44.806519468320175" lon="8.85867915766525"><ele>167.0</ele><time>2026-03-29T08:42:01Z</time></trkpt><trkpt lat="44.80629831348278" lon="8.858797895218542"><ele>167.0</ele><time>2026-03-29T08:42:02Z</time></trkpt><trkpt lat="44.80607671387115" lon="8.858918782321819"><ele>167.0</ele><time>2026-03-29T08:42:03Z</time></trkpt><trkpt lat="44.80585606476488" lon="8.859035592748414"><ele>167.0</ele><time>2026-03-29T08:42:04Z</time></trkpt><trkpt lat="44.80563377679769" lon="8.859157521969708"><ele>167.0</ele><time>2026-03-29T08:42:05Z</time></trkpt><trkpt lat="44.80540901909513" lon="8.859280682587668"><ele>167.0</ele><time>2026-03-29T08:42:06Z</time></trkpt><trkpt lat="44.80518491767142" lon="8.859396833455607"><ele>167.5</ele><time>2026-03-29T08:42:07Z</time></trkpt><trkpt lat="44.804958391509246" lon="8.85952562843863"><ele>168.0</ele><time>2026-03-29T08:42:08Z</time></trkpt><trkpt lat="44.804731203837214" lon="8.859647324474144"><ele>168.0</ele><time>2026-03-29T08:42:09Z</time></trkpt><trkpt lat="44.80450267423745" lon="8.859771073373073"><ele>168.0</ele><time>2026-03-29T08:42:10Z</time></trkpt><trkpt lat="44.80427711799833" lon="8.859898265856817"><ele>168.5</ele><time>2026-03-29T08:42:11Z</time></trkpt><trkpt lat="44.80405045060487" lon="8.860016306178776"><ele>169.0</ele><time>2026-03-29T08:42:12Z</time></trkpt><trkpt lat="44.80382694063965" lon="8.860141151646065"><ele>169.0</ele><time>2026-03-29T08:42:13.001Z</time></trkpt><trkpt lat="44.80360094285243" lon="8.86026382917646"><ele>169.0</ele><time>2026-03-29T08:42:14.001Z</time></trkpt><trkpt lat="44.803375588971775" lon="8.860383384939281"><ele>169.0</ele><time>2026-03-29T08:42:15.001Z</time></trkpt><trkpt lat="44.803151299858364" lon="8.86049953403249"><ele>169.0</ele><time>2026-03-29T08:42:16.001Z</time></trkpt><trkpt lat="44.802928844945775" lon="8.860615160831133"><ele>169.0</ele><time>2026-03-29T08:42:17.001Z</time></trkpt><trkpt lat="44.80270950730719" lon="8.86073528864924"><ele>169.0</ele><time>2026-03-29T08:42:18.001Z</time></trkpt><trkpt lat="44.80248768654767" lon="8.860854507738898"><ele>169.0</ele><time>2026-03-29T08:42:19.001Z</time></trkpt><trkpt lat="44.80226459137545" lon="8.860984338563567"><ele>169.0</ele><time>2026-03-29T08:42:20.001Z</time></trkpt><trkpt lat="44.80203785940385" lon="8.86109892105945"><ele>168.5</ele><time>2026-03-29T08:42:21.001Z</time></trkpt><trkpt lat="44.801809421070764" lon="8.861220596386145"><ele>168.0</ele><time>2026-03-29T08:42:22.001Z</time></trkpt><trkpt lat="44.8015816772337" lon="8.861344750927499"><ele>168.0</ele><time>2026-03-29T08:42:23.001Z</time></trkpt><trkpt lat="44.801353353848945" lon="8.8614655479125"><ele>168.0</ele><time>2026-03-29T08:42:24.001Z</time></trkpt><trkpt lat="44.80112604476723" lon="8.861585497229285"><ele>168.0</ele><time>2026-03-29T08:42:25.001Z</time></trkpt><trkpt lat="44.80089743015035" lon="8.861707794537871"><ele>168.0</ele><time>2026-03-29T08:42:26.001Z</time></trkpt><trkpt lat="44.800667952751674" lon="8.861827505587136"><ele>170.0</ele><time>2026-03-29T08:42:27.001Z</time></trkpt><trkpt lat="44.800440002695495" lon="8.861943975128206"><ele>172.0</ele><time>2026-03-29T08:42:28.001Z</time></trkpt><trkpt lat="44.800211978770136" lon="8.862065800595566"><ele>170.5</ele><time>2026-03-29T08:42:29.001Z</time></trkpt><trkpt lat="44.799983296970666" lon="8.862186722736457"><ele>169.0</ele><time>2026-03-29T08:42:30.001Z</time></trkpt><trkpt lat="44.79975362907846" lon="8.862306141845025"><ele>169.0</ele><time>2026-03-29T08:42:31.001Z</time></trkpt><trkpt lat="44.79952603277614" lon="8.862427105700979"><ele>169.0</ele><time>2026-03-29T08:42:32.001Z</time></trkpt><trkpt lat="44.79929933757381" lon="8.862551712596591"><ele>172.0</ele><time>2026-03-29T08:42:33.001Z</time></trkpt><trkpt lat="44.799070810711335" lon="8.862673210718077"><ele>175.0</ele><time>2026-03-29T08:42:34.001Z</time></trkpt><trkpt lat="44.798844881013835" lon="8.862790646231105"><ele>175.0</ele><time>2026-03-29T08:42:35.001Z</time></trkpt><trkpt lat="44.79861856186853" lon="8.86291751715615"><ele>175.0</ele><time>2026-03-29T08:42:36.001Z</time></trkpt><trkpt lat="44.79839300274384" lon="8.863035336882827"><ele>174.0</ele><time>2026-03-29T08:42:37.001Z</time></trkpt><trkpt lat="44.79816769731002" lon="8.863153158377301"><ele>173.0</ele><time>2026-03-29T08:42:38.001Z</time></trkpt><trkpt lat="44.79794310661242" lon="8.863271006422313"><ele>173.0</ele><time>2026-03-29T08:42:39.001Z</time></trkpt><trkpt lat="44.797720799100006" lon="8.863393918554506"><ele>173.0</ele><time>2026-03-29T08:42:40.001Z</time></trkpt><trkpt lat="44.79750097662105" lon="8.863509966603294"><ele>178.0</ele><time>2026-03-29T08:42:41.001Z</time></trkpt><trkpt lat="44.797282225479314" lon="8.86361733198488"><ele>183.0</ele><time>2026-03-29T08:42:42.001Z</time></trkpt><trkpt lat="44.79706481305514" lon="8.86374775873147"><ele>183.0</ele><time>2026-03-29T08:42:43.001Z</time></trkpt><trkpt lat="44.79684727282903" lon="8.863867789121047"><ele>183.0</ele><time>2026-03-29T08:42:44.001Z</time></trkpt><trkpt lat="44.79663258168569" lon="8.86397758264238"><ele>181.5</ele><time>2026-03-29T08:42:45.001Z</time></trkpt><trkpt lat="44.79641860551146" lon="8.864088250147017"><ele>180.0</ele><time>2026-03-29T08:42:46.001Z</time></trkpt><trkpt lat="44.79620643830375" lon="8.86419674915496"><ele>185.0</ele><time>2026-03-29T08:42:47.001Z</time></trkpt><trkpt lat="44.79600157778799" lon="8.86431083635835"><ele>190.0</ele><time>2026-03-29T08:42:48.001Z</time></trkpt><trkpt lat="44.79581403556543" lon="8.864410314154684"><ele>195.0</ele><time>2026-03-29T08:42:49.001Z</time></trkpt><trkpt lat="44.795633072538294" lon="8.864503566985887"><ele>195.0</ele><time>2026-03-29T08:42:50.001Z</time></trkpt><trkpt lat="44.79544890150247" lon="8.864577228035188"><ele>195.0</ele><time>2026-03-29T08:42:51.001Z</time></trkpt><trkpt lat="44.795260201300174" lon="8.864633822022263"><ele>195.0</ele><time>2026-03-29T08:42:52.001Z</time></trkpt><trkpt lat="44.79507051744546" lon="8.864674039651204"><ele>192.0</ele><time>2026-03-29T08:42:53.001Z</time></trkpt><trkpt lat="44.794876837260055" lon="8.864700911438355"><ele>189.0</ele><time>2026-03-29T08:42:54.001Z</time></trkpt><trkpt lat="44.794683952849915" lon="8.864711673886532"><ele>186.0</ele><time>2026-03-29T08:42:55.001Z</time></trkpt><trkpt lat="44.7944833023258" lon="8.864721518758332"><ele>185.0</ele><time>2026-03-29T08:42:56.001Z</time></trkpt><trkpt lat="44.794276023690365" lon="8.864733511279884"><ele>184.0</ele><time>2026-03-29T08:42:57.001Z</time></trkpt><trkpt lat="44.794074828057845" lon="8.864738945692734"><ele>183.0</ele><time>2026-03-29T08:42:58.001Z</time></trkpt><trkpt lat="44.79386869486692" lon="8.864745287966025"><ele>183.0</ele><time>2026-03-29T08:42:59.001Z</time></trkpt><trkpt lat="44.7936651930774" lon="8.864752950698463"><ele>183.0</ele><time>2026-03-29T08:43:00.001Z</time></trkpt><trkpt lat="44.7934676848945" lon="8.864764000286428"><ele>183.0</ele><time>2026-03-29T08:43:01.001Z</time></trkpt><trkpt lat="44.79326822478812" lon="8.864774748890762"><ele>182.66666666666666</ele><time>2026-03-29T08:43:02.001Z</time></trkpt><trkpt lat="44.79306943857658" lon="8.864783257853373"><ele>182.33333333333331</ele><time>2026-03-29T08:43:03.001Z</time></trkpt><trkpt lat="44.792880878151315" lon="8.864788066292252"><ele>182.0</ele><time>2026-03-29T08:43:04.001Z</time></trkpt><trkpt lat="44.7926818365642" lon="8.864791475848879"><ele>181.33333333333331</ele><time>2026-03-29T08:43:05.001Z</time></trkpt><trkpt lat="44.792485330192456" lon="8.86479976581306"><ele>180.66666666666666</ele><time>2026-03-29T08:43:06.001Z</time></trkpt><trkpt lat="44.792290495791974" lon="8.864810217267008"><ele>180.0</ele><time>2026-03-29T08:43:07.001Z</time></trkpt><trkpt lat="44.79209498016187" lon="8.864822656808958"><ele>180.0</ele><time>2026-03-29T08:43:08.001Z</time></trkpt><trkpt lat="44.79189960004659" lon="8.864833704069458"><ele>180.0</ele><time>2026-03-29T08:43:09.001Z</time></trkpt><trkpt lat="44.79170837833097" lon="8.864839294398047"><ele>180.0</ele><time>2026-03-29T08:43:10.001Z</time></trkpt><trkpt lat="44.79151403328425" lon="8.864845614615628"><ele>180.33333333333334</ele><time>2026-03-29T08:43:11.001Z</time></trkpt><trkpt lat="44.791320915471616" lon="8.864858184095874"><ele>180.66666666666669</ele><time>2026-03-29T08:43:12.001Z</time></trkpt><trkpt lat="44.791121144925654" lon="8.864862779655608"><ele>181.0</ele><time>2026-03-29T08:43:13.001Z</time></trkpt><trkpt lat="44.79092257007296" lon="8.86487129539208"><ele>181.33333333333334</ele><time>2026-03-29T08:43:14.001Z</time></trkpt><trkpt lat="44.79071185595857" lon="8.864874956028538"><ele>181.66666666666666</ele><time>2026-03-29T08:43:15.001Z</time></trkpt><trkpt lat="44.79050176293192" lon="8.86488600197965"><ele>182.0</ele><time>2026-03-29T08:43:16.001Z</time></trkpt><trkpt lat="44.790292947312295" lon="8.864888414518056"><ele>181.0</ele><time>2026-03-29T08:43:17.001Z</time></trkpt><trkpt lat="44.790082973138766" lon="8.86490377754147"><ele>180.0</ele><time>2026-03-29T08:43:18.001Z</time></trkpt><trkpt lat="44.78987164359515" lon="8.864918539253566"><ele>179.0</ele><time>2026-03-29T08:43:19.001Z</time></trkpt><trkpt lat="44.78966354866276" lon="8.864927139852053"><ele>179.0</ele><time>2026-03-29T08:43:20.001Z</time></trkpt><trkpt lat="44.78945385804046" lon="8.864927892483708"><ele>179.0</ele><time>2026-03-29T08:43:21.001Z</time></trkpt><trkpt lat="44.789243335804066" lon="8.86493923870695"><ele>179.0</ele><time>2026-03-29T08:43:22.001Z</time></trkpt><trkpt lat="44.78903413153087" lon="8.864952176691803"><ele>179.0</ele><time>2026-03-29T08:43:23.001Z</time></trkpt><trkpt lat="44.78882374476797" lon="8.864963817899683"><ele>179.0</ele><time>2026-03-29T08:43:24.001Z</time></trkpt><trkpt lat="44.788610850201025" lon="8.86497516512801"><ele>179.0</ele><time>2026-03-29T08:43:25.001Z</time></trkpt><trkpt lat="44.7883986697728" lon="8.864982852413137"><ele>179.0</ele><time>2026-03-29T08:43:26.001Z</time></trkpt><trkpt lat="44.7881863346416" lon="8.864991367835486"><ele>179.0</ele><time>2026-03-29T08:43:27.001Z</time></trkpt><trkpt lat="44.7879743961835" lon="8.864997892108939"><ele>179.0</ele><time>2026-03-29T08:43:28.001Z</time></trkpt><trkpt lat="44.78776129847404" lon="8.865009249653754"><ele>178.33333333333331</ele><time>2026-03-29T08:43:29.001Z</time></trkpt><trkpt lat="44.7875501486463" lon="8.865019028964056"><ele>177.66666666666666</ele><time>2026-03-29T08:43:30Z</time></trkpt><trkpt lat="44.78733568339523" lon="8.865030468034455"><ele>177.0</ele><time>2026-03-29T08:43:31Z</time></trkpt><trkpt lat="44.78711074808631" lon="8.865041251386103"><ele>177.0</ele><time>2026-03-29T08:43:32Z</time></trkpt><trkpt lat="44.78687546601387" lon="8.865049890653742"><ele>177.0</ele><time>2026-03-29T08:43:33Z</time></trkpt><trkpt lat="44.78664238327026" lon="8.86505996112763"><ele>177.0</ele><time>2026-03-29T08:43:34Z</time></trkpt><trkpt lat="44.78640616110565" lon="8.865069395802857"><ele>177.0</ele><time>2026-03-29T08:43:35Z</time></trkpt><trkpt lat="44.78616399475467" lon="8.865084465941884"><ele>178.5</ele><time>2026-03-29T08:43:36Z</time></trkpt><trkpt lat="44.785925725746736" lon="8.865096527501597"><ele>180.0</ele><time>2026-03-29T08:43:37Z</time></trkpt><trkpt lat="44.78568271234512" lon="8.865108389989222"><ele>183.0</ele><time>2026-03-29T08:43:38Z</time></trkpt><trkpt lat="44.785437262222366" lon="8.865118191265719"><ele>186.0</ele><time>2026-03-29T08:43:39Z</time></trkpt><trkpt lat="44.78518982797637" lon="8.865126989415257"><ele>186.0</ele><time>2026-03-29T08:43:40Z</time></trkpt><trkpt lat="44.78494384991507" lon="8.865137937966585"><ele>186.0</ele><time>2026-03-29T08:43:41Z</time></trkpt><trkpt lat="44.78469401286252" lon="8.865150284262821"><ele>186.0</ele><time>2026-03-29T08:43:42Z</time></trkpt><trkpt lat="44.78444387794065" lon="8.865161527835502"><ele>186.0</ele><time>2026-03-29T08:43:43Z</time></trkpt><trkpt lat="44.78419299237693" lon="8.865172336617025"><ele>185.0</ele><time>2026-03-29T08:43:44Z</time></trkpt><trkpt lat="44.78394508711412" lon="8.865182517314363"><ele>184.0</ele><time>2026-03-29T08:43:45Z</time></trkpt><trkpt lat="44.78369903451171" lon="8.865194116101462"><ele>183.5</ele><time>2026-03-29T08:43:46Z</time></trkpt><trkpt lat="44.783451940940374" lon="8.865205165370309"><ele>183.0</ele><time>2026-03-29T08:43:47Z</time></trkpt><trkpt lat="44.78320651618471" lon="8.865218119221474"><ele>183.0</ele><time>2026-03-29T08:43:48Z</time></trkpt><trkpt lat="44.78296350241292" lon="8.865232401561348"><ele>183.0</ele><time>2026-03-29T08:43:49Z</time></trkpt><trkpt lat="44.78272048206356" lon="8.865243201433445"><ele>184.5</ele><time>2026-03-29T08:43:50Z</time></trkpt><trkpt lat="44.7824777164255" lon="8.865253698547665"><ele>186.0</ele><time>2026-03-29T08:43:51Z</time></trkpt><trkpt lat="44.782234371434356" lon="8.865263376624043"><ele>186.0</ele><time>2026-03-29T08:43:52Z</time></trkpt><trkpt lat="44.78199717679477" lon="8.865272227375106"><ele>186.0</ele><time>2026-03-29T08:43:53Z</time></trkpt><trkpt lat="44.78175934998838" lon="8.865283822182697"><ele>187.0</ele><time>2026-03-29T08:43:54Z</time></trkpt><trkpt lat="44.78152211570851" lon="8.865297741495345"><ele>188.0</ele><time>2026-03-29T08:43:55Z</time></trkpt><trkpt lat="44.781286683012894" lon="8.865311395187769"><ele>188.0</ele><time>2026-03-29T08:43:56Z</time></trkpt><trkpt lat="44.78105308224059" lon="8.865324071838046"><ele>188.0</ele><time>2026-03-29T08:43:57Z</time></trkpt><trkpt lat="44.78081675863761" lon="8.865336572298707"><ele>188.5</ele><time>2026-03-29T08:43:58Z</time></trkpt><trkpt lat="44.78058151529207" lon="8.86534766704648"><ele>189.0</ele><time>2026-03-29T08:43:59Z</time></trkpt><trkpt lat="44.780347699124015" lon="8.865353721435353"><ele>188.5</ele><time>2026-03-29T08:44:00Z</time></trkpt><trkpt lat="44.780114647758154" lon="8.865365618006566"><ele>188.0</ele><time>2026-03-29T08:44:01Z</time></trkpt><trkpt lat="44.77987896345615" lon="8.865376069194706"><ele>188.0</ele><time>2026-03-29T08:44:02Z</time></trkpt><trkpt lat="44.77964470481041" lon="8.865387840904631"><ele>188.0</ele><time>2026-03-29T08:44:03Z</time></trkpt><trkpt lat="44.77940683565246" lon="8.865399272782714"><ele>187.5</ele><time>2026-03-29T08:44:04Z</time></trkpt><trkpt lat="44.77917111123988" lon="8.865410723904375"><ele>187.0</ele><time>2026-03-29T08:44:05Z</time></trkpt><trkpt lat="44.778937367568105" lon="8.865418899867446"><ele>187.0</ele><time>2026-03-29T08:44:06Z</time></trkpt><trkpt lat="44.7787068217847" lon="8.865432146009177"><ele>187.0</ele><time>2026-03-29T08:44:07Z</time></trkpt><trkpt lat="44.778472636365635" lon="8.865447477109884"><ele>187.5</ele><time>2026-03-29T08:44:08Z</time></trkpt><trkpt lat="44.77824635994927" lon="8.865460248527006"><ele>188.0</ele><time>2026-03-29T08:44:09Z</time></trkpt><trkpt lat="44.77801942113236" lon="8.865470462428783"><ele>188.0</ele><time>2026-03-29T08:44:10Z</time></trkpt><trkpt lat="44.77779410840229" lon="8.865481461259055"><ele>188.0</ele><time>2026-03-29T08:44:11Z</time></trkpt><trkpt lat="44.7775686259303" lon="8.865493596346106"><ele>187.66666666666666</ele><time>2026-03-29T08:44:12Z</time></trkpt><trkpt lat="44.77734654046551" lon="8.865505917670966"><ele>187.33333333333334</ele><time>2026-03-29T08:44:13Z</time></trkpt><trkpt lat="44.777126125622274" lon="8.865516500402553"><ele>187.0</ele><time>2026-03-29T08:44:14Z</time></trkpt><trkpt lat="44.77690587587712" lon="8.865525452624025"><ele>185.66666666666669</ele><time>2026-03-29T08:44:15Z</time></trkpt><trkpt lat="44.77668858900133" lon="8.86552980031038"><ele>184.33333333333334</ele><time>2026-03-29T08:44:16Z</time></trkpt><trkpt lat="44.776474339524874" lon="8.865536675042199"><ele>183.0</ele><time>2026-03-29T08:44:17Z</time></trkpt><trkpt lat="44.77626494983733" lon="8.865542602530539"><ele>183.0</ele><time>2026-03-29T08:44:18Z</time></trkpt><trkpt lat="44.776067164316" lon="8.865549888454451"><ele>183.0</ele><time>2026-03-29T08:44:19Z</time></trkpt><trkpt lat="44.775878181824645" lon="8.865555203237188"><ele>183.0</ele><time>2026-03-29T08:44:20Z</time></trkpt><trkpt lat="44.775690026234486" lon="8.865560575468214"><ele>183.33333333333334</ele><time>2026-03-29T08:44:21Z</time></trkpt><trkpt lat="44.77549768525709" lon="8.865567468268933"><ele>183.66666666666669</ele><time>2026-03-29T08:44:22Z</time></trkpt><trkpt lat="44.77530413158469" lon="8.865576001097123"><ele>184.0</ele><time>2026-03-29T08:44:23Z</time></trkpt><trkpt lat="44.77511329333193" lon="8.865586816272886"><ele>185.66666666666669</ele><time>2026-03-29T08:44:24Z</time></trkpt><trkpt lat="44.77492931257347" lon="8.86559241876667"><ele>187.33333333333334</ele><time>2026-03-29T08:44:25Z</time></trkpt><trkpt lat="44.77475547917909" lon="8.865601292343793"><ele>189.0</ele><time>2026-03-29T08:44:26Z</time></trkpt><trkpt lat="44.77457955135097" lon="8.865607045731192"><ele>189.0</ele><time>2026-03-29T08:44:27Z</time></trkpt><trkpt lat="44.77439794103028" lon="8.865615788977072"><ele>189.0</ele><time>2026-03-29T08:44:28Z</time></trkpt><trkpt lat="44.77421931569363" lon="8.86561892717029"><ele>189.0</ele><time>2026-03-29T08:44:29Z</time></trkpt><trkpt lat="44.77404231500291" lon="8.865624489294362"><ele>188.33333333333334</ele><time>2026-03-29T08:44:30Z</time></trkpt><trkpt lat="44.77386644889665" lon="8.865631619073108"><ele>187.66666666666669</ele><time>2026-03-29T08:44:31Z</time></trkpt><trkpt lat="44.77368755884807" lon="8.865643017857977"><ele>187.0</ele><time>2026-03-29T08:44:32Z</time></trkpt><trkpt lat="44.77350299537149" lon="8.86565519542837"><ele>186.0</ele><time>2026-03-29T08:44:33Z</time></trkpt><trkpt lat="44.7733257585413" lon="8.865659047788528"><ele>185.0</ele><time>2026-03-29T08:44:34Z</time></trkpt><trkpt lat="44.77314418763239" lon="8.865666950007574"><ele>184.0</ele><time>2026-03-29T08:44:35Z</time></trkpt><trkpt lat="44.77296252291482" lon="8.865674256301968"><ele>184.0</ele><time>2026-03-29T08:44:36Z</time></trkpt><trkpt lat="44.77278503351243" lon="8.865681455783982"><ele>184.0</ele><time>2026-03-29T08:44:37Z</time></trkpt><trkpt lat="44.7726006547837" lon="8.865690318690062"><ele>184.0</ele><time>2026-03-29T08:44:38Z</time></trkpt><trkpt lat="44.772415498717805" lon="8.865698959628554"><ele>183.66666666666669</ele><time>2026-03-29T08:44:39Z</time></trkpt><trkpt lat="44.772229725927794" lon="8.865705472451896"><ele>183.33333333333334</ele><time>2026-03-29T08:44:40Z</time></trkpt><trkpt lat="44.7720444885004" lon="8.865716878465424"><ele>183.0</ele><time>2026-03-29T08:44:41Z</time></trkpt><trkpt lat="44.771856094749936" lon="8.865728705269238"><ele>182.66666666666666</ele><time>2026-03-29T08:44:42Z</time></trkpt><trkpt lat="44.7716735651062" lon="8.865737619849433"><ele>182.33333333333331</ele><time>2026-03-29T08:44:43Z</time></trkpt><trkpt lat="44.771488737564404" lon="8.86574781249586"><ele>182.0</ele><time>2026-03-29T08:44:44Z</time></trkpt><trkpt lat="44.7713105088548" lon="8.865753077127268"><ele>182.0</ele><time>2026-03-29T08:44:45Z</time></trkpt><trkpt lat="44.77113367087509" lon="8.865760968809944"><ele>182.0</ele><time>2026-03-29T08:44:46Z</time></trkpt><trkpt lat="44.77096276594467" lon="8.865767168224915"><ele>182.0</ele><time>2026-03-29T08:44:47Z</time></trkpt><trkpt lat="44.77080445248393" lon="8.865770815499388"><ele>181.0</ele><time>2026-03-29T08:44:48Z</time></trkpt><trkpt lat="44.77064780938101" lon="8.865776642484892"><ele>180.0</ele><time>2026-03-29T08:44:49Z</time></trkpt><trkpt lat="44.77049719838607" lon="8.865779527016013"><ele>179.0</ele><time>2026-03-29T08:44:50Z</time></trkpt><trkpt lat="44.770340728481315" lon="8.865770994751335"><ele>179.0</ele><time>2026-03-29T08:44:51Z</time></trkpt><trkpt lat="44.77019435088717" lon="8.865756874456219"><ele>179.0</ele><time>2026-03-29T08:44:52Z</time></trkpt><trkpt lat="44.77006133323705" lon="8.865723668976917"><ele>179.0</ele><time>2026-03-29T08:44:53Z</time></trkpt><trkpt lat="44.769936807349765" lon="8.86567455988652"><ele>179.0</ele><time>2026-03-29T08:44:54Z</time></trkpt><trkpt lat="44.76982450849799" lon="8.865610743631652"><ele>179.0</ele><time>2026-03-29T08:44:55Z</time></trkpt><trkpt lat="44.769736834576236" lon="8.86555216822909"><ele>179.0</ele><time>2026-03-29T08:44:56Z</time></trkpt><trkpt lat="44.769658418310215" lon="8.86550717493746"><ele>179.0</ele><time>2026-03-29T08:44:57Z</time></trkpt><trkpt lat="44.76959373341915" lon="8.865473772422568"><ele>179.0</ele><time>2026-03-29T08:44:58Z</time></trkpt><trkpt lat="44.76952662511616" lon="8.865438185037215"><ele>179.0</ele><time>2026-03-29T08:45:00Z</time></trkpt><trkpt lat="44.76942257792835" lon="8.865393712250683"><ele>179.0</ele><time>2026-03-29T08:46:07Z</time></trkpt><trkpt lat="44.769351701277344" lon="8.865365566857283"><ele>179.0</ele><time>2026-03-29T08:46:08Z</time></trkpt><trkpt lat="44.7692789248631" lon="8.865332074185627"><ele>179.0</ele><time>2026-03-29T08:46:09Z</time></trkpt><trkpt lat="44.76919928654971" lon="8.865297644492726"><ele>179.0</ele><time>2026-03-29T08:46:10Z</time></trkpt><trkpt lat="44.769116327515036" lon="8.865250965073987"><ele>179.0</ele><time>2026-03-29T08:46:11Z</time></trkpt><trkpt lat="44.769022831401976" lon="8.865182230340755"><ele>179.0</ele><time>2026-03-29T08:46:12Z</time></trkpt><trkpt lat="44.76892725153277" lon="8.865097069729199"><ele>179.25</ele><time>2026-03-29T08:46:13Z</time></trkpt><trkpt lat="44.76883863377493" lon="8.865005575492454"><ele>179.5</ele><time>2026-03-29T08:46:14Z</time></trkpt><trkpt lat="44.76874858748493" lon="8.864906383708277"><ele>179.75</ele><time>2026-03-29T08:46:15Z</time></trkpt><trkpt lat="44.768657814835315" lon="8.864803949382885"><ele>180.0</ele><time>2026-03-29T08:46:16Z</time></trkpt><trkpt lat="44.76855990742138" lon="8.864697352251309"><ele>180.25</ele><time>2026-03-29T08:46:17Z</time></trkpt><trkpt lat="44.76845144922975" lon="8.86458102225115"><ele>180.5</ele><time>2026-03-29T08:46:18Z</time></trkpt><trkpt lat="44.76833540209789" lon="8.864458765016732"><ele>180.75</ele><time>2026-03-29T08:46:19Z</time></trkpt><trkpt lat="44.76821333219468" lon="8.864320776398792"><ele>181.0</ele><time>2026-03-29T08:46:20Z</time></trkpt><trkpt lat="44.76808669556468" lon="8.864188078544958"><ele>181.0</ele><time>2026-03-29T08:46:21Z</time></trkpt><trkpt lat="44.76796459503353" lon="8.86405458094363"><ele>181.0</ele><time>2026-03-29T08:46:22Z</time></trkpt><trkpt lat="44.76784077762285" lon="8.863922100920405"><ele>181.0</ele><time>2026-03-29T08:46:23Z</time></trkpt><trkpt lat="44.76770926191669" lon="8.863778687238263"><ele>180.66666666666669</ele><time>2026-03-29T08:46:24Z</time></trkpt><trkpt lat="44.7675736210597" lon="8.863630459157164"><ele>180.33333333333334</ele><time>2026-03-29T08:46:25Z</time></trkpt><trkpt lat="44.767435625172624" lon="8.863480501451509"><ele>180.0</ele><time>2026-03-29T08:46:26Z</time></trkpt><trkpt lat="44.76728772165473" lon="8.863325888843196"><ele>180.0</ele><time>2026-03-29T08:46:27Z</time></trkpt><trkpt lat="44.7671469072759" lon="8.863181246693363"><ele>180.0</ele><time>2026-03-29T08:46:28Z</time></trkpt><trkpt lat="44.767007725249535" lon="8.863034171209064"><ele>180.0</ele><time>2026-03-29T08:46:29Z</time></trkpt><trkpt lat="44.766875926832" lon="8.862883972712162"><ele>180.25</ele><time>2026-03-29T08:46:30Z</time></trkpt><trkpt lat="44.766754968309606" lon="8.862751238349789"><ele>180.5</ele><time>2026-03-29T08:46:31Z</time></trkpt><trkpt lat="44.766637429834326" lon="8.86262301540293"><ele>180.75</ele><time>2026-03-29T08:46:32Z</time></trkpt><trkpt lat="44.766521457811535" lon="8.862502001542309"><ele>181.0</ele><time>2026-03-29T08:46:33Z</time></trkpt><trkpt lat="44.76640530441158" lon="8.862389473140968"><ele>181.0</ele><time>2026-03-29T08:46:34Z</time></trkpt><trkpt lat="44.766276841155936" lon="8.862295350803882"><ele>181.0</ele><time>2026-03-29T08:46:35Z</time></trkpt><trkpt lat="44.76613702798162" lon="8.862225526699566"><ele>181.0</ele><time>2026-03-29T08:46:36Z</time></trkpt><trkpt lat="44.76599137306631" lon="8.862164695698702"><ele>181.0</ele><time>2026-03-29T08:46:37Z</time></trkpt><trkpt lat="44.76584795727674" lon="8.862102093359411"><ele>183.25</ele><time>2026-03-29T08:46:38Z</time></trkpt><trkpt lat="44.76570473850059" lon="8.862037903449309"><ele>185.5</ele><time>2026-03-29T08:46:39Z</time></trkpt><trkpt lat="44.7655647854388" lon="8.861973349573315"><ele>187.75</ele><time>2026-03-29T08:46:40Z</time></trkpt><trkpt lat="44.765429974710344" lon="8.86191330714081"><ele>190.0</ele><time>2026-03-29T08:46:41Z</time></trkpt><trkpt lat="44.76529363724514" lon="8.861847397563688"><ele>190.2</ele><time>2026-03-29T08:46:42Z</time></trkpt><trkpt lat="44.76517046208428" lon="8.86178714225723"><ele>190.4</ele><time>2026-03-29T08:46:43Z</time></trkpt><trkpt lat="44.765061291481175" lon="8.861731283254933"><ele>190.60000000000002</ele><time>2026-03-29T08:46:44Z</time></trkpt><trkpt lat="44.76495876774831" lon="8.861688465690236"><ele>190.8</ele><time>2026-03-29T08:46:45Z</time></trkpt><trkpt lat="44.76487673642443" lon="8.861623317661373"><ele>191.0</ele><time>2026-03-29T08:46:46Z</time></trkpt><trkpt lat="44.764818184808405" lon="8.861554646087026"><ele>191.0</ele><time>2026-03-29T08:46:47Z</time></trkpt><trkpt lat="44.76471046005901" lon="8.861497380068977"><ele>191.0</ele><time>2026-03-29T08:46:49Z</time></trkpt><trkpt lat="44.764652187518685" lon="8.861440301036659"><ele>191.0</ele><time>2026-03-29T08:48:10Z</time></trkpt><trkpt lat="44.764525848138405" lon="8.861407715790097"><ele>191.0</ele><time>2026-03-29T08:48:12Z</time></trkpt><trkpt lat="44.76445792436671" lon="8.861410692451601"><ele>191.0</ele><time>2026-03-29T08:48:13Z</time></trkpt><trkpt lat="44.76438402772315" lon="8.861409156279413"><ele>191.60000000000002</ele><time>2026-03-29T08:48:14Z</time></trkpt><trkpt lat="44.7643020638329" lon="8.861363919519965"><ele>192.2</ele><time>2026-03-29T08:48:15Z</time></trkpt><trkpt lat="44.764205654648315" lon="8.86131804242697"><ele>192.8</ele><time>2026-03-29T08:48:16Z</time></trkpt><trkpt lat="44.76408778569294" lon="8.861261953549585"><ele>193.39999999999998</ele><time>2026-03-29T08:48:17Z</time></trkpt><trkpt lat="44.76398586509099" lon="8.861212205690347"><ele>194.0</ele><time>2026-03-29T08:48:18Z</time></trkpt><trkpt lat="44.76389486789957" lon="8.861171284219003"><ele>194.0</ele><time>2026-03-29T08:48:19Z</time></trkpt><trkpt lat="44.76379195431843" lon="8.861136494293214"><ele>194.0</ele><time>2026-03-29T08:48:20Z</time></trkpt><trkpt lat="44.763683199645136" lon="8.861083959232245"><ele>194.0</ele><time>2026-03-29T08:48:21Z</time></trkpt><trkpt lat="44.76357127331947" lon="8.86100715360009"><ele>194.0</ele><time>2026-03-29T08:48:22Z</time></trkpt><trkpt lat="44.76344571238198" lon="8.860963019098175"><ele>193.25</ele><time>2026-03-29T08:48:23Z</time></trkpt><trkpt lat="44.76331790793636" lon="8.860893296445445"><ele>192.5</ele><time>2026-03-29T08:48:24Z</time></trkpt><trkpt lat="44.763183544926356" lon="8.86082235656647"><ele>191.75</ele><time>2026-03-29T08:48:25Z</time></trkpt><trkpt lat="44.76305092069137" lon="8.860764246161313"><ele>191.0</ele><time>2026-03-29T08:48:26Z</time></trkpt><trkpt lat="44.76292618630928" lon="8.860700949821691"><ele>191.0</ele><time>2026-03-29T08:48:27Z</time></trkpt><trkpt lat="44.762782476359874" lon="8.860635119185881"><ele>191.0</ele><time>2026-03-29T08:48:28Z</time></trkpt><trkpt lat="44.76264301322269" lon="8.860563476177491"><ele>191.0</ele><time>2026-03-29T08:48:29Z</time></trkpt><trkpt lat="44.76249069265379" lon="8.860486346199048"><ele>191.66666666666666</ele><time>2026-03-29T08:48:30Z</time></trkpt><trkpt lat="44.76234052489004" lon="8.860411341817603"><ele>192.33333333333331</ele><time>2026-03-29T08:48:31Z</time></trkpt><trkpt lat="44.76218792551101" lon="8.860335477210995"><ele>193.0</ele><time>2026-03-29T08:48:32Z</time></trkpt><trkpt lat="44.76203014749086" lon="8.86025812017147"><ele>193.0</ele><time>2026-03-29T08:48:33Z</time></trkpt><trkpt lat="44.76187722553932" lon="8.860185150800909"><ele>193.0</ele><time>2026-03-29T08:48:34Z</time></trkpt><trkpt lat="44.761727574427006" lon="8.860109687327716"><ele>193.0</ele><time>2026-03-29T08:48:35Z</time></trkpt><trkpt lat="44.76157620270248" lon="8.860039891706975"><ele>194.5</ele><time>2026-03-29T08:48:36Z</time></trkpt><trkpt lat="44.76143135209148" lon="8.859967194684662"><ele>196.0</ele><time>2026-03-29T08:48:37Z</time></trkpt><trkpt lat="44.76129341340396" lon="8.859893119271428"><ele>197.5</ele><time>2026-03-29T08:48:38Z</time></trkpt><trkpt lat="44.761158398607954" lon="8.859825247735515"><ele>199.0</ele><time>2026-03-29T08:48:39Z</time></trkpt><trkpt lat="44.76102627522647" lon="8.859759855845725"><ele>201.75</ele><time>2026-03-29T08:48:40Z</time></trkpt><trkpt lat="44.76089631059051" lon="8.859693998956669"><ele>204.5</ele><time>2026-03-29T08:48:41Z</time></trkpt><trkpt lat="44.760768328451555" lon="8.859627354501452"><ele>207.25</ele><time>2026-03-29T08:48:42Z</time></trkpt><trkpt lat="44.76064299979161" lon="8.859558993682404"><ele>210.0</ele><time>2026-03-29T08:48:43Z</time></trkpt><trkpt lat="44.760509755969245" lon="8.85949508745732"><ele>210.0</ele><time>2026-03-29T08:48:44Z</time></trkpt><trkpt lat="44.76036852646438" lon="8.85942682122327"><ele>210.0</ele><time>2026-03-29T08:48:45Z</time></trkpt><trkpt lat="44.76021874804454" lon="8.859363073194805"><ele>210.0</ele><time>2026-03-29T08:48:46Z</time></trkpt><trkpt lat="44.76006826030229" lon="8.859296848644632"><ele>207.66666666666669</ele><time>2026-03-29T08:48:47Z</time></trkpt><trkpt lat="44.75991248994984" lon="8.859206373344797"><ele>205.33333333333334</ele><time>2026-03-29T08:48:48Z</time></trkpt><trkpt lat="44.759750675984236" lon="8.859158646585183"><ele>203.0</ele><time>2026-03-29T08:48:49Z</time></trkpt><trkpt lat="44.75958482510716" lon="8.859084580332022"><ele>203.0</ele><time>2026-03-29T08:48:50Z</time></trkpt><trkpt lat="44.75942055568195" lon="8.859026961167215"><ele>203.0</ele><time>2026-03-29T08:48:51Z</time></trkpt><trkpt lat="44.759260806406445" lon="8.858974494158383"><ele>203.0</ele><time>2026-03-29T08:48:52Z</time></trkpt><trkpt lat="44.75910953909748" lon="8.858926641751658"><ele>203.5</ele><time>2026-03-29T08:48:53Z</time></trkpt><trkpt lat="44.75896896857115" lon="8.858872394032723"><ele>204.0</ele><time>2026-03-29T08:48:54Z</time></trkpt><trkpt lat="44.75883315806926" lon="8.858787945589734"><ele>204.5</ele><time>2026-03-29T08:48:55Z</time></trkpt><trkpt lat="44.75870602902726" lon="8.8586733303359"><ele>205.0</ele><time>2026-03-29T08:48:56Z</time></trkpt><trkpt lat="44.7586030480066" lon="8.858508533871682"><ele>204.0</ele><time>2026-03-29T08:48:57Z</time></trkpt><trkpt lat="44.75850972442014" lon="8.858334903829581"><ele>203.0</ele><time>2026-03-29T08:48:58Z</time></trkpt><trkpt lat="44.75845154496601" lon="8.85814315563791"><ele>202.0</ele><time>2026-03-29T08:48:59Z</time></trkpt><trkpt lat="44.75839816477285" lon="8.857919107743859"><ele>202.0</ele><time>2026-03-29T08:49:00Z</time></trkpt><trkpt lat="44.758341970734826" lon="8.857675838467314"><ele>202.0</ele><time>2026-03-29T08:49:01Z</time></trkpt><trkpt lat="44.75826899884351" lon="8.857426721765638"><ele>202.0</ele><time>2026-03-29T08:49:02Z</time></trkpt><trkpt lat="44.75822101269786" lon="8.857187725043863"><ele>201.33333333333331</ele><time>2026-03-29T08:49:03Z</time></trkpt><trkpt lat="44.758174881923416" lon="8.856971932406614"><ele>200.66666666666669</ele><time>2026-03-29T08:49:04Z</time></trkpt><trkpt lat="44.75812999824632" lon="8.856765198776317"><ele>200.0</ele><time>2026-03-29T08:49:05Z</time></trkpt><trkpt lat="44.758059901854374" lon="8.856568670746661"><ele>199.0</ele><time>2026-03-29T08:49:06Z</time></trkpt><trkpt lat="44.757963172276604" lon="8.856379107055197"><ele>198.0</ele><time>2026-03-29T08:49:07Z</time></trkpt><trkpt lat="44.757842583416654" lon="8.856207497636358"><ele>197.0</ele><time>2026-03-29T08:49:08Z</time></trkpt><trkpt lat="44.757711003804" lon="8.856045810613246"><ele>196.33333333333334</ele><time>2026-03-29T08:49:09Z</time></trkpt><trkpt lat="44.75758086644677" lon="8.855904633035262"><ele>195.66666666666669</ele><time>2026-03-29T08:49:10Z</time></trkpt><trkpt lat="44.757450006816896" lon="8.85577186584554"><ele>195.0</ele><time>2026-03-29T08:49:11Z</time></trkpt><trkpt lat="44.757322575572005" lon="8.855636921372591"><ele>195.0</ele><time>2026-03-29T08:49:12Z</time></trkpt><trkpt lat="44.75718807779991" lon="8.855490753657415"><ele>195.0</ele><time>2026-03-29T08:49:13Z</time></trkpt><trkpt lat="44.75705280024157" lon="8.855343710516156"><ele>195.0</ele><time>2026-03-29T08:49:14Z</time></trkpt><trkpt lat="44.75692115243437" lon="8.8551978669235"><ele>194.33333333333331</ele><time>2026-03-29T08:49:15Z</time></trkpt><trkpt lat="44.756785895031726" lon="8.855047508963926"><ele>193.66666666666666</ele><time>2026-03-29T08:49:16Z</time></trkpt><trkpt lat="44.756652995703185" lon="8.854900260110186"><ele>193.0</ele><time>2026-03-29T08:49:17Z</time></trkpt><trkpt lat="44.75652010626257" lon="8.854753958261739"><ele>193.0</ele><time>2026-03-29T08:49:18Z</time></trkpt><trkpt lat="44.75639779681412" lon="8.854591977159737"><ele>193.0</ele><time>2026-03-29T08:49:19Z</time></trkpt><trkpt lat="44.75625950274179" lon="8.85446545137383"><ele>193.0</ele><time>2026-03-29T08:49:20Z</time></trkpt><trkpt lat="44.75613457649516" lon="8.854295813709511"><ele>196.0</ele><time>2026-03-29T08:49:21Z</time></trkpt><trkpt lat="44.75599800970814" lon="8.854142526618743"><ele>199.0</ele><time>2026-03-29T08:49:22Z</time></trkpt><trkpt lat="44.75585619713821" lon="8.854012249063272"><ele>202.0</ele><time>2026-03-29T08:49:23Z</time></trkpt><trkpt lat="44.755742982134606" lon="8.853854953859228"><ele>202.0</ele><time>2026-03-29T08:49:24Z</time></trkpt><trkpt lat="44.755627400830086" lon="8.853705363060222"><ele>202.0</ele><time>2026-03-29T08:49:25Z</time></trkpt><trkpt lat="44.75549345737067" lon="8.853561610899582"><ele>202.0</ele><time>2026-03-29T08:49:26Z</time></trkpt><trkpt lat="44.75541702720426" lon="8.853373359792428"><ele>199.66666666666666</ele><time>2026-03-29T08:49:27Z</time></trkpt><trkpt lat="44.75533609256496" lon="8.853162959270554"><ele>197.33333333333331</ele><time>2026-03-29T08:49:28Z</time></trkpt><trkpt lat="44.755250862784884" lon="8.852952917769619"><ele>195.0</ele><time>2026-03-29T08:49:29Z</time></trkpt><trkpt lat="44.75516800385857" lon="8.852707173709906"><ele>190.33333333333334</ele><time>2026-03-29T08:49:30Z</time></trkpt><trkpt lat="44.755093404941796" lon="8.852473842843377"><ele>185.66666666666669</ele><time>2026-03-29T08:49:31Z</time></trkpt><trkpt lat="44.755013949959746" lon="8.852235697213578"><ele>181.0</ele><time>2026-03-29T08:49:32Z</time></trkpt><trkpt lat="44.75493324690058" lon="8.851995679584848"><ele>180.33333333333334</ele><time>2026-03-29T08:49:33Z</time></trkpt><trkpt lat="44.7548519980757" lon="8.85175332198065"><ele>179.66666666666666</ele><time>2026-03-29T08:49:34Z</time></trkpt><trkpt lat="44.75477012639081" lon="8.851509824259566"><ele>179.0</ele><time>2026-03-29T08:49:35Z</time></trkpt><trkpt lat="44.75468855264598" lon="8.851264583534117"><ele>179.0</ele><time>2026-03-29T08:49:36Z</time></trkpt><trkpt lat="44.754610946963" lon="8.851027086762908"><ele>179.0</ele><time>2026-03-29T08:49:37Z</time></trkpt><trkpt lat="44.754529662722845" lon="8.850786172490697"><ele>179.0</ele><time>2026-03-29T08:49:38Z</time></trkpt><trkpt lat="44.754451841275724" lon="8.850553485288675"><ele>181.66666666666666</ele><time>2026-03-29T08:49:39Z</time></trkpt><trkpt lat="44.754382992856605" lon="8.850335559130263"><ele>184.33333333333334</ele><time>2026-03-29T08:49:40Z</time></trkpt><trkpt lat="44.754310577349266" lon="8.850132246667046"><ele>187.0</ele><time>2026-03-29T08:49:41Z</time></trkpt><trkpt lat="44.75425349457196" lon="8.849948951840645"><ele>188.75</ele><time>2026-03-29T08:49:42Z</time></trkpt><trkpt lat="44.75419751384762" lon="8.84977693150827"><ele>190.5</ele><time>2026-03-29T08:49:43Z</time></trkpt><trkpt lat="44.754127010351034" lon="8.849630986246645"><ele>192.25</ele><time>2026-03-29T08:49:44Z</time></trkpt><trkpt lat="44.754036188289916" lon="8.84952015274"><ele>194.0</ele><time>2026-03-29T08:49:45Z</time></trkpt><trkpt lat="44.75391555187019" lon="8.849429861291048"><ele>194.0</ele><time>2026-03-29T08:49:46Z</time></trkpt><trkpt lat="44.75377145432187" lon="8.84936669041097"><ele>194.0</ele><time>2026-03-29T08:49:47Z</time></trkpt><trkpt lat="44.75361169165152" lon="8.849322714314054"><ele>194.0</ele><time>2026-03-29T08:49:48Z</time></trkpt><trkpt lat="44.75342805026846" lon="8.849292741502179"><ele>194.33333333333334</ele><time>2026-03-29T08:49:49Z</time></trkpt><trkpt lat="44.753240427588615" lon="8.84925068141798"><ele>194.66666666666669</ele><time>2026-03-29T08:49:50Z</time></trkpt><trkpt lat="44.753046970935614" lon="8.849198937096112"><ele>195.0</ele><time>2026-03-29T08:49:51Z</time></trkpt><trkpt lat="44.75286679964948" lon="8.849145720464971"><ele>194.66666666666669</ele><time>2026-03-29T08:49:52Z</time></trkpt><trkpt lat="44.752683833276386" lon="8.849095581992481"><ele>194.33333333333334</ele><time>2026-03-29T08:49:53Z</time></trkpt><trkpt lat="44.75248896620923" lon="8.849043041117328"><ele>194.0</ele><time>2026-03-29T08:49:54Z</time></trkpt><trkpt lat="44.75228753371192" lon="8.848988802046701"><ele>194.0</ele><time>2026-03-29T08:49:55Z</time></trkpt><trkpt lat="44.752083020881535" lon="8.848933635589766"><ele>194.0</ele><time>2026-03-29T08:49:56Z</time></trkpt><trkpt lat="44.75187675100898" lon="8.848880012311449"><ele>194.0</ele><time>2026-03-29T08:49:57Z</time></trkpt><trkpt lat="44.75166978384534" lon="8.848826040586596"><ele>194.66666666666669</ele><time>2026-03-29T08:49:58Z</time></trkpt><trkpt lat="44.75146037665317" lon="8.848769161234724"><ele>195.33333333333331</ele><time>2026-03-29T08:49:59Z</time></trkpt><trkpt lat="44.7512522759278" lon="8.848711458557467"><ele>196.0</ele><time>2026-03-29T08:50:00Z</time></trkpt><trkpt lat="44.75104923072534" lon="8.848653684937686"><ele>195.33333333333331</ele><time>2026-03-29T08:50:01Z</time></trkpt><trkpt lat="44.75084667836886" lon="8.848594998085083"><ele>194.66666666666669</ele><time>2026-03-29T08:50:02Z</time></trkpt><trkpt lat="44.750646951640356" lon="8.848536449136988"><ele>194.0</ele><time>2026-03-29T08:50:03Z</time></trkpt><trkpt lat="44.75045215691362" lon="8.848479270737132"><ele>194.66666666666669</ele><time>2026-03-29T08:50:04Z</time></trkpt><trkpt lat="44.750257903139754" lon="8.848426604042876"><ele>195.33333333333331</ele><time>2026-03-29T08:50:05Z</time></trkpt><trkpt lat="44.7500691223229" lon="8.848374257335246"><ele>196.0</ele><time>2026-03-29T08:50:06Z</time></trkpt><trkpt lat="44.74988134524096" lon="8.848320027404974"><ele>197.33333333333331</ele><time>2026-03-29T08:50:07Z</time></trkpt><trkpt lat="44.74969455463339" lon="8.848286126795076"><ele>198.66666666666669</ele><time>2026-03-29T08:50:08Z</time></trkpt><trkpt lat="44.7495033595054" lon="8.848221771088618"><ele>200.0</ele><time>2026-03-29T08:50:09Z</time></trkpt><trkpt lat="44.74931070575829" lon="8.84816370590725"><ele>200.0</ele><time>2026-03-29T08:50:10Z</time></trkpt><trkpt lat="44.749120073339014" lon="8.848105648791655"><ele>200.0</ele><time>2026-03-29T08:50:11Z</time></trkpt><trkpt lat="44.748936875450056" lon="8.848047733776795"><ele>200.0</ele><time>2026-03-29T08:50:12Z</time></trkpt><trkpt lat="44.748764539669736" lon="8.847983122404825"><ele>200.0</ele><time>2026-03-29T08:50:13Z</time></trkpt><trkpt lat="44.748600545909234" lon="8.847936108074366"><ele>200.0</ele><time>2026-03-29T08:50:14Z</time></trkpt><trkpt lat="44.748457375017026" lon="8.847878242305658"><ele>200.0</ele><time>2026-03-29T08:50:15Z</time></trkpt><trkpt lat="44.74833862604454" lon="8.847812798598957"><ele>200.0</ele><time>2026-03-29T08:50:16Z</time></trkpt><trkpt lat="44.74824926570844" lon="8.84774534867072"><ele>200.16666666666669</ele><time>2026-03-29T08:50:17Z</time></trkpt><trkpt lat="44.748176990191894" lon="8.847658540443966"><ele>200.33333333333334</ele><time>2026-03-29T08:50:18Z</time></trkpt><trkpt lat="44.74811577914928" lon="8.847562615806366"><ele>200.5</ele><time>2026-03-29T08:50:19Z</time></trkpt><trkpt lat="44.748067194399205" lon="8.847472603395241"><ele>200.66666666666669</ele><time>2026-03-29T08:50:20Z</time></trkpt><trkpt lat="44.748014673845134" lon="8.84739547549214"><ele>200.83333333333334</ele><time>2026-03-29T08:50:21Z</time></trkpt><trkpt lat="44.74793714341705" lon="8.847343700221975"><ele>201.0</ele><time>2026-03-29T08:50:22Z</time></trkpt><trkpt lat="44.74784715150075" lon="8.847337450888105"><ele>201.25</ele><time>2026-03-29T08:50:23Z</time></trkpt><trkpt lat="44.74774856085951" lon="8.847371227268654"><ele>201.5</ele><time>2026-03-29T08:50:24Z</time></trkpt><trkpt lat="44.74764698155789" lon="8.847439904200272"><ele>201.75</ele><time>2026-03-29T08:50:25Z</time></trkpt><trkpt lat="44.74753942850396" lon="8.847526061095675"><ele>202.0</ele><time>2026-03-29T08:50:26Z</time></trkpt><trkpt lat="44.74741905994743" lon="8.847587034583594"><ele>202.0</ele><time>2026-03-29T08:50:27Z</time></trkpt><trkpt lat="44.74729609834013" lon="8.847641221035055"><ele>202.0</ele><time>2026-03-29T08:50:28Z</time></trkpt><trkpt lat="44.74713491197774" lon="8.847576341879671"><ele>202.0</ele><time>2026-03-29T08:50:29Z</time></trkpt><trkpt lat="44.746973739517436" lon="8.84754052054221"><ele>202.66666666666666</ele><time>2026-03-29T08:50:30Z</time></trkpt><trkpt lat="44.7468043679631" lon="8.847497690860163"><ele>203.33333333333331</ele><time>2026-03-29T08:50:31Z</time></trkpt><trkpt lat="44.74662968735743" lon="8.847446019250913"><ele>204.0</ele><time>2026-03-29T08:50:32Z</time></trkpt><trkpt lat="44.74645206693518" lon="8.847390825361169"><ele>204.0</ele><time>2026-03-29T08:50:33Z</time></trkpt><trkpt lat="44.74628767138357" lon="8.847342022514102"><ele>204.0</ele><time>2026-03-29T08:50:34Z</time></trkpt><trkpt lat="44.74612048811021" lon="8.847297214084536"><ele>204.0</ele><time>2026-03-29T08:50:35Z</time></trkpt><trkpt lat="44.74594241649011" lon="8.84725020119336"><ele>204.33333333333331</ele><time>2026-03-29T08:50:36Z</time></trkpt><trkpt lat="44.74575696477274" lon="8.847194838899046"><ele>204.66666666666666</ele><time>2026-03-29T08:50:37Z</time></trkpt><trkpt lat="44.74556667187737" lon="8.847140519627402"><ele>205.0</ele><time>2026-03-29T08:50:38Z</time></trkpt><trkpt lat="44.74537569393474" lon="8.847089093313533"><ele>205.0</ele><time>2026-03-29T08:50:39Z</time></trkpt><trkpt lat="44.74517591329197" lon="8.847037021606019"><ele>205.0</ele><time>2026-03-29T08:50:40Z</time></trkpt><trkpt lat="44.74498160104054" lon="8.846985104432276"><ele>205.0</ele><time>2026-03-29T08:50:41Z</time></trkpt><trkpt lat="44.74479725406869" lon="8.846936339378809"><ele>205.0</ele><time>2026-03-29T08:50:42Z</time></trkpt><trkpt lat="44.74461235275653" lon="8.846885956020675"><ele>205.0</ele><time>2026-03-29T08:50:43Z</time></trkpt><trkpt lat="44.74442646543587" lon="8.8468371948439"><ele>205.0</ele><time>2026-03-29T08:50:44Z</time></trkpt><trkpt lat="44.74422995007053" lon="8.846782882689942"><ele>205.0</ele><time>2026-03-29T08:50:45Z</time></trkpt><trkpt lat="44.74403434593458" lon="8.846728320907266"><ele>205.0</ele><time>2026-03-29T08:50:46Z</time></trkpt><trkpt lat="44.743840276789086" lon="8.846671920813094"><ele>205.0</ele><time>2026-03-29T08:50:47Z</time></trkpt><trkpt lat="44.74364626808052" lon="8.846617048802512"><ele>205.33333333333331</ele><time>2026-03-29T08:50:48Z</time></trkpt><trkpt lat="44.743447111311376" lon="8.846564702141904"><ele>205.66666666666669</ele><time>2026-03-29T08:50:49Z</time></trkpt><trkpt lat="44.74324884987931" lon="8.846516585134932"><ele>206.0</ele><time>2026-03-29T08:50:50Z</time></trkpt><trkpt lat="44.74305482447296" lon="8.846474034115326"><ele>206.0</ele><time>2026-03-29T08:50:51Z</time></trkpt><trkpt lat="44.74284982101395" lon="8.84641777415107"><ele>206.0</ele><time>2026-03-29T08:50:52Z</time></trkpt><trkpt lat="44.74264387821106" lon="8.846356434870238"><ele>206.0</ele><time>2026-03-29T08:50:53Z</time></trkpt><trkpt lat="44.742439082694936" lon="8.846298601630306"><ele>206.0</ele><time>2026-03-29T08:50:54Z</time></trkpt><trkpt lat="44.742234933568554" lon="8.84624360186472"><ele>206.0</ele><time>2026-03-29T08:50:55Z</time></trkpt><trkpt lat="44.742033216828986" lon="8.846187227951898"><ele>206.0</ele><time>2026-03-29T08:50:56Z</time></trkpt><trkpt lat="44.74183191236777" lon="8.846129317807522"><ele>206.33333333333334</ele><time>2026-03-29T08:50:57Z</time></trkpt><trkpt lat="44.74163032614084" lon="8.84607653680063"><ele>206.66666666666669</ele><time>2026-03-29T08:50:58Z</time></trkpt><trkpt lat="44.74142928271708" lon="8.846027499593061"><ele>207.0</ele><time>2026-03-29T08:50:59Z</time></trkpt><trkpt lat="44.741224661263246" lon="8.845973864504238"><ele>206.33333333333331</ele><time>2026-03-29T08:51:00Z</time></trkpt><trkpt lat="44.74101024819671" lon="8.845915937213366"><ele>205.66666666666666</ele><time>2026-03-29T08:51:01Z</time></trkpt><trkpt lat="44.740806339940534" lon="8.845859431740124"><ele>205.0</ele><time>2026-03-29T08:51:02Z</time></trkpt><trkpt lat="44.740594693472985" lon="8.845809776523655"><ele>205.0</ele><time>2026-03-29T08:51:03Z</time></trkpt><trkpt lat="44.74039686887478" lon="8.845757528704603"><ele>205.0</ele><time>2026-03-29T08:51:04Z</time></trkpt><trkpt lat="44.740207518249356" lon="8.845705342919608"><ele>205.0</ele><time>2026-03-29T08:51:05Z</time></trkpt><trkpt lat="44.74003086742193" lon="8.845656386286498"><ele>205.66666666666666</ele><time>2026-03-29T08:51:06Z</time></trkpt><trkpt lat="44.7398631392689" lon="8.845608606237892"><ele>206.33333333333331</ele><time>2026-03-29T08:51:07Z</time></trkpt><trkpt lat="44.739707741860485" lon="8.84556908470714"><ele>207.0</ele><time>2026-03-29T08:51:08Z</time></trkpt><trkpt lat="44.73956323872193" lon="8.845530551163424"><ele>207.0</ele><time>2026-03-29T08:51:09Z</time></trkpt><trkpt lat="44.739422210140404" lon="8.845495119170268"><ele>207.0</ele><time>2026-03-29T08:51:10Z</time></trkpt><trkpt lat="44.73929444071723" lon="8.84546221450625"><ele>207.0</ele><time>2026-03-29T08:51:11Z</time></trkpt><trkpt lat="44.739170639056205" lon="8.845427333291989"><ele>207.0</ele><time>2026-03-29T08:51:12Z</time></trkpt><trkpt lat="44.739061310130495" lon="8.845392795788957"><ele>207.0</ele><time>2026-03-29T08:51:13Z</time></trkpt><trkpt lat="44.738964341945014" lon="8.845360372162514"><ele>207.0</ele><time>2026-03-29T08:51:14Z</time></trkpt><trkpt lat="44.738885356392764" lon="8.845328959687935"><ele>207.0</ele><time>2026-03-29T08:51:15Z</time></trkpt><trkpt lat="44.73882024862098" lon="8.845286121726232"><ele>207.0</ele><time>2026-03-29T08:51:16Z</time></trkpt><trkpt lat="44.73876937849421" lon="8.845217479540056"><ele>207.0</ele><time>2026-03-29T08:51:17Z</time></trkpt><trkpt lat="44.738728941495204" lon="8.845124621317224"><ele>207.0</ele><time>2026-03-29T08:51:18Z</time></trkpt><trkpt lat="44.73869908711414" lon="8.845013714820764"><ele>207.6</ele><time>2026-03-29T08:51:19Z</time></trkpt><trkpt lat="44.73866423792569" lon="8.844900045515137"><ele>208.2</ele><time>2026-03-29T08:51:20Z</time></trkpt><trkpt lat="44.73859754821949" lon="8.844807200649285"><ele>208.8</ele><time>2026-03-29T08:51:21Z</time></trkpt><trkpt lat="44.73850654576624" lon="8.844731842436632"><ele>209.4</ele><time>2026-03-29T08:51:22Z</time></trkpt><trkpt lat="44.738420406613834" lon="8.844692792694977"><ele>210.0</ele><time>2026-03-29T08:51:23Z</time></trkpt><trkpt lat="44.7383282504865" lon="8.84468379498613"><ele>210.4</ele><time>2026-03-29T08:51:24Z</time></trkpt><trkpt lat="44.738230163770815" lon="8.84471047950319"><ele>210.8</ele><time>2026-03-29T08:51:25Z</time></trkpt><trkpt lat="44.73813550478639" lon="8.844774691532374"><ele>211.2</ele><time>2026-03-29T08:51:26Z</time></trkpt><trkpt lat="44.73805660214426" lon="8.844852875676471"><ele>211.6</ele><time>2026-03-29T08:51:27Z</time></trkpt><trkpt lat="44.7379907771205" lon="8.844935298667558"><ele>212.0</ele><time>2026-03-29T08:51:28Z</time></trkpt><trkpt lat="44.73792025861072" lon="8.845010175797727"><ele>212.0</ele><time>2026-03-29T08:51:29Z</time></trkpt><trkpt lat="44.73783315834801" lon="8.845047313245486"><ele>212.0</ele><time>2026-03-29T08:51:29.999Z</time></trkpt><trkpt lat="44.73773481911363" lon="8.845062693496452"><ele>212.0</ele><time>2026-03-29T08:51:30.999Z</time></trkpt><trkpt lat="44.73760396662474" lon="8.845003210907073"><ele>212.0</ele><time>2026-03-29T08:51:31.999Z</time></trkpt><trkpt lat="44.73745520682485" lon="8.844944159349335"><ele>211.66666666666669</ele><time>2026-03-29T08:51:32.999Z</time></trkpt><trkpt lat="44.73728870543223" lon="8.844895815750215"><ele>211.33333333333331</ele><time>2026-03-29T08:51:33.999Z</time></trkpt><trkpt lat="44.737110833105106" lon="8.844845643466057"><ele>211.0</ele><time>2026-03-29T08:51:34.999Z</time></trkpt><trkpt lat="44.736927795140446" lon="8.844798070490578"><ele>211.0</ele><time>2026-03-29T08:51:35.999Z</time></trkpt><trkpt lat="44.73676218403616" lon="8.844746245289356"><ele>211.0</ele><time>2026-03-29T08:51:36.999Z</time></trkpt><trkpt lat="44.736601101772955" lon="8.84470314865115"><ele>211.0</ele><time>2026-03-29T08:51:37.999Z</time></trkpt><trkpt lat="44.73643513260457" lon="8.844655083417454"><ele>211.0</ele><time>2026-03-29T08:51:38.999Z</time></trkpt><trkpt lat="44.73625899478878" lon="8.844608120886125"><ele>211.0</ele><time>2026-03-29T08:51:39.999Z</time></trkpt><trkpt lat="44.736072836992264" lon="8.844560068745183"><ele>211.0</ele><time>2026-03-29T08:51:40.999Z</time></trkpt><trkpt lat="44.73588191756011" lon="8.844525708323546"><ele>210.0</ele><time>2026-03-29T08:51:41.999Z</time></trkpt><trkpt lat="44.73569393011049" lon="8.844473992449403"><ele>209.0</ele><time>2026-03-29T08:51:42.999Z</time></trkpt><trkpt lat="44.73550983260233" lon="8.844413743004434"><ele>208.0</ele><time>2026-03-29T08:51:43.999Z</time></trkpt><trkpt lat="44.73533090877029" lon="8.84436092597557"><ele>208.66666666666666</ele><time>2026-03-29T08:51:44.999Z</time></trkpt><trkpt lat="44.73516078367687" lon="8.844315771970907"><ele>209.33333333333331</ele><time>2026-03-29T08:51:45.999Z</time></trkpt><trkpt lat="44.734984708897535" lon="8.844270210598328"><ele>210.0</ele><time>2026-03-29T08:51:46.999Z</time></trkpt><trkpt lat="44.73481914461167" lon="8.844214433638033"><ele>211.0</ele><time>2026-03-29T08:51:47.999Z</time></trkpt><trkpt lat="44.73465315531297" lon="8.844168748462948"><ele>212.0</ele><time>2026-03-29T08:51:48.999Z</time></trkpt><trkpt lat="44.73450645531523" lon="8.844131596493604"><ele>213.0</ele><time>2026-03-29T08:51:50Z</time></trkpt><trkpt lat="44.734357829506415" lon="8.844095796200033"><ele>214.25</ele><time>2026-03-29T08:51:51Z</time></trkpt><trkpt lat="44.734225764346064" lon="8.844051874440542"><ele>215.5</ele><time>2026-03-29T08:51:52Z</time></trkpt><trkpt lat="44.734100774346395" lon="8.844002888619455"><ele>216.75</ele><time>2026-03-29T08:51:53Z</time></trkpt><trkpt lat="44.733983231183046" lon="8.843959509466274"><ele>218.0</ele><time>2026-03-29T08:51:54Z</time></trkpt><trkpt lat="44.73386829214372" lon="8.84396771527133"><ele>218.0</ele><time>2026-03-29T08:51:55Z</time></trkpt><trkpt lat="44.73374563954175" lon="8.844030419069501"><ele>218.0</ele><time>2026-03-29T08:51:56Z</time></trkpt><trkpt lat="44.73362446732082" lon="8.844153358816094"><ele>218.0</ele><time>2026-03-29T08:51:57Z</time></trkpt><trkpt lat="44.73352397011948" lon="8.844335508854272"><ele>218.0</ele><time>2026-03-29T08:51:58Z</time></trkpt><trkpt lat="44.73341936405093" lon="8.844520223778039"><ele>217.33333333333334</ele><time>2026-03-29T08:51:59Z</time></trkpt><trkpt lat="44.733325282317224" lon="8.84472375494079"><ele>216.66666666666669</ele><time>2026-03-29T08:52:00Z</time></trkpt><trkpt lat="44.73321728012152" lon="8.844936667753037"><ele>216.0</ele><time>2026-03-29T08:52:01Z</time></trkpt><trkpt lat="44.73311015697234" lon="8.845150957792045"><ele>215.33333333333331</ele><time>2026-03-29T08:52:02Z</time></trkpt><trkpt lat="44.733010730605905" lon="8.845362391760291"><ele>214.66666666666666</ele><time>2026-03-29T08:52:03Z</time></trkpt><trkpt lat="44.73291156825432" lon="8.845563276356643"><ele>214.0</ele><time>2026-03-29T08:52:04Z</time></trkpt><trkpt lat="44.73281580611777" lon="8.845765301057703"><ele>214.0</ele><time>2026-03-29T08:52:05Z</time></trkpt><trkpt lat="44.732720232791245" lon="8.845961567860503"><ele>214.0</ele><time>2026-03-29T08:52:06Z</time></trkpt><trkpt lat="44.73262554158268" lon="8.846166518462368"><ele>214.0</ele><time>2026-03-29T08:52:07Z</time></trkpt><trkpt lat="44.73252367580398" lon="8.846367119006759"><ele>214.0</ele><time>2026-03-29T08:52:08Z</time></trkpt><trkpt lat="44.73242516546126" lon="8.846558621511804"><ele>214.0</ele><time>2026-03-29T08:52:09Z</time></trkpt><trkpt lat="44.73233250002519" lon="8.846739647825869"><ele>214.0</ele><time>2026-03-29T08:52:10Z</time></trkpt><trkpt lat="44.732242759744935" lon="8.846918321006912"><ele>214.0</ele><time>2026-03-29T08:52:11Z</time></trkpt><trkpt lat="44.73214890451107" lon="8.847098957853847"><ele>214.0</ele><time>2026-03-29T08:52:12Z</time></trkpt><trkpt lat="44.73206321629579" lon="8.847245738877396"><ele>214.0</ele><time>2026-03-29T08:52:13Z</time></trkpt><trkpt lat="44.73194968368448" lon="8.847484706582788"><ele>214.25</ele><time>2026-03-29T08:52:14Z</time></trkpt><trkpt lat="44.731865751005735" lon="8.847652703194557"><ele>214.5</ele><time>2026-03-29T08:52:15Z</time></trkpt><trkpt lat="44.73178792597428" lon="8.8478198355436"><ele>214.75</ele><time>2026-03-29T08:52:16Z</time></trkpt><trkpt lat="44.73170726781294" lon="8.847984800280118"><ele>215.0</ele><time>2026-03-29T08:52:17Z</time></trkpt><trkpt lat="44.731625332276664" lon="8.848150779203333"><ele>215.0</ele><time>2026-03-29T08:52:18Z</time></trkpt><trkpt lat="44.73154786874037" lon="8.848311677705727"><ele>215.0</ele><time>2026-03-29T08:52:19Z</time></trkpt><trkpt lat="44.73147302376588" lon="8.8484652725326"><ele>215.0</ele><time>2026-03-29T08:52:20Z</time></trkpt><trkpt lat="44.73139645605161" lon="8.84862076401799"><ele>215.0</ele><time>2026-03-29T08:52:21Z</time></trkpt><trkpt lat="44.73132351687461" lon="8.848770984163252"><ele>215.0</ele><time>2026-03-29T08:52:22Z</time></trkpt><trkpt lat="44.731249536044814" lon="8.848921208862178"><ele>215.0</ele><time>2026-03-29T08:52:23Z</time></trkpt><trkpt lat="44.73117516869532" lon="8.84906493531717"><ele>215.0</ele><time>2026-03-29T08:52:24Z</time></trkpt><trkpt lat="44.73110352448789" lon="8.849201989078567"><ele>215.0</ele><time>2026-03-29T08:52:25Z</time></trkpt><trkpt lat="44.731035244770766" lon="8.8493490569912"><ele>215.25</ele><time>2026-03-29T08:52:26Z</time></trkpt><trkpt lat="44.730956059107555" lon="8.849495301661909"><ele>215.5</ele><time>2026-03-29T08:52:27Z</time></trkpt><trkpt lat="44.730879075709815" lon="8.849636653454914"><ele>215.75</ele><time>2026-03-29T08:52:28Z</time></trkpt><trkpt lat="44.73080950189882" lon="8.849772601648924"><ele>216.0</ele><time>2026-03-29T08:52:29Z</time></trkpt><trkpt lat="44.730757149084866" lon="8.84990105464854"><ele>216.0</ele><time>2026-03-29T08:52:30Z</time></trkpt><trkpt lat="44.73070610707514" lon="8.850029451657203"><ele>216.00000000000003</ele><time>2026-03-29T08:52:31Z</time></trkpt><trkpt lat="44.73065968332464" lon="8.850155709594786"><ele>216.00000000000003</ele><time>2026-03-29T08:52:32Z</time></trkpt><trkpt lat="44.73062038765168" lon="8.850345151133174"><ele>216.0</ele><time>2026-03-29T08:52:33Z</time></trkpt><trkpt lat="44.73059605231428" lon="8.850485859116047"><ele>216.0</ele><time>2026-03-29T08:52:34Z</time></trkpt><trkpt lat="44.73056497073504" lon="8.85061156410871"><ele>216.16666666666666</ele><time>2026-03-29T08:52:35Z</time></trkpt><trkpt lat="44.73052734663694" lon="8.850719505183749"><ele>216.33333333333331</ele><time>2026-03-29T08:52:36Z</time></trkpt><trkpt lat="44.730475642266406" lon="8.850792252286116"><ele>216.5</ele><time>2026-03-29T08:52:37Z</time></trkpt><trkpt lat="44.730388582159755" lon="8.850824818456116"><ele>216.66666666666666</ele><time>2026-03-29T08:52:39Z</time></trkpt><trkpt lat="44.73031017886584" lon="8.850790322364217"><ele>216.83333333333331</ele><time>2026-03-29T08:52:42.999Z</time></trkpt><trkpt lat="44.730229394085214" lon="8.8507290537056"><ele>217.0</ele><time>2026-03-29T08:52:44.999Z</time></trkpt><trkpt lat="44.73017099051012" lon="8.850694846853761"><ele>217.0</ele><time>2026-03-29T08:52:45.999Z</time></trkpt><trkpt lat="44.730107662599195" lon="8.850660853997677"><ele>217.0</ele><time>2026-03-29T08:52:46.999Z</time></trkpt><trkpt lat="44.72999643844339" lon="8.850650371215925"><ele>217.0</ele><time>2026-03-29T08:52:48.999Z</time></trkpt><trkpt lat="44.72987906780072" lon="8.850728156303122"><ele>217.0</ele><time>2026-03-29T08:52:50.999Z</time></trkpt><trkpt lat="44.72982239764909" lon="8.850792815900165"><ele>217.0</ele><time>2026-03-29T08:52:51.999Z</time></trkpt><trkpt lat="44.72978096152154" lon="8.850895036758343"><ele>216.99999999999997</ele><time>2026-03-29T08:52:52.999Z</time></trkpt><trkpt lat="44.7296780069096" lon="8.85093718222331"><ele>217.0</ele><time>2026-03-29T08:52:53.999Z</time></trkpt><trkpt lat="44.72960433009697" lon="8.850987569299972"><ele>217.0</ele><time>2026-03-29T08:52:54.999Z</time></trkpt><trkpt lat="44.72954388611831" lon="8.851022318954916"><ele>217.0</ele><time>2026-03-29T08:52:55.999Z</time></trkpt><trkpt lat="44.72948597057284" lon="8.851094075015697"><ele>216.99999999999997</ele><time>2026-03-29T08:52:56.999Z</time></trkpt><trkpt lat="44.72944310625448" lon="8.851186087610289"><ele>217.0</ele><time>2026-03-29T08:52:57.999Z</time></trkpt><trkpt lat="44.72941046921778" lon="8.851281140982996"><ele>217.33333333333331</ele><time>2026-03-29T08:52:58.999Z</time></trkpt><trkpt lat="44.729385241643485" lon="8.851374917246282"><ele>217.66666666666666</ele><time>2026-03-29T08:52:59.999Z</time></trkpt><trkpt lat="44.72935930447371" lon="8.851455905452115"><ele>218.0</ele><time>2026-03-29T08:53:00.999Z</time></trkpt><trkpt lat="44.72932981572755" lon="8.8515715165623"><ele>218.33333333333331</ele><time>2026-03-29T08:53:01.999Z</time></trkpt><trkpt lat="44.7292921155881" lon="8.851694587109721"><ele>218.66666666666666</ele><time>2026-03-29T08:53:02.999Z</time></trkpt><trkpt lat="44.72925626832603" lon="8.851802517875724"><ele>219.0</ele><time>2026-03-29T08:53:03.999Z</time></trkpt><trkpt lat="44.72922608235452" lon="8.851898458277432"><ele>218.33333333333334</ele><time>2026-03-29T08:53:04.999Z</time></trkpt><trkpt lat="44.729196206308565" lon="8.85198813741266"><ele>217.66666666666669</ele><time>2026-03-29T08:53:05.999Z</time></trkpt><trkpt lat="44.72916617039293" lon="8.852068124443061"><ele>217.0</ele><time>2026-03-29T08:53:06.999Z</time></trkpt><trkpt lat="44.72912459342959" lon="8.852153536885337"><ele>216.33333333333334</ele><time>2026-03-29T08:53:07.999Z</time></trkpt><trkpt lat="44.72905773382471" lon="8.852229993364833"><ele>215.66666666666669</ele><time>2026-03-29T08:53:08.999Z</time></trkpt><trkpt lat="44.72898765579086" lon="8.852304092412936"><ele>215.0</ele><time>2026-03-29T08:53:09.999Z</time></trkpt><trkpt lat="44.7289282670713" lon="8.852373267989028"><ele>215.00000000000003</ele><time>2026-03-29T08:53:10.999Z</time></trkpt><trkpt lat="44.72884616551387" lon="8.852495045039744"><ele>215.0</ele><time>2026-03-29T08:53:12.999Z</time></trkpt><trkpt lat="44.72880188081257" lon="8.852563507085385"><ele>215.0</ele><time>2026-03-29T08:53:13.999Z</time></trkpt><trkpt lat="44.7287510225996" lon="8.852651028278647"><ele>215.0</ele><time>2026-03-29T08:53:14.999Z</time></trkpt><trkpt lat="44.728699511005324" lon="8.852749082655995"><ele>215.00000000000003</ele><time>2026-03-29T08:53:15.999Z</time></trkpt><trkpt lat="44.72865476334111" lon="8.852864494743732"><ele>215.0</ele><time>2026-03-29T08:53:16.999Z</time></trkpt><trkpt lat="44.72861542521981" lon="8.852981788095821"><ele>215.0</ele><time>2026-03-29T08:53:17.999Z</time></trkpt><trkpt lat="44.72857241611137" lon="8.853101731074586"><ele>215.0</ele><time>2026-03-29T08:53:18.999Z</time></trkpt><trkpt lat="44.72853160122418" lon="8.853212016272984"><ele>215.0</ele><time>2026-03-29T08:53:19.999Z</time></trkpt><trkpt lat="44.72849597692781" lon="8.85330886134282"><ele>215.0</ele><time>2026-03-29T08:53:20.999Z</time></trkpt><trkpt lat="44.72846161623937" lon="8.85339710457345"><ele>215.0</ele><time>2026-03-29T08:53:21.999Z</time></trkpt><trkpt lat="44.72838527919614" lon="8.85352512819681"><ele>215.50000000000003</ele><time>2026-03-29T08:53:23.999Z</time></trkpt><trkpt lat="44.72832498019264" lon="8.853583288801541"><ele>216.0</ele><time>2026-03-29T08:53:24.999Z</time></trkpt><trkpt lat="44.72826460086652" lon="8.853630461158117"><ele>216.5</ele><time>2026-03-29T08:53:25.999Z</time></trkpt><trkpt lat="44.72820753118732" lon="8.853672199921796"><ele>217.0</ele><time>2026-03-29T08:53:26.999Z</time></trkpt><trkpt lat="44.7281110893945" lon="8.853743582410452"><ele>217.50000000000003</ele><time>2026-03-29T08:53:28.999Z</time></trkpt><trkpt lat="44.727995151823585" lon="8.853837450620002"><ele>218.0</ele><time>2026-03-29T08:53:30.999Z</time></trkpt><trkpt lat="44.72791717567116" lon="8.853893944252343"><ele>218.0</ele><time>2026-03-29T08:53:31.999Z</time></trkpt><trkpt lat="44.72782770283492" lon="8.853958031956692"><ele>218.0</ele><time>2026-03-29T08:53:32.999Z</time></trkpt><trkpt lat="44.72773934028377" lon="8.854032414963468"><ele>218.0</ele><time>2026-03-29T08:53:33.999Z</time></trkpt><trkpt lat="44.72765443234576" lon="8.854096564910009"><ele>218.0</ele><time>2026-03-29T08:53:34.999Z</time></trkpt><trkpt lat="44.727581728550476" lon="8.854153950496853"><ele>218.0</ele><time>2026-03-29T08:53:35.999Z</time></trkpt><trkpt lat="44.72751265849498" lon="8.854210431503027"><ele>217.83333333333334</ele><time>2026-03-29T08:53:36.999Z</time></trkpt><trkpt lat="44.72745239404659" lon="8.854259883273736"><ele>217.66666666666669</ele><time>2026-03-29T08:53:37.999Z</time></trkpt><trkpt lat="44.72738545905619" lon="8.854306599482774"><ele>217.5</ele><time>2026-03-29T08:53:38.999Z</time></trkpt><trkpt lat="44.727314291309455" lon="8.85436185501602"><ele>217.33333333333331</ele><time>2026-03-29T08:53:39.999Z</time></trkpt><trkpt lat="44.72724709806265" lon="8.854418573947445"><ele>217.16666666666666</ele><time>2026-03-29T08:53:40.999Z</time></trkpt><trkpt lat="44.72717203492338" lon="8.85447954511255"><ele>217.0</ele><time>2026-03-29T08:53:41.999Z</time></trkpt><trkpt lat="44.72709245184867" lon="8.854555242933708"><ele>216.99999999999997</ele><time>2026-03-29T08:53:42.999Z</time></trkpt><trkpt lat="44.72701043660899" lon="8.854623582547715"><ele>217.0</ele><time>2026-03-29T08:53:43.999Z</time></trkpt><trkpt lat="44.72693168868247" lon="8.85468561934733"><ele>217.0</ele><time>2026-03-29T08:53:44.999Z</time></trkpt><trkpt lat="44.726851770494704" lon="8.854739539394089"><ele>217.0</ele><time>2026-03-29T08:53:45.999Z</time></trkpt><trkpt lat="44.726777046482844" lon="8.85479632482246"><ele>216.99999999999997</ele><time>2026-03-29T08:53:46.999Z</time></trkpt><trkpt lat="44.726700932079694" lon="8.854860740807757"><ele>217.0</ele><time>2026-03-29T08:53:47.999Z</time></trkpt><trkpt lat="44.72661678312856" lon="8.854917311200051"><ele>217.83333333333331</ele><time>2026-03-29T08:53:48.999Z</time></trkpt><trkpt lat="44.72654214701826" lon="8.854986386570523"><ele>218.66666666666666</ele><time>2026-03-29T08:53:49.999Z</time></trkpt><trkpt lat="44.726467508714826" lon="8.855051942134377"><ele>219.5</ele><time>2026-03-29T08:53:50.999Z</time></trkpt><trkpt lat="44.72638915268647" lon="8.855109110578963"><ele>220.33333333333331</ele><time>2026-03-29T08:53:51.999Z</time></trkpt><trkpt lat="44.726320639937974" lon="8.855165691349795"><ele>221.16666666666666</ele><time>2026-03-29T08:53:52.999Z</time></trkpt><trkpt lat="44.72625030732691" lon="8.855220731156955"><ele>222.0</ele><time>2026-03-29T08:53:53.999Z</time></trkpt><trkpt lat="44.7261900499483" lon="8.855272017405676"><ele>222.0</ele><time>2026-03-29T08:53:54.999Z</time></trkpt><trkpt lat="44.72612695710649" lon="8.855314175426985"><ele>222.0</ele><time>2026-03-29T08:53:55.999Z</time></trkpt><trkpt lat="44.72605950744897" lon="8.855373391933194"><ele>222.0</ele><time>2026-03-29T08:53:56.999Z</time></trkpt><trkpt lat="44.72599309954261" lon="8.85542598687066"><ele>222.0</ele><time>2026-03-29T08:53:57.999Z</time></trkpt><trkpt lat="44.72593494935605" lon="8.855477088082441"><ele>222.0</ele><time>2026-03-29T08:53:58.999Z</time></trkpt><trkpt lat="44.72586607045565" lon="8.855523068473099"><ele>222.0</ele><time>2026-03-29T08:53:59.999Z</time></trkpt><trkpt lat="44.72580261508175" lon="8.855573942991848"><ele>222.0</ele><time>2026-03-29T08:54:00.999Z</time></trkpt><trkpt lat="44.725748618136265" lon="8.855620344324848"><ele>222.0</ele><time>2026-03-29T08:54:01.999Z</time></trkpt><trkpt lat="44.72569618699866" lon="8.855674694182644"><ele>222.0</ele><time>2026-03-29T08:54:02.999Z</time></trkpt><trkpt lat="44.72563621310364" lon="8.855737013474345"><ele>222.0</ele><time>2026-03-29T08:54:03.999Z</time></trkpt><trkpt lat="44.725529474638414" lon="8.85580099239196"><ele>222.0</ele><time>2026-03-29T08:54:05.999Z</time></trkpt><trkpt lat="44.72547478334215" lon="8.855846160074703"><ele>222.0</ele><time>2026-03-29T08:54:06.999Z</time></trkpt><trkpt lat="44.72540239039331" lon="8.855919039823688"><ele>222.0</ele><time>2026-03-29T08:54:09Z</time></trkpt><trkpt lat="44.72534079317414" lon="8.855966032087945"><ele>222.0</ele><time>2026-03-29T08:54:11Z</time></trkpt><trkpt lat="44.72527007033768" lon="8.856038089604755"><ele>222.0</ele><time>2026-03-29T08:54:14Z</time></trkpt><trkpt lat="44.72520185074697" lon="8.856079830956151"><ele>222.0</ele><time>2026-03-29T08:54:17Z</time></trkpt><trkpt lat="44.72514306235516" lon="8.856115932695921"><ele>222.0</ele><time>2026-03-29T08:54:19Z</time></trkpt><trkpt lat="44.72504414783402" lon="8.856198285089937"><ele>222.0</ele><time>2026-03-29T08:54:21Z</time></trkpt><trkpt lat="44.72498703228605" lon="8.856242828737242"><ele>222.0</ele><time>2026-03-29T08:54:22Z</time></trkpt><trkpt lat="44.72492599790883" lon="8.856273926051383"><ele>222.0</ele><time>2026-03-29T08:54:24Z</time></trkpt><trkpt lat="44.72488823273651" lon="8.856355883234388"><ele>222.0</ele><time>2026-03-29T08:54:54Z</time></trkpt><trkpt lat="44.72494365460876" lon="8.85630760497833"><ele>222.0</ele><time>2026-03-29T08:55:14Z</time></trkpt><trkpt lat="44.72500042459014" lon="8.856261986528526"><ele>222.0</ele><time>2026-03-29T08:55:15Z</time></trkpt><trkpt lat="44.72521044681155" lon="8.856167199878811"><ele>222.0</ele><time>2026-03-29T08:55:16Z</time></trkpt><trkpt lat="44.72526491164181" lon="8.85607000938002"><ele>222.0</ele><time>2026-03-29T08:55:19Z</time></trkpt><trkpt lat="44.725334211762984" lon="8.85601890453018"><ele>222.0</ele><time>2026-03-29T08:55:22Z</time></trkpt><trkpt lat="44.725453247552394" lon="8.855928838072678"><ele>222.0</ele><time>2026-03-29T08:55:24Z</time></trkpt><trkpt lat="44.72552285097895" lon="8.855872866447092"><ele>222.0</ele><time>2026-03-29T08:55:25Z</time></trkpt><trkpt lat="44.72558725102567" lon="8.85582544130371"><ele>222.0</ele><time>2026-03-29T08:55:26Z</time></trkpt><trkpt lat="44.72566782479773" lon="8.85576235093134"><ele>222.0</ele><time>2026-03-29T08:55:27Z</time></trkpt><trkpt lat="44.72575444214638" lon="8.855695417414672"><ele>222.0</ele><time>2026-03-29T08:55:28Z</time></trkpt><trkpt lat="44.72584045709883" lon="8.855632868224026"><ele>222.0</ele><time>2026-03-29T08:55:29Z</time></trkpt><trkpt lat="44.72591665798935" lon="8.855574398800739"><ele>222.0</ele><time>2026-03-29T08:55:30Z</time></trkpt><trkpt lat="44.72600107397053" lon="8.85550067791306"><ele>222.0</ele><time>2026-03-29T08:55:31Z</time></trkpt><trkpt lat="44.726092092877195" lon="8.855421484402434"><ele>222.0</ele><time>2026-03-29T08:55:32Z</time></trkpt><trkpt lat="44.726180786738205" lon="8.85535343478487"><ele>222.0</ele><time>2026-03-29T08:55:33Z</time></trkpt><trkpt lat="44.72625828714275" lon="8.855292047440232"><ele>222.0</ele><time>2026-03-29T08:55:34Z</time></trkpt><trkpt lat="44.726330319541255" lon="8.855221727027716"><ele>222.0</ele><time>2026-03-29T08:55:35Z</time></trkpt><trkpt lat="44.726406023262285" lon="8.855156806407026"><ele>222.0</ele><time>2026-03-29T08:55:36Z</time></trkpt><trkpt lat="44.72647899907525" lon="8.855095362108893"><ele>222.28571428571428</ele><time>2026-03-29T08:55:37Z</time></trkpt><trkpt lat="44.72654641416965" lon="8.855040382144022"><ele>222.57142857142858</ele><time>2026-03-29T08:55:38Z</time></trkpt><trkpt lat="44.72660803790782" lon="8.854992007478042"><ele>222.85714285714286</ele><time>2026-03-29T08:55:39Z</time></trkpt><trkpt lat="44.72667354741122" lon="8.854944398413698"><ele>223.14285714285714</ele><time>2026-03-29T08:55:40Z</time></trkpt><trkpt lat="44.726739737719704" lon="8.854889565439096"><ele>223.42857142857144</ele><time>2026-03-29T08:55:41Z</time></trkpt><trkpt lat="44.72681665420949" lon="8.854870457608323"><ele>223.71428571428572</ele><time>2026-03-29T08:55:41.999Z</time></trkpt><trkpt lat="44.726873850919795" lon="8.854824812009387"><ele>224.0</ele><time>2026-03-29T08:55:42.999Z</time></trkpt><trkpt lat="44.72698546939622" lon="8.85473573523811"><ele>222.83333333333334</ele><time>2026-03-29T08:55:44.999Z</time></trkpt><trkpt lat="44.72705059102341" lon="8.854684080016995"><ele>221.66666666666669</ele><time>2026-03-29T08:55:45.999Z</time></trkpt><trkpt lat="44.727118935057085" lon="8.854629848212308"><ele>220.5</ele><time>2026-03-29T08:55:46.999Z</time></trkpt><trkpt lat="44.72717286734046" lon="8.854531539546217"><ele>219.33333333333331</ele><time>2026-03-29T08:55:47.999Z</time></trkpt><trkpt lat="44.727245854565425" lon="8.854472314962551"><ele>218.16666666666666</ele><time>2026-03-29T08:55:48.999Z</time></trkpt><trkpt lat="44.72731708493638" lon="8.85441587956639"><ele>217.0</ele><time>2026-03-29T08:55:49.999Z</time></trkpt><trkpt lat="44.72738042620886" lon="8.85437019612402"><ele>216.99999999999997</ele><time>2026-03-29T08:55:50.999Z</time></trkpt><trkpt lat="44.72744674311561" lon="8.854316011305894"><ele>217.0</ele><time>2026-03-29T08:55:51.999Z</time></trkpt><trkpt lat="44.72751985949646" lon="8.854254951084767"><ele>217.0</ele><time>2026-03-29T08:55:52.999Z</time></trkpt><trkpt lat="44.7275918961767" lon="8.85419990544259"><ele>217.0</ele><time>2026-03-29T08:55:53.999Z</time></trkpt><trkpt lat="44.72766794931596" lon="8.854193163443744"><ele>216.99999999999997</ele><time>2026-03-29T08:55:54.999Z</time></trkpt><trkpt lat="44.727766057126324" lon="8.854115046517245"><ele>217.0</ele><time>2026-03-29T08:55:56.999Z</time></trkpt><trkpt lat="44.72785721844007" lon="8.854042410868477"><ele>217.16666666666666</ele><time>2026-03-29T08:55:57.999Z</time></trkpt><trkpt lat="44.727926522730876" lon="8.853987190368576"><ele>217.33333333333331</ele><time>2026-03-29T08:55:58.999Z</time></trkpt><trkpt lat="44.727985206731546" lon="8.853875938071193"><ele>217.5</ele><time>2026-03-29T08:55:59.999Z</time></trkpt><trkpt lat="44.72807324672291" lon="8.853810606021117"><ele>217.66666666666669</ele><time>2026-03-29T08:56:00.999Z</time></trkpt><trkpt lat="44.72814900448441" lon="8.853742680273706"><ele>217.83333333333334</ele><time>2026-03-29T08:56:01.999Z</time></trkpt><trkpt lat="44.72821860162908" lon="8.853690325623877"><ele>218.0</ele><time>2026-03-29T08:56:02.999Z</time></trkpt><trkpt lat="44.728289405729384" lon="8.85364136345341"><ele>218.0</ele><time>2026-03-29T08:56:03.999Z</time></trkpt><trkpt lat="44.72836842373055" lon="8.85356731264444"><ele>218.0</ele><time>2026-03-29T08:56:04.999Z</time></trkpt><trkpt lat="44.72845306087466" lon="8.853489750507238"><ele>218.0</ele><time>2026-03-29T08:56:05.999Z</time></trkpt><trkpt lat="44.72854212405404" lon="8.853413750159099"><ele>218.0</ele><time>2026-03-29T08:56:06.999Z</time></trkpt><trkpt lat="44.72862042036919" lon="8.853335431425123"><ele>218.0</ele><time>2026-03-29T08:56:07.999Z</time></trkpt><trkpt lat="44.72868943463084" lon="8.853255536000471"><ele>217.4</ele><time>2026-03-29T08:56:08.999Z</time></trkpt><trkpt lat="44.728760778043885" lon="8.85316855926539"><ele>216.8</ele><time>2026-03-29T08:56:09.999Z</time></trkpt><trkpt lat="44.728833162808705" lon="8.85306721341844"><ele>216.2</ele><time>2026-03-29T08:56:10.999Z</time></trkpt><trkpt lat="44.728899059279605" lon="8.85295399067338"><ele>215.6</ele><time>2026-03-29T08:56:11.999Z</time></trkpt><trkpt lat="44.728960902416475" lon="8.852836127158398"><ele>215.0</ele><time>2026-03-29T08:56:12.999Z</time></trkpt><trkpt lat="44.72901686426527" lon="8.852714088308295"><ele>215.00000000000003</ele><time>2026-03-29T08:56:13.999Z</time></trkpt><trkpt lat="44.729064075529614" lon="8.85259933030207"><ele>215.0</ele><time>2026-03-29T08:56:14.999Z</time></trkpt><trkpt lat="44.72909161116888" lon="8.85249707833685"><ele>215.0</ele><time>2026-03-29T08:56:15.999Z</time></trkpt><trkpt lat="44.72910647695075" lon="8.852397213248882"><ele>215.0</ele><time>2026-03-29T08:56:16.999Z</time></trkpt><trkpt lat="44.729113735600436" lon="8.852278873824991"><ele>215.00000000000003</ele><time>2026-03-29T08:56:18.999Z</time></trkpt><trkpt lat="44.72910903607539" lon="8.852162763001614"><ele>215.0</ele><time>2026-03-29T08:56:22Z</time></trkpt><trkpt lat="44.72912221569377" lon="8.851980319429382"><ele>215.0</ele><time>2026-03-29T08:56:24Z</time></trkpt><trkpt lat="44.72913834713318" lon="8.851863791047013"><ele>215.0</ele><time>2026-03-29T08:56:25Z</time></trkpt><trkpt lat="44.729120326465804" lon="8.851732025294913"><ele>215.0</ele><time>2026-03-29T08:56:26Z</time></trkpt><trkpt lat="44.72907479173845" lon="8.851617846873292"><ele>215.0</ele><time>2026-03-29T08:56:27Z</time></trkpt><trkpt lat="44.72903579044294" lon="8.851480130671094"><ele>215.0</ele><time>2026-03-29T08:56:28Z</time></trkpt><trkpt lat="44.72896940875912" lon="8.851329900677873"><ele>216.0</ele><time>2026-03-29T08:56:29Z</time></trkpt><trkpt lat="44.72887753560009" lon="8.85119829449976"><ele>217.0</ele><time>2026-03-29T08:56:30Z</time></trkpt><trkpt lat="44.728778881670884" lon="8.851072001764308"><ele>218.0</ele><time>2026-03-29T08:56:31Z</time></trkpt><trkpt lat="44.72869761049568" lon="8.850957195119385"><ele>219.0</ele><time>2026-03-29T08:56:32Z</time></trkpt><trkpt lat="44.728627662261815" lon="8.850856398424684"><ele>221.79999999999998</ele><time>2026-03-29T08:56:33Z</time></trkpt><trkpt lat="44.72855200423662" lon="8.850744383708973"><ele>224.59999999999997</ele><time>2026-03-29T08:56:34Z</time></trkpt><trkpt lat="44.728469779944" lon="8.850631508176255"><ele>227.4</ele><time>2026-03-29T08:56:35Z</time></trkpt><trkpt lat="44.728387616110346" lon="8.850524913033965"><ele>230.2</ele><time>2026-03-29T08:56:36Z</time></trkpt><trkpt lat="44.72830974039019" lon="8.850433754286055"><ele>233.0</ele><time>2026-03-29T08:56:37Z</time></trkpt><trkpt lat="44.7282351368037" lon="8.850362746040682"><ele>233.00000000000003</ele><time>2026-03-29T08:56:38Z</time></trkpt><trkpt lat="44.728176150432944" lon="8.850316131880989"><ele>233.0</ele><time>2026-03-29T08:56:39Z</time></trkpt><trkpt lat="44.728119127301575" lon="8.850270567567314"><ele>233.0</ele><time>2026-03-29T08:56:40Z</time></trkpt><trkpt lat="44.728062393580885" lon="8.850227627915274"><ele>233.0</ele><time>2026-03-29T08:56:41Z</time></trkpt><trkpt lat="44.72795166392366" lon="8.850145836906325"><ele>233.00000000000003</ele><time>2026-03-29T08:56:43Z</time></trkpt><trkpt lat="44.72788141080311" lon="8.850076136123292"><ele>233.0</ele><time>2026-03-29T08:56:45Z</time></trkpt><trkpt lat="44.72785842962426" lon="8.849984255796368"><ele>232.8</ele><time>2026-03-29T08:56:48Z</time></trkpt><trkpt lat="44.727928662535696" lon="8.849941991591404"><ele>232.60000000000002</ele><time>2026-03-29T08:56:50Z</time></trkpt><trkpt lat="44.72778583373669" lon="8.84981641335337"><ele>232.39999999999998</ele><time>2026-03-29T08:56:51Z</time></trkpt><trkpt lat="44.727723994309486" lon="8.849734771294532"><ele>232.2</ele><time>2026-03-29T08:56:52Z</time></trkpt><trkpt lat="44.72764858036423" lon="8.849686581611923"><ele>232.0</ele><time>2026-03-29T08:56:53Z</time></trkpt><trkpt lat="44.72758120012935" lon="8.849644139276574"><ele>232.33333333333331</ele><time>2026-03-29T08:56:54Z</time></trkpt><trkpt lat="44.72750505362154" lon="8.849594165682735"><ele>232.66666666666666</ele><time>2026-03-29T08:56:55Z</time></trkpt><trkpt lat="44.72743925924694" lon="8.849540782938547"><ele>233.0</ele><time>2026-03-29T08:56:56Z</time></trkpt><trkpt lat="44.727334851131594" lon="8.84949711062955"><ele>233.33333333333331</ele><time>2026-03-29T08:56:58Z</time></trkpt><trkpt lat="44.72726622397477" lon="8.849516327785041"><ele>233.66666666666666</ele><time>2026-03-29T08:57:01Z</time></trkpt><trkpt lat="44.727207964640776" lon="8.849459421021963"><ele>234.0</ele><time>2026-03-29T08:57:09Z</time></trkpt><trkpt lat="44.727155639775646" lon="8.84933433102551"><ele>234.25</ele><time>2026-03-29T08:57:11Z</time></trkpt><trkpt lat="44.727083052148515" lon="8.849280474353968"><ele>234.5</ele><time>2026-03-29T08:57:13Z</time></trkpt><trkpt lat="44.72710670929634" lon="8.849068162208141"><ele>234.75</ele><time>2026-03-29T08:57:14Z</time></trkpt><trkpt lat="44.726999581586504" lon="8.849215093505238"><ele>235.0</ele><time>2026-03-29T08:57:16Z</time></trkpt><trkpt lat="44.72698519513235" lon="8.84910315293141"><ele>235.0</ele><time>2026-03-29T08:57:18Z</time></trkpt><trkpt lat="44.72696937022634" lon="8.84897070488611"><ele>235.0</ele><time>2026-03-29T08:57:20Z</time></trkpt><trkpt lat="44.72690396816367" lon="8.84883493076168"><ele>235.0</ele><time>2026-03-29T08:57:22Z</time></trkpt><trkpt lat="44.726814215958086" lon="8.848699074673734"><ele>235.0</ele><time>2026-03-29T08:57:24Z</time></trkpt><trkpt lat="44.72676842924366" lon="8.848618160747511"><ele>235.0</ele><time>2026-03-29T08:57:25Z</time></trkpt><trkpt lat="44.726717159169645" lon="8.84853104716632"><ele>235.49999999999997</ele><time>2026-03-29T08:57:26Z</time></trkpt><trkpt lat="44.72666338774511" lon="8.848435260690058"><ele>236.0</ele><time>2026-03-29T08:57:27Z</time></trkpt><trkpt lat="44.72660687904784" lon="8.848331977330774"><ele>236.5</ele><time>2026-03-29T08:57:28Z</time></trkpt><trkpt lat="44.72655417896612" lon="8.848235372968958"><ele>237.0</ele><time>2026-03-29T08:57:29Z</time></trkpt><trkpt lat="44.726505650050846" lon="8.848139858070095"><ele>237.49999999999997</ele><time>2026-03-29T08:57:30Z</time></trkpt><trkpt lat="44.72644843810285" lon="8.848034724438792"><ele>238.0</ele><time>2026-03-29T08:57:31Z</time></trkpt><trkpt lat="44.72638362583779" lon="8.8479207720881"><ele>238.0</ele><time>2026-03-29T08:57:32Z</time></trkpt><trkpt lat="44.7263165754893" lon="8.847799189302721"><ele>238.0</ele><time>2026-03-29T08:57:33Z</time></trkpt><trkpt lat="44.726245921768125" lon="8.847664890228108"><ele>238.0</ele><time>2026-03-29T08:57:34Z</time></trkpt><trkpt lat="44.72617503678472" lon="8.847529706316065"><ele>238.0</ele><time>2026-03-29T08:57:35Z</time></trkpt><trkpt lat="44.72610429798599" lon="8.847401262206683"><ele>238.60000000000002</ele><time>2026-03-29T08:57:36Z</time></trkpt><trkpt lat="44.726038372702746" lon="8.847280505402102"><ele>239.20000000000002</ele><time>2026-03-29T08:57:37Z</time></trkpt><trkpt lat="44.72599665991602" lon="8.84718621070048"><ele>239.8</ele><time>2026-03-29T08:57:38Z</time></trkpt><trkpt lat="44.725911348342834" lon="8.847073737653306"><ele>240.4</ele><time>2026-03-29T09:00:05.001Z</time></trkpt><trkpt lat="44.72585463111382" lon="8.84700947012898"><ele>241.0</ele><time>2026-03-29T09:00:06.001Z</time></trkpt><trkpt lat="44.725794118209215" lon="8.846929223807331"><ele>240.99999999999997</ele><time>2026-03-29T09:00:07.001Z</time></trkpt><trkpt lat="44.7257365676082" lon="8.846853286124526"><ele>241.0</ele><time>2026-03-29T09:00:08.001Z</time></trkpt><trkpt lat="44.72567672115792" lon="8.84679302828326"><ele>241.0</ele><time>2026-03-29T09:00:09.001Z</time></trkpt><trkpt lat="44.72560976763216" lon="8.846740910639136"><ele>241.0</ele><time>2026-03-29T09:00:10.001Z</time></trkpt><trkpt lat="44.725536095981425" lon="8.846701025043746"><ele>240.99999999999997</ele><time>2026-03-29T09:00:11.001Z</time></trkpt><trkpt lat="44.72543666257204" lon="8.846661339661404"><ele>241.0</ele><time>2026-03-29T09:00:12.001Z</time></trkpt><trkpt lat="44.7253140530551" lon="8.846631449113612"><ele>241.75</ele><time>2026-03-29T09:00:13.001Z</time></trkpt><trkpt lat="44.72518194244307" lon="8.846619474380436"><ele>242.5</ele><time>2026-03-29T09:00:14Z</time></trkpt><trkpt lat="44.72506679604309" lon="8.846630241865359"><ele>243.25</ele><time>2026-03-29T09:00:15Z</time></trkpt><trkpt lat="44.72495728283772" lon="8.846651346466277"><ele>244.0</ele><time>2026-03-29T09:00:16Z</time></trkpt><trkpt lat="44.72483690704243" lon="8.846670983398491"><ele>244.0</ele><time>2026-03-29T09:00:17Z</time></trkpt><trkpt lat="44.724704824619266" lon="8.846688481994534"><ele>244.0</ele><time>2026-03-29T09:00:18Z</time></trkpt><trkpt lat="44.724564263002364" lon="8.846705622449425"><ele>244.0</ele><time>2026-03-29T09:00:19Z</time></trkpt><trkpt lat="44.72441459028546" lon="8.846729822718535"><ele>244.0</ele><time>2026-03-29T09:00:20Z</time></trkpt><trkpt lat="44.72427486273593" lon="8.846752081098083"><ele>244.6</ele><time>2026-03-29T09:00:21Z</time></trkpt><trkpt lat="44.72414605202066" lon="8.846770947028281"><ele>245.2</ele><time>2026-03-29T09:00:22Z</time></trkpt><trkpt lat="44.72403863860884" lon="8.846788397109128"><ele>245.79999999999998</ele><time>2026-03-29T09:00:23Z</time></trkpt><trkpt lat="44.72393516371912" lon="8.846786213886299"><ele>246.39999999999998</ele><time>2026-03-29T09:00:24Z</time></trkpt><trkpt lat="44.72385156811437" lon="8.846761119005883"><ele>247.0</ele><time>2026-03-29T09:00:25Z</time></trkpt><trkpt lat="44.72378143724504" lon="8.846697105205372"><ele>247.0</ele><time>2026-03-29T09:00:26Z</time></trkpt><trkpt lat="44.72372829835238" lon="8.846605175057265"><ele>247.0</ele><time>2026-03-29T09:00:27Z</time></trkpt><trkpt lat="44.72368668125823" lon="8.846484983307526"><ele>247.0</ele><time>2026-03-29T09:00:28Z</time></trkpt><trkpt lat="44.72365964833455" lon="8.846358619966544"><ele>247.0</ele><time>2026-03-29T09:00:29Z</time></trkpt><trkpt lat="44.72364543216258" lon="8.846221932463353"><ele>247.0</ele><time>2026-03-29T09:00:30Z</time></trkpt><trkpt lat="44.72366137943199" lon="8.84606212118241"><ele>247.0</ele><time>2026-03-29T09:00:31Z</time></trkpt><trkpt lat="44.72365304075671" lon="8.845875281869123"><ele>247.0</ele><time>2026-03-29T09:00:32Z</time></trkpt><trkpt lat="44.72366037950342" lon="8.84566493571913"><ele>247.0</ele><time>2026-03-29T09:00:33Z</time></trkpt><trkpt lat="44.723676240421305" lon="8.84545526317227"><ele>247.0</ele><time>2026-03-29T09:00:34Z</time></trkpt><trkpt lat="44.72367634963312" lon="8.84525509130135"><ele>248.0</ele><time>2026-03-29T09:00:35Z</time></trkpt><trkpt lat="44.72367039854939" lon="8.845065791201218"><ele>249.0</ele><time>2026-03-29T09:00:36Z</time></trkpt><trkpt lat="44.72365354521965" lon="8.844869156049043"><ele>250.0</ele><time>2026-03-29T09:00:37Z</time></trkpt><trkpt lat="44.72362723519157" lon="8.84467454471087"><ele>251.0</ele><time>2026-03-29T09:00:38Z</time></trkpt><trkpt lat="44.72359944965876" lon="8.844484241793722"><ele>251.0</ele><time>2026-03-29T09:00:39Z</time></trkpt><trkpt lat="44.72357257708133" lon="8.844302057758245"><ele>251.0</ele><time>2026-03-29T09:00:40Z</time></trkpt><trkpt lat="44.72354732297122" lon="8.844126121803841"><ele>251.0</ele><time>2026-03-29T09:00:41Z</time></trkpt><trkpt lat="44.72352621284526" lon="8.843984651911745"><ele>251.0</ele><time>2026-03-29T09:00:42Z</time></trkpt><trkpt lat="44.72350354834345" lon="8.8438611786529"><ele>254.20000000000002</ele><time>2026-03-29T09:00:43Z</time></trkpt><trkpt lat="44.72348817905098" lon="8.843738886847317"><ele>257.40000000000003</ele><time>2026-03-29T09:00:44Z</time></trkpt><trkpt lat="44.7234606949224" lon="8.843615755845256"><ele>260.6</ele><time>2026-03-29T09:00:45Z</time></trkpt><trkpt lat="44.72344529527207" lon="8.843485116956746"><ele>263.8</ele><time>2026-03-29T09:00:46Z</time></trkpt><trkpt lat="44.72346270868246" lon="8.84335052118033"><ele>267.0</ele><time>2026-03-29T09:00:47Z</time></trkpt><trkpt lat="44.72346454598224" lon="8.843188490655859"><ele>267.5</ele><time>2026-03-29T09:00:48Z</time></trkpt><trkpt lat="44.7234940897037" lon="8.843001970146842"><ele>268.0</ele><time>2026-03-29T09:00:49Z</time></trkpt><trkpt lat="44.7235270449379" lon="8.842803718539898"><ele>268.5</ele><time>2026-03-29T09:00:50Z</time></trkpt><trkpt lat="44.72356545692211" lon="8.842591880065232"><ele>269.0</ele><time>2026-03-29T09:00:51Z</time></trkpt><trkpt lat="44.72360110081606" lon="8.842380601675785"><ele>268.75</ele><time>2026-03-29T09:00:52Z</time></trkpt><trkpt lat="44.72363038636919" lon="8.842168275256062"><ele>268.5</ele><time>2026-03-29T09:00:53Z</time></trkpt><trkpt lat="44.723659189617905" lon="8.84197798283682"><ele>268.25</ele><time>2026-03-29T09:00:54Z</time></trkpt><trkpt lat="44.723691750644946" lon="8.841797315713414"><ele>268.0</ele><time>2026-03-29T09:00:55Z</time></trkpt><trkpt lat="44.72371345443254" lon="8.841622856535757"><ele>268.0</ele><time>2026-03-29T09:00:56Z</time></trkpt><trkpt lat="44.72373222612681" lon="8.84146681640921"><ele>268.0</ele><time>2026-03-29T09:00:57Z</time></trkpt><trkpt lat="44.723740299037956" lon="8.841330520194358"><ele>268.0</ele><time>2026-03-29T09:00:58Z</time></trkpt><trkpt lat="44.72373962085102" lon="8.841189865977375"><ele>268.0</ele><time>2026-03-29T09:00:59Z</time></trkpt><trkpt lat="44.72373036408378" lon="8.841050012933573"><ele>268.0</ele><time>2026-03-29T09:01:00Z</time></trkpt><trkpt lat="44.723722113662724" lon="8.840901217452528"><ele>269.0</ele><time>2026-03-29T09:01:01Z</time></trkpt><trkpt lat="44.72374963790558" lon="8.840772411998485"><ele>270.0</ele><time>2026-03-29T09:01:02Z</time></trkpt><trkpt lat="44.72378601336667" lon="8.840643145536527"><ele>271.0</ele><time>2026-03-29T09:01:03Z</time></trkpt><trkpt lat="44.72385452367495" lon="8.840532996750701"><ele>272.0</ele><time>2026-03-29T09:01:04Z</time></trkpt><trkpt lat="44.723930982402166" lon="8.84043445254326"><ele>273.0</ele><time>2026-03-29T09:01:05Z</time></trkpt><trkpt lat="44.72397251018539" lon="8.840329933176902"><ele>273.0</ele><time>2026-03-29T09:01:06Z</time></trkpt><trkpt lat="44.724003304619" lon="8.840234324837521"><ele>273.0</ele><time>2026-03-29T09:01:07Z</time></trkpt><trkpt lat="44.72400570091598" lon="8.840124755483236"><ele>273.0</ele><time>2026-03-29T09:01:08Z</time></trkpt><trkpt lat="44.7239883389349" lon="8.840010632215133"><ele>273.0</ele><time>2026-03-29T09:01:09Z</time></trkpt><trkpt lat="44.72394976332552" lon="8.839901162159377"><ele>273.0</ele><time>2026-03-29T09:01:10Z</time></trkpt><trkpt lat="44.7238958694894" lon="8.839798627447866"><ele>273.0</ele><time>2026-03-29T09:01:11Z</time></trkpt><trkpt lat="44.72383378761754" lon="8.83966830781126"><ele>272.5</ele><time>2026-03-29T09:01:12Z</time></trkpt><trkpt lat="44.72375021675092" lon="8.839530973231705"><ele>272.0</ele><time>2026-03-29T09:01:13Z</time></trkpt><trkpt lat="44.723673626259036" lon="8.839372299854249"><ele>271.5</ele><time>2026-03-29T09:01:14Z</time></trkpt><trkpt lat="44.723590896458326" lon="8.839217117818182"><ele>271.0</ele><time>2026-03-29T09:01:15Z</time></trkpt><trkpt lat="44.72351892213695" lon="8.83906062438644"><ele>274.6</ele><time>2026-03-29T09:01:16Z</time></trkpt><trkpt lat="44.72346194353386" lon="8.838924807941218"><ele>278.20000000000005</ele><time>2026-03-29T09:01:17Z</time></trkpt><trkpt lat="44.72340670728334" lon="8.838795922008293"><ele>281.79999999999995</ele><time>2026-03-29T09:01:18Z</time></trkpt><trkpt lat="44.723388940570835" lon="8.838668987303937"><ele>285.4</ele><time>2026-03-29T09:01:19Z</time></trkpt><trkpt lat="44.72336658120242" lon="8.838566802281422"><ele>289.0</ele><time>2026-03-29T09:01:20Z</time></trkpt><trkpt lat="44.72335265933048" lon="8.838476484293814"><ele>288.8</ele><time>2026-03-29T09:01:21Z</time></trkpt><trkpt lat="44.72334844777119" lon="8.838333183310041"><ele>288.59999999999997</ele><time>2026-03-29T09:01:23.001Z</time></trkpt><trkpt lat="44.723349924965305" lon="8.838236339923167"><ele>288.4</ele><time>2026-03-29T09:01:26.001Z</time></trkpt><trkpt lat="44.723194653139316" lon="8.838288046089636"><ele>288.2</ele><time>2026-03-29T09:01:29.001Z</time></trkpt><trkpt lat="44.723138810120595" lon="8.838345048246453"><ele>288.0</ele><time>2026-03-29T09:01:30.001Z</time></trkpt><trkpt lat="44.72308812937177" lon="8.8384011220088"><ele>288.0</ele><time>2026-03-29T09:01:31.001Z</time></trkpt><trkpt lat="44.72304117459838" lon="8.838463122339137"><ele>288.0</ele><time>2026-03-29T09:01:32.001Z</time></trkpt><trkpt lat="44.72299140260771" lon="8.838529435235884"><ele>288.0</ele><time>2026-03-29T09:01:33.001Z</time></trkpt><trkpt lat="44.72294270807456" lon="8.838611183002893"><ele>288.0</ele><time>2026-03-29T09:01:34.001Z</time></trkpt><trkpt lat="44.72291179713381" lon="8.838696120193447"><ele>288.0</ele><time>2026-03-29T09:01:35.001Z</time></trkpt><trkpt lat="44.722869439971284" lon="8.838871594723972"><ele>288.0</ele><time>2026-03-29T09:01:37.001Z</time></trkpt><trkpt lat="44.722857705579926" lon="8.838980368028135"><ele>288.2</ele><time>2026-03-29T09:01:38.001Z</time></trkpt><trkpt lat="44.722844730834304" lon="8.839110334443145"><ele>288.4</ele><time>2026-03-29T09:01:39.001Z</time></trkpt><trkpt lat="44.722833680748685" lon="8.839253604396104"><ele>288.59999999999997</ele><time>2026-03-29T09:01:40.001Z</time></trkpt><trkpt lat="44.7228279084592" lon="8.83940469564767"><ele>288.8</ele><time>2026-03-29T09:01:41.001Z</time></trkpt><trkpt lat="44.72282565973034" lon="8.839560280573135"><ele>289.0</ele><time>2026-03-29T09:01:42.001Z</time></trkpt><trkpt lat="44.722820740700676" lon="8.839704607867239"><ele>289.66666666666663</ele><time>2026-03-29T09:01:43.001Z</time></trkpt><trkpt lat="44.722811323939844" lon="8.839826445225485"><ele>290.3333333333333</ele><time>2026-03-29T09:01:44.001Z</time></trkpt><trkpt lat="44.72279297476028" lon="8.839931886905555"><ele>291.0</ele><time>2026-03-29T09:01:45.001Z</time></trkpt><trkpt lat="44.722757690300384" lon="8.840043593790217"><ele>291.6666666666667</ele><time>2026-03-29T09:01:46.001Z</time></trkpt><trkpt lat="44.72270800087801" lon="8.840154495104414"><ele>292.33333333333337</ele><time>2026-03-29T09:01:47.001Z</time></trkpt><trkpt lat="44.72265735647444" lon="8.840259888967385"><ele>293.0</ele><time>2026-03-29T09:01:48.001Z</time></trkpt><trkpt lat="44.72261200453468" lon="8.840359779755634"><ele>296.1666666666667</ele><time>2026-03-29T09:01:49.001Z</time></trkpt><trkpt lat="44.7225791638953" lon="8.84044975960987"><ele>299.33333333333337</ele><time>2026-03-29T09:01:50.001Z</time></trkpt><trkpt lat="44.72255018424241" lon="8.840600362717254"><ele>302.5</ele><time>2026-03-29T09:01:52.001Z</time></trkpt><trkpt lat="44.72252058132413" lon="8.840745825272434"><ele>305.6666666666667</ele><time>2026-03-29T09:01:54.001Z</time></trkpt><trkpt lat="44.72248071990764" lon="8.840815010429996"><ele>308.8333333333333</ele><time>2026-03-29T09:01:55.001Z</time></trkpt><trkpt lat="44.722410219538205" lon="8.840885945054351"><ele>312.0</ele><time>2026-03-29T09:01:56.001Z</time></trkpt><trkpt lat="44.72232208787708" lon="8.840952503639965"><ele>310.4</ele><time>2026-03-29T09:01:57.001Z</time></trkpt><trkpt lat="44.72222083669797" lon="8.841005343234764"><ele>308.79999999999995</ele><time>2026-03-29T09:01:58.001Z</time></trkpt><trkpt lat="44.722129201607274" lon="8.841033906214678"><ele>307.2</ele><time>2026-03-29T09:01:59.001Z</time></trkpt><trkpt lat="44.72204079206072" lon="8.841062528736499"><ele>305.59999999999997</ele><time>2026-03-29T09:01:59.999Z</time></trkpt><trkpt lat="44.72194549294849" lon="8.841092442494062"><ele>304.0</ele><time>2026-03-29T09:02:00.999Z</time></trkpt><trkpt lat="44.721853357876526" lon="8.8411267087419"><ele>307.2</ele><time>2026-03-29T09:02:01.999Z</time></trkpt><trkpt lat="44.721777185327994" lon="8.841170321130273"><ele>310.4</ele><time>2026-03-29T09:02:02.999Z</time></trkpt><trkpt lat="44.72171227216508" lon="8.841240312092893"><ele>313.6</ele><time>2026-03-29T09:02:03.999Z</time></trkpt><trkpt lat="44.72164363890255" lon="8.841327042362824"><ele>316.8</ele><time>2026-03-29T09:02:04.999Z</time></trkpt><trkpt lat="44.72157895323356" lon="8.841447496190343"><ele>320.0</ele><time>2026-03-29T09:02:05.999Z</time></trkpt><trkpt lat="44.7215097208461" lon="8.841576147633035"><ele>320.0</ele><time>2026-03-29T09:02:06.999Z</time></trkpt><trkpt lat="44.721433358966294" lon="8.841710857007234"><ele>320.0</ele><time>2026-03-29T09:02:07.999Z</time></trkpt><trkpt lat="44.72135111987723" lon="8.841842594333299"><ele>320.0</ele><time>2026-03-29T09:02:08.999Z</time></trkpt><trkpt lat="44.7212663733303" lon="8.841979743865732"><ele>320.0</ele><time>2026-03-29T09:02:09.999Z</time></trkpt><trkpt lat="44.72117902037386" lon="8.842104219699843"><ele>319.75</ele><time>2026-03-29T09:02:10.999Z</time></trkpt><trkpt lat="44.721092256979304" lon="8.842214642660496"><ele>319.5</ele><time>2026-03-29T09:02:11.999Z</time></trkpt><trkpt lat="44.720989393527034" lon="8.842329894555593"><ele>319.25</ele><time>2026-03-29T09:02:12.999Z</time></trkpt><trkpt lat="44.72088195718618" lon="8.842439009991278"><ele>319.0</ele><time>2026-03-29T09:02:13.999Z</time></trkpt><trkpt lat="44.720768385704545" lon="8.842547043561543"><ele>316.25</ele><time>2026-03-29T09:02:14.999Z</time></trkpt><trkpt lat="44.72065595590251" lon="8.842651803984877"><ele>313.5</ele><time>2026-03-29T09:02:15.999Z</time></trkpt><trkpt lat="44.72054101504225" lon="8.842742923954344"><ele>310.75</ele><time>2026-03-29T09:02:16.999Z</time></trkpt><trkpt lat="44.72042246254602" lon="8.842819203414724"><ele>308.0</ele><time>2026-03-29T09:02:17.999Z</time></trkpt><trkpt lat="44.72029830809703" lon="8.842880957509022"><ele>312.0</ele><time>2026-03-29T09:02:18.999Z</time></trkpt><trkpt lat="44.72016079189024" lon="8.84292411357226"><ele>316.0</ele><time>2026-03-29T09:02:19.999Z</time></trkpt><trkpt lat="44.72001754870207" lon="8.842972146674862"><ele>320.0</ele><time>2026-03-29T09:02:20.999Z</time></trkpt><trkpt lat="44.719880688297714" lon="8.843019405338499"><ele>324.0</ele><time>2026-03-29T09:02:21.999Z</time></trkpt><trkpt lat="44.71977431866426" lon="8.843064910024458"><ele>324.0</ele><time>2026-03-29T09:02:22.999Z</time></trkpt><trkpt lat="44.71970777220731" lon="8.843103478944698"><ele>324.0</ele><time>2026-03-29T09:02:23.999Z</time></trkpt><trkpt lat="44.719647398722074" lon="8.84315006929657"><ele>324.0</ele><time>2026-03-29T09:02:24.999Z</time></trkpt><trkpt lat="44.71955789488148" lon="8.84322897268629"><ele>324.0</ele><time>2026-03-29T09:02:25.999Z</time></trkpt><trkpt lat="44.71946830506237" lon="8.843317647568352"><ele>324.0</ele><time>2026-03-29T09:02:26.999Z</time></trkpt><trkpt lat="44.71938509278188" lon="8.843399857080144"><ele>324.79999999999995</ele><time>2026-03-29T09:02:27.999Z</time></trkpt><trkpt lat="44.71931021462835" lon="8.843459411612809"><ele>325.59999999999997</ele><time>2026-03-29T09:02:29Z</time></trkpt><trkpt lat="44.71922998665087" lon="8.843495551372428"><ele>326.4</ele><time>2026-03-29T09:02:30Z</time></trkpt><trkpt lat="44.71912707763315" lon="8.843495105964367"><ele>327.2</ele><time>2026-03-29T09:02:31Z</time></trkpt><trkpt lat="44.7190110143375" lon="8.843500319062993"><ele>328.0</ele><time>2026-03-29T09:02:32Z</time></trkpt><trkpt lat="44.71889806065647" lon="8.843504562741948"><ele>328.0</ele><time>2026-03-29T09:02:33Z</time></trkpt><trkpt lat="44.71878666885719" lon="8.843526411355082"><ele>328.0</ele><time>2026-03-29T09:02:34Z</time></trkpt><trkpt lat="44.718671535601125" lon="8.843569603104271"><ele>328.0</ele><time>2026-03-29T09:02:35Z</time></trkpt><trkpt lat="44.71855445318883" lon="8.8436269410896"><ele>328.0</ele><time>2026-03-29T09:02:36Z</time></trkpt><trkpt lat="44.718432145131175" lon="8.843687027518156"><ele>329.5</ele><time>2026-03-29T09:02:37Z</time></trkpt><trkpt lat="44.718309433025944" lon="8.84373561264875"><ele>331.0</ele><time>2026-03-29T09:02:38Z</time></trkpt><trkpt lat="44.71818944297409" lon="8.843779499241613"><ele>332.5</ele><time>2026-03-29T09:02:39Z</time></trkpt><trkpt lat="44.718065457455005" lon="8.84380970824826"><ele>334.0</ele><time>2026-03-29T09:02:40Z</time></trkpt><trkpt lat="44.717938198125" lon="8.843824650772028"><ele>334.0</ele><time>2026-03-29T09:02:41Z</time></trkpt><trkpt lat="44.71781378292036" lon="8.843830613122043"><ele>334.0</ele><time>2026-03-29T09:02:42Z</time></trkpt><trkpt lat="44.71769453176171" lon="8.843830839225104"><ele>334.0</ele><time>2026-03-29T09:02:43Z</time></trkpt><trkpt lat="44.7175869332004" lon="8.84383371255461"><ele>334.0</ele><time>2026-03-29T09:02:44Z</time></trkpt><trkpt lat="44.717477698742535" lon="8.84384303797324"><ele>335.4</ele><time>2026-03-29T09:02:45Z</time></trkpt><trkpt lat="44.71736329127416" lon="8.843861226439099"><ele>336.79999999999995</ele><time>2026-03-29T09:02:46Z</time></trkpt><trkpt lat="44.71726445412857" lon="8.843873685844553"><ele>338.20000000000005</ele><time>2026-03-29T09:02:47Z</time></trkpt><trkpt lat="44.717162542372506" lon="8.843891808610085"><ele>339.6</ele><time>2026-03-29T09:02:48Z</time></trkpt><trkpt lat="44.71707664800998" lon="8.843912126946208"><ele>341.0</ele><time>2026-03-29T09:02:49Z</time></trkpt><trkpt lat="44.71700284496349" lon="8.8439664540136"><ele>341.0</ele><time>2026-03-29T09:02:50Z</time></trkpt><trkpt lat="44.71691670237655" lon="8.844067608762444"><ele>341.0</ele><time>2026-03-29T09:02:51Z</time></trkpt><trkpt lat="44.71682726060819" lon="8.844202663152025"><ele>341.0</ele><time>2026-03-29T09:02:52Z</time></trkpt><trkpt lat="44.71672966667334" lon="8.844347735097328"><ele>341.0</ele><time>2026-03-29T09:02:53Z</time></trkpt><trkpt lat="44.71662397137549" lon="8.844496314535194"><ele>341.0</ele><time>2026-03-29T09:02:54Z</time></trkpt><trkpt lat="44.71652391037568" lon="8.844641763600215"><ele>341.0</ele><time>2026-03-29T09:02:55Z</time></trkpt><trkpt lat="44.71643148389851" lon="8.844762578519155"><ele>341.0</ele><time>2026-03-29T09:02:56Z</time></trkpt><trkpt lat="44.716352323832844" lon="8.844872021303715"><ele>341.0</ele><time>2026-03-29T09:02:57Z</time></trkpt><trkpt lat="44.7162880708114" lon="8.844970202186381"><ele>341.0</ele><time>2026-03-29T09:02:58Z</time></trkpt><trkpt lat="44.71622659604587" lon="8.845066991383652"><ele>341.0</ele><time>2026-03-29T09:02:59Z</time></trkpt><trkpt lat="44.71618450265689" lon="8.845148974386682"><ele>341.0</ele><time>2026-03-29T09:03:00Z</time></trkpt><trkpt lat="44.71616070072561" lon="8.845232495677996"><ele>341.0</ele><time>2026-03-29T09:03:01Z</time></trkpt><trkpt lat="44.71614254991986" lon="8.845379461497751"><ele>341.0</ele><time>2026-03-29T09:03:03Z</time></trkpt><trkpt lat="44.716149872535695" lon="8.845473286108726"><ele>341.0</ele><time>2026-03-29T09:03:06Z</time></trkpt><trkpt lat="44.71603536171433" lon="8.845406589230093"><ele>341.0</ele><time>2026-03-29T09:03:08Z</time></trkpt><trkpt lat="44.71596478047992" lon="8.845291155037337"><ele>341.0</ele><time>2026-03-29T09:03:11Z</time></trkpt><trkpt lat="44.7159596141131" lon="8.845195692663141"><ele>341.0</ele><time>2026-03-29T09:03:12Z</time></trkpt><trkpt lat="44.7159372069662" lon="8.845012184604771"><ele>341.0</ele><time>2026-03-29T09:03:14Z</time></trkpt><trkpt lat="44.71593421621623" lon="8.844916032728044"><ele>341.0</ele><time>2026-03-29T09:03:15Z</time></trkpt><trkpt lat="44.71593481285688" lon="8.844800517389624"><ele>341.0</ele><time>2026-03-29T09:03:16Z</time></trkpt><trkpt lat="44.715923074629565" lon="8.844626939649132"><ele>341.0</ele><time>2026-03-29T09:03:18Z</time></trkpt><trkpt lat="44.71592332155476" lon="8.844537167949365"><ele>341.0</ele><time>2026-03-29T09:03:19Z</time></trkpt><trkpt lat="44.71592171267797" lon="8.844390225341774"><ele>341.0</ele><time>2026-03-29T09:03:21Z</time></trkpt><trkpt lat="44.71591713258444" lon="8.844269826118511"><ele>341.0</ele><time>2026-03-29T09:04:14.999Z</time></trkpt><trkpt lat="44.71589523124345" lon="8.844176326239326"><ele>341.0</ele><time>2026-03-29T09:04:16.999Z</time></trkpt><trkpt lat="44.71584466656954" lon="8.844044522163706"><ele>340.1666666666667</ele><time>2026-03-29T09:04:18.999Z</time></trkpt><trkpt lat="44.71580577603649" lon="8.843963164653353"><ele>339.33333333333337</ele><time>2026-03-29T09:04:19.999Z</time></trkpt><trkpt lat="44.71576678639863" lon="8.843891644153578"><ele>338.5</ele><time>2026-03-29T09:04:20.999Z</time></trkpt><trkpt lat="44.715686004028775" lon="8.84374820479575"><ele>337.6666666666667</ele><time>2026-03-29T09:04:22.999Z</time></trkpt><trkpt lat="44.7156306475518" lon="8.843686261900878"><ele>336.8333333333333</ele><time>2026-03-29T09:04:23.999Z</time></trkpt><trkpt lat="44.71559029993129" lon="8.843605646545932"><ele>336.0</ele><time>2026-03-29T09:04:24.999Z</time></trkpt><trkpt lat="44.71556494823746" lon="8.84351463015328"><ele>334.57142857142856</ele><time>2026-03-29T09:04:25.999Z</time></trkpt><trkpt lat="44.715521177558124" lon="8.843445822646322"><ele>333.1428571428571</ele><time>2026-03-29T09:04:26.999Z</time></trkpt><trkpt lat="44.71547040977947" lon="8.843370238070193"><ele>331.7142857142857</ele><time>2026-03-29T09:04:27.999Z</time></trkpt><trkpt lat="44.715424542437994" lon="8.843287207980374"><ele>330.2857142857143</ele><time>2026-03-29T09:04:28.999Z</time></trkpt><trkpt lat="44.715378638335004" lon="8.843199926059187"><ele>328.85714285714283</ele><time>2026-03-29T09:04:29.999Z</time></trkpt><trkpt lat="44.7153242622293" lon="8.843121824450863"><ele>327.42857142857144</ele><time>2026-03-29T09:04:30.999Z</time></trkpt><trkpt lat="44.715272107693096" lon="8.843044243758676"><ele>326.0</ele><time>2026-03-29T09:04:31.999Z</time></trkpt><trkpt lat="44.71521381506375" lon="8.842970727637027"><ele>326.0</ele><time>2026-03-29T09:04:32.999Z</time></trkpt><trkpt lat="44.715154795188106" lon="8.842906147711812"><ele>326.0</ele><time>2026-03-29T09:04:33.999Z</time></trkpt><trkpt lat="44.71506390839043" lon="8.842822326893089"><ele>326.0</ele><time>2026-03-29T09:04:35.999Z</time></trkpt><trkpt lat="44.71500426388966" lon="8.842768615656686"><ele>326.0</ele><time>2026-03-29T09:04:37.999Z</time></trkpt><trkpt lat="44.71493887260175" lon="8.842723865579549"><ele>326.0</ele><time>2026-03-29T09:04:40.999Z</time></trkpt><trkpt lat="44.71486868779011" lon="8.842745531603189"><ele>326.0</ele><time>2026-03-29T09:04:43.999Z</time></trkpt><trkpt lat="44.71480630003136" lon="8.8428162038835"><ele>326.0</ele><time>2026-03-29T09:04:47Z</time></trkpt><trkpt lat="44.71474507482443" lon="8.842881387971863"><ele>326.0</ele><time>2026-03-29T09:04:51Z</time></trkpt><trkpt lat="44.71466994075919" lon="8.842929037470645"><ele>326.0</ele><time>2026-03-29T09:04:54Z</time></trkpt><trkpt lat="44.71460512345513" lon="8.84295217362158"><ele>326.0</ele><time>2026-03-29T09:04:56Z</time></trkpt><trkpt lat="44.714519508757526" lon="8.842967502177043"><ele>326.0</ele><time>2026-03-29T09:04:59Z</time></trkpt><trkpt lat="44.714439402614055" lon="8.842991359615018"><ele>326.0</ele><time>2026-03-29T09:05:02Z</time></trkpt><trkpt lat="44.71436426579385" lon="8.84299032262669"><ele>326.0</ele><time>2026-03-29T09:05:05Z</time></trkpt><trkpt lat="44.71428558555142" lon="8.842983644956355"><ele>326.0</ele><time>2026-03-29T09:05:08Z</time></trkpt><trkpt lat="44.71420672578344" lon="8.842963778467013"><ele>326.0</ele><time>2026-03-29T09:05:11Z</time></trkpt><trkpt lat="44.71427404821869" lon="8.842962118248883"><ele>326.0</ele><time>2026-03-29T09:05:29Z</time></trkpt><trkpt lat="44.71436308181303" lon="8.842968680126141"><ele>326.0</ele><time>2026-03-29T09:05:32Z</time></trkpt><trkpt lat="44.714479708765595" lon="8.842971445181119"><ele>326.0</ele><time>2026-03-29T09:05:34Z</time></trkpt><trkpt lat="44.71458082682503" lon="8.842954372106748"><ele>326.0</ele><time>2026-03-29T09:05:36Z</time></trkpt><trkpt lat="44.714683108989014" lon="8.842943763990363"><ele>326.0</ele><time>2026-03-29T09:05:38Z</time></trkpt><trkpt lat="44.71475799497261" lon="8.842879664316445"><ele>326.0</ele><time>2026-03-29T09:05:40Z</time></trkpt><trkpt lat="44.71482536198992" lon="8.842802589467263"><ele>326.0</ele><time>2026-03-29T09:05:42Z</time></trkpt><trkpt lat="44.71489391942688" lon="8.842725804175764"><ele>326.0</ele><time>2026-03-29T09:05:44Z</time></trkpt><trkpt lat="44.71494909611092" lon="8.842682480618336"><ele>326.0</ele><time>2026-03-29T09:05:46Z</time></trkpt><trkpt lat="44.7150812130689" lon="8.84285044082289"><ele>326.0</ele><time>2026-03-29T09:07:07Z</time></trkpt><trkpt lat="44.71513590932599" lon="8.84290013522694"><ele>326.0</ele><time>2026-03-29T09:07:08Z</time></trkpt><trkpt lat="44.715191584958234" lon="8.842956866863323"><ele>326.0</ele><time>2026-03-29T09:07:09Z</time></trkpt><trkpt lat="44.715291069441" lon="8.843079864434404"><ele>326.0</ele><time>2026-03-29T09:07:11Z</time></trkpt><trkpt lat="44.71534340466751" lon="8.843158881078146"><ele>326.0</ele><time>2026-03-29T09:07:12Z</time></trkpt><trkpt lat="44.71539120713144" lon="8.843236603067194"><ele>326.0</ele><time>2026-03-29T09:07:13Z</time></trkpt><trkpt lat="44.71544280325651" lon="8.84333060602799"><ele>326.0</ele><time>2026-03-29T09:07:14Z</time></trkpt><trkpt lat="44.71549460710923" lon="8.843423697519988"><ele>326.0</ele><time>2026-03-29T09:07:15Z</time></trkpt><trkpt lat="44.71554697225233" lon="8.843520615323863"><ele>326.0</ele><time>2026-03-29T09:07:16Z</time></trkpt><trkpt lat="44.715596973184724" lon="8.843623471207959"><ele>326.0</ele><time>2026-03-29T09:07:17Z</time></trkpt><trkpt lat="44.71564534844649" lon="8.843719417526616"><ele>326.0</ele><time>2026-03-29T09:07:18Z</time></trkpt><trkpt lat="44.71569551951134" lon="8.843812725516036"><ele>326.0</ele><time>2026-03-29T09:07:19Z</time></trkpt><trkpt lat="44.71574593098382" lon="8.843903425485912"><ele>327.6666666666667</ele><time>2026-03-29T09:07:20Z</time></trkpt><trkpt lat="44.71579349935668" lon="8.843991271311381"><ele>329.33333333333337</ele><time>2026-03-29T09:07:21Z</time></trkpt><trkpt lat="44.71583449220178" lon="8.844065858436005"><ele>331.0</ele><time>2026-03-29T09:07:22Z</time></trkpt><trkpt lat="44.715890781932764" lon="8.844207223987542"><ele>332.6666666666667</ele><time>2026-03-29T09:07:24Z</time></trkpt><trkpt lat="44.715907049397" lon="8.844309394528523"><ele>334.3333333333333</ele><time>2026-03-29T09:07:26Z</time></trkpt><trkpt lat="44.7158904142826" lon="8.844405756141768"><ele>336.0</ele><time>2026-03-29T09:07:29Z</time></trkpt><trkpt lat="44.71591144298469" lon="8.844511424949866"><ele>336.7142857142857</ele><time>2026-03-29T09:07:31Z</time></trkpt><trkpt lat="44.71591834401684" lon="8.844601992649665"><ele>337.42857142857144</ele><time>2026-03-29T09:07:32Z</time></trkpt><trkpt lat="44.71591093997947" lon="8.844698035131508"><ele>338.1428571428571</ele><time>2026-03-29T09:07:33Z</time></trkpt><trkpt lat="44.71590761759193" lon="8.844801341877504"><ele>338.8571428571429</ele><time>2026-03-29T09:07:34Z</time></trkpt><trkpt lat="44.71589279663674" lon="8.844907983102805"><ele>339.57142857142856</ele><time>2026-03-29T09:07:35Z</time></trkpt><trkpt lat="44.715896672964696" lon="8.845015130311033"><ele>340.2857142857143</ele><time>2026-03-29T09:07:36.001Z</time></trkpt><trkpt lat="44.71591716702741" lon="8.845119224690883"><ele>341.0</ele><time>2026-03-29T09:07:37.001Z</time></trkpt><trkpt lat="44.71594045460604" lon="8.845231486339507"><ele>341.4</ele><time>2026-03-29T09:07:38.001Z</time></trkpt><trkpt lat="44.71596668620527" lon="8.84532958697998"><ele>341.8</ele><time>2026-03-29T09:07:39.001Z</time></trkpt><trkpt lat="44.71601594629172" lon="8.84545555928424"><ele>342.2</ele><time>2026-03-29T09:07:41.001Z</time></trkpt><trkpt lat="44.7160940136497" lon="8.84550481811533"><ele>342.59999999999997</ele><time>2026-03-29T09:07:43.001Z</time></trkpt><trkpt lat="44.716171176505824" lon="8.845486696796948"><ele>343.0</ele><time>2026-03-29T09:07:46.001Z</time></trkpt><trkpt lat="44.71621039692023" lon="8.845340499045877"><ele>340.79999999999995</ele><time>2026-03-29T09:07:47.001Z</time></trkpt><trkpt lat="44.716217514812556" lon="8.845251857513157"><ele>338.6</ele><time>2026-03-29T09:08:04.001Z</time></trkpt><trkpt lat="44.71616553462248" lon="8.845410991276637"><ele>336.4</ele><time>2026-03-29T09:08:09.001Z</time></trkpt><trkpt lat="44.716179898686306" lon="8.845565039593826"><ele>334.20000000000005</ele><time>2026-03-29T09:08:11.001Z</time></trkpt><trkpt lat="44.71618031845313" lon="8.84571083141735"><ele>332.0</ele><time>2026-03-29T09:08:13.001Z</time></trkpt><trkpt lat="44.71614785153352" lon="8.845844480101633"><ele>333.6</ele><time>2026-03-29T09:08:15.001Z</time></trkpt><trkpt lat="44.71611211557551" lon="8.84599371378855"><ele>335.20000000000005</ele><time>2026-03-29T09:08:17.001Z</time></trkpt><trkpt lat="44.716073829324685" lon="8.846140930532757"><ele>336.8</ele><time>2026-03-29T09:08:19Z</time></trkpt><trkpt lat="44.71602072418309" lon="8.846264889072073"><ele>338.4</ele><time>2026-03-29T09:08:21Z</time></trkpt><trkpt lat="44.715974508732266" lon="8.846365452463465"><ele>340.0</ele><time>2026-03-29T09:08:23Z</time></trkpt><trkpt lat="44.715944021860906" lon="8.84645565738182"><ele>340.0</ele><time>2026-03-29T09:08:25Z</time></trkpt><trkpt lat="44.716049926659224" lon="8.846559375663626"><ele>340.0</ele><time>2026-03-29T09:09:49.001Z</time></trkpt><trkpt lat="44.716158128322576" lon="8.84658434460778"><ele>340.0</ele><time>2026-03-29T09:09:51.001Z</time></trkpt><trkpt lat="44.71627871540151" lon="8.846569171780901"><ele>340.0</ele><time>2026-03-29T09:09:53.001Z</time></trkpt><trkpt lat="44.716389014996125" lon="8.846513801065662"><ele>336.6</ele><time>2026-03-29T09:09:55.001Z</time></trkpt><trkpt lat="44.716491149506666" lon="8.846428824525507"><ele>333.2</ele><time>2026-03-29T09:09:57.001Z</time></trkpt><trkpt lat="44.71657394467159" lon="8.846394906210739"><ele>329.79999999999995</ele><time>2026-03-29T09:10:00.001Z</time></trkpt><trkpt lat="44.71666868947988" lon="8.846520923927644"><ele>326.4</ele><time>2026-03-29T09:10:02.001Z</time></trkpt><trkpt lat="44.716745093854584" lon="8.846573480389603"><ele>323.0</ele><time>2026-03-29T09:10:03.001Z</time></trkpt><trkpt lat="44.716825201982644" lon="8.846624497340741"><ele>321.83333333333337</ele><time>2026-03-29T09:10:04.001Z</time></trkpt><trkpt lat="44.71690599272172" lon="8.846675808866305"><ele>320.6666666666667</ele><time>2026-03-29T09:10:05.001Z</time></trkpt><trkpt lat="44.71699841312842" lon="8.846738023896462"><ele>319.5</ele><time>2026-03-29T09:10:06.001Z</time></trkpt><trkpt lat="44.717074766130594" lon="8.846795235380785"><ele>318.3333333333333</ele><time>2026-03-29T09:10:07.001Z</time></trkpt><trkpt lat="44.71713241292132" lon="8.84684024906225"><ele>317.16666666666663</ele><time>2026-03-29T09:10:08.001Z</time></trkpt><trkpt lat="44.71722660946368" lon="8.846895514989725"><ele>316.0</ele><time>2026-03-29T09:10:10.001Z</time></trkpt><trkpt lat="44.717304805123625" lon="8.846949099650013"><ele>314.2</ele><time>2026-03-29T09:10:12.001Z</time></trkpt><trkpt lat="44.71737313216595" lon="8.846994012978364"><ele>312.40000000000003</ele><time>2026-03-29T09:10:14.001Z</time></trkpt><trkpt lat="44.717466547383474" lon="8.84702630962056"><ele>310.6</ele><time>2026-03-29T09:10:16.001Z</time></trkpt><trkpt lat="44.71753279974619" lon="8.847053172035032"><ele>308.8</ele><time>2026-03-29T09:10:17.001Z</time></trkpt><trkpt lat="44.717662626158145" lon="8.847118401773193"><ele>307.0</ele><time>2026-03-29T09:10:19.001Z</time></trkpt><trkpt lat="44.71774355746547" lon="8.847119497243362"><ele>306.66666666666663</ele><time>2026-03-29T09:10:20.001Z</time></trkpt><trkpt lat="44.717817294217525" lon="8.847159805782368"><ele>306.3333333333333</ele><time>2026-03-29T09:10:21.001Z</time></trkpt><trkpt lat="44.71789852072212" lon="8.847186529061343"><ele>306.0</ele><time>2026-03-29T09:10:22.001Z</time></trkpt><trkpt lat="44.71798294476691" lon="8.84723176872944"><ele>305.6666666666667</ele><time>2026-03-29T09:10:23.001Z</time></trkpt><trkpt lat="44.71806534080458" lon="8.847288241962024"><ele>305.33333333333337</ele><time>2026-03-29T09:10:23.999Z</time></trkpt><trkpt lat="44.718126049809" lon="8.84733598232033"><ele>305.0</ele><time>2026-03-29T09:10:24.999Z</time></trkpt><trkpt lat="44.71821146356495" lon="8.847393066552415"><ele>305.0</ele><time>2026-03-29T09:10:26.999Z</time></trkpt><trkpt lat="44.71828183926956" lon="8.84746641307895"><ele>305.0</ele><time>2026-03-29T09:10:28.999Z</time></trkpt><trkpt lat="44.718331796299545" lon="8.847526853940277"><ele>305.0</ele><time>2026-03-29T09:10:30.999Z</time></trkpt><trkpt lat="44.71838320936256" lon="8.847587858310499"><ele>305.0</ele><time>2026-03-29T09:10:32.999Z</time></trkpt><trkpt lat="44.718435514581934" lon="8.847659447463833"><ele>305.0</ele><time>2026-03-29T09:10:35.999Z</time></trkpt><trkpt lat="44.71851759551702" lon="8.847718017824887"><ele>305.0</ele><time>2026-03-29T09:10:38.999Z</time></trkpt><trkpt lat="44.718601124012665" lon="8.847798346257923"><ele>303.6666666666667</ele><time>2026-03-29T09:10:41.999Z</time></trkpt><trkpt lat="44.71865938509761" lon="8.847872753971988"><ele>302.33333333333337</ele><time>2026-03-29T09:10:44Z</time></trkpt><trkpt lat="44.71872008644809" lon="8.84789644760419"><ele>301.0</ele><time>2026-03-29T09:10:46Z</time></trkpt><trkpt lat="44.71880256916376" lon="8.847953184776916"><ele>299.6666666666667</ele><time>2026-03-29T09:10:49Z</time></trkpt><trkpt lat="44.71887309819604" lon="8.84802728897533"><ele>298.3333333333333</ele><time>2026-03-29T09:10:51Z</time></trkpt><trkpt lat="44.71895790747703" lon="8.848061798127906"><ele>297.0</ele><time>2026-03-29T09:10:53Z</time></trkpt><trkpt lat="44.71903245666062" lon="8.848122931191954"><ele>297.0</ele><time>2026-03-29T09:10:55Z</time></trkpt><trkpt lat="44.71910952471756" lon="8.848173746292508"><ele>297.0</ele><time>2026-03-29T09:10:57Z</time></trkpt><trkpt lat="44.719192404778475" lon="8.848239338905065"><ele>297.0</ele><time>2026-03-29T09:10:59Z</time></trkpt><trkpt lat="44.71925368167295" lon="8.848319085254584"><ele>297.0</ele><time>2026-03-29T09:11:02Z</time></trkpt><trkpt lat="44.71931427748432" lon="8.8483782893097"><ele>297.0</ele><time>2026-03-29T09:11:06Z</time></trkpt><trkpt lat="44.71934169871464" lon="8.848476362776417"><ele>297.0</ele><time>2026-03-29T09:11:18Z</time></trkpt><trkpt lat="44.71935337420906" lon="8.848583125426137"><ele>294.6666666666667</ele><time>2026-03-29T09:11:25Z</time></trkpt><trkpt lat="44.71934661192051" lon="8.848676178125114"><ele>292.3333333333333</ele><time>2026-03-29T09:11:36Z</time></trkpt><trkpt lat="44.719354578211025" lon="8.848789546185168"><ele>290.0</ele><time>2026-03-29T09:11:39Z</time></trkpt><trkpt lat="44.71935662942216" lon="8.84889743776268"><ele>287.66666666666663</ele><time>2026-03-29T09:11:43.001Z</time></trkpt><trkpt lat="44.719352799977884" lon="8.848768273765058"><ele>285.3333333333333</ele><time>2026-03-29T09:12:55Z</time></trkpt><trkpt lat="44.71936243357025" lon="8.848662260789755"><ele>283.0</ele><time>2026-03-29T09:12:58Z</time></trkpt><trkpt lat="44.719364839890154" lon="8.848573164042719"><ele>283.0</ele><time>2026-03-29T09:13:22Z</time></trkpt><trkpt lat="44.719338509226766" lon="8.848487748303748"><ele>283.0</ele><time>2026-03-29T09:13:33.001Z</time></trkpt><trkpt lat="44.71919691086846" lon="8.848290668868865"><ele>283.0</ele><time>2026-03-29T09:13:43.001Z</time></trkpt><trkpt lat="44.719136550240734" lon="8.848213409448137"><ele>283.0</ele><time>2026-03-29T09:13:45.001Z</time></trkpt><trkpt lat="44.7190548526784" lon="8.84814570871653"><ele>283.0</ele><time>2026-03-29T09:13:47.001Z</time></trkpt><trkpt lat="44.71895668114863" lon="8.848076713040196"><ele>285.4</ele><time>2026-03-29T09:13:49.001Z</time></trkpt><trkpt lat="44.71885696615888" lon="8.848003696065058"><ele>287.8</ele><time>2026-03-29T09:13:51.001Z</time></trkpt><trkpt lat="44.71875453360667" lon="8.847919972617659"><ele>290.2</ele><time>2026-03-29T09:13:53.001Z</time></trkpt><trkpt lat="44.71865864706907" lon="8.84786818524006"><ele>292.6</ele><time>2026-03-29T09:13:55.001Z</time></trkpt><trkpt lat="44.718586976316985" lon="8.84781264146614"><ele>295.0</ele><time>2026-03-29T09:13:57.001Z</time></trkpt><trkpt lat="44.71850879428881" lon="8.847743322331494"><ele>295.0</ele><time>2026-03-29T09:13:59.001Z</time></trkpt><trkpt lat="44.71844580660454" lon="8.847680654146343"><ele>295.0</ele><time>2026-03-29T09:14:01.001Z</time></trkpt><trkpt lat="44.718377155981464" lon="8.84758925920907"><ele>295.0</ele><time>2026-03-29T09:14:03.001Z</time></trkpt><trkpt lat="44.718293923700436" lon="8.847480847354356"><ele>295.0</ele><time>2026-03-29T09:14:05.001Z</time></trkpt><trkpt lat="44.718235327504075" lon="8.84741440336243"><ele>295.0</ele><time>2026-03-29T09:14:06.001Z</time></trkpt><trkpt lat="44.71817098096404" lon="8.847345821772885"><ele>295.0</ele><time>2026-03-29T09:14:07.001Z</time></trkpt><trkpt lat="44.718095973392494" lon="8.847283099198597"><ele>296.66666666666663</ele><time>2026-03-29T09:14:08.001Z</time></trkpt><trkpt lat="44.71802095575107" lon="8.847230589126271"><ele>298.3333333333333</ele><time>2026-03-29T09:14:09.001Z</time></trkpt><trkpt lat="44.71796156384206" lon="8.847191756666591"><ele>300.0</ele><time>2026-03-29T09:14:10.001Z</time></trkpt><trkpt lat="44.71784624536872" lon="8.847135616679948"><ele>301.6666666666667</ele><time>2026-03-29T09:14:12.001Z</time></trkpt><trkpt lat="44.71777946218007" lon="8.847124015949523"><ele>303.33333333333337</ele><time>2026-03-29T09:14:13.001Z</time></trkpt><trkpt lat="44.71771108710487" lon="8.847083837353834"><ele>305.0</ele><time>2026-03-29T09:14:14.001Z</time></trkpt><trkpt lat="44.71764739291261" lon="8.847064884029153"><ele>305.2857142857143</ele><time>2026-03-29T09:14:15.001Z</time></trkpt><trkpt lat="44.71757944745752" lon="8.847041672839964"><ele>305.57142857142856</ele><time>2026-03-29T09:14:16.001Z</time></trkpt><trkpt lat="44.717514026308706" lon="8.847019323996316"><ele>305.85714285714283</ele><time>2026-03-29T09:14:17.001Z</time></trkpt><trkpt lat="44.717442009428424" lon="8.847011757875311"><ele>306.1428571428571</ele><time>2026-03-29T09:14:18.001Z</time></trkpt><trkpt lat="44.71737732946846" lon="8.846979011512149"><ele>306.42857142857144</ele><time>2026-03-29T09:14:19.001Z</time></trkpt><trkpt lat="44.71730107746549" lon="8.846935280611534"><ele>306.71428571428567</ele><time>2026-03-29T09:14:20.001Z</time></trkpt><trkpt lat="44.71722847070563" lon="8.846887626465698"><ele>307.0</ele><time>2026-03-29T09:14:21.001Z</time></trkpt><trkpt lat="44.71715696856993" lon="8.846828603706367"><ele>308.8</ele><time>2026-03-29T09:14:22.001Z</time></trkpt><trkpt lat="44.7170723467586" lon="8.846764942974655"><ele>310.6</ele><time>2026-03-29T09:14:23.001Z</time></trkpt><trkpt lat="44.71699433985812" lon="8.846701678221315"><ele>312.40000000000003</ele><time>2026-03-29T09:14:24.001Z</time></trkpt><trkpt lat="44.7169116108932" lon="8.846637597977333"><ele>314.2</ele><time>2026-03-29T09:14:25.001Z</time></trkpt><trkpt lat="44.71682510468144" lon="8.846592018798663"><ele>316.0</ele><time>2026-03-29T09:14:26.001Z</time></trkpt><trkpt lat="44.7167496626584" lon="8.846524614981615"><ele>317.16666666666663</ele><time>2026-03-29T09:14:27.001Z</time></trkpt><trkpt lat="44.71667684050761" lon="8.846485231533078"><ele>318.3333333333333</ele><time>2026-03-29T09:14:28.001Z</time></trkpt><trkpt lat="44.71662959693759" lon="8.84641190700716"><ele>319.5</ele><time>2026-03-29T09:14:29.001Z</time></trkpt><trkpt lat="44.71654511742751" lon="8.846347795489754"><ele>320.6666666666667</ele><time>2026-03-29T09:14:31.001Z</time></trkpt><trkpt lat="44.716473146668086" lon="8.846357544835868"><ele>321.83333333333337</ele><time>2026-03-29T09:14:33.001Z</time></trkpt><trkpt lat="44.716404201870155" lon="8.846452414600213"><ele>323.0</ele><time>2026-03-29T09:14:35.002Z</time></trkpt><trkpt lat="44.71632063564865" lon="8.846518415603908"><ele>323.0</ele><time>2026-03-29T09:14:37Z</time></trkpt><trkpt lat="44.716196219568644" lon="8.846541304611621"><ele>323.0</ele><time>2026-03-29T09:14:39Z</time></trkpt><trkpt lat="44.71607795615308" lon="8.846536407165072"><ele>323.0</ele><time>2026-03-29T09:14:41Z</time></trkpt><trkpt lat="44.716003590773056" lon="8.84652140434597"><ele>323.0</ele><time>2026-03-29T09:14:43Z</time></trkpt><trkpt lat="44.71604679167864" lon="8.846355340185983"><ele>323.0</ele><time>2026-03-29T09:14:47Z</time></trkpt><trkpt lat="44.7160750257385" lon="8.846271922192127"><ele>323.0</ele><time>2026-03-29T09:14:48Z</time></trkpt><trkpt lat="44.71610444177686" lon="8.846177860345133"><ele>323.0</ele><time>2026-03-29T09:14:49Z</time></trkpt><trkpt lat="44.716115400886515" lon="8.846081283542702"><ele>323.0</ele><time>2026-03-29T09:14:50Z</time></trkpt><trkpt lat="44.71616826822324" lon="8.845916992681762"><ele>323.0</ele><time>2026-03-29T09:14:52Z</time></trkpt><trkpt lat="44.71618551290108" lon="8.845825941371587"><ele>323.0</ele><time>2026-03-29T09:14:53Z</time></trkpt><trkpt lat="44.71618761262174" lon="8.845735022191464"><ele>323.0</ele><time>2026-03-29T09:14:54Z</time></trkpt><trkpt lat="44.716205327917" lon="8.84555103152786"><ele>324.79999999999995</ele><time>2026-03-29T09:14:56Z</time></trkpt><trkpt lat="44.716201571694356" lon="8.845395941527745"><ele>326.6</ele><time>2026-03-29T09:14:58Z</time></trkpt><trkpt lat="44.71621571524341" lon="8.845275699422597"><ele>328.4</ele><time>2026-03-29T09:15:00Z</time></trkpt><trkpt lat="44.716244445874906" lon="8.845141523014444"><ele>330.20000000000005</ele><time>2026-03-29T09:17:43.001Z</time></trkpt><trkpt lat="44.71628983142235" lon="8.845043672098"><ele>332.0</ele><time>2026-03-29T09:17:46.001Z</time></trkpt><trkpt lat="44.71634460128435" lon="8.844955693154759"><ele>333.8</ele><time>2026-03-29T09:20:35.001Z</time></trkpt><trkpt lat="44.71640380442818" lon="8.844868281326866"><ele>335.6</ele><time>2026-03-29T09:20:37.001Z</time></trkpt><trkpt lat="44.716481757860514" lon="8.844753650705105"><ele>337.40000000000003</ele><time>2026-03-29T09:20:39.002Z</time></trkpt><trkpt lat="44.71655193658488" lon="8.844649542131291"><ele>339.20000000000005</ele><time>2026-03-29T09:20:41.002Z</time></trkpt><trkpt lat="44.71661891167472" lon="8.844552320039934"><ele>341.0</ele><time>2026-03-29T09:20:43.002Z</time></trkpt><trkpt lat="44.71669399382816" lon="8.844446934844253"><ele>341.0</ele><time>2026-03-29T09:20:45.002Z</time></trkpt><trkpt lat="44.71677501735832" lon="8.844338176606694"><ele>341.0</ele><time>2026-03-29T09:20:47.002Z</time></trkpt><trkpt lat="44.71686359520869" lon="8.844219917952694"><ele>341.0</ele><time>2026-03-29T09:20:49.002Z</time></trkpt><trkpt lat="44.71691566954271" lon="8.844152469783907"><ele>341.0</ele><time>2026-03-29T09:20:50.002Z</time></trkpt><trkpt lat="44.71696661854273" lon="8.844067556666044"><ele>341.0</ele><time>2026-03-29T09:20:51.002Z</time></trkpt><trkpt lat="44.7170266839909" lon="8.844001786270402"><ele>341.0</ele><time>2026-03-29T09:20:52.002Z</time></trkpt><trkpt lat="44.717097263062094" lon="8.843954948191314"><ele>341.0</ele><time>2026-03-29T09:20:53.002Z</time></trkpt><trkpt lat="44.71718088126294" lon="8.843928591585803"><ele>341.0</ele><time>2026-03-29T09:20:54.001Z</time></trkpt><trkpt lat="44.717276485561726" lon="8.843910220696925"><ele>341.0</ele><time>2026-03-29T09:20:55.001Z</time></trkpt><trkpt lat="44.717376222117295" lon="8.84389589491077"><ele>341.0</ele><time>2026-03-29T09:20:56.001Z</time></trkpt><trkpt lat="44.717472378493326" lon="8.84390318895789"><ele>341.0</ele><time>2026-03-29T09:20:57.001Z</time></trkpt><trkpt lat="44.717570147943384" lon="8.84389638989239"><ele>341.0</ele><time>2026-03-29T09:20:58.001Z</time></trkpt><trkpt lat="44.71766674512832" lon="8.843874169431292"><ele>341.0</ele><time>2026-03-29T09:20:59.001Z</time></trkpt><trkpt lat="44.717766210092094" lon="8.843868801913652"><ele>341.0</ele><time>2026-03-29T09:21:00.001Z</time></trkpt><trkpt lat="44.717868182323166" lon="8.843860654329957"><ele>341.0</ele><time>2026-03-29T09:21:01.001Z</time></trkpt><trkpt lat="44.7179652324618" lon="8.843850714235447"><ele>339.6</ele><time>2026-03-29T09:21:02.001Z</time></trkpt><trkpt lat="44.71806599246875" lon="8.843833017075651"><ele>338.20000000000005</ele><time>2026-03-29T09:21:03.001Z</time></trkpt><trkpt lat="44.71816337045323" lon="8.843813478314576"><ele>336.79999999999995</ele><time>2026-03-29T09:21:04.001Z</time></trkpt><trkpt lat="44.7182723772738" lon="8.84378681127656"><ele>335.4</ele><time>2026-03-29T09:21:05.001Z</time></trkpt><trkpt lat="44.71837912642732" lon="8.84375675639864"><ele>334.0</ele><time>2026-03-29T09:21:06.001Z</time></trkpt><trkpt lat="44.718480461929644" lon="8.843717679323095"><ele>332.79999999999995</ele><time>2026-03-29T09:21:07.001Z</time></trkpt><trkpt lat="44.71857014827699" lon="8.843671271922096"><ele>331.59999999999997</ele><time>2026-03-29T09:21:08.001Z</time></trkpt><trkpt lat="44.718659496317166" lon="8.843624849468409"><ele>330.4</ele><time>2026-03-29T09:21:09.001Z</time></trkpt><trkpt lat="44.71874975414221" lon="8.843581686144281"><ele>329.2</ele><time>2026-03-29T09:21:10.001Z</time></trkpt><trkpt lat="44.71883769534299" lon="8.843556380393162"><ele>328.0</ele><time>2026-03-29T09:21:11.001Z</time></trkpt><trkpt lat="44.71892476849133" lon="8.84354161034623"><ele>328.0</ele><time>2026-03-29T09:21:12.001Z</time></trkpt><trkpt lat="44.71901093232446" lon="8.843536172486989"><ele>328.0</ele><time>2026-03-29T09:21:13.001Z</time></trkpt><trkpt lat="44.719097954331666" lon="8.843533422957696"><ele>328.0</ele><time>2026-03-29T09:21:14.001Z</time></trkpt><trkpt lat="44.71918909292933" lon="8.843523069994177"><ele>328.0</ele><time>2026-03-29T09:21:15.001Z</time></trkpt><trkpt lat="44.719272137750735" lon="8.843528811110884"><ele>328.0</ele><time>2026-03-29T09:21:16.001Z</time></trkpt><trkpt lat="44.719351172478554" lon="8.843497236724321"><ele>328.0</ele><time>2026-03-29T09:21:17.001Z</time></trkpt><trkpt lat="44.71944052346463" lon="8.84343079850611"><ele>327.2</ele><time>2026-03-29T09:21:18.001Z</time></trkpt><trkpt lat="44.719530303725655" lon="8.843349286457096"><ele>326.4</ele><time>2026-03-29T09:21:19.001Z</time></trkpt><trkpt lat="44.7196158097322" lon="8.843270782266512"><ele>325.59999999999997</ele><time>2026-03-29T09:21:20.001Z</time></trkpt><trkpt lat="44.719708149367165" lon="8.843200214983963"><ele>324.79999999999995</ele><time>2026-03-29T09:21:21.001Z</time></trkpt><trkpt lat="44.719803286524375" lon="8.843137847564702"><ele>324.0</ele><time>2026-03-29T09:21:22.001Z</time></trkpt><trkpt lat="44.719895736944366" lon="8.843064454796785"><ele>324.0</ele><time>2026-03-29T09:21:23.001Z</time></trkpt><trkpt lat="44.72001009348909" lon="8.843030999951477"><ele>324.0</ele><time>2026-03-29T09:21:24.001Z</time></trkpt><trkpt lat="44.720117507153134" lon="8.84298508207469"><ele>324.0</ele><time>2026-03-29T09:21:25.001Z</time></trkpt><trkpt lat="44.720222586268335" lon="8.842951356694531"><ele>324.0</ele><time>2026-03-29T09:21:26.001Z</time></trkpt><trkpt lat="44.72031549090167" lon="8.842920046566777"><ele>324.0</ele><time>2026-03-29T09:21:27.001Z</time></trkpt><trkpt lat="44.72041485115071" lon="8.842866913362803"><ele>322.75</ele><time>2026-03-29T09:21:28.001Z</time></trkpt><trkpt lat="44.720510668797054" lon="8.84279327516944"><ele>321.5</ele><time>2026-03-29T09:21:29.001Z</time></trkpt><trkpt lat="44.72062633410845" lon="8.842736792830065"><ele>320.25</ele><time>2026-03-29T09:21:30.001Z</time></trkpt><trkpt lat="44.72073451773472" lon="8.842646168050496"><ele>319.0</ele><time>2026-03-29T09:21:31.001Z</time></trkpt><trkpt lat="44.72084019709483" lon="8.842549270128517"><ele>319.0</ele><time>2026-03-29T09:21:32.001Z</time></trkpt><trkpt lat="44.72094481953667" lon="8.842447730512"><ele>319.0</ele><time>2026-03-29T09:21:33.001Z</time></trkpt><trkpt lat="44.72104090411823" lon="8.842345935140447"><ele>319.0</ele><time>2026-03-29T09:21:34.001Z</time></trkpt><trkpt lat="44.721130167174614" lon="8.842244456939085"><ele>319.0</ele><time>2026-03-29T09:21:35.001Z</time></trkpt><trkpt lat="44.72121512383063" lon="8.842136050349687"><ele>319.2</ele><time>2026-03-29T09:21:36.001Z</time></trkpt><trkpt lat="44.72129711685527" lon="8.842015228405845"><ele>319.4</ele><time>2026-03-29T09:21:37.001Z</time></trkpt><trkpt lat="44.721368999762106" lon="8.841898553987747"><ele>319.6</ele><time>2026-03-29T09:21:38.001Z</time></trkpt><trkpt lat="44.72144140940035" lon="8.841781023159243"><ele>319.8</ele><time>2026-03-29T09:21:39.001Z</time></trkpt><trkpt lat="44.72151261687781" lon="8.841662020014123"><ele>320.0</ele><time>2026-03-29T09:21:40.001Z</time></trkpt><trkpt lat="44.72157350836331" lon="8.841558052444027"><ele>320.0</ele><time>2026-03-29T09:21:41.001Z</time></trkpt><trkpt lat="44.72163823992971" lon="8.84144888369589"><ele>320.0</ele><time>2026-03-29T09:21:42.001Z</time></trkpt><trkpt lat="44.7216971455307" lon="8.841355855887175"><ele>320.0</ele><time>2026-03-29T09:21:43.001Z</time></trkpt><trkpt lat="44.721743295583266" lon="8.841266215901596"><ele>320.0</ele><time>2026-03-29T09:21:44.001Z</time></trkpt><trkpt lat="44.72179981484216" lon="8.841206953858324"><ele>320.0</ele><time>2026-03-29T09:21:45.001Z</time></trkpt><trkpt lat="44.72187635352436" lon="8.841156024378586"><ele>320.0</ele><time>2026-03-29T09:21:46.001Z</time></trkpt><trkpt lat="44.72196906903031" lon="8.841113038797063"><ele>318.4</ele><time>2026-03-29T09:21:47.001Z</time></trkpt><trkpt lat="44.72206670083865" lon="8.841080248356976"><ele>316.8</ele><time>2026-03-29T09:21:48.001Z</time></trkpt><trkpt lat="44.722163987675415" lon="8.841041497577299"><ele>315.2</ele><time>2026-03-29T09:21:49.001Z</time></trkpt><trkpt lat="44.722257629689814" lon="8.841027646629518"><ele>313.6</ele><time>2026-03-29T09:21:50.001Z</time></trkpt><trkpt lat="44.722342031814065" lon="8.840985241774206"><ele>312.0</ele><time>2026-03-29T09:21:51.001Z</time></trkpt><trkpt lat="44.72241572268522" lon="8.840938181816826"><ele>312.0</ele><time>2026-03-29T09:21:52.001Z</time></trkpt><trkpt lat="44.7224802007131" lon="8.840882458116047"><ele>312.0</ele><time>2026-03-29T09:21:53.001Z</time></trkpt><trkpt lat="44.72253109900746" lon="8.84080275846193"><ele>312.0</ele><time>2026-03-29T09:21:54.001Z</time></trkpt><trkpt lat="44.72256508722089" lon="8.840716960430527"><ele>312.0</ele><time>2026-03-29T09:21:55.001Z</time></trkpt><trkpt lat="44.722589348150336" lon="8.840619709637757"><ele>312.0</ele><time>2026-03-29T09:21:56.001Z</time></trkpt><trkpt lat="44.72261386663236" lon="8.840504437174806"><ele>312.0</ele><time>2026-03-29T09:21:57.001Z</time></trkpt><trkpt lat="44.722639320764415" lon="8.840392492363119"><ele>312.0</ele><time>2026-03-29T09:21:58.001Z</time></trkpt><trkpt lat="44.72267957545746" lon="8.840291021480956"><ele>312.0</ele><time>2026-03-29T09:21:59.001Z</time></trkpt><trkpt lat="44.72272968816329" lon="8.840182801633706"><ele>312.0</ele><time>2026-03-29T09:22:00.001Z</time></trkpt><trkpt lat="44.722780889641236" lon="8.840072040381859"><ele>312.0</ele><time>2026-03-29T09:22:01.001Z</time></trkpt><trkpt lat="44.72282089674346" lon="8.839957425221794"><ele>312.0</ele><time>2026-03-29T09:22:02.001Z</time></trkpt><trkpt lat="44.72284600584359" lon="8.839835200388974"><ele>312.0</ele><time>2026-03-29T09:22:03.001Z</time></trkpt><trkpt lat="44.72285455352095" lon="8.839706999411177"><ele>308.2</ele><time>2026-03-29T09:22:04.001Z</time></trkpt><trkpt lat="44.72285681475055" lon="8.839580216207576"><ele>304.4</ele><time>2026-03-29T09:22:05.001Z</time></trkpt><trkpt lat="44.722857270917615" lon="8.839445597025323"><ele>300.6</ele><time>2026-03-29T09:22:06.001Z</time></trkpt><trkpt lat="44.72285972196836" lon="8.839299278586166"><ele>296.8</ele><time>2026-03-29T09:22:07.001Z</time></trkpt><trkpt lat="44.72287125050961" lon="8.839159072934203"><ele>293.0</ele><time>2026-03-29T09:22:08.001Z</time></trkpt><trkpt lat="44.7228853815322" lon="8.83902105464138"><ele>292.33333333333337</ele><time>2026-03-29T09:22:09.001Z</time></trkpt><trkpt lat="44.72290272440481" lon="8.838898454055574"><ele>291.6666666666667</ele><time>2026-03-29T09:22:10.001Z</time></trkpt><trkpt lat="44.722921987810686" lon="8.83879359382879"><ele>291.0</ele><time>2026-03-29T09:22:11.001Z</time></trkpt><trkpt lat="44.722946510329514" lon="8.838699866151398"><ele>290.3333333333333</ele><time>2026-03-29T09:22:12.001Z</time></trkpt><trkpt lat="44.72298296838983" lon="8.838617270278318"><ele>289.66666666666663</ele><time>2026-03-29T09:22:13.001Z</time></trkpt><trkpt lat="44.723034607162994" lon="8.838536985423586"><ele>289.0</ele><time>2026-03-29T09:22:14.001Z</time></trkpt><trkpt lat="44.723100902844784" lon="8.838456836204566"><ele>289.0</ele><time>2026-03-29T09:22:15.001Z</time></trkpt><trkpt lat="44.723154690073905" lon="8.838403958536695"><ele>289.0</ele><time>2026-03-29T09:22:16.001Z</time></trkpt><trkpt lat="44.72324279103943" lon="8.838333000483257"><ele>289.0</ele><time>2026-03-29T09:22:18.001Z</time></trkpt><trkpt lat="44.72331173752534" lon="8.83849615651005"><ele>289.0</ele><time>2026-03-29T09:22:23.001Z</time></trkpt><trkpt lat="44.72332380947166" lon="8.83859913785521"><ele>289.0</ele><time>2026-03-29T09:22:24.001Z</time></trkpt><trkpt lat="44.72334866764426" lon="8.83869879951322"><ele>289.0</ele><time>2026-03-29T09:22:25.001Z</time></trkpt><trkpt lat="44.723384721301315" lon="8.838814191818201"><ele>289.0</ele><time>2026-03-29T09:22:26.001Z</time></trkpt><trkpt lat="44.723434060384506" lon="8.838935222208189"><ele>289.0</ele><time>2026-03-29T09:22:27.001Z</time></trkpt><trkpt lat="44.72348730808708" lon="8.839066594538437"><ele>289.0</ele><time>2026-03-29T09:22:28.001Z</time></trkpt><trkpt lat="44.723547936029476" lon="8.839195351128408"><ele>289.0</ele><time>2026-03-29T09:22:29.001Z</time></trkpt><trkpt lat="44.72361005507875" lon="8.839319736871362"><ele>286.8</ele><time>2026-03-29T09:22:30.001Z</time></trkpt><trkpt lat="44.7236741087821" lon="8.839453985326143"><ele>284.59999999999997</ele><time>2026-03-29T09:22:31.001Z</time></trkpt><trkpt lat="44.723736323855185" lon="8.839573781218554"><ele>282.4</ele><time>2026-03-29T09:22:32.001Z</time></trkpt><trkpt lat="44.72380127110867" lon="8.83969192476935"><ele>280.2</ele><time>2026-03-29T09:22:33.001Z</time></trkpt><trkpt lat="44.72386649857154" lon="8.839814829984068"><ele>278.0</ele><time>2026-03-29T09:22:34.001Z</time></trkpt><trkpt lat="44.723923364075446" lon="8.839945674659786"><ele>278.0</ele><time>2026-03-29T09:22:35.001Z</time></trkpt><trkpt lat="44.72396372148683" lon="8.840066905783658"><ele>278.0</ele><time>2026-03-29T09:22:36.001Z</time></trkpt><trkpt lat="44.723972794434864" lon="8.840186998543336"><ele>278.0</ele><time>2026-03-29T09:22:37.001Z</time></trkpt><trkpt lat="44.72394991532163" lon="8.840296441851823"><ele>278.0</ele><time>2026-03-29T09:22:38.001Z</time></trkpt><trkpt lat="44.72390241366866" lon="8.840397612357178"><ele>278.0</ele><time>2026-03-29T09:22:39.001Z</time></trkpt><trkpt lat="44.72382935687745" lon="8.840501062311612"><ele>276.75</ele><time>2026-03-29T09:22:40.001Z</time></trkpt><trkpt lat="44.72375067641615" lon="8.840615680639845"><ele>275.5</ele><time>2026-03-29T09:22:41.001Z</time></trkpt><trkpt lat="44.723697573279026" lon="8.840744851222398"><ele>274.25</ele><time>2026-03-29T09:22:42.001Z</time></trkpt><trkpt lat="44.723677797458514" lon="8.840900307804633"><ele>273.0</ele><time>2026-03-29T09:22:43.001Z</time></trkpt><trkpt lat="44.7236819042598" lon="8.84107927716878"><ele>272.0</ele><time>2026-03-29T09:22:44.001Z</time></trkpt><trkpt lat="44.723691863446454" lon="8.84124954444652"><ele>271.0</ele><time>2026-03-29T09:22:45.001Z</time></trkpt><trkpt lat="44.72369571259672" lon="8.841403212857616"><ele>270.0</ele><time>2026-03-29T09:22:46.001Z</time></trkpt><trkpt lat="44.72368260740442" lon="8.841550101667949"><ele>269.0</ele><time>2026-03-29T09:22:47.001Z</time></trkpt><trkpt lat="44.723656110223594" lon="8.841692831781929"><ele>268.0</ele><time>2026-03-29T09:22:48.001Z</time></trkpt><trkpt lat="44.723632820881676" lon="8.841854584021645"><ele>266.75</ele><time>2026-03-29T09:22:49.001Z</time></trkpt><trkpt lat="44.72360611844534" lon="8.842030055482176"><ele>265.5</ele><time>2026-03-29T09:22:50.001Z</time></trkpt><trkpt lat="44.72358538015937" lon="8.842216530932529"><ele>264.25</ele><time>2026-03-29T09:22:51.001Z</time></trkpt><trkpt lat="44.72355543798944" lon="8.842389514838716"><ele>263.0</ele><time>2026-03-29T09:22:52.001Z</time></trkpt><trkpt lat="44.723533065691306" lon="8.842553968886975"><ele>264.2</ele><time>2026-03-29T09:22:53.001Z</time></trkpt><trkpt lat="44.723507274930746" lon="8.842713729757921"><ele>265.4</ele><time>2026-03-29T09:22:54.001Z</time></trkpt><trkpt lat="44.72348280110062" lon="8.842855789210551"><ele>266.59999999999997</ele><time>2026-03-29T09:22:55.001Z</time></trkpt><trkpt lat="44.72345862409139" lon="8.842993574010995"><ele>267.8</ele><time>2026-03-29T09:22:56.001Z</time></trkpt><trkpt lat="44.7234419735135" lon="8.843125919578569"><ele>269.0</ele><time>2026-03-29T09:22:57.001Z</time></trkpt><trkpt lat="44.72342684382703" lon="8.843249690808568"><ele>269.0</ele><time>2026-03-29T09:22:58.001Z</time></trkpt><trkpt lat="44.7234151149485" lon="8.843380251720433"><ele>269.0</ele><time>2026-03-29T09:22:59.001Z</time></trkpt><trkpt lat="44.723409200447506" lon="8.843512147016447"><ele>269.0</ele><time>2026-03-29T09:22:59.998Z</time></trkpt><trkpt lat="44.72342200280114" lon="8.843652744842219"><ele>269.0</ele><time>2026-03-29T09:23:00.998Z</time></trkpt><trkpt lat="44.72345139919067" lon="8.843796688553223"><ele>269.0</ele><time>2026-03-29T09:23:01.998Z</time></trkpt><trkpt lat="44.72348488537286" lon="8.84395779858274"><ele>268.5</ele><time>2026-03-29T09:23:02.998Z</time></trkpt><trkpt lat="44.723513444471294" lon="8.844119464414497"><ele>268.0</ele><time>2026-03-29T09:23:03.998Z</time></trkpt><trkpt lat="44.72353064406016" lon="8.844278412630489"><ele>267.5</ele><time>2026-03-29T09:23:04.998Z</time></trkpt><trkpt lat="44.72355086846131" lon="8.844441878366986"><ele>267.0</ele><time>2026-03-29T09:23:05.998Z</time></trkpt><trkpt lat="44.723571234564815" lon="8.844601885233315"><ele>263.8</ele><time>2026-03-29T09:23:06.998Z</time></trkpt><trkpt lat="44.72358670907075" lon="8.8447540525779"><ele>260.6</ele><time>2026-03-29T09:23:07.998Z</time></trkpt><trkpt lat="44.72360248230097" lon="8.84490759378135"><ele>257.40000000000003</ele><time>2026-03-29T09:23:08.998Z</time></trkpt><trkpt lat="44.72362228113929" lon="8.845063226316316"><ele>254.20000000000002</ele><time>2026-03-29T09:23:09.998Z</time></trkpt><trkpt lat="44.72363375335705" lon="8.845214992009362"><ele>251.0</ele><time>2026-03-29T09:23:10.998Z</time></trkpt><trkpt lat="44.723634212149264" lon="8.845365469476295"><ele>250.0</ele><time>2026-03-29T09:23:11.998Z</time></trkpt><trkpt lat="44.72363265321726" lon="8.845515133370075"><ele>249.0</ele><time>2026-03-29T09:23:12.998Z</time></trkpt><trkpt lat="44.723617558827655" lon="8.845673295831658"><ele>248.0</ele><time>2026-03-29T09:23:13.998Z</time></trkpt><trkpt lat="44.72360984103306" lon="8.845843421603604"><ele>247.0</ele><time>2026-03-29T09:23:14.999Z</time></trkpt><trkpt lat="44.72360620978338" lon="8.846012035668638"><ele>247.0</ele><time>2026-03-29T09:23:15.999Z</time></trkpt><trkpt lat="44.72360289188361" lon="8.84615813997977"><ele>247.0</ele><time>2026-03-29T09:23:16.999Z</time></trkpt><trkpt lat="44.723602300913925" lon="8.84629600758759"><ele>247.0</ele><time>2026-03-29T09:23:17.999Z</time></trkpt><trkpt lat="44.72361331633433" lon="8.846423897262884"><ele>247.0</ele><time>2026-03-29T09:23:18.999Z</time></trkpt><trkpt lat="44.72364455805818" lon="8.846531282941303"><ele>247.0</ele><time>2026-03-29T09:23:19.999Z</time></trkpt><trkpt lat="44.723682686367454" lon="8.846634020047592"><ele>247.0</ele><time>2026-03-29T09:23:20.999Z</time></trkpt><trkpt lat="44.72374679186455" lon="8.846720224748076"><ele>247.0</ele><time>2026-03-29T09:23:21.999Z</time></trkpt><trkpt lat="44.723819652971876" lon="8.84679359423725"><ele>247.0</ele><time>2026-03-29T09:23:22.999Z</time></trkpt><trkpt lat="44.72391598293064" lon="8.846845641952665"><ele>247.0</ele><time>2026-03-29T09:23:23.999Z</time></trkpt><trkpt lat="44.72402413794912" lon="8.846856926933572"><ele>247.0</ele><time>2026-03-29T09:23:24.999Z</time></trkpt><trkpt lat="44.72413745576989" lon="8.846834558826892"><ele>246.75</ele><time>2026-03-29T09:23:25.999Z</time></trkpt><trkpt lat="44.72426252075563" lon="8.846805042993772"><ele>246.5</ele><time>2026-03-29T09:23:26.999Z</time></trkpt><trkpt lat="44.72440263677637" lon="8.846777705607707"><ele>246.25</ele><time>2026-03-29T09:23:27.999Z</time></trkpt><trkpt lat="44.72454839861573" lon="8.846767626987104"><ele>246.0</ele><time>2026-03-29T09:23:28.999Z</time></trkpt><trkpt lat="44.72469703525584" lon="8.846749214143486"><ele>245.5</ele><time>2026-03-29T09:23:29.999Z</time></trkpt><trkpt lat="44.72483429729843" lon="8.846729138841557"><ele>245.0</ele><time>2026-03-29T09:23:30.999Z</time></trkpt><trkpt lat="44.72496490159498" lon="8.846709012009695"><ele>244.5</ele><time>2026-03-29T09:23:31.999Z</time></trkpt><trkpt lat="44.725093745305955" lon="8.846703783729794"><ele>244.0</ele><time>2026-03-29T09:23:32.999Z</time></trkpt><trkpt lat="44.72521610940699" lon="8.846693377869439"><ele>243.25</ele><time>2026-03-29T09:23:33.999Z</time></trkpt><trkpt lat="44.725341097514686" lon="8.846704004203275"><ele>242.5</ele><time>2026-03-29T09:23:34.999Z</time></trkpt><trkpt lat="44.72546441439868" lon="8.846734710582364"><ele>241.75</ele><time>2026-03-29T09:23:35.999Z</time></trkpt><trkpt lat="44.72558390122096" lon="8.846795508802606"><ele>241.0</ele><time>2026-03-29T09:23:36.999Z</time></trkpt><trkpt lat="44.72568370604774" lon="8.846872065358303"><ele>241.0</ele><time>2026-03-29T09:23:37.999Z</time></trkpt><trkpt lat="44.725772284937115" lon="8.846954750203944"><ele>241.00000000000003</ele><time>2026-03-29T09:23:38.999Z</time></trkpt><trkpt lat="44.725851398548215" lon="8.847039115320436"><ele>241.00000000000003</ele><time>2026-03-29T09:23:39.999Z</time></trkpt><trkpt lat="44.725916715919915" lon="8.847155682655323"><ele>241.0</ele><time>2026-03-29T09:23:40.999Z</time></trkpt><trkpt lat="44.72598242967022" lon="8.847282396320992"><ele>241.0</ele><time>2026-03-29T09:23:41.999Z</time></trkpt><trkpt lat="44.72607279653742" lon="8.847412089370865"><ele>240.25</ele><time>2026-03-29T09:23:42.999Z</time></trkpt><trkpt lat="44.72614081277801" lon="8.847568377963063"><ele>239.5</ele><time>2026-03-29T09:23:43.999Z</time></trkpt><trkpt lat="44.72621778828604" lon="8.847718328759914"><ele>238.75</ele><time>2026-03-29T09:23:45Z</time></trkpt><trkpt lat="44.72629894046357" lon="8.84786073948615"><ele>238.0</ele><time>2026-03-29T09:23:46Z</time></trkpt><trkpt lat="44.72638358018283" lon="8.848002580805817"><ele>238.0</ele><time>2026-03-29T09:23:47Z</time></trkpt><trkpt lat="44.72646664213443" lon="8.848142873841027"><ele>238.0</ele><time>2026-03-29T09:23:48Z</time></trkpt><trkpt lat="44.72654979098698" lon="8.848277142448028"><ele>238.0</ele><time>2026-03-29T09:23:49Z</time></trkpt><trkpt lat="44.72662580305939" lon="8.84841241534371"><ele>238.0</ele><time>2026-03-29T09:23:50Z</time></trkpt><trkpt lat="44.726699983025455" lon="8.848546321179874"><ele>237.60000000000002</ele><time>2026-03-29T09:23:51Z</time></trkpt><trkpt lat="44.72677592875179" lon="8.848679768755602"><ele>237.20000000000002</ele><time>2026-03-29T09:23:52Z</time></trkpt><trkpt lat="44.726848478567355" lon="8.848798312466917"><ele>236.8</ele><time>2026-03-29T09:23:53Z</time></trkpt><trkpt lat="44.7269090725929" lon="8.848906501877554"><ele>236.4</ele><time>2026-03-29T09:23:54Z</time></trkpt><trkpt lat="44.7269555328972" lon="8.849004774314865"><ele>236.0</ele><time>2026-03-29T09:23:55Z</time></trkpt><trkpt lat="44.72698280026487" lon="8.84909860565356"><ele>235.8</ele><time>2026-03-29T09:23:56Z</time></trkpt><trkpt lat="44.726993422938435" lon="8.849187764903089"><ele>235.60000000000002</ele><time>2026-03-29T09:23:57Z</time></trkpt><trkpt lat="44.72706275011853" lon="8.84932761972505"><ele>235.4</ele><time>2026-03-29T09:23:59Z</time></trkpt><trkpt lat="44.72714247254623" lon="8.849388316838759"><ele>235.2</ele><time>2026-03-29T09:24:00Z</time></trkpt><trkpt lat="44.727216774758844" lon="8.849459181634316"><ele>235.0</ele><time>2026-03-29T09:24:01Z</time></trkpt><trkpt lat="44.727297741665495" lon="8.849562520804184"><ele>234.75</ele><time>2026-03-29T09:24:02Z</time></trkpt><trkpt lat="44.72737012369243" lon="8.849674554869509"><ele>234.5</ele><time>2026-03-29T09:24:03Z</time></trkpt><trkpt lat="44.7274557482048" lon="8.849788327763772"><ele>234.25</ele><time>2026-03-29T09:24:04Z</time></trkpt><trkpt lat="44.72754677515351" lon="8.84989154745367"><ele>234.0</ele><time>2026-03-29T09:24:05Z</time></trkpt><trkpt lat="44.727646233972514" lon="8.849986897035851"><ele>233.75</ele><time>2026-03-29T09:24:06Z</time></trkpt><trkpt lat="44.72774806029467" lon="8.850067922972805"><ele>233.5</ele><time>2026-03-29T09:24:07Z</time></trkpt><trkpt lat="44.727858193634134" lon="8.850141724154268"><ele>233.25</ele><time>2026-03-29T09:24:08Z</time></trkpt><trkpt lat="44.72796201161457" lon="8.850209529825747"><ele>233.0</ele><time>2026-03-29T09:24:09Z</time></trkpt><trkpt lat="44.72805625150748" lon="8.850275974670344"><ele>233.0</ele><time>2026-03-29T09:24:10Z</time></trkpt><trkpt lat="44.72813591482234" lon="8.850339206734075"><ele>233.0</ele><time>2026-03-29T09:24:11Z</time></trkpt><trkpt lat="44.7282193089842" lon="8.850416493355898"><ele>233.0</ele><time>2026-03-29T09:24:12Z</time></trkpt><trkpt lat="44.728308472166226" lon="8.850513990828471"><ele>233.0</ele><time>2026-03-29T09:24:13Z</time></trkpt><trkpt lat="44.728405355464325" lon="8.850627302607592"><ele>233.0</ele><time>2026-03-29T09:24:14Z</time></trkpt><trkpt lat="44.728504075489845" lon="8.850754115661507"><ele>231.5</ele><time>2026-03-29T09:24:15Z</time></trkpt><trkpt lat="44.7286015167312" lon="8.850889696569274"><ele>230.0</ele><time>2026-03-29T09:24:16Z</time></trkpt><trkpt lat="44.728688317146556" lon="8.851032058403153"><ele>228.5</ele><time>2026-03-29T09:24:17Z</time></trkpt><trkpt lat="44.728777345089874" lon="8.851161839836246"><ele>227.0</ele><time>2026-03-29T09:24:18Z</time></trkpt><trkpt lat="44.72886399257718" lon="8.851287735135235"><ele>225.39999999999998</ele><time>2026-03-29T09:24:19Z</time></trkpt><trkpt lat="44.72893967154452" lon="8.851402674271688"><ele>223.79999999999998</ele><time>2026-03-29T09:24:20Z</time></trkpt><trkpt lat="44.729000888948256" lon="8.85151444121387"><ele>222.2</ele><time>2026-03-29T09:24:21Z</time></trkpt><trkpt lat="44.72904449063353" lon="8.851620537406303"><ele>220.6</ele><time>2026-03-29T09:24:22Z</time></trkpt><trkpt lat="44.72907292924562" lon="8.851729759554289"><ele>219.0</ele><time>2026-03-29T09:24:23Z</time></trkpt><trkpt lat="44.72908537130703" lon="8.851839261846095"><ele>218.33333333333334</ele><time>2026-03-29T09:24:24Z</time></trkpt><trkpt lat="44.729087239426065" lon="8.851939156855716"><ele>217.66666666666669</ele><time>2026-03-29T09:24:25Z</time></trkpt><trkpt lat="44.72906717111253" lon="8.852095366312781"><ele>217.0</ele><time>2026-03-29T09:24:27Z</time></trkpt><trkpt lat="44.729044489652445" lon="8.852226678363474"><ele>216.33333333333334</ele><time>2026-03-29T09:24:29Z</time></trkpt><trkpt lat="44.7289795413199" lon="8.85226389106549"><ele>215.66666666666669</ele><time>2026-03-29T09:24:30Z</time></trkpt><trkpt lat="44.72893019963121" lon="8.852329973196126"><ele>215.0</ele><time>2026-03-29T09:24:31Z</time></trkpt><trkpt lat="44.72888166251585" lon="8.852412464408697"><ele>215.0</ele><time>2026-03-29T09:24:32Z</time></trkpt><trkpt lat="44.728827308016044" lon="8.852503664107953"><ele>215.0</ele><time>2026-03-29T09:24:33Z</time></trkpt><trkpt lat="44.72877024581477" lon="8.852613516031502"><ele>215.0</ele><time>2026-03-29T09:24:34Z</time></trkpt><trkpt lat="44.72871141884619" lon="8.852730540932654"><ele>215.0</ele><time>2026-03-29T09:24:35Z</time></trkpt><trkpt lat="44.728659808202245" lon="8.852851374664596"><ele>215.0</ele><time>2026-03-29T09:24:36Z</time></trkpt><trkpt lat="44.72861424521878" lon="8.852978815108317"><ele>215.0</ele><time>2026-03-29T09:24:37Z</time></trkpt><trkpt lat="44.728565921383044" lon="8.853119790149076"><ele>215.0</ele><time>2026-03-29T09:24:38Z</time></trkpt><trkpt lat="44.72852029656565" lon="8.85325316935228"><ele>215.0</ele><time>2026-03-29T09:24:39Z</time></trkpt><trkpt lat="44.72847772058671" lon="8.853361324039465"><ele>215.0</ele><time>2026-03-29T09:24:40Z</time></trkpt><trkpt lat="44.72843349202719" lon="8.853455067624674"><ele>215.0</ele><time>2026-03-29T09:24:41Z</time></trkpt><trkpt lat="44.72837683828023" lon="8.853543812817152"><ele>215.75</ele><time>2026-03-29T09:24:42Z</time></trkpt><trkpt lat="44.728285104385094" lon="8.853624382772626"><ele>216.5</ele><time>2026-03-29T09:24:43Z</time></trkpt><trkpt lat="44.72818233398132" lon="8.853706280491005"><ele>217.25</ele><time>2026-03-29T09:24:44Z</time></trkpt><trkpt lat="44.728073616437136" lon="8.853794415530723"><ele>218.0</ele><time>2026-03-29T09:24:45Z</time></trkpt><trkpt lat="44.72796770376728" lon="8.853872626840518"><ele>218.0</ele><time>2026-03-29T09:24:46Z</time></trkpt><trkpt lat="44.727865574256136" lon="8.853953551710454"><ele>218.0</ele><time>2026-03-29T09:24:47Z</time></trkpt><trkpt lat="44.72777004981025" lon="8.854026996459943"><ele>218.0</ele><time>2026-03-29T09:24:48Z</time></trkpt><trkpt lat="44.72767884863375" lon="8.85409407019853"><ele>218.0</ele><time>2026-03-29T09:24:49Z</time></trkpt><trkpt lat="44.72758991871514" lon="8.854159884375012"><ele>218.0</ele><time>2026-03-29T09:24:50.001Z</time></trkpt><trkpt lat="44.727504845800674" lon="8.85423989128617"><ele>217.83333333333334</ele><time>2026-03-29T09:24:51.001Z</time></trkpt><trkpt lat="44.72742017265919" lon="8.854304831320864"><ele>217.66666666666669</ele><time>2026-03-29T09:24:52.001Z</time></trkpt><trkpt lat="44.72734202241631" lon="8.854365925210617"><ele>217.5</ele><time>2026-03-29T09:24:53.001Z</time></trkpt><trkpt lat="44.727262572644534" lon="8.854425689719955"><ele>217.33333333333331</ele><time>2026-03-29T09:24:54.001Z</time></trkpt><trkpt lat="44.72719811628192" lon="8.854476043328356"><ele>217.16666666666666</ele><time>2026-03-29T09:24:55.001Z</time></trkpt><trkpt lat="44.72713797864251" lon="8.854522888338161"><ele>217.0</ele><time>2026-03-29T09:24:56.001Z</time></trkpt><trkpt lat="44.727081158720786" lon="8.85456486776366"><ele>217.0</ele><time>2026-03-29T09:24:57.001Z</time></trkpt><trkpt lat="44.72702634107672" lon="8.854610474868142"><ele>217.0</ele><time>2026-03-29T09:24:58.001Z</time></trkpt><trkpt lat="44.72696712368857" lon="8.854659443707314"><ele>217.0</ele><time>2026-03-29T09:24:59.001Z</time></trkpt><trkpt lat="44.726910686340325" lon="8.85470234222926"><ele>217.0</ele><time>2026-03-29T09:25:00.001Z</time></trkpt><trkpt lat="44.72684936258042" lon="8.854744359616594"><ele>217.0</ele><time>2026-03-29T09:25:01.001Z</time></trkpt><trkpt lat="44.726793447900384" lon="8.854788279021133"><ele>217.0</ele><time>2026-03-29T09:25:02.001Z</time></trkpt><trkpt lat="44.72673743838723" lon="8.85483023132237"><ele>217.0</ele><time>2026-03-29T09:25:03.001Z</time></trkpt><trkpt lat="44.72662985212916" lon="8.854904091613324"><ele>218.0</ele><time>2026-03-29T09:25:05.001Z</time></trkpt><trkpt lat="44.726536371962524" lon="8.854979222648685"><ele>219.0</ele><time>2026-03-29T09:25:06.998Z</time></trkpt><trkpt lat="44.72645912516182" lon="8.855047591764764"><ele>220.0</ele><time>2026-03-29T09:25:08.998Z</time></trkpt><trkpt lat="44.72637196631062" lon="8.85512456722229"><ele>221.0</ele><time>2026-03-29T09:25:10.998Z</time></trkpt><trkpt lat="44.726319066929435" lon="8.85517492168136"><ele>222.0</ele><time>2026-03-29T09:25:11.998Z</time></trkpt><trkpt lat="44.726214412209195" lon="8.855252336140147"><ele>222.0</ele><time>2026-03-29T09:25:13.998Z</time></trkpt><trkpt lat="44.72615437273497" lon="8.855298769467353"><ele>222.0</ele><time>2026-03-29T09:25:14.998Z</time></trkpt><trkpt lat="44.7260568146932" lon="8.855379655239595"><ele>222.0</ele><time>2026-03-29T09:25:16.998Z</time></trkpt><trkpt lat="44.72596652546719" lon="8.855455194460195"><ele>222.0</ele><time>2026-03-29T09:25:18.998Z</time></trkpt><trkpt lat="44.72586309787872" lon="8.855534981392044"><ele>222.0</ele><time>2026-03-29T09:25:20.999Z</time></trkpt><trkpt lat="44.72575956506691" lon="8.855619700116076"><ele>222.0</ele><time>2026-03-29T09:25:22.999Z</time></trkpt><trkpt lat="44.72568061419997" lon="8.85568490410545"><ele>222.0</ele><time>2026-03-29T09:25:24.999Z</time></trkpt><trkpt lat="44.72560979209874" lon="8.855751386221886"><ele>222.0</ele><time>2026-03-29T09:25:26.999Z</time></trkpt><trkpt lat="44.72555181845834" lon="8.8558070933405"><ele>222.0</ele><time>2026-03-29T09:25:28.999Z</time></trkpt><trkpt lat="44.72549285070713" lon="8.855853945055408"><ele>222.0</ele><time>2026-03-29T09:25:30.999Z</time></trkpt><trkpt lat="44.72541978625008" lon="8.855920076803457"><ele>222.0</ele><time>2026-03-29T09:25:32.999Z</time></trkpt><trkpt lat="44.72533503690776" lon="8.855980402561157"><ele>222.0</ele><time>2026-03-29T09:25:34.999Z</time></trkpt><trkpt lat="44.72526321740078" lon="8.85603904414729"><ele>222.0</ele><time>2026-03-29T09:25:35.999Z</time></trkpt><trkpt lat="44.725183252917226" lon="8.856082915937453"><ele>222.0</ele><time>2026-03-29T09:25:36.999Z</time></trkpt><trkpt lat="44.725117587086814" lon="8.856133483489476"><ele>222.0</ele><time>2026-03-29T09:25:37.999Z</time></trkpt><trkpt lat="44.72506703268754" lon="8.856195120716071"><ele>222.0</ele><time>2026-03-29T09:25:38.999Z</time></trkpt><trkpt lat="44.72499617109037" lon="8.85626928856768"><ele>222.0</ele><time>2026-03-29T09:25:39.999Z</time></trkpt><trkpt lat="44.724913377530264" lon="8.856317270213475"><ele>222.0</ele><time>2026-03-29T09:25:40.999Z</time></trkpt><trkpt lat="44.72483754226608" lon="8.856364186366122"><ele>222.0</ele><time>2026-03-29T09:25:41.999Z</time></trkpt><trkpt lat="44.724773294302835" lon="8.856402622511908"><ele>222.0</ele><time>2026-03-29T09:25:42.999Z</time></trkpt><trkpt lat="44.72471478298241" lon="8.8564420627518"><ele>222.0</ele><time>2026-03-29T09:25:44Z</time></trkpt><trkpt lat="44.72465753582069" lon="8.856481698042739"><ele>222.0</ele><time>2026-03-29T09:25:45Z</time></trkpt><trkpt lat="44.72460050334332" lon="8.856521252573106"><ele>222.0</ele><time>2026-03-29T09:25:46Z</time></trkpt><trkpt lat="44.72453886023784" lon="8.85654708206721"><ele>222.0</ele><time>2026-03-29T09:25:47Z</time></trkpt><trkpt lat="44.724492197902116" lon="8.856613818712342"><ele>222.0</ele><time>2026-03-29T09:25:48Z</time></trkpt><trkpt lat="44.724427552562005" lon="8.856668497727286"><ele>222.0</ele><time>2026-03-29T09:25:49Z</time></trkpt><trkpt lat="44.724365655291" lon="8.856706638188752"><ele>222.0</ele><time>2026-03-29T09:25:50Z</time></trkpt><trkpt lat="44.72430531149795" lon="8.856745895746634"><ele>222.0</ele><time>2026-03-29T09:25:51Z</time></trkpt><trkpt lat="44.724242960575374" lon="8.856807907791623"><ele>222.0</ele><time>2026-03-29T09:25:52Z</time></trkpt><trkpt lat="44.724180388215906" lon="8.8568536204907"><ele>222.0</ele><time>2026-03-29T09:25:53Z</time></trkpt><trkpt lat="44.72408265378631" lon="8.856935465156996"><ele>222.0</ele><time>2026-03-29T09:25:55Z</time></trkpt><trkpt lat="44.72397686134933" lon="8.857014400287497"><ele>222.0</ele><time>2026-03-29T09:25:57Z</time></trkpt><trkpt lat="44.72386673513943" lon="8.857092053269223"><ele>222.0</ele><time>2026-03-29T09:25:59Z</time></trkpt><trkpt lat="44.72380974689008" lon="8.857143696512134"><ele>222.0</ele><time>2026-03-29T09:26:00Z</time></trkpt><trkpt lat="44.723751751428146" lon="8.857194446577264"><ele>222.0</ele><time>2026-03-29T09:26:01Z</time></trkpt><trkpt lat="44.72369625127323" lon="8.857250097692711"><ele>222.0</ele><time>2026-03-29T09:26:02Z</time></trkpt><trkpt lat="44.72363908149879" lon="8.85730642681391"><ele>222.0</ele><time>2026-03-29T09:26:03Z</time></trkpt><trkpt lat="44.72357633420107" lon="8.857374251924387"><ele>222.0</ele><time>2026-03-29T09:26:04Z</time></trkpt><trkpt lat="44.723508924542216" lon="8.85741632019025"><ele>222.0</ele><time>2026-03-29T09:26:05Z</time></trkpt><trkpt lat="44.7234546940592" lon="8.857471253511395"><ele>222.0</ele><time>2026-03-29T09:26:06Z</time></trkpt><trkpt lat="44.72336031664869" lon="8.857519054668117"><ele>222.0</ele><time>2026-03-29T09:26:08Z</time></trkpt><trkpt lat="44.72326859460562" lon="8.857595905666368"><ele>222.0</ele><time>2026-03-29T09:26:10Z</time></trkpt><trkpt lat="44.72317612715315" lon="8.857661919929132"><ele>222.0</ele><time>2026-03-29T09:26:12Z</time></trkpt><trkpt lat="44.72307202240168" lon="8.857754569400848"><ele>222.0</ele><time>2026-03-29T09:26:14Z</time></trkpt><trkpt lat="44.72296260731375" lon="8.857842666844856"><ele>222.0</ele><time>2026-03-29T09:26:16Z</time></trkpt><trkpt lat="44.72290321561496" lon="8.857886414349185"><ele>222.0</ele><time>2026-03-29T09:26:17Z</time></trkpt><trkpt lat="44.72283201227691" lon="8.857926676196499"><ele>222.0</ele><time>2026-03-29T09:26:18Z</time></trkpt><trkpt lat="44.72275979391127" lon="8.857994507399264"><ele>222.33333333333334</ele><time>2026-03-29T09:26:19Z</time></trkpt><trkpt lat="44.722691342935704" lon="8.858050498517548"><ele>222.66666666666669</ele><time>2026-03-29T09:26:20Z</time></trkpt><trkpt lat="44.72261953401859" lon="8.858094955211929"><ele>223.0</ele><time>2026-03-29T09:26:21Z</time></trkpt><trkpt lat="44.72254693985227" lon="8.858148025435801"><ele>223.33333333333334</ele><time>2026-03-29T09:26:22Z</time></trkpt><trkpt lat="44.72247115548787" lon="8.858191808065296"><ele>223.66666666666669</ele><time>2026-03-29T09:26:23Z</time></trkpt><trkpt lat="44.72239244424686" lon="8.858239774628645"><ele>224.0</ele><time>2026-03-29T09:26:24Z</time></trkpt><trkpt lat="44.72230971112115" lon="8.858281638615384"><ele>224.00000000000003</ele><time>2026-03-29T09:26:25Z</time></trkpt><trkpt lat="44.722227747537765" lon="8.858317461420448"><ele>224.0</ele><time>2026-03-29T09:26:26Z</time></trkpt><trkpt lat="44.72214548602829" lon="8.858355986302701"><ele>224.0</ele><time>2026-03-29T09:26:27Z</time></trkpt><trkpt lat="44.722067839674324" lon="8.858392897855781"><ele>224.0</ele><time>2026-03-29T09:26:28.001Z</time></trkpt><trkpt lat="44.72198723665549" lon="8.858434532074765"><ele>224.00000000000003</ele><time>2026-03-29T09:26:29.001Z</time></trkpt><trkpt lat="44.72191708321793" lon="8.858469563469464"><ele>224.0</ele><time>2026-03-29T09:26:30.001Z</time></trkpt><trkpt lat="44.72184242643959" lon="8.858501887400003"><ele>223.66666666666669</ele><time>2026-03-29T09:26:31.001Z</time></trkpt><trkpt lat="44.72175875641831" lon="8.858525691427667"><ele>223.33333333333334</ele><time>2026-03-29T09:26:32.001Z</time></trkpt><trkpt lat="44.72168542606384" lon="8.858555350313754"><ele>223.0</ele><time>2026-03-29T09:26:33.001Z</time></trkpt><trkpt lat="44.7216187837869" lon="8.85858794102184"><ele>222.66666666666669</ele><time>2026-03-29T09:26:34.001Z</time></trkpt><trkpt lat="44.7214964639151" lon="8.858649377397697"><ele>222.33333333333334</ele><time>2026-03-29T09:26:36.001Z</time></trkpt><trkpt lat="44.721430190982424" lon="8.858679755742097"><ele>222.0</ele><time>2026-03-29T09:26:37.001Z</time></trkpt><trkpt lat="44.721319670797264" lon="8.858727642851784"><ele>222.0</ele><time>2026-03-29T09:26:39.001Z</time></trkpt><trkpt lat="44.72124574424923" lon="8.858749365223932"><ele>222.0</ele><time>2026-03-29T09:26:40.001Z</time></trkpt><trkpt lat="44.72116188230807" lon="8.858784295560689"><ele>222.0</ele><time>2026-03-29T09:26:41.001Z</time></trkpt><trkpt lat="44.7210612767556" lon="8.858812715819635"><ele>222.0</ele><time>2026-03-29T09:26:42.001Z</time></trkpt><trkpt lat="44.720959746142576" lon="8.858824838321395"><ele>222.0</ele><time>2026-03-29T09:26:43.001Z</time></trkpt><trkpt lat="44.72086528864571" lon="8.858860135241748"><ele>221.39999999999998</ele><time>2026-03-29T09:26:44.001Z</time></trkpt><trkpt lat="44.72078101287222" lon="8.85886904257634"><ele>220.79999999999998</ele><time>2026-03-29T09:26:45.001Z</time></trkpt><trkpt lat="44.72068561878538" lon="8.858879986289164"><ele>220.2</ele><time>2026-03-29T09:26:46.001Z</time></trkpt><trkpt lat="44.72058227233702" lon="8.858920940688947"><ele>219.6</ele><time>2026-03-29T09:26:47.001Z</time></trkpt><trkpt lat="44.72048182180759" lon="8.858924584026342"><ele>219.0</ele><time>2026-03-29T09:26:48.001Z</time></trkpt><trkpt lat="44.720386475306526" lon="8.85893491542619"><ele>219.0</ele><time>2026-03-29T09:26:49.001Z</time></trkpt><trkpt lat="44.72029503490724" lon="8.858950777829078"><ele>218.99999999999997</ele><time>2026-03-29T09:26:50.001Z</time></trkpt><trkpt lat="44.720200423561884" lon="8.858955709012294"><ele>218.99999999999997</ele><time>2026-03-29T09:26:51.001Z</time></trkpt><trkpt lat="44.72010243147749" lon="8.858952778651378"><ele>219.0</ele><time>2026-03-29T09:26:52.001Z</time></trkpt><trkpt lat="44.72000358445274" lon="8.85895878188737"><ele>219.0</ele><time>2026-03-29T09:26:53.001Z</time></trkpt><trkpt lat="44.719912580665444" lon="8.858995788076632"><ele>220.0</ele><time>2026-03-29T09:26:54.001Z</time></trkpt><trkpt lat="44.719817087098974" lon="8.859030897399924"><ele>220.99999999999997</ele><time>2026-03-29T09:26:55.001Z</time></trkpt><trkpt lat="44.71972445141486" lon="8.85906367612622"><ele>221.99999999999997</ele><time>2026-03-29T09:26:56.001Z</time></trkpt><trkpt lat="44.719627160210706" lon="8.859095410593241"><ele>223.0</ele><time>2026-03-29T09:26:57.001Z</time></trkpt><trkpt lat="44.71953121010249" lon="8.859147446122522"><ele>224.0</ele><time>2026-03-29T09:26:58.001Z</time></trkpt><trkpt lat="44.719428437661186" lon="8.859182660989203"><ele>224.79999999999998</ele><time>2026-03-29T09:26:59.001Z</time></trkpt><trkpt lat="44.719321878369975" lon="8.859216986916463"><ele>225.59999999999997</ele><time>2026-03-29T09:27:00.001Z</time></trkpt><trkpt lat="44.71922192496253" lon="8.859240957340424"><ele>226.4</ele><time>2026-03-29T09:27:01.001Z</time></trkpt><trkpt lat="44.71911341578973" lon="8.859278098590806"><ele>227.2</ele><time>2026-03-29T09:27:02.001Z</time></trkpt><trkpt lat="44.71900599141958" lon="8.859330315204284"><ele>228.0</ele><time>2026-03-29T09:27:03.001Z</time></trkpt><trkpt lat="44.71889685814467" lon="8.859374629515457"><ele>225.2</ele><time>2026-03-29T09:27:04.001Z</time></trkpt><trkpt lat="44.71879400682243" lon="8.859414045633102"><ele>222.4</ele><time>2026-03-29T09:27:05.001Z</time></trkpt><trkpt lat="44.718686491720085" lon="8.859446295091919"><ele>219.59999999999997</ele><time>2026-03-29T09:27:06.001Z</time></trkpt><trkpt lat="44.71857610843412" lon="8.859478352938657"><ele>216.79999999999998</ele><time>2026-03-29T09:27:07.001Z</time></trkpt><trkpt lat="44.718466327241565" lon="8.859511849385319"><ele>214.0</ele><time>2026-03-29T09:27:08.001Z</time></trkpt><trkpt lat="44.71835505039578" lon="8.85957773625987"><ele>214.0</ele><time>2026-03-29T09:27:09.001Z</time></trkpt><trkpt lat="44.71823947653517" lon="8.859627847523663"><ele>214.0</ele><time>2026-03-29T09:27:10.001Z</time></trkpt><trkpt lat="44.71812681905294" lon="8.859720707067956"><ele>214.0</ele><time>2026-03-29T09:27:11.001Z</time></trkpt><trkpt lat="44.718007425292576" lon="8.859809433332064"><ele>214.0</ele><time>2026-03-29T09:27:11.999Z</time></trkpt><trkpt lat="44.71788175123182" lon="8.85990943866944"><ele>214.0</ele><time>2026-03-29T09:27:12.999Z</time></trkpt><trkpt lat="44.71775678140968" lon="8.860010594619007"><ele>214.0</ele><time>2026-03-29T09:27:13.999Z</time></trkpt><trkpt lat="44.717635027963446" lon="8.860110241800294"><ele>214.0</ele><time>2026-03-29T09:27:14.999Z</time></trkpt><trkpt lat="44.71750653375198" lon="8.860214926559575"><ele>214.0</ele><time>2026-03-29T09:27:15.999Z</time></trkpt><trkpt lat="44.71737063163551" lon="8.860303809470334"><ele>212.75</ele><time>2026-03-29T09:27:16.999Z</time></trkpt><trkpt lat="44.71723064990585" lon="8.86038838932394"><ele>211.5</ele><time>2026-03-29T09:27:17.999Z</time></trkpt><trkpt lat="44.71709745698683" lon="8.860464919706299"><ele>210.25</ele><time>2026-03-29T09:27:18.999Z</time></trkpt><trkpt lat="44.71695677639514" lon="8.860536558277284"><ele>209.0</ele><time>2026-03-29T09:27:19.999Z</time></trkpt><trkpt lat="44.71681012107489" lon="8.860603840801385"><ele>212.33333333333334</ele><time>2026-03-29T09:27:20.999Z</time></trkpt><trkpt lat="44.71666195324291" lon="8.860663807403544"><ele>215.66666666666669</ele><time>2026-03-29T09:27:21.999Z</time></trkpt><trkpt lat="44.71650763560392" lon="8.860725555800999"><ele>219.0</ele><time>2026-03-29T09:27:22.999Z</time></trkpt><trkpt lat="44.71635389421658" lon="8.860780179720312"><ele>219.0</ele><time>2026-03-29T09:27:23.999Z</time></trkpt><trkpt lat="44.71619298874615" lon="8.860832717387886"><ele>219.0</ele><time>2026-03-29T09:27:24.999Z</time></trkpt><trkpt lat="44.716038828164436" lon="8.860878777642599"><ele>219.0</ele><time>2026-03-29T09:27:25.999Z</time></trkpt><trkpt lat="44.71587616768451" lon="8.860915760486666"><ele>214.66666666666669</ele><time>2026-03-29T09:27:26.999Z</time></trkpt><trkpt lat="44.71569342603102" lon="8.860951867207099"><ele>210.33333333333334</ele><time>2026-03-29T09:27:27.999Z</time></trkpt><trkpt lat="44.71548815118996" lon="8.860989646241618"><ele>206.0</ele><time>2026-03-29T09:27:28.999Z</time></trkpt><trkpt lat="44.71528650595215" lon="8.861016739914488"><ele>207.0</ele><time>2026-03-29T09:27:29.999Z</time></trkpt><trkpt lat="44.7150934306227" lon="8.86102850757983"><ele>208.0</ele><time>2026-03-29T09:27:30.999Z</time></trkpt><trkpt lat="44.714905501476544" lon="8.861041989128017"><ele>209.0</ele><time>2026-03-29T09:27:31.999Z</time></trkpt><trkpt lat="44.714709452811825" lon="8.861047396683464"><ele>209.0</ele><time>2026-03-29T09:27:32.999Z</time></trkpt><trkpt lat="44.714504496477126" lon="8.861039386809784"><ele>209.0</ele><time>2026-03-29T09:27:34Z</time></trkpt><trkpt lat="44.714303948263385" lon="8.861030006274264"><ele>209.0</ele><time>2026-03-29T09:27:35Z</time></trkpt><trkpt lat="44.71412263514355" lon="8.861008779281084"><ele>208.0</ele><time>2026-03-29T09:27:36Z</time></trkpt><trkpt lat="44.71395384894691" lon="8.860975775237582"><ele>207.0</ele><time>2026-03-29T09:27:37Z</time></trkpt><trkpt lat="44.7137831842477" lon="8.860934604634904"><ele>206.0</ele><time>2026-03-29T09:27:38Z</time></trkpt><trkpt lat="44.71360922003894" lon="8.860869697477685"><ele>213.0</ele><time>2026-03-29T09:27:39Z</time></trkpt><trkpt lat="44.71343464224108" lon="8.860800047485409"><ele>220.0</ele><time>2026-03-29T09:27:40Z</time></trkpt><trkpt lat="44.71325902890574" lon="8.860734025626124"><ele>227.0</ele><time>2026-03-29T09:27:41Z</time></trkpt><trkpt lat="44.713087465566126" lon="8.860685401261698"><ele>227.0</ele><time>2026-03-29T09:27:42Z</time></trkpt><trkpt lat="44.712923340663096" lon="8.860649743623576"><ele>227.0</ele><time>2026-03-29T09:27:43Z</time></trkpt><trkpt lat="44.712755590230884" lon="8.860618176874501"><ele>227.0</ele><time>2026-03-29T09:27:44Z</time></trkpt><trkpt lat="44.71258869181734" lon="8.860605252290558"><ele>226.0</ele><time>2026-03-29T09:27:45Z</time></trkpt><trkpt lat="44.712422969125576" lon="8.860608000046167"><ele>225.0</ele><time>2026-03-29T09:27:46Z</time></trkpt><trkpt lat="44.7122628614338" lon="8.86060486516448"><ele>224.0</ele><time>2026-03-29T09:27:47Z</time></trkpt><trkpt lat="44.712114261679055" lon="8.86060064007865"><ele>224.0</ele><time>2026-03-29T09:27:48Z</time></trkpt><trkpt lat="44.71197604110223" lon="8.860603861839767"><ele>224.0</ele><time>2026-03-29T09:27:49Z</time></trkpt><trkpt lat="44.711845728823015" lon="8.860612004220508"><ele>224.0</ele><time>2026-03-29T09:27:50Z</time></trkpt><trkpt lat="44.711721979534055" lon="8.860617283079007"><ele>224.0</ele><time>2026-03-29T09:27:51Z</time></trkpt><trkpt lat="44.71161656062616" lon="8.860622960240082"><ele>223.85714285714286</ele><time>2026-03-29T09:27:52Z</time></trkpt><trkpt lat="44.71152968668549" lon="8.86062853425134"><ele>223.71428571428572</ele><time>2026-03-29T09:27:53Z</time></trkpt><trkpt lat="44.71146229526919" lon="8.860628428449774"><ele>223.57142857142856</ele><time>2026-03-29T09:27:54Z</time></trkpt><trkpt lat="44.71139804158652" lon="8.860627719033868"><ele>223.42857142857144</ele><time>2026-03-29T09:27:55Z</time></trkpt><trkpt lat="44.71133565451288" lon="8.860602366853477"><ele>223.28571428571428</ele><time>2026-03-29T09:27:56Z</time></trkpt><trkpt lat="44.71126788266409" lon="8.860569386881012"><ele>223.14285714285714</ele><time>2026-03-29T09:27:57Z</time></trkpt><trkpt lat="44.71118509078203" lon="8.86054269748568"><ele>223.0</ele><time>2026-03-29T09:27:58Z</time></trkpt><trkpt lat="44.71108702612648" lon="8.860511944315766"><ele>223.0</ele><time>2026-03-29T09:27:59Z</time></trkpt><trkpt lat="44.71097795202565" lon="8.860483283438061"><ele>223.0</ele><time>2026-03-29T09:28:00Z</time></trkpt><trkpt lat="44.710870080297155" lon="8.860443419675788"><ele>223.0</ele><time>2026-03-29T09:28:01Z</time></trkpt><trkpt lat="44.710760365493094" lon="8.860383614963762"><ele>223.0</ele><time>2026-03-29T09:28:02Z</time></trkpt><trkpt lat="44.710636680509964" lon="8.860304902148124"><ele>223.0</ele><time>2026-03-29T09:28:03Z</time></trkpt><trkpt lat="44.71051048128717" lon="8.860204284610571"><ele>223.0</ele><time>2026-03-29T09:28:04Z</time></trkpt><trkpt lat="44.71038122550781" lon="8.860107018926769"><ele>223.0</ele><time>2026-03-29T09:28:05Z</time></trkpt><trkpt lat="44.71025929904471" lon="8.860011306369238"><ele>223.0</ele><time>2026-03-29T09:28:06Z</time></trkpt><trkpt lat="44.710113226783704" lon="8.859913345549188"><ele>225.66666666666666</ele><time>2026-03-29T09:28:07.001Z</time></trkpt><trkpt lat="44.709939591816024" lon="8.859807403717442"><ele>228.33333333333331</ele><time>2026-03-29T09:28:08.001Z</time></trkpt><trkpt lat="44.70975123611159" lon="8.859701669910052"><ele>231.0</ele><time>2026-03-29T09:28:09.001Z</time></trkpt><trkpt lat="44.7095497801198" lon="8.85958818925181"><ele>229.0</ele><time>2026-03-29T09:28:10.001Z</time></trkpt><trkpt lat="44.709356793410244" lon="8.859478488377606"><ele>227.0</ele><time>2026-03-29T09:28:11.001Z</time></trkpt><trkpt lat="44.709177563145055" lon="8.85936886652998"><ele>225.0</ele><time>2026-03-29T09:28:12.001Z</time></trkpt><trkpt lat="44.70899569318067" lon="8.859261558677016"><ele>229.33333333333331</ele><time>2026-03-29T09:28:13.001Z</time></trkpt><trkpt lat="44.70880511198832" lon="8.859143837052267"><ele>233.66666666666666</ele><time>2026-03-29T09:28:14.001Z</time></trkpt><trkpt lat="44.70861035741309" lon="8.85903380674367"><ele>238.0</ele><time>2026-03-29T09:28:15.001Z</time></trkpt><trkpt lat="44.70841207300346" lon="8.858928195455025"><ele>238.0</ele><time>2026-03-29T09:28:16.001Z</time></trkpt><trkpt lat="44.70821415366501" lon="8.858810346678329"><ele>238.0</ele><time>2026-03-29T09:28:17.001Z</time></trkpt><trkpt lat="44.708014471706065" lon="8.85870021990536"><ele>238.0</ele><time>2026-03-29T09:28:18.001Z</time></trkpt><trkpt lat="44.7078139368773" lon="8.85858297061513"><ele>236.33333333333331</ele><time>2026-03-29T09:28:19.001Z</time></trkpt><trkpt lat="44.70761989640177" lon="8.85846327337875"><ele>234.66666666666669</ele><time>2026-03-29T09:28:20.001Z</time></trkpt><trkpt lat="44.707428916259936" lon="8.858335055822026"><ele>233.0</ele><time>2026-03-29T09:28:21.001Z</time></trkpt><trkpt lat="44.70724329041499" lon="8.858213149763962"><ele>235.33333333333334</ele><time>2026-03-29T09:28:22.001Z</time></trkpt><trkpt lat="44.7070617773648" lon="8.858083781483773"><ele>237.66666666666669</ele><time>2026-03-29T09:28:23.001Z</time></trkpt><trkpt lat="44.70688227194622" lon="8.857965829031958"><ele>240.0</ele><time>2026-03-29T09:28:24.001Z</time></trkpt><trkpt lat="44.70670673063168" lon="8.857847037487439"><ele>240.0</ele><time>2026-03-29T09:28:25.001Z</time></trkpt><trkpt lat="44.70653259472312" lon="8.857726578795083"><ele>240.0</ele><time>2026-03-29T09:28:26.001Z</time></trkpt><trkpt lat="44.70636418583487" lon="8.857611987693511"><ele>240.0</ele><time>2026-03-29T09:28:27.001Z</time></trkpt><trkpt lat="44.70619294697461" lon="8.857501310939725"><ele>242.33333333333331</ele><time>2026-03-29T09:28:28.001Z</time></trkpt><trkpt lat="44.706026001103" lon="8.857391951364715"><ele>244.66666666666666</ele><time>2026-03-29T09:28:29.001Z</time></trkpt><trkpt lat="44.70586099202331" lon="8.85728083154202"><ele>247.0</ele><time>2026-03-29T09:28:30.001Z</time></trkpt><trkpt lat="44.70570005553186" lon="8.857171831868747"><ele>247.0</ele><time>2026-03-29T09:28:31.001Z</time></trkpt><trkpt lat="44.70553301814584" lon="8.857055715750226"><ele>247.0</ele><time>2026-03-29T09:28:32.001Z</time></trkpt><trkpt lat="44.70536465912355" lon="8.856919789437741"><ele>247.0</ele><time>2026-03-29T09:28:33.001Z</time></trkpt><trkpt lat="44.70521223833128" lon="8.856757257841846"><ele>249.0</ele><time>2026-03-29T09:28:34.001Z</time></trkpt><trkpt lat="44.70506115021545" lon="8.856607396168858"><ele>251.0</ele><time>2026-03-29T09:28:35.001Z</time></trkpt><trkpt lat="44.70489647958344" lon="8.856467267605487"><ele>253.0</ele><time>2026-03-29T09:28:36.001Z</time></trkpt><trkpt lat="44.704723756966075" lon="8.856352407281769"><ele>253.0</ele><time>2026-03-29T09:28:37.001Z</time></trkpt><trkpt lat="44.70456338721985" lon="8.856262603543936"><ele>253.0</ele><time>2026-03-29T09:28:38.001Z</time></trkpt><trkpt lat="44.7044034904966" lon="8.856190780999018"><ele>253.0</ele><time>2026-03-29T09:28:39.001Z</time></trkpt><trkpt lat="44.70423759785431" lon="8.856138787928433"><ele>251.66666666666666</ele><time>2026-03-29T09:28:40.001Z</time></trkpt><trkpt lat="44.704061673999725" lon="8.8560958328434"><ele>250.33333333333331</ele><time>2026-03-29T09:28:41.001Z</time></trkpt><trkpt lat="44.70387790646116" lon="8.856050893958464"><ele>249.0</ele><time>2026-03-29T09:28:42.001Z</time></trkpt><trkpt lat="44.70370195794883" lon="8.855997157656866"><ele>253.66666666666669</ele><time>2026-03-29T09:28:43.001Z</time></trkpt><trkpt lat="44.70353704149484" lon="8.855939138932158"><ele>258.33333333333337</ele><time>2026-03-29T09:28:44.001Z</time></trkpt><trkpt lat="44.70338698029472" lon="8.855879023707331"><ele>263.0</ele><time>2026-03-29T09:28:45.001Z</time></trkpt><trkpt lat="44.70325026543669" lon="8.855820391263581"><ele>263.0</ele><time>2026-03-29T09:28:46.001Z</time></trkpt><trkpt lat="44.703129751410835" lon="8.855754297997562"><ele>263.0</ele><time>2026-03-29T09:28:47.001Z</time></trkpt><trkpt lat="44.703022053567466" lon="8.855668705048451"><ele>263.0</ele><time>2026-03-29T09:28:48.001Z</time></trkpt><trkpt lat="44.702927400795936" lon="8.855565818010383"><ele>263.0</ele><time>2026-03-29T09:28:49.001Z</time></trkpt><trkpt lat="44.702857603569875" lon="8.855457297486465"><ele>263.0</ele><time>2026-03-29T09:28:50.001Z</time></trkpt><trkpt lat="44.70281182266088" lon="8.85530921066878"><ele>263.0</ele><time>2026-03-29T09:28:51.002Z</time></trkpt><trkpt lat="44.70275798214784" lon="8.855118180944146"><ele>263.0</ele><time>2026-03-29T09:28:52.002Z</time></trkpt><trkpt lat="44.70270590100963" lon="8.854900738142868"><ele>263.0</ele><time>2026-03-29T09:28:53.002Z</time></trkpt><trkpt lat="44.7026506748764" lon="8.854671045142434"><ele>263.33333333333337</ele><time>2026-03-29T09:28:54.002Z</time></trkpt><trkpt lat="44.70258948078444" lon="8.854437998728272"><ele>263.6666666666667</ele><time>2026-03-29T09:28:55.002Z</time></trkpt><trkpt lat="44.702524439400676" lon="8.85420579200515"><ele>264.0</ele><time>2026-03-29T09:28:56.002Z</time></trkpt><trkpt lat="44.70245335440672" lon="8.853984386258915"><ele>265.6666666666667</ele><time>2026-03-29T09:28:57.002Z</time></trkpt><trkpt lat="44.70237971053297" lon="8.853789002513508"><ele>267.33333333333337</ele><time>2026-03-29T09:28:58.002Z</time></trkpt><trkpt lat="44.702295082292984" lon="8.853618310491148"><ele>269.0</ele><time>2026-03-29T09:28:59.002Z</time></trkpt><trkpt lat="44.702201200429755" lon="8.853451051635375"><ele>271.6666666666667</ele><time>2026-03-29T09:29:00.002Z</time></trkpt><trkpt lat="44.70208761322183" lon="8.853304236221186"><ele>274.3333333333333</ele><time>2026-03-29T09:29:01.002Z</time></trkpt><trkpt lat="44.70194102618355" lon="8.853183439377132"><ele>277.0</ele><time>2026-03-29T09:29:02.002Z</time></trkpt><trkpt lat="44.70178873671187" lon="8.853064039247466"><ele>282.0</ele><time>2026-03-29T09:29:03.002Z</time></trkpt><trkpt lat="44.70164776466952" lon="8.85293142654685"><ele>287.0</ele><time>2026-03-29T09:29:04.002Z</time></trkpt><trkpt lat="44.701504497684006" lon="8.852796193094298"><ele>292.0</ele><time>2026-03-29T09:29:05.014Z</time></trkpt><trkpt lat="44.70134924942653" lon="8.852692752134244"><ele>296.0</ele><time>2026-03-29T09:29:06.021Z</time></trkpt><trkpt lat="44.70118718895898" lon="8.852563619114745"><ele>300.0</ele><time>2026-03-29T09:29:07.021Z</time></trkpt><trkpt lat="44.70104200023923" lon="8.852447161696333"><ele>304.0</ele><time>2026-03-29T09:29:08.018Z</time></trkpt><trkpt lat="44.700875936187614" lon="8.852313959940403"><ele>304.0</ele><time>2026-03-29T09:29:09.022Z</time></trkpt><trkpt lat="44.700728679814" lon="8.85219088507265"><ele>304.0</ele><time>2026-03-29T09:29:10.017Z</time></trkpt><trkpt lat="44.700586398413755" lon="8.852070379854288"><ele>304.0</ele><time>2026-03-29T09:29:11.017Z</time></trkpt><trkpt lat="44.70043838354981" lon="8.851924822612837"><ele>303.5</ele><time>2026-03-29T09:29:12.02Z</time></trkpt><trkpt lat="44.70031285592604" lon="8.85177231854482"><ele>303.0</ele><time>2026-03-29T09:29:13.016Z</time></trkpt><trkpt lat="44.700258163061825" lon="8.85167991076133"><ele>302.5</ele><time>2026-03-29T09:29:14.002Z</time></trkpt><trkpt lat="44.70019740418938" lon="8.851508180334605"><ele>302.0</ele><time>2026-03-29T09:29:15.002Z</time></trkpt><trkpt lat="44.70015029465191" lon="8.851339449969974"><ele>296.6666666666667</ele><time>2026-03-29T09:29:16.002Z</time></trkpt><trkpt lat="44.700102432469414" lon="8.851182023461881"><ele>291.3333333333333</ele><time>2026-03-29T09:29:17.002Z</time></trkpt><trkpt lat="44.700098410414" lon="8.850926698206996"><ele>286.0</ele><time>2026-03-29T09:29:18.002Z</time></trkpt><trkpt lat="44.70007004530368" lon="8.850706392859339"><ele>284.66666666666663</ele><time>2026-03-29T09:29:19.002Z</time></trkpt><trkpt lat="44.70004719885594" lon="8.850485671909755"><ele>283.3333333333333</ele><time>2026-03-29T09:29:20Z</time></trkpt><trkpt lat="44.700068056092874" lon="8.85025659953782"><ele>282.0</ele><time>2026-03-29T09:29:21Z</time></trkpt><trkpt lat="44.70000675115214" lon="8.849978370749996"><ele>280.6666666666667</ele><time>2026-03-29T09:29:22Z</time></trkpt><trkpt lat="44.699947321546595" lon="8.849728660104091"><ele>279.33333333333337</ele><time>2026-03-29T09:29:23Z</time></trkpt><trkpt lat="44.69988124200508" lon="8.849449231223472"><ele>278.0</ele><time>2026-03-29T09:29:24Z</time></trkpt><trkpt lat="44.699815266039295" lon="8.849168380607836"><ele>278.0</ele><time>2026-03-29T09:29:25Z</time></trkpt><trkpt lat="44.69975475513184" lon="8.848913299116882"><ele>278.0</ele><time>2026-03-29T09:29:26Z</time></trkpt><trkpt lat="44.699694132845785" lon="8.848665514782118"><ele>278.0</ele><time>2026-03-29T09:29:27Z</time></trkpt><trkpt lat="44.699630237565" lon="8.84842341892096"><ele>280.0</ele><time>2026-03-29T09:29:28Z</time></trkpt><trkpt lat="44.69955736033044" lon="8.848196601537598"><ele>282.0</ele><time>2026-03-29T09:29:29Z</time></trkpt><trkpt lat="44.69944881239417" lon="8.847989819855494"><ele>284.0</ele><time>2026-03-29T09:29:30Z</time></trkpt><trkpt lat="44.699336021032224" lon="8.847793909103897"><ele>280.33333333333337</ele><time>2026-03-29T09:29:31Z</time></trkpt><trkpt lat="44.69920664679141" lon="8.847606148132302"><ele>276.6666666666667</ele><time>2026-03-29T09:29:32Z</time></trkpt><trkpt lat="44.69905736978045" lon="8.847432435707313"><ele>273.0</ele><time>2026-03-29T09:29:33Z</time></trkpt><trkpt lat="44.698908199844524" lon="8.847264950805643"><ele>273.0</ele><time>2026-03-29T09:29:34Z</time></trkpt><trkpt lat="44.698779578012946" lon="8.847057782114058"><ele>273.0</ele><time>2026-03-29T09:29:35Z</time></trkpt><trkpt lat="44.69866080304727" lon="8.846842018438009"><ele>273.0</ele><time>2026-03-29T09:29:36Z</time></trkpt><trkpt lat="44.69854394610052" lon="8.846604592870378"><ele>272.0</ele><time>2026-03-29T09:29:37Z</time></trkpt><trkpt lat="44.69842225861016" lon="8.846354089227685"><ele>271.0</ele><time>2026-03-29T09:29:38Z</time></trkpt><trkpt lat="44.698314204257414" lon="8.846131255074924"><ele>270.0</ele><time>2026-03-29T09:29:39.001Z</time></trkpt><trkpt lat="44.69822091781793" lon="8.845911469211835"><ele>270.0</ele><time>2026-03-29T09:29:40.001Z</time></trkpt><trkpt lat="44.69813941817004" lon="8.845695806313028"><ele>270.0</ele><time>2026-03-29T09:29:41.001Z</time></trkpt><trkpt lat="44.698069799299375" lon="8.845479897609726"><ele>270.0</ele><time>2026-03-29T09:29:42.001Z</time></trkpt><trkpt lat="44.698019692445676" lon="8.84524867723731"><ele>268.0</ele><time>2026-03-29T09:29:43.001Z</time></trkpt><trkpt lat="44.69799197482608" lon="8.845023373769786"><ele>266.0</ele><time>2026-03-29T09:29:44.001Z</time></trkpt><trkpt lat="44.6979745763051" lon="8.844796445790395"><ele>264.0</ele><time>2026-03-29T09:29:45.001Z</time></trkpt><trkpt lat="44.69794420738358" lon="8.844582350938412"><ele>264.0</ele><time>2026-03-29T09:29:46.001Z</time></trkpt><trkpt lat="44.69789189138085" lon="8.844370468640182"><ele>264.0</ele><time>2026-03-29T09:29:47.001Z</time></trkpt><trkpt lat="44.697817369423646" lon="8.844150441307274"><ele>264.0</ele><time>2026-03-29T09:29:48.001Z</time></trkpt><trkpt lat="44.69770195347535" lon="8.843934571943102"><ele>262.6666666666667</ele><time>2026-03-29T09:29:49.001Z</time></trkpt><trkpt lat="44.69757002409717" lon="8.843726638211972"><ele>261.33333333333337</ele><time>2026-03-29T09:29:50.001Z</time></trkpt><trkpt lat="44.69743879008122" lon="8.843517267889661"><ele>260.0</ele><time>2026-03-29T09:29:51.001Z</time></trkpt><trkpt lat="44.69731096129329" lon="8.843331218485643"><ele>263.0</ele><time>2026-03-29T09:29:52.001Z</time></trkpt><trkpt lat="44.697211410361675" lon="8.843134511320754"><ele>266.0</ele><time>2026-03-29T09:29:53.001Z</time></trkpt><trkpt lat="44.697104789522534" lon="8.842961547888367"><ele>269.0</ele><time>2026-03-29T09:29:54.001Z</time></trkpt><trkpt lat="44.69700646151227" lon="8.842802037645288"><ele>265.75</ele><time>2026-03-29T09:29:55.001Z</time></trkpt><trkpt lat="44.69690427886393" lon="8.84266677877101"><ele>262.5</ele><time>2026-03-29T09:29:56.001Z</time></trkpt><trkpt lat="44.69682076697255" lon="8.842520486100254"><ele>259.25</ele><time>2026-03-29T09:29:57.001Z</time></trkpt><trkpt lat="44.696740984384455" lon="8.842372066223344"><ele>256.0</ele><time>2026-03-29T09:29:58.001Z</time></trkpt><trkpt lat="44.69666064746375" lon="8.842241943550873"><ele>256.0</ele><time>2026-03-29T09:29:59.001Z</time></trkpt><trkpt lat="44.696576140755184" lon="8.84210506692163"><ele>256.0</ele><time>2026-03-29T09:30:00.001Z</time></trkpt><trkpt lat="44.696475624715475" lon="8.841942260481003"><ele>256.0</ele><time>2026-03-29T09:30:01.001Z</time></trkpt><trkpt lat="44.69638795471559" lon="8.841798521946545"><ele>256.0</ele><time>2026-03-29T09:30:02.001Z</time></trkpt><trkpt lat="44.69628961301521" lon="8.841673116682353"><ele>254.5</ele><time>2026-03-29T09:30:03.001Z</time></trkpt><trkpt lat="44.69620121344612" lon="8.841530101895234"><ele>253.0</ele><time>2026-03-29T09:30:04.001Z</time></trkpt><trkpt lat="44.696107220055254" lon="8.841381210785093"><ele>251.5</ele><time>2026-03-29T09:30:05.001Z</time></trkpt><trkpt lat="44.696007657901795" lon="8.841230849144804"><ele>250.0</ele><time>2026-03-29T09:30:06.001Z</time></trkpt><trkpt lat="44.69590500516286" lon="8.841075741893523"><ele>250.5</ele><time>2026-03-29T09:30:07.001Z</time></trkpt><trkpt lat="44.69579980896774" lon="8.840924401253163"><ele>251.0</ele><time>2026-03-29T09:30:08.001Z</time></trkpt><trkpt lat="44.69569440134664" lon="8.840779620086028"><ele>251.5</ele><time>2026-03-29T09:30:09.001Z</time></trkpt><trkpt lat="44.69558932570462" lon="8.840641051519167"><ele>252.0</ele><time>2026-03-29T09:30:10.001Z</time></trkpt><trkpt lat="44.69548323985521" lon="8.840500310536845"><ele>252.0</ele><time>2026-03-29T09:30:11.001Z</time></trkpt><trkpt lat="44.695375775634034" lon="8.840364695716897"><ele>252.0</ele><time>2026-03-29T09:30:12.001Z</time></trkpt><trkpt lat="44.69526541589271" lon="8.840234614766935"><ele>252.0</ele><time>2026-03-29T09:30:13.001Z</time></trkpt><trkpt lat="44.69515073261181" lon="8.840102344460844"><ele>252.0</ele><time>2026-03-29T09:30:14.001Z</time></trkpt><trkpt lat="44.69503079673514" lon="8.839965018161127"><ele>250.75</ele><time>2026-03-29T09:30:15.001Z</time></trkpt><trkpt lat="44.69491558415752" lon="8.839831140673137"><ele>249.5</ele><time>2026-03-29T09:30:16.001Z</time></trkpt><trkpt lat="44.694804481607775" lon="8.83969737431737"><ele>248.25</ele><time>2026-03-29T09:30:17.001Z</time></trkpt><trkpt lat="44.694688570066454" lon="8.839565304608975"><ele>247.0</ele><time>2026-03-29T09:30:18.001Z</time></trkpt><trkpt lat="44.694571595872915" lon="8.839425369813394"><ele>247.0</ele><time>2026-03-29T09:30:19.001Z</time></trkpt><trkpt lat="44.694454328964966" lon="8.839283135266403"><ele>247.0</ele><time>2026-03-29T09:30:20.001Z</time></trkpt><trkpt lat="44.69433349038424" lon="8.83914226155899"><ele>247.0</ele><time>2026-03-29T09:30:21.001Z</time></trkpt><trkpt lat="44.69421156967494" lon="8.83900160791815"><ele>246.0</ele><time>2026-03-29T09:30:22.001Z</time></trkpt><trkpt lat="44.6940887909868" lon="8.838859612180624"><ele>245.0</ele><time>2026-03-29T09:30:23.001Z</time></trkpt><trkpt lat="44.69396701586064" lon="8.838721020036555"><ele>244.0</ele><time>2026-03-29T09:30:24.001Z</time></trkpt><trkpt lat="44.693844315829686" lon="8.838584422505836"><ele>244.66666666666666</ele><time>2026-03-29T09:30:25.001Z</time></trkpt><trkpt lat="44.6937203798361" lon="8.838446781016659"><ele>245.33333333333331</ele><time>2026-03-29T09:30:26.001Z</time></trkpt><trkpt lat="44.69359979364592" lon="8.83830449955765"><ele>246.0</ele><time>2026-03-29T09:30:27.001Z</time></trkpt><trkpt lat="44.693491165409895" lon="8.838166766372977"><ele>246.0</ele><time>2026-03-29T09:30:28.001Z</time></trkpt><trkpt lat="44.69340130870903" lon="8.838028523230628"><ele>246.0</ele><time>2026-03-29T09:30:29.001Z</time></trkpt><trkpt lat="44.69332260820104" lon="8.837887592905409"><ele>246.0</ele><time>2026-03-29T09:30:30.001Z</time></trkpt><trkpt lat="44.69325423566813" lon="8.837737085493838"><ele>246.0</ele><time>2026-03-29T09:30:31.001Z</time></trkpt><trkpt lat="44.69318450777213" lon="8.83756413965127"><ele>245.33333333333331</ele><time>2026-03-29T09:30:32.002Z</time></trkpt><trkpt lat="44.69312303533611" lon="8.83737677417771"><ele>244.66666666666666</ele><time>2026-03-29T09:30:33.002Z</time></trkpt><trkpt lat="44.693094336530045" lon="8.837148264294212"><ele>244.0</ele><time>2026-03-29T09:30:34.002Z</time></trkpt><trkpt lat="44.693055613362354" lon="8.836916662217707"><ele>244.0</ele><time>2026-03-29T09:30:35.002Z</time></trkpt><trkpt lat="44.69301742808345" lon="8.836683084471884"><ele>244.0</ele><time>2026-03-29T09:30:36.002Z</time></trkpt><trkpt lat="44.692980129916705" lon="8.83645197439958"><ele>244.0</ele><time>2026-03-29T09:30:37.002Z</time></trkpt><trkpt lat="44.692943130901654" lon="8.836222718315339"><ele>244.0</ele><time>2026-03-29T09:30:38.002Z</time></trkpt><trkpt lat="44.69290555731002" lon="8.835988596204588"><ele>244.0</ele><time>2026-03-29T09:30:39.002Z</time></trkpt><trkpt lat="44.69286946805118" lon="8.835761078425785"><ele>244.0</ele><time>2026-03-29T09:30:40.002Z</time></trkpt><trkpt lat="44.69283349922844" lon="8.835534320280251"><ele>244.0</ele><time>2026-03-29T09:30:41.002Z</time></trkpt><trkpt lat="44.69279747238725" lon="8.835310533133587"><ele>244.0</ele><time>2026-03-29T09:30:42.002Z</time></trkpt><trkpt lat="44.69276163145451" lon="8.835093532004242"><ele>244.0</ele><time>2026-03-29T09:30:43.002Z</time></trkpt><trkpt lat="44.6927129245412" lon="8.834895043628329"><ele>244.0</ele><time>2026-03-29T09:30:44.002Z</time></trkpt><trkpt lat="44.69268167347211" lon="8.834697708909008"><ele>244.0</ele><time>2026-03-29T09:30:45.002Z</time></trkpt><trkpt lat="44.6926509374658" lon="8.834499032308175"><ele>244.0</ele><time>2026-03-29T09:30:46.002Z</time></trkpt><trkpt lat="44.69262301921547" lon="8.834314207380219"><ele>244.0</ele><time>2026-03-29T09:30:47.002Z</time></trkpt><trkpt lat="44.69259353963581" lon="8.834139782412867"><ele>244.0</ele><time>2026-03-29T09:30:48.002Z</time></trkpt><trkpt lat="44.69256469421258" lon="8.833973348532377"><ele>244.0</ele><time>2026-03-29T09:30:49.002Z</time></trkpt><trkpt lat="44.692544140986456" lon="8.83379383744718"><ele>244.0</ele><time>2026-03-29T09:30:50.002Z</time></trkpt><trkpt lat="44.69250894678857" lon="8.833610644859021"><ele>244.0</ele><time>2026-03-29T09:30:51.002Z</time></trkpt><trkpt lat="44.69247790970207" lon="8.833419775821033"><ele>243.75</ele><time>2026-03-29T09:30:52.002Z</time></trkpt><trkpt lat="44.69244594843369" lon="8.833228108396192"><ele>243.5</ele><time>2026-03-29T09:30:53.002Z</time></trkpt><trkpt lat="44.69241162427679" lon="8.833028413373404"><ele>243.25</ele><time>2026-03-29T09:30:54.002Z</time></trkpt><trkpt lat="44.69237454946372" lon="8.832828287949594"><ele>243.0</ele><time>2026-03-29T09:30:55.002Z</time></trkpt><trkpt lat="44.69233968016295" lon="8.832626773838477"><ele>243.0</ele><time>2026-03-29T09:30:56.002Z</time></trkpt><trkpt lat="44.69230758638294" lon="8.832426998975196"><ele>243.0</ele><time>2026-03-29T09:30:57.002Z</time></trkpt><trkpt lat="44.692272654734566" lon="8.832229257544375"><ele>243.0</ele><time>2026-03-29T09:30:58.002Z</time></trkpt><trkpt lat="44.69223969572533" lon="8.832031145594364"><ele>243.0</ele><time>2026-03-29T09:30:59.002Z</time></trkpt><trkpt lat="44.69220733698939" lon="8.831831062874544"><ele>242.5</ele><time>2026-03-29T09:31:00.002Z</time></trkpt><trkpt lat="44.69217387192709" lon="8.831626310082626"><ele>242.0</ele><time>2026-03-29T09:31:01.002Z</time></trkpt><trkpt lat="44.69213997914047" lon="8.831421276998118"><ele>241.5</ele><time>2026-03-29T09:31:02.002Z</time></trkpt><trkpt lat="44.6921048050817" lon="8.831216060191787"><ele>241.0</ele><time>2026-03-29T09:31:03.002Z</time></trkpt><trkpt lat="44.692077402973695" lon="8.831011025972861"><ele>240.5</ele><time>2026-03-29T09:31:04.002Z</time></trkpt><trkpt lat="44.6920425277776" lon="8.830821469553944"><ele>240.0</ele><time>2026-03-29T09:31:05.002Z</time></trkpt><trkpt lat="44.69201003108787" lon="8.830642734542401"><ele>239.5</ele><time>2026-03-29T09:31:06.002Z</time></trkpt><trkpt lat="44.691986999939" lon="8.830459840498115"><ele>239.0</ele><time>2026-03-29T09:31:07.002Z</time></trkpt><trkpt lat="44.69196273382636" lon="8.830275678302767"><ele>239.0</ele><time>2026-03-29T09:31:08.002Z</time></trkpt><trkpt lat="44.6919388564223" lon="8.830087378990752"><ele>239.0</ele><time>2026-03-29T09:31:09.002Z</time></trkpt><trkpt lat="44.69191184294673" lon="8.829898888250794"><ele>239.0</ele><time>2026-03-29T09:31:10.002Z</time></trkpt><trkpt lat="44.69189266603408" lon="8.829713947318817"><ele>239.0</ele><time>2026-03-29T09:31:11.002Z</time></trkpt><trkpt lat="44.69187468974181" lon="8.82953081690256"><ele>239.25</ele><time>2026-03-29T09:31:12.002Z</time></trkpt><trkpt lat="44.69185857026656" lon="8.829339747676531"><ele>239.5</ele><time>2026-03-29T09:31:13.002Z</time></trkpt><trkpt lat="44.69183676709548" lon="8.829143251731342"><ele>239.75</ele><time>2026-03-29T09:31:14.002Z</time></trkpt><trkpt lat="44.69181817876668" lon="8.828938785113987"><ele>240.0</ele><time>2026-03-29T09:31:15.002Z</time></trkpt><trkpt lat="44.69180038543238" lon="8.82873678223598"><ele>240.0</ele><time>2026-03-29T09:31:16.002Z</time></trkpt><trkpt lat="44.691787646567676" lon="8.828533168934852"><ele>240.0</ele><time>2026-03-29T09:31:17.002Z</time></trkpt><trkpt lat="44.69177813704925" lon="8.828335532679372"><ele>240.0</ele><time>2026-03-29T09:31:18.002Z</time></trkpt><trkpt lat="44.69175839447921" lon="8.828136370732455"><ele>240.0</ele><time>2026-03-29T09:31:19.002Z</time></trkpt><trkpt lat="44.69174190091096" lon="8.827939302554121"><ele>240.25</ele><time>2026-03-29T09:31:20.003Z</time></trkpt><trkpt lat="44.691722624022574" lon="8.827741376266847"><ele>240.5</ele><time>2026-03-29T09:31:21.003Z</time></trkpt><trkpt lat="44.691700896090495" lon="8.827542585207144"><ele>240.75</ele><time>2026-03-29T09:31:22.003Z</time></trkpt><trkpt lat="44.691677514869426" lon="8.827344534976447"><ele>241.0</ele><time>2026-03-29T09:31:23.003Z</time></trkpt><trkpt lat="44.69165050921765" lon="8.827148589969084"><ele>241.0</ele><time>2026-03-29T09:31:24.003Z</time></trkpt><trkpt lat="44.69162198880784" lon="8.826953857514555"><ele>241.0</ele><time>2026-03-29T09:31:25.003Z</time></trkpt><trkpt lat="44.69159057465769" lon="8.82675739622955"><ele>241.0</ele><time>2026-03-29T09:31:26.002Z</time></trkpt><trkpt lat="44.691562147052245" lon="8.826559081028497"><ele>241.0</ele><time>2026-03-29T09:31:27.002Z</time></trkpt><trkpt lat="44.691534719047496" lon="8.826377190717205"><ele>240.5</ele><time>2026-03-29T09:31:28.002Z</time></trkpt><trkpt lat="44.69150415433083" lon="8.826202833535344"><ele>240.0</ele><time>2026-03-29T09:31:29.002Z</time></trkpt><trkpt lat="44.69147850200567" lon="8.826042140071179"><ele>239.5</ele><time>2026-03-29T09:31:30.002Z</time></trkpt><trkpt lat="44.691450022355056" lon="8.825890656922217"><ele>239.0</ele><time>2026-03-29T09:31:31.002Z</time></trkpt><trkpt lat="44.6914313621297" lon="8.825736730403046"><ele>239.0</ele><time>2026-03-29T09:31:32.002Z</time></trkpt><trkpt lat="44.691406686509545" lon="8.82557513002496"><ele>238.99999999999997</ele><time>2026-03-29T09:31:33.001Z</time></trkpt><trkpt lat="44.69138323953356" lon="8.825424419944355"><ele>238.99999999999997</ele><time>2026-03-29T09:31:34.001Z</time></trkpt><trkpt lat="44.69136213012643" lon="8.825288116524703"><ele>239.0</ele><time>2026-03-29T09:31:35.001Z</time></trkpt><trkpt lat="44.69134631631242" lon="8.82517004551802"><ele>239.0</ele><time>2026-03-29T09:31:36.001Z</time></trkpt><trkpt lat="44.69133676388973" lon="8.825072732862237"><ele>238.79999999999998</ele><time>2026-03-29T09:31:37.001Z</time></trkpt><trkpt lat="44.69133800644362" lon="8.82494612678588"><ele>238.59999999999997</ele><time>2026-03-29T09:31:39.001Z</time></trkpt><trkpt lat="44.69137111825509" lon="8.824821726511846"><ele>238.4</ele><time>2026-03-29T09:31:41.001Z</time></trkpt><trkpt lat="44.69140361118048" lon="8.824650690069337"><ele>238.2</ele><time>2026-03-29T09:31:43.001Z</time></trkpt><trkpt lat="44.691377757488844" lon="8.824559212843678"><ele>238.0</ele><time>2026-03-29T09:31:44.001Z</time></trkpt><trkpt lat="44.69131348775967" lon="8.824469206640352"><ele>238.0</ele><time>2026-03-29T09:31:45.001Z</time></trkpt><trkpt lat="44.69124359576089" lon="8.824403823835324"><ele>238.0</ele><time>2026-03-29T09:31:46.001Z</time></trkpt><trkpt lat="44.69120887212999" lon="8.824258247664098"><ele>238.0</ele><time>2026-03-29T09:31:47.001Z</time></trkpt><trkpt lat="44.69120115464251" lon="8.824142300346406"><ele>238.0</ele><time>2026-03-29T09:31:48.001Z</time></trkpt><trkpt lat="44.69118037659801" lon="8.824011754834636"><ele>238.0</ele><time>2026-03-29T09:31:49.001Z</time></trkpt><trkpt lat="44.69114608949718" lon="8.823867194581364"><ele>237.75</ele><time>2026-03-29T09:31:50.001Z</time></trkpt><trkpt lat="44.6911243111466" lon="8.823697909251981"><ele>237.5</ele><time>2026-03-29T09:31:51.001Z</time></trkpt><trkpt lat="44.69109842025689" lon="8.823521213678006"><ele>237.25</ele><time>2026-03-29T09:31:52.001Z</time></trkpt><trkpt lat="44.691070742913915" lon="8.823326477993769"><ele>237.0</ele><time>2026-03-29T09:31:53.001Z</time></trkpt><trkpt lat="44.69104583969927" lon="8.823154382453282"><ele>238.0</ele><time>2026-03-29T09:31:54.001Z</time></trkpt><trkpt lat="44.69102073988552" lon="8.8229747639501"><ele>239.0</ele><time>2026-03-29T09:31:55.001Z</time></trkpt><trkpt lat="44.690994570844595" lon="8.822788833881614"><ele>240.0</ele><time>2026-03-29T09:31:56.001Z</time></trkpt><trkpt lat="44.69096924693929" lon="8.82259340832139"><ele>241.0</ele><time>2026-03-29T09:31:57.001Z</time></trkpt><trkpt lat="44.69093708695214" lon="8.822387285638607"><ele>241.0</ele><time>2026-03-29T09:31:58.001Z</time></trkpt><trkpt lat="44.69090663140939" lon="8.822177934666232"><ele>241.0</ele><time>2026-03-29T09:31:59.001Z</time></trkpt><trkpt lat="44.69087763805904" lon="8.821967439514879"><ele>241.0</ele><time>2026-03-29T09:32:00.001Z</time></trkpt><trkpt lat="44.69084734696029" lon="8.821751738151834"><ele>239.66666666666666</ele><time>2026-03-29T09:32:01.001Z</time></trkpt><trkpt lat="44.6908168146191" lon="8.82153887346126"><ele>238.33333333333331</ele><time>2026-03-29T09:32:02.001Z</time></trkpt><trkpt lat="44.69078786693535" lon="8.821328826738968"><ele>237.0</ele><time>2026-03-29T09:32:03.001Z</time></trkpt><trkpt lat="44.69076111920028" lon="8.821124434038602"><ele>237.5</ele><time>2026-03-29T09:32:04.001Z</time></trkpt><trkpt lat="44.69073610683928" lon="8.820934318843015"><ele>238.0</ele><time>2026-03-29T09:32:05.001Z</time></trkpt><trkpt lat="44.69071207323491" lon="8.82076454169625"><ele>238.5</ele><time>2026-03-29T09:32:06.001Z</time></trkpt><trkpt lat="44.69068737263242" lon="8.820595921730224"><ele>239.0</ele><time>2026-03-29T09:32:07.001Z</time></trkpt><trkpt lat="44.69066627872905" lon="8.8204206050001"><ele>239.0</ele><time>2026-03-29T09:32:08.001Z</time></trkpt><trkpt lat="44.69064635716757" lon="8.820238969533175"><ele>239.0</ele><time>2026-03-29T09:32:09.001Z</time></trkpt><trkpt lat="44.69062519780008" lon="8.82005483935848"><ele>239.0</ele><time>2026-03-29T09:32:10.001Z</time></trkpt><trkpt lat="44.69060229591889" lon="8.819871669892304"><ele>239.0</ele><time>2026-03-29T09:32:11.001Z</time></trkpt><trkpt lat="44.69058209004507" lon="8.819687965603222"><ele>239.0</ele><time>2026-03-29T09:32:12.001Z</time></trkpt><trkpt lat="44.69056448222855" lon="8.819508801830706"><ele>239.0</ele><time>2026-03-29T09:32:13.001Z</time></trkpt><trkpt lat="44.69055015423519" lon="8.819336097188467"><ele>239.0</ele><time>2026-03-29T09:32:14.001Z</time></trkpt><trkpt lat="44.6905341059171" lon="8.819166978865399"><ele>239.0</ele><time>2026-03-29T09:32:15.001Z</time></trkpt><trkpt lat="44.690520308860826" lon="8.8189952032533"><ele>238.79999999999998</ele><time>2026-03-29T09:32:16.001Z</time></trkpt><trkpt lat="44.69050581749806" lon="8.81883316548279"><ele>238.59999999999997</ele><time>2026-03-29T09:32:17.001Z</time></trkpt><trkpt lat="44.69048972261654" lon="8.818690870087183"><ele>238.4</ele><time>2026-03-29T09:32:18.001Z</time></trkpt><trkpt lat="44.69047429654977" lon="8.81855466752864"><ele>238.2</ele><time>2026-03-29T09:32:19.001Z</time></trkpt><trkpt lat="44.69045722776853" lon="8.818408005086605"><ele>238.0</ele><time>2026-03-29T09:32:20.001Z</time></trkpt><trkpt lat="44.69043835893545" lon="8.818254396554256"><ele>238.25</ele><time>2026-03-29T09:32:21.001Z</time></trkpt><trkpt lat="44.69041691312341" lon="8.818092970765335"><ele>238.5</ele><time>2026-03-29T09:32:22.001Z</time></trkpt><trkpt lat="44.69039578027147" lon="8.817923695295093"><ele>238.75</ele><time>2026-03-29T09:32:23.001Z</time></trkpt><trkpt lat="44.690379101285245" lon="8.8177440719719"><ele>239.0</ele><time>2026-03-29T09:32:24.001Z</time></trkpt><trkpt lat="44.690360578240075" lon="8.81755744266981"><ele>239.0</ele><time>2026-03-29T09:32:25.001Z</time></trkpt><trkpt lat="44.69034019429068" lon="8.817355529779132"><ele>239.0</ele><time>2026-03-29T09:32:26.002Z</time></trkpt><trkpt lat="44.690319547133186" lon="8.817152350348792"><ele>239.0</ele><time>2026-03-29T09:32:27.002Z</time></trkpt><trkpt lat="44.69028989241536" lon="8.816945605733462"><ele>239.0</ele><time>2026-03-29T09:32:28.002Z</time></trkpt><trkpt lat="44.6902733312404" lon="8.816750805716831"><ele>241.0</ele><time>2026-03-29T09:32:29.002Z</time></trkpt><trkpt lat="44.690233669633685" lon="8.816556175728069"><ele>243.0</ele><time>2026-03-29T09:32:30.002Z</time></trkpt><trkpt lat="44.69017969421724" lon="8.81637341617864"><ele>245.0</ele><time>2026-03-29T09:32:31.002Z</time></trkpt><trkpt lat="44.69010902267267" lon="8.816200812523537"><ele>247.0</ele><time>2026-03-29T09:32:32.002Z</time></trkpt><trkpt lat="44.690033020605064" lon="8.81604487700647"><ele>246.75</ele><time>2026-03-29T09:32:33.002Z</time></trkpt><trkpt lat="44.68995266028572" lon="8.815906585974389"><ele>246.5</ele><time>2026-03-29T09:32:34.002Z</time></trkpt><trkpt lat="44.68986896783488" lon="8.815773594546078"><ele>246.25</ele><time>2026-03-29T09:32:35.002Z</time></trkpt><trkpt lat="44.68978332694613" lon="8.815640519654856"><ele>246.0</ele><time>2026-03-29T09:32:36.002Z</time></trkpt><trkpt lat="44.68969433291913" lon="8.815504904440289"><ele>246.0</ele><time>2026-03-29T09:32:37.002Z</time></trkpt><trkpt lat="44.68959814256256" lon="8.815360593906666"><ele>246.0</ele><time>2026-03-29T09:32:38.002Z</time></trkpt><trkpt lat="44.689514044059784" lon="8.815214857023456"><ele>246.0</ele><time>2026-03-29T09:32:39.002Z</time></trkpt><trkpt lat="44.68943824647457" lon="8.815056621853731"><ele>246.0</ele><time>2026-03-29T09:32:40.002Z</time></trkpt><trkpt lat="44.68937344261544" lon="8.814891044878463"><ele>246.75</ele><time>2026-03-29T09:32:41.002Z</time></trkpt><trkpt lat="44.68931498844288" lon="8.81473007782772"><ele>247.5</ele><time>2026-03-29T09:32:42.002Z</time></trkpt><trkpt lat="44.68925743530545" lon="8.814578508928772"><ele>248.25</ele><time>2026-03-29T09:32:43.002Z</time></trkpt><trkpt lat="44.68919616836213" lon="8.814422992608367"><ele>249.0</ele><time>2026-03-29T09:32:44.002Z</time></trkpt><trkpt lat="44.68913776301778" lon="8.814274168645142"><ele>249.6</ele><time>2026-03-29T09:32:45.002Z</time></trkpt><trkpt lat="44.68908510169592" lon="8.814140791789827"><ele>250.2</ele><time>2026-03-29T09:32:46.002Z</time></trkpt><trkpt lat="44.68903943112744" lon="8.814025299970083"><ele>250.79999999999998</ele><time>2026-03-29T09:32:47.002Z</time></trkpt><trkpt lat="44.688999498223346" lon="8.813923479592159"><ele>251.39999999999998</ele><time>2026-03-29T09:32:48.002Z</time></trkpt><trkpt lat="44.68897008646758" lon="8.813828007370049"><ele>252.0</ele><time>2026-03-29T09:32:49.002Z</time></trkpt><trkpt lat="44.68893979981438" lon="8.81367144750283"><ele>252.0</ele><time>2026-03-29T09:32:51.002Z</time></trkpt><trkpt lat="44.68891427811991" lon="8.813514624743116"><ele>252.0</ele><time>2026-03-29T09:32:53.002Z</time></trkpt><trkpt lat="44.68888307873544" lon="8.813402016699072"><ele>252.0</ele><time>2026-03-29T09:32:54.002Z</time></trkpt><trkpt lat="44.68886943471686" lon="8.81326814160271"><ele>252.0</ele><time>2026-03-29T09:32:55.002Z</time></trkpt><trkpt lat="44.68884755412416" lon="8.81311098337491"><ele>252.0</ele><time>2026-03-29T09:32:56.002Z</time></trkpt><trkpt lat="44.68881832384883" lon="8.812942406377749"><ele>253.0</ele><time>2026-03-29T09:32:57.002Z</time></trkpt><trkpt lat="44.68879101509407" lon="8.812770693163287"><ele>254.0</ele><time>2026-03-29T09:32:58.002Z</time></trkpt><trkpt lat="44.6887611810332" lon="8.812612742823784"><ele>255.0</ele><time>2026-03-29T09:32:59.002Z</time></trkpt><trkpt lat="44.688731527420195" lon="8.812448404632697"><ele>256.0</ele><time>2026-03-29T09:33:00.002Z</time></trkpt><trkpt lat="44.68870350329191" lon="8.812275109118287"><ele>257.25</ele><time>2026-03-29T09:33:01.002Z</time></trkpt><trkpt lat="44.68867569094012" lon="8.812089597465642"><ele>258.5</ele><time>2026-03-29T09:33:02.002Z</time></trkpt><trkpt lat="44.688651594906105" lon="8.811923162721822"><ele>259.75</ele><time>2026-03-29T09:33:03.002Z</time></trkpt><trkpt lat="44.68862518650709" lon="8.811757338230624"><ele>261.0</ele><time>2026-03-29T09:33:04.002Z</time></trkpt><trkpt lat="44.688584000887886" lon="8.811603829471869"><ele>261.40000000000003</ele><time>2026-03-29T09:33:05.002Z</time></trkpt><trkpt lat="44.68852870745833" lon="8.811470624270305"><ele>261.8</ele><time>2026-03-29T09:33:06.002Z</time></trkpt><trkpt lat="44.68846122659651" lon="8.81135679293207"><ele>262.20000000000005</ele><time>2026-03-29T09:33:07.002Z</time></trkpt><trkpt lat="44.68838310603865" lon="8.811254892261458"><ele>262.6</ele><time>2026-03-29T09:33:08.002Z</time></trkpt><trkpt lat="44.688290515789014" lon="8.811160279714677"><ele>263.0</ele><time>2026-03-29T09:33:09.002Z</time></trkpt><trkpt lat="44.6881995016841" lon="8.811047450542212"><ele>261.6</ele><time>2026-03-29T09:33:10.002Z</time></trkpt><trkpt lat="44.68812975184132" lon="8.81093688588157"><ele>260.20000000000005</ele><time>2026-03-29T09:33:11.002Z</time></trkpt><trkpt lat="44.68807691947801" lon="8.810806541925297"><ele>258.8</ele><time>2026-03-29T09:33:12.002Z</time></trkpt><trkpt lat="44.68803501122058" lon="8.810675665122812"><ele>257.40000000000003</ele><time>2026-03-29T09:33:13.002Z</time></trkpt><trkpt lat="44.68800497634702" lon="8.810515251116252"><ele>256.0</ele><time>2026-03-29T09:33:14.002Z</time></trkpt><trkpt lat="44.687978645960946" lon="8.810382859291622"><ele>256.0</ele><time>2026-03-29T09:33:15.002Z</time></trkpt><trkpt lat="44.68796946037606" lon="8.810233984024338"><ele>256.0</ele><time>2026-03-29T09:33:16.002Z</time></trkpt><trkpt lat="44.68795388110904" lon="8.810104962415314"><ele>256.0</ele><time>2026-03-29T09:33:17.002Z</time></trkpt><trkpt lat="44.68795235111308" lon="8.809937722326238"><ele>256.0</ele><time>2026-03-29T09:33:18.002Z</time></trkpt><trkpt lat="44.68794662311729" lon="8.809785476160277"><ele>256.0</ele><time>2026-03-29T09:33:19.002Z</time></trkpt><trkpt lat="44.68795278832625" lon="8.809625656615118"><ele>255.25</ele><time>2026-03-29T09:33:20.002Z</time></trkpt><trkpt lat="44.687968280265906" lon="8.809468934092022"><ele>254.5</ele><time>2026-03-29T09:33:21.002Z</time></trkpt><trkpt lat="44.6879756045361" lon="8.80930219494889"><ele>253.75</ele><time>2026-03-29T09:33:22.002Z</time></trkpt><trkpt lat="44.68798810593307" lon="8.809141815345455"><ele>253.0</ele><time>2026-03-29T09:33:23.002Z</time></trkpt><trkpt lat="44.68803598020805" lon="8.809009803640476"><ele>252.4</ele><time>2026-03-29T09:33:24.002Z</time></trkpt><trkpt lat="44.68804780582489" lon="8.80886323156065"><ele>251.8</ele><time>2026-03-29T09:33:25.002Z</time></trkpt><trkpt lat="44.68808784358939" lon="8.808738377621998"><ele>251.2</ele><time>2026-03-29T09:33:26.003Z</time></trkpt><trkpt lat="44.68809899768022" lon="8.808616372098015"><ele>250.6</ele><time>2026-03-29T09:33:27.003Z</time></trkpt><trkpt lat="44.68811823875803" lon="8.80848129711694"><ele>250.0</ele><time>2026-03-29T09:33:28.003Z</time></trkpt><trkpt lat="44.68813816563696" lon="8.808349827479384"><ele>249.16666666666666</ele><time>2026-03-29T09:33:29.003Z</time></trkpt><trkpt lat="44.68815342275523" lon="8.808220742359962"><ele>248.33333333333331</ele><time>2026-03-29T09:33:30.003Z</time></trkpt><trkpt lat="44.68816535620574" lon="8.808104459788176"><ele>247.5</ele><time>2026-03-29T09:33:31.003Z</time></trkpt><trkpt lat="44.68817044575709" lon="8.807980680773436"><ele>246.66666666666669</ele><time>2026-03-29T09:33:32.002Z</time></trkpt><trkpt lat="44.688187254040834" lon="8.807880889812841"><ele>245.83333333333334</ele><time>2026-03-29T09:33:33.002Z</time></trkpt><trkpt lat="44.68819907281634" lon="8.807786765114495"><ele>245.0</ele><time>2026-03-29T09:33:34.002Z</time></trkpt><trkpt lat="44.68821363970942" lon="8.80769894496358"><ele>243.66666666666669</ele><time>2026-03-29T09:33:35.002Z</time></trkpt><trkpt lat="44.68823143252199" lon="8.807605588767222"><ele>242.33333333333334</ele><time>2026-03-29T09:33:36.001Z</time></trkpt><trkpt lat="44.68824525177406" lon="8.80750676573554"><ele>241.0</ele><time>2026-03-29T09:33:37.001Z</time></trkpt><trkpt lat="44.68826796763238" lon="8.80736872004979"><ele>239.66666666666669</ele><time>2026-03-29T09:33:39.001Z</time></trkpt><trkpt lat="44.688287634597394" lon="8.807247862941686"><ele>238.33333333333334</ele><time>2026-03-29T09:33:42.001Z</time></trkpt><trkpt lat="44.68830635382375" lon="8.807151635100409"><ele>237.0</ele><time>2026-03-29T09:33:44.001Z</time></trkpt><trkpt lat="44.688327665746115" lon="8.807044467541324"><ele>237.0</ele><time>2026-03-29T09:33:46.001Z</time></trkpt><trkpt lat="44.68834324388421" lon="8.806927221878732"><ele>237.0</ele><time>2026-03-29T09:33:48.001Z</time></trkpt><trkpt lat="44.688359658813276" lon="8.806768641752512"><ele>237.0</ele><time>2026-03-29T09:33:50.001Z</time></trkpt><trkpt lat="44.68834975291664" lon="8.806614391892083"><ele>237.0</ele><time>2026-03-29T09:33:52.001Z</time></trkpt><trkpt lat="44.688366144339525" lon="8.806469764110599"><ele>237.0</ele><time>2026-03-29T09:33:54.001Z</time></trkpt><trkpt lat="44.68839300360873" lon="8.806325129691613"><ele>236.0</ele><time>2026-03-29T09:33:56.001Z</time></trkpt><trkpt lat="44.688429928060565" lon="8.806197202952747"><ele>235.0</ele><time>2026-03-29T09:33:58.001Z</time></trkpt><trkpt lat="44.68845327546717" lon="8.806058891234825"><ele>234.0</ele><time>2026-03-29T09:34:00.001Z</time></trkpt><trkpt lat="44.68845762126452" lon="8.805910161185661"><ele>233.0</ele><time>2026-03-29T09:34:02.001Z</time></trkpt><trkpt lat="44.68846854605618" lon="8.805774516921208"><ele>232.0</ele><time>2026-03-29T09:34:04.001Z</time></trkpt><trkpt lat="44.68847706095694" lon="8.805665729425522"><ele>231.49999999999997</ele><time>2026-03-29T09:34:06.001Z</time></trkpt><trkpt lat="44.68837414348573" lon="8.805548992091468"><ele>231.0</ele><time>2026-03-29T09:34:10.001Z</time></trkpt><trkpt lat="44.688301223034344" lon="8.805547151804374"><ele>230.5</ele><time>2026-03-29T09:34:13.001Z</time></trkpt><trkpt lat="44.688233487461076" lon="8.805584833068341"><ele>230.0</ele><time>2026-03-29T09:34:18.001Z</time></trkpt><trkpt lat="44.68818587687967" lon="8.805643511298669"><ele>229.49999999999997</ele><time>2026-03-29T09:34:20.001Z</time></trkpt><trkpt lat="44.6881283704211" lon="8.805695944097938"><ele>229.0</ele><time>2026-03-29T09:34:22.001Z</time></trkpt><trkpt lat="44.68811255355254" lon="8.805825357386638"><ele>228.99999999999997</ele><time>2026-03-29T09:34:24.001Z</time></trkpt><trkpt lat="44.68805950570187" lon="8.805900582227334"><ele>229.0</ele><time>2026-03-29T09:34:30.001Z</time></trkpt><trkpt lat="44.6880467714659" lon="8.806013195925846"><ele>229.0</ele><time>2026-03-29T09:34:32.001Z</time></trkpt><trkpt lat="44.68800744491928" lon="8.806100169319556"><ele>229.0</ele><time>2026-03-29T09:34:34.001Z</time></trkpt><trkpt lat="44.68798265163783" lon="8.80619811999956"><ele>228.99999999999997</ele><time>2026-03-29T09:34:36.001Z</time></trkpt><trkpt lat="44.68795889099627" lon="8.806291991075172"><ele>229.0</ele><time>2026-03-29T09:34:40.001Z</time></trkpt><trkpt lat="44.68792708128922" lon="8.80641766142246"><ele>228.5</ele><time>2026-03-29T09:34:42.001Z</time></trkpt><trkpt lat="44.68788685666904" lon="8.806564520225367"><ele>228.0</ele><time>2026-03-29T09:34:44.001Z</time></trkpt><trkpt lat="44.68784970729316" lon="8.806722436743724"><ele>227.5</ele><time>2026-03-29T09:34:46.001Z</time></trkpt><trkpt lat="44.68776596280606" lon="8.806834203119735"><ele>227.0</ele><time>2026-03-29T09:34:48.001Z</time></trkpt><trkpt lat="44.68764992717044" lon="8.806876156136765"><ele>227.00000000000003</ele><time>2026-03-29T09:34:50.001Z</time></trkpt><trkpt lat="44.68758227896045" lon="8.806870246598905"><ele>227.0</ele><time>2026-03-29T09:34:51.001Z</time></trkpt><trkpt lat="44.68751754673347" lon="8.806856956955565"><ele>227.0</ele><time>2026-03-29T09:34:52.001Z</time></trkpt><trkpt lat="44.687444360643184" lon="8.80684811935217"><ele>227.0</ele><time>2026-03-29T09:34:53.001Z</time></trkpt><trkpt lat="44.68736944166507" lon="8.806846065814696"><ele>227.00000000000003</ele><time>2026-03-29T09:34:54.001Z</time></trkpt><trkpt lat="44.687303135576194" lon="8.806824147834195"><ele>227.0</ele><time>2026-03-29T09:34:55.001Z</time></trkpt><trkpt lat="44.68717524373743" lon="8.806773445873102"><ele>226.16666666666669</ele><time>2026-03-29T09:34:57.002Z</time></trkpt><trkpt lat="44.687090669131884" lon="8.806754291516738"><ele>225.33333333333334</ele><time>2026-03-29T09:34:58.002Z</time></trkpt><trkpt lat="44.68700841427064" lon="8.806712057566216"><ele>224.5</ele><time>2026-03-29T09:34:59.002Z</time></trkpt><trkpt lat="44.686927707053236" lon="8.806647755218693"><ele>223.66666666666669</ele><time>2026-03-29T09:35:00.002Z</time></trkpt><trkpt lat="44.68685044890846" lon="8.806587200784044"><ele>222.83333333333334</ele><time>2026-03-29T09:35:01.002Z</time></trkpt><trkpt lat="44.686772159827065" lon="8.806540045088848"><ele>222.0</ele><time>2026-03-29T09:35:02.002Z</time></trkpt><trkpt lat="44.686682462582304" lon="8.80651778187965"><ele>221.0</ele><time>2026-03-29T09:35:03.002Z</time></trkpt><trkpt lat="44.686588228535996" lon="8.806517149632281"><ele>220.0</ele><time>2026-03-29T09:35:04.002Z</time></trkpt><trkpt lat="44.68647639097942" lon="8.806530171799928"><ele>219.0</ele><time>2026-03-29T09:35:05.002Z</time></trkpt><trkpt lat="44.68635698115505" lon="8.806544024958423"><ele>218.0</ele><time>2026-03-29T09:35:06.002Z</time></trkpt><trkpt lat="44.68623605169282" lon="8.806559772773078"><ele>217.0</ele><time>2026-03-29T09:35:07.002Z</time></trkpt><trkpt lat="44.686118284453975" lon="8.806569676655462"><ele>217.39999999999998</ele><time>2026-03-29T09:35:08.002Z</time></trkpt><trkpt lat="44.68601084236442" lon="8.806548326782307"><ele>217.79999999999998</ele><time>2026-03-29T09:35:09.002Z</time></trkpt><trkpt lat="44.68591183665385" lon="8.806535321305168"><ele>218.2</ele><time>2026-03-29T09:35:10.002Z</time></trkpt><trkpt lat="44.68581985728298" lon="8.806537352214933"><ele>218.6</ele><time>2026-03-29T09:35:11.002Z</time></trkpt><trkpt lat="44.685711166375164" lon="8.806553503119867"><ele>219.0</ele><time>2026-03-29T09:35:12.002Z</time></trkpt><trkpt lat="44.68560191134207" lon="8.806584529762173"><ele>219.0</ele><time>2026-03-29T09:35:13.002Z</time></trkpt><trkpt lat="44.68549454784049" lon="8.806622645113514"><ele>218.99999999999997</ele><time>2026-03-29T09:35:14.002Z</time></trkpt><trkpt lat="44.68539487789935" lon="8.806656246547165"><ele>218.99999999999997</ele><time>2026-03-29T09:35:15.002Z</time></trkpt><trkpt lat="44.685308370546096" lon="8.806691327265844"><ele>219.0</ele><time>2026-03-29T09:35:16.002Z</time></trkpt><trkpt lat="44.685231305939766" lon="8.806725161451416"><ele>219.0</ele><time>2026-03-29T09:35:17.002Z</time></trkpt><trkpt lat="44.68516647675822" lon="8.80675216014975"><ele>218.83333333333334</ele><time>2026-03-29T09:35:18.002Z</time></trkpt><trkpt lat="44.6851061926514" lon="8.806694242577965"><ele>218.66666666666669</ele><time>2026-03-29T09:35:20.002Z</time></trkpt><trkpt lat="44.68510678168312" lon="8.806541284044531"><ele>218.5</ele><time>2026-03-29T09:35:22.002Z</time></trkpt><trkpt lat="44.68509916579608" lon="8.806427384758129"><ele>218.33333333333334</ele><time>2026-03-29T09:35:23.002Z</time></trkpt><trkpt lat="44.685091662901634" lon="8.806299406090245"><ele>218.16666666666669</ele><time>2026-03-29T09:35:24.002Z</time></trkpt><trkpt lat="44.68508521784734" lon="8.80617777010403"><ele>218.0</ele><time>2026-03-29T09:35:25.002Z</time></trkpt><trkpt lat="44.68507753855009" lon="8.806076980346663"><ele>217.66666666666669</ele><time>2026-03-29T09:35:26.002Z</time></trkpt><trkpt lat="44.685072147578005" lon="8.80597263004961"><ele>217.33333333333334</ele><time>2026-03-29T09:35:27.002Z</time></trkpt><trkpt lat="44.685075995065155" lon="8.80587011234558"><ele>217.0</ele><time>2026-03-29T09:35:28.002Z</time></trkpt><trkpt lat="44.68510094618876" lon="8.805760626498854"><ele>216.66666666666669</ele><time>2026-03-29T09:35:29.002Z</time></trkpt><trkpt lat="44.685133180013835" lon="8.805632449595238"><ele>216.33333333333334</ele><time>2026-03-29T09:35:30.002Z</time></trkpt><trkpt lat="44.685169536884715" lon="8.805489856514333"><ele>216.0</ele><time>2026-03-29T09:35:31.002Z</time></trkpt><trkpt lat="44.68519048784396" lon="8.805334098622353"><ele>216.0</ele><time>2026-03-29T09:35:32.002Z</time></trkpt><trkpt lat="44.68522283529534" lon="8.80519855091761"><ele>216.0</ele><time>2026-03-29T09:35:33.002Z</time></trkpt><trkpt lat="44.6852594669294" lon="8.805081775834806"><ele>216.0</ele><time>2026-03-29T09:35:34.002Z</time></trkpt><trkpt lat="44.685281779363336" lon="8.804956489745035"><ele>216.0</ele><time>2026-03-29T09:35:35.002Z</time></trkpt><trkpt lat="44.68530759305179" lon="8.80484684287856"><ele>216.0</ele><time>2026-03-29T09:35:36.002Z</time></trkpt><trkpt lat="44.6853141569262" lon="8.804741478448118"><ele>216.0</ele><time>2026-03-29T09:35:37.002Z</time></trkpt><trkpt lat="44.685318313319875" lon="8.804645533238311"><ele>216.0</ele><time>2026-03-29T09:35:38.001Z</time></trkpt><trkpt lat="44.68528726436439" lon="8.804503617948283"><ele>216.00000000000003</ele><time>2026-03-29T09:35:40.001Z</time></trkpt><trkpt lat="44.68526853450898" lon="8.804410019596508"><ele>216.00000000000003</ele><time>2026-03-29T09:35:45.001Z</time></trkpt><trkpt lat="44.68509092165286" lon="8.804439431375513"><ele>216.0</ele><time>2026-03-29T09:35:47Z</time></trkpt><trkpt lat="44.68500438275096" lon="8.804450043844152"><ele>216.0</ele><time>2026-03-29T09:35:48Z</time></trkpt><trkpt lat="44.684932539363494" lon="8.804456760347524"><ele>216.0</ele><time>2026-03-29T09:35:49Z</time></trkpt><trkpt lat="44.684856785780866" lon="8.804445117377417"><ele>216.0</ele><time>2026-03-29T09:35:50Z</time></trkpt><trkpt lat="44.68478087633858" lon="8.804398241973395"><ele>216.0</ele><time>2026-03-29T09:35:51Z</time></trkpt><trkpt lat="44.68470297220467" lon="8.804355629973784"><ele>216.0</ele><time>2026-03-29T09:35:52Z</time></trkpt><trkpt lat="44.684621173484004" lon="8.804304066131314"><ele>216.0</ele><time>2026-03-29T09:35:53Z</time></trkpt><trkpt lat="44.684538200064885" lon="8.804247112309675"><ele>216.0</ele><time>2026-03-29T09:35:54Z</time></trkpt><trkpt lat="44.68444267628457" lon="8.804216509466702"><ele>217.20000000000002</ele><time>2026-03-29T09:35:55Z</time></trkpt><trkpt lat="44.68434477924862" lon="8.804207578973445"><ele>218.40000000000003</ele><time>2026-03-29T09:35:56Z</time></trkpt><trkpt lat="44.68423681317036" lon="8.80421507705037"><ele>219.6</ele><time>2026-03-29T09:35:57Z</time></trkpt><trkpt lat="44.68412022645113" lon="8.80423688738674"><ele>220.8</ele><time>2026-03-29T09:35:58Z</time></trkpt><trkpt lat="44.68399928248076" lon="8.804269963116262"><ele>222.0</ele><time>2026-03-29T09:35:59Z</time></trkpt><trkpt lat="44.68390083041384" lon="8.804267116157916"><ele>222.0</ele><time>2026-03-29T09:36:00Z</time></trkpt><trkpt lat="44.683795393420944" lon="8.804286046785066"><ele>222.0</ele><time>2026-03-29T09:36:01Z</time></trkpt><trkpt lat="44.68367891771153" lon="8.804321475246578"><ele>222.0</ele><time>2026-03-29T09:36:02Z</time></trkpt><trkpt lat="44.683565885391566" lon="8.804370927056217"><ele>222.0</ele><time>2026-03-29T09:36:03Z</time></trkpt><trkpt lat="44.68344943266673" lon="8.80443398660683"><ele>223.0</ele><time>2026-03-29T09:36:04Z</time></trkpt><trkpt lat="44.68332548487221" lon="8.804503855814698"><ele>224.0</ele><time>2026-03-29T09:36:05Z</time></trkpt><trkpt lat="44.68320489361152" lon="8.8045809241596"><ele>225.0</ele><time>2026-03-29T09:36:06Z</time></trkpt><trkpt lat="44.6830879710198" lon="8.804657542126888"><ele>226.0</ele><time>2026-03-29T09:36:07.001Z</time></trkpt><trkpt lat="44.68297204143204" lon="8.804713429281087"><ele>226.0</ele><time>2026-03-29T09:36:08.001Z</time></trkpt><trkpt lat="44.682854458772255" lon="8.804784826479846"><ele>226.0</ele><time>2026-03-29T09:36:09.001Z</time></trkpt><trkpt lat="44.6827365933929" lon="8.804842660464539"><ele>226.0</ele><time>2026-03-29T09:36:10.001Z</time></trkpt><trkpt lat="44.682620306366076" lon="8.804913355294559"><ele>226.0</ele><time>2026-03-29T09:36:11.001Z</time></trkpt><trkpt lat="44.68251750166649" lon="8.804973547724904"><ele>227.4</ele><time>2026-03-29T09:36:12.001Z</time></trkpt><trkpt lat="44.68241111658033" lon="8.805035291601992"><ele>228.8</ele><time>2026-03-29T09:36:13.001Z</time></trkpt><trkpt lat="44.68230847190427" lon="8.805087306470051"><ele>230.20000000000002</ele><time>2026-03-29T09:36:14.001Z</time></trkpt><trkpt lat="44.682216014014614" lon="8.805109817284603"><ele>231.60000000000002</ele><time>2026-03-29T09:36:15.001Z</time></trkpt><trkpt lat="44.68212253466425" lon="8.80509138840901"><ele>233.0</ele><time>2026-03-29T09:36:16.001Z</time></trkpt><trkpt lat="44.68202005630365" lon="8.80505621934971"><ele>233.5</ele><time>2026-03-29T09:36:17.001Z</time></trkpt><trkpt lat="44.681914575430454" lon="8.804987128921384"><ele>234.0</ele><time>2026-03-29T09:36:18.001Z</time></trkpt><trkpt lat="44.68180596635601" lon="8.804902124322604"><ele>234.5</ele><time>2026-03-29T09:36:19.001Z</time></trkpt><trkpt lat="44.68168361922453" lon="8.804837538305557"><ele>235.0</ele><time>2026-03-29T09:36:20.001Z</time></trkpt><trkpt lat="44.68155111935337" lon="8.804790116722442"><ele>235.0</ele><time>2026-03-29T09:36:21.001Z</time></trkpt><trkpt lat="44.68140670547076" lon="8.80474715292847"><ele>235.0</ele><time>2026-03-29T09:36:22.001Z</time></trkpt><trkpt lat="44.681261704162644" lon="8.80471054595018"><ele>235.0</ele><time>2026-03-29T09:36:23.001Z</time></trkpt><trkpt lat="44.6811286605983" lon="8.804692368184426"><ele>235.0</ele><time>2026-03-29T09:36:24.001Z</time></trkpt><trkpt lat="44.680996642785864" lon="8.80468669089982"><ele>235.5</ele><time>2026-03-29T09:36:25.001Z</time></trkpt><trkpt lat="44.68086454387689" lon="8.804699397289934"><ele>236.0</ele><time>2026-03-29T09:36:26.001Z</time></trkpt><trkpt lat="44.68073363016837" lon="8.80473533989378"><ele>236.5</ele><time>2026-03-29T09:36:27.001Z</time></trkpt><trkpt lat="44.68059837997657" lon="8.804797848635015"><ele>237.0</ele><time>2026-03-29T09:36:28.001Z</time></trkpt><trkpt lat="44.68046329545092" lon="8.804891501690758"><ele>237.0</ele><time>2026-03-29T09:36:29.001Z</time></trkpt><trkpt lat="44.68032024243124" lon="8.805013552316982"><ele>237.0</ele><time>2026-03-29T09:36:30.001Z</time></trkpt><trkpt lat="44.680162811081686" lon="8.805157825792401"><ele>237.0</ele><time>2026-03-29T09:36:31.001Z</time></trkpt><trkpt lat="44.67999854597897" lon="8.805314436663549"><ele>238.0</ele><time>2026-03-29T09:36:32.001Z</time></trkpt><trkpt lat="44.679823220091116" lon="8.805479073522017"><ele>239.0</ele><time>2026-03-29T09:36:33.001Z</time></trkpt><trkpt lat="44.67966043356977" lon="8.805638709937446"><ele>240.0</ele><time>2026-03-29T09:36:34.001Z</time></trkpt><trkpt lat="44.67950783611715" lon="8.805795528653766"><ele>240.66666666666669</ele><time>2026-03-29T09:36:35.001Z</time></trkpt><trkpt lat="44.67936088221566" lon="8.805953968007044"><ele>241.33333333333334</ele><time>2026-03-29T09:36:36.001Z</time></trkpt><trkpt lat="44.679226060561625" lon="8.806107242624952"><ele>242.0</ele><time>2026-03-29T09:36:37.001Z</time></trkpt><trkpt lat="44.67910027144334" lon="8.80625971127344"><ele>242.0</ele><time>2026-03-29T09:36:38.001Z</time></trkpt><trkpt lat="44.678973896614956" lon="8.806415402075338"><ele>242.0</ele><time>2026-03-29T09:36:39.001Z</time></trkpt><trkpt lat="44.67883562273672" lon="8.806573033221886"><ele>242.0</ele><time>2026-03-29T09:36:40.001Z</time></trkpt><trkpt lat="44.678695176852514" lon="8.806707318858699"><ele>242.33333333333334</ele><time>2026-03-29T09:36:41.001Z</time></trkpt><trkpt lat="44.67854827120789" lon="8.806833806073406"><ele>242.66666666666669</ele><time>2026-03-29T09:36:42.001Z</time></trkpt><trkpt lat="44.67839829637623" lon="8.80695602509206"><ele>243.0</ele><time>2026-03-29T09:36:43.001Z</time></trkpt><trkpt lat="44.67825281453111" lon="8.807059019038363"><ele>243.0</ele><time>2026-03-29T09:36:44.001Z</time></trkpt><trkpt lat="44.678119174888735" lon="8.807174971238323"><ele>243.0</ele><time>2026-03-29T09:36:45.001Z</time></trkpt><trkpt lat="44.677985264691046" lon="8.807286343475543"><ele>243.0</ele><time>2026-03-29T09:36:46.001Z</time></trkpt><trkpt lat="44.67785918814161" lon="8.80739993501884"><ele>243.25</ele><time>2026-03-29T09:36:47.001Z</time></trkpt><trkpt lat="44.67773659276682" lon="8.807515336064315"><ele>243.5</ele><time>2026-03-29T09:36:48.001Z</time></trkpt><trkpt lat="44.67761391385471" lon="8.807629302657968"><ele>243.75</ele><time>2026-03-29T09:36:49.001Z</time></trkpt><trkpt lat="44.677491784899594" lon="8.807742515257607"><ele>244.0</ele><time>2026-03-29T09:36:50.001Z</time></trkpt><trkpt lat="44.67737006086142" lon="8.807855406018177"><ele>244.0</ele><time>2026-03-29T09:36:51.001Z</time></trkpt><trkpt lat="44.67724288459386" lon="8.807964990038151"><ele>244.0</ele><time>2026-03-29T09:36:52.001Z</time></trkpt><trkpt lat="44.67711327991351" lon="8.808066715609446"><ele>244.0</ele><time>2026-03-29T09:36:53.001Z</time></trkpt><trkpt lat="44.676980388469886" lon="8.80816633868071"><ele>244.0</ele><time>2026-03-29T09:36:54.001Z</time></trkpt><trkpt lat="44.676843981400104" lon="8.808257058445367"><ele>246.0</ele><time>2026-03-29T09:36:55.001Z</time></trkpt><trkpt lat="44.676695993819536" lon="8.80833491498806"><ele>248.0</ele><time>2026-03-29T09:36:56.001Z</time></trkpt><trkpt lat="44.676536184575696" lon="8.808407665185644"><ele>250.0</ele><time>2026-03-29T09:36:57.001Z</time></trkpt><trkpt lat="44.67636511400599" lon="8.808477219350284"><ele>249.66666666666666</ele><time>2026-03-29T09:36:58.001Z</time></trkpt><trkpt lat="44.67619382408485" lon="8.808557804234491"><ele>249.33333333333331</ele><time>2026-03-29T09:36:59.001Z</time></trkpt><trkpt lat="44.676011484742524" lon="8.808617277348384"><ele>249.0</ele><time>2026-03-29T09:37:00.001Z</time></trkpt><trkpt lat="44.67584178362039" lon="8.808661193453398"><ele>249.0</ele><time>2026-03-29T09:37:01.001Z</time></trkpt><trkpt lat="44.67569659766825" lon="8.808710418720702"><ele>249.0</ele><time>2026-03-29T09:37:02.001Z</time></trkpt><trkpt lat="44.675560140763785" lon="8.808754809281737"><ele>249.0</ele><time>2026-03-29T09:37:03.001Z</time></trkpt><trkpt lat="44.67541948451939" lon="8.808792287286897"><ele>249.0</ele><time>2026-03-29T09:37:04.001Z</time></trkpt><trkpt lat="44.67526888910063" lon="8.808801488402104"><ele>251.33333333333331</ele><time>2026-03-29T09:37:05.001Z</time></trkpt><trkpt lat="44.675117753938814" lon="8.808797294744053"><ele>253.66666666666666</ele><time>2026-03-29T09:37:06.001Z</time></trkpt><trkpt lat="44.67494873774184" lon="8.808773365000667"><ele>256.0</ele><time>2026-03-29T09:37:07.001Z</time></trkpt><trkpt lat="44.67477327712904" lon="8.80875777375004"><ele>256.0</ele><time>2026-03-29T09:37:08.001Z</time></trkpt><trkpt lat="44.67459770104553" lon="8.808734952100162"><ele>256.0</ele><time>2026-03-29T09:37:09.001Z</time></trkpt><trkpt lat="44.67442419052775" lon="8.808701808774545"><ele>256.0</ele><time>2026-03-29T09:37:10.001Z</time></trkpt><trkpt lat="44.67425984598959" lon="8.808662749922851"><ele>257.3333333333333</ele><time>2026-03-29T09:37:11.001Z</time></trkpt><trkpt lat="44.67409028962869" lon="8.808596419721297"><ele>258.6666666666667</ele><time>2026-03-29T09:37:12.001Z</time></trkpt><trkpt lat="44.67391200886732" lon="8.80849069133328"><ele>260.0</ele><time>2026-03-29T09:37:13.001Z</time></trkpt><trkpt lat="44.673731029544506" lon="8.808375709417714"><ele>263.33333333333337</ele><time>2026-03-29T09:37:14.001Z</time></trkpt><trkpt lat="44.673561517828915" lon="8.808266827979805"><ele>266.6666666666667</ele><time>2026-03-29T09:37:15.001Z</time></trkpt><trkpt lat="44.673391983660835" lon="8.808151447215133"><ele>270.0</ele><time>2026-03-29T09:37:16.001Z</time></trkpt><trkpt lat="44.67321470969079" lon="8.808021381628393"><ele>270.0</ele><time>2026-03-29T09:37:17.001Z</time></trkpt><trkpt lat="44.673028708284036" lon="8.807882643097594"><ele>270.0</ele><time>2026-03-29T09:37:18.001Z</time></trkpt><trkpt lat="44.672851175590864" lon="8.807749936039581"><ele>270.0</ele><time>2026-03-29T09:37:19.001Z</time></trkpt><trkpt lat="44.67269226938037" lon="8.807627907025399"><ele>272.0</ele><time>2026-03-29T09:37:20.001Z</time></trkpt><trkpt lat="44.67254660499112" lon="8.807518897367954"><ele>274.0</ele><time>2026-03-29T09:37:21.001Z</time></trkpt><trkpt lat="44.67241329210316" lon="8.807407946005727"><ele>276.0</ele><time>2026-03-29T09:37:22.001Z</time></trkpt><trkpt lat="44.672291845420546" lon="8.807297550270118"><ele>276.0</ele><time>2026-03-29T09:37:23.001Z</time></trkpt><trkpt lat="44.67216793373491" lon="8.80716986826973"><ele>276.0</ele><time>2026-03-29T09:37:24.001Z</time></trkpt><trkpt lat="44.672049857909116" lon="8.807030807102738"><ele>276.0</ele><time>2026-03-29T09:37:25.001Z</time></trkpt><trkpt lat="44.671944668552825" lon="8.806896142324648"><ele>276.0</ele><time>2026-03-29T09:37:26.001Z</time></trkpt><trkpt lat="44.67183039287461" lon="8.806762232767898"><ele>276.0</ele><time>2026-03-29T09:37:27.001Z</time></trkpt><trkpt lat="44.67169818285109" lon="8.806655068135314"><ele>276.0</ele><time>2026-03-29T09:37:28.001Z</time></trkpt><trkpt lat="44.67154737558235" lon="8.806565878057858"><ele>276.0</ele><time>2026-03-29T09:37:29.001Z</time></trkpt><trkpt lat="44.67139724278416" lon="8.806490366469456"><ele>276.0</ele><time>2026-03-29T09:37:30.001Z</time></trkpt><trkpt lat="44.67125072034583" lon="8.806451064939202"><ele>276.0</ele><time>2026-03-29T09:37:31.001Z</time></trkpt><trkpt lat="44.6711040881172" lon="8.806439359200988"><ele>276.6666666666667</ele><time>2026-03-29T09:37:32.001Z</time></trkpt><trkpt lat="44.670959843352534" lon="8.806450153368536"><ele>277.33333333333337</ele><time>2026-03-29T09:37:33.001Z</time></trkpt><trkpt lat="44.670809312077026" lon="8.806502696619056"><ele>278.0</ele><time>2026-03-29T09:37:34.001Z</time></trkpt><trkpt lat="44.67066998056896" lon="8.806591872699125"><ele>278.0</ele><time>2026-03-29T09:37:35.001Z</time></trkpt><trkpt lat="44.67054156671832" lon="8.806701697712874"><ele>278.0</ele><time>2026-03-29T09:37:36.001Z</time></trkpt><trkpt lat="44.670411422023015" lon="8.806807696724864"><ele>278.0</ele><time>2026-03-29T09:37:37.002Z</time></trkpt><trkpt lat="44.67028537238922" lon="8.806870238752532"><ele>278.0</ele><time>2026-03-29T09:37:38.002Z</time></trkpt><trkpt lat="44.67014826079644" lon="8.806895096172148"><ele>275.6666666666667</ele><time>2026-03-29T09:37:39.002Z</time></trkpt><trkpt lat="44.66999742743131" lon="8.806890838751631"><ele>273.3333333333333</ele><time>2026-03-29T09:37:40.002Z</time></trkpt><trkpt lat="44.6698359058795" lon="8.806870883788989"><ele>271.0</ele><time>2026-03-29T09:37:41.002Z</time></trkpt><trkpt lat="44.66966186337519" lon="8.806839659360508"><ele>271.66666666666663</ele><time>2026-03-29T09:37:42.002Z</time></trkpt><trkpt lat="44.66947928883979" lon="8.806800851098382"><ele>272.3333333333333</ele><time>2026-03-29T09:37:43.002Z</time></trkpt><trkpt lat="44.66929027166798" lon="8.806748225975428"><ele>273.0</ele><time>2026-03-29T09:37:44Z</time></trkpt><trkpt lat="44.66909603014326" lon="8.80668405348388"><ele>273.0</ele><time>2026-03-29T09:37:45Z</time></trkpt><trkpt lat="44.66890153103057" lon="8.806623358690132"><ele>273.0</ele><time>2026-03-29T09:37:46Z</time></trkpt><trkpt lat="44.66870811181923" lon="8.806569586617924"><ele>273.0</ele><time>2026-03-29T09:37:47Z</time></trkpt><trkpt lat="44.66851748844917" lon="8.806522186985367"><ele>273.0</ele><time>2026-03-29T09:37:48Z</time></trkpt><trkpt lat="44.6683256339492" lon="8.806483296444641"><ele>273.0</ele><time>2026-03-29T09:37:49Z</time></trkpt><trkpt lat="44.66813599293604" lon="8.806452133645083"><ele>273.0</ele><time>2026-03-29T09:37:50Z</time></trkpt><trkpt lat="44.66794882141869" lon="8.806426622158366"><ele>273.0</ele><time>2026-03-29T09:37:51Z</time></trkpt><trkpt lat="44.667763083995474" lon="8.806406148041173"><ele>273.0</ele><time>2026-03-29T09:37:52Z</time></trkpt><trkpt lat="44.66758324074336" lon="8.806388658426282"><ele>273.0</ele><time>2026-03-29T09:37:53Z</time></trkpt><trkpt lat="44.667416034159444" lon="8.806366499506018"><ele>273.0</ele><time>2026-03-29T09:37:54Z</time></trkpt><trkpt lat="44.66725641544962" lon="8.806341339745728"><ele>273.0</ele><time>2026-03-29T09:37:55Z</time></trkpt><trkpt lat="44.66711054064678" lon="8.806320229651979"><ele>273.0</ele><time>2026-03-29T09:37:56Z</time></trkpt><trkpt lat="44.66698413046322" lon="8.80629651615261"><ele>273.0</ele><time>2026-03-29T09:37:57Z</time></trkpt><trkpt lat="44.66686287679746" lon="8.806260303381068"><ele>273.0</ele><time>2026-03-29T09:37:58Z</time></trkpt><trkpt lat="44.666751162818095" lon="8.806204893724106"><ele>273.0</ele><time>2026-03-29T09:37:59Z</time></trkpt><trkpt lat="44.6666392174837" lon="8.80612757177323"><ele>273.0</ele><time>2026-03-29T09:38:00Z</time></trkpt><trkpt lat="44.66652210870398" lon="8.806024942575018"><ele>273.0</ele><time>2026-03-29T09:38:01Z</time></trkpt><trkpt lat="44.66640593102499" lon="8.805923954778205"><ele>273.0</ele><time>2026-03-29T09:38:02Z</time></trkpt><trkpt lat="44.666295445406426" lon="8.805824118343844"><ele>273.0</ele><time>2026-03-29T09:38:03Z</time></trkpt><trkpt lat="44.66618913036619" lon="8.805730207163458"><ele>273.0</ele><time>2026-03-29T09:38:04Z</time></trkpt><trkpt lat="44.666080774403085" lon="8.805650767092155"><ele>273.0</ele><time>2026-03-29T09:38:05Z</time></trkpt><trkpt lat="44.66596356205555" lon="8.80558086838913"><ele>270.75</ele><time>2026-03-29T09:38:06Z</time></trkpt><trkpt lat="44.66584266527287" lon="8.805517401583716"><ele>268.5</ele><time>2026-03-29T09:38:07Z</time></trkpt><trkpt lat="44.66572868707669" lon="8.805451411467892"><ele>266.25</ele><time>2026-03-29T09:38:08Z</time></trkpt><trkpt lat="44.665621344578184" lon="8.8053701323905"><ele>264.0</ele><time>2026-03-29T09:38:09Z</time></trkpt><trkpt lat="44.665527145309845" lon="8.805238593282537"><ele>264.0</ele><time>2026-03-29T09:38:10Z</time></trkpt><trkpt lat="44.66543508194962" lon="8.805086189642049"><ele>264.0</ele><time>2026-03-29T09:38:11Z</time></trkpt><trkpt lat="44.665338794125766" lon="8.804942696497758"><ele>264.0</ele><time>2026-03-29T09:38:12Z</time></trkpt><trkpt lat="44.66522777139211" lon="8.804834402548048"><ele>264.0</ele><time>2026-03-29T09:38:13Z</time></trkpt><trkpt lat="44.66508604440982" lon="8.804748004376863"><ele>264.0</ele><time>2026-03-29T09:38:14Z</time></trkpt><trkpt lat="44.66493455639382" lon="8.804693604777068"><ele>264.0</ele><time>2026-03-29T09:38:15Z</time></trkpt><trkpt lat="44.66477135319745" lon="8.80467161151136"><ele>264.0</ele><time>2026-03-29T09:38:16Z</time></trkpt><trkpt lat="44.66460374154457" lon="8.804673605736674"><ele>263.0</ele><time>2026-03-29T09:38:17Z</time></trkpt><trkpt lat="44.6644325989957" lon="8.804674961425842"><ele>262.0</ele><time>2026-03-29T09:38:18Z</time></trkpt><trkpt lat="44.664260002613986" lon="8.804675099710789"><ele>261.0</ele><time>2026-03-29T09:38:19Z</time></trkpt><trkpt lat="44.6641038132629" lon="8.804678822057216"><ele>261.0</ele><time>2026-03-29T09:38:20Z</time></trkpt><trkpt lat="44.66395487856268" lon="8.804676603708444"><ele>261.0</ele><time>2026-03-29T09:38:21Z</time></trkpt><trkpt lat="44.66381835841741" lon="8.804672997882548"><ele>261.0</ele><time>2026-03-29T09:38:22Z</time></trkpt><trkpt lat="44.663694482322434" lon="8.804658790118832"><ele>261.0</ele><time>2026-03-29T09:38:23Z</time></trkpt><trkpt lat="44.663578791721704" lon="8.804621558046344"><ele>260.75</ele><time>2026-03-29T09:38:24Z</time></trkpt><trkpt lat="44.663457712295276" lon="8.80456573998488"><ele>260.5</ele><time>2026-03-29T09:38:25Z</time></trkpt><trkpt lat="44.66333149184136" lon="8.80449653091285"><ele>260.25</ele><time>2026-03-29T09:38:26Z</time></trkpt><trkpt lat="44.663215176127714" lon="8.804431195680538"><ele>260.0</ele><time>2026-03-29T09:38:27Z</time></trkpt><trkpt lat="44.663105630924214" lon="8.80436302587636"><ele>260.0</ele><time>2026-03-29T09:38:28Z</time></trkpt><trkpt lat="44.66301086683009" lon="8.804298535496267"><ele>260.0</ele><time>2026-03-29T09:38:29Z</time></trkpt><trkpt lat="44.66293304074724" lon="8.804261437491814"><ele>260.0</ele><time>2026-03-29T09:38:30Z</time></trkpt><trkpt lat="44.662860261493755" lon="8.80428347971528"><ele>260.0</ele><time>2026-03-29T09:38:31Z</time></trkpt><trkpt lat="44.66278165843449" lon="8.804333349745873"><ele>260.0</ele><time>2026-03-29T09:38:32Z</time></trkpt><trkpt lat="44.662701073538386" lon="8.804424290059327"><ele>260.2</ele><time>2026-03-29T09:38:33Z</time></trkpt><trkpt lat="44.66260722758852" lon="8.804522300389824"><ele>260.4</ele><time>2026-03-29T09:38:34Z</time></trkpt><trkpt lat="44.662512101760306" lon="8.804616530840708"><ele>260.6</ele><time>2026-03-29T09:38:35Z</time></trkpt><trkpt lat="44.66243002768067" lon="8.804672577229123"><ele>260.8</ele><time>2026-03-29T09:38:36Z</time></trkpt><trkpt lat="44.66234871893296" lon="8.804709240906188"><ele>261.0</ele><time>2026-03-29T09:38:37Z</time></trkpt><trkpt lat="44.66226290680496" lon="8.804745276724036"><ele>261.0</ele><time>2026-03-29T09:38:38Z</time></trkpt><trkpt lat="44.66217179588641" lon="8.804757468844528"><ele>261.0</ele><time>2026-03-29T09:38:39Z</time></trkpt><trkpt lat="44.66207150024599" lon="8.80472989758033"><ele>261.0</ele><time>2026-03-29T09:38:40Z</time></trkpt><trkpt lat="44.661959209342456" lon="8.804652889337843"><ele>261.0</ele><time>2026-03-29T09:38:41Z</time></trkpt><trkpt lat="44.661826344886286" lon="8.80456129056411"><ele>260.6666666666667</ele><time>2026-03-29T09:38:42Z</time></trkpt><trkpt lat="44.66167960198013" lon="8.804470574301634"><ele>260.33333333333337</ele><time>2026-03-29T09:38:43Z</time></trkpt><trkpt lat="44.66152031800737" lon="8.804383650873175"><ele>260.0</ele><time>2026-03-29T09:38:44Z</time></trkpt><trkpt lat="44.66135951110441" lon="8.804292953016157"><ele>262.33333333333337</ele><time>2026-03-29T09:38:45Z</time></trkpt><trkpt lat="44.66121213724146" lon="8.804200635444616"><ele>264.6666666666667</ele><time>2026-03-29T09:38:46Z</time></trkpt><trkpt lat="44.66105998663454" lon="8.804147443095166"><ele>267.0</ele><time>2026-03-29T09:38:47Z</time></trkpt><trkpt lat="44.660906305124435" lon="8.804119545339487"><ele>267.0</ele><time>2026-03-29T09:38:48Z</time></trkpt><trkpt lat="44.66075431259275" lon="8.80409598684482"><ele>267.0</ele><time>2026-03-29T09:38:49Z</time></trkpt><trkpt lat="44.66060012113693" lon="8.804061863715674"><ele>267.0</ele><time>2026-03-29T09:38:50.001Z</time></trkpt><trkpt lat="44.660441491630166" lon="8.804025999695677"><ele>266.3333333333333</ele><time>2026-03-29T09:38:51.001Z</time></trkpt><trkpt lat="44.66027431319005" lon="8.80399057150576"><ele>265.66666666666663</ele><time>2026-03-29T09:38:52.001Z</time></trkpt><trkpt lat="44.66009690523319" lon="8.80395894083135"><ele>265.0</ele><time>2026-03-29T09:38:53.001Z</time></trkpt><trkpt lat="44.65992907828236" lon="8.803927133916233"><ele>265.0</ele><time>2026-03-29T09:38:54.001Z</time></trkpt><trkpt lat="44.65977563290647" lon="8.803894900157585"><ele>265.0</ele><time>2026-03-29T09:38:55.001Z</time></trkpt><trkpt lat="44.65961072479479" lon="8.803861170629194"><ele>265.0</ele><time>2026-03-29T09:38:56.001Z</time></trkpt><trkpt lat="44.659466252480954" lon="8.8038259104942"><ele>264.75</ele><time>2026-03-29T09:38:57.001Z</time></trkpt><trkpt lat="44.659329933524724" lon="8.803796095878948"><ele>264.5</ele><time>2026-03-29T09:38:58.001Z</time></trkpt><trkpt lat="44.65920061758637" lon="8.803771466502386"><ele>264.25</ele><time>2026-03-29T09:38:59.001Z</time></trkpt><trkpt lat="44.659063055270224" lon="8.803729247126352"><ele>264.0</ele><time>2026-03-29T09:39:00.001Z</time></trkpt><trkpt lat="44.65892170026289" lon="8.803660947745461"><ele>264.0</ele><time>2026-03-29T09:39:01.001Z</time></trkpt><trkpt lat="44.65876717263496" lon="8.803562904416824"><ele>264.0</ele><time>2026-03-29T09:39:02.001Z</time></trkpt><trkpt lat="44.65860179959892" lon="8.803476857572054"><ele>264.0</ele><time>2026-03-29T09:39:03.001Z</time></trkpt><trkpt lat="44.65843108783513" lon="8.803389587487999"><ele>267.0</ele><time>2026-03-29T09:39:04.001Z</time></trkpt><trkpt lat="44.65827659629511" lon="8.80330060521626"><ele>270.0</ele><time>2026-03-29T09:39:05.001Z</time></trkpt><trkpt lat="44.65813078342573" lon="8.803220148961573"><ele>273.0</ele><time>2026-03-29T09:39:06.001Z</time></trkpt><trkpt lat="44.657970654594585" lon="8.803176558797377"><ele>273.0</ele><time>2026-03-29T09:39:07.001Z</time></trkpt><trkpt lat="44.65778873359449" lon="8.803169336544963"><ele>273.0</ele><time>2026-03-29T09:39:08.001Z</time></trkpt><trkpt lat="44.657601746350515" lon="8.803199393624018"><ele>273.0</ele><time>2026-03-29T09:39:09.001Z</time></trkpt><trkpt lat="44.657407815489684" lon="8.803237390652898"><ele>273.6666666666667</ele><time>2026-03-29T09:39:10.001Z</time></trkpt><trkpt lat="44.657213332510004" lon="8.803266194117905"><ele>274.33333333333337</ele><time>2026-03-29T09:39:11.001Z</time></trkpt><trkpt lat="44.657034088084835" lon="8.80329339627089"><ele>275.0</ele><time>2026-03-29T09:39:12.001Z</time></trkpt><trkpt lat="44.65686762679825" lon="8.803325859337834"><ele>275.0</ele><time>2026-03-29T09:39:13.001Z</time></trkpt><trkpt lat="44.65670513551748" lon="8.803359350768226"><ele>275.0</ele><time>2026-03-29T09:39:14.001Z</time></trkpt><trkpt lat="44.65654078344454" lon="8.803387122004587"><ele>275.0</ele><time>2026-03-29T09:39:15.001Z</time></trkpt><trkpt lat="44.656367735192134" lon="8.803402348722376"><ele>275.0</ele><time>2026-03-29T09:39:16.001Z</time></trkpt><trkpt lat="44.65617929944832" lon="8.803394937139608"><ele>275.0</ele><time>2026-03-29T09:39:17.001Z</time></trkpt><trkpt lat="44.6559760266556" lon="8.803367803682098"><ele>275.0</ele><time>2026-03-29T09:39:18.001Z</time></trkpt><trkpt lat="44.65576502401619" lon="8.803341914998294"><ele>274.33333333333337</ele><time>2026-03-29T09:39:19.001Z</time></trkpt><trkpt lat="44.65555049272873" lon="8.803317956211139"><ele>273.6666666666667</ele><time>2026-03-29T09:39:20.001Z</time></trkpt><trkpt lat="44.65534351536261" lon="8.803289467233759"><ele>273.0</ele><time>2026-03-29T09:39:21.001Z</time></trkpt><trkpt lat="44.65515064705551" lon="8.80326088514292"><ele>272.6666666666667</ele><time>2026-03-29T09:39:22.001Z</time></trkpt><trkpt lat="44.65495986579297" lon="8.803238146076039"><ele>272.33333333333337</ele><time>2026-03-29T09:39:23.001Z</time></trkpt><trkpt lat="44.65476493290415" lon="8.803219595084412"><ele>272.0</ele><time>2026-03-29T09:39:24.001Z</time></trkpt><trkpt lat="44.65456643571736" lon="8.803196139531375"><ele>273.0</ele><time>2026-03-29T09:39:25.001Z</time></trkpt><trkpt lat="44.6543655440743" lon="8.803172602582197"><ele>274.0</ele><time>2026-03-29T09:39:26.001Z</time></trkpt><trkpt lat="44.654162623184284" lon="8.80314554760249"><ele>275.0</ele><time>2026-03-29T09:39:27.001Z</time></trkpt><trkpt lat="44.65395895322308" lon="8.803115880735156"><ele>275.0</ele><time>2026-03-29T09:39:28.001Z</time></trkpt><trkpt lat="44.65375506792588" lon="8.803093155419026"><ele>275.0</ele><time>2026-03-29T09:39:29.001Z</time></trkpt><trkpt lat="44.653551691824845" lon="8.803072432928877"><ele>275.0</ele><time>2026-03-29T09:39:30.001Z</time></trkpt><trkpt lat="44.653351300493945" lon="8.80305626951235"><ele>277.33333333333337</ele><time>2026-03-29T09:39:31.001Z</time></trkpt><trkpt lat="44.6531595160758" lon="8.803038088425346"><ele>279.6666666666667</ele><time>2026-03-29T09:39:32.001Z</time></trkpt><trkpt lat="44.65298334390245" lon="8.803017687179192"><ele>282.0</ele><time>2026-03-29T09:39:33.001Z</time></trkpt><trkpt lat="44.65281104325723" lon="8.802994953354608"><ele>282.6666666666667</ele><time>2026-03-29T09:39:34.001Z</time></trkpt><trkpt lat="44.652642079884814" lon="8.802973870327904"><ele>283.33333333333337</ele><time>2026-03-29T09:39:35.001Z</time></trkpt><trkpt lat="44.65247854921949" lon="8.802956852458706"><ele>284.0</ele><time>2026-03-29T09:39:36.001Z</time></trkpt><trkpt lat="44.652317903320004" lon="8.802947602526785"><ele>284.0</ele><time>2026-03-29T09:39:37.001Z</time></trkpt><trkpt lat="44.652154414635774" lon="8.802935249086309"><ele>284.0</ele><time>2026-03-29T09:39:38.001Z</time></trkpt><trkpt lat="44.65199439248591" lon="8.802915800881754"><ele>284.0</ele><time>2026-03-29T09:39:39.001Z</time></trkpt><trkpt lat="44.651855129982515" lon="8.80287561207717"><ele>285.33333333333337</ele><time>2026-03-29T09:39:40.001Z</time></trkpt><trkpt lat="44.65171822819357" lon="8.802807053798606"><ele>286.6666666666667</ele><time>2026-03-29T09:39:41.001Z</time></trkpt><trkpt lat="44.65158132549234" lon="8.802710788977736"><ele>288.0</ele><time>2026-03-29T09:39:42.001Z</time></trkpt><trkpt lat="44.65144622935152" lon="8.802586549370146"><ele>289.25</ele><time>2026-03-29T09:39:43.001Z</time></trkpt><trkpt lat="44.65131371200245" lon="8.802442006507048"><ele>290.5</ele><time>2026-03-29T09:39:44.001Z</time></trkpt><trkpt lat="44.65119279140007" lon="8.802315006324132"><ele>291.75</ele><time>2026-03-29T09:39:45.001Z</time></trkpt><trkpt lat="44.65108808265152" lon="8.802214874535627"><ele>293.0</ele><time>2026-03-29T09:39:46.001Z</time></trkpt><trkpt lat="44.65096050629474" lon="8.802158834345132"><ele>296.0</ele><time>2026-03-29T09:39:47.001Z</time></trkpt><trkpt lat="44.65079501791137" lon="8.802128296254303"><ele>299.0</ele><time>2026-03-29T09:39:48.001Z</time></trkpt><trkpt lat="44.65064089579757" lon="8.802105538467641"><ele>302.0</ele><time>2026-03-29T09:39:49.001Z</time></trkpt><trkpt lat="44.650515163842485" lon="8.802067133680437"><ele>302.0</ele><time>2026-03-29T09:39:50Z</time></trkpt><trkpt lat="44.65041044659512" lon="8.802014294201282"><ele>302.0</ele><time>2026-03-29T09:39:51Z</time></trkpt><trkpt lat="44.65032496482189" lon="8.801935597571793"><ele>302.0</ele><time>2026-03-29T09:39:52Z</time></trkpt><trkpt lat="44.65023322453642" lon="8.801813777815948"><ele>302.0</ele><time>2026-03-29T09:39:53Z</time></trkpt><trkpt lat="44.65013558443681" lon="8.80167540609601"><ele>302.33333333333337</ele><time>2026-03-29T09:39:54Z</time></trkpt><trkpt lat="44.65003291526433" lon="8.801530174192155"><ele>302.6666666666667</ele><time>2026-03-29T09:39:55Z</time></trkpt><trkpt lat="44.64992609322662" lon="8.80137457411305"><ele>303.0</ele><time>2026-03-29T09:39:56Z</time></trkpt><trkpt lat="44.64981149720465" lon="8.801207008812089"><ele>303.0</ele><time>2026-03-29T09:39:57Z</time></trkpt><trkpt lat="44.64969647609948" lon="8.80102917000814"><ele>303.0</ele><time>2026-03-29T09:39:58Z</time></trkpt><trkpt lat="44.64958440373795" lon="8.800848994595434"><ele>303.0</ele><time>2026-03-29T09:39:59Z</time></trkpt><trkpt lat="44.64947784364172" lon="8.80066308450675"><ele>304.3333333333333</ele><time>2026-03-29T09:40:00Z</time></trkpt><trkpt lat="44.64937591696508" lon="8.800469445897688"><ele>305.66666666666663</ele><time>2026-03-29T09:40:01Z</time></trkpt><trkpt lat="44.649289599182076" lon="8.800268283564249"><ele>307.0</ele><time>2026-03-29T09:40:02Z</time></trkpt><trkpt lat="44.64921314228902" lon="8.800088810108326"><ele>307.0</ele><time>2026-03-29T09:40:03Z</time></trkpt><trkpt lat="44.64914502690456" lon="8.799910207908713"><ele>307.0</ele><time>2026-03-29T09:40:04Z</time></trkpt><trkpt lat="44.64909183955374" lon="8.799738204925557"><ele>307.0</ele><time>2026-03-29T09:40:05Z</time></trkpt><trkpt lat="44.64907394444584" lon="8.799528232241386"><ele>307.0</ele><time>2026-03-29T09:40:06Z</time></trkpt><trkpt lat="44.64907874887019" lon="8.79939538159678"><ele>307.75</ele><time>2026-03-29T09:40:07Z</time></trkpt><trkpt lat="44.64909793516882" lon="8.799234703136895"><ele>308.5</ele><time>2026-03-29T09:40:08Z</time></trkpt><trkpt lat="44.649158082766554" lon="8.799079925013013"><ele>309.25</ele><time>2026-03-29T09:40:09Z</time></trkpt><trkpt lat="44.64922185769154" lon="8.798886014131112"><ele>310.0</ele><time>2026-03-29T09:40:10Z</time></trkpt><trkpt lat="44.64926911196737" lon="8.798684119001242"><ele>310.66666666666663</ele><time>2026-03-29T09:40:11Z</time></trkpt><trkpt lat="44.64927362250643" lon="8.798477664358352"><ele>311.3333333333333</ele><time>2026-03-29T09:40:12Z</time></trkpt><trkpt lat="44.649244328692994" lon="8.798262966106305"><ele>312.0</ele><time>2026-03-29T09:40:13Z</time></trkpt><trkpt lat="44.64919732538273" lon="8.798047612929508"><ele>312.0</ele><time>2026-03-29T09:40:14Z</time></trkpt><trkpt lat="44.64912445622681" lon="8.797835320067119"><ele>312.0</ele><time>2026-03-29T09:40:15Z</time></trkpt><trkpt lat="44.6490267537737" lon="8.79762221733656"><ele>312.0</ele><time>2026-03-29T09:40:16Z</time></trkpt><trkpt lat="44.64893499935011" lon="8.797417791234707"><ele>316.0</ele><time>2026-03-29T09:40:17Z</time></trkpt><trkpt lat="44.648849499006886" lon="8.79720344422213"><ele>320.0</ele><time>2026-03-29T09:40:18Z</time></trkpt><trkpt lat="44.64876295258245" lon="8.796982486312913"><ele>324.0</ele><time>2026-03-29T09:40:19Z</time></trkpt><trkpt lat="44.64869034587611" lon="8.796763497900102"><ele>323.0</ele><time>2026-03-29T09:40:20Z</time></trkpt><trkpt lat="44.64861975704131" lon="8.796556750543937"><ele>322.0</ele><time>2026-03-29T09:40:21Z</time></trkpt><trkpt lat="44.648549368701666" lon="8.79635743678403"><ele>321.0</ele><time>2026-03-29T09:40:22Z</time></trkpt><trkpt lat="44.648507839274345" lon="8.796144579399483"><ele>322.25</ele><time>2026-03-29T09:40:23Z</time></trkpt><trkpt lat="44.64845066795138" lon="8.795930851021383"><ele>323.5</ele><time>2026-03-29T09:40:24Z</time></trkpt><trkpt lat="44.64841964404507" lon="8.795735280747316"><ele>324.75</ele><time>2026-03-29T09:40:25Z</time></trkpt><trkpt lat="44.64839043967" lon="8.795560736796205"><ele>326.0</ele><time>2026-03-29T09:40:26Z</time></trkpt><trkpt lat="44.6483626857551" lon="8.795410389527854"><ele>326.0</ele><time>2026-03-29T09:40:27Z</time></trkpt><trkpt lat="44.648335143880296" lon="8.795270224872677"><ele>326.0</ele><time>2026-03-29T09:40:28Z</time></trkpt><trkpt lat="44.64831164358741" lon="8.795146450004077"><ele>326.0</ele><time>2026-03-29T09:40:29Z</time></trkpt><trkpt lat="44.648307317922686" lon="8.795038323086802"><ele>326.0</ele><time>2026-03-29T09:40:30Z</time></trkpt><trkpt lat="44.64826857989709" lon="8.794947000919517"><ele>326.0</ele><time>2026-03-29T09:40:31Z</time></trkpt><trkpt lat="44.64825209572506" lon="8.794842104143047"><ele>326.0</ele><time>2026-03-29T09:40:32Z</time></trkpt><trkpt lat="44.6482067414384" lon="8.794742561204973"><ele>327.4</ele><time>2026-03-29T09:40:33Z</time></trkpt><trkpt lat="44.64816063302806" lon="8.79464676699101"><ele>328.8</ele><time>2026-03-29T09:40:34Z</time></trkpt><trkpt lat="44.648121117256146" lon="8.794549627930088"><ele>330.2</ele><time>2026-03-29T09:40:35Z</time></trkpt><trkpt lat="44.648078586636686" lon="8.794442060169805"><ele>331.59999999999997</ele><time>2026-03-29T09:40:36Z</time></trkpt><trkpt lat="44.648023906906545" lon="8.794302819297695"><ele>333.0</ele><time>2026-03-29T09:40:37Z</time></trkpt><trkpt lat="44.64796405835325" lon="8.794150415824697"><ele>333.25</ele><time>2026-03-29T09:40:38Z</time></trkpt><trkpt lat="44.64790227910843" lon="8.793993095954134"><ele>333.5</ele><time>2026-03-29T09:40:39.001Z</time></trkpt><trkpt lat="44.647835151456995" lon="8.793821762448612"><ele>333.75</ele><time>2026-03-29T09:40:40.001Z</time></trkpt><trkpt lat="44.64776740091008" lon="8.793648788175807"><ele>334.0</ele><time>2026-03-29T09:40:41.001Z</time></trkpt><trkpt lat="44.6476903268214" lon="8.793500821632652"><ele>335.5</ele><time>2026-03-29T09:40:42.001Z</time></trkpt><trkpt lat="44.6476353290982" lon="8.793361857910815"><ele>337.0</ele><time>2026-03-29T09:40:43.001Z</time></trkpt><trkpt lat="44.64757641635344" lon="8.79321599868294"><ele>338.5</ele><time>2026-03-29T09:40:44.001Z</time></trkpt><trkpt lat="44.64751798003785" lon="8.793061433780764"><ele>340.0</ele><time>2026-03-29T09:40:45.001Z</time></trkpt><trkpt lat="44.64745361716665" lon="8.792905303534322"><ele>340.0</ele><time>2026-03-29T09:40:46.001Z</time></trkpt><trkpt lat="44.647387917148954" lon="8.79274426589979"><ele>340.0</ele><time>2026-03-29T09:40:47.001Z</time></trkpt><trkpt lat="44.64731771206948" lon="8.792576404651415"><ele>340.0</ele><time>2026-03-29T09:40:48.001Z</time></trkpt><trkpt lat="44.64724778022755" lon="8.79240722084667"><ele>340.0</ele><time>2026-03-29T09:40:49.001Z</time></trkpt><trkpt lat="44.64718296585875" lon="8.792235311443658"><ele>340.75</ele><time>2026-03-29T09:40:50.001Z</time></trkpt><trkpt lat="44.64712330329438" lon="8.792082986846752"><ele>341.5</ele><time>2026-03-29T09:40:51.001Z</time></trkpt><trkpt lat="44.64706417119858" lon="8.791934815574814"><ele>342.25</ele><time>2026-03-29T09:40:52.001Z</time></trkpt><trkpt lat="44.647006065303515" lon="8.791800803819477"><ele>343.0</ele><time>2026-03-29T09:40:53.001Z</time></trkpt><trkpt lat="44.64695282176891" lon="8.791674945681041"><ele>345.4</ele><time>2026-03-29T09:40:54.001Z</time></trkpt><trkpt lat="44.646908725729105" lon="8.791569596514538"><ele>347.79999999999995</ele><time>2026-03-29T09:40:55.001Z</time></trkpt><trkpt lat="44.646879529487215" lon="8.791443249353314"><ele>350.2</ele><time>2026-03-29T09:40:56.001Z</time></trkpt><trkpt lat="44.646884996467705" lon="8.791299822000305"><ele>352.6</ele><time>2026-03-29T09:40:57.001Z</time></trkpt><trkpt lat="44.646883432917335" lon="8.79113764348473"><ele>355.0</ele><time>2026-03-29T09:40:58.001Z</time></trkpt><trkpt lat="44.64688019474875" lon="8.790986572125046"><ele>355.0</ele><time>2026-03-29T09:40:59.001Z</time></trkpt><trkpt lat="44.64684758443386" lon="8.790812655082103"><ele>355.0</ele><time>2026-03-29T09:41:00.001Z</time></trkpt><trkpt lat="44.64680472329254" lon="8.790668680104385"><ele>355.0</ele><time>2026-03-29T09:41:01.001Z</time></trkpt><trkpt lat="44.646732054220834" lon="8.790527782382188"><ele>355.0</ele><time>2026-03-29T09:41:02.001Z</time></trkpt><trkpt lat="44.64665030916715" lon="8.79039808746016"><ele>355.0</ele><time>2026-03-29T09:41:03.001Z</time></trkpt><trkpt lat="44.64656106625211" lon="8.790282112544933"><ele>355.0</ele><time>2026-03-29T09:41:04.001Z</time></trkpt><trkpt lat="44.64647130167875" lon="8.790170213813376"><ele>355.0</ele><time>2026-03-29T09:41:05.001Z</time></trkpt><trkpt lat="44.64635304949333" lon="8.790113595930148"><ele>355.0</ele><time>2026-03-29T09:41:06.001Z</time></trkpt><trkpt lat="44.64623272035477" lon="8.790030340087903"><ele>355.75</ele><time>2026-03-29T09:41:07.001Z</time></trkpt><trkpt lat="44.64610665373458" lon="8.789964018953318"><ele>356.5</ele><time>2026-03-29T09:41:08.001Z</time></trkpt><trkpt lat="44.645987775271166" lon="8.789890384122712"><ele>357.25</ele><time>2026-03-29T09:41:09.001Z</time></trkpt><trkpt lat="44.64589442467664" lon="8.789816842179814"><ele>358.0</ele><time>2026-03-29T09:41:10.001Z</time></trkpt><trkpt lat="44.64581099181579" lon="8.78973544544207"><ele>358.0</ele><time>2026-03-29T09:41:11.001Z</time></trkpt><trkpt lat="44.64575876169033" lon="8.789619304141842"><ele>358.0</ele><time>2026-03-29T09:41:12.001Z</time></trkpt><trkpt lat="44.645703399826616" lon="8.789480612912831"><ele>358.0</ele><time>2026-03-29T09:41:13.001Z</time></trkpt><trkpt lat="44.64566012068875" lon="8.789331582541994"><ele>358.0</ele><time>2026-03-29T09:41:14.001Z</time></trkpt><trkpt lat="44.64561262699797" lon="8.789180384867336"><ele>358.0</ele><time>2026-03-29T09:41:15.001Z</time></trkpt><trkpt lat="44.64556609543883" lon="8.789042514766074"><ele>357.0</ele><time>2026-03-29T09:41:16.001Z</time></trkpt><trkpt lat="44.64552080813347" lon="8.788934492613572"><ele>356.0</ele><time>2026-03-29T09:41:17.001Z</time></trkpt><trkpt lat="44.64546226070939" lon="8.78883963478532"><ele>355.0</ele><time>2026-03-29T09:41:18.001Z</time></trkpt><trkpt lat="44.64538889400766" lon="8.788734983549482"><ele>354.0</ele><time>2026-03-29T09:41:20.001Z</time></trkpt><trkpt lat="44.64529996870359" lon="8.788747455600223"><ele>353.0</ele><time>2026-03-29T09:41:22.001Z</time></trkpt><trkpt lat="44.645243529295556" lon="8.788796927936662"><ele>352.0</ele><time>2026-03-29T09:41:23.001Z</time></trkpt><trkpt lat="44.645181590715275" lon="8.78888009090643"><ele>354.40000000000003</ele><time>2026-03-29T09:41:24.001Z</time></trkpt><trkpt lat="44.64510875036505" lon="8.788967807449863"><ele>356.8</ele><time>2026-03-29T09:41:25.001Z</time></trkpt><trkpt lat="44.645026565400585" lon="8.789068411148616"><ele>359.2</ele><time>2026-03-29T09:41:26.001Z</time></trkpt><trkpt lat="44.644939245864784" lon="8.789128743949423"><ele>361.6</ele><time>2026-03-29T09:41:27.001Z</time></trkpt><trkpt lat="44.6448498329323" lon="8.789154313788865"><ele>364.0</ele><time>2026-03-29T09:41:28.001Z</time></trkpt><trkpt lat="44.64476466745593" lon="8.789119062762348"><ele>364.0</ele><time>2026-03-29T09:41:29.001Z</time></trkpt><trkpt lat="44.64468590949527" lon="8.789046821090462"><ele>364.0</ele><time>2026-03-29T09:41:30.001Z</time></trkpt><trkpt lat="44.64462041254793" lon="8.788943355379313"><ele>364.0</ele><time>2026-03-29T09:41:31.001Z</time></trkpt><trkpt lat="44.6445749207911" lon="8.78879900127977"><ele>364.0</ele><time>2026-03-29T09:41:32.001Z</time></trkpt><trkpt lat="44.64452663847047" lon="8.788657126138053"><ele>364.0</ele><time>2026-03-29T09:41:33.001Z</time></trkpt><trkpt lat="44.64446855134579" lon="8.788507326810613"><ele>364.5</ele><time>2026-03-29T09:41:34.001Z</time></trkpt><trkpt lat="44.64441615470134" lon="8.788338506647332"><ele>365.0</ele><time>2026-03-29T09:41:35.001Z</time></trkpt><trkpt lat="44.64436148023334" lon="8.788166523547279"><ele>365.5</ele><time>2026-03-29T09:41:36.001Z</time></trkpt><trkpt lat="44.64431766188601" lon="8.788020507242972"><ele>366.0</ele><time>2026-03-29T09:41:37.001Z</time></trkpt><trkpt lat="44.64427401970096" lon="8.787907224650143"><ele>366.0</ele><time>2026-03-29T09:41:38.001Z</time></trkpt><trkpt lat="44.644219678927065" lon="8.78781905330425"><ele>366.0</ele><time>2026-03-29T09:41:39.001Z</time></trkpt><trkpt lat="44.64414445976067" lon="8.78776902014112"><ele>366.0</ele><time>2026-03-29T09:41:40.001Z</time></trkpt><trkpt lat="44.644061520956775" lon="8.787770113137539"><ele>366.0</ele><time>2026-03-29T09:41:41.001Z</time></trkpt><trkpt lat="44.64397866396127" lon="8.787817495604052"><ele>366.0</ele><time>2026-03-29T09:41:42.001Z</time></trkpt><trkpt lat="44.64389655597684" lon="8.78791841656644"><ele>366.0</ele><time>2026-03-29T09:41:43.001Z</time></trkpt><trkpt lat="44.64382122271222" lon="8.788052655618506"><ele>366.0</ele><time>2026-03-29T09:41:44.001Z</time></trkpt><trkpt lat="44.643733437137286" lon="8.78819472822044"><ele>366.0</ele><time>2026-03-29T09:41:45.001Z</time></trkpt><trkpt lat="44.64364064039414" lon="8.788336193865927"><ele>366.0</ele><time>2026-03-29T09:41:46.001Z</time></trkpt><trkpt lat="44.64353696524203" lon="8.78848637863182"><ele>366.0</ele><time>2026-03-29T09:41:47.001Z</time></trkpt><trkpt lat="44.64342824057871" lon="8.788639932770453"><ele>368.75</ele><time>2026-03-29T09:41:48.001Z</time></trkpt><trkpt lat="44.64332397190963" lon="8.788786011341307"><ele>371.5</ele><time>2026-03-29T09:41:49.001Z</time></trkpt><trkpt lat="44.64323248009187" lon="8.788915071944217"><ele>374.25</ele><time>2026-03-29T09:41:50.001Z</time></trkpt><trkpt lat="44.64314166272905" lon="8.789014319266002"><ele>377.0</ele><time>2026-03-29T09:41:51.001Z</time></trkpt><trkpt lat="44.643048026269305" lon="8.789075994473235"><ele>377.0</ele><time>2026-03-29T09:41:52.001Z</time></trkpt><trkpt lat="44.642949489748595" lon="8.789082613372127"><ele>377.0</ele><time>2026-03-29T09:41:53.002Z</time></trkpt><trkpt lat="44.6428535768203" lon="8.789014050865415"><ele>377.0</ele><time>2026-03-29T09:41:54.002Z</time></trkpt><trkpt lat="44.64275132437063" lon="8.788932397172326"><ele>377.0</ele><time>2026-03-29T09:41:55.002Z</time></trkpt><trkpt lat="44.642630007183314" lon="8.788839106217834"><ele>378.33333333333337</ele><time>2026-03-29T09:41:56.001Z</time></trkpt><trkpt lat="44.6424972173996" lon="8.788747086823605"><ele>379.6666666666667</ele><time>2026-03-29T09:41:57.001Z</time></trkpt><trkpt lat="44.64237447857284" lon="8.788606997382336"><ele>381.0</ele><time>2026-03-29T09:41:58.001Z</time></trkpt><trkpt lat="44.64225154085477" lon="8.788479823838664"><ele>380.5</ele><time>2026-03-29T09:41:59.001Z</time></trkpt><trkpt lat="44.642132545671735" lon="8.78834903200863"><ele>380.0</ele><time>2026-03-29T09:42:00.001Z</time></trkpt><trkpt lat="44.6420120296624" lon="8.78823553093341"><ele>379.5</ele><time>2026-03-29T09:42:01.001Z</time></trkpt><trkpt lat="44.64190693809806" lon="8.788108064394523"><ele>379.0</ele><time>2026-03-29T09:42:02.001Z</time></trkpt><trkpt lat="44.64181714618754" lon="8.787976661030287"><ele>379.0</ele><time>2026-03-29T09:42:03.001Z</time></trkpt><trkpt lat="44.6417378537435" lon="8.787838788492161"><ele>379.0</ele><time>2026-03-29T09:42:04.001Z</time></trkpt><trkpt lat="44.64169322769073" lon="8.787682812216763"><ele>379.0</ele><time>2026-03-29T09:42:05.001Z</time></trkpt><trkpt lat="44.64165387153534" lon="8.78751645264499"><ele>379.0</ele><time>2026-03-29T09:42:06.001Z</time></trkpt><trkpt lat="44.641603938817774" lon="8.787362954886976"><ele>378.5</ele><time>2026-03-29T09:42:07.001Z</time></trkpt><trkpt lat="44.641558754987685" lon="8.787235898919358"><ele>378.0</ele><time>2026-03-29T09:42:08.001Z</time></trkpt><trkpt lat="44.64148958137805" lon="8.787126532953298"><ele>377.5</ele><time>2026-03-29T09:42:09.001Z</time></trkpt><trkpt lat="44.641382649512884" lon="8.787053288456418"><ele>377.0</ele><time>2026-03-29T09:42:10.001Z</time></trkpt><trkpt lat="44.64126009419445" lon="8.787000887101746"><ele>379.5</ele><time>2026-03-29T09:42:11.001Z</time></trkpt><trkpt lat="44.64112408112296" lon="8.786951549367853"><ele>382.0</ele><time>2026-03-29T09:42:12.001Z</time></trkpt><trkpt lat="44.64101245568019" lon="8.786857618752435"><ele>384.5</ele><time>2026-03-29T09:42:13.001Z</time></trkpt><trkpt lat="44.640893788718564" lon="8.786773025941773"><ele>387.0</ele><time>2026-03-29T09:42:14.001Z</time></trkpt><trkpt lat="44.64079268389605" lon="8.786628993280644"><ele>387.0</ele><time>2026-03-29T09:42:15.001Z</time></trkpt><trkpt lat="44.64068657555887" lon="8.7865175239125"><ele>387.0</ele><time>2026-03-29T09:42:16.001Z</time></trkpt><trkpt lat="44.64061644034936" lon="8.786392146478798"><ele>387.0</ele><time>2026-03-29T09:42:17.001Z</time></trkpt><trkpt lat="44.64057898247058" lon="8.78626254863842"><ele>387.0</ele><time>2026-03-29T09:42:18.001Z</time></trkpt><trkpt lat="44.6405952518111" lon="8.786109068710322"><ele>385.0</ele><time>2026-03-29T09:42:19.001Z</time></trkpt><trkpt lat="44.640572961321155" lon="8.785952937646242"><ele>383.0</ele><time>2026-03-29T09:42:20.001Z</time></trkpt><trkpt lat="44.6405477627955" lon="8.785826510321298"><ele>381.0</ele><time>2026-03-29T09:42:21.001Z</time></trkpt><trkpt lat="44.64050638325287" lon="8.785735707007461"><ele>379.0</ele><time>2026-03-29T09:42:22.001Z</time></trkpt><trkpt lat="44.64040487698788" lon="8.785735574434252"><ele>377.0</ele><time>2026-03-29T09:42:23.001Z</time></trkpt><trkpt lat="44.640318534905326" lon="8.785768599413917"><ele>379.20000000000005</ele><time>2026-03-29T09:42:24.001Z</time></trkpt><trkpt lat="44.64023412032979" lon="8.785857714705926"><ele>381.4</ele><time>2026-03-29T09:42:25.001Z</time></trkpt><trkpt lat="44.64016451545789" lon="8.7859775947608"><ele>383.6</ele><time>2026-03-29T09:42:26.001Z</time></trkpt><trkpt lat="44.64009238891161" lon="8.78607669861087"><ele>385.79999999999995</ele><time>2026-03-29T09:42:27.001Z</time></trkpt><trkpt lat="44.64001240444985" lon="8.786126311470504"><ele>388.0</ele><time>2026-03-29T09:42:28.001Z</time></trkpt><trkpt lat="44.639929708156465" lon="8.786139513335716"><ele>388.0</ele><time>2026-03-29T09:42:29.001Z</time></trkpt><trkpt lat="44.63984443575743" lon="8.78609372843781"><ele>388.0</ele><time>2026-03-29T09:42:30.001Z</time></trkpt><trkpt lat="44.63976211366612" lon="8.785980905804232"><ele>388.0</ele><time>2026-03-29T09:42:31.001Z</time></trkpt><trkpt lat="44.639667844236264" lon="8.785856424062207"><ele>388.0</ele><time>2026-03-29T09:42:32.001Z</time></trkpt><trkpt lat="44.63954549424761" lon="8.785755777521718"><ele>392.0</ele><time>2026-03-29T09:42:33.001Z</time></trkpt><trkpt lat="44.63943232551844" lon="8.785618010713561"><ele>396.0</ele><time>2026-03-29T09:42:34.001Z</time></trkpt><trkpt lat="44.63930332568295" lon="8.7854954890286"><ele>400.0</ele><time>2026-03-29T09:42:35.001Z</time></trkpt><trkpt lat="44.63919209978542" lon="8.78536690305554"><ele>404.0</ele><time>2026-03-29T09:42:36.001Z</time></trkpt><trkpt lat="44.639103167153024" lon="8.785213298325734"><ele>400.25</ele><time>2026-03-29T09:42:37.001Z</time></trkpt><trkpt lat="44.638998555567056" lon="8.785062844029593"><ele>396.5</ele><time>2026-03-29T09:42:38.001Z</time></trkpt><trkpt lat="44.63888889594956" lon="8.784937213696624"><ele>392.75</ele><time>2026-03-29T09:42:39.001Z</time></trkpt><trkpt lat="44.63881677985875" lon="8.784780514670363"><ele>389.0</ele><time>2026-03-29T09:42:40.001Z</time></trkpt><trkpt lat="44.63875553925067" lon="8.784637427981858"><ele>389.0</ele><time>2026-03-29T09:42:41.001Z</time></trkpt><trkpt lat="44.63870893975779" lon="8.784488781843347"><ele>389.0</ele><time>2026-03-29T09:42:42.001Z</time></trkpt><trkpt lat="44.63867655127572" lon="8.784342747432255"><ele>389.0</ele><time>2026-03-29T09:42:43.001Z</time></trkpt><trkpt lat="44.63867028485533" lon="8.784195557512724"><ele>389.0</ele><time>2026-03-29T09:42:44.001Z</time></trkpt><trkpt lat="44.63867962287244" lon="8.784031038030875"><ele>389.0</ele><time>2026-03-29T09:42:45.001Z</time></trkpt><trkpt lat="44.63873030013341" lon="8.783872310035342"><ele>387.5</ele><time>2026-03-29T09:42:46.001Z</time></trkpt><trkpt lat="44.638797361699545" lon="8.783692880386186"><ele>386.0</ele><time>2026-03-29T09:42:47.001Z</time></trkpt><trkpt lat="44.63887478909" lon="8.783496473038124"><ele>384.5</ele><time>2026-03-29T09:42:48.001Z</time></trkpt><trkpt lat="44.63895679825768" lon="8.783330518373166"><ele>383.0</ele><time>2026-03-29T09:42:49.001Z</time></trkpt><trkpt lat="44.63905172081872" lon="8.783187238113188"><ele>386.5</ele><time>2026-03-29T09:42:50.001Z</time></trkpt><trkpt lat="44.63916115469814" lon="8.783061387479322"><ele>390.0</ele><time>2026-03-29T09:42:51.001Z</time></trkpt><trkpt lat="44.63927028107875" lon="8.782944835057865"><ele>393.5</ele><time>2026-03-29T09:42:52.001Z</time></trkpt><trkpt lat="44.639362808661524" lon="8.78284574742275"><ele>397.0</ele><time>2026-03-29T09:42:53.001Z</time></trkpt><trkpt lat="44.63944831967424" lon="8.78275417405107"><ele>393.0</ele><time>2026-03-29T09:42:54.001Z</time></trkpt><trkpt lat="44.63950911428045" lon="8.782661094010003"><ele>389.0</ele><time>2026-03-29T09:42:55.001Z</time></trkpt><trkpt lat="44.63953809489909" lon="8.782551439728731"><ele>385.0</ele><time>2026-03-29T09:42:56.001Z</time></trkpt><trkpt lat="44.639527114095486" lon="8.782406956572359"><ele>381.0</ele><time>2026-03-29T09:42:57.001Z</time></trkpt><trkpt lat="44.63953051113743" lon="8.782244185179877"><ele>377.0</ele><time>2026-03-29T09:42:58.001Z</time></trkpt><trkpt lat="44.63953507146774" lon="8.782064892594319"><ele>377.0</ele><time>2026-03-29T09:42:59.001Z</time></trkpt><trkpt lat="44.639534466510504" lon="8.781877456207498"><ele>377.0</ele><time>2026-03-29T09:43:00.001Z</time></trkpt><trkpt lat="44.63951432514107" lon="8.781697966645815"><ele>377.0</ele><time>2026-03-29T09:43:01.001Z</time></trkpt><trkpt lat="44.63947640079733" lon="8.78153179431351"><ele>377.0</ele><time>2026-03-29T09:43:02.001Z</time></trkpt><trkpt lat="44.639436086235705" lon="8.781384930054797"><ele>381.0</ele><time>2026-03-29T09:43:03.001Z</time></trkpt><trkpt lat="44.639393073861115" lon="8.781274363854783"><ele>385.0</ele><time>2026-03-29T09:43:04.001Z</time></trkpt><trkpt lat="44.63933958049057" lon="8.781194136543581"><ele>389.0</ele><time>2026-03-29T09:43:05.001Z</time></trkpt><trkpt lat="44.63927985863818" lon="8.781160278068027"><ele>393.0</ele><time>2026-03-29T09:43:06.001Z</time></trkpt><trkpt lat="44.63916448028136" lon="8.78118856082649"><ele>396.99999999999994</ele><time>2026-03-29T09:43:08.001Z</time></trkpt><trkpt lat="44.63910605384518" lon="8.781259111511703"><ele>401.0</ele><time>2026-03-29T09:43:09.001Z</time></trkpt><trkpt lat="44.63904757770111" lon="8.78136263299146"><ele>401.0</ele><time>2026-03-29T09:43:10.001Z</time></trkpt><trkpt lat="44.63897755676247" lon="8.781481837355237"><ele>401.0</ele><time>2026-03-29T09:43:11.001Z</time></trkpt><trkpt lat="44.63890037928451" lon="8.781601014438332"><ele>401.0</ele><time>2026-03-29T09:43:12.001Z</time></trkpt><trkpt lat="44.638825912214315" lon="8.781727552483993"><ele>401.0</ele><time>2026-03-29T09:43:13.001Z</time></trkpt><trkpt lat="44.638757239133994" lon="8.781836823500305"><ele>401.0</ele><time>2026-03-29T09:43:14.001Z</time></trkpt><trkpt lat="44.63868920320576" lon="8.7819391132386"><ele>403.49999999999994</ele><time>2026-03-29T09:43:15.001Z</time></trkpt><trkpt lat="44.638618803808534" lon="8.782032449270934"><ele>406.0</ele><time>2026-03-29T09:43:16.001Z</time></trkpt><trkpt lat="44.638551302635626" lon="8.782096835028725"><ele>408.5</ele><time>2026-03-29T09:43:17.001Z</time></trkpt><trkpt lat="44.638477332198335" lon="8.78213687491031"><ele>411.0</ele><time>2026-03-29T09:43:18.001Z</time></trkpt><trkpt lat="44.63840480061306" lon="8.782133123478044"><ele>413.49999999999994</ele><time>2026-03-29T09:43:19.001Z</time></trkpt><trkpt lat="44.63834016633985" lon="8.782045592118173"><ele>416.0</ele><time>2026-03-29T09:43:20.001Z</time></trkpt><trkpt lat="44.63825489849951" lon="8.781985961738359"><ele>416.0</ele><time>2026-03-29T09:43:21.001Z</time></trkpt><trkpt lat="44.63816113425043" lon="8.781916662156885"><ele>416.0</ele><time>2026-03-29T09:43:22.001Z</time></trkpt><trkpt lat="44.638063254168294" lon="8.781885633112026"><ele>416.0</ele><time>2026-03-29T09:43:23.001Z</time></trkpt><trkpt lat="44.637965259457715" lon="8.781836082844572"><ele>416.0</ele><time>2026-03-29T09:43:24.001Z</time></trkpt><trkpt lat="44.637853499958126" lon="8.78178505795392"><ele>416.0</ele><time>2026-03-29T09:43:25.001Z</time></trkpt><trkpt lat="44.63773523231869" lon="8.781767597586326"><ele>414.20000000000005</ele><time>2026-03-29T09:43:26.001Z</time></trkpt><trkpt lat="44.63762715584146" lon="8.781743702976515"><ele>412.40000000000003</ele><time>2026-03-29T09:43:27.001Z</time></trkpt><trkpt lat="44.63753285088203" lon="8.781718767047286"><ele>410.6</ele><time>2026-03-29T09:43:28.001Z</time></trkpt><trkpt lat="44.63743841886628" lon="8.781683155109285"><ele>408.8</ele><time>2026-03-29T09:43:29.001Z</time></trkpt><trkpt lat="44.637352848316915" lon="8.781637871220807"><ele>407.0</ele><time>2026-03-29T09:43:30.001Z</time></trkpt><trkpt lat="44.63727825756446" lon="8.78158613791527"><ele>407.00000000000006</ele><time>2026-03-29T09:43:31.001Z</time></trkpt><trkpt lat="44.637221812009905" lon="8.781525082574047"><ele>407.0</ele><time>2026-03-29T09:43:32.001Z</time></trkpt><trkpt lat="44.637189056783434" lon="8.78144924548613"><ele>407.0</ele><time>2026-03-29T09:43:33.001Z</time></trkpt><trkpt lat="44.63715897632465" lon="8.781363991009302"><ele>407.0</ele><time>2026-03-29T09:43:34.001Z</time></trkpt><trkpt lat="44.63714190429349" lon="8.781255661770182"><ele>407.0</ele><time>2026-03-29T09:43:35.001Z</time></trkpt><trkpt lat="44.63711979613354" lon="8.781145429710547"><ele>407.00000000000006</ele><time>2026-03-29T09:43:36.001Z</time></trkpt><trkpt lat="44.637083478756026" lon="8.78104702760775"><ele>407.0</ele><time>2026-03-29T09:43:37.001Z</time></trkpt><trkpt lat="44.63702681361754" lon="8.780960751608506"><ele>408.20000000000005</ele><time>2026-03-29T09:43:38.001Z</time></trkpt><trkpt lat="44.63694416760474" lon="8.780881832547179"><ele>409.4</ele><time>2026-03-29T09:43:39.001Z</time></trkpt><trkpt lat="44.63685829748033" lon="8.780790269057155"><ele>410.6</ele><time>2026-03-29T09:43:40.001Z</time></trkpt><trkpt lat="44.6367782889881" lon="8.7806788382092"><ele>411.79999999999995</ele><time>2026-03-29T09:43:41.001Z</time></trkpt><trkpt lat="44.63672367528395" lon="8.780535598976947"><ele>413.0</ele><time>2026-03-29T09:43:42.001Z</time></trkpt><trkpt lat="44.63664193993436" lon="8.78040019986965"><ele>413.0</ele><time>2026-03-29T09:43:43.001Z</time></trkpt><trkpt lat="44.63656903114531" lon="8.780237498900405"><ele>413.0</ele><time>2026-03-29T09:43:44.001Z</time></trkpt><trkpt lat="44.63648563761927" lon="8.78007801168743"><ele>413.0</ele><time>2026-03-29T09:43:45.001Z</time></trkpt><trkpt lat="44.636392899905154" lon="8.779932218870039"><ele>413.0</ele><time>2026-03-29T09:43:46.001Z</time></trkpt><trkpt lat="44.63628915579704" lon="8.77979435805647"><ele>411.75</ele><time>2026-03-29T09:43:47.001Z</time></trkpt><trkpt lat="44.636186615171525" lon="8.779667984482295"><ele>410.5</ele><time>2026-03-29T09:43:48.001Z</time></trkpt><trkpt lat="44.63607845577094" lon="8.779546357894201"><ele>409.25</ele><time>2026-03-29T09:43:49.001Z</time></trkpt><trkpt lat="44.635977016074875" lon="8.779440183259572"><ele>408.0</ele><time>2026-03-29T09:43:50.001Z</time></trkpt><trkpt lat="44.63586868485025" lon="8.779348353561844"><ele>408.0</ele><time>2026-03-29T09:43:51.001Z</time></trkpt><trkpt lat="44.635759497513774" lon="8.779264337859582"><ele>408.0</ele><time>2026-03-29T09:43:52.001Z</time></trkpt><trkpt lat="44.635679401202175" lon="8.779128895745705"><ele>408.0</ele><time>2026-03-29T09:43:53.001Z</time></trkpt><trkpt lat="44.635591335226266" lon="8.778999346111332"><ele>408.0</ele><time>2026-03-29T09:43:54.001Z</time></trkpt><trkpt lat="44.63550079766982" lon="8.778886558606331"><ele>408.0</ele><time>2026-03-29T09:43:55.001Z</time></trkpt><trkpt lat="44.63543125868351" lon="8.778769063322262"><ele>408.0</ele><time>2026-03-29T09:43:56.001Z</time></trkpt><trkpt lat="44.63536328126994" lon="8.778693280160333"><ele>408.0</ele><time>2026-03-29T09:43:57.002Z</time></trkpt><trkpt lat="44.63528070900577" lon="8.778661407934468"><ele>408.0</ele><time>2026-03-29T09:43:58.002Z</time></trkpt><trkpt lat="44.63519552747086" lon="8.77868100830663"><ele>408.0</ele><time>2026-03-29T09:43:59.002Z</time></trkpt><trkpt lat="44.63510899384468" lon="8.778757672915845"><ele>409.75</ele><time>2026-03-29T09:44:00.002Z</time></trkpt><trkpt lat="44.63502169273976" lon="8.778886508739921"><ele>411.5</ele><time>2026-03-29T09:44:01.002Z</time></trkpt><trkpt lat="44.63493343836279" lon="8.77902988551285"><ele>413.25</ele><time>2026-03-29T09:44:02.001Z</time></trkpt><trkpt lat="44.6348398569838" lon="8.779182734971457"><ele>415.0</ele><time>2026-03-29T09:44:03.001Z</time></trkpt><trkpt lat="44.63475068670862" lon="8.779317516622102"><ele>418.0</ele><time>2026-03-29T09:44:04.001Z</time></trkpt><trkpt lat="44.63467769402615" lon="8.779424904181614"><ele>421.0</ele><time>2026-03-29T09:44:05.001Z</time></trkpt><trkpt lat="44.63460200390098" lon="8.779524471608495"><ele>424.0</ele><time>2026-03-29T09:44:06.001Z</time></trkpt><trkpt lat="44.634526936449234" lon="8.779597591505555"><ele>427.0</ele><time>2026-03-29T09:44:07.001Z</time></trkpt><trkpt lat="44.634448090756244" lon="8.779627164318338"><ele>430.0</ele><time>2026-03-29T09:44:08.001Z</time></trkpt><trkpt lat="44.63438030819196" lon="8.779602353338397"><ele>430.2</ele><time>2026-03-29T09:44:09.001Z</time></trkpt><trkpt lat="44.63432071701632" lon="8.779556729380488"><ele>430.4</ele><time>2026-03-29T09:44:10.001Z</time></trkpt><trkpt lat="44.634270518697676" lon="8.77947851627359"><ele>430.6</ele><time>2026-03-29T09:44:11.001Z</time></trkpt><trkpt lat="44.63425767226268" lon="8.779335762511646"><ele>430.8</ele><time>2026-03-29T09:44:12.001Z</time></trkpt><trkpt lat="44.634218647228685" lon="8.77917820154838"><ele>431.0</ele><time>2026-03-29T09:44:13.001Z</time></trkpt><trkpt lat="44.63417642379048" lon="8.77900506662303"><ele>427.5</ele><time>2026-03-29T09:44:14.001Z</time></trkpt><trkpt lat="44.634116037176184" lon="8.77883208935291"><ele>424.0</ele><time>2026-03-29T09:44:15.001Z</time></trkpt><trkpt lat="44.63407056855073" lon="8.778672464904515"><ele>420.5</ele><time>2026-03-29T09:44:16.001Z</time></trkpt><trkpt lat="44.634006495451196" lon="8.77856971422591"><ele>417.0</ele><time>2026-03-29T09:44:17.001Z</time></trkpt><trkpt lat="44.633925422362125" lon="8.778503731008362"><ele>416.75</ele><time>2026-03-29T09:44:18.001Z</time></trkpt><trkpt lat="44.63383081288972" lon="8.77846830329337"><ele>416.5</ele><time>2026-03-29T09:44:19.001Z</time></trkpt><trkpt lat="44.63371234222004" lon="8.778471684954619"><ele>416.25</ele><time>2026-03-29T09:44:20.001Z</time></trkpt><trkpt lat="44.63358020414179" lon="8.778485884511136"><ele>416.0</ele><time>2026-03-29T09:44:21.001Z</time></trkpt><trkpt lat="44.633443948177536" lon="8.778495807160166"><ele>416.0</ele><time>2026-03-29T09:44:22.001Z</time></trkpt><trkpt lat="44.633320180636666" lon="8.778497730584823"><ele>416.0</ele><time>2026-03-29T09:44:23.001Z</time></trkpt><trkpt lat="44.633211181513026" lon="8.778496778338296"><ele>416.0</ele><time>2026-03-29T09:44:24.001Z</time></trkpt><trkpt lat="44.63311490330469" lon="8.778453077794035"><ele>416.0</ele><time>2026-03-29T09:44:25.001Z</time></trkpt><trkpt lat="44.63302666580434" lon="8.778427503822153"><ele>416.0</ele><time>2026-03-29T09:44:26.001Z</time></trkpt><trkpt lat="44.63298992721761" lon="8.778315335990351"><ele>416.0</ele><time>2026-03-29T09:44:27.001Z</time></trkpt><trkpt lat="44.6329608572195" lon="8.778226269484616"><ele>416.0</ele><time>2026-03-29T09:44:28.001Z</time></trkpt><trkpt lat="44.632982028696446" lon="8.77804482613573"><ele>416.0</ele><time>2026-03-29T09:44:30.001Z</time></trkpt><trkpt lat="44.633039160303134" lon="8.77795010893592"><ele>416.0</ele><time>2026-03-29T09:44:31.001Z</time></trkpt><trkpt lat="44.63313279716458" lon="8.777907878334698"><ele>416.0</ele><time>2026-03-29T09:44:32.001Z</time></trkpt><trkpt lat="44.63322463796281" lon="8.777828542897273"><ele>416.0</ele><time>2026-03-29T09:44:33.001Z</time></trkpt><trkpt lat="44.63330166456387" lon="8.77771464458"><ele>416.0</ele><time>2026-03-29T09:44:34.001Z</time></trkpt><trkpt lat="44.6333693430765" lon="8.77758602951498"><ele>416.0</ele><time>2026-03-29T09:44:35.001Z</time></trkpt><trkpt lat="44.63340737361153" lon="8.77743894206676"><ele>416.0</ele><time>2026-03-29T09:44:36.001Z</time></trkpt><trkpt lat="44.63340879451319" lon="8.777292462676627"><ele>416.0</ele><time>2026-03-29T09:44:37.001Z</time></trkpt><trkpt lat="44.633373868906574" lon="8.777154833423749"><ele>416.49999999999994</ele><time>2026-03-29T09:44:38.001Z</time></trkpt><trkpt lat="44.633339924143556" lon="8.77703321319856"><ele>417.0</ele><time>2026-03-29T09:44:39.001Z</time></trkpt><trkpt lat="44.633365511074985" lon="8.776929874250998"><ele>417.5</ele><time>2026-03-29T09:44:40.001Z</time></trkpt><trkpt lat="44.633393106782485" lon="8.77684628530801"><ele>418.0</ele><time>2026-03-29T09:44:41.001Z</time></trkpt><trkpt lat="44.63347406909146" lon="8.776823011686048"><ele>418.49999999999994</ele><time>2026-03-29T09:44:42.001Z</time></trkpt><trkpt lat="44.633560348577056" lon="8.776824642297807"><ele>419.0</ele><time>2026-03-29T09:44:43.001Z</time></trkpt><trkpt lat="44.633678337600074" lon="8.776813653957971"><ele>412.25</ele><time>2026-03-29T09:44:44.001Z</time></trkpt><trkpt lat="44.633797081704046" lon="8.776776848568081"><ele>405.5</ele><time>2026-03-29T09:44:45.001Z</time></trkpt><trkpt lat="44.633913504435924" lon="8.776699340854314"><ele>398.75</ele><time>2026-03-29T09:44:46.001Z</time></trkpt><trkpt lat="44.634010749253" lon="8.776609298000142"><ele>392.0</ele><time>2026-03-29T09:44:47.001Z</time></trkpt><trkpt lat="44.63408443325452" lon="8.77652501624044"><ele>392.0</ele><time>2026-03-29T09:44:48.001Z</time></trkpt><trkpt lat="44.634134024262" lon="8.776447759525494"><ele>392.0</ele><time>2026-03-29T09:44:49.001Z</time></trkpt><trkpt lat="44.63414110251298" lon="8.776316496297902"><ele>392.0</ele><time>2026-03-29T09:44:50.001Z</time></trkpt><trkpt lat="44.634065316956494" lon="8.776171036646033"><ele>392.0</ele><time>2026-03-29T09:44:51.001Z</time></trkpt><trkpt lat="44.63404778582976" lon="8.776020103093316"><ele>392.0</ele><time>2026-03-29T09:44:52.001Z</time></trkpt><trkpt lat="44.63404037093762" lon="8.775876034612438"><ele>392.99999999999994</ele><time>2026-03-29T09:44:53.001Z</time></trkpt><trkpt lat="44.6340765887929" lon="8.775751857563133"><ele>394.0</ele><time>2026-03-29T09:44:54.001Z</time></trkpt><trkpt lat="44.63409465153522" lon="8.775599553001587"><ele>395.0</ele><time>2026-03-29T09:44:55.001Z</time></trkpt><trkpt lat="44.63410249701467" lon="8.775464344397937"><ele>396.0</ele><time>2026-03-29T09:44:56.001Z</time></trkpt><trkpt lat="44.63412632558685" lon="8.775365198760595"><ele>396.99999999999994</ele><time>2026-03-29T09:44:57.001Z</time></trkpt><trkpt lat="44.6341742137759" lon="8.775302474744269"><ele>398.0</ele><time>2026-03-29T09:44:58.001Z</time></trkpt><trkpt lat="44.634245158834865" lon="8.77527021748902"><ele>398.0</ele><time>2026-03-29T09:44:59.001Z</time></trkpt><trkpt lat="44.63435636240158" lon="8.775238943899023"><ele>398.0</ele><time>2026-03-29T09:45:00.001Z</time></trkpt><trkpt lat="44.63447868300383" lon="8.775206990299994"><ele>398.0</ele><time>2026-03-29T09:45:01.001Z</time></trkpt><trkpt lat="44.63458278800948" lon="8.775167632712705"><ele>398.0</ele><time>2026-03-29T09:45:02.001Z</time></trkpt><trkpt lat="44.634679320477055" lon="8.775111940427776"><ele>393.75</ele><time>2026-03-29T09:45:03.001Z</time></trkpt><trkpt lat="44.634772666203574" lon="8.775013816666663"><ele>389.5</ele><time>2026-03-29T09:45:04.001Z</time></trkpt><trkpt lat="44.63486381770704" lon="8.774903660090995"><ele>385.25</ele><time>2026-03-29T09:45:05.001Z</time></trkpt><trkpt lat="44.63495026000093" lon="8.774799420921365"><ele>381.0</ele><time>2026-03-29T09:45:06.001Z</time></trkpt><trkpt lat="44.63502899420899" lon="8.774705924043959"><ele>381.0</ele><time>2026-03-29T09:45:07.001Z</time></trkpt><trkpt lat="44.63510015690973" lon="8.774618166012216"><ele>381.0</ele><time>2026-03-29T09:45:08.001Z</time></trkpt><trkpt lat="44.63514960889496" lon="8.77453377711656"><ele>381.0</ele><time>2026-03-29T09:45:09.001Z</time></trkpt><trkpt lat="44.6351627980421" lon="8.774419079344572"><ele>381.0</ele><time>2026-03-29T09:45:10.001Z</time></trkpt><trkpt lat="44.63510649331751" lon="8.774277367392255"><ele>381.0</ele><time>2026-03-29T09:45:11.001Z</time></trkpt><trkpt lat="44.63498682587681" lon="8.77421028767147"><ele>381.5</ele><time>2026-03-29T09:45:12.001Z</time></trkpt><trkpt lat="44.634887889755724" lon="8.774141091459795"><ele>382.0</ele><time>2026-03-29T09:45:13.001Z</time></trkpt><trkpt lat="44.634806304536646" lon="8.774044128669518"><ele>382.5</ele><time>2026-03-29T09:45:14.001Z</time></trkpt><trkpt lat="44.63474519851498" lon="8.773956889783676"><ele>383.0</ele><time>2026-03-29T09:45:15.001Z</time></trkpt><trkpt lat="44.63472994252841" lon="8.773861021917586"><ele>383.5</ele><time>2026-03-29T09:45:16.001Z</time></trkpt><trkpt lat="44.63475369198229" lon="8.773769194723405"><ele>384.0</ele><time>2026-03-29T09:45:17.001Z</time></trkpt><trkpt lat="44.634801675524386" lon="8.773687089578756"><ele>384.0</ele><time>2026-03-29T09:45:18.001Z</time></trkpt><trkpt lat="44.63487448277108" lon="8.77362730681973"><ele>384.0</ele><time>2026-03-29T09:45:19.001Z</time></trkpt><trkpt lat="44.63497155611755" lon="8.773575442301633"><ele>384.0</ele><time>2026-03-29T09:45:20.001Z</time></trkpt><trkpt lat="44.63508197037464" lon="8.773514360469413"><ele>384.0</ele><time>2026-03-29T09:45:21.001Z</time></trkpt><trkpt lat="44.635197699646966" lon="8.77344656479253"><ele>384.0</ele><time>2026-03-29T09:45:22.001Z</time></trkpt><trkpt lat="44.6353256306559" lon="8.773358416913457"><ele>379.6666666666667</ele><time>2026-03-29T09:45:23.001Z</time></trkpt><trkpt lat="44.6354513265729" lon="8.773229253346356"><ele>375.33333333333337</ele><time>2026-03-29T09:45:24.001Z</time></trkpt><trkpt lat="44.63556201141064" lon="8.773073023157396"><ele>371.0</ele><time>2026-03-29T09:45:25.001Z</time></trkpt><trkpt lat="44.63565425850964" lon="8.772921448222215"><ele>371.0</ele><time>2026-03-29T09:45:26.001Z</time></trkpt><trkpt lat="44.63576009743433" lon="8.772801171020808"><ele>371.0</ele><time>2026-03-29T09:45:27.001Z</time></trkpt><trkpt lat="44.635830645523235" lon="8.772690190248086"><ele>371.0</ele><time>2026-03-29T09:45:28.001Z</time></trkpt><trkpt lat="44.635875395886764" lon="8.772566702863616"><ele>371.0</ele><time>2026-03-29T09:45:29.001Z</time></trkpt><trkpt lat="44.63586685925997" lon="8.772414143401038"><ele>371.0</ele><time>2026-03-29T09:45:30.001Z</time></trkpt><trkpt lat="44.63584183898803" lon="8.772262183205738"><ele>372.75</ele><time>2026-03-29T09:45:31.001Z</time></trkpt><trkpt lat="44.63583073397446" lon="8.772088597350985"><ele>374.5</ele><time>2026-03-29T09:45:32.001Z</time></trkpt><trkpt lat="44.635836627347636" lon="8.771901436477904"><ele>376.25</ele><time>2026-03-29T09:45:33.001Z</time></trkpt><trkpt lat="44.635854317245375" lon="8.771705350281774"><ele>378.0</ele><time>2026-03-29T09:45:34.001Z</time></trkpt><trkpt lat="44.63587748214176" lon="8.771510037383715"><ele>378.0</ele><time>2026-03-29T09:45:35.001Z</time></trkpt><trkpt lat="44.63589019316162" lon="8.771331400075123"><ele>378.0</ele><time>2026-03-29T09:45:36.001Z</time></trkpt><trkpt lat="44.635867801577646" lon="8.771167304144857"><ele>378.0</ele><time>2026-03-29T09:45:37.001Z</time></trkpt><trkpt lat="44.63582859514678" lon="8.770998349070167"><ele>378.0</ele><time>2026-03-29T09:45:38.001Z</time></trkpt><trkpt lat="44.63576973944349" lon="8.770823013240909"><ele>376.5</ele><time>2026-03-29T09:45:39.001Z</time></trkpt><trkpt lat="44.6357046410274" lon="8.770645833891137"><ele>375.0</ele><time>2026-03-29T09:45:40.001Z</time></trkpt><trkpt lat="44.63564458305105" lon="8.770481217152787"><ele>373.5</ele><time>2026-03-29T09:45:41.001Z</time></trkpt><trkpt lat="44.63559618745688" lon="8.770317610083351"><ele>372.0</ele><time>2026-03-29T09:45:42.001Z</time></trkpt><trkpt lat="44.63556977801226" lon="8.770158030444064"><ele>369.75</ele><time>2026-03-29T09:45:43.001Z</time></trkpt><trkpt lat="44.63559465708947" lon="8.769998386990052"><ele>367.5</ele><time>2026-03-29T09:45:44.001Z</time></trkpt><trkpt lat="44.635603394980684" lon="8.769805630596476"><ele>365.25</ele><time>2026-03-29T09:45:45.001Z</time></trkpt><trkpt lat="44.63564010775261" lon="8.769607020153254"><ele>363.0</ele><time>2026-03-29T09:45:46.001Z</time></trkpt><trkpt lat="44.63566854156905" lon="8.769422845543598"><ele>362.2</ele><time>2026-03-29T09:45:47.001Z</time></trkpt><trkpt lat="44.635693572204595" lon="8.769246915742706"><ele>361.4</ele><time>2026-03-29T09:45:48.001Z</time></trkpt><trkpt lat="44.63571210806207" lon="8.76909111451775"><ele>360.59999999999997</ele><time>2026-03-29T09:45:49.001Z</time></trkpt><trkpt lat="44.63570334592551" lon="8.768962947175082"><ele>359.79999999999995</ele><time>2026-03-29T09:45:50.001Z</time></trkpt><trkpt lat="44.63565491787375" lon="8.768878416341462"><ele>359.0</ele><time>2026-03-29T09:45:51.001Z</time></trkpt><trkpt lat="44.635588425236776" lon="8.76883426726042"><ele>359.0</ele><time>2026-03-29T09:45:52.001Z</time></trkpt><trkpt lat="44.63550120700089" lon="8.76883211353429"><ele>359.0</ele><time>2026-03-29T09:45:53.001Z</time></trkpt><trkpt lat="44.63539095931591" lon="8.768881262192426"><ele>359.0</ele><time>2026-03-29T09:45:54.001Z</time></trkpt><trkpt lat="44.635304449564885" lon="8.768903669449656"><ele>359.0</ele><time>2026-03-29T09:45:55.001Z</time></trkpt><trkpt lat="44.63521439053546" lon="8.768886760857153"><ele>359.0</ele><time>2026-03-29T09:45:56.001Z</time></trkpt><trkpt lat="44.63511445988884" lon="8.76886193085006"><ele>359.6666666666667</ele><time>2026-03-29T09:45:57.001Z</time></trkpt><trkpt lat="44.63501745912241" lon="8.768815537989052"><ele>360.33333333333337</ele><time>2026-03-29T09:45:58.001Z</time></trkpt><trkpt lat="44.634936974784345" lon="8.768759038597937"><ele>361.0</ele><time>2026-03-29T09:45:59.001Z</time></trkpt><trkpt lat="44.634863286203036" lon="8.768691081616794"><ele>361.6666666666667</ele><time>2026-03-29T09:46:00.001Z</time></trkpt><trkpt lat="44.634809582430435" lon="8.768600676321151"><ele>362.3333333333333</ele><time>2026-03-29T09:46:01.001Z</time></trkpt><trkpt lat="44.63480975562203" lon="8.768494409463823"><ele>363.0</ele><time>2026-03-29T09:46:02.001Z</time></trkpt><trkpt lat="44.63482392439355" lon="8.768398231234952"><ele>363.0</ele><time>2026-03-29T09:46:03.001Z</time></trkpt><trkpt lat="44.63485110285045" lon="8.768285985825573"><ele>363.0</ele><time>2026-03-29T09:46:04.001Z</time></trkpt><trkpt lat="44.63488847295284" lon="8.768160437468374"><ele>363.0</ele><time>2026-03-29T09:46:05.001Z</time></trkpt><trkpt lat="44.6349558357471" lon="8.768066955377003"><ele>363.0</ele><time>2026-03-29T09:46:06.001Z</time></trkpt><trkpt lat="44.63503072071317" lon="8.767999677521964"><ele>363.0</ele><time>2026-03-29T09:46:07.001Z</time></trkpt><trkpt lat="44.635121894354505" lon="8.767966745972998"><ele>363.0</ele><time>2026-03-29T09:46:08.001Z</time></trkpt><trkpt lat="44.6352268763925" lon="8.767950265822632"><ele>363.0</ele><time>2026-03-29T09:46:09.001Z</time></trkpt><trkpt lat="44.63532853945722" lon="8.76790355262111"><ele>363.0</ele><time>2026-03-29T09:46:10.001Z</time></trkpt><trkpt lat="44.63541479849608" lon="8.76784153955434"><ele>363.0</ele><time>2026-03-29T09:46:11.001Z</time></trkpt><trkpt lat="44.635490429299544" lon="8.76775299976698"><ele>363.0</ele><time>2026-03-29T09:46:12.001Z</time></trkpt><trkpt lat="44.63551261013764" lon="8.767618904743598"><ele>359.0</ele><time>2026-03-29T09:46:13.001Z</time></trkpt><trkpt lat="44.63548539639725" lon="8.767488248187076"><ele>355.0</ele><time>2026-03-29T09:46:14.001Z</time></trkpt><trkpt lat="44.635442317205474" lon="8.767355120892669"><ele>351.0</ele><time>2026-03-29T09:46:15.001Z</time></trkpt><trkpt lat="44.63537544406528" lon="8.767207183603611"><ele>347.0</ele><time>2026-03-29T09:46:16.001Z</time></trkpt><trkpt lat="44.635319328418575" lon="8.767038219012429"><ele>352.75</ele><time>2026-03-29T09:46:17.001Z</time></trkpt><trkpt lat="44.635249969322835" lon="8.766873639769575"><ele>358.5</ele><time>2026-03-29T09:46:18.001Z</time></trkpt><trkpt lat="44.63516609407804" lon="8.766738568613789"><ele>364.25</ele><time>2026-03-29T09:46:19.001Z</time></trkpt><trkpt lat="44.63510607132375" lon="8.766613691395309"><ele>370.0</ele><time>2026-03-29T09:46:20.001Z</time></trkpt><trkpt lat="44.635050965523" lon="8.76650926639083"><ele>370.0</ele><time>2026-03-29T09:46:21.001Z</time></trkpt><trkpt lat="44.63500250845291" lon="8.76641688150737"><ele>370.0</ele><time>2026-03-29T09:46:22.001Z</time></trkpt><trkpt lat="44.6350076255407" lon="8.766310937478005"><ele>370.0</ele><time>2026-03-29T09:46:23.001Z</time></trkpt><trkpt lat="44.63503196758462" lon="8.766216986187755"><ele>370.0</ele><time>2026-03-29T09:46:24.001Z</time></trkpt><trkpt lat="44.6350839534975" lon="8.76613767099647"><ele>370.0</ele><time>2026-03-29T09:46:25.001Z</time></trkpt><trkpt lat="44.635146284636924" lon="8.76604285947589"><ele>370.0</ele><time>2026-03-29T09:46:26.001Z</time></trkpt><trkpt lat="44.63524619713677" lon="8.766005171848233"><ele>367.75</ele><time>2026-03-29T09:46:27.001Z</time></trkpt><trkpt lat="44.63532558665176" lon="8.76591933613369"><ele>365.5</ele><time>2026-03-29T09:46:28.001Z</time></trkpt><trkpt lat="44.63539317734543" lon="8.765787747842023"><ele>363.25</ele><time>2026-03-29T09:46:29.001Z</time></trkpt><trkpt lat="44.635485370394306" lon="8.765655428806191"><ele>361.0</ele><time>2026-03-29T09:46:30.001Z</time></trkpt><trkpt lat="44.63558786589627" lon="8.765513262960914"><ele>361.0</ele><time>2026-03-29T09:46:31.001Z</time></trkpt><trkpt lat="44.63568349420058" lon="8.765385527464876"><ele>361.0</ele><time>2026-03-29T09:46:32.001Z</time></trkpt><trkpt lat="44.635768894691026" lon="8.765267850269442"><ele>361.0</ele><time>2026-03-29T09:46:33.001Z</time></trkpt><trkpt lat="44.63584598492797" lon="8.765157356879854"><ele>361.0</ele><time>2026-03-29T09:46:34.001Z</time></trkpt><trkpt lat="44.63591647345899" lon="8.765057998686586"><ele>361.66666666666663</ele><time>2026-03-29T09:46:35.001Z</time></trkpt><trkpt lat="44.63597957062641" lon="8.764963265156936"><ele>362.3333333333333</ele><time>2026-03-29T09:46:36.001Z</time></trkpt><trkpt lat="44.63603796637469" lon="8.764880935643637"><ele>363.0</ele><time>2026-03-29T09:46:37.001Z</time></trkpt><trkpt lat="44.63603349259603" lon="8.764751314437026"><ele>363.6666666666667</ele><time>2026-03-29T09:46:38.001Z</time></trkpt><trkpt lat="44.636018648324466" lon="8.764638476222677"><ele>364.33333333333337</ele><time>2026-03-29T09:46:39.001Z</time></trkpt><trkpt lat="44.63598161531866" lon="8.764541601689007"><ele>365.0</ele><time>2026-03-29T09:46:40.001Z</time></trkpt><trkpt lat="44.635916509745805" lon="8.76445290014094"><ele>364.0</ele><time>2026-03-29T09:46:41.001Z</time></trkpt><trkpt lat="44.63581780559937" lon="8.764358893303903"><ele>363.0</ele><time>2026-03-29T09:46:42.001Z</time></trkpt><trkpt lat="44.635708378395954" lon="8.76427024097253"><ele>362.0</ele><time>2026-03-29T09:46:43.001Z</time></trkpt><trkpt lat="44.63558821459441" lon="8.764180979505321"><ele>361.0</ele><time>2026-03-29T09:46:44.001Z</time></trkpt><trkpt lat="44.635471305371986" lon="8.764090569734856"><ele>361.0</ele><time>2026-03-29T09:46:45.001Z</time></trkpt><trkpt lat="44.635375067921515" lon="8.764006804527169"><ele>361.0</ele><time>2026-03-29T09:46:46.001Z</time></trkpt><trkpt lat="44.63528833896108" lon="8.763927651913225"><ele>361.0</ele><time>2026-03-29T09:46:47.001Z</time></trkpt><trkpt lat="44.635214514572134" lon="8.763860245843452"><ele>361.0</ele><time>2026-03-29T09:46:48.001Z</time></trkpt><trkpt lat="44.63515349288706" lon="8.763773958212443"><ele>361.0</ele><time>2026-03-29T09:46:49.001Z</time></trkpt><trkpt lat="44.63510366033495" lon="8.76368860010958"><ele>361.5</ele><time>2026-03-29T09:46:50.001Z</time></trkpt><trkpt lat="44.63508193320538" lon="8.763587736396943"><ele>362.0</ele><time>2026-03-29T09:46:51.001Z</time></trkpt><trkpt lat="44.63505014705413" lon="8.763487291479048"><ele>362.5</ele><time>2026-03-29T09:46:52.001Z</time></trkpt><trkpt lat="44.635001639025134" lon="8.763397047659947"><ele>363.0</ele><time>2026-03-29T09:46:53.001Z</time></trkpt><trkpt lat="44.634950434164814" lon="8.763296151471875"><ele>363.5</ele><time>2026-03-29T09:46:54.001Z</time></trkpt><trkpt lat="44.63487002349794" lon="8.763215527249713"><ele>364.0</ele><time>2026-03-29T09:46:55.001Z</time></trkpt><trkpt lat="44.63476886962343" lon="8.76314099072943"><ele>364.0</ele><time>2026-03-29T09:46:56.001Z</time></trkpt><trkpt lat="44.63467213218172" lon="8.763037643183932"><ele>364.0</ele><time>2026-03-29T09:46:57.001Z</time></trkpt><trkpt lat="44.63456354698528" lon="8.762963358648204"><ele>364.0</ele><time>2026-03-29T09:46:58.001Z</time></trkpt><trkpt lat="44.63446260480062" lon="8.762870729128322"><ele>364.0</ele><time>2026-03-29T09:46:59.001Z</time></trkpt><trkpt lat="44.634360536323236" lon="8.762781739655816"><ele>362.79999999999995</ele><time>2026-03-29T09:47:00.001Z</time></trkpt><trkpt lat="44.634261136440855" lon="8.762712020454003"><ele>361.59999999999997</ele><time>2026-03-29T09:47:01.001Z</time></trkpt><trkpt lat="44.63415952158945" lon="8.762657044037388"><ele>360.4</ele><time>2026-03-29T09:47:02.001Z</time></trkpt><trkpt lat="44.634075484034774" lon="8.762578738399343"><ele>359.2</ele><time>2026-03-29T09:47:03.001Z</time></trkpt><trkpt lat="44.634017568615256" lon="8.762492197198478"><ele>358.0</ele><time>2026-03-29T09:47:04.001Z</time></trkpt><trkpt lat="44.63398129460585" lon="8.762406784236513"><ele>358.0</ele><time>2026-03-29T09:47:05.001Z</time></trkpt><trkpt lat="44.6339721450124" lon="8.762303508542953"><ele>358.0</ele><time>2026-03-29T09:47:06.001Z</time></trkpt><trkpt lat="44.63401707238454" lon="8.762179431175904"><ele>358.0</ele><time>2026-03-29T09:47:07.001Z</time></trkpt><trkpt lat="44.63403737676117" lon="8.762034109943317"><ele>358.0</ele><time>2026-03-29T09:47:08.001Z</time></trkpt><trkpt lat="44.63405773870956" lon="8.761913046255037"><ele>358.0</ele><time>2026-03-29T09:47:09.001Z</time></trkpt><trkpt lat="44.63407951231983" lon="8.761808662893944"><ele>358.0</ele><time>2026-03-29T09:47:10.001Z</time></trkpt><trkpt lat="44.634116906375255" lon="8.76170605562621"><ele>358.5</ele><time>2026-03-29T09:47:11.001Z</time></trkpt><trkpt lat="44.63419494874526" lon="8.761670760567913"><ele>359.0</ele><time>2026-03-29T09:47:12.001Z</time></trkpt><trkpt lat="44.63427271193229" lon="8.76162046162575"><ele>359.5</ele><time>2026-03-29T09:47:13.001Z</time></trkpt><trkpt lat="44.634336650056184" lon="8.761559385542286"><ele>360.0</ele><time>2026-03-29T09:47:14.001Z</time></trkpt><trkpt lat="44.63438146966652" lon="8.761455526195038"><ele>360.5</ele><time>2026-03-29T09:47:15.001Z</time></trkpt><trkpt lat="44.63437874519126" lon="8.761301729305572"><ele>361.0</ele><time>2026-03-29T09:47:16.001Z</time></trkpt><trkpt lat="44.63435848274837" lon="8.76115207484851"><ele>362.25</ele><time>2026-03-29T09:47:17.001Z</time></trkpt><trkpt lat="44.63434338355363" lon="8.76096659684373"><ele>363.5</ele><time>2026-03-29T09:47:18.001Z</time></trkpt><trkpt lat="44.63431543682416" lon="8.760780232371618"><ele>364.75</ele><time>2026-03-29T09:47:19.001Z</time></trkpt><trkpt lat="44.63428776724609" lon="8.76059571634863"><ele>366.0</ele><time>2026-03-29T09:47:20.001Z</time></trkpt><trkpt lat="44.63426135941421" lon="8.76041871545006"><ele>366.0</ele><time>2026-03-29T09:47:21.001Z</time></trkpt><trkpt lat="44.63422150803074" lon="8.760243672054887"><ele>366.0</ele><time>2026-03-29T09:47:22.001Z</time></trkpt><trkpt lat="44.634161214110854" lon="8.760082072448364"><ele>366.0</ele><time>2026-03-29T09:47:23.001Z</time></trkpt><trkpt lat="44.634084710987075" lon="8.759909129484107"><ele>366.0</ele><time>2026-03-29T09:47:24.001Z</time></trkpt><trkpt lat="44.63399965872754" lon="8.759725205385521"><ele>365.0</ele><time>2026-03-29T09:47:25.001Z</time></trkpt><trkpt lat="44.63393066450423" lon="8.759567172665616"><ele>364.0</ele><time>2026-03-29T09:47:26.001Z</time></trkpt><trkpt lat="44.63385540006254" lon="8.759431299278619"><ele>363.0</ele><time>2026-03-29T09:47:27.001Z</time></trkpt><trkpt lat="44.63376035635974" lon="8.75934567972862"><ele>362.0</ele><time>2026-03-29T09:47:28.001Z</time></trkpt><trkpt lat="44.63365758401974" lon="8.759279035987458"><ele>363.20000000000005</ele><time>2026-03-29T09:47:29.001Z</time></trkpt><trkpt lat="44.6335493656558" lon="8.759234010336579"><ele>364.4</ele><time>2026-03-29T09:47:30.001Z</time></trkpt><trkpt lat="44.633464192797604" lon="8.759174085773006"><ele>365.6</ele><time>2026-03-29T09:47:31.001Z</time></trkpt><trkpt lat="44.633392794126756" lon="8.7591369217697"><ele>366.79999999999995</ele><time>2026-03-29T09:47:32.001Z</time></trkpt><trkpt lat="44.633312456795814" lon="8.759087128440864"><ele>368.0</ele><time>2026-03-29T09:47:33.001Z</time></trkpt><trkpt lat="44.633248689520165" lon="8.758994996064423"><ele>368.0</ele><time>2026-03-29T09:47:34.001Z</time></trkpt><trkpt lat="44.63321155042381" lon="8.758875811506257"><ele>368.0</ele><time>2026-03-29T09:47:35.001Z</time></trkpt><trkpt lat="44.63318826403922" lon="8.758764671827509"><ele>368.0</ele><time>2026-03-29T09:47:36.001Z</time></trkpt><trkpt lat="44.63318283829153" lon="8.75866223650708"><ele>368.0</ele><time>2026-03-29T09:47:37.001Z</time></trkpt><trkpt lat="44.63319217303269" lon="8.758547888227005"><ele>368.0</ele><time>2026-03-29T09:47:38.001Z</time></trkpt><trkpt lat="44.63326668272407" lon="8.758445215764874"><ele>368.0</ele><time>2026-03-29T09:47:39.001Z</time></trkpt><trkpt lat="44.63333616453572" lon="8.758334100634215"><ele>368.0</ele><time>2026-03-29T09:47:40.001Z</time></trkpt><trkpt lat="44.63342187643707" lon="8.758239990290448"><ele>368.0</ele><time>2026-03-29T09:47:41.001Z</time></trkpt><trkpt lat="44.633512072732444" lon="8.758171214628677"><ele>368.0</ele><time>2026-03-29T09:47:42.001Z</time></trkpt><trkpt lat="44.63362048099501" lon="8.758155275487999"><ele>368.0</ele><time>2026-03-29T09:47:43.001Z</time></trkpt><trkpt lat="44.63374128915954" lon="8.758122830525451"><ele>368.0</ele><time>2026-03-29T09:47:44.001Z</time></trkpt><trkpt lat="44.633851227224966" lon="8.75809665656365"><ele>366.0</ele><time>2026-03-29T09:47:45.001Z</time></trkpt><trkpt lat="44.63395751679205" lon="8.758027835701716"><ele>364.0</ele><time>2026-03-29T09:47:46.001Z</time></trkpt><trkpt lat="44.6340705980686" lon="8.757930016278412"><ele>362.0</ele><time>2026-03-29T09:47:47.001Z</time></trkpt><trkpt lat="44.634184114501124" lon="8.757847287818505"><ele>360.0</ele><time>2026-03-29T09:47:48.001Z</time></trkpt><trkpt lat="44.63428226087307" lon="8.757768321696698"><ele>359.8</ele><time>2026-03-29T09:47:49.001Z</time></trkpt><trkpt lat="44.634370458444074" lon="8.757700006727507"><ele>359.6</ele><time>2026-03-29T09:47:50.001Z</time></trkpt><trkpt lat="44.63445203423405" lon="8.757630236676778"><ele>359.4</ele><time>2026-03-29T09:47:51.001Z</time></trkpt><trkpt lat="44.63453249217089" lon="8.75756005803606"><ele>359.2</ele><time>2026-03-29T09:47:52.001Z</time></trkpt><trkpt lat="44.63461583065099" lon="8.757502553320307"><ele>359.0</ele><time>2026-03-29T09:47:53.001Z</time></trkpt><trkpt lat="44.63472396945511" lon="8.757468496596948"><ele>359.0</ele><time>2026-03-29T09:47:54.001Z</time></trkpt><trkpt lat="44.63484899135022" lon="8.757451543188417"><ele>359.0</ele><time>2026-03-29T09:47:55.001Z</time></trkpt><trkpt lat="44.63496130480373" lon="8.757389714209665"><ele>359.0</ele><time>2026-03-29T09:47:56.001Z</time></trkpt><trkpt lat="44.63506733901939" lon="8.757349950651651"><ele>359.0</ele><time>2026-03-29T09:47:57.001Z</time></trkpt><trkpt lat="44.63517387133411" lon="8.757288507259583"><ele>359.0</ele><time>2026-03-29T09:47:58.001Z</time></trkpt><trkpt lat="44.63527651890725" lon="8.757233385309886"><ele>359.0</ele><time>2026-03-29T09:47:59.001Z</time></trkpt><trkpt lat="44.635376205003105" lon="8.75722198300216"><ele>359.0</ele><time>2026-03-29T09:48:00.001Z</time></trkpt><trkpt lat="44.63547071200603" lon="8.75726001530588"><ele>359.0</ele><time>2026-03-29T09:48:01.001Z</time></trkpt><trkpt lat="44.6355695850701" lon="8.75729032108418"><ele>359.0</ele><time>2026-03-29T09:48:02.001Z</time></trkpt><trkpt lat="44.63566296272387" lon="8.757330032842635"><ele>358.6</ele><time>2026-03-29T09:48:03.001Z</time></trkpt><trkpt lat="44.63577063098427" lon="8.757357700067594"><ele>358.2</ele><time>2026-03-29T09:48:04.001Z</time></trkpt><trkpt lat="44.635874839436404" lon="8.75738941259633"><ele>357.8</ele><time>2026-03-29T09:48:05.001Z</time></trkpt><trkpt lat="44.63597259706294" lon="8.757429928710563"><ele>357.40000000000003</ele><time>2026-03-29T09:48:06.001Z</time></trkpt><trkpt lat="44.636066024984096" lon="8.757435914633662"><ele>357.0</ele><time>2026-03-29T09:48:07.001Z</time></trkpt><trkpt lat="44.63616445009307" lon="8.757407911460358"><ele>357.0</ele><time>2026-03-29T09:48:08.001Z</time></trkpt><trkpt lat="44.63627116922096" lon="8.757361759915469"><ele>357.0</ele><time>2026-03-29T09:48:09.001Z</time></trkpt><trkpt lat="44.636399918370564" lon="8.757327597894236"><ele>357.0</ele><time>2026-03-29T09:48:10.001Z</time></trkpt><trkpt lat="44.6365270255554" lon="8.757271245023807"><ele>357.0</ele><time>2026-03-29T09:48:11.001Z</time></trkpt><trkpt lat="44.636654213459174" lon="8.757217991484817"><ele>357.0</ele><time>2026-03-29T09:48:12.001Z</time></trkpt><trkpt lat="44.63676659207473" lon="8.757179090736305"><ele>357.0</ele><time>2026-03-29T09:48:13.001Z</time></trkpt><trkpt lat="44.63686106130159" lon="8.757125689048237"><ele>357.0</ele><time>2026-03-29T09:48:14.001Z</time></trkpt><trkpt lat="44.63695748853882" lon="8.757053678418949"><ele>357.0</ele><time>2026-03-29T09:48:15.001Z</time></trkpt><trkpt lat="44.63704397640825" lon="8.75698337342118"><ele>357.0</ele><time>2026-03-29T09:48:16.001Z</time></trkpt><trkpt lat="44.637116829597" lon="8.756924152591258"><ele>358.0</ele><time>2026-03-29T09:48:17.001Z</time></trkpt><trkpt lat="44.6371767694486" lon="8.756847343130298"><ele>359.0</ele><time>2026-03-29T09:48:18.001Z</time></trkpt><trkpt lat="44.63724488388375" lon="8.756797520976694"><ele>360.0</ele><time>2026-03-29T09:48:19.001Z</time></trkpt><trkpt lat="44.63733819238688" lon="8.756708841311022"><ele>361.0</ele><time>2026-03-29T09:48:21.001Z</time></trkpt><trkpt lat="44.63742455966591" lon="8.756662049549375"><ele>362.0</ele><time>2026-03-29T09:48:23.001Z</time></trkpt><trkpt lat="44.63741364701294" lon="8.756429929457008"><ele>362.0</ele><time>2026-03-29T09:48:26.001Z</time></trkpt><trkpt lat="44.63748827981053" lon="8.756250588611195"><ele>362.0</ele><time>2026-03-29T09:48:28Z</time></trkpt><trkpt lat="44.63754091784436" lon="8.756123272273717"><ele>362.0</ele><time>2026-03-29T09:48:29Z</time></trkpt><trkpt lat="44.63758401575926" lon="8.75599747958287"><ele>362.0</ele><time>2026-03-29T09:48:30Z</time></trkpt><trkpt lat="44.63761041222048" lon="8.75585097325447"><ele>361.75</ele><time>2026-03-29T09:48:31Z</time></trkpt><trkpt lat="44.637586332061296" lon="8.755688929195774"><ele>361.5</ele><time>2026-03-29T09:48:32Z</time></trkpt><trkpt lat="44.63755682320658" lon="8.755531636433417"><ele>361.25</ele><time>2026-03-29T09:48:33Z</time></trkpt><trkpt lat="44.63754160784613" lon="8.755359627780484"><ele>361.0</ele><time>2026-03-29T09:48:34Z</time></trkpt><trkpt lat="44.63751039190173" lon="8.755208747383916"><ele>359.8</ele><time>2026-03-29T09:48:35Z</time></trkpt><trkpt lat="44.63747380159799" lon="8.755071443776409"><ele>358.6</ele><time>2026-03-29T09:48:36Z</time></trkpt><trkpt lat="44.63742103308748" lon="8.754955035290994"><ele>357.4</ele><time>2026-03-29T09:48:37Z</time></trkpt><trkpt lat="44.63738513984127" lon="8.754828757882594"><ele>356.2</ele><time>2026-03-29T09:48:38Z</time></trkpt><trkpt lat="44.63736896882855" lon="8.754695305432938"><ele>355.0</ele><time>2026-03-29T09:48:39Z</time></trkpt><trkpt lat="44.63738644563931" lon="8.754593494635168"><ele>355.0</ele><time>2026-03-29T09:48:40Z</time></trkpt><trkpt lat="44.63744124883372" lon="8.754513993129235"><ele>355.0</ele><time>2026-03-29T09:48:41Z</time></trkpt><trkpt lat="44.637542340773834" lon="8.754499779308325"><ele>355.0</ele><time>2026-03-29T09:48:42Z</time></trkpt><trkpt lat="44.63764322075868" lon="8.75442822443405"><ele>355.0</ele><time>2026-03-29T09:48:43Z</time></trkpt><trkpt lat="44.63773827345535" lon="8.754377963066366"><ele>355.0</ele><time>2026-03-29T09:48:44Z</time></trkpt><trkpt lat="44.63780666754055" lon="8.75429226128545"><ele>357.0</ele><time>2026-03-29T09:48:45Z</time></trkpt><trkpt lat="44.637855001024256" lon="8.754172122784032"><ele>359.0</ele><time>2026-03-29T09:48:46Z</time></trkpt><trkpt lat="44.637874594408956" lon="8.754028500235782"><ele>361.0</ele><time>2026-03-29T09:48:47Z</time></trkpt><trkpt lat="44.637865701456626" lon="8.753855105028723"><ele>363.0</ele><time>2026-03-29T09:48:48Z</time></trkpt><trkpt lat="44.63783903899688" lon="8.753663179673524"><ele>362.0</ele><time>2026-03-29T09:48:49Z</time></trkpt><trkpt lat="44.63780513661166" lon="8.753467132935018"><ele>361.0</ele><time>2026-03-29T09:48:50Z</time></trkpt><trkpt lat="44.6377590891684" lon="8.75328348078972"><ele>360.0</ele><time>2026-03-29T09:48:51Z</time></trkpt><trkpt lat="44.637692477987834" lon="8.753115486105578"><ele>359.0</ele><time>2026-03-29T09:48:52Z</time></trkpt><trkpt lat="44.63765137305657" lon="8.752951034115682"><ele>355.4</ele><time>2026-03-29T09:48:53Z</time></trkpt><trkpt lat="44.63761673196344" lon="8.75279456044432"><ele>351.79999999999995</ele><time>2026-03-29T09:48:54Z</time></trkpt><trkpt lat="44.63760822355707" lon="8.752641669257828"><ele>348.20000000000005</ele><time>2026-03-29T09:48:55Z</time></trkpt><trkpt lat="44.63764528989168" lon="8.752494711665507"><ele>344.6</ele><time>2026-03-29T09:48:56Z</time></trkpt><trkpt lat="44.63769884547927" lon="8.752363785512747"><ele>341.0</ele><time>2026-03-29T09:48:57Z</time></trkpt><trkpt lat="44.63774582873601" lon="8.752214181094018"><ele>340.75</ele><time>2026-03-29T09:48:58Z</time></trkpt><trkpt lat="44.63778806015223" lon="8.752061187511622"><ele>340.5</ele><time>2026-03-29T09:48:59Z</time></trkpt><trkpt lat="44.6378081841308" lon="8.751894695562928"><ele>340.25</ele><time>2026-03-29T09:49:00Z</time></trkpt><trkpt lat="44.637840989498166" lon="8.751737643286257"><ele>340.0</ele><time>2026-03-29T09:49:01Z</time></trkpt><trkpt lat="44.63787177024001" lon="8.751584165680569"><ele>342.0</ele><time>2026-03-29T09:49:02Z</time></trkpt><trkpt lat="44.63787411548329" lon="8.751428512192785"><ele>344.0</ele><time>2026-03-29T09:49:03Z</time></trkpt><trkpt lat="44.63785573658679" lon="8.751264344893215"><ele>346.0</ele><time>2026-03-29T09:49:04Z</time></trkpt><trkpt lat="44.63781767533701" lon="8.75108741621023"><ele>348.0</ele><time>2026-03-29T09:49:05Z</time></trkpt><trkpt lat="44.63777524277648" lon="8.750908398769589"><ele>341.3333333333333</ele><time>2026-03-29T09:49:06Z</time></trkpt><trkpt lat="44.63772275393762" lon="8.750711702591222"><ele>334.66666666666663</ele><time>2026-03-29T09:49:07Z</time></trkpt><trkpt lat="44.63767033067395" lon="8.750509614951163"><ele>328.0</ele><time>2026-03-29T09:49:08Z</time></trkpt><trkpt lat="44.63762434702684" lon="8.750311830700895"><ele>327.0</ele><time>2026-03-29T09:49:09Z</time></trkpt><trkpt lat="44.637606472582476" lon="8.750117622650256"><ele>326.0</ele><time>2026-03-29T09:49:10Z</time></trkpt><trkpt lat="44.637559048771024" lon="8.749910468366425"><ele>325.0</ele><time>2026-03-29T09:49:11.001Z</time></trkpt><trkpt lat="44.637517980113444" lon="8.749697688879433"><ele>325.0</ele><time>2026-03-29T09:49:12.001Z</time></trkpt><trkpt lat="44.63747951643697" lon="8.749467163653762"><ele>325.0</ele><time>2026-03-29T09:49:13.001Z</time></trkpt><trkpt lat="44.63743494108779" lon="8.749231037122952"><ele>325.0</ele><time>2026-03-29T09:49:14.001Z</time></trkpt><trkpt lat="44.637384742487576" lon="8.748994861835913"><ele>324.3333333333333</ele><time>2026-03-29T09:49:15.001Z</time></trkpt><trkpt lat="44.637337092832766" lon="8.748754505077804"><ele>323.6666666666667</ele><time>2026-03-29T09:49:16.001Z</time></trkpt><trkpt lat="44.63728658574722" lon="8.748516489568821"><ele>323.0</ele><time>2026-03-29T09:49:17.001Z</time></trkpt><trkpt lat="44.63723004832522" lon="8.748282301074394"><ele>322.0</ele><time>2026-03-29T09:49:18.001Z</time></trkpt><trkpt lat="44.63717699527172" lon="8.748052279458816"><ele>321.0</ele><time>2026-03-29T09:49:19.001Z</time></trkpt><trkpt lat="44.6371260887321" lon="8.747829093970426"><ele>320.0</ele><time>2026-03-29T09:49:20.001Z</time></trkpt><trkpt lat="44.6370739893361" lon="8.74761577797942"><ele>320.0</ele><time>2026-03-29T09:49:21.001Z</time></trkpt><trkpt lat="44.63701695508028" lon="8.747407226548964"><ele>320.0</ele><time>2026-03-29T09:49:22.001Z</time></trkpt><trkpt lat="44.636954692913434" lon="8.747190611333172"><ele>320.0</ele><time>2026-03-29T09:49:23.001Z</time></trkpt><trkpt lat="44.63691090305656" lon="8.74696186769039"><ele>318.6666666666667</ele><time>2026-03-29T09:49:24.001Z</time></trkpt><trkpt lat="44.63685870131995" lon="8.746745808424167"><ele>317.3333333333333</ele><time>2026-03-29T09:49:25.001Z</time></trkpt><trkpt lat="44.63680302661797" lon="8.746507594531257"><ele>316.0</ele><time>2026-03-29T09:49:26.001Z</time></trkpt><trkpt lat="44.63672276252365" lon="8.746253862869692"><ele>315.3333333333333</ele><time>2026-03-29T09:49:27.001Z</time></trkpt><trkpt lat="44.636662550154604" lon="8.745980158663816"><ele>314.6666666666667</ele><time>2026-03-29T09:49:28.001Z</time></trkpt><trkpt lat="44.63660619147631" lon="8.745708158567226"><ele>314.0</ele><time>2026-03-29T09:49:29.001Z</time></trkpt><trkpt lat="44.63654886583649" lon="8.745443122562387"><ele>313.6666666666667</ele><time>2026-03-29T09:49:30.001Z</time></trkpt><trkpt lat="44.63650908989925" lon="8.745163357905364"><ele>313.3333333333333</ele><time>2026-03-29T09:49:31.001Z</time></trkpt><trkpt lat="44.63645771983365" lon="8.744920357301348"><ele>313.0</ele><time>2026-03-29T09:49:32.001Z</time></trkpt><trkpt lat="44.63640864965138" lon="8.744689192723357"><ele>313.0</ele><time>2026-03-29T09:49:33.001Z</time></trkpt><trkpt lat="44.636362431968585" lon="8.74448022686098"><ele>313.0</ele><time>2026-03-29T09:49:34.001Z</time></trkpt><trkpt lat="44.636310784442706" lon="8.744283989723314"><ele>313.0</ele><time>2026-03-29T09:49:35.001Z</time></trkpt><trkpt lat="44.636250317111084" lon="8.744108175291224"><ele>313.0</ele><time>2026-03-29T09:49:36.001Z</time></trkpt><trkpt lat="44.636170703155464" lon="8.74395029993347"><ele>313.0</ele><time>2026-03-29T09:49:37.001Z</time></trkpt><trkpt lat="44.63609080450142" lon="8.743803105758507"><ele>313.0</ele><time>2026-03-29T09:49:38.001Z</time></trkpt><trkpt lat="44.63604004955863" lon="8.743673886520295"><ele>313.0</ele><time>2026-03-29T09:49:39.001Z</time></trkpt><trkpt lat="44.635977572009324" lon="8.743551858391339"><ele>313.0</ele><time>2026-03-29T09:49:40.001Z</time></trkpt><trkpt lat="44.63590963732776" lon="8.743404996612052"><ele>313.0</ele><time>2026-03-29T09:49:41.001Z</time></trkpt><trkpt lat="44.6358424858898" lon="8.743230539410199"><ele>313.0</ele><time>2026-03-29T09:49:42.001Z</time></trkpt><trkpt lat="44.63578954953354" lon="8.743030795685405"><ele>313.0</ele><time>2026-03-29T09:49:43.001Z</time></trkpt><trkpt lat="44.63575671821806" lon="8.742804098993306"><ele>312.66666666666663</ele><time>2026-03-29T09:49:44.001Z</time></trkpt><trkpt lat="44.63572535878509" lon="8.742536909716584"><ele>312.3333333333333</ele><time>2026-03-29T09:49:45.001Z</time></trkpt><trkpt lat="44.63568113944326" lon="8.742276737015152"><ele>312.0</ele><time>2026-03-29T09:49:46.001Z</time></trkpt><trkpt lat="44.635651823290175" lon="8.742033853935785"><ele>312.0</ele><time>2026-03-29T09:49:47.001Z</time></trkpt><trkpt lat="44.635629196311655" lon="8.74181637982764"><ele>312.0</ele><time>2026-03-29T09:49:48.001Z</time></trkpt><trkpt lat="44.6356384406717" lon="8.741602618723112"><ele>312.0</ele><time>2026-03-29T09:49:49.001Z</time></trkpt><trkpt lat="44.635656008000424" lon="8.741369440798838"><ele>312.0</ele><time>2026-03-29T09:49:50.001Z</time></trkpt><trkpt lat="44.63569782907508" lon="8.741136029716735"><ele>312.0</ele><time>2026-03-29T09:49:51.001Z</time></trkpt><trkpt lat="44.635741582856575" lon="8.740875709661342"><ele>312.0</ele><time>2026-03-29T09:49:52.001Z</time></trkpt><trkpt lat="44.63578476655094" lon="8.740615482844131"><ele>311.6666666666667</ele><time>2026-03-29T09:49:53.001Z</time></trkpt><trkpt lat="44.63582562029322" lon="8.740362891042436"><ele>311.33333333333337</ele><time>2026-03-29T09:49:54.001Z</time></trkpt><trkpt lat="44.63586450912175" lon="8.740122447785867"><ele>311.0</ele><time>2026-03-29T09:49:55.001Z</time></trkpt><trkpt lat="44.63590080670764" lon="8.739904327749551"><ele>310.6666666666667</ele><time>2026-03-29T09:49:56.001Z</time></trkpt><trkpt lat="44.635945103743474" lon="8.739684053224467"><ele>310.3333333333333</ele><time>2026-03-29T09:49:57.001Z</time></trkpt><trkpt lat="44.63600607639718" lon="8.739466546157745"><ele>310.0</ele><time>2026-03-29T09:49:58.001Z</time></trkpt><trkpt lat="44.63609041162952" lon="8.739256817566885"><ele>311.0</ele><time>2026-03-29T09:49:59.001Z</time></trkpt><trkpt lat="44.636188966722756" lon="8.739032968986576"><ele>312.0</ele><time>2026-03-29T09:50:00.001Z</time></trkpt><trkpt lat="44.6362779256893" lon="8.738824513328353"><ele>313.0</ele><time>2026-03-29T09:50:01.001Z</time></trkpt><trkpt lat="44.63635878909393" lon="8.738629971713216"><ele>312.25</ele><time>2026-03-29T09:50:02.001Z</time></trkpt><trkpt lat="44.63642287754605" lon="8.738436111572616"><ele>311.5</ele><time>2026-03-29T09:50:03.001Z</time></trkpt><trkpt lat="44.63644207205358" lon="8.738239600435215"><ele>310.75</ele><time>2026-03-29T09:50:04.001Z</time></trkpt><trkpt lat="44.63644738960897" lon="8.73806243149343"><ele>310.0</ele><time>2026-03-29T09:50:05.001Z</time></trkpt><trkpt lat="44.63642172835752" lon="8.737875366803815"><ele>310.3333333333333</ele><time>2026-03-29T09:50:06.001Z</time></trkpt><trkpt lat="44.63637875808091" lon="8.73767084304343"><ele>310.6666666666667</ele><time>2026-03-29T09:50:07.001Z</time></trkpt><trkpt lat="44.63631553977058" lon="8.737462899789632"><ele>311.0</ele><time>2026-03-29T09:50:08.001Z</time></trkpt><trkpt lat="44.63627994352443" lon="8.737239631098424"><ele>311.0</ele><time>2026-03-29T09:50:09.001Z</time></trkpt><trkpt lat="44.63622808208592" lon="8.737014386955886"><ele>311.0</ele><time>2026-03-29T09:50:10.001Z</time></trkpt><trkpt lat="44.63618026898915" lon="8.736806724992194"><ele>311.0</ele><time>2026-03-29T09:50:11.001Z</time></trkpt><trkpt lat="44.63613867484803" lon="8.736611807790254"><ele>309.33333333333337</ele><time>2026-03-29T09:50:12.001Z</time></trkpt><trkpt lat="44.636097001334555" lon="8.73640475308625"><ele>307.6666666666667</ele><time>2026-03-29T09:50:13.001Z</time></trkpt><trkpt lat="44.63606690482818" lon="8.736198776658483"><ele>306.0</ele><time>2026-03-29T09:50:14.001Z</time></trkpt><trkpt lat="44.63604820254395" lon="8.735983770011789"><ele>305.6666666666667</ele><time>2026-03-29T09:50:15.001Z</time></trkpt><trkpt lat="44.63603864997516" lon="8.735749401524181"><ele>305.33333333333337</ele><time>2026-03-29T09:50:16.001Z</time></trkpt><trkpt lat="44.636030565678766" lon="8.735511310951612"><ele>305.0</ele><time>2026-03-29T09:50:17.001Z</time></trkpt><trkpt lat="44.63601803802059" lon="8.735273679563031"><ele>305.33333333333337</ele><time>2026-03-29T09:50:18.001Z</time></trkpt><trkpt lat="44.635972669674935" lon="8.735031932126383"><ele>305.6666666666667</ele><time>2026-03-29T09:50:19.001Z</time></trkpt><trkpt lat="44.635900518072724" lon="8.734797915525204"><ele>306.0</ele><time>2026-03-29T09:50:20Z</time></trkpt><trkpt lat="44.63581390953747" lon="8.734576118767874"><ele>306.6666666666667</ele><time>2026-03-29T09:50:21Z</time></trkpt><trkpt lat="44.6357344597734" lon="8.73435373647909"><ele>307.33333333333337</ele><time>2026-03-29T09:50:22Z</time></trkpt><trkpt lat="44.635661362189055" lon="8.73413712086211"><ele>308.0</ele><time>2026-03-29T09:50:23Z</time></trkpt><trkpt lat="44.635595556737286" lon="8.73392582521573"><ele>308.0</ele><time>2026-03-29T09:50:24Z</time></trkpt><trkpt lat="44.635568010496435" lon="8.733690052393586"><ele>308.0</ele><time>2026-03-29T09:50:25Z</time></trkpt><trkpt lat="44.6355316117835" lon="8.73345116972586"><ele>308.0</ele><time>2026-03-29T09:50:26Z</time></trkpt><trkpt lat="44.635500072568924" lon="8.733216637247148"><ele>308.33333333333337</ele><time>2026-03-29T09:50:27Z</time></trkpt><trkpt lat="44.635467183865266" lon="8.7329789842202"><ele>308.6666666666667</ele><time>2026-03-29T09:50:28Z</time></trkpt><trkpt lat="44.6354347791189" lon="8.732747501176773"><ele>309.0</ele><time>2026-03-29T09:50:29Z</time></trkpt><trkpt lat="44.635404027886686" lon="8.732527830403498"><ele>310.75</ele><time>2026-03-29T09:50:30Z</time></trkpt><trkpt lat="44.635376964346946" lon="8.732334502369183"><ele>312.5</ele><time>2026-03-29T09:50:31Z</time></trkpt><trkpt lat="44.6353504321271" lon="8.732161486698606"><ele>314.25</ele><time>2026-03-29T09:50:32Z</time></trkpt><trkpt lat="44.635307826269646" lon="8.732001069466959"><ele>316.0</ele><time>2026-03-29T09:50:33Z</time></trkpt><trkpt lat="44.635273519722865" lon="8.731867421950152"><ele>316.0</ele><time>2026-03-29T09:50:34Z</time></trkpt><trkpt lat="44.6352420740555" lon="8.731742920173321"><ele>316.0</ele><time>2026-03-29T09:50:35Z</time></trkpt><trkpt lat="44.635186771267556" lon="8.731648747293551"><ele>316.0</ele><time>2026-03-29T09:50:36Z</time></trkpt><trkpt lat="44.63508606026001" lon="8.731589766765527"><ele>316.0</ele><time>2026-03-29T09:50:37Z</time></trkpt><trkpt lat="44.63498944470129" lon="8.731538084695858"><ele>316.0</ele><time>2026-03-29T09:50:38Z</time></trkpt><trkpt lat="44.634892504629754" lon="8.731494478480315"><ele>316.0</ele><time>2026-03-29T09:50:39Z</time></trkpt><trkpt lat="44.63478066260229" lon="8.731451358912503"><ele>316.0</ele><time>2026-03-29T09:50:40Z</time></trkpt><trkpt lat="44.63466385499771" lon="8.731410005200399"><ele>316.0</ele><time>2026-03-29T09:50:41Z</time></trkpt><trkpt lat="44.63455123863829" lon="8.731364459999043"><ele>316.0</ele><time>2026-03-29T09:50:42Z</time></trkpt><trkpt lat="44.6344447805965" lon="8.731313533144682"><ele>315.66666666666663</ele><time>2026-03-29T09:50:43Z</time></trkpt><trkpt lat="44.63435076692836" lon="8.731261110786132"><ele>315.3333333333333</ele><time>2026-03-29T09:50:44Z</time></trkpt><trkpt lat="44.634265573803475" lon="8.731212530686955"><ele>315.0</ele><time>2026-03-29T09:50:45Z</time></trkpt><trkpt lat="44.63420654000306" lon="8.73112322468435"><ele>314.6666666666667</ele><time>2026-03-29T09:50:47Z</time></trkpt><trkpt lat="44.63415390282244" lon="8.731066134346072"><ele>314.33333333333337</ele><time>2026-03-29T09:51:12Z</time></trkpt><trkpt lat="44.634093345416154" lon="8.731041017333581"><ele>314.0</ele><time>2026-03-29T09:51:32Z</time></trkpt><trkpt lat="44.63403094298994" lon="8.730900606491012"><ele>314.0</ele><time>2026-03-29T09:51:46Z</time></trkpt><trkpt lat="44.634062984755396" lon="8.730805723723824"><ele>314.0</ele><time>2026-03-29T09:51:47Z</time></trkpt><trkpt lat="44.63410904519407" lon="8.730736298418865"><ele>314.0</ele><time>2026-03-29T09:51:48Z</time></trkpt><trkpt lat="44.63417317653961" lon="8.730675943871066"><ele>314.0</ele><time>2026-03-29T09:51:49Z</time></trkpt><trkpt lat="44.63426981559675" lon="8.730649700953219"><ele>314.0</ele><time>2026-03-29T09:51:50Z</time></trkpt><trkpt lat="44.634361158366914" lon="8.730588083433412"><ele>314.0</ele><time>2026-03-29T09:51:51Z</time></trkpt><trkpt lat="44.63444981427408" lon="8.730512481776456"><ele>314.59999999999997</ele><time>2026-03-29T09:51:52Z</time></trkpt><trkpt lat="44.63455256156417" lon="8.730476318245984"><ele>315.2</ele><time>2026-03-29T09:51:53.001Z</time></trkpt><trkpt lat="44.63466106519354" lon="8.73045549518262"><ele>315.79999999999995</ele><time>2026-03-29T09:51:54.001Z</time></trkpt><trkpt lat="44.63475668725462" lon="8.73042673390447"><ele>316.4</ele><time>2026-03-29T09:51:55.001Z</time></trkpt><trkpt lat="44.6348618859397" lon="8.730395677642967"><ele>317.0</ele><time>2026-03-29T09:51:56.001Z</time></trkpt><trkpt lat="44.634967018178216" lon="8.730351921458556"><ele>317.0</ele><time>2026-03-29T09:51:57.001Z</time></trkpt><trkpt lat="44.635057400538116" lon="8.730289653165297"><ele>317.0</ele><time>2026-03-29T09:51:58.001Z</time></trkpt><trkpt lat="44.63513627642419" lon="8.730196110258333"><ele>317.0</ele><time>2026-03-29T09:51:59.001Z</time></trkpt><trkpt lat="44.63520930334261" lon="8.73004920541112"><ele>317.0</ele><time>2026-03-29T09:52:00.001Z</time></trkpt><trkpt lat="44.63526182607987" lon="8.72984630670505"><ele>316.25</ele><time>2026-03-29T09:52:01.001Z</time></trkpt><trkpt lat="44.63528960363262" lon="8.729646582056526"><ele>315.5</ele><time>2026-03-29T09:52:02.001Z</time></trkpt><trkpt lat="44.63532033937343" lon="8.72947641018254"><ele>314.75</ele><time>2026-03-29T09:52:03.001Z</time></trkpt><trkpt lat="44.635361181530634" lon="8.729325768443168"><ele>314.0</ele><time>2026-03-29T09:52:04.001Z</time></trkpt><trkpt lat="44.635407245525286" lon="8.729192999756608"><ele>310.75</ele><time>2026-03-29T09:52:05.001Z</time></trkpt><trkpt lat="44.635472681238355" lon="8.729067794976213"><ele>307.5</ele><time>2026-03-29T09:52:06.001Z</time></trkpt><trkpt lat="44.63555048337146" lon="8.728961212660666"><ele>304.25</ele><time>2026-03-29T09:52:07.001Z</time></trkpt><trkpt lat="44.63563823882479" lon="8.728865264724233"><ele>301.0</ele><time>2026-03-29T09:52:08.001Z</time></trkpt><trkpt lat="44.63573539026753" lon="8.72875926096187"><ele>301.0</ele><time>2026-03-29T09:52:09.001Z</time></trkpt><trkpt lat="44.635849689222674" lon="8.728644051279245"><ele>301.0</ele><time>2026-03-29T09:52:10.001Z</time></trkpt><trkpt lat="44.635953532872165" lon="8.72850001392147"><ele>301.0</ele><time>2026-03-29T09:52:11.001Z</time></trkpt><trkpt lat="44.63606444205269" lon="8.7283800345757"><ele>301.0</ele><time>2026-03-29T09:52:12.001Z</time></trkpt><trkpt lat="44.636153348527344" lon="8.72820790791682"><ele>297.3333333333333</ele><time>2026-03-29T09:52:13.001Z</time></trkpt><trkpt lat="44.63622309095799" lon="8.728016800855412"><ele>293.6666666666667</ele><time>2026-03-29T09:52:14.001Z</time></trkpt><trkpt lat="44.63627167470247" lon="8.727807974042719"><ele>290.0</ele><time>2026-03-29T09:52:15.001Z</time></trkpt><trkpt lat="44.63633218640487" lon="8.727602019859493"><ele>288.75</ele><time>2026-03-29T09:52:16.001Z</time></trkpt><trkpt lat="44.636376695377756" lon="8.72740336862386"><ele>287.5</ele><time>2026-03-29T09:52:17.001Z</time></trkpt><trkpt lat="44.63641647861271" lon="8.727204942447964"><ele>286.25</ele><time>2026-03-29T09:52:18.001Z</time></trkpt><trkpt lat="44.636443082328476" lon="8.72699642165993"><ele>285.0</ele><time>2026-03-29T09:52:19.001Z</time></trkpt><trkpt lat="44.63645491023692" lon="8.726792260345134"><ele>285.0</ele><time>2026-03-29T09:52:20.001Z</time></trkpt><trkpt lat="44.63643814792318" lon="8.726585052497644"><ele>285.0</ele><time>2026-03-29T09:52:21.001Z</time></trkpt><trkpt lat="44.63641253548949" lon="8.726382332152943"><ele>285.0</ele><time>2026-03-29T09:52:22.001Z</time></trkpt><trkpt lat="44.636350681182435" lon="8.726163138258116"><ele>284.3333333333333</ele><time>2026-03-29T09:52:23.001Z</time></trkpt><trkpt lat="44.63625413902863" lon="8.725953381015334"><ele>283.66666666666663</ele><time>2026-03-29T09:52:24.001Z</time></trkpt><trkpt lat="44.63617632457181" lon="8.725731012474244"><ele>283.0</ele><time>2026-03-29T09:52:25.001Z</time></trkpt><trkpt lat="44.63610357097158" lon="8.725516477454791"><ele>283.0</ele><time>2026-03-29T09:52:26Z</time></trkpt><trkpt lat="44.636036317459585" lon="8.725330449259038"><ele>283.0</ele><time>2026-03-29T09:52:27Z</time></trkpt><trkpt lat="44.635966199878574" lon="8.725164047629308"><ele>283.0</ele><time>2026-03-29T09:52:28Z</time></trkpt><trkpt lat="44.63588755272443" lon="8.725016567008545"><ele>283.0</ele><time>2026-03-29T09:52:29Z</time></trkpt><trkpt lat="44.63581689837636" lon="8.72488550713406"><ele>284.0</ele><time>2026-03-29T09:52:30Z</time></trkpt><trkpt lat="44.63575919660293" lon="8.72475676998462"><ele>285.0</ele><time>2026-03-29T09:52:31Z</time></trkpt><trkpt lat="44.635728067767026" lon="8.724624749953076"><ele>286.0</ele><time>2026-03-29T09:52:32Z</time></trkpt><trkpt lat="44.63572866241017" lon="8.724496247882033"><ele>287.0</ele><time>2026-03-29T09:52:33Z</time></trkpt><trkpt lat="44.635758459220405" lon="8.724366042940975"><ele>288.0</ele><time>2026-03-29T09:52:34Z</time></trkpt><trkpt lat="44.63583207636483" lon="8.724248766457473"><ele>288.25</ele><time>2026-03-29T09:52:35Z</time></trkpt><trkpt lat="44.6359266484233" lon="8.724133133351662"><ele>288.5</ele><time>2026-03-29T09:52:36Z</time></trkpt><trkpt lat="44.63603924803031" lon="8.724001140135561"><ele>288.75</ele><time>2026-03-29T09:52:37Z</time></trkpt><trkpt lat="44.63613287260623" lon="8.723805839260551"><ele>289.0</ele><time>2026-03-29T09:52:38Z</time></trkpt><trkpt lat="44.636229767970015" lon="8.723589939790326"><ele>286.66666666666663</ele><time>2026-03-29T09:52:39Z</time></trkpt><trkpt lat="44.636332296885826" lon="8.723347399378046"><ele>284.3333333333333</ele><time>2026-03-29T09:52:40Z</time></trkpt><trkpt lat="44.6364286376068" lon="8.723119018120308"><ele>282.0</ele><time>2026-03-29T09:52:41Z</time></trkpt><trkpt lat="44.63651411954736" lon="8.722896776072218"><ele>279.0</ele><time>2026-03-29T09:52:42Z</time></trkpt><trkpt lat="44.63656985316817" lon="8.722670792011627"><ele>276.0</ele><time>2026-03-29T09:52:43Z</time></trkpt><trkpt lat="44.63661381388629" lon="8.722448782033535"><ele>273.0</ele><time>2026-03-29T09:52:44Z</time></trkpt><trkpt lat="44.63663159129409" lon="8.72222741338318"><ele>273.0</ele><time>2026-03-29T09:52:45Z</time></trkpt><trkpt lat="44.63662125692163" lon="8.721995656547293"><ele>273.0</ele><time>2026-03-29T09:52:46Z</time></trkpt><trkpt lat="44.636593557316" lon="8.721758988334951"><ele>273.0</ele><time>2026-03-29T09:52:47Z</time></trkpt><trkpt lat="44.63653874812059" lon="8.721535873259345"><ele>273.3333333333333</ele><time>2026-03-29T09:52:48Z</time></trkpt><trkpt lat="44.63646234264823" lon="8.721317915862564"><ele>273.66666666666663</ele><time>2026-03-29T09:52:49Z</time></trkpt><trkpt lat="44.63635563466087" lon="8.72110647398317"><ele>274.0</ele><time>2026-03-29T09:52:50Z</time></trkpt><trkpt lat="44.63622755189607" lon="8.720911025740662"><ele>274.3333333333333</ele><time>2026-03-29T09:52:51Z</time></trkpt><trkpt lat="44.63608991465348" lon="8.72071809471169"><ele>274.6666666666667</ele><time>2026-03-29T09:52:52Z</time></trkpt><trkpt lat="44.63597226969256" lon="8.720527117512889"><ele>275.0</ele><time>2026-03-29T09:52:53Z</time></trkpt><trkpt lat="44.63588413762656" lon="8.720351608591743"><ele>277.6666666666667</ele><time>2026-03-29T09:52:54Z</time></trkpt><trkpt lat="44.63584723596576" lon="8.720154221609208"><ele>280.3333333333333</ele><time>2026-03-29T09:52:55Z</time></trkpt><trkpt lat="44.63579929626478" lon="8.719946186323856"><ele>283.0</ele><time>2026-03-29T09:52:56Z</time></trkpt><trkpt lat="44.63574785143064" lon="8.719707748970201"><ele>283.0</ele><time>2026-03-29T09:52:57Z</time></trkpt><trkpt lat="44.63567861831918" lon="8.719467861127425"><ele>283.0</ele><time>2026-03-29T09:52:58Z</time></trkpt><trkpt lat="44.63562481803691" lon="8.71922292194248"><ele>283.0</ele><time>2026-03-29T09:52:59Z</time></trkpt><trkpt lat="44.63558003122114" lon="8.719010462338465"><ele>285.5</ele><time>2026-03-29T09:53:00Z</time></trkpt><trkpt lat="44.63553808419683" lon="8.71881581959984"><ele>288.0</ele><time>2026-03-29T09:53:01Z</time></trkpt><trkpt lat="44.63549510250289" lon="8.718640915806084"><ele>290.5</ele><time>2026-03-29T09:53:02Z</time></trkpt><trkpt lat="44.635457021955716" lon="8.71846822704883"><ele>293.0</ele><time>2026-03-29T09:53:03Z</time></trkpt><trkpt lat="44.63542227377668" lon="8.718309327016405"><ele>293.8</ele><time>2026-03-29T09:53:04Z</time></trkpt><trkpt lat="44.63540713845682" lon="8.71816348122175"><ele>294.6</ele><time>2026-03-29T09:53:05Z</time></trkpt><trkpt lat="44.63538430273728" lon="8.71804143835805"><ele>295.4</ele><time>2026-03-29T09:53:06Z</time></trkpt><trkpt lat="44.63539005010445" lon="8.717919182326295"><ele>296.2</ele><time>2026-03-29T09:53:07Z</time></trkpt><trkpt lat="44.63543498392886" lon="8.717809707144335"><ele>297.0</ele><time>2026-03-29T09:53:08Z</time></trkpt><trkpt lat="44.63548912210484" lon="8.71767845767446"><ele>297.0</ele><time>2026-03-29T09:53:09Z</time></trkpt><trkpt lat="44.63555107588622" lon="8.717507175232571"><ele>297.0</ele><time>2026-03-29T09:53:10Z</time></trkpt><trkpt lat="44.63562477972316" lon="8.717335914586714"><ele>297.0</ele><time>2026-03-29T09:53:11Z</time></trkpt><trkpt lat="44.635707747176276" lon="8.717177558263083"><ele>297.0</ele><time>2026-03-29T09:53:12Z</time></trkpt><trkpt lat="44.63577779795415" lon="8.717021487276966"><ele>297.5</ele><time>2026-03-29T09:53:13Z</time></trkpt><trkpt lat="44.63585983395193" lon="8.716887270109032"><ele>298.0</ele><time>2026-03-29T09:53:14Z</time></trkpt><trkpt lat="44.63596831852517" lon="8.716782973120495"><ele>298.5</ele><time>2026-03-29T09:53:15Z</time></trkpt><trkpt lat="44.636082101603364" lon="8.71666590574317"><ele>299.0</ele><time>2026-03-29T09:53:16Z</time></trkpt><trkpt lat="44.63619160188476" lon="8.716526475956641"><ele>299.0</ele><time>2026-03-29T09:53:17Z</time></trkpt><trkpt lat="44.63630179238594" lon="8.716418655330369"><ele>299.0</ele><time>2026-03-29T09:53:18Z</time></trkpt><trkpt lat="44.636397649973745" lon="8.716299698345162"><ele>299.0</ele><time>2026-03-29T09:53:19Z</time></trkpt><trkpt lat="44.63647122870089" lon="8.716160123645823"><ele>299.0</ele><time>2026-03-29T09:53:20Z</time></trkpt><trkpt lat="44.636528653835285" lon="8.716010079295694"><ele>298.0</ele><time>2026-03-29T09:53:21Z</time></trkpt><trkpt lat="44.636542193432014" lon="8.715843552264671"><ele>297.0</ele><time>2026-03-29T09:53:22Z</time></trkpt><trkpt lat="44.63652814328983" lon="8.715678954952141"><ele>296.0</ele><time>2026-03-29T09:53:23Z</time></trkpt><trkpt lat="44.63648475478716" lon="8.715503950888282"><ele>295.0</ele><time>2026-03-29T09:53:24Z</time></trkpt><trkpt lat="44.636425655716884" lon="8.715336981808804"><ele>295.5</ele><time>2026-03-29T09:53:25Z</time></trkpt><trkpt lat="44.63632908230916" lon="8.715183071962684"><ele>296.0</ele><time>2026-03-29T09:53:26Z</time></trkpt><trkpt lat="44.63623066346547" lon="8.715023194734744"><ele>296.5</ele><time>2026-03-29T09:53:27Z</time></trkpt><trkpt lat="44.63613245808756" lon="8.714863019811876"><ele>297.0</ele><time>2026-03-29T09:53:28Z</time></trkpt><trkpt lat="44.636039459547355" lon="8.714699655083473"><ele>294.6666666666667</ele><time>2026-03-29T09:53:29Z</time></trkpt><trkpt lat="44.635943121641084" lon="8.714524797137448"><ele>292.33333333333337</ele><time>2026-03-29T09:53:30Z</time></trkpt><trkpt lat="44.63584273597332" lon="8.71435749693435"><ele>290.0</ele><time>2026-03-29T09:53:31Z</time></trkpt><trkpt lat="44.63574730593679" lon="8.714203106596814"><ele>290.0</ele><time>2026-03-29T09:53:32Z</time></trkpt><trkpt lat="44.63566520178502" lon="8.71405670084029"><ele>290.0</ele><time>2026-03-29T09:53:33Z</time></trkpt><trkpt lat="44.635582825383985" lon="8.713931941674028"><ele>290.0</ele><time>2026-03-29T09:53:34Z</time></trkpt><trkpt lat="44.63551452489731" lon="8.713821173807883"><ele>290.0</ele><time>2026-03-29T09:53:35Z</time></trkpt><trkpt lat="44.635431809055135" lon="8.713701475076252"><ele>290.0</ele><time>2026-03-29T09:53:36Z</time></trkpt><trkpt lat="44.63533583044648" lon="8.71362490232473"><ele>290.0</ele><time>2026-03-29T09:53:37Z</time></trkpt><trkpt lat="44.6352507766089" lon="8.713558222868281"><ele>290.0</ele><time>2026-03-29T09:53:38Z</time></trkpt><trkpt lat="44.63517034034604" lon="8.713488228848401"><ele>290.0</ele><time>2026-03-29T09:53:39Z</time></trkpt><trkpt lat="44.635086324034624" lon="8.713404614997923"><ele>290.0</ele><time>2026-03-29T09:53:40Z</time></trkpt><trkpt lat="44.63500757799827" lon="8.713305791773376"><ele>290.0</ele><time>2026-03-29T09:53:41Z</time></trkpt><trkpt lat="44.63493068094603" lon="8.713167994085952"><ele>290.0</ele><time>2026-03-29T09:53:42Z</time></trkpt><trkpt lat="44.63488880354067" lon="8.71298548451137"><ele>290.0</ele><time>2026-03-29T09:53:43Z</time></trkpt><trkpt lat="44.634816499837704" lon="8.712786939257333"><ele>290.0</ele><time>2026-03-29T09:53:44Z</time></trkpt><trkpt lat="44.63477114774908" lon="8.71257342668105"><ele>288.0</ele><time>2026-03-29T09:53:45Z</time></trkpt><trkpt lat="44.634726082143324" lon="8.712356328288603"><ele>286.0</ele><time>2026-03-29T09:53:46Z</time></trkpt><trkpt lat="44.634686050906986" lon="8.71212824940984"><ele>284.0</ele><time>2026-03-29T09:53:47Z</time></trkpt><trkpt lat="44.634686984236914" lon="8.711889726841227"><ele>282.33333333333337</ele><time>2026-03-29T09:53:48Z</time></trkpt><trkpt lat="44.634676963531746" lon="8.711659389694823"><ele>280.6666666666667</ele><time>2026-03-29T09:53:49Z</time></trkpt><trkpt lat="44.63466528706073" lon="8.71143765208483"><ele>279.0</ele><time>2026-03-29T09:53:50Z</time></trkpt><trkpt lat="44.63465308461225" lon="8.71122800248911"><ele>278.25</ele><time>2026-03-29T09:53:51Z</time></trkpt><trkpt lat="44.63464040666618" lon="8.711018803960204"><ele>277.5</ele><time>2026-03-29T09:53:52Z</time></trkpt><trkpt lat="44.63462815690274" lon="8.71081715393954"><ele>276.75</ele><time>2026-03-29T09:53:53Z</time></trkpt><trkpt lat="44.63461583627647" lon="8.710620385537172"><ele>276.0</ele><time>2026-03-29T09:53:54Z</time></trkpt><trkpt lat="44.63460427508491" lon="8.710438867819473"><ele>276.0</ele><time>2026-03-29T09:53:55Z</time></trkpt><trkpt lat="44.63459394626566" lon="8.710276699271763"><ele>276.0</ele><time>2026-03-29T09:53:56Z</time></trkpt><trkpt lat="44.63458419992002" lon="8.71012042804876"><ele>276.0</ele><time>2026-03-29T09:53:57Z</time></trkpt><trkpt lat="44.6345751039409" lon="8.709958852883387"><ele>276.0</ele><time>2026-03-29T09:53:58.001Z</time></trkpt><trkpt lat="44.63456802864339" lon="8.709809878627203"><ele>276.0</ele><time>2026-03-29T09:53:59.001Z</time></trkpt><trkpt lat="44.63456252659767" lon="8.709668984729806"><ele>275.3333333333333</ele><time>2026-03-29T09:54:00.001Z</time></trkpt><trkpt lat="44.63455931646596" lon="8.709528499739738"><ele>274.6666666666667</ele><time>2026-03-29T09:54:01.001Z</time></trkpt><trkpt lat="44.6345513552556" lon="8.70939430725078"><ele>274.0</ele><time>2026-03-29T09:54:02.001Z</time></trkpt><trkpt lat="44.63452867512002" lon="8.7092718193182"><ele>273.33333333333337</ele><time>2026-03-29T09:54:03.001Z</time></trkpt><trkpt lat="44.63451346116839" lon="8.709169511054082"><ele>272.6666666666667</ele><time>2026-03-29T09:54:04.001Z</time></trkpt><trkpt lat="44.634454370049816" lon="8.70909281248603"><ele>272.0</ele><time>2026-03-29T09:54:05.001Z</time></trkpt><trkpt lat="44.63439087734962" lon="8.709036223431097"><ele>275.5</ele><time>2026-03-29T09:54:06.001Z</time></trkpt><trkpt lat="44.634310573565" lon="8.70899952919592"><ele>279.0</ele><time>2026-03-29T09:54:07.001Z</time></trkpt><trkpt lat="44.63423182463238" lon="8.708965319958743"><ele>282.5</ele><time>2026-03-29T09:54:08.001Z</time></trkpt><trkpt lat="44.63416217253675" lon="8.708948763638789"><ele>286.0</ele><time>2026-03-29T09:54:09.001Z</time></trkpt><trkpt lat="44.634079477431655" lon="8.708964062719007"><ele>289.5</ele><time>2026-03-29T09:54:10.001Z</time></trkpt><trkpt lat="44.63400904798307" lon="8.709006946421276"><ele>293.0</ele><time>2026-03-29T09:54:11.001Z</time></trkpt><trkpt lat="44.63394454872068" lon="8.709066037302307"><ele>293.0</ele><time>2026-03-29T09:54:12.001Z</time></trkpt><trkpt lat="44.63388673670465" lon="8.709118239485397"><ele>293.0</ele><time>2026-03-29T09:54:13.001Z</time></trkpt><trkpt lat="44.63380954549756" lon="8.709177191216456"><ele>293.0</ele><time>2026-03-29T09:54:14.001Z</time></trkpt><trkpt lat="44.63373997465941" lon="8.709213055491173"><ele>293.0</ele><time>2026-03-29T09:54:15.001Z</time></trkpt><trkpt lat="44.633665607686986" lon="8.709296161885375"><ele>293.0</ele><time>2026-03-29T09:54:16.001Z</time></trkpt><trkpt lat="44.63356921592227" lon="8.709367336232814"><ele>293.0</ele><time>2026-03-29T09:54:17.001Z</time></trkpt><trkpt lat="44.63351217109589" lon="8.709450176800017"><ele>293.5</ele><time>2026-03-29T09:54:18.001Z</time></trkpt><trkpt lat="44.63341977318013" lon="8.7095040408897"><ele>294.0</ele><time>2026-03-29T09:54:19.001Z</time></trkpt><trkpt lat="44.633339617192746" lon="8.709540863415574"><ele>294.5</ele><time>2026-03-29T09:54:20.001Z</time></trkpt><trkpt lat="44.633276102780734" lon="8.70954868602818"><ele>295.0</ele><time>2026-03-29T09:54:21.001Z</time></trkpt><trkpt lat="44.63320479453913" lon="8.709563563451152"><ele>295.5</ele><time>2026-03-29T09:54:22.001Z</time></trkpt><trkpt lat="44.63314222900476" lon="8.709516710058523"><ele>296.0</ele><time>2026-03-29T09:54:23.001Z</time></trkpt><trkpt lat="44.63309048173603" lon="8.709451972692706"><ele>294.0</ele><time>2026-03-29T09:54:24.001Z</time></trkpt><trkpt lat="44.633041506853374" lon="8.709358898321609"><ele>292.0</ele><time>2026-03-29T09:54:25.001Z</time></trkpt><trkpt lat="44.63299467486999" lon="8.709237893450958"><ele>290.0</ele><time>2026-03-29T09:54:26.001Z</time></trkpt><trkpt lat="44.632943585626144" lon="8.709109485679239"><ele>288.0</ele><time>2026-03-29T09:54:27.001Z</time></trkpt><trkpt lat="44.63288931251783" lon="8.708991982358139"><ele>286.0</ele><time>2026-03-29T09:54:28.001Z</time></trkpt><trkpt lat="44.632831175362305" lon="8.708888560195613"><ele>283.8333333333333</ele><time>2026-03-29T09:54:29.001Z</time></trkpt><trkpt lat="44.63277619784502" lon="8.708810736303262"><ele>281.66666666666663</ele><time>2026-03-29T09:54:30.001Z</time></trkpt><trkpt lat="44.63271655099545" lon="8.708752086245282"><ele>279.5</ele><time>2026-03-29T09:54:31.001Z</time></trkpt><trkpt lat="44.632630622462145" lon="8.708746201038894"><ele>277.3333333333333</ele><time>2026-03-29T09:54:32Z</time></trkpt><trkpt lat="44.632543319582" lon="8.708768442765669"><ele>275.1666666666667</ele><time>2026-03-29T09:54:33Z</time></trkpt><trkpt lat="44.63245956415579" lon="8.708835044480157"><ele>273.0</ele><time>2026-03-29T09:54:34Z</time></trkpt><trkpt lat="44.63239446010339" lon="8.708927873960956"><ele>273.0</ele><time>2026-03-29T09:54:35Z</time></trkpt><trkpt lat="44.63234086468757" lon="8.709051461844892"><ele>273.0</ele><time>2026-03-29T09:54:36Z</time></trkpt><trkpt lat="44.63231778773813" lon="8.709200714634774"><ele>273.0</ele><time>2026-03-29T09:54:37Z</time></trkpt><trkpt lat="44.63231093899984" lon="8.709371353877593"><ele>273.0</ele><time>2026-03-29T09:54:38Z</time></trkpt><trkpt lat="44.63229803361808" lon="8.70956446877643"><ele>273.75</ele><time>2026-03-29T09:54:39Z</time></trkpt><trkpt lat="44.63228265276632" lon="8.709763841170757"><ele>274.5</ele><time>2026-03-29T09:54:40Z</time></trkpt><trkpt lat="44.63227038110047" lon="8.709980159993197"><ele>275.25</ele><time>2026-03-29T09:54:41Z</time></trkpt><trkpt lat="44.632252640131235" lon="8.71017352851257"><ele>276.0</ele><time>2026-03-29T09:54:42Z</time></trkpt><trkpt lat="44.63223753287284" lon="8.710361637448155"><ele>276.0</ele><time>2026-03-29T09:54:43Z</time></trkpt><trkpt lat="44.63222086896433" lon="8.710550584402952"><ele>276.0</ele><time>2026-03-29T09:54:44Z</time></trkpt><trkpt lat="44.632188022455026" lon="8.710731431329494"><ele>276.0</ele><time>2026-03-29T09:54:45Z</time></trkpt><trkpt lat="44.632172886432976" lon="8.710905805641117"><ele>276.0</ele><time>2026-03-29T09:54:46Z</time></trkpt><trkpt lat="44.63216077911486" lon="8.711066583259665"><ele>275.3333333333333</ele><time>2026-03-29T09:54:47Z</time></trkpt><trkpt lat="44.632150142435016" lon="8.711205465646898"><ele>274.6666666666667</ele><time>2026-03-29T09:54:48Z</time></trkpt><trkpt lat="44.63214316840415" lon="8.711325775590863"><ele>274.0</ele><time>2026-03-29T09:54:49Z</time></trkpt><trkpt lat="44.63213717878806" lon="8.711417364048373"><ele>273.33333333333337</ele><time>2026-03-29T09:54:50Z</time></trkpt><trkpt lat="44.63207832253609" lon="8.711512248649973"><ele>272.6666666666667</ele><time>2026-03-29T09:54:52Z</time></trkpt><trkpt lat="44.63198169776639" lon="8.711520490991054"><ele>272.0</ele><time>2026-03-29T09:54:54Z</time></trkpt><trkpt lat="44.63192305065914" lon="8.711402677421004"><ele>268.2</ele><time>2026-03-29T09:54:55Z</time></trkpt><trkpt lat="44.631904559429046" lon="8.711277723531264"><ele>264.4</ele><time>2026-03-29T09:54:56Z</time></trkpt><trkpt lat="44.63189288745862" lon="8.711135956728706"><ele>260.6</ele><time>2026-03-29T09:54:57Z</time></trkpt><trkpt lat="44.63188631523678" lon="8.710968061871855"><ele>256.8</ele><time>2026-03-29T09:54:58Z</time></trkpt><trkpt lat="44.631877232152235" lon="8.710780606079837"><ele>253.0</ele><time>2026-03-29T09:54:59Z</time></trkpt><trkpt lat="44.631861646780145" lon="8.710601273067498"><ele>252.75</ele><time>2026-03-29T09:55:00Z</time></trkpt><trkpt lat="44.631856677126514" lon="8.710413152909288"><ele>252.5</ele><time>2026-03-29T09:55:01Z</time></trkpt><trkpt lat="44.631859324952394" lon="8.710231670647266"><ele>252.25</ele><time>2026-03-29T09:55:02Z</time></trkpt><trkpt lat="44.63185826078247" lon="8.71005811484675"><ele>252.0</ele><time>2026-03-29T09:55:03Z</time></trkpt><trkpt lat="44.63185282098927" lon="8.709889843807913"><ele>251.25</ele><time>2026-03-29T09:55:04Z</time></trkpt><trkpt lat="44.63185691092073" lon="8.709723030405819"><ele>250.5</ele><time>2026-03-29T09:55:05Z</time></trkpt><trkpt lat="44.631834603275934" lon="8.709550439573546"><ele>249.75</ele><time>2026-03-29T09:55:06Z</time></trkpt><trkpt lat="44.63180538927015" lon="8.709387724585444"><ele>249.0</ele><time>2026-03-29T09:55:07Z</time></trkpt><trkpt lat="44.63175940528651" lon="8.709217148476293"><ele>247.66666666666669</ele><time>2026-03-29T09:55:08Z</time></trkpt><trkpt lat="44.63169957966735" lon="8.70904244296975"><ele>246.33333333333334</ele><time>2026-03-29T09:55:09Z</time></trkpt><trkpt lat="44.63160178545915" lon="8.708852103318597"><ele>245.0</ele><time>2026-03-29T09:55:10Z</time></trkpt><trkpt lat="44.63152406379508" lon="8.708658605766525"><ele>245.33333333333334</ele><time>2026-03-29T09:55:11Z</time></trkpt><trkpt lat="44.63143591940437" lon="8.70845042051913"><ele>245.66666666666669</ele><time>2026-03-29T09:55:12Z</time></trkpt><trkpt lat="44.631353798721314" lon="8.708265004510176"><ele>246.0</ele><time>2026-03-29T09:55:13Z</time></trkpt><trkpt lat="44.63126705606302" lon="8.708086169486252"><ele>246.0</ele><time>2026-03-29T09:55:14Z</time></trkpt><trkpt lat="44.631195122672885" lon="8.707914408364248"><ele>246.0</ele><time>2026-03-29T09:55:15Z</time></trkpt><trkpt lat="44.631117471129045" lon="8.707750015183986"><ele>246.0</ele><time>2026-03-29T09:55:16Z</time></trkpt><trkpt lat="44.6310447063906" lon="8.707589950427236"><ele>246.0</ele><time>2026-03-29T09:55:17Z</time></trkpt><trkpt lat="44.63097328165611" lon="8.707434381067198"><ele>243.0</ele><time>2026-03-29T09:55:18Z</time></trkpt><trkpt lat="44.63091399038272" lon="8.707279144988489"><ele>240.00000000000003</ele><time>2026-03-29T09:55:19Z</time></trkpt><trkpt lat="44.63087165670996" lon="8.707130846070104"><ele>237.00000000000003</ele><time>2026-03-29T09:55:20Z</time></trkpt><trkpt lat="44.630850635040886" lon="8.707000984310394"><ele>234.0</ele><time>2026-03-29T09:55:21Z</time></trkpt><trkpt lat="44.630876504400696" lon="8.706886543224883"><ele>231.0</ele><time>2026-03-29T09:55:22Z</time></trkpt><trkpt lat="44.630919555391586" lon="8.706802944374278"><ele>231.4</ele><time>2026-03-29T09:55:23Z</time></trkpt><trkpt lat="44.63098852635452" lon="8.70674850444256"><ele>231.8</ele><time>2026-03-29T09:55:24Z</time></trkpt><trkpt lat="44.63107628305944" lon="8.706696646272604"><ele>232.20000000000002</ele><time>2026-03-29T09:55:25Z</time></trkpt><trkpt lat="44.63118449954896" lon="8.70663846086037"><ele>232.60000000000002</ele><time>2026-03-29T09:55:26Z</time></trkpt><trkpt lat="44.63131136170416" lon="8.706576649019018"><ele>233.0</ele><time>2026-03-29T09:55:27Z</time></trkpt><trkpt lat="44.63144958951274" lon="8.706496968714719"><ele>233.0</ele><time>2026-03-29T09:55:28Z</time></trkpt><trkpt lat="44.63160076032292" lon="8.706405965378448"><ele>233.0</ele><time>2026-03-29T09:55:29Z</time></trkpt><trkpt lat="44.631749177371155" lon="8.706308253403169"><ele>233.0</ele><time>2026-03-29T09:55:30Z</time></trkpt><trkpt lat="44.6318848798458" lon="8.706206080809062"><ele>232.75</ele><time>2026-03-29T09:55:31Z</time></trkpt><trkpt lat="44.63201109002217" lon="8.706106687348788"><ele>232.5</ele><time>2026-03-29T09:55:32Z</time></trkpt><trkpt lat="44.63213214152188" lon="8.70601100023747"><ele>232.25</ele><time>2026-03-29T09:55:33Z</time></trkpt><trkpt lat="44.63224346368037" lon="8.705904010447126"><ele>232.0</ele><time>2026-03-29T09:55:34Z</time></trkpt><trkpt lat="44.632348493431394" lon="8.705823837783777"><ele>228.2</ele><time>2026-03-29T09:55:35Z</time></trkpt><trkpt lat="44.63240944103721" lon="8.705701601428776"><ele>224.39999999999998</ele><time>2026-03-29T09:55:36Z</time></trkpt><trkpt lat="44.632448188594466" lon="8.705574689332789"><ele>220.60000000000002</ele><time>2026-03-29T09:55:37Z</time></trkpt><trkpt lat="44.632445595492776" lon="8.705431694129492"><ele>216.8</ele><time>2026-03-29T09:55:38Z</time></trkpt><trkpt lat="44.632419906895" lon="8.705262030835707"><ele>213.0</ele><time>2026-03-29T09:55:39Z</time></trkpt><trkpt lat="44.632379785352114" lon="8.705075408157517"><ele>209.66666666666669</ele><time>2026-03-29T09:55:40Z</time></trkpt><trkpt lat="44.63233990440439" lon="8.704866597402445"><ele>206.33333333333334</ele><time>2026-03-29T09:55:41Z</time></trkpt><trkpt lat="44.63229439999204" lon="8.704664370729112"><ele>203.0</ele><time>2026-03-29T09:55:42Z</time></trkpt><trkpt lat="44.63223195467767" lon="8.704455557093485"><ele>202.66666666666669</ele><time>2026-03-29T09:55:43Z</time></trkpt><trkpt lat="44.63219526018701" lon="8.704243287331826"><ele>202.33333333333331</ele><time>2026-03-29T09:55:44Z</time></trkpt><trkpt lat="44.63214892545146" lon="8.704043671198901"><ele>202.0</ele><time>2026-03-29T09:55:45Z</time></trkpt><trkpt lat="44.63211060533135" lon="8.703838427541264"><ele>202.0</ele><time>2026-03-29T09:55:46Z</time></trkpt><trkpt lat="44.632072463812364" lon="8.703628585493618"><ele>202.0</ele><time>2026-03-29T09:55:47Z</time></trkpt><trkpt lat="44.63204026289522" lon="8.703422250901614"><ele>202.0</ele><time>2026-03-29T09:55:48Z</time></trkpt><trkpt lat="44.632021629381676" lon="8.703214545626285"><ele>202.0</ele><time>2026-03-29T09:55:49Z</time></trkpt><trkpt lat="44.6320462614118" lon="8.703018949458821"><ele>202.0</ele><time>2026-03-29T09:55:50Z</time></trkpt><trkpt lat="44.63206004526452" lon="8.702830849478538"><ele>202.0</ele><time>2026-03-29T09:55:51Z</time></trkpt><trkpt lat="44.63205495907227" lon="8.702701410840685"><ele>202.0</ele><time>2026-03-29T09:55:52Z</time></trkpt><trkpt lat="44.63206178655826" lon="8.702569454154375"><ele>201.66666666666666</ele><time>2026-03-29T09:55:54Z</time></trkpt><trkpt lat="44.631970300756" lon="8.702579538914016"><ele>201.33333333333331</ele><time>2026-03-29T09:55:56Z</time></trkpt><trkpt lat="44.631895655378216" lon="8.702611831764706"><ele>201.0</ele><time>2026-03-29T09:55:58Z</time></trkpt><trkpt lat="44.63177451635004" lon="8.70264377606982"><ele>200.66666666666669</ele><time>2026-03-29T09:56:00Z</time></trkpt><trkpt lat="44.63171397351094" lon="8.702680031959053"><ele>200.33333333333334</ele><time>2026-03-29T09:56:01Z</time></trkpt><trkpt lat="44.631639245751614" lon="8.702726224229828"><ele>200.0</ele><time>2026-03-29T09:56:02Z</time></trkpt><trkpt lat="44.63154175500546" lon="8.702786709189096"><ele>200.6</ele><time>2026-03-29T09:56:03Z</time></trkpt><trkpt lat="44.631434047445126" lon="8.702870058085825"><ele>201.2</ele><time>2026-03-29T09:56:04Z</time></trkpt><trkpt lat="44.631338648193655" lon="8.70295291656908"><ele>201.8</ele><time>2026-03-29T09:56:05Z</time></trkpt><trkpt lat="44.63124780397813" lon="8.703031385829085"><ele>202.4</ele><time>2026-03-29T09:56:06Z</time></trkpt><trkpt lat="44.63116054271081" lon="8.703077255215739"><ele>203.0</ele><time>2026-03-29T09:56:07Z</time></trkpt><trkpt lat="44.63109094299289" lon="8.703154563066418"><ele>203.0</ele><time>2026-03-29T09:56:08Z</time></trkpt><trkpt lat="44.63102570518901" lon="8.703182053501932"><ele>203.0</ele><time>2026-03-29T09:56:09Z</time></trkpt><trkpt lat="44.63095937439417" lon="8.703180883176056"><ele>203.0</ele><time>2026-03-29T09:56:11Z</time></trkpt><trkpt lat="44.630898935571956" lon="8.7032673110745"><ele>203.0</ele><time>2026-03-29T09:56:37.999Z</time></trkpt><trkpt lat="44.630813801862104" lon="8.703370693193191"><ele>203.0</ele><time>2026-03-29T09:56:41Z</time></trkpt><trkpt lat="44.630709220337906" lon="8.703467275761822"><ele>203.0</ele><time>2026-03-29T09:56:43Z</time></trkpt><trkpt lat="44.63064159850977" lon="8.70351914166541"><ele>203.0</ele><time>2026-03-29T09:56:44Z</time></trkpt><trkpt lat="44.63056091095336" lon="8.703587478782666"><ele>203.0</ele><time>2026-03-29T09:56:45Z</time></trkpt><trkpt lat="44.63047314541174" lon="8.70366851720819"><ele>203.0</ele><time>2026-03-29T09:56:46Z</time></trkpt><trkpt lat="44.63039048527807" lon="8.703745633399768"><ele>203.0</ele><time>2026-03-29T09:56:47Z</time></trkpt><trkpt lat="44.63031673294205" lon="8.703818723435855"><ele>203.4</ele><time>2026-03-29T09:56:48Z</time></trkpt><trkpt lat="44.6302465089017" lon="8.703888865193521"><ele>203.8</ele><time>2026-03-29T09:56:49Z</time></trkpt><trkpt lat="44.63016495534237" lon="8.70397599215917"><ele>204.2</ele><time>2026-03-29T09:56:50Z</time></trkpt><trkpt lat="44.630063055911585" lon="8.704072378908435"><ele>204.6</ele><time>2026-03-29T09:56:51Z</time></trkpt><trkpt lat="44.62995398532495" lon="8.704166388295368"><ele>205.0</ele><time>2026-03-29T09:56:52Z</time></trkpt><trkpt lat="44.629852477505786" lon="8.704284469268359"><ele>205.0</ele><time>2026-03-29T09:56:53Z</time></trkpt><trkpt lat="44.62975051046388" lon="8.704401051369363"><ele>205.0</ele><time>2026-03-29T09:56:54Z</time></trkpt><trkpt lat="44.62963506665189" lon="8.704508379665969"><ele>205.0</ele><time>2026-03-29T09:56:55Z</time></trkpt><trkpt lat="44.629549600678544" lon="8.704616754434234"><ele>205.0</ele><time>2026-03-29T09:56:56Z</time></trkpt><trkpt lat="44.62945634667176" lon="8.70471989901587"><ele>205.0</ele><time>2026-03-29T09:56:57Z</time></trkpt><trkpt lat="44.62933818383297" lon="8.704834936716383"><ele>205.0</ele><time>2026-03-29T09:56:58Z</time></trkpt><trkpt lat="44.629227098899634" lon="8.704951573808835"><ele>205.0</ele><time>2026-03-29T09:56:59Z</time></trkpt><trkpt lat="44.62912041856848" lon="8.70506821043529"><ele>205.0</ele><time>2026-03-29T09:57:00Z</time></trkpt><trkpt lat="44.62900912053555" lon="8.70519192558714"><ele>204.75</ele><time>2026-03-29T09:57:01Z</time></trkpt><trkpt lat="44.62888820239777" lon="8.705302502579512"><ele>204.5</ele><time>2026-03-29T09:57:02Z</time></trkpt><trkpt lat="44.62876785564188" lon="8.705408812698948"><ele>204.25</ele><time>2026-03-29T09:57:03Z</time></trkpt><trkpt lat="44.62865069613256" lon="8.705521534373283"><ele>204.0</ele><time>2026-03-29T09:57:04Z</time></trkpt><trkpt lat="44.628546418224694" lon="8.705622626478826"><ele>204.0</ele><time>2026-03-29T09:57:05Z</time></trkpt><trkpt lat="44.62844267454009" lon="8.705724277714117"><ele>204.0</ele><time>2026-03-29T09:57:06Z</time></trkpt><trkpt lat="44.62834256074404" lon="8.705832677294822"><ele>204.0</ele><time>2026-03-29T09:57:07Z</time></trkpt><trkpt lat="44.628253357429365" lon="8.705953661313771"><ele>204.0</ele><time>2026-03-29T09:57:08Z</time></trkpt><trkpt lat="44.62817836069272" lon="8.706100262179753"><ele>206.0</ele><time>2026-03-29T09:57:09Z</time></trkpt><trkpt lat="44.62811516735934" lon="8.706268829045579"><ele>208.0</ele><time>2026-03-29T09:57:10Z</time></trkpt><trkpt lat="44.62805887662468" lon="8.706446636644735"><ele>210.0</ele><time>2026-03-29T09:57:11Z</time></trkpt><trkpt lat="44.62801385982419" lon="8.706610206180594"><ele>212.0</ele><time>2026-03-29T09:57:12Z</time></trkpt><trkpt lat="44.627969876968116" lon="8.706750919413047"><ele>212.0</ele><time>2026-03-29T09:57:13Z</time></trkpt><trkpt lat="44.62791082781623" lon="8.706851312095475"><ele>212.0</ele><time>2026-03-29T09:57:14Z</time></trkpt><trkpt lat="44.62782872763987" lon="8.706921632574462"><ele>212.0</ele><time>2026-03-29T09:57:15Z</time></trkpt><trkpt lat="44.62774417783658" lon="8.706985356670781"><ele>212.0</ele><time>2026-03-29T09:57:16Z</time></trkpt><trkpt lat="44.62763598904534" lon="8.707047515782913"><ele>212.0</ele><time>2026-03-29T09:57:17Z</time></trkpt><trkpt lat="44.62751662376078" lon="8.707127270290464"><ele>213.25</ele><time>2026-03-29T09:57:18Z</time></trkpt><trkpt lat="44.627396487887125" lon="8.707197078239886"><ele>214.5</ele><time>2026-03-29T09:57:19Z</time></trkpt><trkpt lat="44.627276277558124" lon="8.707270592296208"><ele>215.75</ele><time>2026-03-29T09:57:20Z</time></trkpt><trkpt lat="44.62716632571326" lon="8.7073207617804"><ele>217.0</ele><time>2026-03-29T09:57:21Z</time></trkpt><trkpt lat="44.62706300948518" lon="8.7073596222689"><ele>214.5</ele><time>2026-03-29T09:57:22Z</time></trkpt><trkpt lat="44.626969281930286" lon="8.707390408643436"><ele>212.0</ele><time>2026-03-29T09:57:23Z</time></trkpt><trkpt lat="44.62685630830319" lon="8.707427973526508"><ele>209.5</ele><time>2026-03-29T09:57:24Z</time></trkpt><trkpt lat="44.62674043275407" lon="8.707497489901613"><ele>207.0</ele><time>2026-03-29T09:57:25Z</time></trkpt><trkpt lat="44.62661871918682" lon="8.707591589738191"><ele>207.0</ele><time>2026-03-29T09:57:26Z</time></trkpt><trkpt lat="44.626511377540844" lon="8.707708929312574"><ele>207.0</ele><time>2026-03-29T09:57:27Z</time></trkpt><trkpt lat="44.62641599014499" lon="8.707824751483413"><ele>207.0</ele><time>2026-03-29T09:57:28Z</time></trkpt><trkpt lat="44.62631779882791" lon="8.707931541637848"><ele>207.0</ele><time>2026-03-29T09:57:29Z</time></trkpt><trkpt lat="44.62621695510052" lon="8.708016181919202"><ele>208.5</ele><time>2026-03-29T09:57:30Z</time></trkpt><trkpt lat="44.626133764825354" lon="8.708105660821227"><ele>210.0</ele><time>2026-03-29T09:57:31Z</time></trkpt><trkpt lat="44.62605709359824" lon="8.70823778725165"><ele>211.5</ele><time>2026-03-29T09:57:32Z</time></trkpt><trkpt lat="44.62599164558288" lon="8.708409923050132"><ele>213.0</ele><time>2026-03-29T09:57:33Z</time></trkpt><trkpt lat="44.62592173953741" lon="8.708604020283152"><ele>214.75</ele><time>2026-03-29T09:57:34Z</time></trkpt><trkpt lat="44.62585208217267" lon="8.708793522471098"><ele>216.5</ele><time>2026-03-29T09:57:35Z</time></trkpt><trkpt lat="44.625788745941435" lon="8.708961291541053"><ele>218.25</ele><time>2026-03-29T09:57:36Z</time></trkpt><trkpt lat="44.62572836022552" lon="8.709131515413633"><ele>220.0</ele><time>2026-03-29T09:57:37Z</time></trkpt><trkpt lat="44.62565822803995" lon="8.709290298769735"><ele>221.0</ele><time>2026-03-29T09:57:38Z</time></trkpt><trkpt lat="44.62557865603677" lon="8.709434077346522"><ele>222.0</ele><time>2026-03-29T09:57:39Z</time></trkpt><trkpt lat="44.62549541626963" lon="8.709548909065763"><ele>223.0</ele><time>2026-03-29T09:57:40Z</time></trkpt><trkpt lat="44.62540020193954" lon="8.709645701081978"><ele>224.0</ele><time>2026-03-29T09:57:41Z</time></trkpt><trkpt lat="44.62528972272935" lon="8.709723301052783"><ele>224.75</ele><time>2026-03-29T09:57:42Z</time></trkpt><trkpt lat="44.62516515510443" lon="8.70979129549156"><ele>225.5</ele><time>2026-03-29T09:57:43Z</time></trkpt><trkpt lat="44.62503043669275" lon="8.709836345163472"><ele>226.25</ele><time>2026-03-29T09:57:44Z</time></trkpt><trkpt lat="44.62488505697341" lon="8.709892625012154"><ele>227.0</ele><time>2026-03-29T09:57:45Z</time></trkpt><trkpt lat="44.62473747602574" lon="8.709961926495685"><ele>227.0</ele><time>2026-03-29T09:57:46Z</time></trkpt><trkpt lat="44.624573125480616" lon="8.710013529668858"><ele>227.0</ele><time>2026-03-29T09:57:47Z</time></trkpt><trkpt lat="44.62442035909888" lon="8.710064729092277"><ele>227.0</ele><time>2026-03-29T09:57:48Z</time></trkpt><trkpt lat="44.62426140250543" lon="8.710126465346066"><ele>226.66666666666669</ele><time>2026-03-29T09:57:49Z</time></trkpt><trkpt lat="44.6241097338212" lon="8.710179249190226"><ele>226.33333333333331</ele><time>2026-03-29T09:57:50Z</time></trkpt><trkpt lat="44.62395467590694" lon="8.710207808999265"><ele>226.0</ele><time>2026-03-29T09:57:51Z</time></trkpt><trkpt lat="44.62380330215417" lon="8.71024380508191"><ele>228.5</ele><time>2026-03-29T09:57:52Z</time></trkpt><trkpt lat="44.62365977268672" lon="8.710275001035459"><ele>231.0</ele><time>2026-03-29T09:57:53Z</time></trkpt><trkpt lat="44.623515540738985" lon="8.710299584368697"><ele>233.5</ele><time>2026-03-29T09:57:54Z</time></trkpt><trkpt lat="44.62337481991451" lon="8.710310834739916"><ele>236.0</ele><time>2026-03-29T09:57:55Z</time></trkpt><trkpt lat="44.62324134308621" lon="8.710277383513962"><ele>236.0</ele><time>2026-03-29T09:57:56Z</time></trkpt><trkpt lat="44.62310782757599" lon="8.710267888853402"><ele>236.0</ele><time>2026-03-29T09:57:57Z</time></trkpt><trkpt lat="44.62298110856129" lon="8.710298010241537"><ele>236.0</ele><time>2026-03-29T09:57:58Z</time></trkpt><trkpt lat="44.622859225066655" lon="8.710327278207567"><ele>236.0</ele><time>2026-03-29T09:57:59Z</time></trkpt><trkpt lat="44.62273050399941" lon="8.71039536999691"><ele>234.0</ele><time>2026-03-29T09:58:00Z</time></trkpt><trkpt lat="44.62258796343822" lon="8.71049101810569"><ele>232.0</ele><time>2026-03-29T09:58:01Z</time></trkpt><trkpt lat="44.622437268667845" lon="8.710609947301375"><ele>230.0</ele><time>2026-03-29T09:58:02Z</time></trkpt><trkpt lat="44.62227825121003" lon="8.710726973086038"><ele>230.0</ele><time>2026-03-29T09:58:03Z</time></trkpt><trkpt lat="44.622123564279704" lon="8.710843603376851"><ele>230.0</ele><time>2026-03-29T09:58:04Z</time></trkpt><trkpt lat="44.62197480390734" lon="8.710935589993829"><ele>230.0</ele><time>2026-03-29T09:58:05Z</time></trkpt><trkpt lat="44.62184261011261" lon="8.711027758731872"><ele>231.8</ele><time>2026-03-29T09:58:06Z</time></trkpt><trkpt lat="44.62172085022206" lon="8.711108119708488"><ele>233.6</ele><time>2026-03-29T09:58:07Z</time></trkpt><trkpt lat="44.62161737951982" lon="8.71117787041164"><ele>235.39999999999998</ele><time>2026-03-29T09:58:08Z</time></trkpt><trkpt lat="44.62152685658136" lon="8.711225863729657"><ele>237.2</ele><time>2026-03-29T09:58:09.001Z</time></trkpt><trkpt lat="44.621430863951886" lon="8.711252137098153"><ele>239.0</ele><time>2026-03-29T09:58:10.001Z</time></trkpt><trkpt lat="44.62129692864677" lon="8.711266742951729"><ele>239.75</ele><time>2026-03-29T09:58:11.001Z</time></trkpt><trkpt lat="44.62114892105706" lon="8.711275514573234"><ele>240.5</ele><time>2026-03-29T09:58:12.001Z</time></trkpt><trkpt lat="44.62100006687829" lon="8.711275124493909"><ele>241.25</ele><time>2026-03-29T09:58:13.001Z</time></trkpt><trkpt lat="44.62085395875855" lon="8.711277482747235"><ele>242.0</ele><time>2026-03-29T09:58:14.001Z</time></trkpt><trkpt lat="44.62073187977896" lon="8.711281319794427"><ele>242.0</ele><time>2026-03-29T09:58:15.001Z</time></trkpt><trkpt lat="44.620617834905964" lon="8.711281945719342"><ele>242.0</ele><time>2026-03-29T09:58:16.001Z</time></trkpt><trkpt lat="44.62051379300511" lon="8.711277648721016"><ele>242.0</ele><time>2026-03-29T09:58:17.001Z</time></trkpt><trkpt lat="44.62040104705937" lon="8.71127253478346"><ele>242.0</ele><time>2026-03-29T09:58:18.001Z</time></trkpt><trkpt lat="44.62027349387583" lon="8.711278010641282"><ele>241.0</ele><time>2026-03-29T09:58:19.001Z</time></trkpt><trkpt lat="44.6201273981762" lon="8.711277791585546"><ele>240.0</ele><time>2026-03-29T09:58:20.001Z</time></trkpt><trkpt lat="44.61997585569188" lon="8.711290978900289"><ele>239.0</ele><time>2026-03-29T09:58:21.001Z</time></trkpt><trkpt lat="44.61981337166647" lon="8.711315083326246"><ele>239.0</ele><time>2026-03-29T09:58:22.001Z</time></trkpt><trkpt lat="44.6196512622508" lon="8.711352899828753"><ele>239.0</ele><time>2026-03-29T09:58:23.001Z</time></trkpt><trkpt lat="44.61949692563854" lon="8.711390070306443"><ele>239.0</ele><time>2026-03-29T09:58:24.001Z</time></trkpt><trkpt lat="44.61933450076832" lon="8.71145840322057"><ele>238.66666666666669</ele><time>2026-03-29T09:58:25.001Z</time></trkpt><trkpt lat="44.619162124428854" lon="8.711561703062427"><ele>238.33333333333331</ele><time>2026-03-29T09:58:26.001Z</time></trkpt><trkpt lat="44.61898856641766" lon="8.711669392573837"><ele>238.0</ele><time>2026-03-29T09:58:27.001Z</time></trkpt><trkpt lat="44.61881118389882" lon="8.711797860815079"><ele>239.66666666666666</ele><time>2026-03-29T09:58:28.001Z</time></trkpt><trkpt lat="44.618632084763924" lon="8.711886781755013"><ele>241.33333333333331</ele><time>2026-03-29T09:58:29.001Z</time></trkpt><trkpt lat="44.618471646971294" lon="8.711956949861845"><ele>243.0</ele><time>2026-03-29T09:58:30.001Z</time></trkpt><trkpt lat="44.6183182348272" lon="8.712020088978202"><ele>243.0</ele><time>2026-03-29T09:58:31.001Z</time></trkpt><trkpt lat="44.61816860801862" lon="8.712093450340843"><ele>243.0</ele><time>2026-03-29T09:58:32.001Z</time></trkpt><trkpt lat="44.61803552192673" lon="8.712161820855723"><ele>243.0</ele><time>2026-03-29T09:58:33.001Z</time></trkpt><trkpt lat="44.61789039849884" lon="8.712257338860681"><ele>240.5</ele><time>2026-03-29T09:58:34.001Z</time></trkpt><trkpt lat="44.6177562724626" lon="8.712365641396321"><ele>238.0</ele><time>2026-03-29T09:58:35.001Z</time></trkpt><trkpt lat="44.61763914077048" lon="8.712464849727205"><ele>235.5</ele><time>2026-03-29T09:58:36.001Z</time></trkpt><trkpt lat="44.617529845396156" lon="8.712563262765634"><ele>233.0</ele><time>2026-03-29T09:58:37.001Z</time></trkpt><trkpt lat="44.617435763341604" lon="8.712668003934876"><ele>235.25</ele><time>2026-03-29T09:58:38.001Z</time></trkpt><trkpt lat="44.617360688277316" lon="8.712788581929754"><ele>237.5</ele><time>2026-03-29T09:58:39.001Z</time></trkpt><trkpt lat="44.61728522060234" lon="8.71294999400965"><ele>239.75</ele><time>2026-03-29T09:58:40.001Z</time></trkpt><trkpt lat="44.61720754099545" lon="8.713122107731554"><ele>242.0</ele><time>2026-03-29T09:58:41.001Z</time></trkpt><trkpt lat="44.6171264297626" lon="8.713290046571784"><ele>242.0</ele><time>2026-03-29T09:58:42.001Z</time></trkpt><trkpt lat="44.61704822734507" lon="8.713424728627032"><ele>242.0</ele><time>2026-03-29T09:58:43.001Z</time></trkpt><trkpt lat="44.616960507408166" lon="8.713534973175234"><ele>242.0</ele><time>2026-03-29T09:58:44Z</time></trkpt><trkpt lat="44.61688771480624" lon="8.713645233778571"><ele>242.0</ele><time>2026-03-29T09:58:45Z</time></trkpt><trkpt lat="44.61681901308583" lon="8.71376647868452"><ele>238.75</ele><time>2026-03-29T09:58:46Z</time></trkpt><trkpt lat="44.61677205676669" lon="8.713918716852707"><ele>235.5</ele><time>2026-03-29T09:58:47Z</time></trkpt><trkpt lat="44.616740943570164" lon="8.714076069328957"><ele>232.25</ele><time>2026-03-29T09:58:48Z</time></trkpt><trkpt lat="44.616728859460785" lon="8.714238962692365"><ele>229.0</ele><time>2026-03-29T09:58:49Z</time></trkpt><trkpt lat="44.61672060085305" lon="8.71441253447201"><ele>229.0</ele><time>2026-03-29T09:58:50Z</time></trkpt><trkpt lat="44.61668883233808" lon="8.714555674745963"><ele>228.99999999999997</ele><time>2026-03-29T09:58:51Z</time></trkpt><trkpt lat="44.616670249700064" lon="8.714689273508187"><ele>228.99999999999997</ele><time>2026-03-29T09:58:52Z</time></trkpt><trkpt lat="44.61665229927983" lon="8.714811499463814"><ele>229.0</ele><time>2026-03-29T09:58:53Z</time></trkpt><trkpt lat="44.616634280208906" lon="8.714930807820858"><ele>229.0</ele><time>2026-03-29T09:58:54Z</time></trkpt><trkpt lat="44.61661975470544" lon="8.715040369457027"><ele>228.99999999999997</ele><time>2026-03-29T09:58:55Z</time></trkpt><trkpt lat="44.61660610851871" lon="8.715145541883112"><ele>229.0</ele><time>2026-03-29T09:58:56Z</time></trkpt><trkpt lat="44.616576457128815" lon="8.715254861953518"><ele>229.0</ele><time>2026-03-29T09:58:57Z</time></trkpt><trkpt lat="44.61657817671194" lon="8.715377327270573"><ele>229.0</ele><time>2026-03-29T09:58:58Z</time></trkpt><trkpt lat="44.61656620478379" lon="8.715492455252969"><ele>228.99999999999997</ele><time>2026-03-29T09:58:59Z</time></trkpt><trkpt lat="44.616548893255086" lon="8.715601448496841"><ele>229.0</ele><time>2026-03-29T09:59:00Z</time></trkpt><trkpt lat="44.616526090861264" lon="8.71570169008974"><ele>228.99999999999997</ele><time>2026-03-29T09:59:01Z</time></trkpt><trkpt lat="44.61648960837793" lon="8.715798956199041"><ele>229.0</ele><time>2026-03-29T09:59:02Z</time></trkpt><trkpt lat="44.61644209360362" lon="8.71588961270437"><ele>229.0</ele><time>2026-03-29T09:59:03Z</time></trkpt><trkpt lat="44.61637093616013" lon="8.715959728927718"><ele>229.0</ele><time>2026-03-29T09:59:04Z</time></trkpt><trkpt lat="44.61629157408125" lon="8.71603944190429"><ele>228.99999999999997</ele><time>2026-03-29T09:59:05Z</time></trkpt><trkpt lat="44.61620901838257" lon="8.716129667927271"><ele>229.0</ele><time>2026-03-29T09:59:06Z</time></trkpt><trkpt lat="44.616124496175374" lon="8.71621743375288"><ele>229.16666666666666</ele><time>2026-03-29T09:59:07Z</time></trkpt><trkpt lat="44.616055831898066" lon="8.71629404100491"><ele>229.33333333333331</ele><time>2026-03-29T09:59:08Z</time></trkpt><trkpt lat="44.61599911975313" lon="8.716371271863165"><ele>229.5</ele><time>2026-03-29T09:59:09Z</time></trkpt><trkpt lat="44.615950885106756" lon="8.716458710317626"><ele>229.66666666666669</ele><time>2026-03-29T09:59:10Z</time></trkpt><trkpt lat="44.61597129579094" lon="8.716587509836552"><ele>229.83333333333334</ele><time>2026-03-29T09:59:11Z</time></trkpt><trkpt lat="44.61597882417589" lon="8.716707245900666"><ele>230.0</ele><time>2026-03-29T09:59:12Z</time></trkpt><trkpt lat="44.615932264676545" lon="8.716859308389283"><ele>230.0</ele><time>2026-03-29T09:59:14Z</time></trkpt><trkpt lat="44.61581136811" lon="8.716904142154675"><ele>230.0</ele><time>2026-03-29T09:59:16Z</time></trkpt><trkpt lat="44.615717248407954" lon="8.716908751315147"><ele>230.0</ele><time>2026-03-29T09:59:17Z</time></trkpt><trkpt lat="44.61563157389537" lon="8.716898193307662"><ele>230.0</ele><time>2026-03-29T09:59:18Z</time></trkpt><trkpt lat="44.61554691473742" lon="8.716887766305668"><ele>230.0</ele><time>2026-03-29T09:59:19Z</time></trkpt><trkpt lat="44.61546498859232" lon="8.716888642507739"><ele>230.0</ele><time>2026-03-29T09:59:20Z</time></trkpt><trkpt lat="44.615378468341" lon="8.716896623090534"><ele>230.0</ele><time>2026-03-29T09:59:21Z</time></trkpt><trkpt lat="44.615282551103775" lon="8.716919264026076"><ele>230.0</ele><time>2026-03-29T09:59:22Z</time></trkpt><trkpt lat="44.61517888971399" lon="8.716967280574675"><ele>230.0</ele><time>2026-03-29T09:59:23Z</time></trkpt><trkpt lat="44.61508041871569" lon="8.717030539493631"><ele>230.0</ele><time>2026-03-29T09:59:24Z</time></trkpt><trkpt lat="44.61499177776814" lon="8.717082387878465"><ele>232.16666666666669</ele><time>2026-03-29T09:59:25Z</time></trkpt><trkpt lat="44.614908199518965" lon="8.717118467397267"><ele>234.33333333333334</ele><time>2026-03-29T09:59:26Z</time></trkpt><trkpt lat="44.614819218509076" lon="8.717137144644049"><ele>236.5</ele><time>2026-03-29T09:59:27Z</time></trkpt><trkpt lat="44.61472853958784" lon="8.717113792767474"><ele>238.66666666666669</ele><time>2026-03-29T09:59:28Z</time></trkpt><trkpt lat="44.614653036387665" lon="8.71713251954589"><ele>240.83333333333334</ele><time>2026-03-29T09:59:29Z</time></trkpt><trkpt lat="44.61458019737752" lon="8.717121255680174"><ele>243.0</ele><time>2026-03-29T09:59:30Z</time></trkpt><trkpt lat="44.614517631180505" lon="8.717143402715054"><ele>245.5</ele><time>2026-03-29T09:59:31Z</time></trkpt><trkpt lat="44.61444917900153" lon="8.717143740934151"><ele>248.0</ele><time>2026-03-29T09:59:32Z</time></trkpt><trkpt lat="44.61432255860439" lon="8.717154069026002"><ele>250.5</ele><time>2026-03-29T09:59:34Z</time></trkpt><trkpt lat="44.614258121708495" lon="8.717307471025892"><ele>253.0</ele><time>2026-03-29T09:59:35Z</time></trkpt><trkpt lat="44.614098482303255" lon="8.717348219176875"><ele>252.99999999999997</ele><time>2026-03-29T09:59:37Z</time></trkpt><trkpt lat="44.614010824978855" lon="8.717374893831485"><ele>253.0</ele><time>2026-03-29T09:59:38Z</time></trkpt><trkpt lat="44.6139350757978" lon="8.717400412787661"><ele>253.0</ele><time>2026-03-29T09:59:39Z</time></trkpt><trkpt lat="44.613866409228386" lon="8.717430572144142"><ele>253.0</ele><time>2026-03-29T09:59:40Z</time></trkpt><trkpt lat="44.61376124505955" lon="8.717483826421677"><ele>252.99999999999997</ele><time>2026-03-29T09:59:42Z</time></trkpt><trkpt lat="44.61367868904704" lon="8.71751966594965"><ele>253.0</ele><time>2026-03-29T09:59:44Z</time></trkpt><trkpt lat="44.61360846347195" lon="8.717577645316302"><ele>252.8</ele><time>2026-03-29T09:59:47Z</time></trkpt><trkpt lat="44.61353820436071" lon="8.717624606944256"><ele>252.60000000000002</ele><time>2026-03-29T09:59:49Z</time></trkpt><trkpt lat="44.61344749904375" lon="8.71769300624242"><ele>252.39999999999998</ele><time>2026-03-29T09:59:51Z</time></trkpt><trkpt lat="44.61334290024253" lon="8.717745140959252"><ele>252.2</ele><time>2026-03-29T09:59:53Z</time></trkpt><trkpt lat="44.61329115226042" lon="8.717797734225314"><ele>252.0</ele><time>2026-03-29T09:59:54Z</time></trkpt><trkpt lat="44.613195040422085" lon="8.717813496865213"><ele>256.1666666666667</ele><time>2026-03-29T09:59:56Z</time></trkpt><trkpt lat="44.61312900497433" lon="8.717832431681199"><ele>260.3333333333333</ele><time>2026-03-29T09:59:57Z</time></trkpt><trkpt lat="44.61306390097357" lon="8.71784739280839"><ele>264.5</ele><time>2026-03-29T09:59:58Z</time></trkpt><trkpt lat="44.61300114304351" lon="8.717858169241799"><ele>268.66666666666663</ele><time>2026-03-29T09:59:59Z</time></trkpt><trkpt lat="44.612921900055575" lon="8.717865222604024"><ele>272.8333333333333</ele><time>2026-03-29T10:00:00Z</time></trkpt><trkpt lat="44.61284027804269" lon="8.717860928844354"><ele>277.0</ele><time>2026-03-29T10:00:01.001Z</time></trkpt><trkpt lat="44.612739743118894" lon="8.717845536364113"><ele>277.0</ele><time>2026-03-29T10:00:02.001Z</time></trkpt><trkpt lat="44.612664334581446" lon="8.717786164401879"><ele>277.0</ele><time>2026-03-29T10:00:03.001Z</time></trkpt><trkpt lat="44.6125496723491" lon="8.717736359015689"><ele>277.0</ele><time>2026-03-29T10:00:05.001Z</time></trkpt><trkpt lat="44.61246269875775" lon="8.717762347843838"><ele>277.0</ele><time>2026-03-29T10:00:06.001Z</time></trkpt><trkpt lat="44.612379019735094" lon="8.717779421174919"><ele>277.0</ele><time>2026-03-29T10:00:07.001Z</time></trkpt><trkpt lat="44.61228936250091" lon="8.717800575267097"><ele>277.0</ele><time>2026-03-29T10:00:08.001Z</time></trkpt><trkpt lat="44.612205473171784" lon="8.717841736076053"><ele>277.0</ele><time>2026-03-29T10:00:09.001Z</time></trkpt><trkpt lat="44.61211823415284" lon="8.717879355048533"><ele>277.0</ele><time>2026-03-29T10:00:10.001Z</time></trkpt><trkpt lat="44.612046568471904" lon="8.717907437114018"><ele>277.0</ele><time>2026-03-29T10:00:11.001Z</time></trkpt><trkpt lat="44.611977587872204" lon="8.717960317999522"><ele>277.0</ele><time>2026-03-29T10:00:12.001Z</time></trkpt><trkpt lat="44.611910763680086" lon="8.718018007927938"><ele>277.0</ele><time>2026-03-29T10:00:13.001Z</time></trkpt><trkpt lat="44.61183936200042" lon="8.718009251166405"><ele>277.16666666666663</ele><time>2026-03-29T10:00:14.001Z</time></trkpt><trkpt lat="44.61176956513017" lon="8.718021125253422"><ele>277.3333333333333</ele><time>2026-03-29T10:00:15.001Z</time></trkpt><trkpt lat="44.61169952795323" lon="8.718049119158282"><ele>277.5</ele><time>2026-03-29T10:00:16.001Z</time></trkpt><trkpt lat="44.611573465100804" lon="8.718093110642588"><ele>277.6666666666667</ele><time>2026-03-29T10:00:18.001Z</time></trkpt><trkpt lat="44.61151266355197" lon="8.718138339513258"><ele>277.83333333333337</ele><time>2026-03-29T10:00:19.001Z</time></trkpt><trkpt lat="44.611447786872176" lon="8.718190605806925"><ele>278.0</ele><time>2026-03-29T10:00:20.001Z</time></trkpt><trkpt lat="44.611388159651895" lon="8.718242392281994"><ele>278.0</ele><time>2026-03-29T10:00:21.001Z</time></trkpt><trkpt lat="44.611331961106146" lon="8.718300063553267"><ele>278.0</ele><time>2026-03-29T10:00:22.001Z</time></trkpt><trkpt lat="44.611253438892774" lon="8.718319163425353"><ele>278.0</ele><time>2026-03-29T10:00:23.001Z</time></trkpt><trkpt lat="44.61117124929927" lon="8.718369304197589"><ele>278.0</ele><time>2026-03-29T10:00:24.001Z</time></trkpt><trkpt lat="44.61107118306151" lon="8.718399011912828"><ele>278.0</ele><time>2026-03-29T10:00:25.001Z</time></trkpt><trkpt lat="44.61097130278197" lon="8.718413253056934"><ele>278.0</ele><time>2026-03-29T10:00:26.001Z</time></trkpt><trkpt lat="44.61086284943916" lon="8.71844249603948"><ele>277.0</ele><time>2026-03-29T10:00:27.001Z</time></trkpt><trkpt lat="44.61077091648786" lon="8.718496582890392"><ele>276.0</ele><time>2026-03-29T10:00:28.001Z</time></trkpt><trkpt lat="44.61071218577562" lon="8.71857290510143"><ele>275.0</ele><time>2026-03-29T10:00:29.001Z</time></trkpt><trkpt lat="44.61060842939158" lon="8.718651770869547"><ele>274.0</ele><time>2026-03-29T10:00:31.001Z</time></trkpt><trkpt lat="44.61048206593552" lon="8.718684392974229"><ele>273.0</ele><time>2026-03-29T10:00:33.001Z</time></trkpt><trkpt lat="44.61041985438749" lon="8.718735452002122"><ele>275.0</ele><time>2026-03-29T10:00:34.001Z</time></trkpt><trkpt lat="44.61035903051999" lon="8.718808346306302"><ele>277.0</ele><time>2026-03-29T10:00:35.001Z</time></trkpt><trkpt lat="44.61028773589627" lon="8.71890059576504"><ele>279.0</ele><time>2026-03-29T10:00:36.001Z</time></trkpt><trkpt lat="44.610208132769706" lon="8.718966859443986"><ele>281.0</ele><time>2026-03-29T10:00:37.001Z</time></trkpt><trkpt lat="44.61013271524138" lon="8.71905740164988"><ele>283.0</ele><time>2026-03-29T10:00:38.001Z</time></trkpt><trkpt lat="44.610075323367234" lon="8.719156430811642"><ele>283.0</ele><time>2026-03-29T10:00:39.001Z</time></trkpt><trkpt lat="44.609991874891726" lon="8.719207811932053"><ele>283.0</ele><time>2026-03-29T10:00:40.001Z</time></trkpt><trkpt lat="44.60994840834596" lon="8.71928686906893"><ele>283.0</ele><time>2026-03-29T10:00:41.001Z</time></trkpt><trkpt lat="44.60989241805918" lon="8.719353648230934"><ele>283.0</ele><time>2026-03-29T10:00:42.001Z</time></trkpt><trkpt lat="44.60983739374195" lon="8.719421361304077"><ele>283.0</ele><time>2026-03-29T10:00:43.001Z</time></trkpt><trkpt lat="44.60978341361263" lon="8.719489462908193"><ele>283.0</ele><time>2026-03-29T10:00:44.001Z</time></trkpt><trkpt lat="44.609717705367366" lon="8.719551343538546"><ele>283.8333333333333</ele><time>2026-03-29T10:00:45.001Z</time></trkpt><trkpt lat="44.60965781559174" lon="8.719603685953363"><ele>284.66666666666663</ele><time>2026-03-29T10:00:46.001Z</time></trkpt><trkpt lat="44.609604436134134" lon="8.719658460203561"><ele>285.5</ele><time>2026-03-29T10:00:47.001Z</time></trkpt><trkpt lat="44.609550821454484" lon="8.7197397515524"><ele>286.3333333333333</ele><time>2026-03-29T10:00:48.001Z</time></trkpt><trkpt lat="44.60949329222095" lon="8.719818125951766"><ele>287.1666666666667</ele><time>2026-03-29T10:00:49.001Z</time></trkpt><trkpt lat="44.6094213834483" lon="8.719883333871827"><ele>288.0</ele><time>2026-03-29T10:00:50Z</time></trkpt><trkpt lat="44.6093517416751" lon="8.71993276102433"><ele>288.0</ele><time>2026-03-29T10:00:51Z</time></trkpt><trkpt lat="44.60927608694282" lon="8.719977824975658"><ele>288.0</ele><time>2026-03-29T10:00:52Z</time></trkpt><trkpt lat="44.60919439870528" lon="8.720048675227684"><ele>288.0</ele><time>2026-03-29T10:00:53Z</time></trkpt><trkpt lat="44.60912394869332" lon="8.72010226327663"><ele>288.0</ele><time>2026-03-29T10:00:54Z</time></trkpt><trkpt lat="44.60905342277909" lon="8.720138947026276"><ele>288.0</ele><time>2026-03-29T10:00:55Z</time></trkpt><trkpt lat="44.60896690311499" lon="8.72017546749555"><ele>288.0</ele><time>2026-03-29T10:00:56Z</time></trkpt><trkpt lat="44.60889497389531" lon="8.720206087689752"><ele>290.8333333333333</ele><time>2026-03-29T10:00:57Z</time></trkpt><trkpt lat="44.60876166082064" lon="8.720294102118553"><ele>293.6666666666667</ele><time>2026-03-29T10:00:59Z</time></trkpt><trkpt lat="44.608685151954894" lon="8.720362443911451"><ele>296.5</ele><time>2026-03-29T10:01:00Z</time></trkpt><trkpt lat="44.608626823543084" lon="8.720397171409113"><ele>299.33333333333337</ele><time>2026-03-29T10:01:01Z</time></trkpt><trkpt lat="44.60858476569518" lon="8.72048608267832"><ele>302.1666666666667</ele><time>2026-03-29T10:01:02Z</time></trkpt><trkpt lat="44.60853029414844" lon="8.72055243510182"><ele>305.0</ele><time>2026-03-29T10:01:03Z</time></trkpt><trkpt lat="44.608456514862276" lon="8.720586738403227"><ele>305.0</ele><time>2026-03-29T10:01:04Z</time></trkpt><trkpt lat="44.60837070653325" lon="8.720587302480626"><ele>305.0</ele><time>2026-03-29T10:01:05Z</time></trkpt><trkpt lat="44.60828879604568" lon="8.72054618437483"><ele>305.0</ele><time>2026-03-29T10:01:06Z</time></trkpt><trkpt lat="44.60820041415483" lon="8.720563025371902"><ele>305.0</ele><time>2026-03-29T10:01:07Z</time></trkpt><trkpt lat="44.60812721264788" lon="8.720556024361143"><ele>305.0</ele><time>2026-03-29T10:01:08Z</time></trkpt><trkpt lat="44.60805059134702" lon="8.720580242219235"><ele>305.0</ele><time>2026-03-29T10:01:09Z</time></trkpt><trkpt lat="44.607943246099474" lon="8.720633773600289"><ele>305.0</ele><time>2026-03-29T10:01:10Z</time></trkpt><trkpt lat="44.60784823917495" lon="8.720730977116798"><ele>305.0</ele><time>2026-03-29T10:01:11Z</time></trkpt><trkpt lat="44.607794799919816" lon="8.720801204441539"><ele>305.0</ele><time>2026-03-29T10:01:12Z</time></trkpt><trkpt lat="44.60774284123854" lon="8.720853613060505"><ele>305.0</ele><time>2026-03-29T10:01:13Z</time></trkpt><trkpt lat="44.60763802693768" lon="8.720856788974775"><ele>305.0</ele><time>2026-03-29T10:01:15Z</time></trkpt><trkpt lat="44.60756847327083" lon="8.720841640576463"><ele>305.0</ele><time>2026-03-29T10:01:16Z</time></trkpt><trkpt lat="44.60748895447162" lon="8.72084505899796"><ele>304.0</ele><time>2026-03-29T10:01:17Z</time></trkpt><trkpt lat="44.60741511613732" lon="8.72086781539891"><ele>303.0</ele><time>2026-03-29T10:01:18Z</time></trkpt><trkpt lat="44.6073570019473" lon="8.720975693614031"><ele>302.0</ele><time>2026-03-29T10:01:19Z</time></trkpt><trkpt lat="44.60729292175959" lon="8.7210344262354"><ele>301.0</ele><time>2026-03-29T10:01:20Z</time></trkpt><trkpt lat="44.60722868449712" lon="8.721068096920332"><ele>300.0</ele><time>2026-03-29T10:01:21Z</time></trkpt><trkpt lat="44.60715767913608" lon="8.721016794916194"><ele>299.0</ele><time>2026-03-29T10:01:22Z</time></trkpt><trkpt lat="44.60701927032245" lon="8.721021884621761"><ele>298.83333333333337</ele><time>2026-03-29T10:01:24Z</time></trkpt><trkpt lat="44.606946710014626" lon="8.72099964983058"><ele>298.6666666666667</ele><time>2026-03-29T10:01:25Z</time></trkpt><trkpt lat="44.606860062232215" lon="8.721007824266982"><ele>298.5</ele><time>2026-03-29T10:01:26Z</time></trkpt><trkpt lat="44.60678139709698" lon="8.721009409106271"><ele>298.3333333333333</ele><time>2026-03-29T10:01:27Z</time></trkpt><trkpt lat="44.606692854803036" lon="8.721026339124204"><ele>298.16666666666663</ele><time>2026-03-29T10:01:28Z</time></trkpt><trkpt lat="44.60659674704481" lon="8.721041205307946"><ele>298.0</ele><time>2026-03-29T10:01:29Z</time></trkpt><trkpt lat="44.606496635216764" lon="8.721046327192088"><ele>298.0</ele><time>2026-03-29T10:01:30Z</time></trkpt><trkpt lat="44.60639249312235" lon="8.721060790653976"><ele>298.0</ele><time>2026-03-29T10:01:31Z</time></trkpt><trkpt lat="44.60629433494265" lon="8.721098291867454"><ele>298.0</ele><time>2026-03-29T10:01:32Z</time></trkpt><trkpt lat="44.606198275012346" lon="8.7211744540794"><ele>298.0</ele><time>2026-03-29T10:01:33Z</time></trkpt><trkpt lat="44.60610531572416" lon="8.721257988622911"><ele>298.0</ele><time>2026-03-29T10:01:34Z</time></trkpt><trkpt lat="44.6060168877338" lon="8.721302572296707"><ele>300.4</ele><time>2026-03-29T10:01:35Z</time></trkpt><trkpt lat="44.60593817996368" lon="8.721330612903891"><ele>302.8</ele><time>2026-03-29T10:01:36Z</time></trkpt><trkpt lat="44.60584858324842" lon="8.721363995956768"><ele>305.2</ele><time>2026-03-29T10:01:37Z</time></trkpt><trkpt lat="44.60574876867726" lon="8.721387106287983"><ele>307.6</ele><time>2026-03-29T10:01:38Z</time></trkpt><trkpt lat="44.60566257180679" lon="8.7214342359509"><ele>310.0</ele><time>2026-03-29T10:01:39Z</time></trkpt><trkpt lat="44.60554621655631" lon="8.721466647475832"><ele>310.0</ele><time>2026-03-29T10:01:41Z</time></trkpt><trkpt lat="44.60547428833524" lon="8.721539883857947"><ele>310.0</ele><time>2026-03-29T10:01:43Z</time></trkpt><trkpt lat="44.60545372929335" lon="8.721668042268469"><ele>310.0</ele><time>2026-03-29T10:01:45Z</time></trkpt><trkpt lat="44.60544874181395" lon="8.72182029429897"><ele>310.0</ele><time>2026-03-29T10:01:47Z</time></trkpt><trkpt lat="44.605516418223075" lon="8.721990062355623"><ele>310.0</ele><time>2026-03-29T10:01:49Z</time></trkpt><trkpt lat="44.605571797867675" lon="8.722092470154617"><ele>310.16666666666663</ele><time>2026-03-29T10:01:50Z</time></trkpt><trkpt lat="44.60562724859093" lon="8.722165189272804"><ele>310.3333333333333</ele><time>2026-03-29T10:01:51Z</time></trkpt><trkpt lat="44.60568178672645" lon="8.722224029564439"><ele>310.5</ele><time>2026-03-29T10:01:52Z</time></trkpt><trkpt lat="44.60574521463805" lon="8.722361209324228"><ele>310.6666666666667</ele><time>2026-03-29T10:01:54.001Z</time></trkpt><trkpt lat="44.60574655273061" lon="8.7224979569169"><ele>310.83333333333337</ele><time>2026-03-29T10:01:56.001Z</time></trkpt><trkpt lat="44.60571093123019" lon="8.722593104658095"><ele>311.0</ele><time>2026-03-29T10:01:57.001Z</time></trkpt><trkpt lat="44.60566783660888" lon="8.722715708120313"><ele>312.83333333333337</ele><time>2026-03-29T10:01:58.001Z</time></trkpt><trkpt lat="44.60564767266471" lon="8.722855374754182"><ele>314.6666666666667</ele><time>2026-03-29T10:01:59.001Z</time></trkpt><trkpt lat="44.60562643823565" lon="8.722953424552552"><ele>316.5</ele><time>2026-03-29T10:02:00.001Z</time></trkpt><trkpt lat="44.60560917896991" lon="8.723071774505145"><ele>318.3333333333333</ele><time>2026-03-29T10:02:01.001Z</time></trkpt><trkpt lat="44.605569385179066" lon="8.723160129984748"><ele>320.16666666666663</ele><time>2026-03-29T10:02:02.001Z</time></trkpt><trkpt lat="44.605535703507854" lon="8.723269181934201"><ele>322.0</ele><time>2026-03-29T10:02:03.001Z</time></trkpt><trkpt lat="44.605493261299074" lon="8.723356375582286"><ele>322.0</ele><time>2026-03-29T10:02:04.001Z</time></trkpt><trkpt lat="44.605449073460534" lon="8.723434235399145"><ele>322.0</ele><time>2026-03-29T10:02:05.001Z</time></trkpt><trkpt lat="44.60539414286959" lon="8.723505234844795"><ele>322.0</ele><time>2026-03-29T10:02:06.001Z</time></trkpt><trkpt lat="44.60534971133357" lon="8.723585123408105"><ele>322.0</ele><time>2026-03-29T10:02:07.001Z</time></trkpt><trkpt lat="44.60524610250775" lon="8.723698465965434"><ele>322.0</ele><time>2026-03-29T10:02:09.001Z</time></trkpt><trkpt lat="44.605176537030815" lon="8.723714007037808"><ele>322.0</ele><time>2026-03-29T10:02:10.001Z</time></trkpt><trkpt lat="44.605043992639054" lon="8.723767634906064"><ele>319.0</ele><time>2026-03-29T10:02:12.001Z</time></trkpt><trkpt lat="44.60498036150449" lon="8.723786799624886"><ele>316.0</ele><time>2026-03-29T10:02:13.001Z</time></trkpt><trkpt lat="44.6049191869843" lon="8.723828901193933"><ele>313.0</ele><time>2026-03-29T10:02:14.001Z</time></trkpt><trkpt lat="44.60482018269122" lon="8.72391407151067"><ele>310.0</ele><time>2026-03-29T10:02:16.001Z</time></trkpt><trkpt lat="44.60479155608857" lon="8.724035491535892"><ele>307.0</ele><time>2026-03-29T10:02:17.001Z</time></trkpt><trkpt lat="44.60481404287487" lon="8.724151168226312"><ele>304.0</ele><time>2026-03-29T10:02:18.001Z</time></trkpt><trkpt lat="44.60478421847488" lon="8.724234060521791"><ele>304.0</ele><time>2026-03-29T10:02:19.001Z</time></trkpt><trkpt lat="44.60473245249121" lon="8.724335992079284"><ele>304.0</ele><time>2026-03-29T10:02:21.001Z</time></trkpt><trkpt lat="44.60463041485936" lon="8.724289383091172"><ele>304.0</ele><time>2026-03-29T10:02:23.001Z</time></trkpt><trkpt lat="44.604568969724646" lon="8.724260234018105"><ele>304.0</ele><time>2026-03-29T10:02:24.001Z</time></trkpt><trkpt lat="44.604507410123524" lon="8.724210768774007"><ele>304.0</ele><time>2026-03-29T10:02:25.001Z</time></trkpt><trkpt lat="44.604435720141026" lon="8.724172230925472"><ele>304.0</ele><time>2026-03-29T10:02:26.001Z</time></trkpt><trkpt lat="44.60435856698772" lon="8.724169013624477"><ele>301.5</ele><time>2026-03-29T10:02:27.001Z</time></trkpt><trkpt lat="44.604275044032676" lon="8.724182857899832"><ele>299.0</ele><time>2026-03-29T10:02:28.001Z</time></trkpt><trkpt lat="44.60413789231402" lon="8.72418824938981"><ele>296.5</ele><time>2026-03-29T10:02:29.001Z</time></trkpt><trkpt lat="44.60399159716584" lon="8.724211002077647"><ele>294.0</ele><time>2026-03-29T10:02:30.001Z</time></trkpt><trkpt lat="44.60388475362419" lon="8.724259544363328"><ele>294.0</ele><time>2026-03-29T10:02:31.001Z</time></trkpt><trkpt lat="44.60378128924568" lon="8.72425878016381"><ele>294.0</ele><time>2026-03-29T10:02:32.001Z</time></trkpt><trkpt lat="44.60368931359993" lon="8.724279749374118"><ele>294.0</ele><time>2026-03-29T10:02:33.001Z</time></trkpt><trkpt lat="44.60360712425857" lon="8.724294046634364"><ele>294.0</ele><time>2026-03-29T10:02:34.001Z</time></trkpt><trkpt lat="44.60350288489737" lon="8.724311121505805"><ele>294.0</ele><time>2026-03-29T10:02:35.001Z</time></trkpt><trkpt lat="44.60339150629624" lon="8.7243717952362"><ele>297.8</ele><time>2026-03-29T10:02:36.001Z</time></trkpt><trkpt lat="44.60327593977553" lon="8.724410909302504"><ele>301.59999999999997</ele><time>2026-03-29T10:02:37.001Z</time></trkpt><trkpt lat="44.603183341684925" lon="8.724467410844444"><ele>305.4</ele><time>2026-03-29T10:02:38.001Z</time></trkpt><trkpt lat="44.6031096743148" lon="8.724528123598148"><ele>309.2</ele><time>2026-03-29T10:02:39.001Z</time></trkpt><trkpt lat="44.60300987425171" lon="8.724594003591069"><ele>313.0</ele><time>2026-03-29T10:02:41.001Z</time></trkpt><trkpt lat="44.6029463139129" lon="8.724680012380583"><ele>313.0</ele><time>2026-03-29T10:02:43.001Z</time></trkpt><trkpt lat="44.60294629198172" lon="8.724847625691151"><ele>313.0</ele><time>2026-03-29T10:02:45.001Z</time></trkpt><trkpt lat="44.602939643310485" lon="8.724938158094174"><ele>313.0</ele><time>2026-03-29T10:02:46.001Z</time></trkpt><trkpt lat="44.60289284230943" lon="8.725097645647503"><ele>313.0</ele><time>2026-03-29T10:02:48.001Z</time></trkpt><trkpt lat="44.602830688476416" lon="8.725129594586237"><ele>313.0</ele><time>2026-03-29T10:02:49.001Z</time></trkpt><trkpt lat="44.60274456468252" lon="8.72521196657224"><ele>312.6</ele><time>2026-03-29T10:02:51.001Z</time></trkpt><trkpt lat="44.602665906510865" lon="8.72525486806576"><ele>312.20000000000005</ele><time>2026-03-29T10:02:52.001Z</time></trkpt><trkpt lat="44.602579934745556" lon="8.725345340655728"><ele>311.8</ele><time>2026-03-29T10:02:54.001Z</time></trkpt><trkpt lat="44.60252538024392" lon="8.725450129476416"><ele>311.40000000000003</ele><time>2026-03-29T10:02:56Z</time></trkpt><trkpt lat="44.602399697601285" lon="8.725513788732815"><ele>311.0</ele><time>2026-03-29T10:02:58Z</time></trkpt><trkpt lat="44.602330633402666" lon="8.725543562006758"><ele>311.0</ele><time>2026-03-29T10:02:59Z</time></trkpt><trkpt lat="44.602251684697954" lon="8.725558549533568"><ele>311.0</ele><time>2026-03-29T10:03:00Z</time></trkpt><trkpt lat="44.60213185183035" lon="8.725586268689597"><ele>311.0</ele><time>2026-03-29T10:03:01Z</time></trkpt><trkpt lat="44.60199246774672" lon="8.72562177078097"><ele>311.0</ele><time>2026-03-29T10:03:02Z</time></trkpt><trkpt lat="44.60186573386218" lon="8.725666138946986"><ele>310.0</ele><time>2026-03-29T10:03:03Z</time></trkpt><trkpt lat="44.60175483517748" lon="8.725692586503463"><ele>309.0</ele><time>2026-03-29T10:03:04Z</time></trkpt><trkpt lat="44.60164035614308" lon="8.72571000793994"><ele>308.0</ele><time>2026-03-29T10:03:05Z</time></trkpt><trkpt lat="44.60154205896877" lon="8.725719344436687"><ele>307.0</ele><time>2026-03-29T10:03:06Z</time></trkpt><trkpt lat="44.60146021628834" lon="8.725735013814244"><ele>306.0</ele><time>2026-03-29T10:03:07Z</time></trkpt><trkpt lat="44.60137584496707" lon="8.725724274463037"><ele>306.0</ele><time>2026-03-29T10:03:08Z</time></trkpt><trkpt lat="44.601284702997276" lon="8.725695449605226"><ele>306.0</ele><time>2026-03-29T10:03:09Z</time></trkpt><trkpt lat="44.60120759583374" lon="8.72562666145722"><ele>306.0</ele><time>2026-03-29T10:03:10Z</time></trkpt><trkpt lat="44.60114831204644" lon="8.725591251282069"><ele>306.0</ele><time>2026-03-29T10:03:11Z</time></trkpt><trkpt lat="44.60108312693188" lon="8.72557382377594"><ele>306.0</ele><time>2026-03-29T10:03:12Z</time></trkpt><trkpt lat="44.60100782627363" lon="8.725587368304366"><ele>306.0</ele><time>2026-03-29T10:03:14Z</time></trkpt><trkpt lat="44.60092671309026" lon="8.725687094173873"><ele>305.8</ele><time>2026-03-29T10:03:16Z</time></trkpt><trkpt lat="44.60091174010544" lon="8.725785897811399"><ele>305.6</ele><time>2026-03-29T10:03:17Z</time></trkpt><trkpt lat="44.60087757263865" lon="8.725878376796004"><ele>305.4</ele><time>2026-03-29T10:03:18Z</time></trkpt><trkpt lat="44.6008594383194" lon="8.726027737752013"><ele>305.2</ele><time>2026-03-29T10:03:19Z</time></trkpt><trkpt lat="44.600838802741826" lon="8.726159596694886"><ele>305.0</ele><time>2026-03-29T10:03:20Z</time></trkpt><trkpt lat="44.60077347167288" lon="8.726316882933657"><ele>306.5</ele><time>2026-03-29T10:03:22Z</time></trkpt><trkpt lat="44.600710846382576" lon="8.726396808678645"><ele>308.0</ele><time>2026-03-29T10:03:23Z</time></trkpt><trkpt lat="44.60062361590357" lon="8.726448063709778"><ele>309.5</ele><time>2026-03-29T10:03:24Z</time></trkpt><trkpt lat="44.6005249869183" lon="8.726507263718858"><ele>311.0</ele><time>2026-03-29T10:03:25Z</time></trkpt><trkpt lat="44.600455709366" lon="8.726541752057194"><ele>312.5</ele><time>2026-03-29T10:03:26Z</time></trkpt><trkpt lat="44.6003875659675" lon="8.726575878125804"><ele>314.0</ele><time>2026-03-29T10:03:27Z</time></trkpt><trkpt lat="44.6002975365701" lon="8.726693795120367"><ele>314.0</ele><time>2026-03-29T10:03:29Z</time></trkpt><trkpt lat="44.600230340806895" lon="8.726783500841586"><ele>314.0</ele><time>2026-03-29T10:03:31Z</time></trkpt><trkpt lat="44.60020752638096" lon="8.72687136321389"><ele>314.0</ele><time>2026-03-29T10:03:32Z</time></trkpt><trkpt lat="44.600188446751766" lon="8.726965600670349"><ele>314.0</ele><time>2026-03-29T10:03:33Z</time></trkpt><trkpt lat="44.600141155015464" lon="8.727045912324623"><ele>314.0</ele><time>2026-03-29T10:03:34Z</time></trkpt><trkpt lat="44.60009677224341" lon="8.727135320230964"><ele>314.0</ele><time>2026-03-29T10:03:35Z</time></trkpt><trkpt lat="44.60005958006229" lon="8.727232794346781"><ele>315.71428571428567</ele><time>2026-03-29T10:03:36Z</time></trkpt><trkpt lat="44.60002986934015" lon="8.727335484552867"><ele>317.42857142857144</ele><time>2026-03-29T10:03:37Z</time></trkpt><trkpt lat="44.600009293033324" lon="8.72742784995465"><ele>319.1428571428571</ele><time>2026-03-29T10:03:38Z</time></trkpt><trkpt lat="44.599977885667634" lon="8.727511035545835"><ele>320.85714285714283</ele><time>2026-03-29T10:03:39Z</time></trkpt><trkpt lat="44.59993307115648" lon="8.727581123220764"><ele>322.57142857142856</ele><time>2026-03-29T10:03:40Z</time></trkpt><trkpt lat="44.59986939075911" lon="8.727623548055794"><ele>324.2857142857143</ele><time>2026-03-29T10:03:41Z</time></trkpt><trkpt lat="44.599792323414995" lon="8.727594858959147"><ele>326.0</ele><time>2026-03-29T10:03:42Z</time></trkpt><trkpt lat="44.59968869625292" lon="8.727640489691423"><ele>326.0</ele><time>2026-03-29T10:03:44Z</time></trkpt><trkpt lat="44.59961250561796" lon="8.727726841479162"><ele>326.0</ele><time>2026-03-29T10:03:46Z</time></trkpt><trkpt lat="44.59955974413631" lon="8.727805467058117"><ele>326.0</ele><time>2026-03-29T10:03:59.001Z</time></trkpt><trkpt lat="44.59975224511984" lon="8.728016327036002"><ele>326.0</ele><time>2026-03-29T10:04:15.001Z</time></trkpt><trkpt lat="44.59980524100146" lon="8.727881555428786"><ele>330.20000000000005</ele><time>2026-03-29T10:04:18.001Z</time></trkpt><trkpt lat="44.599885848094786" lon="8.727838594656163"><ele>334.40000000000003</ele><time>2026-03-29T10:04:20.001Z</time></trkpt><trkpt lat="44.59995684986651" lon="8.727929350344168"><ele>338.6</ele><time>2026-03-29T10:04:23.001Z</time></trkpt><trkpt lat="44.60002546990445" lon="8.72803130467351"><ele>342.8</ele><time>2026-03-29T10:04:25.001Z</time></trkpt><trkpt lat="44.600076419993435" lon="8.728088522502315"><ele>347.0</ele><time>2026-03-29T10:04:26.001Z</time></trkpt><trkpt lat="44.60018443195446" lon="8.728138470556825"><ele>347.0</ele><time>2026-03-29T10:04:28.001Z</time></trkpt><trkpt lat="44.60030778055767" lon="8.72816915950527"><ele>347.0</ele><time>2026-03-29T10:04:30.001Z</time></trkpt><trkpt lat="44.60041303515572" lon="8.728243925007018"><ele>347.0</ele><time>2026-03-29T10:04:32.001Z</time></trkpt><trkpt lat="44.60049354654713" lon="8.728250725139693"><ele>347.0</ele><time>2026-03-29T10:04:34.001Z</time></trkpt><trkpt lat="44.60060520756002" lon="8.728254538484478"><ele>347.0</ele><time>2026-03-29T10:04:36.001Z</time></trkpt><trkpt lat="44.600686623885004" lon="8.728351559588745"><ele>347.8</ele><time>2026-03-29T10:04:38.001Z</time></trkpt><trkpt lat="44.600763234308886" lon="8.728455417466858"><ele>348.6</ele><time>2026-03-29T10:04:40.001Z</time></trkpt><trkpt lat="44.600827211485935" lon="8.728586578842012"><ele>349.40000000000003</ele><time>2026-03-29T10:04:42.001Z</time></trkpt><trkpt lat="44.60091313665194" lon="8.72869796787634"><ele>350.20000000000005</ele><time>2026-03-29T10:04:44.001Z</time></trkpt><trkpt lat="44.600986311389974" lon="8.728775893110742"><ele>351.0</ele><time>2026-03-29T10:04:46.001Z</time></trkpt><trkpt lat="44.60103551004085" lon="8.728878655001381"><ele>354.1666666666667</ele><time>2026-03-29T10:04:48.001Z</time></trkpt><trkpt lat="44.60110185853689" lon="8.728898172646863"><ele>357.3333333333333</ele><time>2026-03-29T10:04:49.001Z</time></trkpt><trkpt lat="44.601198545535155" lon="8.728897302050104"><ele>360.5</ele><time>2026-03-29T10:04:50.001Z</time></trkpt><trkpt lat="44.60127415957686" lon="8.728883142243317"><ele>363.66666666666663</ele><time>2026-03-29T10:04:51.001Z</time></trkpt><trkpt lat="44.601352650109504" lon="8.728857777918082"><ele>366.8333333333333</ele><time>2026-03-29T10:04:52.001Z</time></trkpt><trkpt lat="44.60146390457191" lon="8.728806931218134"><ele>370.0</ele><time>2026-03-29T10:04:54.001Z</time></trkpt><trkpt lat="44.601532065142905" lon="8.728769366622682"><ele>370.0</ele><time>2026-03-29T10:04:55.001Z</time></trkpt><trkpt lat="44.601599153631426" lon="8.728730235030712"><ele>370.0</ele><time>2026-03-29T10:04:56.001Z</time></trkpt><trkpt lat="44.60167339772444" lon="8.728683603436908"><ele>370.0</ele><time>2026-03-29T10:04:57.001Z</time></trkpt><trkpt lat="44.601780925397314" lon="8.728596950849003"><ele>370.0</ele><time>2026-03-29T10:04:59.001Z</time></trkpt><trkpt lat="44.601841154560894" lon="8.728553336933052"><ele>370.0</ele><time>2026-03-29T10:05:00.001Z</time></trkpt><trkpt lat="44.601943487612125" lon="8.728474801003784"><ele>370.0</ele><time>2026-03-29T10:05:02.001Z</time></trkpt><trkpt lat="44.60206987951233" lon="8.728444528028334"><ele>370.0</ele><time>2026-03-29T10:05:04.001Z</time></trkpt><trkpt lat="44.6021339347156" lon="8.728444470813434"><ele>370.0</ele><time>2026-03-29T10:05:05.001Z</time></trkpt><trkpt lat="44.60222106182406" lon="8.728469631462918"><ele>370.0</ele><time>2026-03-29T10:05:06.001Z</time></trkpt><trkpt lat="44.602290876267276" lon="8.728472000691768"><ele>370.0</ele><time>2026-03-29T10:05:07.001Z</time></trkpt><trkpt lat="44.60236839133919" lon="8.72849180929026"><ele>370.0</ele><time>2026-03-29T10:05:08.001Z</time></trkpt><trkpt lat="44.60243742463295" lon="8.728499632957393"><ele>370.0</ele><time>2026-03-29T10:05:09.001Z</time></trkpt><trkpt lat="44.60253318255539" lon="8.728518223400894"><ele>370.0</ele><time>2026-03-29T10:05:11.001Z</time></trkpt><trkpt lat="44.60265005709256" lon="8.72846046263067"><ele>370.0</ele><time>2026-03-29T10:05:13.001Z</time></trkpt><trkpt lat="44.60271009390374" lon="8.728423506933241"><ele>370.0</ele><time>2026-03-29T10:05:14.001Z</time></trkpt><trkpt lat="44.602819512998295" lon="8.728353596764176"><ele>370.0</ele><time>2026-03-29T10:05:16.001Z</time></trkpt><trkpt lat="44.60291531965171" lon="8.728310601700343"><ele>371.6</ele><time>2026-03-29T10:05:18.001Z</time></trkpt><trkpt lat="44.60302222269894" lon="8.728315223868362"><ele>373.2</ele><time>2026-03-29T10:05:20.001Z</time></trkpt><trkpt lat="44.603091018661516" lon="8.728310538752337"><ele>374.79999999999995</ele><time>2026-03-29T10:05:22Z</time></trkpt><trkpt lat="44.60319298007243" lon="8.728384917692251"><ele>376.4</ele><time>2026-03-29T10:05:24Z</time></trkpt><trkpt lat="44.603307450315825" lon="8.728456616330513"><ele>378.0</ele><time>2026-03-29T10:05:26Z</time></trkpt><trkpt lat="44.60338656666174" lon="8.728468243437819"><ele>378.0</ele><time>2026-03-29T10:05:27Z</time></trkpt><trkpt lat="44.603493448728514" lon="8.728536957152338"><ele>378.0</ele><time>2026-03-29T10:05:29Z</time></trkpt><trkpt lat="44.60358532675667" lon="8.728580168907094"><ele>378.0</ele><time>2026-03-29T10:05:30Z</time></trkpt><trkpt lat="44.603648897453674" lon="8.72862454723818"><ele>378.0</ele><time>2026-03-29T10:05:31Z</time></trkpt><trkpt lat="44.603714747334244" lon="8.72869446009103"><ele>378.0</ele><time>2026-03-29T10:05:32Z</time></trkpt><trkpt lat="44.60376764866847" lon="8.728778572989674"><ele>378.0</ele><time>2026-03-29T10:05:33Z</time></trkpt><trkpt lat="44.603826412510536" lon="8.728908262691657"><ele>379.3333333333333</ele><time>2026-03-29T10:05:35Z</time></trkpt><trkpt lat="44.60386170146145" lon="8.729028964166817"><ele>380.66666666666663</ele><time>2026-03-29T10:05:37Z</time></trkpt><trkpt lat="44.603894143858014" lon="8.729169981411738"><ele>382.0</ele><time>2026-03-29T10:05:39Z</time></trkpt><trkpt lat="44.60391943474598" lon="8.729308524808856"><ele>383.3333333333333</ele><time>2026-03-29T10:05:41Z</time></trkpt><trkpt lat="44.60396048802555" lon="8.729390371109531"><ele>384.66666666666663</ele><time>2026-03-29T10:05:42Z</time></trkpt><trkpt lat="44.60400843193399" lon="8.729456393376362"><ele>386.0</ele><time>2026-03-29T10:05:43.001Z</time></trkpt><trkpt lat="44.60403869999294" lon="8.729578775530603"><ele>387.66666666666663</ele><time>2026-03-29T10:05:45.001Z</time></trkpt><trkpt lat="44.60404178705396" lon="8.729670918255108"><ele>389.3333333333333</ele><time>2026-03-29T10:05:46.001Z</time></trkpt><trkpt lat="44.60403346044361" lon="8.729782488861732"><ele>391.0</ele><time>2026-03-29T10:05:47.001Z</time></trkpt><trkpt lat="44.604028680383955" lon="8.729882424598959"><ele>392.66666666666663</ele><time>2026-03-29T10:05:48.001Z</time></trkpt><trkpt lat="44.60406148334329" lon="8.730011912926315"><ele>394.3333333333333</ele><time>2026-03-29T10:05:50.001Z</time></trkpt><trkpt lat="44.60410715850801" lon="8.730077447742"><ele>396.0</ele><time>2026-03-29T10:05:51.001Z</time></trkpt><trkpt lat="44.604209234335144" lon="8.730145975992027"><ele>398.6666666666667</ele><time>2026-03-29T10:05:53.001Z</time></trkpt><trkpt lat="44.60424969463906" lon="8.730236650471454"><ele>401.33333333333337</ele><time>2026-03-29T10:05:54.001Z</time></trkpt><trkpt lat="44.60434857341091" lon="8.73032257498485"><ele>404.0</ele><time>2026-03-29T10:05:56.001Z</time></trkpt><trkpt lat="44.60442234777945" lon="8.73031410730077"><ele>406.6666666666667</ele><time>2026-03-29T10:05:57.001Z</time></trkpt><trkpt lat="44.60450312030522" lon="8.730326181595567"><ele>409.33333333333337</ele><time>2026-03-29T10:05:59.001Z</time></trkpt><trkpt lat="44.60459556377876" lon="8.730335273049217"><ele>412.0</ele><time>2026-03-29T10:06:00.001Z</time></trkpt><trkpt lat="44.604655861466874" lon="8.730303400815187"><ele>412.00000000000006</ele><time>2026-03-29T10:06:01.001Z</time></trkpt><trkpt lat="44.604737970768554" lon="8.730328475821402"><ele>412.0</ele><time>2026-03-29T10:06:03.001Z</time></trkpt><trkpt lat="44.60478579449198" lon="8.730388904067693"><ele>412.0</ele><time>2026-03-29T10:06:04.001Z</time></trkpt><trkpt lat="44.60481623050872" lon="8.730552034865326"><ele>412.0</ele><time>2026-03-29T10:06:06.001Z</time></trkpt><trkpt lat="44.604848962717966" lon="8.730677657426531"><ele>412.00000000000006</ele><time>2026-03-29T10:06:08.001Z</time></trkpt><trkpt lat="44.60486046452395" lon="8.730785106100551"><ele>412.0</ele><time>2026-03-29T10:06:10.001Z</time></trkpt><trkpt lat="44.60487669211473" lon="8.730923771962265"><ele>412.0</ele><time>2026-03-29T10:06:13.001Z</time></trkpt><trkpt lat="44.604915071510284" lon="8.731054788355792"><ele>412.0</ele><time>2026-03-29T10:06:15.001Z</time></trkpt><trkpt lat="44.60495999276362" lon="8.731179603502849"><ele>412.0</ele><time>2026-03-29T10:06:17.001Z</time></trkpt><trkpt lat="44.60501284446325" lon="8.73130169588456"><ele>412.0</ele><time>2026-03-29T10:06:19.001Z</time></trkpt><trkpt lat="44.60504308018018" lon="8.731380609920748"><ele>412.0</ele><time>2026-03-29T10:06:20.001Z</time></trkpt><trkpt lat="44.605104209491195" lon="8.731463392812104"><ele>413.20000000000005</ele><time>2026-03-29T10:06:21.001Z</time></trkpt><trkpt lat="44.60515992319626" lon="8.73158861383795"><ele>414.4</ele><time>2026-03-29T10:06:23.001Z</time></trkpt><trkpt lat="44.60523625193903" lon="8.731706414634864"><ele>415.6</ele><time>2026-03-29T10:06:25.001Z</time></trkpt><trkpt lat="44.60529004256717" lon="8.731852361122332"><ele>416.79999999999995</ele><time>2026-03-29T10:06:27.001Z</time></trkpt><trkpt lat="44.60528668170633" lon="8.731948643194585"><ele>418.0</ele><time>2026-03-29T10:06:28.001Z</time></trkpt><trkpt lat="44.60528449347704" lon="8.732045363398063"><ele>419.1666666666667</ele><time>2026-03-29T10:06:29.001Z</time></trkpt><trkpt lat="44.6052399840153" lon="8.732190791427787"><ele>420.33333333333337</ele><time>2026-03-29T10:06:31.001Z</time></trkpt><trkpt lat="44.60523061040192" lon="8.732301791728535"><ele>421.5</ele><time>2026-03-29T10:06:33.001Z</time></trkpt><trkpt lat="44.60523167553757" lon="8.732404893461823"><ele>422.66666666666663</ele><time>2026-03-29T10:06:34.001Z</time></trkpt><trkpt lat="44.60522827558346" lon="8.732498482557506"><ele>423.8333333333333</ele><time>2026-03-29T10:06:35.001Z</time></trkpt><trkpt lat="44.60520709539419" lon="8.732657332192439"><ele>425.0</ele><time>2026-03-29T10:06:37.001Z</time></trkpt><trkpt lat="44.605180292187654" lon="8.73280842247786"><ele>426.6</ele><time>2026-03-29T10:06:39.001Z</time></trkpt><trkpt lat="44.60522400868506" lon="8.732971073695671"><ele>428.2</ele><time>2026-03-29T10:06:41.001Z</time></trkpt><trkpt lat="44.605273256179665" lon="8.733061303538102"><ele>429.79999999999995</ele><time>2026-03-29T10:06:42.001Z</time></trkpt><trkpt lat="44.60531967770648" lon="8.73313810436771"><ele>431.4</ele><time>2026-03-29T10:06:43.001Z</time></trkpt><trkpt lat="44.605362115246876" lon="8.733234301273708"><ele>433.0</ele><time>2026-03-29T10:06:44.001Z</time></trkpt><trkpt lat="44.60546857975596" lon="8.733324973797643"><ele>433.00000000000006</ele><time>2026-03-29T10:06:46.001Z</time></trkpt><trkpt lat="44.60556331903009" lon="8.733405126689508"><ele>433.0</ele><time>2026-03-29T10:06:48.001Z</time></trkpt><trkpt lat="44.60566251338257" lon="8.733430354036255"><ele>433.0</ele><time>2026-03-29T10:06:49.001Z</time></trkpt><trkpt lat="44.60573214845391" lon="8.733480346955547"><ele>433.0</ele><time>2026-03-29T10:06:50.001Z</time></trkpt><trkpt lat="44.605795120937465" lon="8.73352662877375"><ele>433.00000000000006</ele><time>2026-03-29T10:06:51.001Z</time></trkpt><trkpt lat="44.605868121288765" lon="8.733539695211888"><ele>433.0</ele><time>2026-03-29T10:06:52.001Z</time></trkpt><trkpt lat="44.6059398633321" lon="8.733562633467116"><ele>434.33333333333337</ele><time>2026-03-29T10:06:53.001Z</time></trkpt><trkpt lat="44.606005234878744" lon="8.733589283151407"><ele>435.6666666666667</ele><time>2026-03-29T10:06:54.001Z</time></trkpt><trkpt lat="44.606080063401414" lon="8.73362937035414"><ele>437.0</ele><time>2026-03-29T10:06:55.001Z</time></trkpt><trkpt lat="44.60615464522252" lon="8.733630368940819"><ele>438.33333333333337</ele><time>2026-03-29T10:06:56.001Z</time></trkpt><trkpt lat="44.606252015643335" lon="8.733608451576936"><ele>439.6666666666667</ele><time>2026-03-29T10:06:58.001Z</time></trkpt><trkpt lat="44.60628008964699" lon="8.733697524299231"><ele>441.0</ele><time>2026-03-29T10:07:00.001Z</time></trkpt><trkpt lat="44.60627363519192" lon="8.733820915242209"><ele>441.0</ele><time>2026-03-29T10:07:02.001Z</time></trkpt><trkpt lat="44.60618294171585" lon="8.733905517597117"><ele>441.0</ele><time>2026-03-29T10:07:04.001Z</time></trkpt><trkpt lat="44.606119991855635" lon="8.73393236186052"><ele>441.0</ele><time>2026-03-29T10:07:05.001Z</time></trkpt><trkpt lat="44.606063155099996" lon="8.733974972914611"><ele>441.0</ele><time>2026-03-29T10:07:06.001Z</time></trkpt><trkpt lat="44.605998644044256" lon="8.734018576043917"><ele>441.0</ele><time>2026-03-29T10:07:07.001Z</time></trkpt><trkpt lat="44.60588419455028" lon="8.734094397105553"><ele>441.0</ele><time>2026-03-29T10:07:10.001Z</time></trkpt><trkpt lat="44.60581864710972" lon="8.73414301542036"><ele>441.8</ele><time>2026-03-29T10:07:11.001Z</time></trkpt><trkpt lat="44.60577212391466" lon="8.73421629518164"><ele>442.6</ele><time>2026-03-29T10:07:12.001Z</time></trkpt><trkpt lat="44.60567684609821" lon="8.734361655419415"><ele>443.4</ele><time>2026-03-29T10:07:14.001Z</time></trkpt><trkpt lat="44.605642605555545" lon="8.734471394427187"><ele>444.2</ele><time>2026-03-29T10:07:15.001Z</time></trkpt><trkpt lat="44.60559592559379" lon="8.734534936458832"><ele>445.0</ele><time>2026-03-29T10:07:16.001Z</time></trkpt><trkpt lat="44.60545512274418" lon="8.734594231998825"><ele>447.8</ele><time>2026-03-29T10:07:18.001Z</time></trkpt><trkpt lat="44.60530948256761" lon="8.734595217381713"><ele>450.6</ele><time>2026-03-29T10:07:20.001Z</time></trkpt><trkpt lat="44.60519502577598" lon="8.73460489908926"><ele>453.4</ele><time>2026-03-29T10:07:22Z</time></trkpt><trkpt lat="44.60512317335897" lon="8.734654680215508"><ele>456.2</ele><time>2026-03-29T10:07:24Z</time></trkpt><trkpt lat="44.605066421344226" lon="8.734694694874612"><ele>459.0</ele><time>2026-03-29T10:07:26Z</time></trkpt><trkpt lat="44.604975856595885" lon="8.734733813867484"><ele>459.0</ele><time>2026-03-29T10:07:28Z</time></trkpt><trkpt lat="44.60488864216128" lon="8.734745007470565"><ele>459.0</ele><time>2026-03-29T10:07:30Z</time></trkpt><trkpt lat="44.60481614727868" lon="8.734782599941799"><ele>459.0</ele><time>2026-03-29T10:07:33Z</time></trkpt><trkpt lat="44.604746176201346" lon="8.734821609634556"><ele>459.0</ele><time>2026-03-29T10:07:35Z</time></trkpt><trkpt lat="44.60467986199577" lon="8.734835904316125"><ele>459.0</ele><time>2026-03-29T10:07:36Z</time></trkpt><trkpt lat="44.60461968501975" lon="8.734866594880753"><ele>459.0</ele><time>2026-03-29T10:07:37Z</time></trkpt><trkpt lat="44.60455282810079" lon="8.734906422015635"><ele>459.0</ele><time>2026-03-29T10:07:38Z</time></trkpt><trkpt lat="44.60449488450974" lon="8.734942365726571"><ele>460.1666666666667</ele><time>2026-03-29T10:07:39Z</time></trkpt><trkpt lat="44.60443747304614" lon="8.734982713428751"><ele>461.33333333333337</ele><time>2026-03-29T10:07:40Z</time></trkpt><trkpt lat="44.60437257229045" lon="8.735038757141064"><ele>462.5</ele><time>2026-03-29T10:07:41Z</time></trkpt><trkpt lat="44.604283091483765" lon="8.735116338784213"><ele>463.6666666666667</ele><time>2026-03-29T10:07:43Z</time></trkpt><trkpt lat="44.60419738950152" lon="8.735225816886746"><ele>464.83333333333337</ele><time>2026-03-29T10:07:45Z</time></trkpt><trkpt lat="44.604146365899894" lon="8.735284129584839"><ele>466.0</ele><time>2026-03-29T10:07:46Z</time></trkpt><trkpt lat="44.60411225085364" lon="8.735459260274792"><ele>466.0</ele><time>2026-03-29T10:07:48Z</time></trkpt><trkpt lat="44.604047054395856" lon="8.735626493369391"><ele>466.0</ele><time>2026-03-29T10:07:50Z</time></trkpt><trkpt lat="44.60401347110566" lon="8.735703680950468"><ele>466.0</ele><time>2026-03-29T10:07:51Z</time></trkpt><trkpt lat="44.60397970037274" lon="8.735798745572296"><ele>466.0</ele><time>2026-03-29T10:07:52Z</time></trkpt><trkpt lat="44.603945884874655" lon="8.735904215896158"><ele>466.0</ele><time>2026-03-29T10:07:53Z</time></trkpt><trkpt lat="44.603902874746694" lon="8.736073847738917"><ele>465.7142857142857</ele><time>2026-03-29T10:07:55Z</time></trkpt><trkpt lat="44.60389200209697" lon="8.736164314695106"><ele>465.42857142857144</ele><time>2026-03-29T10:07:56Z</time></trkpt><trkpt lat="44.60390737405423" lon="8.736276116370863"><ele>465.14285714285717</ele><time>2026-03-29T10:07:58Z</time></trkpt><trkpt lat="44.603928183222244" lon="8.736376518239028"><ele>464.8571428571429</ele><time>2026-03-29T10:07:59Z</time></trkpt><trkpt lat="44.60396701487218" lon="8.736490490781982"><ele>464.57142857142856</ele><time>2026-03-29T10:08:01Z</time></trkpt><trkpt lat="44.60393885258272" lon="8.73657698818373"><ele>464.28571428571433</ele><time>2026-03-29T10:08:04Z</time></trkpt><trkpt lat="44.603913037354985" lon="8.736664655606743"><ele>464.00000000000006</ele><time>2026-03-29T10:08:19Z</time></trkpt><trkpt lat="44.60387160305668" lon="8.736740467918617"><ele>463.99999999999994</ele><time>2026-03-29T10:08:21Z</time></trkpt><trkpt lat="44.60382860373142" lon="8.736840191092677"><ele>464.0</ele><time>2026-03-29T10:08:23Z</time></trkpt><trkpt lat="44.60377067810802" lon="8.736952586040585"><ele>464.0</ele><time>2026-03-29T10:08:25Z</time></trkpt><trkpt lat="44.60371470143777" lon="8.737019280240114"><ele>464.0</ele><time>2026-03-29T10:08:26.001Z</time></trkpt><trkpt lat="44.60368800325788" lon="8.737110536205762"><ele>463.99999999999994</ele><time>2026-03-29T10:08:27.001Z</time></trkpt><trkpt lat="44.603650928621725" lon="8.737207379083056"><ele>464.0</ele><time>2026-03-29T10:08:28.001Z</time></trkpt><trkpt lat="44.60360780674211" lon="8.73728558876444"><ele>466.66666666666663</ele><time>2026-03-29T10:08:29.001Z</time></trkpt><trkpt lat="44.60355971130082" lon="8.737344896303762"><ele>469.3333333333333</ele><time>2026-03-29T10:08:30.001Z</time></trkpt><trkpt lat="44.60349296529288" lon="8.737399665139183"><ele>472.0</ele><time>2026-03-29T10:08:31.001Z</time></trkpt><trkpt lat="44.603426916079414" lon="8.737463336022946"><ele>474.66666666666663</ele><time>2026-03-29T10:08:32.001Z</time></trkpt><trkpt lat="44.60333178070505" lon="8.737538889204151"><ele>477.3333333333333</ele><time>2026-03-29T10:08:34.001Z</time></trkpt><trkpt lat="44.60327539785714" lon="8.737650739690267"><ele>480.0</ele><time>2026-03-29T10:08:36.001Z</time></trkpt><trkpt lat="44.60324376129022" lon="8.73779352661384"><ele>481.8</ele><time>2026-03-29T10:08:38.001Z</time></trkpt><trkpt lat="44.60327612160059" lon="8.737954440274372"><ele>483.6</ele><time>2026-03-29T10:08:40.001Z</time></trkpt><trkpt lat="44.60335886520373" lon="8.738045479431165"><ele>485.4</ele><time>2026-03-29T10:08:42.001Z</time></trkpt><trkpt lat="44.60340417697936" lon="8.738171255196132"><ele>487.2</ele><time>2026-03-29T10:08:44.001Z</time></trkpt><trkpt lat="44.60343287817926" lon="8.738282499274522"><ele>489.0</ele><time>2026-03-29T10:08:46.001Z</time></trkpt><trkpt lat="44.60343490012494" lon="8.738377027643898"><ele>489.0</ele><time>2026-03-29T10:08:47.001Z</time></trkpt><trkpt lat="44.603441580490376" lon="8.73853647874364"><ele>489.0</ele><time>2026-03-29T10:08:49.001Z</time></trkpt><trkpt lat="44.603406869729724" lon="8.738668985549998"><ele>489.0</ele><time>2026-03-29T10:08:51.001Z</time></trkpt><trkpt lat="44.60334350211861" lon="8.738770469433323"><ele>489.0</ele><time>2026-03-29T10:08:53.001Z</time></trkpt><trkpt lat="44.60323930336691" lon="8.738808889672336"><ele>489.0</ele><time>2026-03-29T10:08:55.001Z</time></trkpt><trkpt lat="44.6031537246981" lon="8.738852327524981"><ele>490.6</ele><time>2026-03-29T10:08:57.001Z</time></trkpt><trkpt lat="44.603075327077335" lon="8.738905884679957"><ele>492.2</ele><time>2026-03-29T10:08:59.001Z</time></trkpt><trkpt lat="44.603006808143824" lon="8.738999067217994"><ele>493.80000000000007</ele><time>2026-03-29T10:09:01.001Z</time></trkpt><trkpt lat="44.602929857199626" lon="8.73911958834934"><ele>495.40000000000003</ele><time>2026-03-29T10:09:03.001Z</time></trkpt><trkpt lat="44.60288188398644" lon="8.739188217695652"><ele>497.0</ele><time>2026-03-29T10:09:04.001Z</time></trkpt><trkpt lat="44.6027963524977" lon="8.739273003378138"><ele>500.20000000000005</ele><time>2026-03-29T10:09:06.001Z</time></trkpt><trkpt lat="44.602702608770194" lon="8.739341579709968"><ele>503.40000000000003</ele><time>2026-03-29T10:09:08.001Z</time></trkpt><trkpt lat="44.60261440657026" lon="8.739378033466194"><ele>506.59999999999997</ele><time>2026-03-29T10:09:10.001Z</time></trkpt><trkpt lat="44.60250514364903" lon="8.739400054562102"><ele>509.79999999999995</ele><time>2026-03-29T10:09:12.001Z</time></trkpt><trkpt lat="44.60239905421767" lon="8.73935925836839"><ele>513.0</ele><time>2026-03-29T10:09:14Z</time></trkpt><trkpt lat="44.60231092606929" lon="8.739301562590102"><ele>513.0</ele><time>2026-03-29T10:09:16Z</time></trkpt><trkpt lat="44.60225707383961" lon="8.739222377746266"><ele>513.0</ele><time>2026-03-29T10:09:18Z</time></trkpt><trkpt lat="44.60228542190029" lon="8.739091116629618"><ele>513.0</ele><time>2026-03-29T10:09:20Z</time></trkpt><trkpt lat="44.60239351072111" lon="8.739014743331477"><ele>513.0</ele><time>2026-03-29T10:09:22Z</time></trkpt><trkpt lat="44.602459531419015" lon="8.738903303384546"><ele>513.0</ele><time>2026-03-29T10:09:24Z</time></trkpt><trkpt lat="44.60245880632294" lon="8.738744588157635"><ele>513.0</ele><time>2026-03-29T10:09:26Z</time></trkpt><trkpt lat="44.60241557449705" lon="8.738600883737954"><ele>513.0</ele><time>2026-03-29T10:09:28Z</time></trkpt><trkpt lat="44.60233887231839" lon="8.738486933506183"><ele>513.0</ele><time>2026-03-29T10:09:30Z</time></trkpt><trkpt lat="44.60229787211515" lon="8.738410897929038"><ele>513.0</ele><time>2026-03-29T10:09:31Z</time></trkpt><trkpt lat="44.601952981174435" lon="8.73775449951205"><ele>524.5</ele><time>2026-03-29T10:09:43.224Z</time></trkpt><trkpt lat="44.60157922473233" lon="8.73760515824774"><ele>536.0</ele><time>2026-03-29T10:09:49.149Z</time></trkpt><trkpt lat="44.60149460941982" lon="8.737591831021698"><ele>536.0</ele><time>2026-03-29T10:09:50.153Z</time></trkpt><trkpt lat="44.6014413709425" lon="8.7375312976168"><ele>536.0</ele><time>2026-03-29T10:09:52.168Z</time></trkpt><trkpt lat="44.60136879731066" lon="8.73759545986642"><ele>536.0</ele><time>2026-03-29T10:09:53.168Z</time></trkpt><trkpt lat="44.60129607323883" lon="8.737722549581555"><ele>536.0</ele><time>2026-03-29T10:09:55.165Z</time></trkpt><trkpt lat="44.601277017094205" lon="8.73784368362333"><ele>536.0</ele><time>2026-03-29T10:09:56.166Z</time></trkpt><trkpt lat="44.60126096386891" lon="8.737962394960912"><ele>536.0</ele><time>2026-03-29T10:09:59.169Z</time></trkpt><trkpt lat="44.6012331873086" lon="8.738067941247813"><ele>536.0</ele><time>2026-03-29T10:10:01.168Z</time></trkpt><trkpt lat="44.601135529734734" lon="8.738030323064448"><ele>536.0</ele><time>2026-03-29T10:10:03Z</time></trkpt><trkpt lat="44.601183263827444" lon="8.737849456042095"><ele>536.0</ele><time>2026-03-29T10:10:06Z</time></trkpt><trkpt lat="44.60119735370688" lon="8.737679967243327"><ele>536.0</ele><time>2026-03-29T10:10:07Z</time></trkpt><trkpt lat="44.60119765622756" lon="8.737544520102965"><ele>536.0</ele><time>2026-03-29T10:10:08Z</time></trkpt><trkpt lat="44.60118935157143" lon="8.737455829253772"><ele>536.0</ele><time>2026-03-29T10:10:09Z</time></trkpt><trkpt lat="44.60117359412971" lon="8.737340955482912"><ele>536.0</ele><time>2026-03-29T10:10:10Z</time></trkpt><trkpt lat="44.6011472826854" lon="8.737227913668951"><ele>536.0</ele><time>2026-03-29T10:10:11Z</time></trkpt><trkpt lat="44.6011355598493" lon="8.737117888561484"><ele>536.0</ele><time>2026-03-29T10:10:12Z</time></trkpt><trkpt lat="44.601114636792005" lon="8.737012390334112"><ele>536.0</ele><time>2026-03-29T10:10:13Z</time></trkpt><trkpt lat="44.601087076787636" lon="8.736915652251975"><ele>540.5</ele><time>2026-03-29T10:10:14Z</time></trkpt><trkpt lat="44.60106589628815" lon="8.736800319472232"><ele>545.0</ele><time>2026-03-29T10:10:15Z</time></trkpt><trkpt lat="44.60101951224019" lon="8.73669900368664"><ele>549.5</ele><time>2026-03-29T10:10:16Z</time></trkpt><trkpt lat="44.60098953683505" lon="8.736589696118996"><ele>554.0</ele><time>2026-03-29T10:10:17Z</time></trkpt><trkpt lat="44.60095232347299" lon="8.736501672118067"><ele>558.5</ele><time>2026-03-29T10:10:18Z</time></trkpt><trkpt lat="44.60091671861056" lon="8.736427295248937"><ele>563.0</ele><time>2026-03-29T10:10:19Z</time></trkpt><trkpt lat="44.60087000043359" lon="8.736335834432868"><ele>563.0</ele><time>2026-03-29T10:10:20Z</time></trkpt><trkpt lat="44.60080111959263" lon="8.736239956728438"><ele>563.0</ele><time>2026-03-29T10:10:22Z</time></trkpt><trkpt lat="44.600721522777086" lon="8.736230114522384"><ele>563.0</ele><time>2026-03-29T10:10:23Z</time></trkpt><trkpt lat="44.60063795049279" lon="8.736216211103608"><ele>563.0</ele><time>2026-03-29T10:10:24Z</time></trkpt><trkpt lat="44.60055824745028" lon="8.736191126881936"><ele>563.0</ele><time>2026-03-29T10:10:25Z</time></trkpt><trkpt lat="44.600481311312315" lon="8.736166913483192"><ele>563.0</ele><time>2026-03-29T10:10:26Z</time></trkpt><trkpt lat="44.60036706385074" lon="8.7361402027049"><ele>565.8</ele><time>2026-03-29T10:10:28Z</time></trkpt><trkpt lat="44.60026292995739" lon="8.736140011065741"><ele>568.5999999999999</ele><time>2026-03-29T10:10:30Z</time></trkpt><trkpt lat="44.60015047748614" lon="8.736132906518968"><ele>571.4000000000001</ele><time>2026-03-29T10:10:32Z</time></trkpt><trkpt lat="44.60000095418595" lon="8.736099249688742"><ele>574.2</ele><time>2026-03-29T10:10:34Z</time></trkpt><trkpt lat="44.599919995121994" lon="8.7360886459722"><ele>577.0</ele><time>2026-03-29T10:10:35Z</time></trkpt><trkpt lat="44.599843432682995" lon="8.736074947583937"><ele>577.8000000000001</ele><time>2026-03-29T10:10:36Z</time></trkpt><trkpt lat="44.59972213499893" lon="8.736041403784998"><ele>578.6</ele><time>2026-03-29T10:10:38Z</time></trkpt><trkpt lat="44.59965466233413" lon="8.736000217420163"><ele>579.4000000000001</ele><time>2026-03-29T10:10:39Z</time></trkpt><trkpt lat="44.59955876545523" lon="8.735938643701294"><ele>580.2</ele><time>2026-03-29T10:10:41Z</time></trkpt><trkpt lat="44.59944662610857" lon="8.735876724177553"><ele>581.0</ele><time>2026-03-29T10:10:43Z</time></trkpt><trkpt lat="44.59938183599527" lon="8.73588775167153"><ele>581.0</ele><time>2026-03-29T10:10:44Z</time></trkpt><trkpt lat="44.59932328886363" lon="8.73596316365802"><ele>581.0</ele><time>2026-03-29T10:10:45Z</time></trkpt><trkpt lat="44.5992790012734" lon="8.736031009835113"><ele>581.0</ele><time>2026-03-29T10:10:46Z</time></trkpt><trkpt lat="44.59923178069083" lon="8.736116225225668"><ele>581.0</ele><time>2026-03-29T10:10:47Z</time></trkpt><trkpt lat="44.5991856877135" lon="8.73619270061986"><ele>581.0</ele><time>2026-03-29T10:10:48Z</time></trkpt><trkpt lat="44.59907242016143" lon="8.736189835122099"><ele>581.0</ele><time>2026-03-29T10:10:50Z</time></trkpt><trkpt lat="44.598979405914875" lon="8.736204173746776"><ele>582.0</ele><time>2026-03-29T10:10:51Z</time></trkpt><trkpt lat="44.59889809948071" lon="8.736248701234189"><ele>583.0</ele><time>2026-03-29T10:10:52Z</time></trkpt><trkpt lat="44.59880255351224" lon="8.736252801705332"><ele>584.0</ele><time>2026-03-29T10:10:53Z</time></trkpt><trkpt lat="44.598744160623454" lon="8.736292597195785"><ele>585.0</ele><time>2026-03-29T10:10:54Z</time></trkpt><trkpt lat="44.598637684382446" lon="8.73633821457586"><ele>586.0</ele><time>2026-03-29T10:10:56Z</time></trkpt><trkpt lat="44.59858222194061" lon="8.736383270561939"><ele>587.0</ele><time>2026-03-29T10:10:57Z</time></trkpt><trkpt lat="44.59851507500928" lon="8.736400288281018"><ele>588.5</ele><time>2026-03-29T10:10:58Z</time></trkpt><trkpt lat="44.59845102946866" lon="8.736425324991668"><ele>590.0</ele><time>2026-03-29T10:10:59Z</time></trkpt><trkpt lat="44.59838135239027" lon="8.736475433719125"><ele>591.5</ele><time>2026-03-29T10:11:00Z</time></trkpt><trkpt lat="44.59830093538335" lon="8.73652713682"><ele>593.0</ele><time>2026-03-29T10:11:01Z</time></trkpt><trkpt lat="44.59823222774402" lon="8.736561122629595"><ele>594.5</ele><time>2026-03-29T10:11:02Z</time></trkpt><trkpt lat="44.59815481367559" lon="8.73659921873319"><ele>596.0</ele><time>2026-03-29T10:11:03Z</time></trkpt><trkpt lat="44.59805185273725" lon="8.736654002367475"><ele>596.0</ele><time>2026-03-29T10:11:05Z</time></trkpt><trkpt lat="44.59796758305852" lon="8.736728382697525"><ele>596.0</ele><time>2026-03-29T10:11:07Z</time></trkpt><trkpt lat="44.59790095014662" lon="8.736819306714741"><ele>596.0</ele><time>2026-03-29T10:11:09Z</time></trkpt><trkpt lat="44.59784772047882" lon="8.736964064051461"><ele>596.0</ele><time>2026-03-29T10:11:11Z</time></trkpt><trkpt lat="44.597805444794766" lon="8.737048349032545"><ele>596.0</ele><time>2026-03-29T10:11:14Z</time></trkpt><trkpt lat="44.59772246191947" lon="8.737054880713062"><ele>596.1666666666666</ele><time>2026-03-29T10:11:17Z</time></trkpt><trkpt lat="44.59765013776855" lon="8.737056833463775"><ele>596.3333333333333</ele><time>2026-03-29T10:11:18Z</time></trkpt><trkpt lat="44.59757867342502" lon="8.73705881152207"><ele>596.5</ele><time>2026-03-29T10:11:19Z</time></trkpt><trkpt lat="44.59751370773761" lon="8.737050718457295"><ele>596.6666666666666</ele><time>2026-03-29T10:11:20Z</time></trkpt><trkpt lat="44.59744105359258" lon="8.737093789667885"><ele>596.8333333333334</ele><time>2026-03-29T10:11:22Z</time></trkpt><trkpt lat="44.59736891239045" lon="8.737181461614346"><ele>597.0</ele><time>2026-03-29T10:11:24Z</time></trkpt><trkpt lat="44.59728357936248" lon="8.73723533024875"><ele>597.0</ele><time>2026-03-29T10:11:26Z</time></trkpt><trkpt lat="44.59723720683593" lon="8.737303465754737"><ele>597.0</ele><time>2026-03-29T10:11:28Z</time></trkpt><trkpt lat="44.59717505933829" lon="8.737359362105902"><ele>597.0</ele><time>2026-03-29T10:11:31.001Z</time></trkpt><trkpt lat="44.59709010208833" lon="8.737451007576894"><ele>597.0</ele><time>2026-03-29T10:11:33.001Z</time></trkpt><trkpt lat="44.5970206041207" lon="8.737541026840148"><ele>597.0</ele><time>2026-03-29T10:11:35.001Z</time></trkpt><trkpt lat="44.59695656699422" lon="8.737657771147136"><ele>597.0</ele><time>2026-03-29T10:11:37.001Z</time></trkpt><trkpt lat="44.596933509274145" lon="8.737753806914725"><ele>594.4</ele><time>2026-03-29T10:11:38.001Z</time></trkpt><trkpt lat="44.596922154844066" lon="8.737854018790415"><ele>591.8000000000001</ele><time>2026-03-29T10:11:39.001Z</time></trkpt><trkpt lat="44.59691287666715" lon="8.738017482652264"><ele>589.2</ele><time>2026-03-29T10:11:41.001Z</time></trkpt><trkpt lat="44.5968889314346" lon="8.738167873821702"><ele>586.6</ele><time>2026-03-29T10:11:43.001Z</time></trkpt><trkpt lat="44.59687243508335" lon="8.738289814677273"><ele>584.0</ele><time>2026-03-29T10:11:45.001Z</time></trkpt><trkpt lat="44.59683976501832" lon="8.738413418376595"><ele>584.0</ele><time>2026-03-29T10:11:47.001Z</time></trkpt><trkpt lat="44.59682753820801" lon="8.738538631608648"><ele>584.0</ele><time>2026-03-29T10:11:49.001Z</time></trkpt><trkpt lat="44.59682956078709" lon="8.738676404587489"><ele>584.0</ele><time>2026-03-29T10:11:51.001Z</time></trkpt><trkpt lat="44.59679942649634" lon="8.738786895196926"><ele>584.0</ele><time>2026-03-29T10:11:54.001Z</time></trkpt><trkpt lat="44.5967376444968" lon="8.7388793493804"><ele>584.0</ele><time>2026-03-29T10:11:56.001Z</time></trkpt><trkpt lat="44.59665155771766" lon="8.738954914968566"><ele>585.1666666666666</ele><time>2026-03-29T10:11:58.001Z</time></trkpt><trkpt lat="44.5965682354577" lon="8.73890658125967"><ele>586.3333333333333</ele><time>2026-03-29T10:12:00.001Z</time></trkpt><trkpt lat="44.596485704585156" lon="8.738828422672901"><ele>587.5</ele><time>2026-03-29T10:12:01.999Z</time></trkpt><trkpt lat="44.596388889288235" lon="8.73883180525865"><ele>588.6666666666666</ele><time>2026-03-29T10:12:03.999Z</time></trkpt><trkpt lat="44.59634018308287" lon="8.738908338836323"><ele>589.8333333333334</ele><time>2026-03-29T10:12:04.999Z</time></trkpt><trkpt lat="44.5962772202498" lon="8.738961395997626"><ele>591.0</ele><time>2026-03-29T10:12:06Z</time></trkpt><trkpt lat="44.59623160573777" lon="8.739074083118405"><ele>591.0</ele><time>2026-03-29T10:12:08Z</time></trkpt><trkpt lat="44.59621064816887" lon="8.739178231025715"><ele>591.0</ele><time>2026-03-29T10:12:10Z</time></trkpt><trkpt lat="44.596178918321826" lon="8.739259351699896"><ele>591.0</ele><time>2026-03-29T10:12:12Z</time></trkpt><trkpt lat="44.59610987916272" lon="8.739304781263709"><ele>591.0</ele><time>2026-03-29T10:12:14Z</time></trkpt><trkpt lat="44.5960165945819" lon="8.739298655076345"><ele>591.0</ele><time>2026-03-29T10:12:16Z</time></trkpt><trkpt lat="44.59591703169922" lon="8.73928128387747"><ele>591.0</ele><time>2026-03-29T10:12:18Z</time></trkpt><trkpt lat="44.59583401998527" lon="8.73924765305916"><ele>589.6</ele><time>2026-03-29T10:12:20Z</time></trkpt><trkpt lat="44.595742644751375" lon="8.73926715122562"><ele>588.2</ele><time>2026-03-29T10:12:22Z</time></trkpt><trkpt lat="44.59564829792961" lon="8.739321555919542"><ele>586.8</ele><time>2026-03-29T10:12:24Z</time></trkpt><trkpt lat="44.595565289904215" lon="8.739337616410126"><ele>585.4</ele><time>2026-03-29T10:12:26Z</time></trkpt><trkpt lat="44.59548732796969" lon="8.739445017839433"><ele>584.0</ele><time>2026-03-29T10:12:28Z</time></trkpt><trkpt lat="44.595410798653575" lon="8.739599574893047"><ele>587.6</ele><time>2026-03-29T10:12:30Z</time></trkpt><trkpt lat="44.595355979987716" lon="8.73966135531235"><ele>591.2</ele><time>2026-03-29T10:12:31Z</time></trkpt><trkpt lat="44.595256640823244" lon="8.739752840667133"><ele>594.8000000000001</ele><time>2026-03-29T10:12:33Z</time></trkpt><trkpt lat="44.595197201100056" lon="8.739869825896879"><ele>598.4</ele><time>2026-03-29T10:12:35Z</time></trkpt><trkpt lat="44.595112528986775" lon="8.739959149274458"><ele>602.0</ele><time>2026-03-29T10:12:37Z</time></trkpt><trkpt lat="44.59504951119448" lon="8.740019378319817"><ele>602.0</ele><time>2026-03-29T10:12:38Z</time></trkpt><trkpt lat="44.594994320511894" lon="8.740066467601604"><ele>602.0</ele><time>2026-03-29T10:12:39Z</time></trkpt><trkpt lat="44.59492439808044" lon="8.740104486056929"><ele>602.0</ele><time>2026-03-29T10:12:40Z</time></trkpt><trkpt lat="44.5948158020596" lon="8.740200867458835"><ele>602.0</ele><time>2026-03-29T10:12:42Z</time></trkpt><trkpt lat="44.59470093107469" lon="8.740270562457123"><ele>602.0</ele><time>2026-03-29T10:12:44Z</time></trkpt><trkpt lat="44.59460089068912" lon="8.740327230134175"><ele>603.3333333333333</ele><time>2026-03-29T10:12:46Z</time></trkpt><trkpt lat="44.594528399452855" lon="8.740376863224348"><ele>604.6666666666666</ele><time>2026-03-29T10:12:47Z</time></trkpt><trkpt lat="44.59444474419639" lon="8.740437233296419"><ele>606.0</ele><time>2026-03-29T10:12:48Z</time></trkpt><trkpt lat="44.59437665509622" lon="8.740481446554064"><ele>607.3333333333334</ele><time>2026-03-29T10:12:49Z</time></trkpt><trkpt lat="44.59430911185729" lon="8.74052315014085"><ele>608.6666666666667</ele><time>2026-03-29T10:12:50Z</time></trkpt><trkpt lat="44.59422943733401" lon="8.740563689879162"><ele>610.0</ele><time>2026-03-29T10:12:51Z</time></trkpt><trkpt lat="44.59415923765094" lon="8.740587958653713"><ele>610.0</ele><time>2026-03-29T10:12:52Z</time></trkpt><trkpt lat="44.59409099344989" lon="8.740634750567443"><ele>610.0</ele><time>2026-03-29T10:12:53Z</time></trkpt><trkpt lat="44.59402815424587" lon="8.740689143444886"><ele>610.0</ele><time>2026-03-29T10:12:54Z</time></trkpt><trkpt lat="44.593965417978595" lon="8.740751531012126"><ele>610.0</ele><time>2026-03-29T10:12:55Z</time></trkpt><trkpt lat="44.59390154790404" lon="8.740809189325875"><ele>610.0</ele><time>2026-03-29T10:12:56Z</time></trkpt><trkpt lat="44.59383667246653" lon="8.740869025296549"><ele>610.0</ele><time>2026-03-29T10:12:57Z</time></trkpt><trkpt lat="44.59378049864488" lon="8.740929231380175"><ele>610.0</ele><time>2026-03-29T10:12:58Z</time></trkpt><trkpt lat="44.59373443673578" lon="8.740994235731684"><ele>610.0</ele><time>2026-03-29T10:12:59Z</time></trkpt><trkpt lat="44.593690017284196" lon="8.741066128041467"><ele>610.0</ele><time>2026-03-29T10:13:00Z</time></trkpt><trkpt lat="44.59361464030377" lon="8.741207627287533"><ele>610.0</ele><time>2026-03-29T10:13:02Z</time></trkpt><trkpt lat="44.593543600108646" lon="8.74133231700681"><ele>610.0</ele><time>2026-03-29T10:13:04Z</time></trkpt><trkpt lat="44.59353805548725" lon="8.741483807278517"><ele>609.8</ele><time>2026-03-29T10:13:06Z</time></trkpt><trkpt lat="44.59353201422625" lon="8.741659611058987"><ele>609.6</ele><time>2026-03-29T10:13:08Z</time></trkpt><trkpt lat="44.59354265753753" lon="8.741750539539169"><ele>609.4</ele><time>2026-03-29T10:13:09Z</time></trkpt><trkpt lat="44.59353741757086" lon="8.741852443530757"><ele>609.2</ele><time>2026-03-29T10:13:10Z</time></trkpt><trkpt lat="44.593533385835585" lon="8.741997457906761"><ele>609.0</ele><time>2026-03-29T10:13:12Z</time></trkpt><trkpt lat="44.59354960059936" lon="8.742176453255441"><ele>609.0</ele><time>2026-03-29T10:13:14Z</time></trkpt><trkpt lat="44.593561308976064" lon="8.742323562382412"><ele>609.0</ele><time>2026-03-29T10:13:16Z</time></trkpt><trkpt lat="44.59350753653798" lon="8.742455806653616"><ele>609.0</ele><time>2026-03-29T10:13:18Z</time></trkpt><trkpt lat="44.59346432823347" lon="8.742520937445628"><ele>609.0</ele><time>2026-03-29T10:13:19Z</time></trkpt><trkpt lat="44.59339696989806" lon="8.742585855415122"><ele>609.0</ele><time>2026-03-29T10:13:20Z</time></trkpt><trkpt lat="44.59332470953206" lon="8.742643215667346"><ele>609.0</ele><time>2026-03-29T10:13:21Z</time></trkpt><trkpt lat="44.59326235128694" lon="8.742657500823082"><ele>613.3333333333334</ele><time>2026-03-29T10:13:22Z</time></trkpt><trkpt lat="44.5931890481168" lon="8.742795826385722"><ele>617.6666666666666</ele><time>2026-03-29T10:13:24Z</time></trkpt><trkpt lat="44.59315284199598" lon="8.74287971375163"><ele>622.0</ele><time>2026-03-29T10:13:25Z</time></trkpt><trkpt lat="44.59310092229925" lon="8.742954789233492"><ele>626.3333333333333</ele><time>2026-03-29T10:13:26Z</time></trkpt><trkpt lat="44.593030979701915" lon="8.743031634458244"><ele>630.6666666666666</ele><time>2026-03-29T10:13:27Z</time></trkpt><trkpt lat="44.59296599185636" lon="8.743087771175686"><ele>635.0</ele><time>2026-03-29T10:13:28Z</time></trkpt><trkpt lat="44.592902933597124" lon="8.743165736473369"><ele>635.0</ele><time>2026-03-29T10:13:29Z</time></trkpt><trkpt lat="44.59285041004697" lon="8.743230514156178"><ele>635.0</ele><time>2026-03-29T10:13:30Z</time></trkpt><trkpt lat="44.59276821594014" lon="8.743379213412858"><ele>635.0</ele><time>2026-03-29T10:13:32Z</time></trkpt><trkpt lat="44.5927072627397" lon="8.743445457494403"><ele>635.0</ele><time>2026-03-29T10:13:33Z</time></trkpt><trkpt lat="44.59264342288478" lon="8.743558762757527"><ele>635.0</ele><time>2026-03-29T10:13:35Z</time></trkpt><trkpt lat="44.59258613281889" lon="8.743681609654198"><ele>633.8</ele><time>2026-03-29T10:13:37Z</time></trkpt><trkpt lat="44.59249601753566" lon="8.743815078416862"><ele>632.6</ele><time>2026-03-29T10:13:39Z</time></trkpt><trkpt lat="44.59244625398099" lon="8.743875279704563"><ele>631.4</ele><time>2026-03-29T10:13:40Z</time></trkpt><trkpt lat="44.59236296249248" lon="8.743981875463332"><ele>630.2</ele><time>2026-03-29T10:13:42Z</time></trkpt><trkpt lat="44.59229930252887" lon="8.744092056978245"><ele>629.0</ele><time>2026-03-29T10:13:44Z</time></trkpt><trkpt lat="44.592203355365584" lon="8.744148164115085"><ele>629.0</ele><time>2026-03-29T10:13:46Z</time></trkpt><trkpt lat="44.59208796689265" lon="8.744223316377596"><ele>629.0</ele><time>2026-03-29T10:13:48Z</time></trkpt><trkpt lat="44.59202993783081" lon="8.744268403798912"><ele>629.0</ele><time>2026-03-29T10:13:49Z</time></trkpt><trkpt lat="44.59194121418965" lon="8.744326906068528"><ele>629.0</ele><time>2026-03-29T10:13:51Z</time></trkpt><trkpt lat="44.59186039353942" lon="8.744426902744113"><ele>629.0</ele><time>2026-03-29T10:13:53Z</time></trkpt><trkpt lat="44.591816694113206" lon="8.744492203285956"><ele>632.2</ele><time>2026-03-29T10:13:54Z</time></trkpt><trkpt lat="44.59176075256256" lon="8.744620253197564"><ele>635.4</ele><time>2026-03-29T10:13:56Z</time></trkpt><trkpt lat="44.59169021158347" lon="8.744700231513592"><ele>638.6</ele><time>2026-03-29T10:13:58Z</time></trkpt><trkpt lat="44.591569377416" lon="8.744712447059673"><ele>641.8</ele><time>2026-03-29T10:14:00Z</time></trkpt><trkpt lat="44.5915061625881" lon="8.744751639345603"><ele>645.0</ele><time>2026-03-29T10:14:02Z</time></trkpt><trkpt lat="44.59143425363225" lon="8.744875961114206"><ele>645.0</ele><time>2026-03-29T10:14:04Z</time></trkpt><trkpt lat="44.59138090848056" lon="8.744990260616799"><ele>645.0</ele><time>2026-03-29T10:14:06Z</time></trkpt><trkpt lat="44.59129384159105" lon="8.745050270617705"><ele>645.0</ele><time>2026-03-29T10:14:08Z</time></trkpt><trkpt lat="44.5912207954254" lon="8.745123778675184"><ele>645.0</ele><time>2026-03-29T10:14:10Z</time></trkpt><trkpt lat="44.591145696217595" lon="8.74521430057541"><ele>645.0</ele><time>2026-03-29T10:14:12Z</time></trkpt><trkpt lat="44.59105578214956" lon="8.745274799806177"><ele>645.8</ele><time>2026-03-29T10:14:14Z</time></trkpt><trkpt lat="44.590968365750825" lon="8.74528922679449"><ele>646.6</ele><time>2026-03-29T10:14:16Z</time></trkpt><trkpt lat="44.59090209656758" lon="8.745238923557148"><ele>647.4000000000001</ele><time>2026-03-29T10:14:18Z</time></trkpt><trkpt lat="44.59078833273501" lon="8.745163389847711"><ele>648.2</ele><time>2026-03-29T10:14:20Z</time></trkpt><trkpt lat="44.59067638140731" lon="8.745160948644413"><ele>649.0</ele><time>2026-03-29T10:14:22Z</time></trkpt><trkpt lat="44.59057025950452" lon="8.745208823598427"><ele>649.0</ele><time>2026-03-29T10:14:24Z</time></trkpt><trkpt lat="44.590505310649725" lon="8.745330617865031"><ele>649.0</ele><time>2026-03-29T10:14:26Z</time></trkpt><trkpt lat="44.59047859759564" lon="8.745423839110083"><ele>649.0</ele><time>2026-03-29T10:14:27Z</time></trkpt><trkpt lat="44.59045209554706" lon="8.74552601642256"><ele>649.0</ele><time>2026-03-29T10:14:28Z</time></trkpt><trkpt lat="44.59042728801208" lon="8.745627745347885"><ele>649.0</ele><time>2026-03-29T10:14:29Z</time></trkpt><trkpt lat="44.590413046893616" lon="8.74572066845633"><ele>649.0</ele><time>2026-03-29T10:14:30Z</time></trkpt><trkpt lat="44.590390443844036" lon="8.745804542041975"><ele>649.4000000000001</ele><time>2026-03-29T10:14:31Z</time></trkpt><trkpt lat="44.590335154922656" lon="8.745924037337534"><ele>649.8</ele><time>2026-03-29T10:14:33Z</time></trkpt><trkpt lat="44.5902305627831" lon="8.745985626531185"><ele>650.2</ele><time>2026-03-29T10:14:35Z</time></trkpt><trkpt lat="44.59015813914892" lon="8.746076023516787"><ele>650.5999999999999</ele><time>2026-03-29T10:14:37Z</time></trkpt><trkpt lat="44.59011111954337" lon="8.746232627768519"><ele>651.0</ele><time>2026-03-29T10:14:39Z</time></trkpt><trkpt lat="44.5900465429709" lon="8.746359905495465"><ele>651.0</ele><time>2026-03-29T10:14:41Z</time></trkpt><trkpt lat="44.58996601456157" lon="8.74645546824044"><ele>651.0</ele><time>2026-03-29T10:14:43Z</time></trkpt><trkpt lat="44.589912823632574" lon="8.746505880422042"><ele>651.0</ele><time>2026-03-29T10:14:44Z</time></trkpt><trkpt lat="44.58985506839931" lon="8.746545846167605"><ele>651.0</ele><time>2026-03-29T10:14:45Z</time></trkpt><trkpt lat="44.589772963618366" lon="8.746632940725224"><ele>651.0</ele><time>2026-03-29T10:14:47Z</time></trkpt><trkpt lat="44.58971873342719" lon="8.746739789602255"><ele>651.0</ele><time>2026-03-29T10:14:49Z</time></trkpt><trkpt lat="44.58967618169758" lon="8.746814481818767"><ele>652.0</ele><time>2026-03-29T10:14:50Z</time></trkpt><trkpt lat="44.58961747121954" lon="8.746887911948654"><ele>653.0</ele><time>2026-03-29T10:14:52Z</time></trkpt><trkpt lat="44.58953738133785" lon="8.746996541540168"><ele>654.0</ele><time>2026-03-29T10:14:54Z</time></trkpt><trkpt lat="44.58948071012458" lon="8.747068152620221"><ele>655.0</ele><time>2026-03-29T10:14:55Z</time></trkpt><trkpt lat="44.58942588649272" lon="8.747138987454562"><ele>656.0</ele><time>2026-03-29T10:14:56Z</time></trkpt><trkpt lat="44.58937032344379" lon="8.747210929761712"><ele>657.0</ele><time>2026-03-29T10:14:57Z</time></trkpt><trkpt lat="44.589330316068086" lon="8.747287043140219"><ele>657.0</ele><time>2026-03-29T10:14:58Z</time></trkpt><trkpt lat="44.58928445592091" lon="8.74745631206418"><ele>657.0</ele><time>2026-03-29T10:15:00Z</time></trkpt><trkpt lat="44.58925955301634" lon="8.747539597678603"><ele>657.0</ele><time>2026-03-29T10:15:01Z</time></trkpt><trkpt lat="44.58919188828903" lon="8.747677934655758"><ele>657.0</ele><time>2026-03-29T10:15:03Z</time></trkpt><trkpt lat="44.58911041218357" lon="8.747723416421415"><ele>657.0</ele><time>2026-03-29T10:15:05Z</time></trkpt><trkpt lat="44.588999876364674" lon="8.747699582645955"><ele>657.0</ele><time>2026-03-29T10:15:07Z</time></trkpt><trkpt lat="44.58890313633178" lon="8.747667778726118"><ele>657.0</ele><time>2026-03-29T10:15:09Z</time></trkpt><trkpt lat="44.58882381058181" lon="8.747709381809894"><ele>657.0</ele><time>2026-03-29T10:15:11Z</time></trkpt><trkpt lat="44.58874242532927" lon="8.747842478830108"><ele>657.0</ele><time>2026-03-29T10:15:13Z</time></trkpt><trkpt lat="44.58867029695583" lon="8.747969397883866"><ele>657.0</ele><time>2026-03-29T10:15:15Z</time></trkpt><trkpt lat="44.588643413655106" lon="8.74810642661866"><ele>658.0</ele><time>2026-03-29T10:15:17Z</time></trkpt><trkpt lat="44.58864331822131" lon="8.748198896880428"><ele>659.0</ele><time>2026-03-29T10:15:19Z</time></trkpt><trkpt lat="44.58872415792669" lon="8.748270144412428"><ele>660.0</ele><time>2026-03-29T10:15:31Z</time></trkpt><trkpt lat="44.58877085627507" lon="8.748398376307849"><ele>661.0</ele><time>2026-03-29T10:15:33Z</time></trkpt><trkpt lat="44.58883147660704" lon="8.748521606082313"><ele>662.0</ele><time>2026-03-29T10:15:35Z</time></trkpt><trkpt lat="44.58888387923311" lon="8.7486318220907"><ele>662.0</ele><time>2026-03-29T10:15:37Z</time></trkpt><trkpt lat="44.588942212640205" lon="8.748766964104904"><ele>662.0</ele><time>2026-03-29T10:15:39Z</time></trkpt><trkpt lat="44.588968358743394" lon="8.748851365309847"><ele>662.0</ele><time>2026-03-29T10:15:40Z</time></trkpt><trkpt lat="44.5890010670666" lon="8.74893521518241"><ele>662.0</ele><time>2026-03-29T10:15:41Z</time></trkpt><trkpt lat="44.58905510524826" lon="8.749062901399617"><ele>662.0</ele><time>2026-03-29T10:15:43Z</time></trkpt><trkpt lat="44.58908418806141" lon="8.749202576702992"><ele>662.0</ele><time>2026-03-29T10:15:45Z</time></trkpt><trkpt lat="44.58906774755658" lon="8.74930029519557"><ele>662.0</ele><time>2026-03-29T10:15:47Z</time></trkpt><trkpt lat="44.58893903989817" lon="8.749393603054315"><ele>662.0</ele><time>2026-03-29T10:15:49.001Z</time></trkpt><trkpt lat="44.588886575738464" lon="8.74945266797063"><ele>662.0</ele><time>2026-03-29T10:15:50.001Z</time></trkpt><trkpt lat="44.5888222815025" lon="8.749540061828098"><ele>662.0</ele><time>2026-03-29T10:15:51.001Z</time></trkpt><trkpt lat="44.58876526209246" lon="8.74961504509718"><ele>663.5</ele><time>2026-03-29T10:15:52.001Z</time></trkpt><trkpt lat="44.588700956894435" lon="8.749673964278873"><ele>665.0</ele><time>2026-03-29T10:15:53.001Z</time></trkpt><trkpt lat="44.58860740402496" lon="8.749757576831865"><ele>666.5</ele><time>2026-03-29T10:15:55.001Z</time></trkpt><trkpt lat="44.58855447726007" lon="8.749824707512534"><ele>668.0</ele><time>2026-03-29T10:15:56.001Z</time></trkpt><trkpt lat="44.588510638487016" lon="8.749892688352361"><ele>669.5</ele><time>2026-03-29T10:15:57.001Z</time></trkpt><trkpt lat="44.588419641301776" lon="8.750001922411577"><ele>671.0</ele><time>2026-03-29T10:15:59.001Z</time></trkpt><trkpt lat="44.588302980493594" lon="8.750054646205536"><ele>668.8</ele><time>2026-03-29T10:16:01.001Z</time></trkpt><trkpt lat="44.58822678478859" lon="8.75006256426388"><ele>666.5999999999999</ele><time>2026-03-29T10:16:02.001Z</time></trkpt><trkpt lat="44.58813034442637" lon="8.750044809341476"><ele>664.4</ele><time>2026-03-29T10:16:04.001Z</time></trkpt><trkpt lat="44.58803338319177" lon="8.75007099565171"><ele>662.2</ele><time>2026-03-29T10:16:06.001Z</time></trkpt><trkpt lat="44.5879876177301" lon="8.750134116331083"><ele>660.0</ele><time>2026-03-29T10:16:07.001Z</time></trkpt><trkpt lat="44.5879308968011" lon="8.750280860784516"><ele>660.0</ele><time>2026-03-29T10:16:09.001Z</time></trkpt><trkpt lat="44.58788700755923" lon="8.75034591574554"><ele>660.0</ele><time>2026-03-29T10:16:10.001Z</time></trkpt><trkpt lat="44.58784702200117" lon="8.750419875055389"><ele>660.0</ele><time>2026-03-29T10:16:11.001Z</time></trkpt><trkpt lat="44.587814368982855" lon="8.750506684916392"><ele>660.0</ele><time>2026-03-29T10:16:12.001Z</time></trkpt><trkpt lat="44.58778518352487" lon="8.750646510319632"><ele>660.0</ele><time>2026-03-29T10:16:14Z</time></trkpt><trkpt lat="44.587819249904584" lon="8.7507850411778"><ele>660.0</ele><time>2026-03-29T10:16:16Z</time></trkpt><trkpt lat="44.58781875418305" lon="8.750884349778591"><ele>659.0</ele><time>2026-03-29T10:16:17Z</time></trkpt><trkpt lat="44.587829810189106" lon="8.75097575505412"><ele>658.0</ele><time>2026-03-29T10:16:18Z</time></trkpt><trkpt lat="44.58784399768428" lon="8.751151199874595"><ele>657.0</ele><time>2026-03-29T10:16:20Z</time></trkpt><trkpt lat="44.58780111166571" lon="8.751282222014256"><ele>656.0</ele><time>2026-03-29T10:16:22Z</time></trkpt><trkpt lat="44.58777231510218" lon="8.751388600222745"><ele>655.0</ele><time>2026-03-29T10:16:24Z</time></trkpt><trkpt lat="44.58774447397955" lon="8.751486132279803"><ele>655.0</ele><time>2026-03-29T10:16:26Z</time></trkpt><trkpt lat="44.58771425323735" lon="8.751582718955474"><ele>655.0</ele><time>2026-03-29T10:16:28Z</time></trkpt><trkpt lat="44.5876723083121" lon="8.751710627121165"><ele>655.0</ele><time>2026-03-29T10:16:30Z</time></trkpt><trkpt lat="44.5876200289607" lon="8.75186183715999"><ele>655.0</ele><time>2026-03-29T10:16:32Z</time></trkpt><trkpt lat="44.58754272174292" lon="8.751984215720467"><ele>655.0</ele><time>2026-03-29T10:16:34Z</time></trkpt><trkpt lat="44.58749439394309" lon="8.75207821860777"><ele>655.0</ele><time>2026-03-29T10:16:35Z</time></trkpt><trkpt lat="44.5874565030263" lon="8.752160077418225"><ele>655.0</ele><time>2026-03-29T10:16:36Z</time></trkpt><trkpt lat="44.587448040573" lon="8.752320067917468"><ele>655.0</ele><time>2026-03-29T10:16:38Z</time></trkpt><trkpt lat="44.58750361858344" lon="8.752464916128732"><ele>655.0</ele><time>2026-03-29T10:16:40Z</time></trkpt><trkpt lat="44.58760913652175" lon="8.752575159857878"><ele>655.0</ele><time>2026-03-29T10:16:42Z</time></trkpt><trkpt lat="44.58765704177604" lon="8.752640064441419"><ele>656.1666666666667</ele><time>2026-03-29T10:16:43Z</time></trkpt><trkpt lat="44.58768522950674" lon="8.752769064036736"><ele>657.3333333333334</ele><time>2026-03-29T10:16:45Z</time></trkpt><trkpt lat="44.587688153632726" lon="8.752898515731536"><ele>658.5</ele><time>2026-03-29T10:16:47Z</time></trkpt><trkpt lat="44.58766982747309" lon="8.752992421324409"><ele>659.6666666666666</ele><time>2026-03-29T10:16:49Z</time></trkpt><trkpt lat="44.58759269162522" lon="8.752996219226452"><ele>660.8333333333333</ele><time>2026-03-29T10:16:51Z</time></trkpt><trkpt lat="44.58748339662622" lon="8.752965330352566"><ele>662.0</ele><time>2026-03-29T10:16:53Z</time></trkpt><trkpt lat="44.58735380459362" lon="8.7530074948355"><ele>662.0</ele><time>2026-03-29T10:16:55Z</time></trkpt><trkpt lat="44.587294763136846" lon="8.753057799740668"><ele>662.0</ele><time>2026-03-29T10:16:56Z</time></trkpt><trkpt lat="44.58723485190677" lon="8.753135591088451"><ele>662.0</ele><time>2026-03-29T10:16:57Z</time></trkpt><trkpt lat="44.58717936990811" lon="8.753199705626857"><ele>662.0</ele><time>2026-03-29T10:16:58Z</time></trkpt><trkpt lat="44.58707243891941" lon="8.753253902625014"><ele>662.0</ele><time>2026-03-29T10:17:00Z</time></trkpt><trkpt lat="44.58700383146652" lon="8.753297207996054"><ele>662.0</ele><time>2026-03-29T10:17:01Z</time></trkpt><trkpt lat="44.58691622782747" lon="8.753308732194222"><ele>663.0</ele><time>2026-03-29T10:17:02Z</time></trkpt><trkpt lat="44.58682289878489" lon="8.753320514641002"><ele>664.0</ele><time>2026-03-29T10:17:03Z</time></trkpt><trkpt lat="44.586737726901504" lon="8.753341137411631"><ele>665.0</ele><time>2026-03-29T10:17:04Z</time></trkpt><trkpt lat="44.5866487894537" lon="8.753366118954169"><ele>666.0</ele><time>2026-03-29T10:17:05Z</time></trkpt><trkpt lat="44.58655732597802" lon="8.753400871046574"><ele>667.0</ele><time>2026-03-29T10:17:06Z</time></trkpt><trkpt lat="44.58648639387548" lon="8.753428935080514"><ele>668.0</ele><time>2026-03-29T10:17:07Z</time></trkpt><trkpt lat="44.586391467018075" lon="8.753471278884696"><ele>668.0</ele><time>2026-03-29T10:17:09Z</time></trkpt><trkpt lat="44.58633360980408" lon="8.753524465184869"><ele>668.0</ele><time>2026-03-29T10:17:10Z</time></trkpt><trkpt lat="44.58626718433754" lon="8.753595201864629"><ele>668.0</ele><time>2026-03-29T10:17:11Z</time></trkpt><trkpt lat="44.5862101472798" lon="8.753653305880643"><ele>668.0</ele><time>2026-03-29T10:17:12Z</time></trkpt><trkpt lat="44.58609884303501" lon="8.753691253026878"><ele>668.0</ele><time>2026-03-29T10:17:14Z</time></trkpt><trkpt lat="44.586015289164" lon="8.753654358034758"><ele>668.0</ele><time>2026-03-29T10:17:15Z</time></trkpt><trkpt lat="44.585928776511665" lon="8.753675387706744"><ele>671.4</ele><time>2026-03-29T10:17:16Z</time></trkpt><trkpt lat="44.585836195656285" lon="8.753682809547204"><ele>674.8</ele><time>2026-03-29T10:17:17Z</time></trkpt><trkpt lat="44.58574712852929" lon="8.753713568050708"><ele>678.2</ele><time>2026-03-29T10:17:18Z</time></trkpt><trkpt lat="44.58567197846383" lon="8.753739205892062"><ele>681.6</ele><time>2026-03-29T10:17:19Z</time></trkpt><trkpt lat="44.585563577549614" lon="8.753755391101002"><ele>685.0</ele><time>2026-03-29T10:17:21Z</time></trkpt><trkpt lat="44.58545451912446" lon="8.753828796520057"><ele>685.0</ele><time>2026-03-29T10:17:23Z</time></trkpt><trkpt lat="44.585400612408115" lon="8.753887956621822"><ele>685.0</ele><time>2026-03-29T10:17:24Z</time></trkpt><trkpt lat="44.58530957019507" lon="8.75393267724751"><ele>685.0</ele><time>2026-03-29T10:17:26Z</time></trkpt><trkpt lat="44.58518520628126" lon="8.753885762760957"><ele>685.0</ele><time>2026-03-29T10:17:28Z</time></trkpt><trkpt lat="44.58511020330806" lon="8.75384598623572"><ele>685.0</ele><time>2026-03-29T10:17:29Z</time></trkpt><trkpt lat="44.58504740823864" lon="8.753822805019846"><ele>685.0</ele><time>2026-03-29T10:17:30Z</time></trkpt><trkpt lat="44.584926534803984" lon="8.75382026372648"><ele>684.6666666666667</ele><time>2026-03-29T10:17:32Z</time></trkpt><trkpt lat="44.584857426613" lon="8.753846697675199"><ele>684.3333333333334</ele><time>2026-03-29T10:17:33.001Z</time></trkpt><trkpt lat="44.584792781592824" lon="8.753905566735575"><ele>684.0</ele><time>2026-03-29T10:17:34.001Z</time></trkpt><trkpt lat="44.58472325322356" lon="8.753990065562798"><ele>683.6666666666666</ele><time>2026-03-29T10:17:35.001Z</time></trkpt><trkpt lat="44.584644407070684" lon="8.754082728925354"><ele>683.3333333333333</ele><time>2026-03-29T10:17:36.001Z</time></trkpt><trkpt lat="44.584567569900194" lon="8.754167782086737"><ele>683.0</ele><time>2026-03-29T10:17:37.001Z</time></trkpt><trkpt lat="44.5845037931484" lon="8.754228648614186"><ele>683.0</ele><time>2026-03-29T10:17:38.001Z</time></trkpt><trkpt lat="44.58445116132008" lon="8.754289526956496"><ele>683.0</ele><time>2026-03-29T10:17:39.001Z</time></trkpt><trkpt lat="44.58439430366081" lon="8.754346540405004"><ele>683.0</ele><time>2026-03-29T10:17:40.001Z</time></trkpt><trkpt lat="44.584340736204865" lon="8.754402409540814"><ele>683.0</ele><time>2026-03-29T10:17:41.001Z</time></trkpt><trkpt lat="44.58429064189324" lon="8.754460040950645"><ele>683.0</ele><time>2026-03-29T10:17:42.001Z</time></trkpt><trkpt lat="44.584232137388824" lon="8.754525376300016"><ele>683.0</ele><time>2026-03-29T10:17:43.001Z</time></trkpt><trkpt lat="44.58418609742215" lon="8.754600252203012"><ele>683.0</ele><time>2026-03-29T10:17:44.001Z</time></trkpt><trkpt lat="44.584130285534734" lon="8.754651561863554"><ele>683.8</ele><time>2026-03-29T10:17:45.001Z</time></trkpt><trkpt lat="44.58404693721245" lon="8.754685065781645"><ele>684.5999999999999</ele><time>2026-03-29T10:17:46.001Z</time></trkpt><trkpt lat="44.58394186898085" lon="8.75472234588998"><ele>685.4000000000001</ele><time>2026-03-29T10:17:47.001Z</time></trkpt><trkpt lat="44.583818611109066" lon="8.754773143571144"><ele>686.2</ele><time>2026-03-29T10:17:48.001Z</time></trkpt><trkpt lat="44.583711515121195" lon="8.75480477969128"><ele>687.0</ele><time>2026-03-29T10:17:49.001Z</time></trkpt><trkpt lat="44.583608417851536" lon="8.754837996911768"><ele>688.3333333333334</ele><time>2026-03-29T10:17:50.001Z</time></trkpt><trkpt lat="44.583504252331494" lon="8.75485514760133"><ele>689.6666666666666</ele><time>2026-03-29T10:17:51.001Z</time></trkpt><trkpt lat="44.58341449351963" lon="8.754870873760195"><ele>691.0</ele><time>2026-03-29T10:17:52.001Z</time></trkpt><trkpt lat="44.58332645236128" lon="8.754878682357305"><ele>692.3333333333333</ele><time>2026-03-29T10:17:53.001Z</time></trkpt><trkpt lat="44.58323673227728" lon="8.754887827823497"><ele>693.6666666666666</ele><time>2026-03-29T10:17:54.001Z</time></trkpt><trkpt lat="44.58316748874153" lon="8.754903017198082"><ele>695.0</ele><time>2026-03-29T10:17:55.001Z</time></trkpt><trkpt lat="44.583098765400116" lon="8.754916988479366"><ele>695.0</ele><time>2026-03-29T10:17:56.001Z</time></trkpt><trkpt lat="44.583032690951356" lon="8.75497094293268"><ele>695.0</ele><time>2026-03-29T10:17:57.001Z</time></trkpt><trkpt lat="44.58297055361165" lon="8.755031137913404"><ele>695.0</ele><time>2026-03-29T10:17:58.001Z</time></trkpt><trkpt lat="44.582913960672606" lon="8.755105949863784"><ele>695.0</ele><time>2026-03-29T10:17:59.001Z</time></trkpt><trkpt lat="44.582844231577894" lon="8.755242544964073"><ele>695.0</ele><time>2026-03-29T10:18:01.001Z</time></trkpt><trkpt lat="44.58280255001061" lon="8.75534354951089"><ele>695.0</ele><time>2026-03-29T10:18:02.001Z</time></trkpt><trkpt lat="44.582750647152245" lon="8.755423197952922"><ele>698.4</ele><time>2026-03-29T10:18:03.001Z</time></trkpt><trkpt lat="44.58269181522452" lon="8.755498414191862"><ele>701.8</ele><time>2026-03-29T10:18:04.001Z</time></trkpt><trkpt lat="44.58259248068718" lon="8.755597074596484"><ele>705.2</ele><time>2026-03-29T10:18:06.001Z</time></trkpt><trkpt lat="44.58251484632298" lon="8.75568070707349"><ele>708.6</ele><time>2026-03-29T10:18:07.001Z</time></trkpt><trkpt lat="44.58242455503802" lon="8.755758007934357"><ele>712.0</ele><time>2026-03-29T10:18:09.001Z</time></trkpt><trkpt lat="44.58234632685454" lon="8.755804209281502"><ele>712.0</ele><time>2026-03-29T10:18:10.001Z</time></trkpt><trkpt lat="44.58227522664752" lon="8.755838937670168"><ele>712.0</ele><time>2026-03-29T10:18:11.001Z</time></trkpt><trkpt lat="44.58221338057807" lon="8.755869444255227"><ele>712.0</ele><time>2026-03-29T10:18:12.001Z</time></trkpt><trkpt lat="44.58213115574675" lon="8.75591125697115"><ele>712.0</ele><time>2026-03-29T10:18:13.001Z</time></trkpt><trkpt lat="44.58204220933624" lon="8.755972272961156"><ele>712.0</ele><time>2026-03-29T10:18:15.001Z</time></trkpt><trkpt lat="44.58190889297317" lon="8.756066848719877"><ele>713.3333333333334</ele><time>2026-03-29T10:18:17.001Z</time></trkpt><trkpt lat="44.58182429966155" lon="8.756126146710606"><ele>714.6666666666667</ele><time>2026-03-29T10:18:18.001Z</time></trkpt><trkpt lat="44.581737986565365" lon="8.756198671378112"><ele>716.0</ele><time>2026-03-29T10:18:19Z</time></trkpt><trkpt lat="44.58166707800653" lon="8.75625793892197"><ele>717.3333333333334</ele><time>2026-03-29T10:18:20Z</time></trkpt><trkpt lat="44.581604077333836" lon="8.756309006957732"><ele>718.6666666666666</ele><time>2026-03-29T10:18:21Z</time></trkpt><trkpt lat="44.581543529096955" lon="8.756348315798514"><ele>720.0</ele><time>2026-03-29T10:18:22Z</time></trkpt><trkpt lat="44.58147246544897" lon="8.756362808071044"><ele>720.0</ele><time>2026-03-29T10:18:23Z</time></trkpt><trkpt lat="44.58139073942344" lon="8.756385397451847"><ele>720.0</ele><time>2026-03-29T10:18:24Z</time></trkpt><trkpt lat="44.5813063397553" lon="8.756393157280034"><ele>720.0</ele><time>2026-03-29T10:18:25Z</time></trkpt><trkpt lat="44.58123604812736" lon="8.756402697206022"><ele>720.0</ele><time>2026-03-29T10:18:26Z</time></trkpt><trkpt lat="44.58114970073506" lon="8.756438125069772"><ele>720.0</ele><time>2026-03-29T10:18:27Z</time></trkpt><trkpt lat="44.58106542982656" lon="8.756427925066347"><ele>720.0</ele><time>2026-03-29T10:18:28Z</time></trkpt><trkpt lat="44.580996094591676" lon="8.756450478159957"><ele>723.0</ele><time>2026-03-29T10:18:29Z</time></trkpt><trkpt lat="44.58091756526161" lon="8.756445372820709"><ele>726.0</ele><time>2026-03-29T10:18:30Z</time></trkpt><trkpt lat="44.580845944477296" lon="8.756492032412641"><ele>729.0</ele><time>2026-03-29T10:18:31Z</time></trkpt><trkpt lat="44.58076513096186" lon="8.756615521265688"><ele>732.0</ele><time>2026-03-29T10:18:33Z</time></trkpt><trkpt lat="44.5807282806997" lon="8.756696463608092"><ele>735.0</ele><time>2026-03-29T10:18:34Z</time></trkpt><trkpt lat="44.58068577750867" lon="8.756793014767151"><ele>738.0</ele><time>2026-03-29T10:18:35Z</time></trkpt><trkpt lat="44.580633773156805" lon="8.75690343135004"><ele>738.0</ele><time>2026-03-29T10:18:36Z</time></trkpt><trkpt lat="44.580587095466264" lon="8.75698157335426"><ele>738.0</ele><time>2026-03-29T10:18:37Z</time></trkpt><trkpt lat="44.58053642488822" lon="8.757059206123952"><ele>738.0</ele><time>2026-03-29T10:18:38Z</time></trkpt><trkpt lat="44.58047160989191" lon="8.757118271822224"><ele>738.0</ele><time>2026-03-29T10:18:39Z</time></trkpt><trkpt lat="44.58039048411898" lon="8.757170712060507"><ele>738.0</ele><time>2026-03-29T10:18:40Z</time></trkpt><trkpt lat="44.58031717699285" lon="8.75721012035274"><ele>738.0</ele><time>2026-03-29T10:18:41Z</time></trkpt><trkpt lat="44.580214531782026" lon="8.757264972361247"><ele>741.0</ele><time>2026-03-29T10:18:42Z</time></trkpt><trkpt lat="44.580135584358324" lon="8.75732951339801"><ele>744.0</ele><time>2026-03-29T10:18:43Z</time></trkpt><trkpt lat="44.580056433576026" lon="8.75736034243267"><ele>747.0</ele><time>2026-03-29T10:18:44Z</time></trkpt><trkpt lat="44.57999746768999" lon="8.757400064874108"><ele>750.0</ele><time>2026-03-29T10:18:45Z</time></trkpt><trkpt lat="44.5799131587639" lon="8.757440563793523"><ele>753.0</ele><time>2026-03-29T10:18:46Z</time></trkpt><trkpt lat="44.5798323507827" lon="8.75748930260845"><ele>756.0</ele><time>2026-03-29T10:18:47Z</time></trkpt><trkpt lat="44.579745784301345" lon="8.757548117383896"><ele>756.0</ele><time>2026-03-29T10:18:48Z</time></trkpt><trkpt lat="44.57965974653397" lon="8.7576134696951"><ele>756.0</ele><time>2026-03-29T10:18:49Z</time></trkpt><trkpt lat="44.57954707511968" lon="8.757706685384289"><ele>756.0</ele><time>2026-03-29T10:18:51Z</time></trkpt><trkpt lat="44.579478930045966" lon="8.757811148614406"><ele>756.0</ele><time>2026-03-29T10:18:52Z</time></trkpt><trkpt lat="44.579431410576746" lon="8.757896647288772"><ele>756.0</ele><time>2026-03-29T10:18:53Z</time></trkpt><trkpt lat="44.579362555861515" lon="8.75797316647908"><ele>756.0</ele><time>2026-03-29T10:18:54Z</time></trkpt><trkpt lat="44.579265406668085" lon="8.758012961177101"><ele>756.0</ele><time>2026-03-29T10:18:55Z</time></trkpt><trkpt lat="44.57918413970681" lon="8.758062100282066"><ele>756.0</ele><time>2026-03-29T10:18:56Z</time></trkpt><trkpt lat="44.57911555835971" lon="8.758138254857046"><ele>756.0</ele><time>2026-03-29T10:18:57Z</time></trkpt><trkpt lat="44.57905255128716" lon="8.758221891190056"><ele>756.0</ele><time>2026-03-29T10:18:58Z</time></trkpt><trkpt lat="44.57899788073419" lon="8.758294510196041"><ele>756.0</ele><time>2026-03-29T10:18:59Z</time></trkpt><trkpt lat="44.57894707753036" lon="8.758365287536995"><ele>756.0</ele><time>2026-03-29T10:19:00Z</time></trkpt><trkpt lat="44.57889265335547" lon="8.75844176432453"><ele>756.0</ele><time>2026-03-29T10:19:01Z</time></trkpt><trkpt lat="44.578823598139664" lon="8.758539006951834"><ele>756.0</ele><time>2026-03-29T10:19:02Z</time></trkpt><trkpt lat="44.57875464425234" lon="8.758642898837302"><ele>756.0</ele><time>2026-03-29T10:19:03Z</time></trkpt><trkpt lat="44.578679164608275" lon="8.758723479784816"><ele>756.0</ele><time>2026-03-29T10:19:04Z</time></trkpt><trkpt lat="44.578631868251925" lon="8.758822974784525"><ele>757.0</ele><time>2026-03-29T10:19:05Z</time></trkpt><trkpt lat="44.578568858470724" lon="8.758895176776559"><ele>758.0</ele><time>2026-03-29T10:19:06Z</time></trkpt><trkpt lat="44.578502011956786" lon="8.75895818615434"><ele>759.0</ele><time>2026-03-29T10:19:07Z</time></trkpt><trkpt lat="44.578396050935154" lon="8.759030180683826"><ele>760.0</ele><time>2026-03-29T10:19:08Z</time></trkpt><trkpt lat="44.578308055042214" lon="8.759118081807001"><ele>761.0</ele><time>2026-03-29T10:19:09Z</time></trkpt><trkpt lat="44.578237213577594" lon="8.7591772581179"><ele>760.9999999999999</ele><time>2026-03-29T10:19:10Z</time></trkpt><trkpt lat="44.57817747422693" lon="8.759227935627557"><ele>761.0</ele><time>2026-03-29T10:19:11Z</time></trkpt><trkpt lat="44.57812195968994" lon="8.759282798035052"><ele>761.0</ele><time>2026-03-29T10:19:12Z</time></trkpt><trkpt lat="44.57806266667558" lon="8.759343588838119"><ele>761.0</ele><time>2026-03-29T10:19:13Z</time></trkpt><trkpt lat="44.577993744725255" lon="8.759404139826021"><ele>761.0</ele><time>2026-03-29T10:19:14Z</time></trkpt><trkpt lat="44.57793365147201" lon="8.759444362660764"><ele>760.9999999999999</ele><time>2026-03-29T10:19:15Z</time></trkpt><trkpt lat="44.577881400232506" lon="8.759495086332652"><ele>761.0</ele><time>2026-03-29T10:19:16Z</time></trkpt><trkpt lat="44.57782505251306" lon="8.759603293905396"><ele>764.8</ele><time>2026-03-29T10:19:18Z</time></trkpt><trkpt lat="44.57775212543004" lon="8.759704781588841"><ele>768.5999999999999</ele><time>2026-03-29T10:19:22Z</time></trkpt><trkpt lat="44.57773767707414" lon="8.759841622268612"><ele>772.4</ele><time>2026-03-29T10:19:24Z</time></trkpt><trkpt lat="44.577680935400295" lon="8.759995665514184"><ele>776.2</ele><time>2026-03-29T10:19:26Z</time></trkpt><trkpt lat="44.57765591515858" lon="8.76007947146908"><ele>780.0</ele><time>2026-03-29T10:19:28Z</time></trkpt><trkpt lat="44.57757146584231" lon="8.76010770896053"><ele>780.0</ele><time>2026-03-29T10:19:29Z</time></trkpt><trkpt lat="44.577494021004064" lon="8.760159492363796"><ele>780.0</ele><time>2026-03-29T10:19:30Z</time></trkpt><trkpt lat="44.57742958795427" lon="8.76018197475916"><ele>780.0</ele><time>2026-03-29T10:19:31Z</time></trkpt><trkpt lat="44.5773569126437" lon="8.760190683050062"><ele>780.0</ele><time>2026-03-29T10:19:32Z</time></trkpt><trkpt lat="44.57728801912951" lon="8.760228561487438"><ele>780.0</ele><time>2026-03-29T10:19:33Z</time></trkpt><trkpt lat="44.57718344717576" lon="8.760289138408076"><ele>780.0</ele><time>2026-03-29T10:19:35Z</time></trkpt><trkpt lat="44.57712491999978" lon="8.760356829658319"><ele>781.75</ele><time>2026-03-29T10:19:36Z</time></trkpt><trkpt lat="44.57700314216382" lon="8.760424441272097"><ele>783.5</ele><time>2026-03-29T10:19:38Z</time></trkpt><trkpt lat="44.576896743940345" lon="8.760509415214164"><ele>785.25</ele><time>2026-03-29T10:19:40Z</time></trkpt><trkpt lat="44.576784764609286" lon="8.760579507490203"><ele>787.0</ele><time>2026-03-29T10:19:42Z</time></trkpt><trkpt lat="44.57666910678982" lon="8.760610006011612"><ele>787.0</ele><time>2026-03-29T10:19:44Z</time></trkpt><trkpt lat="44.57655020061831" lon="8.760589767517478"><ele>787.0</ele><time>2026-03-29T10:19:46Z</time></trkpt><trkpt lat="44.57644149623939" lon="8.760543388587296"><ele>787.0</ele><time>2026-03-29T10:19:48Z</time></trkpt><trkpt lat="44.576340898515156" lon="8.760565378875796"><ele>787.0</ele><time>2026-03-29T10:19:50Z</time></trkpt><trkpt lat="44.576252032738324" lon="8.760659976270933"><ele>787.0</ele><time>2026-03-29T10:19:53Z</time></trkpt><trkpt lat="44.576194484499204" lon="8.760758298126284"><ele>786.6</ele><time>2026-03-29T10:19:56Z</time></trkpt><trkpt lat="44.576129403088075" lon="8.760863912084963"><ele>786.2</ele><time>2026-03-29T10:19:58.001Z</time></trkpt><trkpt lat="44.576103223515645" lon="8.760997476954103"><ele>785.8</ele><time>2026-03-29T10:20:00.001Z</time></trkpt><trkpt lat="44.576086683408526" lon="8.76110356905025"><ele>785.4</ele><time>2026-03-29T10:20:01.001Z</time></trkpt><trkpt lat="44.5760718448325" lon="8.761206574726828"><ele>785.0</ele><time>2026-03-29T10:20:02.001Z</time></trkpt><trkpt lat="44.57606500316152" lon="8.761375657922214"><ele>786.3333333333334</ele><time>2026-03-29T10:20:04.001Z</time></trkpt><trkpt lat="44.576063767171036" lon="8.761464101769974"><ele>787.6666666666667</ele><time>2026-03-29T10:20:05.001Z</time></trkpt><trkpt lat="44.57602862938241" lon="8.761646357430294"><ele>789.0</ele><time>2026-03-29T10:20:07.001Z</time></trkpt><trkpt lat="44.576003817042974" lon="8.761767892355781"><ele>790.3333333333333</ele><time>2026-03-29T10:20:08.001Z</time></trkpt><trkpt lat="44.57599183456406" lon="8.761875926329969"><ele>791.6666666666666</ele><time>2026-03-29T10:20:09.001Z</time></trkpt><trkpt lat="44.5759872973178" lon="8.761964850552777"><ele>793.0</ele><time>2026-03-29T10:20:10.001Z</time></trkpt><trkpt lat="44.575991847527085" lon="8.762065099588309"><ele>793.2</ele><time>2026-03-29T10:20:11.001Z</time></trkpt><trkpt lat="44.575997155212626" lon="8.762176069370994"><ele>793.4</ele><time>2026-03-29T10:20:12.001Z</time></trkpt><trkpt lat="44.57597950607008" lon="8.762343359782218"><ele>793.6</ele><time>2026-03-29T10:20:14.001Z</time></trkpt><trkpt lat="44.575939055188684" lon="8.762436030776033"><ele>793.8000000000001</ele><time>2026-03-29T10:20:15.001Z</time></trkpt><trkpt lat="44.575873769283696" lon="8.762591786353411"><ele>794.0</ele><time>2026-03-29T10:20:17.001Z</time></trkpt><trkpt lat="44.5758228016754" lon="8.762644158427234"><ele>794.0000000000001</ele><time>2026-03-29T10:20:18.001Z</time></trkpt><trkpt lat="44.57575884975596" lon="8.762661467118528"><ele>794.0</ele><time>2026-03-29T10:20:19.001Z</time></trkpt><trkpt lat="44.57569298893083" lon="8.762661707456479"><ele>794.0</ele><time>2026-03-29T10:20:20.001Z</time></trkpt><trkpt lat="44.57562268376184" lon="8.76267929293941"><ele>794.0</ele><time>2026-03-29T10:20:21.001Z</time></trkpt><trkpt lat="44.57554754655293" lon="8.762693595153728"><ele>794.0000000000001</ele><time>2026-03-29T10:20:22.001Z</time></trkpt><trkpt lat="44.575477521183004" lon="8.76268534045074"><ele>794.0</ele><time>2026-03-29T10:20:23.001Z</time></trkpt><trkpt lat="44.57536842926929" lon="8.762589483475422"><ele>794.8333333333334</ele><time>2026-03-29T10:20:25Z</time></trkpt><trkpt lat="44.575296508064284" lon="8.762559016111366"><ele>795.6666666666667</ele><time>2026-03-29T10:20:26Z</time></trkpt><trkpt lat="44.57523828333101" lon="8.76251050303901"><ele>796.5</ele><time>2026-03-29T10:20:27Z</time></trkpt><trkpt lat="44.57514755097448" lon="8.762454222533822"><ele>797.3333333333333</ele><time>2026-03-29T10:20:29Z</time></trkpt><trkpt lat="44.57507239685744" lon="8.762399748025944"><ele>798.1666666666666</ele><time>2026-03-29T10:20:31Z</time></trkpt><trkpt lat="44.5750013223331" lon="8.762363413896965"><ele>799.0</ele><time>2026-03-29T10:20:33Z</time></trkpt><trkpt lat="44.574931273290375" lon="8.762423181723792"><ele>798.9999999999999</ele><time>2026-03-29T10:20:34Z</time></trkpt><trkpt lat="44.57486765306284" lon="8.762502214044426"><ele>799.0</ele><time>2026-03-29T10:20:36Z</time></trkpt><trkpt lat="44.57482110157957" lon="8.762562721942194"><ele>799.0</ele><time>2026-03-29T10:20:37Z</time></trkpt><trkpt lat="44.57476256847703" lon="8.762630156404839"><ele>799.0</ele><time>2026-03-29T10:20:38Z</time></trkpt><trkpt lat="44.57472771158098" lon="8.762729164004396"><ele>798.9999999999999</ele><time>2026-03-29T10:20:39Z</time></trkpt><trkpt lat="44.5746687635091" lon="8.762793584028216"><ele>799.0</ele><time>2026-03-29T10:20:40Z</time></trkpt><trkpt lat="44.57461057658706" lon="8.762888303530751"><ele>799.2</ele><time>2026-03-29T10:20:41Z</time></trkpt><trkpt lat="44.57455319750826" lon="8.762972066056912"><ele>799.4000000000001</ele><time>2026-03-29T10:20:42Z</time></trkpt><trkpt lat="44.5744874558853" lon="8.763052807252192"><ele>799.6</ele><time>2026-03-29T10:20:43Z</time></trkpt><trkpt lat="44.57442932763788" lon="8.763133785103875"><ele>799.8</ele><time>2026-03-29T10:20:44Z</time></trkpt><trkpt lat="44.57434869432321" lon="8.763207454603693"><ele>800.0</ele><time>2026-03-29T10:20:45Z</time></trkpt><trkpt lat="44.57426918723637" lon="8.763297763936695"><ele>800.0</ele><time>2026-03-29T10:20:46Z</time></trkpt><trkpt lat="44.574186959685896" lon="8.763401266853334"><ele>800.0</ele><time>2026-03-29T10:20:47Z</time></trkpt><trkpt lat="44.57410636334197" lon="8.763496628176364"><ele>800.0</ele><time>2026-03-29T10:20:48Z</time></trkpt><trkpt lat="44.574038601004915" lon="8.763588807036832"><ele>800.0</ele><time>2026-03-29T10:20:49Z</time></trkpt><trkpt lat="44.57397368880958" lon="8.76368353612257"><ele>800.0</ele><time>2026-03-29T10:20:50Z</time></trkpt><trkpt lat="44.573915315380525" lon="8.763773378242524"><ele>800.8333333333334</ele><time>2026-03-29T10:20:51Z</time></trkpt><trkpt lat="44.57386206267562" lon="8.763864079646305"><ele>801.6666666666667</ele><time>2026-03-29T10:20:52Z</time></trkpt><trkpt lat="44.573815948777955" lon="8.763959194898746"><ele>802.5</ele><time>2026-03-29T10:20:53Z</time></trkpt><trkpt lat="44.57379108298454" lon="8.764050084948593"><ele>803.3333333333333</ele><time>2026-03-29T10:20:54Z</time></trkpt><trkpt lat="44.57378892478418" lon="8.764148415869307"><ele>804.1666666666666</ele><time>2026-03-29T10:20:55Z</time></trkpt><trkpt lat="44.57380215952084" lon="8.764267008330052"><ele>805.0</ele><time>2026-03-29T10:20:56Z</time></trkpt><trkpt lat="44.573818120424235" lon="8.764386561514462"><ele>804.9999999999999</ele><time>2026-03-29T10:20:57Z</time></trkpt><trkpt lat="44.57384607370562" lon="8.764496093692244"><ele>805.0</ele><time>2026-03-29T10:20:58Z</time></trkpt><trkpt lat="44.57387206126949" lon="8.764592913124025"><ele>805.0</ele><time>2026-03-29T10:20:59Z</time></trkpt><trkpt lat="44.57387747072235" lon="8.764691910824155"><ele>805.0</ele><time>2026-03-29T10:21:00Z</time></trkpt><trkpt lat="44.57389946883685" lon="8.764791174756242"><ele>804.9999999999999</ele><time>2026-03-29T10:21:01Z</time></trkpt><trkpt lat="44.57390489186304" lon="8.764891862641065"><ele>805.0</ele><time>2026-03-29T10:21:02Z</time></trkpt><trkpt lat="44.57388339386689" lon="8.765028343846287"><ele>804.9999999999999</ele><time>2026-03-29T10:21:04Z</time></trkpt><trkpt lat="44.5738006498259" lon="8.765150079138845"><ele>805.0</ele><time>2026-03-29T10:21:06Z</time></trkpt><trkpt lat="44.57375194758402" lon="8.765210859314708"><ele>805.0</ele><time>2026-03-29T10:21:07Z</time></trkpt><trkpt lat="44.57366292061139" lon="8.765312361644838"><ele>805.0</ele><time>2026-03-29T10:21:09Z</time></trkpt><trkpt lat="44.57361758246301" lon="8.765378638803053"><ele>804.9999999999999</ele><time>2026-03-29T10:21:10Z</time></trkpt><trkpt lat="44.57358398377026" lon="8.7654675608535"><ele>805.0</ele><time>2026-03-29T10:21:11Z</time></trkpt><trkpt lat="44.573530933908295" lon="8.765562718352276"><ele>804.2</ele><time>2026-03-29T10:21:12Z</time></trkpt><trkpt lat="44.57347309727753" lon="8.76564737392724"><ele>803.4</ele><time>2026-03-29T10:21:13Z</time></trkpt><trkpt lat="44.573442678971965" lon="8.765734804225323"><ele>802.5999999999999</ele><time>2026-03-29T10:21:14Z</time></trkpt><trkpt lat="44.57335486810792" lon="8.76581039487329"><ele>801.8</ele><time>2026-03-29T10:21:16Z</time></trkpt><trkpt lat="44.57325595040972" lon="8.765736553244365"><ele>801.0</ele><time>2026-03-29T10:21:18Z</time></trkpt><trkpt lat="44.57316076266559" lon="8.765711827452709"><ele>801.0</ele><time>2026-03-29T10:21:20Z</time></trkpt><trkpt lat="44.5730568768633" lon="8.765757353805075"><ele>801.0</ele><time>2026-03-29T10:21:22Z</time></trkpt><trkpt lat="44.57300576244375" lon="8.765829765982444"><ele>801.0</ele><time>2026-03-29T10:21:23Z</time></trkpt><trkpt lat="44.57295631217866" lon="8.765917540957584"><ele>801.0</ele><time>2026-03-29T10:21:24Z</time></trkpt><trkpt lat="44.572907928768245" lon="8.766018498246611"><ele>801.0</ele><time>2026-03-29T10:21:25Z</time></trkpt><trkpt lat="44.57286117295299" lon="8.766144800717516"><ele>801.0</ele><time>2026-03-29T10:21:26Z</time></trkpt><trkpt lat="44.572805400622826" lon="8.766259917114716"><ele>800.3333333333334</ele><time>2026-03-29T10:21:27Z</time></trkpt><trkpt lat="44.57276734159185" lon="8.766374715680946"><ele>799.6666666666667</ele><time>2026-03-29T10:21:28Z</time></trkpt><trkpt lat="44.57271960698123" lon="8.766462637466866"><ele>799.0</ele><time>2026-03-29T10:21:29Z</time></trkpt><trkpt lat="44.572671630958844" lon="8.766538439197886"><ele>798.3333333333334</ele><time>2026-03-29T10:21:30Z</time></trkpt><trkpt lat="44.57263028371584" lon="8.76661348315974"><ele>797.6666666666667</ele><time>2026-03-29T10:21:31Z</time></trkpt><trkpt lat="44.57261525730834" lon="8.766760785163553"><ele>797.0</ele><time>2026-03-29T10:21:33Z</time></trkpt><trkpt lat="44.572635121896944" lon="8.766853119577386"><ele>798.8</ele><time>2026-03-29T10:21:34Z</time></trkpt><trkpt lat="44.572670183124316" lon="8.766945383033988"><ele>800.6</ele><time>2026-03-29T10:21:35Z</time></trkpt><trkpt lat="44.572717137452116" lon="8.767045028162851"><ele>802.4</ele><time>2026-03-29T10:21:36Z</time></trkpt><trkpt lat="44.57271195284088" lon="8.767195148612895"><ele>804.1999999999999</ele><time>2026-03-29T10:21:38Z</time></trkpt><trkpt lat="44.57261472813417" lon="8.767296716584347"><ele>806.0</ele><time>2026-03-29T10:21:40Z</time></trkpt><trkpt lat="44.572537218723554" lon="8.76728106926279"><ele>806.0000000000001</ele><time>2026-03-29T10:21:41Z</time></trkpt><trkpt lat="44.57245039142725" lon="8.767277913354638"><ele>806.0</ele><time>2026-03-29T10:21:42Z</time></trkpt><trkpt lat="44.57237206198271" lon="8.767276994927542"><ele>806.0</ele><time>2026-03-29T10:21:43Z</time></trkpt><trkpt lat="44.57229207394317" lon="8.767269445061347"><ele>806.0</ele><time>2026-03-29T10:21:44Z</time></trkpt><trkpt lat="44.57219996078492" lon="8.767288596607637"><ele>806.0000000000001</ele><time>2026-03-29T10:21:45Z</time></trkpt><trkpt lat="44.57210605881415" lon="8.767294223319405"><ele>806.0</ele><time>2026-03-29T10:21:46Z</time></trkpt><trkpt lat="44.57201519281326" lon="8.767311590684901"><ele>805.1666666666667</ele><time>2026-03-29T10:21:47Z</time></trkpt><trkpt lat="44.57193882573483" lon="8.767318302221547"><ele>804.3333333333334</ele><time>2026-03-29T10:21:48Z</time></trkpt><trkpt lat="44.57185719029164" lon="8.767337675304333"><ele>803.5</ele><time>2026-03-29T10:21:49Z</time></trkpt><trkpt lat="44.57178863546755" lon="8.767360103388032"><ele>802.6666666666667</ele><time>2026-03-29T10:21:50Z</time></trkpt><trkpt lat="44.571716842567966" lon="8.767384187218827"><ele>801.8333333333334</ele><time>2026-03-29T10:21:51Z</time></trkpt><trkpt lat="44.571644728963086" lon="8.767407732097093"><ele>801.0</ele><time>2026-03-29T10:21:52Z</time></trkpt><trkpt lat="44.571573861129075" lon="8.767427502318013"><ele>801.0</ele><time>2026-03-29T10:21:53Z</time></trkpt><trkpt lat="44.571509367406165" lon="8.767460582464828"><ele>801.0</ele><time>2026-03-29T10:21:54Z</time></trkpt><trkpt lat="44.57141215811176" lon="8.767559791608063"><ele>801.0</ele><time>2026-03-29T10:21:56Z</time></trkpt><trkpt lat="44.57129053289504" lon="8.767623407876751"><ele>801.0</ele><time>2026-03-29T10:21:58Z</time></trkpt><trkpt lat="44.571158989937864" lon="8.76763977083005"><ele>801.1666666666666</ele><time>2026-03-29T10:22:00Z</time></trkpt><trkpt lat="44.571092712159924" lon="8.767624654068488"><ele>801.3333333333333</ele><time>2026-03-29T10:22:01Z</time></trkpt><trkpt lat="44.571025371190665" lon="8.767595080306966"><ele>801.5</ele><time>2026-03-29T10:22:02Z</time></trkpt><trkpt lat="44.57093634789654" lon="8.767561220872114"><ele>801.6666666666666</ele><time>2026-03-29T10:22:03Z</time></trkpt><trkpt lat="44.57086429799278" lon="8.767533817169642"><ele>801.8333333333333</ele><time>2026-03-29T10:22:04Z</time></trkpt><trkpt lat="44.570781842065315" lon="8.767502368477908"><ele>802.0</ele><time>2026-03-29T10:22:05Z</time></trkpt><trkpt lat="44.57068883820449" lon="8.767467722305149"><ele>801.9999999999999</ele><time>2026-03-29T10:22:06Z</time></trkpt><trkpt lat="44.57059576114219" lon="8.767434556160037"><ele>802.0</ele><time>2026-03-29T10:22:07.001Z</time></trkpt><trkpt lat="44.570495115377014" lon="8.76741898451809"><ele>802.0</ele><time>2026-03-29T10:22:08.001Z</time></trkpt><trkpt lat="44.57040831714364" lon="8.767376728737347"><ele>802.0</ele><time>2026-03-29T10:22:09.001Z</time></trkpt><trkpt lat="44.5703399367324" lon="8.767366093541831"><ele>801.9999999999999</ele><time>2026-03-29T10:22:10.001Z</time></trkpt><trkpt lat="44.57026694853635" lon="8.767376221526389"><ele>802.0</ele><time>2026-03-29T10:22:11.001Z</time></trkpt><trkpt lat="44.57019364172482" lon="8.767391592427693"><ele>802.4999999999999</ele><time>2026-03-29T10:22:12.001Z</time></trkpt><trkpt lat="44.570112609817954" lon="8.767431099181847"><ele>803.0</ele><time>2026-03-29T10:22:13.001Z</time></trkpt><trkpt lat="44.570039214062106" lon="8.767484768946286"><ele>803.5</ele><time>2026-03-29T10:22:14.001Z</time></trkpt><trkpt lat="44.56996519467045" lon="8.767515201267031"><ele>804.0</ele><time>2026-03-29T10:22:15.001Z</time></trkpt><trkpt lat="44.569892328609015" lon="8.76753900942238"><ele>804.4999999999999</ele><time>2026-03-29T10:22:16.001Z</time></trkpt><trkpt lat="44.56980994052801" lon="8.767529362713269"><ele>805.0</ele><time>2026-03-29T10:22:17.001Z</time></trkpt><trkpt lat="44.56973519301398" lon="8.767507875147729"><ele>804.9999999999999</ele><time>2026-03-29T10:22:18.001Z</time></trkpt><trkpt lat="44.56964563686008" lon="8.767471147512586"><ele>805.0</ele><time>2026-03-29T10:22:19.001Z</time></trkpt><trkpt lat="44.56956054984659" lon="8.767432873838526"><ele>805.0</ele><time>2026-03-29T10:22:20.001Z</time></trkpt><trkpt lat="44.56948080109648" lon="8.767420215823275"><ele>805.0</ele><time>2026-03-29T10:22:21.001Z</time></trkpt><trkpt lat="44.56937159302575" lon="8.76739374504095"><ele>804.9999999999999</ele><time>2026-03-29T10:22:23.001Z</time></trkpt><trkpt lat="44.56930734528227" lon="8.767416761565459"><ele>805.0</ele><time>2026-03-29T10:22:24.001Z</time></trkpt><trkpt lat="44.56921163382381" lon="8.76743756531402"><ele>805.1666666666666</ele><time>2026-03-29T10:22:26.001Z</time></trkpt><trkpt lat="44.569116078462024" lon="8.767414590754127"><ele>805.3333333333333</ele><time>2026-03-29T10:22:28.001Z</time></trkpt><trkpt lat="44.569049645972534" lon="8.767376288739388"><ele>805.5</ele><time>2026-03-29T10:22:29.001Z</time></trkpt><trkpt lat="44.56897231772535" lon="8.767335488789742"><ele>805.6666666666667</ele><time>2026-03-29T10:22:30.001Z</time></trkpt><trkpt lat="44.56891200120051" lon="8.767296981415386"><ele>805.8333333333334</ele><time>2026-03-29T10:22:31Z</time></trkpt><trkpt lat="44.56884800551874" lon="8.767261727383524"><ele>806.0</ele><time>2026-03-29T10:22:32Z</time></trkpt><trkpt lat="44.5687754748743" lon="8.767241644756602"><ele>806.0</ele><time>2026-03-29T10:22:33Z</time></trkpt><trkpt lat="44.568713093712695" lon="8.767204460263878"><ele>806.0</ele><time>2026-03-29T10:22:34Z</time></trkpt><trkpt lat="44.568634166825305" lon="8.767176710803998"><ele>806.0</ele><time>2026-03-29T10:22:35Z</time></trkpt><trkpt lat="44.568565758266665" lon="8.767173512429258"><ele>806.0</ele><time>2026-03-29T10:22:36Z</time></trkpt><trkpt lat="44.56849725843439" lon="8.767196614558788"><ele>806.0</ele><time>2026-03-29T10:22:37Z</time></trkpt><trkpt lat="44.56842499177462" lon="8.767247848812264"><ele>806.0</ele><time>2026-03-29T10:22:38Z</time></trkpt><trkpt lat="44.56836159788632" lon="8.767302939040144"><ele>806.0</ele><time>2026-03-29T10:22:39Z</time></trkpt><trkpt lat="44.568306973704935" lon="8.767373818701172"><ele>804.6666666666667</ele><time>2026-03-29T10:22:40Z</time></trkpt><trkpt lat="44.56825550689941" lon="8.767449648922861"><ele>803.3333333333334</ele><time>2026-03-29T10:22:41Z</time></trkpt><trkpt lat="44.56820465005341" lon="8.767543931293776"><ele>802.0</ele><time>2026-03-29T10:22:42Z</time></trkpt><trkpt lat="44.568145689538085" lon="8.76760132932247"><ele>800.6666666666667</ele><time>2026-03-29T10:22:43Z</time></trkpt><trkpt lat="44.568051636827434" lon="8.767684273644054"><ele>799.3333333333334</ele><time>2026-03-29T10:22:45Z</time></trkpt><trkpt lat="44.56796277822306" lon="8.767650505797803"><ele>798.0</ele><time>2026-03-29T10:22:47Z</time></trkpt><trkpt lat="44.567824044888056" lon="8.767632804590567"><ele>800.1666666666666</ele><time>2026-03-29T10:22:49Z</time></trkpt><trkpt lat="44.56773699240228" lon="8.76762258965996"><ele>802.3333333333333</ele><time>2026-03-29T10:22:50Z</time></trkpt><trkpt lat="44.567663204330394" lon="8.767635934437893"><ele>804.5</ele><time>2026-03-29T10:22:51Z</time></trkpt><trkpt lat="44.56760158641118" lon="8.767659678057594"><ele>806.6666666666666</ele><time>2026-03-29T10:22:52Z</time></trkpt><trkpt lat="44.567545218271036" lon="8.767708559749847"><ele>808.8333333333333</ele><time>2026-03-29T10:22:53Z</time></trkpt><trkpt lat="44.567469484481826" lon="8.767781381488895"><ele>811.0</ele><time>2026-03-29T10:22:54Z</time></trkpt><trkpt lat="44.56739324743142" lon="8.767850778333392"><ele>810.9999999999999</ele><time>2026-03-29T10:22:55Z</time></trkpt><trkpt lat="44.567331034094124" lon="8.76792297726346"><ele>811.0</ele><time>2026-03-29T10:22:56Z</time></trkpt><trkpt lat="44.56725853738842" lon="8.76796500341884"><ele>811.0</ele><time>2026-03-29T10:22:57Z</time></trkpt><trkpt lat="44.567198541104005" lon="8.768009969209183"><ele>811.0</ele><time>2026-03-29T10:22:58Z</time></trkpt><trkpt lat="44.56713479440725" lon="8.768050787321123"><ele>810.9999999999999</ele><time>2026-03-29T10:22:59Z</time></trkpt><trkpt lat="44.56706290096679" lon="8.768079704510995"><ele>811.0</ele><time>2026-03-29T10:23:00Z</time></trkpt><trkpt lat="44.566979163867934" lon="8.768098954173968"><ele>809.0</ele><time>2026-03-29T10:23:01Z</time></trkpt><trkpt lat="44.566872425779394" lon="8.768124548924966"><ele>807.0</ele><time>2026-03-29T10:23:02Z</time></trkpt><trkpt lat="44.56677993302249" lon="8.768149260018816"><ele>805.0</ele><time>2026-03-29T10:23:03Z</time></trkpt><trkpt lat="44.56669191288327" lon="8.768175306513324"><ele>803.0</ele><time>2026-03-29T10:23:04Z</time></trkpt><trkpt lat="44.56658572130477" lon="8.76822409849744"><ele>801.0</ele><time>2026-03-29T10:23:05Z</time></trkpt><trkpt lat="44.56650674591781" lon="8.7682768484466"><ele>801.0</ele><time>2026-03-29T10:23:06Z</time></trkpt><trkpt lat="44.56643989546872" lon="8.76833788140151"><ele>801.0</ele><time>2026-03-29T10:23:07Z</time></trkpt><trkpt lat="44.566353653648214" lon="8.768383271813214"><ele>801.0</ele><time>2026-03-29T10:23:08Z</time></trkpt><trkpt lat="44.56629305029242" lon="8.76843611555166"><ele>801.0</ele><time>2026-03-29T10:23:09Z</time></trkpt><trkpt lat="44.56620763965218" lon="8.76853085578701"><ele>801.0</ele><time>2026-03-29T10:23:11Z</time></trkpt><trkpt lat="44.56613802096999" lon="8.768569802225096"><ele>801.0</ele><time>2026-03-29T10:23:13Z</time></trkpt><trkpt lat="44.566092723598246" lon="8.768651997050739"><ele>801.1666666666666</ele><time>2026-03-29T10:23:14Z</time></trkpt><trkpt lat="44.56602791071806" lon="8.76871756016328"><ele>801.3333333333333</ele><time>2026-03-29T10:23:15Z</time></trkpt><trkpt lat="44.56593425266377" lon="8.76876805999477"><ele>801.5</ele><time>2026-03-29T10:23:16Z</time></trkpt><trkpt lat="44.56584315982211" lon="8.768791089941962"><ele>801.6666666666666</ele><time>2026-03-29T10:23:17Z</time></trkpt><trkpt lat="44.56576281014013" lon="8.76883026353337"><ele>801.8333333333333</ele><time>2026-03-29T10:23:18Z</time></trkpt><trkpt lat="44.565693271421694" lon="8.768867480756654"><ele>802.0</ele><time>2026-03-29T10:23:19Z</time></trkpt><trkpt lat="44.56562615071177" lon="8.76890542678894"><ele>802.0</ele><time>2026-03-29T10:23:20Z</time></trkpt><trkpt lat="44.565576205652185" lon="8.768964710635853"><ele>802.0</ele><time>2026-03-29T10:23:21Z</time></trkpt><trkpt lat="44.56548161188173" lon="8.769042793121786"><ele>802.0</ele><time>2026-03-29T10:23:23Z</time></trkpt><trkpt lat="44.565397262441586" lon="8.769147931967051"><ele>802.0</ele><time>2026-03-29T10:23:25Z</time></trkpt><trkpt lat="44.5653234136862" lon="8.769233007759047"><ele>802.0</ele><time>2026-03-29T10:23:27Z</time></trkpt><trkpt lat="44.56523199742324" lon="8.769323337954342"><ele>799.4000000000001</ele><time>2026-03-29T10:23:29Z</time></trkpt><trkpt lat="44.56514064929345" lon="8.769383348484274"><ele>796.8000000000001</ele><time>2026-03-29T10:23:31Z</time></trkpt><trkpt lat="44.56501640735999" lon="8.769437265412716"><ele>794.2</ele><time>2026-03-29T10:23:33Z</time></trkpt><trkpt lat="44.56489937323609" lon="8.769476525108349"><ele>791.6</ele><time>2026-03-29T10:23:35Z</time></trkpt><trkpt lat="44.56483739118281" lon="8.769495376554262"><ele>789.0</ele><time>2026-03-29T10:23:36Z</time></trkpt><trkpt lat="44.56471511096048" lon="8.769524841559512"><ele>789.0</ele><time>2026-03-29T10:23:38Z</time></trkpt><trkpt lat="44.56460941915997" lon="8.769546856500291"><ele>789.0</ele><time>2026-03-29T10:23:40Z</time></trkpt><trkpt lat="44.56448496650224" lon="8.769567125977192"><ele>789.0</ele><time>2026-03-29T10:23:42Z</time></trkpt><trkpt lat="44.56436698984291" lon="8.76958630665506"><ele>789.0</ele><time>2026-03-29T10:23:44Z</time></trkpt><trkpt lat="44.564288084092546" lon="8.769578963175347"><ele>789.0</ele><time>2026-03-29T10:23:45Z</time></trkpt><trkpt lat="44.56418732504678" lon="8.76959285283805"><ele>788.5</ele><time>2026-03-29T10:23:46Z</time></trkpt><trkpt lat="44.56408939393445" lon="8.769597612515625"><ele>788.0</ele><time>2026-03-29T10:23:47Z</time></trkpt><trkpt lat="44.564016717389826" lon="8.769586527877795"><ele>787.5</ele><time>2026-03-29T10:23:48Z</time></trkpt><trkpt lat="44.56394854568024" lon="8.769556915951325"><ele>787.0</ele><time>2026-03-29T10:23:49Z</time></trkpt><trkpt lat="44.563866061877825" lon="8.769565341250814"><ele>786.5</ele><time>2026-03-29T10:23:50Z</time></trkpt><trkpt lat="44.56376235417384" lon="8.769580039390311"><ele>786.0</ele><time>2026-03-29T10:23:51Z</time></trkpt><trkpt lat="44.56365143277086" lon="8.769594978159068"><ele>786.0</ele><time>2026-03-29T10:23:52Z</time></trkpt><trkpt lat="44.563555025864844" lon="8.769624524369522"><ele>786.0</ele><time>2026-03-29T10:23:53Z</time></trkpt><trkpt lat="44.56346510783254" lon="8.769667412399182"><ele>786.0</ele><time>2026-03-29T10:23:54Z</time></trkpt><trkpt lat="44.56338639085763" lon="8.769702467293515"><ele>786.0</ele><time>2026-03-29T10:23:55Z</time></trkpt><trkpt lat="44.56333811618324" lon="8.769763680793023"><ele>786.0</ele><time>2026-03-29T10:23:56Z</time></trkpt><trkpt lat="44.563254401482666" lon="8.76984373181923"><ele>786.0</ele><time>2026-03-29T10:23:57Z</time></trkpt><trkpt lat="44.563183254541535" lon="8.769884805710484"><ele>786.0</ele><time>2026-03-29T10:23:58Z</time></trkpt><trkpt lat="44.5631067393752" lon="8.7699273368705"><ele>786.0</ele><time>2026-03-29T10:23:59Z</time></trkpt><trkpt lat="44.5630314010441" lon="8.76993866148471"><ele>786.0</ele><time>2026-03-29T10:24:00Z</time></trkpt><trkpt lat="44.56294546959072" lon="8.769946089658006"><ele>786.0</ele><time>2026-03-29T10:24:01Z</time></trkpt><trkpt lat="44.56285510224918" lon="8.76996089408647"><ele>786.0</ele><time>2026-03-29T10:24:02Z</time></trkpt><trkpt lat="44.5627810460722" lon="8.770006910910327"><ele>786.0</ele><time>2026-03-29T10:24:03Z</time></trkpt><trkpt lat="44.56270027706125" lon="8.770062513118408"><ele>786.1666666666666</ele><time>2026-03-29T10:24:04Z</time></trkpt><trkpt lat="44.56260880569986" lon="8.770146662413884"><ele>786.3333333333333</ele><time>2026-03-29T10:24:05Z</time></trkpt><trkpt lat="44.56254473289523" lon="8.77020366263325"><ele>786.5</ele><time>2026-03-29T10:24:06Z</time></trkpt><trkpt lat="44.56248463300175" lon="8.770240013732282"><ele>786.6666666666666</ele><time>2026-03-29T10:24:07Z</time></trkpt><trkpt lat="44.56238851069396" lon="8.77026393240798"><ele>786.8333333333333</ele><time>2026-03-29T10:24:09Z</time></trkpt><trkpt lat="44.562316609504435" lon="8.770279420556818"><ele>787.0</ele><time>2026-03-29T10:24:11Z</time></trkpt><trkpt lat="44.56223106890473" lon="8.77030714609194"><ele>786.8</ele><time>2026-03-29T10:24:14Z</time></trkpt><trkpt lat="44.56216023108982" lon="8.770369102116668"><ele>786.6</ele><time>2026-03-29T10:24:16Z</time></trkpt><trkpt lat="44.56209484653051" lon="8.770422714299693"><ele>786.4</ele><time>2026-03-29T10:24:17Z</time></trkpt><trkpt lat="44.56202652668683" lon="8.770470417578178"><ele>786.1999999999999</ele><time>2026-03-29T10:24:18Z</time></trkpt><trkpt lat="44.561936687741834" lon="8.770540079476858"><ele>786.0</ele><time>2026-03-29T10:24:19Z</time></trkpt><trkpt lat="44.561818823099635" lon="8.770626179535023"><ele>786.0</ele><time>2026-03-29T10:24:20Z</time></trkpt><trkpt lat="44.5616995278039" lon="8.770718158237345"><ele>786.0</ele><time>2026-03-29T10:24:21Z</time></trkpt><trkpt lat="44.56159744516131" lon="8.77079393149916"><ele>786.0</ele><time>2026-03-29T10:24:22Z</time></trkpt><trkpt lat="44.56150439120439" lon="8.770844999204739"><ele>786.0</ele><time>2026-03-29T10:24:23Z</time></trkpt><trkpt lat="44.56144134041987" lon="8.770930870126804"><ele>786.0</ele><time>2026-03-29T10:24:24.001Z</time></trkpt><trkpt lat="44.561374004067865" lon="8.771005861192524"><ele>784.6666666666666</ele><time>2026-03-29T10:24:25.001Z</time></trkpt><trkpt lat="44.5613061315476" lon="8.771072162066218"><ele>783.3333333333333</ele><time>2026-03-29T10:24:26.001Z</time></trkpt><trkpt lat="44.56123205152928" lon="8.77115042624665"><ele>782.0</ele><time>2026-03-29T10:24:27.001Z</time></trkpt><trkpt lat="44.56116928630638" lon="8.771230479695204"><ele>780.6666666666666</ele><time>2026-03-29T10:24:28.001Z</time></trkpt><trkpt lat="44.56110717038339" lon="8.771308758969132"><ele>779.3333333333333</ele><time>2026-03-29T10:24:29.001Z</time></trkpt><trkpt lat="44.561048187280456" lon="8.771377463093138"><ele>778.0</ele><time>2026-03-29T10:24:30.001Z</time></trkpt><trkpt lat="44.560988800097455" lon="8.771429064840182"><ele>778.0</ele><time>2026-03-29T10:24:31.001Z</time></trkpt><trkpt lat="44.56093734139453" lon="8.771485744722336"><ele>778.0</ele><time>2026-03-29T10:24:32.001Z</time></trkpt><trkpt lat="44.56088400400818" lon="8.771542591195855"><ele>778.0</ele><time>2026-03-29T10:24:33.001Z</time></trkpt><trkpt lat="44.56083147774177" lon="8.77159502380193"><ele>778.0</ele><time>2026-03-29T10:24:34.001Z</time></trkpt><trkpt lat="44.56077787817389" lon="8.771648652022396"><ele>778.0</ele><time>2026-03-29T10:24:35.001Z</time></trkpt><trkpt lat="44.56072206306165" lon="8.77170596710794"><ele>778.0</ele><time>2026-03-29T10:24:36.001Z</time></trkpt><trkpt lat="44.56065439997379" lon="8.771769905503444"><ele>778.0</ele><time>2026-03-29T10:24:37Z</time></trkpt><trkpt lat="44.560577460804915" lon="8.771853283730389"><ele>777.4</ele><time>2026-03-29T10:24:38Z</time></trkpt><trkpt lat="44.560504980739424" lon="8.771917383756474"><ele>776.8</ele><time>2026-03-29T10:24:39Z</time></trkpt><trkpt lat="44.56043498145722" lon="8.771978748431618"><ele>776.2</ele><time>2026-03-29T10:24:40Z</time></trkpt><trkpt lat="44.56036190066882" lon="8.772004558557416"><ele>775.6</ele><time>2026-03-29T10:24:41Z</time></trkpt><trkpt lat="44.56026075625312" lon="8.772082456540488"><ele>775.0</ele><time>2026-03-29T10:24:43Z</time></trkpt><trkpt lat="44.56018435807071" lon="8.772169553055027"><ele>774.9999999999999</ele><time>2026-03-29T10:24:45Z</time></trkpt><trkpt lat="44.56009061028006" lon="8.772261493977235"><ele>775.0</ele><time>2026-03-29T10:24:47Z</time></trkpt><trkpt lat="44.56003697931481" lon="8.772313012621135"><ele>775.0</ele><time>2026-03-29T10:24:48Z</time></trkpt><trkpt lat="44.55997504362117" lon="8.772354764967574"><ele>775.0</ele><time>2026-03-29T10:24:49Z</time></trkpt><trkpt lat="44.55992606152706" lon="8.772416479331534"><ele>774.9999999999999</ele><time>2026-03-29T10:24:50Z</time></trkpt><trkpt lat="44.55986528161006" lon="8.772537578286434"><ele>775.0</ele><time>2026-03-29T10:24:52Z</time></trkpt><trkpt lat="44.559842777914625" lon="8.772689374360917"><ele>774.8</ele><time>2026-03-29T10:24:54Z</time></trkpt><trkpt lat="44.559828482531096" lon="8.772788128404594"><ele>774.6</ele><time>2026-03-29T10:24:55Z</time></trkpt><trkpt lat="44.55982213854661" lon="8.77290491888248"><ele>774.4000000000001</ele><time>2026-03-29T10:24:56Z</time></trkpt><trkpt lat="44.55981292733555" lon="8.77299533649656"><ele>774.2</ele><time>2026-03-29T10:24:57Z</time></trkpt><trkpt lat="44.55973912241892" lon="8.773135504050883"><ele>774.0</ele><time>2026-03-29T10:24:59Z</time></trkpt><trkpt lat="44.55965450471007" lon="8.773232974269106"><ele>774.0</ele><time>2026-03-29T10:25:01Z</time></trkpt><trkpt lat="44.55957105969338" lon="8.773335574164722"><ele>774.0</ele><time>2026-03-29T10:25:03Z</time></trkpt><trkpt lat="44.5594885615612" lon="8.773403927181329"><ele>774.0</ele><time>2026-03-29T10:25:05Z</time></trkpt><trkpt lat="44.55937236336682" lon="8.77341141706409"><ele>774.0</ele><time>2026-03-29T10:25:07Z</time></trkpt><trkpt lat="44.55928503817072" lon="8.773441456032069"><ele>774.0</ele><time>2026-03-29T10:25:09Z</time></trkpt><trkpt lat="44.55918265416017" lon="8.773499408097464"><ele>775.8333333333334</ele><time>2026-03-29T10:25:11Z</time></trkpt><trkpt lat="44.55910662701781" lon="8.773553418144772"><ele>777.6666666666667</ele><time>2026-03-29T10:25:12Z</time></trkpt><trkpt lat="44.55903963540572" lon="8.77360812277365"><ele>779.5</ele><time>2026-03-29T10:25:13Z</time></trkpt><trkpt lat="44.55898675465682" lon="8.77366380419061"><ele>781.3333333333334</ele><time>2026-03-29T10:25:14Z</time></trkpt><trkpt lat="44.55891248382292" lon="8.773723106374172"><ele>783.1666666666667</ele><time>2026-03-29T10:25:16Z</time></trkpt><trkpt lat="44.55884674066744" lon="8.77376770596646"><ele>785.0</ele><time>2026-03-29T10:25:18Z</time></trkpt><trkpt lat="44.558785530515806" lon="8.773805350830933"><ele>785.0000000000001</ele><time>2026-03-29T10:25:20Z</time></trkpt><trkpt lat="44.55872246168995" lon="8.773826480307891"><ele>785.0</ele><time>2026-03-29T10:25:29Z</time></trkpt><trkpt lat="44.55866616705797" lon="8.77388663537539"><ele>785.0</ele><time>2026-03-29T10:25:31Z</time></trkpt><trkpt lat="44.55859161471838" lon="8.773946793920324"><ele>785.0</ele><time>2026-03-29T10:25:32Z</time></trkpt><trkpt lat="44.55852022319423" lon="8.77398570021343"><ele>785.0000000000001</ele><time>2026-03-29T10:25:33Z</time></trkpt><trkpt lat="44.55843211053465" lon="8.77398354536745"><ele>785.0</ele><time>2026-03-29T10:25:34Z</time></trkpt><trkpt lat="44.55833045858136" lon="8.773953127681699"><ele>784.75</ele><time>2026-03-29T10:25:35Z</time></trkpt><trkpt lat="44.55821364035461" lon="8.773931848619759"><ele>784.5</ele><time>2026-03-29T10:25:36Z</time></trkpt><trkpt lat="44.55809404510598" lon="8.773918252337529"><ele>784.25</ele><time>2026-03-29T10:25:37Z</time></trkpt><trkpt lat="44.55798210349614" lon="8.77392512870251"><ele>784.0</ele><time>2026-03-29T10:25:38Z</time></trkpt><trkpt lat="44.557883431070934" lon="8.77397130875415"><ele>783.8000000000001</ele><time>2026-03-29T10:25:39Z</time></trkpt><trkpt lat="44.55779062997751" lon="8.77398089671761"><ele>783.6</ele><time>2026-03-29T10:25:40Z</time></trkpt><trkpt lat="44.5577068129594" lon="8.773981511435199"><ele>783.4</ele><time>2026-03-29T10:25:41Z</time></trkpt><trkpt lat="44.55762795154152" lon="8.773980411930483"><ele>783.2</ele><time>2026-03-29T10:25:42Z</time></trkpt><trkpt lat="44.5575428894048" lon="8.773977482912423"><ele>783.0</ele><time>2026-03-29T10:25:43Z</time></trkpt><trkpt lat="44.55744424063808" lon="8.77391009660346"><ele>783.0</ele><time>2026-03-29T10:25:44Z</time></trkpt><trkpt lat="44.557339155522946" lon="8.773849305687575"><ele>783.0</ele><time>2026-03-29T10:25:45Z</time></trkpt><trkpt lat="44.55722856153024" lon="8.773788121461452"><ele>783.0</ele><time>2026-03-29T10:25:46Z</time></trkpt><trkpt lat="44.5571207144592" lon="8.77375338393833"><ele>783.0</ele><time>2026-03-29T10:25:47Z</time></trkpt><trkpt lat="44.557013417042484" lon="8.773736160615462"><ele>784.2</ele><time>2026-03-29T10:25:48Z</time></trkpt><trkpt lat="44.55691950834481" lon="8.773696857852174"><ele>785.4</ele><time>2026-03-29T10:25:49Z</time></trkpt><trkpt lat="44.55680395101191" lon="8.773691913049065"><ele>786.6</ele><time>2026-03-29T10:25:50Z</time></trkpt><trkpt lat="44.556739580957725" lon="8.773650189646851"><ele>787.8000000000001</ele><time>2026-03-29T10:25:51Z</time></trkpt><trkpt lat="44.556649412034034" lon="8.773639613816107"><ele>789.0</ele><time>2026-03-29T10:25:52Z</time></trkpt><trkpt lat="44.55657005429254" lon="8.773578225633475"><ele>787.25</ele><time>2026-03-29T10:25:53Z</time></trkpt><trkpt lat="44.556484823040364" lon="8.773479995330323"><ele>785.5</ele><time>2026-03-29T10:25:54Z</time></trkpt><trkpt lat="44.55640131608356" lon="8.773355942800295"><ele>783.75</ele><time>2026-03-29T10:25:55Z</time></trkpt><trkpt lat="44.55632662769543" lon="8.773219249655863"><ele>782.0</ele><time>2026-03-29T10:25:56Z</time></trkpt><trkpt lat="44.55623908708295" lon="8.77308047471361"><ele>781.75</ele><time>2026-03-29T10:25:57Z</time></trkpt><trkpt lat="44.55615244300801" lon="8.77294125949847"><ele>781.5</ele><time>2026-03-29T10:25:58Z</time></trkpt><trkpt lat="44.55606822551222" lon="8.772776253416849"><ele>781.25</ele><time>2026-03-29T10:25:59Z</time></trkpt><trkpt lat="44.55598000926499" lon="8.772615895932521"><ele>781.0</ele><time>2026-03-29T10:26:00Z</time></trkpt><trkpt lat="44.55590405652588" lon="8.77245009321233"><ele>781.0</ele><time>2026-03-29T10:26:01Z</time></trkpt><trkpt lat="44.55581426089187" lon="8.77229242701876"><ele>781.0</ele><time>2026-03-29T10:26:02Z</time></trkpt><trkpt lat="44.55572816170903" lon="8.772151373873259"><ele>781.0</ele><time>2026-03-29T10:26:03Z</time></trkpt><trkpt lat="44.555655079291185" lon="8.771984243496966"><ele>781.0</ele><time>2026-03-29T10:26:04Z</time></trkpt><trkpt lat="44.55559586905758" lon="8.771829752171291"><ele>778.1999999999999</ele><time>2026-03-29T10:26:05Z</time></trkpt><trkpt lat="44.55554903550114" lon="8.771673683192402"><ele>775.4</ele><time>2026-03-29T10:26:06Z</time></trkpt><trkpt lat="44.55551757788512" lon="8.771527241668913"><ele>772.6</ele><time>2026-03-29T10:26:07Z</time></trkpt><trkpt lat="44.55549920813764" lon="8.771393303898678"><ele>769.8</ele><time>2026-03-29T10:26:08Z</time></trkpt><trkpt lat="44.55546111828414" lon="8.771282691279474"><ele>767.0</ele><time>2026-03-29T10:26:09Z</time></trkpt><trkpt lat="44.55540842664717" lon="8.77119861793733"><ele>766.2</ele><time>2026-03-29T10:26:10Z</time></trkpt><trkpt lat="44.55533479763026" lon="8.771127255197008"><ele>765.4000000000001</ele><time>2026-03-29T10:26:11Z</time></trkpt><trkpt lat="44.5552458783213" lon="8.771052243842925"><ele>764.5999999999999</ele><time>2026-03-29T10:26:12Z</time></trkpt><trkpt lat="44.55512196842061" lon="8.771010207172944"><ele>763.8</ele><time>2026-03-29T10:26:13Z</time></trkpt><trkpt lat="44.55501040156758" lon="8.770973623682949"><ele>763.0</ele><time>2026-03-29T10:26:14Z</time></trkpt><trkpt lat="44.55488342869048" lon="8.770969973729402"><ele>763.0</ele><time>2026-03-29T10:26:15Z</time></trkpt><trkpt lat="44.55476839971067" lon="8.770952443449074"><ele>763.0</ele><time>2026-03-29T10:26:16Z</time></trkpt><trkpt lat="44.554679930317015" lon="8.770989687533179"><ele>763.0</ele><time>2026-03-29T10:26:17Z</time></trkpt><trkpt lat="44.55459943412759" lon="8.771067411973007"><ele>763.0</ele><time>2026-03-29T10:26:18Z</time></trkpt><trkpt lat="44.55449585975784" lon="8.771175736077764"><ele>763.0</ele><time>2026-03-29T10:26:19Z</time></trkpt><trkpt lat="44.5544001654925" lon="8.771290752315021"><ele>762.0</ele><time>2026-03-29T10:26:20Z</time></trkpt><trkpt lat="44.55430091886876" lon="8.771376364256264"><ele>761.0</ele><time>2026-03-29T10:26:21Z</time></trkpt><trkpt lat="44.55420232399318" lon="8.771455959593002"><ele>760.0</ele><time>2026-03-29T10:26:22Z</time></trkpt><trkpt lat="44.554126422088764" lon="8.77154428246723"><ele>759.0</ele><time>2026-03-29T10:26:23Z</time></trkpt><trkpt lat="44.55405896541524" lon="8.771647664826796"><ele>758.0</ele><time>2026-03-29T10:26:24Z</time></trkpt><trkpt lat="44.55402123712124" lon="8.771771908679442"><ele>760.25</ele><time>2026-03-29T10:26:25Z</time></trkpt><trkpt lat="44.55399955631997" lon="8.771926048375699"><ele>762.5</ele><time>2026-03-29T10:26:26Z</time></trkpt><trkpt lat="44.55396714726482" lon="8.772084713179773"><ele>764.75</ele><time>2026-03-29T10:26:27Z</time></trkpt><trkpt lat="44.55391304190332" lon="8.772242104260418"><ele>767.0</ele><time>2026-03-29T10:26:28Z</time></trkpt><trkpt lat="44.55385062712654" lon="8.772368993968648"><ele>767.0</ele><time>2026-03-29T10:26:29Z</time></trkpt><trkpt lat="44.55378246994217" lon="8.772455074154637"><ele>767.0</ele><time>2026-03-29T10:26:30Z</time></trkpt><trkpt lat="44.55369179294013" lon="8.772513019559145"><ele>767.0</ele><time>2026-03-29T10:26:31Z</time></trkpt><trkpt lat="44.55360524436113" lon="8.772624033458959"><ele>767.0</ele><time>2026-03-29T10:26:32Z</time></trkpt><trkpt lat="44.55350592867559" lon="8.772721069591483"><ele>767.0</ele><time>2026-03-29T10:26:33Z</time></trkpt><trkpt lat="44.55344783738669" lon="8.772831021046484"><ele>765.5</ele><time>2026-03-29T10:26:34Z</time></trkpt><trkpt lat="44.55339670421075" lon="8.772954425897346"><ele>764.0</ele><time>2026-03-29T10:26:35Z</time></trkpt><trkpt lat="44.55334982495358" lon="8.773058580020257"><ele>762.5</ele><time>2026-03-29T10:26:36Z</time></trkpt><trkpt lat="44.553307145453424" lon="8.773160251170749"><ele>761.0</ele><time>2026-03-29T10:26:37Z</time></trkpt><trkpt lat="44.55326145468954" lon="8.773226257713201"><ele>759.5</ele><time>2026-03-29T10:26:38Z</time></trkpt><trkpt lat="44.55317597384263" lon="8.773213007479516"><ele>758.0</ele><time>2026-03-29T10:26:39Z</time></trkpt><trkpt lat="44.55308057838131" lon="8.773218204560434"><ele>758.0</ele><time>2026-03-29T10:26:40Z</time></trkpt><trkpt lat="44.5529597264643" lon="8.773219025936644"><ele>758.0</ele><time>2026-03-29T10:26:41Z</time></trkpt><trkpt lat="44.552818146025295" lon="8.773221317811235"><ele>758.0</ele><time>2026-03-29T10:26:42Z</time></trkpt><trkpt lat="44.552689823546885" lon="8.7732233950671"><ele>758.0</ele><time>2026-03-29T10:26:43Z</time></trkpt><trkpt lat="44.552569567954635" lon="8.77322534173858"><ele>757.4</ele><time>2026-03-29T10:26:44Z</time></trkpt><trkpt lat="44.55246177195356" lon="8.77325448340991"><ele>756.8</ele><time>2026-03-29T10:26:45Z</time></trkpt><trkpt lat="44.55235735651574" lon="8.77327332999446"><ele>756.2</ele><time>2026-03-29T10:26:46Z</time></trkpt><trkpt lat="44.55225650193508" lon="8.77334803933135"><ele>755.6</ele><time>2026-03-29T10:26:47Z</time></trkpt><trkpt lat="44.55215004172591" lon="8.773410291980841"><ele>755.0</ele><time>2026-03-29T10:26:48Z</time></trkpt><trkpt lat="44.552034351773784" lon="8.773474080876813"><ele>757.5</ele><time>2026-03-29T10:26:49Z</time></trkpt><trkpt lat="44.55192094553905" lon="8.773535382876029"><ele>760.0</ele><time>2026-03-29T10:26:50Z</time></trkpt><trkpt lat="44.55180601447369" lon="8.773591090192458"><ele>762.5</ele><time>2026-03-29T10:26:51Z</time></trkpt><trkpt lat="44.55170130661469" lon="8.773669992127637"><ele>765.0</ele><time>2026-03-29T10:26:52Z</time></trkpt><trkpt lat="44.55161122806295" lon="8.773736941887506"><ele>765.0</ele><time>2026-03-29T10:26:53Z</time></trkpt><trkpt lat="44.551523689114305" lon="8.773799830440165"><ele>765.0</ele><time>2026-03-29T10:26:54Z</time></trkpt><trkpt lat="44.551444311444875" lon="8.77385413355949"><ele>765.0</ele><time>2026-03-29T10:26:55Z</time></trkpt><trkpt lat="44.551362488083534" lon="8.773894201935509"><ele>765.0</ele><time>2026-03-29T10:26:56Z</time></trkpt><trkpt lat="44.55127453229466" lon="8.773908532321773"><ele>765.0</ele><time>2026-03-29T10:26:57Z</time></trkpt><trkpt lat="44.55117528578748" lon="8.773892169467745"><ele>764.1666666666666</ele><time>2026-03-29T10:26:58Z</time></trkpt><trkpt lat="44.551075708726906" lon="8.773868725601666"><ele>763.3333333333334</ele><time>2026-03-29T10:26:59Z</time></trkpt><trkpt lat="44.550990926121145" lon="8.773840895404911"><ele>762.5</ele><time>2026-03-29T10:27:00Z</time></trkpt><trkpt lat="44.5509279303195" lon="8.773785469703475"><ele>761.6666666666667</ele><time>2026-03-29T10:27:01Z</time></trkpt><trkpt lat="44.55087298368606" lon="8.773722226654261"><ele>760.8333333333334</ele><time>2026-03-29T10:27:02Z</time></trkpt><trkpt lat="44.55086664878659" lon="8.773584583746063"><ele>760.0</ele><time>2026-03-29T10:27:03Z</time></trkpt><trkpt lat="44.55081563439374" lon="8.773468501067427"><ele>760.0</ele><time>2026-03-29T10:27:04Z</time></trkpt><trkpt lat="44.55078127642497" lon="8.773355028506936"><ele>760.0</ele><time>2026-03-29T10:27:05Z</time></trkpt><trkpt lat="44.55068959980086" lon="8.77324895156273"><ele>760.0</ele><time>2026-03-29T10:27:06Z</time></trkpt><trkpt lat="44.55058296242645" lon="8.773165339865068"><ele>760.0</ele><time>2026-03-29T10:27:07Z</time></trkpt><trkpt lat="44.55048382991798" lon="8.77310559676039"><ele>760.0</ele><time>2026-03-29T10:27:08Z</time></trkpt><trkpt lat="44.550384608626516" lon="8.773072636034355"><ele>762.8</ele><time>2026-03-29T10:27:09Z</time></trkpt><trkpt lat="44.55028904299683" lon="8.77307342640978"><ele>765.6</ele><time>2026-03-29T10:27:10Z</time></trkpt><trkpt lat="44.55019289464751" lon="8.773100203118156"><ele>768.4000000000001</ele><time>2026-03-29T10:27:11Z</time></trkpt><trkpt lat="44.550086616823926" lon="8.773128520284013"><ele>771.2</ele><time>2026-03-29T10:27:12Z</time></trkpt><trkpt lat="44.54999822413177" lon="8.773126897926451"><ele>774.0</ele><time>2026-03-29T10:27:13Z</time></trkpt><trkpt lat="44.549917711725655" lon="8.773102511463815"><ele>774.0</ele><time>2026-03-29T10:27:14Z</time></trkpt><trkpt lat="44.54984980097812" lon="8.773039547537213"><ele>774.0</ele><time>2026-03-29T10:27:15Z</time></trkpt><trkpt lat="44.54979582750762" lon="8.772967850613162"><ele>774.0</ele><time>2026-03-29T10:27:16Z</time></trkpt><trkpt lat="44.549775706387386" lon="8.77287611893282"><ele>774.0</ele><time>2026-03-29T10:27:17Z</time></trkpt><trkpt lat="44.549717551989126" lon="8.772764446239922"><ele>774.0</ele><time>2026-03-29T10:27:18Z</time></trkpt><trkpt lat="44.54965896579093" lon="8.772666165309403"><ele>774.0</ele><time>2026-03-29T10:27:19Z</time></trkpt><trkpt lat="44.54960515593246" lon="8.77258963798626"><ele>773.5</ele><time>2026-03-29T10:27:20Z</time></trkpt><trkpt lat="44.549515236502586" lon="8.772538818877166"><ele>773.0</ele><time>2026-03-29T10:27:22Z</time></trkpt><trkpt lat="44.54962572577987" lon="8.772501315608999"><ele>772.5</ele><time>2026-03-29T10:30:20.001Z</time></trkpt><trkpt lat="44.549621686857016" lon="8.772406033893374"><ele>772.0</ele><time>2026-03-29T10:30:22.001Z</time></trkpt><trkpt lat="44.54968180162043" lon="8.772314264928584"><ele>771.5</ele><time>2026-03-29T10:30:30.001Z</time></trkpt><trkpt lat="44.54969919941468" lon="8.772216506653894"><ele>771.0</ele><time>2026-03-29T10:30:33.001Z</time></trkpt><trkpt lat="44.54975237971666" lon="8.772094483150532"><ele>769.5</ele><time>2026-03-29T10:30:35.001Z</time></trkpt><trkpt lat="44.54965055817691" lon="8.772245446198738"><ele>768.0</ele><time>2026-03-29T10:30:40.001Z</time></trkpt><trkpt lat="44.54962573051941" lon="8.772155676911352"><ele>766.5</ele><time>2026-03-29T10:30:54.001Z</time></trkpt><trkpt lat="44.549640651800246" lon="8.772294733185534"><ele>765.0</ele><time>2026-03-29T10:31:50.001Z</time></trkpt><trkpt lat="44.549575641314014" lon="8.772290682613114"><ele>763.5</ele><time>2026-03-29T10:39:47.999Z</time></trkpt><trkpt lat="44.54963177861095" lon="8.772339587387096"><ele>762.0</ele><time>2026-03-29T10:40:39.999Z</time></trkpt><trkpt lat="44.549683236913424" lon="8.772257489900458"><ele>762.0</ele><time>2026-03-29T10:47:01Z</time></trkpt><trkpt lat="44.54966280467145" lon="8.7723686556384"><ele>762.0</ele><time>2026-03-29T11:03:42Z</time></trkpt><trkpt lat="44.5497186192949" lon="8.772501025722976"><ele>762.0</ele><time>2026-03-29T11:04:19Z</time></trkpt><trkpt lat="44.549400321182226" lon="8.772423993455659"><ele>763.8</ele><time>2026-03-29T11:08:19.999Z</time></trkpt><trkpt lat="44.549487247561004" lon="8.77263494074393"><ele>765.6</ele><time>2026-03-29T11:08:27.999Z</time></trkpt><trkpt lat="44.54950360474953" lon="8.77274043640024"><ele>767.4</ele><time>2026-03-29T11:08:29.999Z</time></trkpt><trkpt lat="44.54949193151921" lon="8.772643267553079"><ele>769.1999999999999</ele><time>2026-03-29T11:08:39.999Z</time></trkpt><trkpt lat="44.54949465471798" lon="8.772546316613777"><ele>771.0</ele><time>2026-03-29T11:08:49Z</time></trkpt><trkpt lat="44.5495129983915" lon="8.772456081059913"><ele>771.5</ele><time>2026-03-29T11:09:16Z</time></trkpt><trkpt lat="44.54955761586094" lon="8.77254057691493"><ele>772.0</ele><time>2026-03-29T11:11:44Z</time></trkpt><trkpt lat="44.549634665223145" lon="8.77261200543812"><ele>772.5</ele><time>2026-03-29T11:11:47Z</time></trkpt><trkpt lat="44.549686505889916" lon="8.772696788698324"><ele>773.0</ele><time>2026-03-29T11:11:49Z</time></trkpt><trkpt lat="44.54973771157883" lon="8.772806766539153"><ele>773.5</ele><time>2026-03-29T11:11:51Z</time></trkpt><trkpt lat="44.54977517991519" lon="8.772909563283978"><ele>774.0</ele><time>2026-03-29T11:11:52.999Z</time></trkpt><trkpt lat="44.549821614350975" lon="8.77301812563638"><ele>774.0</ele><time>2026-03-29T11:11:54.999Z</time></trkpt><trkpt lat="44.549908340541705" lon="8.773093128322293"><ele>774.0</ele><time>2026-03-29T11:11:56.999Z</time></trkpt><trkpt lat="44.55000371129336" lon="8.773134898025805"><ele>774.0</ele><time>2026-03-29T11:11:58.999Z</time></trkpt><trkpt lat="44.55014957317739" lon="8.773099014172614"><ele>774.0</ele><time>2026-03-29T11:12:00.999Z</time></trkpt><trkpt lat="44.550243273765076" lon="8.773118200107056"><ele>774.0</ele><time>2026-03-29T11:12:01.999Z</time></trkpt><trkpt lat="44.55030668003482" lon="8.773107746674427"><ele>771.6666666666666</ele><time>2026-03-29T11:12:02.999Z</time></trkpt><trkpt lat="44.55038929475722" lon="8.77310587854799"><ele>769.3333333333334</ele><time>2026-03-29T11:12:03.999Z</time></trkpt><trkpt lat="44.55046166396859" lon="8.773127036382707"><ele>767.0</ele><time>2026-03-29T11:12:04.999Z</time></trkpt><trkpt lat="44.55053261384155" lon="8.773167919795"><ele>764.6666666666667</ele><time>2026-03-29T11:12:05.999Z</time></trkpt><trkpt lat="44.550602455427196" lon="8.773221178682244"><ele>762.3333333333334</ele><time>2026-03-29T11:12:06.999Z</time></trkpt><trkpt lat="44.55066536932976" lon="8.773275168503826"><ele>760.0</ele><time>2026-03-29T11:12:07.999Z</time></trkpt><trkpt lat="44.55071785076725" lon="8.773331211715472"><ele>760.0</ele><time>2026-03-29T11:12:08.999Z</time></trkpt><trkpt lat="44.5507727587645" lon="8.773397779063652"><ele>760.0</ele><time>2026-03-29T11:12:09.999Z</time></trkpt><trkpt lat="44.550802901713126" lon="8.773487887858234"><ele>760.0</ele><time>2026-03-29T11:12:10.999Z</time></trkpt><trkpt lat="44.55083182412072" lon="8.773588398302524"><ele>760.0</ele><time>2026-03-29T11:12:11.999Z</time></trkpt><trkpt lat="44.55084999827384" lon="8.77368829656655"><ele>760.0</ele><time>2026-03-29T11:12:12.999Z</time></trkpt><trkpt lat="44.55088009964115" lon="8.773774836059534"><ele>760.0</ele><time>2026-03-29T11:12:13.999Z</time></trkpt><trkpt lat="44.55094207758304" lon="8.773858762347144"><ele>760.0</ele><time>2026-03-29T11:12:14.999Z</time></trkpt><trkpt lat="44.55102699129546" lon="8.773897147850446"><ele>761.0</ele><time>2026-03-29T11:12:15.999Z</time></trkpt><trkpt lat="44.55110293785358" lon="8.773923854091233"><ele>762.0</ele><time>2026-03-29T11:12:16.999Z</time></trkpt><trkpt lat="44.5511951792818" lon="8.773941791765784"><ele>763.0</ele><time>2026-03-29T11:12:17.999Z</time></trkpt><trkpt lat="44.55129084519921" lon="8.773919740070205"><ele>764.0</ele><time>2026-03-29T11:12:18.999Z</time></trkpt><trkpt lat="44.5513831202153" lon="8.773932155656306"><ele>765.0</ele><time>2026-03-29T11:12:19.999Z</time></trkpt><trkpt lat="44.55147636849325" lon="8.773893465009579"><ele>765.0</ele><time>2026-03-29T11:12:20.999Z</time></trkpt><trkpt lat="44.55157920958697" lon="8.773810150798624"><ele>765.0</ele><time>2026-03-29T11:12:21.999Z</time></trkpt><trkpt lat="44.55166097864712" lon="8.773732333640726"><ele>765.0</ele><time>2026-03-29T11:12:22.999Z</time></trkpt><trkpt lat="44.55175978691969" lon="8.773670958135092"><ele>765.0</ele><time>2026-03-29T11:12:23.999Z</time></trkpt><trkpt lat="44.55185643766041" lon="8.77360714550833"><ele>765.0</ele><time>2026-03-29T11:12:24.999Z</time></trkpt><trkpt lat="44.55195524287984" lon="8.7735475137552"><ele>763.0</ele><time>2026-03-29T11:12:25.999Z</time></trkpt><trkpt lat="44.552051528290065" lon="8.773492054924477"><ele>761.0</ele><time>2026-03-29T11:12:26.999Z</time></trkpt><trkpt lat="44.552143439030615" lon="8.773422841958507"><ele>759.0</ele><time>2026-03-29T11:12:27.999Z</time></trkpt><trkpt lat="44.552235608320686" lon="8.773368611953934"><ele>757.0</ele><time>2026-03-29T11:12:28.999Z</time></trkpt><trkpt lat="44.55231785332397" lon="8.773323754279001"><ele>755.0</ele><time>2026-03-29T11:12:29.999Z</time></trkpt><trkpt lat="44.55239142975663" lon="8.773286510727491"><ele>755.0</ele><time>2026-03-29T11:12:30.999Z</time></trkpt><trkpt lat="44.55247611889618" lon="8.773279151993313"><ele>755.0</ele><time>2026-03-29T11:12:31.999Z</time></trkpt><trkpt lat="44.55256756751929" lon="8.77326552557161"><ele>755.0</ele><time>2026-03-29T11:12:32.999Z</time></trkpt><trkpt lat="44.552658003878804" lon="8.773270472270324"><ele>755.0</ele><time>2026-03-29T11:12:33.999Z</time></trkpt><trkpt lat="44.55276224408185" lon="8.773249716674236"><ele>755.0</ele><time>2026-03-29T11:12:34.999Z</time></trkpt><trkpt lat="44.55284964884456" lon="8.773252765688065"><ele>755.5</ele><time>2026-03-29T11:12:35.999Z</time></trkpt><trkpt lat="44.552944481582614" lon="8.773247355783603"><ele>756.0</ele><time>2026-03-29T11:12:36.999Z</time></trkpt><trkpt lat="44.55303319019074" lon="8.773244485493986"><ele>756.5</ele><time>2026-03-29T11:12:37.999Z</time></trkpt><trkpt lat="44.55312069330735" lon="8.77323798581868"><ele>757.0</ele><time>2026-03-29T11:12:38.999Z</time></trkpt><trkpt lat="44.553193235436126" lon="8.773228068306974"><ele>757.5</ele><time>2026-03-29T11:12:39.999Z</time></trkpt><trkpt lat="44.55326916232864" lon="8.773215188437705"><ele>758.0</ele><time>2026-03-29T11:12:40.999Z</time></trkpt><trkpt lat="44.553327715475945" lon="8.77317579743578"><ele>758.0</ele><time>2026-03-29T11:12:41.999Z</time></trkpt><trkpt lat="44.55338284648167" lon="8.773105725206682"><ele>758.0</ele><time>2026-03-29T11:12:42.999Z</time></trkpt><trkpt lat="44.55341559766886" lon="8.773016607454654"><ele>758.0</ele><time>2026-03-29T11:12:43.999Z</time></trkpt><trkpt lat="44.55346587587298" lon="8.77291755615582"><ele>758.0</ele><time>2026-03-29T11:12:44.999Z</time></trkpt><trkpt lat="44.55351487880907" lon="8.772782370999858"><ele>758.0</ele><time>2026-03-29T11:12:45.999Z</time></trkpt><trkpt lat="44.55358188266885" lon="8.772679240734034"><ele>758.0</ele><time>2026-03-29T11:12:46.999Z</time></trkpt><trkpt lat="44.55366182310928" lon="8.77259723755978"><ele>759.8</ele><time>2026-03-29T11:12:47.999Z</time></trkpt><trkpt lat="44.55375073225752" lon="8.772523668118545"><ele>761.5999999999999</ele><time>2026-03-29T11:12:48.999Z</time></trkpt><trkpt lat="44.55383570637288" lon="8.772439143401195"><ele>763.4000000000001</ele><time>2026-03-29T11:12:49.999Z</time></trkpt><trkpt lat="44.553906990552285" lon="8.772349536035481"><ele>765.2</ele><time>2026-03-29T11:12:50.999Z</time></trkpt><trkpt lat="44.55395638409732" lon="8.77224813231161"><ele>767.0</ele><time>2026-03-29T11:12:51.999Z</time></trkpt><trkpt lat="44.55398642683251" lon="8.772113464454266"><ele>767.0</ele><time>2026-03-29T11:12:52.999Z</time></trkpt><trkpt lat="44.55402323964059" lon="8.772005628660812"><ele>767.0</ele><time>2026-03-29T11:12:53.999Z</time></trkpt><trkpt lat="44.55405419524267" lon="8.771902487192948"><ele>767.0</ele><time>2026-03-29T11:12:54.998Z</time></trkpt><trkpt lat="44.554076459404854" lon="8.771802189275892"><ele>767.0</ele><time>2026-03-29T11:12:55.998Z</time></trkpt><trkpt lat="44.55409047877586" lon="8.771697564109418"><ele>767.0</ele><time>2026-03-29T11:12:56.998Z</time></trkpt><trkpt lat="44.554123090387534" lon="8.771579391798575"><ele>767.0</ele><time>2026-03-29T11:12:57.998Z</time></trkpt><trkpt lat="44.55419305527022" lon="8.771518147004889"><ele>765.2</ele><time>2026-03-29T11:12:58.998Z</time></trkpt><trkpt lat="44.554266085567235" lon="8.771417521986471"><ele>763.4000000000001</ele><time>2026-03-29T11:12:59.998Z</time></trkpt><trkpt lat="44.55436272601054" lon="8.771332839296452"><ele>761.5999999999999</ele><time>2026-03-29T11:13:00.998Z</time></trkpt><trkpt lat="44.554454437341775" lon="8.771245884446843"><ele>759.8</ele><time>2026-03-29T11:13:01.998Z</time></trkpt><trkpt lat="44.55454288482716" lon="8.771167227432539"><ele>758.0</ele><time>2026-03-29T11:13:02.998Z</time></trkpt><trkpt lat="44.55461675770339" lon="8.771092972943954"><ele>759.0</ele><time>2026-03-29T11:13:03.998Z</time></trkpt><trkpt lat="44.554685572806434" lon="8.771044525808014"><ele>760.0</ele><time>2026-03-29T11:13:04.998Z</time></trkpt><trkpt lat="44.55475348552608" lon="8.770992820515314"><ele>761.0</ele><time>2026-03-29T11:13:05.998Z</time></trkpt><trkpt lat="44.554839491382516" lon="8.771017742906453"><ele>762.0</ele><time>2026-03-29T11:13:06.998Z</time></trkpt><trkpt lat="44.55494056890881" lon="8.771022304202567"><ele>763.0</ele><time>2026-03-29T11:13:07.998Z</time></trkpt><trkpt lat="44.555050473364005" lon="8.77103601902178"><ele>763.8</ele><time>2026-03-29T11:13:08.999Z</time></trkpt><trkpt lat="44.55514507914853" lon="8.771065249329075"><ele>764.5999999999999</ele><time>2026-03-29T11:13:09.999Z</time></trkpt><trkpt lat="44.55523749162678" lon="8.771120437467566"><ele>765.4000000000001</ele><time>2026-03-29T11:13:10.999Z</time></trkpt><trkpt lat="44.55532686151737" lon="8.77119236481661"><ele>766.2</ele><time>2026-03-29T11:13:11.999Z</time></trkpt><trkpt lat="44.55540041919792" lon="8.771268800963165"><ele>767.0</ele><time>2026-03-29T11:13:12.999Z</time></trkpt><trkpt lat="44.555451495988265" lon="8.771348318636445"><ele>767.0</ele><time>2026-03-29T11:13:13.999Z</time></trkpt><trkpt lat="44.555486561257446" lon="8.77144182349337"><ele>767.0</ele><time>2026-03-29T11:13:14.999Z</time></trkpt><trkpt lat="44.55550583309183" lon="8.77159780712441"><ele>767.0</ele><time>2026-03-29T11:13:16.999Z</time></trkpt><trkpt lat="44.55552243636321" lon="8.771686886444785"><ele>767.0</ele><time>2026-03-29T11:13:17.999Z</time></trkpt><trkpt lat="44.55555873770871" lon="8.771771702694489"><ele>767.0</ele><time>2026-03-29T11:13:18.999Z</time></trkpt><trkpt lat="44.55559724936726" lon="8.771885386735892"><ele>767.0</ele><time>2026-03-29T11:13:19.999Z</time></trkpt><trkpt lat="44.555636981087936" lon="8.772034921619674"><ele>770.5</ele><time>2026-03-29T11:13:20.999Z</time></trkpt><trkpt lat="44.55570040917506" lon="8.77217431830845"><ele>774.0</ele><time>2026-03-29T11:13:21.999Z</time></trkpt><trkpt lat="44.555778561640096" lon="8.77231806431114"><ele>777.5</ele><time>2026-03-29T11:13:22.999Z</time></trkpt><trkpt lat="44.555877835265825" lon="8.77245234267198"><ele>781.0</ele><time>2026-03-29T11:13:23.999Z</time></trkpt><trkpt lat="44.55595441583244" lon="8.772604011661864"><ele>781.25</ele><time>2026-03-29T11:13:24.999Z</time></trkpt><trkpt lat="44.556017080425896" lon="8.772769350919114"><ele>781.5</ele><time>2026-03-29T11:13:25.999Z</time></trkpt><trkpt lat="44.5561042573934" lon="8.772908686909528"><ele>781.75</ele><time>2026-03-29T11:13:26.999Z</time></trkpt><trkpt lat="44.55618656890883" lon="8.773059286990302"><ele>782.0</ele><time>2026-03-29T11:13:27.999Z</time></trkpt><trkpt lat="44.556280005906444" lon="8.773200407648014"><ele>782.0</ele><time>2026-03-29T11:13:28.999Z</time></trkpt><trkpt lat="44.55636621706021" lon="8.77334337863921"><ele>782.0</ele><time>2026-03-29T11:13:29.999Z</time></trkpt><trkpt lat="44.55643762367708" lon="8.773458713951237"><ele>782.0</ele><time>2026-03-29T11:13:30.999Z</time></trkpt><trkpt lat="44.556502946658995" lon="8.773559524156216"><ele>782.0</ele><time>2026-03-29T11:13:31.999Z</time></trkpt><trkpt lat="44.55658032551095" lon="8.773639142288262"><ele>782.0</ele><time>2026-03-29T11:13:32.999Z</time></trkpt><trkpt lat="44.55667608703917" lon="8.773716409414716"><ele>782.2</ele><time>2026-03-29T11:13:33.999Z</time></trkpt><trkpt lat="44.55677651369846" lon="8.773754708883324"><ele>782.4000000000001</ele><time>2026-03-29T11:13:34.999Z</time></trkpt><trkpt lat="44.55690594686975" lon="8.77377183747985"><ele>782.5999999999999</ele><time>2026-03-29T11:13:35.999Z</time></trkpt><trkpt lat="44.55700748362135" lon="8.773782240154299"><ele>782.8</ele><time>2026-03-29T11:13:36.999Z</time></trkpt><trkpt lat="44.557081480737466" lon="8.773792722892273"><ele>783.0</ele><time>2026-03-29T11:13:37.999Z</time></trkpt><trkpt lat="44.55716710986861" lon="8.7738128010558"><ele>783.0</ele><time>2026-03-29T11:13:38.999Z</time></trkpt><trkpt lat="44.55724981293599" lon="8.77384623849234"><ele>783.0</ele><time>2026-03-29T11:13:39.999Z</time></trkpt><trkpt lat="44.55733133594009" lon="8.773895308387244"><ele>783.0</ele><time>2026-03-29T11:13:40.999Z</time></trkpt><trkpt lat="44.55742482817836" lon="8.773949370971149"><ele>783.0</ele><time>2026-03-29T11:13:41.999Z</time></trkpt><trkpt lat="44.55752798036162" lon="8.774000007332775"><ele>783.0</ele><time>2026-03-29T11:13:42.999Z</time></trkpt><trkpt lat="44.557655720683705" lon="8.774021156403208"><ele>783.0</ele><time>2026-03-29T11:13:43.999Z</time></trkpt><trkpt lat="44.55772433341495" lon="8.774023485271398"><ele>783.0</ele><time>2026-03-29T11:13:44.999Z</time></trkpt><trkpt lat="44.55783875515516" lon="8.774003628026437"><ele>783.0</ele><time>2026-03-29T11:13:45.999Z</time></trkpt><trkpt lat="44.55793299257057" lon="8.773985519251104"><ele>783.0</ele><time>2026-03-29T11:13:46.999Z</time></trkpt><trkpt lat="44.55802112785345" lon="8.773967534774147"><ele>783.0</ele><time>2026-03-29T11:13:47.999Z</time></trkpt><trkpt lat="44.55809801937697" lon="8.773964936423733"><ele>783.0</ele><time>2026-03-29T11:13:48.999Z</time></trkpt><trkpt lat="44.55817014285167" lon="8.773972254092502"><ele>783.2</ele><time>2026-03-29T11:13:49.999Z</time></trkpt><trkpt lat="44.55825091149558" lon="8.773984735719665"><ele>783.4</ele><time>2026-03-29T11:13:50.999Z</time></trkpt><trkpt lat="44.558348047764746" lon="8.774004317330332"><ele>783.6</ele><time>2026-03-29T11:13:51.999Z</time></trkpt><trkpt lat="44.55843120563" lon="8.774023284356812"><ele>783.8000000000001</ele><time>2026-03-29T11:13:52.999Z</time></trkpt><trkpt lat="44.558542980853105" lon="8.774058944433994"><ele>784.0</ele><time>2026-03-29T11:13:54.999Z</time></trkpt><trkpt lat="44.55863963803481" lon="8.773989266792775"><ele>784.2</ele><time>2026-03-29T11:13:55.999Z</time></trkpt><trkpt lat="44.55872115933049" lon="8.773929581025712"><ele>784.4000000000001</ele><time>2026-03-29T11:13:56.999Z</time></trkpt><trkpt lat="44.55880832545409" lon="8.773852789387316"><ele>784.6</ele><time>2026-03-29T11:13:57.999Z</time></trkpt><trkpt lat="44.55889032515021" lon="8.773781906130955"><ele>784.8</ele><time>2026-03-29T11:13:58.999Z</time></trkpt><trkpt lat="44.55897142628092" lon="8.773711691624747"><ele>785.0</ele><time>2026-03-29T11:13:59.999Z</time></trkpt><trkpt lat="44.55904544774878" lon="8.77364638593085"><ele>785.0000000000001</ele><time>2026-03-29T11:14:00.999Z</time></trkpt><trkpt lat="44.559116846778075" lon="8.773589761040617"><ele>785.0</ele><time>2026-03-29T11:14:01.999Z</time></trkpt><trkpt lat="44.559186346311215" lon="8.773541266233629"><ele>785.0</ele><time>2026-03-29T11:14:02.999Z</time></trkpt><trkpt lat="44.55925000225481" lon="8.77350375320804"><ele>785.0</ele><time>2026-03-29T11:14:03.999Z</time></trkpt><trkpt lat="44.55931437625716" lon="8.77347561212529"><ele>785.0000000000001</ele><time>2026-03-29T11:14:04.999Z</time></trkpt><trkpt lat="44.55943220819002" lon="8.77344705204424"><ele>785.0</ele><time>2026-03-29T11:14:06.999Z</time></trkpt><trkpt lat="44.55953980277578" lon="8.773435121418508"><ele>782.8</ele><time>2026-03-29T11:14:08.999Z</time></trkpt><trkpt lat="44.5596175458767" lon="8.773427561019535"><ele>780.6</ele><time>2026-03-29T11:14:10.999Z</time></trkpt><trkpt lat="44.55972164405073" lon="8.773234161240842"><ele>778.4000000000001</ele><time>2026-03-29T11:14:12.999Z</time></trkpt><trkpt lat="44.55978066078345" lon="8.77317498551134"><ele>776.2</ele><time>2026-03-29T11:14:13.999Z</time></trkpt><trkpt lat="44.55983604524304" lon="8.773119451755385"><ele>774.0</ele><time>2026-03-29T11:14:14.999Z</time></trkpt><trkpt lat="44.55983167929157" lon="8.772963975072145"><ele>774.0</ele><time>2026-03-29T11:14:15.999Z</time></trkpt><trkpt lat="44.55985340044295" lon="8.772862557104911"><ele>774.0</ele><time>2026-03-29T11:14:16.999Z</time></trkpt><trkpt lat="44.55986244061683" lon="8.772753295063568"><ele>774.0</ele><time>2026-03-29T11:14:17.999Z</time></trkpt><trkpt lat="44.55986769230185" lon="8.77265547898136"><ele>774.0</ele><time>2026-03-29T11:14:18.999Z</time></trkpt><trkpt lat="44.55991400707534" lon="8.772508096913974"><ele>774.0</ele><time>2026-03-29T11:14:20.999Z</time></trkpt><trkpt lat="44.55995619101674" lon="8.772434008054676"><ele>774.0</ele><time>2026-03-29T11:14:21.999Z</time></trkpt><trkpt lat="44.56000170979795" lon="8.772351472877586"><ele>774.1666666666666</ele><time>2026-03-29T11:14:22.999Z</time></trkpt><trkpt lat="44.560063000348684" lon="8.772294382568226"><ele>774.3333333333333</ele><time>2026-03-29T11:14:23.999Z</time></trkpt><trkpt lat="44.560151081197795" lon="8.772212482771803"><ele>774.5</ele><time>2026-03-29T11:14:25.999Z</time></trkpt><trkpt lat="44.56020721532061" lon="8.772156974120948"><ele>774.6666666666666</ele><time>2026-03-29T11:14:27.999Z</time></trkpt><trkpt lat="44.560275234455" lon="8.772123834699979"><ele>774.8333333333333</ele><time>2026-03-29T11:14:30.999Z</time></trkpt><trkpt lat="44.560332640499574" lon="8.772079149532987"><ele>775.0</ele><time>2026-03-29T11:14:32.999Z</time></trkpt><trkpt lat="44.56045524738053" lon="8.771987720038288"><ele>775.4999999999999</ele><time>2026-03-29T11:14:34.999Z</time></trkpt><trkpt lat="44.56053271327823" lon="8.77192995366166"><ele>776.0</ele><time>2026-03-29T11:14:35.999Z</time></trkpt><trkpt lat="44.56059734053774" lon="8.771872252545066"><ele>776.5</ele><time>2026-03-29T11:14:36.999Z</time></trkpt><trkpt lat="44.560661864328694" lon="8.77181578517753"><ele>777.0</ele><time>2026-03-29T11:14:37.999Z</time></trkpt><trkpt lat="44.56072628077422" lon="8.771756675997143"><ele>777.4999999999999</ele><time>2026-03-29T11:14:38.999Z</time></trkpt><trkpt lat="44.56079570703018" lon="8.771691113931755"><ele>778.0</ele><time>2026-03-29T11:14:39.999Z</time></trkpt><trkpt lat="44.56085941596781" lon="8.77162740505308"><ele>777.9999999999999</ele><time>2026-03-29T11:14:40.999Z</time></trkpt><trkpt lat="44.56091861734051" lon="8.771568203643586"><ele>778.0</ele><time>2026-03-29T11:14:41.999Z</time></trkpt><trkpt lat="44.560996166745454" lon="8.771487858867522"><ele>778.0</ele><time>2026-03-29T11:14:42.999Z</time></trkpt><trkpt lat="44.561068758205394" lon="8.77140978216336"><ele>778.0</ele><time>2026-03-29T11:14:43.999Z</time></trkpt><trkpt lat="44.56112760869876" lon="8.771316013783709"><ele>777.9999999999999</ele><time>2026-03-29T11:14:44.999Z</time></trkpt><trkpt lat="44.56119784829057" lon="8.771243529908775"><ele>778.0</ele><time>2026-03-29T11:14:45.999Z</time></trkpt><trkpt lat="44.56125868750082" lon="8.771171164004702"><ele>776.4</ele><time>2026-03-29T11:14:46.999Z</time></trkpt><trkpt lat="44.56131411573793" lon="8.771109969641197"><ele>774.8</ele><time>2026-03-29T11:14:47.999Z</time></trkpt><trkpt lat="44.56137938236619" lon="8.771028906065894"><ele>773.2</ele><time>2026-03-29T11:14:48.999Z</time></trkpt><trkpt lat="44.561453179413405" lon="8.770953648315546"><ele>771.6</ele><time>2026-03-29T11:14:49.999Z</time></trkpt><trkpt lat="44.56154293030391" lon="8.77087018805221"><ele>770.0</ele><time>2026-03-29T11:14:50.999Z</time></trkpt><trkpt lat="44.56163249143611" lon="8.770792130298354"><ele>771.8</ele><time>2026-03-29T11:14:51.999Z</time></trkpt><trkpt lat="44.561727942779356" lon="8.770717360852908"><ele>773.6</ele><time>2026-03-29T11:14:52.999Z</time></trkpt><trkpt lat="44.56181128356768" lon="8.77065327678867"><ele>775.4000000000001</ele><time>2026-03-29T11:14:53.999Z</time></trkpt><trkpt lat="44.56189161667016" lon="8.770597127363718"><ele>777.2</ele><time>2026-03-29T11:14:54.999Z</time></trkpt><trkpt lat="44.56196545289082" lon="8.770548719525797"><ele>779.0</ele><time>2026-03-29T11:14:55.999Z</time></trkpt><trkpt lat="44.56204294721285" lon="8.770493161717692"><ele>779.0000000000001</ele><time>2026-03-29T11:14:56.999Z</time></trkpt><trkpt lat="44.56210873190348" lon="8.770448486616484"><ele>779.0</ele><time>2026-03-29T11:14:57.999Z</time></trkpt><trkpt lat="44.562170937863804" lon="8.770415763218047"><ele>779.0</ele><time>2026-03-29T11:14:58.999Z</time></trkpt><trkpt lat="44.5622822194613" lon="8.77036757081912"><ele>779.0</ele><time>2026-03-29T11:15:00.998Z</time></trkpt><trkpt lat="44.56239460534055" lon="8.770324193424148"><ele>779.0000000000001</ele><time>2026-03-29T11:15:02.998Z</time></trkpt><trkpt lat="44.56245673704927" lon="8.770296402891402"><ele>779.0</ele><time>2026-03-29T11:15:03.998Z</time></trkpt><trkpt lat="44.562529584317545" lon="8.77024979103083"><ele>779.0000000000001</ele><time>2026-03-29T11:15:04.998Z</time></trkpt><trkpt lat="44.56259587993268" lon="8.770231878570815"><ele>779.0</ele><time>2026-03-29T11:15:05.998Z</time></trkpt><trkpt lat="44.562666255548194" lon="8.770201834313777"><ele>779.0</ele><time>2026-03-29T11:15:06.998Z</time></trkpt><trkpt lat="44.56273980433434" lon="8.770156537704613"><ele>779.0</ele><time>2026-03-29T11:15:07.998Z</time></trkpt><trkpt lat="44.56281747495299" lon="8.770083311605678"><ele>779.0000000000001</ele><time>2026-03-29T11:15:08.998Z</time></trkpt><trkpt lat="44.56289272076365" lon="8.770027403987621"><ele>779.0</ele><time>2026-03-29T11:15:09.998Z</time></trkpt><trkpt lat="44.56295194452287" lon="8.769982562550883"><ele>780.4000000000001</ele><time>2026-03-29T11:15:10.998Z</time></trkpt><trkpt lat="44.563028456230136" lon="8.769964640596731"><ele>781.8</ele><time>2026-03-29T11:15:11.998Z</time></trkpt><trkpt lat="44.563107452768065" lon="8.769962397909568"><ele>783.2</ele><time>2026-03-29T11:15:12.998Z</time></trkpt><trkpt lat="44.56323622862912" lon="8.769957341986684"><ele>784.5999999999999</ele><time>2026-03-29T11:15:14.998Z</time></trkpt><trkpt lat="44.56336225803932" lon="8.769848795087649"><ele>786.0</ele><time>2026-03-29T11:15:16.998Z</time></trkpt><trkpt lat="44.56342062146499" lon="8.769799455361245"><ele>786.0</ele><time>2026-03-29T11:15:17.998Z</time></trkpt><trkpt lat="44.5635509917882" lon="8.7697288642536"><ele>786.0</ele><time>2026-03-29T11:15:19.998Z</time></trkpt><trkpt lat="44.563675708527136" lon="8.769674976825167"><ele>786.0</ele><time>2026-03-29T11:15:20.998Z</time></trkpt><trkpt lat="44.56377011124825" lon="8.76966390320908"><ele>786.0</ele><time>2026-03-29T11:15:21.998Z</time></trkpt><trkpt lat="44.56386137457562" lon="8.7696607864842"><ele>786.0</ele><time>2026-03-29T11:15:22.998Z</time></trkpt><trkpt lat="44.56396821720241" lon="8.769667686543519"><ele>786.0</ele><time>2026-03-29T11:15:23.999Z</time></trkpt><trkpt lat="44.564068748095515" lon="8.769682679375293"><ele>786.0</ele><time>2026-03-29T11:15:24.999Z</time></trkpt><trkpt lat="44.56415891953184" lon="8.769691657917694"><ele>786.0</ele><time>2026-03-29T11:15:25.999Z</time></trkpt><trkpt lat="44.56424250926261" lon="8.76967598500806"><ele>786.0</ele><time>2026-03-29T11:15:26.999Z</time></trkpt><trkpt lat="44.564329392209395" lon="8.76964584461023"><ele>786.0</ele><time>2026-03-29T11:15:27.999Z</time></trkpt><trkpt lat="44.56441449461956" lon="8.769650776508838"><ele>786.0</ele><time>2026-03-29T11:15:29.999Z</time></trkpt><trkpt lat="44.56450265031342" lon="8.769634760301166"><ele>786.0</ele><time>2026-03-29T11:15:30.999Z</time></trkpt><trkpt lat="44.56462058547785" lon="8.769611893201102"><ele>786.0</ele><time>2026-03-29T11:15:32.999Z</time></trkpt><trkpt lat="44.56473163431192" lon="8.769575436067942"><ele>786.0</ele><time>2026-03-29T11:15:33.999Z</time></trkpt><trkpt lat="44.56482583538616" lon="8.76953734187906"><ele>786.5</ele><time>2026-03-29T11:15:34.999Z</time></trkpt><trkpt lat="44.56492452394287" lon="8.769511888634282"><ele>787.0</ele><time>2026-03-29T11:15:35.999Z</time></trkpt><trkpt lat="44.565002120211176" lon="8.769502870982995"><ele>787.5</ele><time>2026-03-29T11:15:36.999Z</time></trkpt><trkpt lat="44.56508245315687" lon="8.76947320990653"><ele>788.0</ele><time>2026-03-29T11:15:37.999Z</time></trkpt><trkpt lat="44.56515723851627" lon="8.769422985150355"><ele>788.5</ele><time>2026-03-29T11:15:38.999Z</time></trkpt><trkpt lat="44.565232568050085" lon="8.769375341404665"><ele>789.0</ele><time>2026-03-29T11:15:39.999Z</time></trkpt><trkpt lat="44.56529255250972" lon="8.769318877284983"><ele>791.0</ele><time>2026-03-29T11:15:40.999Z</time></trkpt><trkpt lat="44.565342282815976" lon="8.769255372071475"><ele>793.0</ele><time>2026-03-29T11:15:41.999Z</time></trkpt><trkpt lat="44.56539691646475" lon="8.769195269012773"><ele>795.0</ele><time>2026-03-29T11:15:42.999Z</time></trkpt><trkpt lat="44.56545228731239" lon="8.769132803779282"><ele>797.0</ele><time>2026-03-29T11:15:43.999Z</time></trkpt><trkpt lat="44.56553249421313" lon="8.769024361704181"><ele>799.0</ele><time>2026-03-29T11:15:45.999Z</time></trkpt><trkpt lat="44.5656353167681" lon="8.768932640095278"><ele>801.0</ele><time>2026-03-29T11:15:47.999Z</time></trkpt><trkpt lat="44.56570222523524" lon="8.768899261836484"><ele>801.1666666666666</ele><time>2026-03-29T11:15:48.999Z</time></trkpt><trkpt lat="44.565763923559025" lon="8.768879296454042"><ele>801.3333333333333</ele><time>2026-03-29T11:15:49.999Z</time></trkpt><trkpt lat="44.56587000752756" lon="8.768827637336669"><ele>801.5</ele><time>2026-03-29T11:15:51.999Z</time></trkpt><trkpt lat="44.56593615158923" lon="8.768797046812265"><ele>801.6666666666666</ele><time>2026-03-29T11:15:52.999Z</time></trkpt><trkpt lat="44.56600167296722" lon="8.768762809476737"><ele>801.8333333333333</ele><time>2026-03-29T11:15:53.999Z</time></trkpt><trkpt lat="44.56606960194132" lon="8.768709222816495"><ele>802.0</ele><time>2026-03-29T11:15:54.999Z</time></trkpt><trkpt lat="44.56613535251571" lon="8.768682891647229"><ele>801.8333333333333</ele><time>2026-03-29T11:15:55.999Z</time></trkpt><trkpt lat="44.56623970403638" lon="8.768570986840944"><ele>801.6666666666666</ele><time>2026-03-29T11:15:57.999Z</time></trkpt><trkpt lat="44.566298560405755" lon="8.768535971934716"><ele>801.5</ele><time>2026-03-29T11:15:58.999Z</time></trkpt><trkpt lat="44.56635189044623" lon="8.76847039479705"><ele>801.3333333333333</ele><time>2026-03-29T11:15:59.999Z</time></trkpt><trkpt lat="44.566414716767646" lon="8.76841342886487"><ele>801.1666666666666</ele><time>2026-03-29T11:16:00.999Z</time></trkpt><trkpt lat="44.56647173321324" lon="8.768364450269862"><ele>801.0</ele><time>2026-03-29T11:16:01.999Z</time></trkpt><trkpt lat="44.56659445018354" lon="8.768299997321535"><ele>801.0</ele><time>2026-03-29T11:16:03.999Z</time></trkpt><trkpt lat="44.56666118603288" lon="8.768260201847074"><ele>801.0</ele><time>2026-03-29T11:16:04.999Z</time></trkpt><trkpt lat="44.566760309335244" lon="8.768225819845753"><ele>801.0</ele><time>2026-03-29T11:16:05.999Z</time></trkpt><trkpt lat="44.56685531231086" lon="8.768192065974082"><ele>801.0</ele><time>2026-03-29T11:16:06.999Z</time></trkpt><trkpt lat="44.56694312543443" lon="8.76816265471373"><ele>801.0</ele><time>2026-03-29T11:16:07.999Z</time></trkpt><trkpt lat="44.56702150208204" lon="8.76814576989945"><ele>801.0</ele><time>2026-03-29T11:16:08.999Z</time></trkpt><trkpt lat="44.56710835838032" lon="8.768112904547278"><ele>802.6666666666666</ele><time>2026-03-29T11:16:09.999Z</time></trkpt><trkpt lat="44.56718075180835" lon="8.76806696283485"><ele>804.3333333333333</ele><time>2026-03-29T11:16:10.999Z</time></trkpt><trkpt lat="44.5672550673957" lon="8.768020480047703"><ele>806.0</ele><time>2026-03-29T11:16:11.999Z</time></trkpt><trkpt lat="44.567326007381745" lon="8.767955074283753"><ele>807.6666666666666</ele><time>2026-03-29T11:16:12.999Z</time></trkpt><trkpt lat="44.5674003366556" lon="8.767913310755356"><ele>809.3333333333333</ele><time>2026-03-29T11:16:13.999Z</time></trkpt><trkpt lat="44.567452014048676" lon="8.76785374087041"><ele>811.0</ele><time>2026-03-29T11:16:14.999Z</time></trkpt><trkpt lat="44.56750522877388" lon="8.76778848274079"><ele>810.9999999999999</ele><time>2026-03-29T11:16:15.999Z</time></trkpt><trkpt lat="44.56757154668331" lon="8.767761801287595"><ele>811.0</ele><time>2026-03-29T11:16:16.999Z</time></trkpt><trkpt lat="44.56762639079772" lon="8.767713689237867"><ele>811.0</ele><time>2026-03-29T11:16:17.999Z</time></trkpt><trkpt lat="44.56768882097658" lon="8.767681380337542"><ele>811.0</ele><time>2026-03-29T11:16:18.999Z</time></trkpt><trkpt lat="44.567813237332864" lon="8.767672517890633"><ele>810.9999999999999</ele><time>2026-03-29T11:16:20.999Z</time></trkpt><trkpt lat="44.56792410746682" lon="8.767709449727054"><ele>811.0</ele><time>2026-03-29T11:16:22.999Z</time></trkpt><trkpt lat="44.56799129074099" lon="8.76773520253259"><ele>812.9999999999999</ele><time>2026-03-29T11:16:23.999Z</time></trkpt><trkpt lat="44.568093822923466" lon="8.767756092659573"><ele>815.0</ele><time>2026-03-29T11:16:25.999Z</time></trkpt><trkpt lat="44.568173493890335" lon="8.767671049614487"><ele>817.0</ele><time>2026-03-29T11:16:27.999Z</time></trkpt><trkpt lat="44.56820279527351" lon="8.767584770547598"><ele>819.0</ele><time>2026-03-29T11:16:28.999Z</time></trkpt><trkpt lat="44.56823072844803" lon="8.767504966393053"><ele>820.9999999999999</ele><time>2026-03-29T11:16:29.999Z</time></trkpt><trkpt lat="44.56828076651168" lon="8.767450290832008"><ele>823.0</ele><time>2026-03-29T11:16:30.999Z</time></trkpt><trkpt lat="44.56833146476996" lon="8.767388487003567"><ele>820.5714285714286</ele><time>2026-03-29T11:16:31.999Z</time></trkpt><trkpt lat="44.5683900295521" lon="8.767324304127321"><ele>818.1428571428571</ele><time>2026-03-29T11:16:32.999Z</time></trkpt><trkpt lat="44.568448214272046" lon="8.767268206175638"><ele>815.7142857142858</ele><time>2026-03-29T11:16:33.999Z</time></trkpt><trkpt lat="44.56851763029527" lon="8.767233806993545"><ele>813.2857142857142</ele><time>2026-03-29T11:16:34.999Z</time></trkpt><trkpt lat="44.56858072549559" lon="8.767217932114594"><ele>810.8571428571428</ele><time>2026-03-29T11:16:35.999Z</time></trkpt><trkpt lat="44.56864978068238" lon="8.7672249300278"><ele>808.4285714285714</ele><time>2026-03-29T11:16:36.999Z</time></trkpt><trkpt lat="44.568712138879455" lon="8.767242430049459"><ele>806.0</ele><time>2026-03-29T11:16:37.999Z</time></trkpt><trkpt lat="44.56884248961345" lon="8.767299837021737"><ele>806.0</ele><time>2026-03-29T11:16:39.999Z</time></trkpt><trkpt lat="44.568946538364514" lon="8.767381598646184"><ele>806.0</ele><time>2026-03-29T11:16:41.999Z</time></trkpt><trkpt lat="44.56901286498002" lon="8.767410086507578"><ele>806.0</ele><time>2026-03-29T11:16:42.999Z</time></trkpt><trkpt lat="44.56915280068887" lon="8.767462481205879"><ele>806.0</ele><time>2026-03-29T11:16:44.999Z</time></trkpt><trkpt lat="44.56923501965893" lon="8.767470593645758"><ele>806.0</ele><time>2026-03-29T11:16:45.999Z</time></trkpt><trkpt lat="44.56934151946721" lon="8.767473844129114"><ele>806.0000000000001</ele><time>2026-03-29T11:16:47.999Z</time></trkpt><trkpt lat="44.56944616265363" lon="8.767416617496966"><ele>806.0</ele><time>2026-03-29T11:16:49.999Z</time></trkpt><trkpt lat="44.569511585439166" lon="8.767443518081361"><ele>806.0</ele><time>2026-03-29T11:16:50.999Z</time></trkpt><trkpt lat="44.56957272003944" lon="8.767487300108781"><ele>806.0</ele><time>2026-03-29T11:16:51.999Z</time></trkpt><trkpt lat="44.56963743957803" lon="8.767511291787706"><ele>806.0000000000001</ele><time>2026-03-29T11:16:52.999Z</time></trkpt><trkpt lat="44.56968823677864" lon="8.767580974975669"><ele>806.0</ele><time>2026-03-29T11:16:53.999Z</time></trkpt><trkpt lat="44.56975821910998" lon="8.767608029530251"><ele>805.8333333333334</ele><time>2026-03-29T11:16:54.999Z</time></trkpt><trkpt lat="44.56983706200387" lon="8.767602692974782"><ele>805.6666666666667</ele><time>2026-03-29T11:16:55.999Z</time></trkpt><trkpt lat="44.56994007666362" lon="8.767601861433581"><ele>805.5</ele><time>2026-03-29T11:16:56.999Z</time></trkpt><trkpt lat="44.570021798727836" lon="8.767578416787144"><ele>805.3333333333333</ele><time>2026-03-29T11:16:57.999Z</time></trkpt><trkpt lat="44.57010113823252" lon="8.767517754320806"><ele>805.1666666666666</ele><time>2026-03-29T11:16:58.999Z</time></trkpt><trkpt lat="44.57017970557788" lon="8.767470797647775"><ele>805.0</ele><time>2026-03-29T11:16:59.999Z</time></trkpt><trkpt lat="44.57030308847664" lon="8.767429711027587"><ele>804.4999999999999</ele><time>2026-03-29T11:17:01.999Z</time></trkpt><trkpt lat="44.57037359548556" lon="8.767447559146659"><ele>804.0</ele><time>2026-03-29T11:17:02.999Z</time></trkpt><trkpt lat="44.570459268567184" lon="8.767464824557154"><ele>803.5</ele><time>2026-03-29T11:17:03.999Z</time></trkpt><trkpt lat="44.5705327637419" lon="8.767485172347008"><ele>803.0</ele><time>2026-03-29T11:17:04.999Z</time></trkpt><trkpt lat="44.57060961606224" lon="8.767511583653436"><ele>802.4999999999999</ele><time>2026-03-29T11:17:05.999Z</time></trkpt><trkpt lat="44.570672789668535" lon="8.767555175396247"><ele>802.0</ele><time>2026-03-29T11:17:06.998Z</time></trkpt><trkpt lat="44.570760141432956" lon="8.76757730580248"><ele>802.0</ele><time>2026-03-29T11:17:07.998Z</time></trkpt><trkpt lat="44.57089648915024" lon="8.767618456775132"><ele>802.0</ele><time>2026-03-29T11:17:09.998Z</time></trkpt><trkpt lat="44.57097045366743" lon="8.767651292156417"><ele>802.0</ele><time>2026-03-29T11:17:10.998Z</time></trkpt><trkpt lat="44.57104439859149" lon="8.767679613956606"><ele>802.0</ele><time>2026-03-29T11:17:11.998Z</time></trkpt><trkpt lat="44.57114626782324" lon="8.767723669121303"><ele>802.0</ele><time>2026-03-29T11:17:12.998Z</time></trkpt><trkpt lat="44.571259612038254" lon="8.767702245416492"><ele>801.8</ele><time>2026-03-29T11:17:14.998Z</time></trkpt><trkpt lat="44.5713733841295" lon="8.767682715175049"><ele>801.6</ele><time>2026-03-29T11:17:15.998Z</time></trkpt><trkpt lat="44.57146373009203" lon="8.76757847527464"><ele>801.4</ele><time>2026-03-29T11:17:17.998Z</time></trkpt><trkpt lat="44.571511429648865" lon="8.767518704665918"><ele>801.1999999999999</ele><time>2026-03-29T11:17:18.998Z</time></trkpt><trkpt lat="44.571570953627315" lon="8.767474218743011"><ele>801.0</ele><time>2026-03-29T11:17:19.999Z</time></trkpt><trkpt lat="44.57171138844546" lon="8.767431126963194"><ele>801.0</ele><time>2026-03-29T11:17:21.999Z</time></trkpt><trkpt lat="44.57178688810844" lon="8.767406037574794"><ele>801.0</ele><time>2026-03-29T11:17:22.999Z</time></trkpt><trkpt lat="44.57185550480403" lon="8.767397481319646"><ele>801.0</ele><time>2026-03-29T11:17:23.999Z</time></trkpt><trkpt lat="44.571928920333896" lon="8.767374072809893"><ele>801.0</ele><time>2026-03-29T11:17:24.999Z</time></trkpt><trkpt lat="44.57201548904193" lon="8.767359513485253"><ele>801.0</ele><time>2026-03-29T11:17:25.999Z</time></trkpt><trkpt lat="44.57211493276943" lon="8.767347756744625"><ele>801.0</ele><time>2026-03-29T11:17:26.999Z</time></trkpt><trkpt lat="44.57220562905157" lon="8.767332079583399"><ele>801.8333333333334</ele><time>2026-03-29T11:17:27.999Z</time></trkpt><trkpt lat="44.572283361959194" lon="8.76730988408357"><ele>802.6666666666667</ele><time>2026-03-29T11:17:28.999Z</time></trkpt><trkpt lat="44.572354667053254" lon="8.767319199741136"><ele>803.5</ele><time>2026-03-29T11:17:29.999Z</time></trkpt><trkpt lat="44.57242783731325" lon="8.76732352249146"><ele>804.3333333333334</ele><time>2026-03-29T11:17:30.999Z</time></trkpt><trkpt lat="44.57249559635743" lon="8.767341069362386"><ele>805.1666666666667</ele><time>2026-03-29T11:17:31.999Z</time></trkpt><trkpt lat="44.572557715288895" lon="8.767356302922792"><ele>806.0</ele><time>2026-03-29T11:17:32.999Z</time></trkpt><trkpt lat="44.57267509612225" lon="8.767322742255448"><ele>806.0000000000001</ele><time>2026-03-29T11:17:34.999Z</time></trkpt><trkpt lat="44.5727216040767" lon="8.7672603159037"><ele>806.0</ele><time>2026-03-29T11:17:35.999Z</time></trkpt><trkpt lat="44.57275119152389" lon="8.767098313982487"><ele>806.0</ele><time>2026-03-29T11:17:37.999Z</time></trkpt><trkpt lat="44.572727603847014" lon="8.766990964617406"><ele>806.0</ele><time>2026-03-29T11:17:38.999Z</time></trkpt><trkpt lat="44.57270229695872" lon="8.766909248633924"><ele>806.0000000000001</ele><time>2026-03-29T11:17:39.999Z</time></trkpt><trkpt lat="44.5726664984005" lon="8.766777470563762"><ele>806.0</ele><time>2026-03-29T11:17:41.999Z</time></trkpt><trkpt lat="44.572651170041865" lon="8.766653472743396"><ele>804.1999999999999</ele><time>2026-03-29T11:17:43.999Z</time></trkpt><trkpt lat="44.57268862141587" lon="8.766550749830019"><ele>802.4</ele><time>2026-03-29T11:17:44.999Z</time></trkpt><trkpt lat="44.57276988106338" lon="8.766438397950324"><ele>800.6</ele><time>2026-03-29T11:17:45.999Z</time></trkpt><trkpt lat="44.5728353144252" lon="8.766291073659753"><ele>798.8</ele><time>2026-03-29T11:17:46.999Z</time></trkpt><trkpt lat="44.572884813342654" lon="8.766170012308939"><ele>797.0</ele><time>2026-03-29T11:17:47.999Z</time></trkpt><trkpt lat="44.57291892202645" lon="8.76606272306009"><ele>797.6666666666667</ele><time>2026-03-29T11:17:48.999Z</time></trkpt><trkpt lat="44.57295526913155" lon="8.765966220167382"><ele>798.3333333333334</ele><time>2026-03-29T11:17:49.999Z</time></trkpt><trkpt lat="44.57299923101094" lon="8.765879544748373"><ele>799.0</ele><time>2026-03-29T11:17:50.999Z</time></trkpt><trkpt lat="44.57305033874268" lon="8.765819428319295"><ele>799.6666666666667</ele><time>2026-03-29T11:17:51.999Z</time></trkpt><trkpt lat="44.573104914714065" lon="8.765771996984782"><ele>800.3333333333334</ele><time>2026-03-29T11:17:52.999Z</time></trkpt><trkpt lat="44.573211796714595" lon="8.76576092681032"><ele>801.0</ele><time>2026-03-29T11:17:54.999Z</time></trkpt><trkpt lat="44.57329934421136" lon="8.765826982506038"><ele>801.0</ele><time>2026-03-29T11:17:56.999Z</time></trkpt><trkpt lat="44.573392758610325" lon="8.76583449603402"><ele>801.0</ele><time>2026-03-29T11:17:58.999Z</time></trkpt><trkpt lat="44.573492912785966" lon="8.765713910167428"><ele>801.0</ele><time>2026-03-29T11:18:01Z</time></trkpt><trkpt lat="44.573540671743636" lon="8.765599898613708"><ele>801.0</ele><time>2026-03-29T11:18:02Z</time></trkpt><trkpt lat="44.57359724478788" lon="8.765471715108545"><ele>801.0</ele><time>2026-03-29T11:18:03Z</time></trkpt><trkpt lat="44.57367404230228" lon="8.76537758903787"><ele>801.6666666666666</ele><time>2026-03-29T11:18:04Z</time></trkpt><trkpt lat="44.57374501790114" lon="8.765283667522125"><ele>802.3333333333333</ele><time>2026-03-29T11:18:05Z</time></trkpt><trkpt lat="44.57381280623366" lon="8.765206654150981"><ele>803.0</ele><time>2026-03-29T11:18:06Z</time></trkpt><trkpt lat="44.57386002044082" lon="8.76512968616493"><ele>803.6666666666666</ele><time>2026-03-29T11:18:07Z</time></trkpt><trkpt lat="44.57390069350558" lon="8.765056060238017"><ele>804.3333333333333</ele><time>2026-03-29T11:18:08Z</time></trkpt><trkpt lat="44.57393330166204" lon="8.764969893945825"><ele>805.0</ele><time>2026-03-29T11:18:09Z</time></trkpt><trkpt lat="44.57394046023118" lon="8.764869876730087"><ele>804.9999999999999</ele><time>2026-03-29T11:18:10Z</time></trkpt><trkpt lat="44.57393119750662" lon="8.764762445798914"><ele>805.0</ele><time>2026-03-29T11:18:11Z</time></trkpt><trkpt lat="44.57390770191458" lon="8.764640682566732"><ele>805.0</ele><time>2026-03-29T11:18:12Z</time></trkpt><trkpt lat="44.573871267264295" lon="8.764519717806676"><ele>805.0</ele><time>2026-03-29T11:18:13Z</time></trkpt><trkpt lat="44.573854424515076" lon="8.764406048176443"><ele>804.9999999999999</ele><time>2026-03-29T11:18:14Z</time></trkpt><trkpt lat="44.573848372362356" lon="8.764293263727543"><ele>805.0</ele><time>2026-03-29T11:18:15Z</time></trkpt><trkpt lat="44.57384294403816" lon="8.764198204007592"><ele>805.0</ele><time>2026-03-29T11:18:16Z</time></trkpt><trkpt lat="44.57383802525359" lon="8.764022459773324"><ele>805.0</ele><time>2026-03-29T11:18:18Z</time></trkpt><trkpt lat="44.57386063763039" lon="8.763918712089113"><ele>805.0</ele><time>2026-03-29T11:18:19Z</time></trkpt><trkpt lat="44.57391752329964" lon="8.763824990964416"><ele>805.0</ele><time>2026-03-29T11:18:20Z</time></trkpt><trkpt lat="44.57398409847546" lon="8.763718349726645"><ele>805.0</ele><time>2026-03-29T11:18:21Z</time></trkpt><trkpt lat="44.57406025704117" lon="8.763608752041687"><ele>804.0</ele><time>2026-03-29T11:18:22Z</time></trkpt><trkpt lat="44.57413523787567" lon="8.763504501135603"><ele>803.0</ele><time>2026-03-29T11:18:23Z</time></trkpt><trkpt lat="44.57422440111567" lon="8.763407273640029"><ele>802.0</ele><time>2026-03-29T11:18:24Z</time></trkpt><trkpt lat="44.57429415607448" lon="8.763307238047256"><ele>801.0</ele><time>2026-03-29T11:18:25Z</time></trkpt><trkpt lat="44.57436672098925" lon="8.763221801819045"><ele>800.0</ele><time>2026-03-29T11:18:26Z</time></trkpt><trkpt lat="44.57443262848707" lon="8.76315672798096"><ele>800.0000000000001</ele><time>2026-03-29T11:18:27Z</time></trkpt><trkpt lat="44.57450938488459" lon="8.763092331331602"><ele>800.0</ele><time>2026-03-29T11:18:28Z</time></trkpt><trkpt lat="44.57457416471233" lon="8.763021787614878"><ele>800.0</ele><time>2026-03-29T11:18:29Z</time></trkpt><trkpt lat="44.57463682601679" lon="8.762930771574865"><ele>800.0</ele><time>2026-03-29T11:18:30Z</time></trkpt><trkpt lat="44.5746948874654" lon="8.762827628122933"><ele>800.0000000000001</ele><time>2026-03-29T11:18:31Z</time></trkpt><trkpt lat="44.57474388045563" lon="8.762732021020478"><ele>800.0</ele><time>2026-03-29T11:18:32Z</time></trkpt><trkpt lat="44.57479050672775" lon="8.762647430201005"><ele>799.8333333333334</ele><time>2026-03-29T11:18:33Z</time></trkpt><trkpt lat="44.574832542793565" lon="8.76257368743073"><ele>799.6666666666667</ele><time>2026-03-29T11:18:34Z</time></trkpt><trkpt lat="44.574918174536265" lon="8.762479755304126"><ele>799.5</ele><time>2026-03-29T11:18:36Z</time></trkpt><trkpt lat="44.575003389168046" lon="8.762410228912001"><ele>799.3333333333333</ele><time>2026-03-29T11:18:38Z</time></trkpt><trkpt lat="44.57504170017547" lon="8.762328748708962"><ele>799.1666666666666</ele><time>2026-03-29T11:18:40Z</time></trkpt><trkpt lat="44.57501503794455" lon="8.76220464699345"><ele>799.0</ele><time>2026-03-29T11:18:43Z</time></trkpt><trkpt lat="44.57498176734411" lon="8.762054668074569"><ele>798.9999999999999</ele><time>2026-03-29T11:18:45Z</time></trkpt><trkpt lat="44.574914899453475" lon="8.761906419778938"><ele>799.0</ele><time>2026-03-29T11:18:47Z</time></trkpt><trkpt lat="44.57487458826406" lon="8.761838301495272"><ele>799.0</ele><time>2026-03-29T11:18:48Z</time></trkpt><trkpt lat="44.57482926151238" lon="8.761768760633778"><ele>799.0</ele><time>2026-03-29T11:18:49Z</time></trkpt><trkpt lat="44.57477179507482" lon="8.761721741303232"><ele>798.9999999999999</ele><time>2026-03-29T11:18:50Z</time></trkpt><trkpt lat="44.57471189762546" lon="8.761604253410912"><ele>799.0</ele><time>2026-03-29T11:18:52Z</time></trkpt><trkpt lat="44.57471095708352" lon="8.761470691555962"><ele>798.0</ele><time>2026-03-29T11:18:54Z</time></trkpt><trkpt lat="44.57476264102331" lon="8.761337121638855"><ele>797.0</ele><time>2026-03-29T11:18:56Z</time></trkpt><trkpt lat="44.574811317763974" lon="8.76126922239227"><ele>796.0</ele><time>2026-03-29T11:18:57Z</time></trkpt><trkpt lat="44.57486282629207" lon="8.761213955787051"><ele>795.0</ele><time>2026-03-29T11:18:58Z</time></trkpt><trkpt lat="44.57491716117453" lon="8.761156272623706"><ele>794.0</ele><time>2026-03-29T11:18:59Z</time></trkpt><trkpt lat="44.57496822665622" lon="8.761095949324398"><ele>793.0</ele><time>2026-03-29T11:19:00Z</time></trkpt><trkpt lat="44.575023679432725" lon="8.761047026390195"><ele>792.0</ele><time>2026-03-29T11:19:01Z</time></trkpt><trkpt lat="44.57508361019072" lon="8.761012636999155"><ele>792.0</ele><time>2026-03-29T11:19:02Z</time></trkpt><trkpt lat="44.57514601776566" lon="8.760988743251524"><ele>792.0</ele><time>2026-03-29T11:19:03Z</time></trkpt><trkpt lat="44.57521404266682" lon="8.760982226167954"><ele>792.0</ele><time>2026-03-29T11:19:04Z</time></trkpt><trkpt lat="44.57528712096511" lon="8.760995079378898"><ele>792.0</ele><time>2026-03-29T11:19:05Z</time></trkpt><trkpt lat="44.57534918697194" lon="8.761034642750715"><ele>792.0</ele><time>2026-03-29T11:19:06Z</time></trkpt><trkpt lat="44.57542317846613" lon="8.761021785222221"><ele>792.0</ele><time>2026-03-29T11:19:07Z</time></trkpt><trkpt lat="44.57548857156367" lon="8.761014879429107"><ele>792.0</ele><time>2026-03-29T11:19:08Z</time></trkpt><trkpt lat="44.57556086534951" lon="8.760978280273402"><ele>790.6</ele><time>2026-03-29T11:19:09Z</time></trkpt><trkpt lat="44.575663454330034" lon="8.760909734188639"><ele>789.2</ele><time>2026-03-29T11:19:11Z</time></trkpt><trkpt lat="44.57571660725804" lon="8.760803950508368"><ele>787.8</ele><time>2026-03-29T11:19:12.999Z</time></trkpt><trkpt lat="44.575761061027094" lon="8.760694559068265"><ele>786.4</ele><time>2026-03-29T11:19:14.999Z</time></trkpt><trkpt lat="44.57576654610765" lon="8.760549947664122"><ele>785.0</ele><time>2026-03-29T11:19:16.999Z</time></trkpt><trkpt lat="44.575731578517114" lon="8.760420267193663"><ele>785.0000000000001</ele><time>2026-03-29T11:19:18.999Z</time></trkpt><trkpt lat="44.57566605962338" lon="8.760343628681774"><ele>785.0</ele><time>2026-03-29T11:19:27.999Z</time></trkpt><trkpt lat="44.57559438299672" lon="8.760243099714296"><ele>785.0</ele><time>2026-03-29T11:19:29.999Z</time></trkpt><trkpt lat="44.575568942661484" lon="8.760075316273644"><ele>785.0</ele><time>2026-03-29T11:19:32Z</time></trkpt><trkpt lat="44.575568346063115" lon="8.759982435054965"><ele>785.0000000000001</ele><time>2026-03-29T11:19:33Z</time></trkpt><trkpt lat="44.57556471268636" lon="8.759893836714264"><ele>785.0</ele><time>2026-03-29T11:19:34Z</time></trkpt><trkpt lat="44.57557371959263" lon="8.759796123846655"><ele>784.0</ele><time>2026-03-29T11:19:35Z</time></trkpt><trkpt lat="44.57559298872567" lon="8.759705625543933"><ele>783.0</ele><time>2026-03-29T11:19:36Z</time></trkpt><trkpt lat="44.57561477627256" lon="8.759563817077819"><ele>782.0</ele><time>2026-03-29T11:19:38Z</time></trkpt><trkpt lat="44.575546164203374" lon="8.759412337458919"><ele>781.0</ele><time>2026-03-29T11:19:40Z</time></trkpt><trkpt lat="44.57549124733922" lon="8.759346077533207"><ele>780.0</ele><time>2026-03-29T11:19:41Z</time></trkpt><trkpt lat="44.57540908955487" lon="8.75931846487217"><ele>777.0</ele><time>2026-03-29T11:19:42Z</time></trkpt><trkpt lat="44.57533907418741" lon="8.759296605611087"><ele>774.0</ele><time>2026-03-29T11:19:43Z</time></trkpt><trkpt lat="44.57526616050197" lon="8.759281047107079"><ele>771.0</ele><time>2026-03-29T11:19:44Z</time></trkpt><trkpt lat="44.57519996458348" lon="8.759267069372346"><ele>768.0</ele><time>2026-03-29T11:19:45Z</time></trkpt><trkpt lat="44.57511524537666" lon="8.759151972714012"><ele>765.0</ele><time>2026-03-29T11:19:47Z</time></trkpt><trkpt lat="44.5750877762226" lon="8.759055290481605"><ele>762.0</ele><time>2026-03-29T11:19:48Z</time></trkpt><trkpt lat="44.57502348446825" lon="8.758993573331312"><ele>762.0</ele><time>2026-03-29T11:19:49Z</time></trkpt><trkpt lat="44.57494254161063" lon="8.758974125257865"><ele>762.0</ele><time>2026-03-29T11:19:50Z</time></trkpt><trkpt lat="44.57484477576079" lon="8.758973041121935"><ele>762.0</ele><time>2026-03-29T11:19:52Z</time></trkpt><trkpt lat="44.57477157033465" lon="8.75894026123564"><ele>762.0</ele><time>2026-03-29T11:19:53Z</time></trkpt><trkpt lat="44.57467949307674" lon="8.758837138172707"><ele>762.0</ele><time>2026-03-29T11:19:55Z</time></trkpt><trkpt lat="44.574576987765276" lon="8.758746112046449"><ele>758.0</ele><time>2026-03-29T11:19:57Z</time></trkpt><trkpt lat="44.574497085943435" lon="8.758643445495633"><ele>754.0</ele><time>2026-03-29T11:19:59Z</time></trkpt><trkpt lat="44.57446434329615" lon="8.758566068794268"><ele>750.0</ele><time>2026-03-29T11:20:00Z</time></trkpt><trkpt lat="44.57444042657757" lon="8.758478100515859"><ele>746.0</ele><time>2026-03-29T11:20:01Z</time></trkpt><trkpt lat="44.574412861512855" lon="8.75837901153352"><ele>742.0</ele><time>2026-03-29T11:20:02Z</time></trkpt><trkpt lat="44.57439498792247" lon="8.758290818863202"><ele>738.0</ele><time>2026-03-29T11:20:03Z</time></trkpt><trkpt lat="44.57436996933003" lon="8.758146162109103"><ele>737.8</ele><time>2026-03-29T11:20:05Z</time></trkpt><trkpt lat="44.574374161827144" lon="8.757988295806951"><ele>737.5999999999999</ele><time>2026-03-29T11:20:07Z</time></trkpt><trkpt lat="44.57440787986518" lon="8.757903906861534"><ele>737.4000000000001</ele><time>2026-03-29T11:20:08Z</time></trkpt><trkpt lat="44.574480961129545" lon="8.757852943753958"><ele>737.2</ele><time>2026-03-29T11:20:09Z</time></trkpt><trkpt lat="44.574538413526454" lon="8.75780593424288"><ele>737.0</ele><time>2026-03-29T11:20:10Z</time></trkpt><trkpt lat="44.57465032495112" lon="8.757742746287876"><ele>739.25</ele><time>2026-03-29T11:20:12Z</time></trkpt><trkpt lat="44.574727546537446" lon="8.757638168164878"><ele>741.5</ele><time>2026-03-29T11:20:14Z</time></trkpt><trkpt lat="44.574749211045486" lon="8.757497911573934"><ele>743.75</ele><time>2026-03-29T11:20:16Z</time></trkpt><trkpt lat="44.57476990626007" lon="8.75732200921839"><ele>746.0</ele><time>2026-03-29T11:20:18Z</time></trkpt><trkpt lat="44.57478472388225" lon="8.757146990647096"><ele>746.0</ele><time>2026-03-29T11:20:20Z</time></trkpt><trkpt lat="44.57479518786369" lon="8.757055553372691"><ele>746.0</ele><time>2026-03-29T11:20:21Z</time></trkpt><trkpt lat="44.57481916012765" lon="8.756967804036336"><ele>746.0</ele><time>2026-03-29T11:20:22Z</time></trkpt><trkpt lat="44.57487173220965" lon="8.756804823498426"><ele>746.0</ele><time>2026-03-29T11:20:24Z</time></trkpt><trkpt lat="44.57488757208101" lon="8.756626072312493"><ele>746.0</ele><time>2026-03-29T11:20:26Z</time></trkpt><trkpt lat="44.57487705261724" lon="8.756529943700148"><ele>742.5999999999999</ele><time>2026-03-29T11:20:27Z</time></trkpt><trkpt lat="44.57485562884645" lon="8.756439333802742"><ele>739.2</ele><time>2026-03-29T11:20:28Z</time></trkpt><trkpt lat="44.574816232030464" lon="8.756265692651798"><ele>735.8</ele><time>2026-03-29T11:20:30Z</time></trkpt><trkpt lat="44.57479629948153" lon="8.756167227749252"><ele>732.4000000000001</ele><time>2026-03-29T11:20:31Z</time></trkpt><trkpt lat="44.57477749541045" lon="8.756069556356634"><ele>729.0</ele><time>2026-03-29T11:20:32Z</time></trkpt><trkpt lat="44.57473484284858" lon="8.75590728263588"><ele>727.3333333333334</ele><time>2026-03-29T11:20:34Z</time></trkpt><trkpt lat="44.57466844167663" lon="8.755795817242433"><ele>725.6666666666666</ele><time>2026-03-29T11:20:36Z</time></trkpt><trkpt lat="44.574584394172845" lon="8.755827604345855"><ele>724.0</ele><time>2026-03-29T11:20:37Z</time></trkpt><trkpt lat="44.5745129870365" lon="8.755815617923599"><ele>722.3333333333333</ele><time>2026-03-29T11:20:38Z</time></trkpt><trkpt lat="44.57443672526875" lon="8.75581638791119"><ele>720.6666666666666</ele><time>2026-03-29T11:20:39Z</time></trkpt><trkpt lat="44.57437065406702" lon="8.755808744961588"><ele>719.0</ele><time>2026-03-29T11:20:40Z</time></trkpt><trkpt lat="44.574243357653316" lon="8.75579100800694"><ele>719.0</ele><time>2026-03-29T11:20:42Z</time></trkpt><trkpt lat="44.57415708990079" lon="8.755808453080478"><ele>719.0</ele><time>2026-03-29T11:20:43.001Z</time></trkpt><trkpt lat="44.57407514199364" lon="8.755828095307315"><ele>719.0</ele><time>2026-03-29T11:20:44.001Z</time></trkpt><trkpt lat="44.57400126015178" lon="8.755860815522905"><ele>719.0</ele><time>2026-03-29T11:20:45.001Z</time></trkpt><trkpt lat="44.57392540941631" lon="8.75585541041032"><ele>719.0</ele><time>2026-03-29T11:20:46.001Z</time></trkpt><trkpt lat="44.57385333563202" lon="8.755830841182128"><ele>719.0</ele><time>2026-03-29T11:20:47.001Z</time></trkpt><trkpt lat="44.57372889463548" lon="8.755832565800034"><ele>717.8333333333333</ele><time>2026-03-29T11:20:49.001Z</time></trkpt><trkpt lat="44.57364972945915" lon="8.755850195379283"><ele>716.6666666666666</ele><time>2026-03-29T11:20:50.001Z</time></trkpt><trkpt lat="44.57357367720702" lon="8.755864670840015"><ele>715.5</ele><time>2026-03-29T11:20:51.001Z</time></trkpt><trkpt lat="44.573491002657015" lon="8.755872489653255"><ele>714.3333333333334</ele><time>2026-03-29T11:20:52.001Z</time></trkpt><trkpt lat="44.57341545508537" lon="8.755876265263721"><ele>713.1666666666667</ele><time>2026-03-29T11:20:53.001Z</time></trkpt><trkpt lat="44.57334260269388" lon="8.755879906175736"><ele>712.0</ele><time>2026-03-29T11:20:54.001Z</time></trkpt><trkpt lat="44.573278305852945" lon="8.755905062405168"><ele>712.0</ele><time>2026-03-29T11:20:55.001Z</time></trkpt><trkpt lat="44.5732094795835" lon="8.75589857437338"><ele>712.0</ele><time>2026-03-29T11:20:56.001Z</time></trkpt><trkpt lat="44.573085493055565" lon="8.75589204488933"><ele>712.0</ele><time>2026-03-29T11:20:58.001Z</time></trkpt><trkpt lat="44.57301711429044" lon="8.755883555068678"><ele>712.0</ele><time>2026-03-29T11:20:59.001Z</time></trkpt><trkpt lat="44.57295106317318" lon="8.755866277619464"><ele>712.0</ele><time>2026-03-29T11:21:00.001Z</time></trkpt><trkpt lat="44.572886280934966" lon="8.755829179973322"><ele>712.0</ele><time>2026-03-29T11:21:01.001Z</time></trkpt><trkpt lat="44.57282224355609" lon="8.755838208088791"><ele>706.8</ele><time>2026-03-29T11:21:02.001Z</time></trkpt><trkpt lat="44.57270213644106" lon="8.755801143852686"><ele>701.6</ele><time>2026-03-29T11:21:04.001Z</time></trkpt><trkpt lat="44.57261020492029" lon="8.755722243887782"><ele>696.4</ele><time>2026-03-29T11:21:06.001Z</time></trkpt><trkpt lat="44.57253097316028" lon="8.755624206629738"><ele>691.1999999999999</ele><time>2026-03-29T11:21:08.001Z</time></trkpt><trkpt lat="44.572466535670216" lon="8.755499091265904"><ele>686.0</ele><time>2026-03-29T11:21:10.001Z</time></trkpt><trkpt lat="44.57243558806095" lon="8.755349768288745"><ele>686.0</ele><time>2026-03-29T11:21:12.001Z</time></trkpt><trkpt lat="44.57242859587264" lon="8.755257284736441"><ele>686.0</ele><time>2026-03-29T11:21:13.001Z</time></trkpt><trkpt lat="44.572420883586766" lon="8.755166005541739"><ele>686.0</ele><time>2026-03-29T11:21:14.001Z</time></trkpt><trkpt lat="44.57239763269128" lon="8.755012281442308"><ele>686.0</ele><time>2026-03-29T11:21:16.001Z</time></trkpt><trkpt lat="44.57237213168167" lon="8.75487101661169"><ele>686.0</ele><time>2026-03-29T11:21:18.001Z</time></trkpt><trkpt lat="44.57236991472719" lon="8.754693238312019"><ele>686.1999999999999</ele><time>2026-03-29T11:21:20Z</time></trkpt><trkpt lat="44.57238315202013" lon="8.754593193119527"><ele>686.4</ele><time>2026-03-29T11:21:21Z</time></trkpt><trkpt lat="44.572431338239454" lon="8.75443573064594"><ele>686.6</ele><time>2026-03-29T11:21:23Z</time></trkpt><trkpt lat="44.572495563439006" lon="8.754298880248205"><ele>686.8</ele><time>2026-03-29T11:21:25Z</time></trkpt><trkpt lat="44.57255601016013" lon="8.754231070327533"><ele>687.0</ele><time>2026-03-29T11:21:26Z</time></trkpt><trkpt lat="44.57262135283374" lon="8.75417034139131"><ele>688.8333333333334</ele><time>2026-03-29T11:21:27Z</time></trkpt><trkpt lat="44.572675847810494" lon="8.754114140209422"><ele>690.6666666666666</ele><time>2026-03-29T11:21:28Z</time></trkpt><trkpt lat="44.572769661052405" lon="8.753999426578464"><ele>692.5</ele><time>2026-03-29T11:21:30Z</time></trkpt><trkpt lat="44.57281147285257" lon="8.75392569304126"><ele>694.3333333333333</ele><time>2026-03-29T11:21:31Z</time></trkpt><trkpt lat="44.57285394076383" lon="8.753844194916594"><ele>696.1666666666666</ele><time>2026-03-29T11:21:32Z</time></trkpt><trkpt lat="44.57289867153619" lon="8.753767322525704"><ele>698.0</ele><time>2026-03-29T11:21:33Z</time></trkpt><trkpt lat="44.57294625461234" lon="8.753693424726828"><ele>698.0</ele><time>2026-03-29T11:21:34Z</time></trkpt><trkpt lat="44.572991118633716" lon="8.753629885692273"><ele>698.0</ele><time>2026-03-29T11:21:35Z</time></trkpt><trkpt lat="44.57306591326349" lon="8.753509202806738"><ele>698.0</ele><time>2026-03-29T11:21:37Z</time></trkpt><trkpt lat="44.57308867723801" lon="8.753352543632117"><ele>698.0</ele><time>2026-03-29T11:21:39Z</time></trkpt><trkpt lat="44.573072668353596" lon="8.753178249060783"><ele>698.0</ele><time>2026-03-29T11:21:41Z</time></trkpt><trkpt lat="44.57305741649598" lon="8.753086099006353"><ele>694.3333333333333</ele><time>2026-03-29T11:21:42Z</time></trkpt><trkpt lat="44.573047530807685" lon="8.752990677235973"><ele>690.6666666666666</ele><time>2026-03-29T11:21:43Z</time></trkpt><trkpt lat="44.573038658055246" lon="8.752898459731458"><ele>687.0</ele><time>2026-03-29T11:21:44Z</time></trkpt><trkpt lat="44.57302956967013" lon="8.752810241904925"><ele>683.3333333333334</ele><time>2026-03-29T11:21:45Z</time></trkpt><trkpt lat="44.57298580212199" lon="8.752696862890872"><ele>679.6666666666667</ele><time>2026-03-29T11:21:47Z</time></trkpt><trkpt lat="44.57293988250182" lon="8.752622162342005"><ele>676.0</ele><time>2026-03-29T11:21:48Z</time></trkpt><trkpt lat="44.57287923570702" lon="8.752516000269138"><ele>672.1666666666667</ele><time>2026-03-29T11:21:50Z</time></trkpt><trkpt lat="44.572786437009164" lon="8.752468271721014"><ele>668.3333333333334</ele><time>2026-03-29T11:21:52Z</time></trkpt><trkpt lat="44.57267177367629" lon="8.752527111267336"><ele>664.5</ele><time>2026-03-29T11:21:54Z</time></trkpt><trkpt lat="44.57262932818259" lon="8.752595287141814"><ele>660.6666666666666</ele><time>2026-03-29T11:21:55Z</time></trkpt><trkpt lat="44.572604480076414" lon="8.752683732794015"><ele>656.8333333333333</ele><time>2026-03-29T11:21:56Z</time></trkpt><trkpt lat="44.57260122934062" lon="8.752794000504764"><ele>653.0</ele><time>2026-03-29T11:21:57Z</time></trkpt><trkpt lat="44.57256854412054" lon="8.752935566400252"><ele>653.0000000000001</ele><time>2026-03-29T11:21:59Z</time></trkpt><trkpt lat="44.57250507233384" lon="8.752989162151342"><ele>653.0</ele><time>2026-03-29T11:22:01Z</time></trkpt><trkpt lat="44.57241882233838" lon="8.752998547388739"><ele>653.0</ele><time>2026-03-29T11:22:03Z</time></trkpt><trkpt lat="44.57235141584093" lon="8.753003057394018"><ele>653.0</ele><time>2026-03-29T11:22:04Z</time></trkpt><trkpt lat="44.5722813374145" lon="8.753010015609833"><ele>653.0</ele><time>2026-03-29T11:22:05Z</time></trkpt><trkpt lat="44.57221575799529" lon="8.753002982000796"><ele>653.0000000000001</ele><time>2026-03-29T11:22:06Z</time></trkpt><trkpt lat="44.57214685905519" lon="8.752988610890625"><ele>653.0</ele><time>2026-03-29T11:22:07Z</time></trkpt><trkpt lat="44.57202923914688" lon="8.752953998905912"><ele>648.6</ele><time>2026-03-29T11:22:09Z</time></trkpt><trkpt lat="44.571909056501184" lon="8.75293649538358"><ele>644.1999999999999</ele><time>2026-03-29T11:22:11Z</time></trkpt><trkpt lat="44.57178144960535" lon="8.752918167415421"><ele>639.8</ele><time>2026-03-29T11:22:13Z</time></trkpt><trkpt lat="44.5717174477039" lon="8.752904898955315"><ele>635.4</ele><time>2026-03-29T11:22:14Z</time></trkpt><trkpt lat="44.57160999376483" lon="8.752904559259832"><ele>631.0</ele><time>2026-03-29T11:22:16Z</time></trkpt><trkpt lat="44.57149779301806" lon="8.752894157794657"><ele>631.0</ele><time>2026-03-29T11:22:18Z</time></trkpt><trkpt lat="44.571436121876495" lon="8.752924543194133"><ele>631.0</ele><time>2026-03-29T11:22:20Z</time></trkpt><trkpt lat="44.57141403514004" lon="8.752804387689757"><ele>631.0</ele><time>2026-03-29T11:22:23.001Z</time></trkpt><trkpt lat="44.5714832046305" lon="8.752725012781365"><ele>631.0</ele><time>2026-03-29T11:22:25.001Z</time></trkpt><trkpt lat="44.5716026106126" lon="8.752687288747314"><ele>631.0</ele><time>2026-03-29T11:22:27.001Z</time></trkpt><trkpt lat="44.57166478508327" lon="8.752664487884584"><ele>631.0</ele><time>2026-03-29T11:22:28.001Z</time></trkpt><trkpt lat="44.571722703815716" lon="8.752617108984753"><ele>632.0</ele><time>2026-03-29T11:22:29.001Z</time></trkpt><trkpt lat="44.57178309897091" lon="8.752569154275546"><ele>633.0</ele><time>2026-03-29T11:22:30.001Z</time></trkpt><trkpt lat="44.571899888907396" lon="8.752517343724167"><ele>634.0</ele><time>2026-03-29T11:22:32.001Z</time></trkpt><trkpt lat="44.571999990357995" lon="8.752431531845577"><ele>635.0</ele><time>2026-03-29T11:22:34.001Z</time></trkpt><trkpt lat="44.572053267958346" lon="8.752379549921445"><ele>636.0</ele><time>2026-03-29T11:22:35.001Z</time></trkpt><trkpt lat="44.57206686089575" lon="8.752283115372702"><ele>637.0</ele><time>2026-03-29T11:22:36.001Z</time></trkpt><trkpt lat="44.57205322852009" lon="8.75211816639593"><ele>637.0</ele><time>2026-03-29T11:22:38.001Z</time></trkpt><trkpt lat="44.572045546575595" lon="8.75201861358663"><ele>637.0</ele><time>2026-03-29T11:22:39.001Z</time></trkpt><trkpt lat="44.572041586879976" lon="8.751923860134651"><ele>637.0</ele><time>2026-03-29T11:22:40.001Z</time></trkpt><trkpt lat="44.57205067218039" lon="8.751826601732123"><ele>637.0</ele><time>2026-03-29T11:22:41.001Z</time></trkpt><trkpt lat="44.57207841019037" lon="8.751737350800793"><ele>637.0</ele><time>2026-03-29T11:22:42.001Z</time></trkpt><trkpt lat="44.57210377968029" lon="8.75164892664721"><ele>637.0</ele><time>2026-03-29T11:22:43.001Z</time></trkpt><trkpt lat="44.57213020196697" lon="8.751555476546242"><ele>637.0</ele><time>2026-03-29T11:22:44.001Z</time></trkpt><trkpt lat="44.57214059972506" lon="8.751457492947447"><ele>634.5</ele><time>2026-03-29T11:22:45.001Z</time></trkpt><trkpt lat="44.57215119915335" lon="8.751357643564688"><ele>632.0</ele><time>2026-03-29T11:22:46.001Z</time></trkpt><trkpt lat="44.572163712590346" lon="8.751263798612698"><ele>629.5</ele><time>2026-03-29T11:22:47.001Z</time></trkpt><trkpt lat="44.572203597317134" lon="8.751115977805952"><ele>627.0</ele><time>2026-03-29T11:22:49.001Z</time></trkpt><trkpt lat="44.572262886148295" lon="8.750985737989252"><ele>624.5</ele><time>2026-03-29T11:22:51.001Z</time></trkpt><trkpt lat="44.57230852588753" lon="8.750913665007259"><ele>622.0</ele><time>2026-03-29T11:22:52.001Z</time></trkpt><trkpt lat="44.57236910781195" lon="8.75085411900328"><ele>618.7142857142857</ele><time>2026-03-29T11:22:53.001Z</time></trkpt><trkpt lat="44.572404744765294" lon="8.750777675706445"><ele>615.4285714285714</ele><time>2026-03-29T11:22:54.001Z</time></trkpt><trkpt lat="44.57245207336318" lon="8.750710563298119"><ele>612.1428571428571</ele><time>2026-03-29T11:22:55.001Z</time></trkpt><trkpt lat="44.57249959079348" lon="8.750638990006363"><ele>608.8571428571429</ele><time>2026-03-29T11:22:56.001Z</time></trkpt><trkpt lat="44.57254748776471" lon="8.750564720325777"><ele>605.5714285714286</ele><time>2026-03-29T11:22:57.001Z</time></trkpt><trkpt lat="44.57260125847605" lon="8.75050643830903"><ele>602.2857142857143</ele><time>2026-03-29T11:22:58.001Z</time></trkpt><trkpt lat="44.57265467907916" lon="8.750425294865849"><ele>599.0</ele><time>2026-03-29T11:22:59.001Z</time></trkpt><trkpt lat="44.57270654871132" lon="8.750359545734998"><ele>599.0</ele><time>2026-03-29T11:23:00.001Z</time></trkpt><trkpt lat="44.572762794606675" lon="8.750292757350309"><ele>599.0</ele><time>2026-03-29T11:23:01.001Z</time></trkpt><trkpt lat="44.572827382042554" lon="8.750253037789651"><ele>599.0</ele><time>2026-03-29T11:23:02.001Z</time></trkpt><trkpt lat="44.57289037626932" lon="8.75020733023006"><ele>599.0</ele><time>2026-03-29T11:23:03.001Z</time></trkpt><trkpt lat="44.57295928534856" lon="8.750164271844508"><ele>599.0</ele><time>2026-03-29T11:23:04.001Z</time></trkpt><trkpt lat="44.57302890856285" lon="8.750116252252354"><ele>599.0</ele><time>2026-03-29T11:23:05.001Z</time></trkpt><trkpt lat="44.573097940168566" lon="8.750079269874417"><ele>599.0</ele><time>2026-03-29T11:23:06.001Z</time></trkpt><trkpt lat="44.5731587555633" lon="8.750040613575035"><ele>597.3333333333333</ele><time>2026-03-29T11:23:07.001Z</time></trkpt><trkpt lat="44.57321807822008" lon="8.749999381805875"><ele>595.6666666666666</ele><time>2026-03-29T11:23:08.001Z</time></trkpt><trkpt lat="44.573279192214756" lon="8.749959719734036"><ele>594.0</ele><time>2026-03-29T11:23:09.001Z</time></trkpt><trkpt lat="44.57335838447956" lon="8.749894875013366"><ele>592.3333333333334</ele><time>2026-03-29T11:23:11.001Z</time></trkpt><trkpt lat="44.573412138200844" lon="8.749792199703476"><ele>590.6666666666667</ele><time>2026-03-29T11:23:13.001Z</time></trkpt><trkpt lat="44.573444862573304" lon="8.749650227532435"><ele>589.0</ele><time>2026-03-29T11:23:15.001Z</time></trkpt><trkpt lat="44.573433632687355" lon="8.749524183463013"><ele>589.0</ele><time>2026-03-29T11:23:17.001Z</time></trkpt><trkpt lat="44.5733767934549" lon="8.749403685813324"><ele>589.0</ele><time>2026-03-29T11:23:19.001Z</time></trkpt><trkpt lat="44.57329443604811" lon="8.749282065437898"><ele>589.0</ele><time>2026-03-29T11:23:21.001Z</time></trkpt><trkpt lat="44.57325744196751" lon="8.749202094274128"><ele>589.0</ele><time>2026-03-29T11:23:22.001Z</time></trkpt><trkpt lat="44.573208297830654" lon="8.749126447105008"><ele>589.0</ele><time>2026-03-29T11:23:23.001Z</time></trkpt><trkpt lat="44.57316105839584" lon="8.749044771269874"><ele>589.0</ele><time>2026-03-29T11:23:24.001Z</time></trkpt><trkpt lat="44.573107835838485" lon="8.7489709727381"><ele>587.5</ele><time>2026-03-29T11:23:25Z</time></trkpt><trkpt lat="44.57306489470233" lon="8.748880149356383"><ele>586.0</ele><time>2026-03-29T11:23:26Z</time></trkpt><trkpt lat="44.57303229318043" lon="8.748781232301418"><ele>584.5</ele><time>2026-03-29T11:23:27Z</time></trkpt><trkpt lat="44.57300260478685" lon="8.748698631687413"><ele>583.0</ele><time>2026-03-29T11:23:28Z</time></trkpt><trkpt lat="44.57293243980729" lon="8.748565053192925"><ele>581.5</ele><time>2026-03-29T11:23:30Z</time></trkpt><trkpt lat="44.57288650757162" lon="8.748504207201423"><ele>580.0</ele><time>2026-03-29T11:23:31Z</time></trkpt><trkpt lat="44.572824801549764" lon="8.748372204640576"><ele>578.0</ele><time>2026-03-29T11:23:33Z</time></trkpt><trkpt lat="44.57279976765337" lon="8.7482856207828"><ele>576.0</ele><time>2026-03-29T11:23:34Z</time></trkpt><trkpt lat="44.57277981087373" lon="8.748200383421318"><ele>574.0</ele><time>2026-03-29T11:23:35Z</time></trkpt><trkpt lat="44.5727800827993" lon="8.748051456470291"><ele>572.0</ele><time>2026-03-29T11:23:37Z</time></trkpt><trkpt lat="44.572812783758586" lon="8.747929889427192"><ele>570.0</ele><time>2026-03-29T11:23:39Z</time></trkpt><trkpt lat="44.57289794989199" lon="8.747857598792184"><ele>568.0</ele><time>2026-03-29T11:23:41Z</time></trkpt><trkpt lat="44.57300460284268" lon="8.747814908740695"><ele>568.0</ele><time>2026-03-29T11:23:43Z</time></trkpt><trkpt lat="44.573105417321905" lon="8.747778512673406"><ele>568.0</ele><time>2026-03-29T11:23:45Z</time></trkpt><trkpt lat="44.57317146830285" lon="8.74769181325329"><ele>568.0</ele><time>2026-03-29T11:23:47Z</time></trkpt><trkpt lat="44.5731879058674" lon="8.747548699872512"><ele>568.0</ele><time>2026-03-29T11:23:49Z</time></trkpt><trkpt lat="44.57321216856686" lon="8.747402151685217"><ele>568.0</ele><time>2026-03-29T11:23:51Z</time></trkpt><trkpt lat="44.57324750283982" lon="8.747279407680901"><ele>563.0</ele><time>2026-03-29T11:23:53Z</time></trkpt><trkpt lat="44.57332268564069" lon="8.747193470701411"><ele>558.0</ele><time>2026-03-29T11:23:55Z</time></trkpt><trkpt lat="44.573428872519514" lon="8.747135429387871"><ele>553.0</ele><time>2026-03-29T11:23:57Z</time></trkpt><trkpt lat="44.57351850830822" lon="8.74712719763553"><ele>548.0</ele><time>2026-03-29T11:23:59Z</time></trkpt><trkpt lat="44.573607895914066" lon="8.74715994284948"><ele>543.0</ele><time>2026-03-29T11:24:01Z</time></trkpt><trkpt lat="44.57368095408487" lon="8.747280660498346"><ele>538.4</ele><time>2026-03-29T11:24:03Z</time></trkpt><trkpt lat="44.57376538083613" lon="8.747402909917461"><ele>533.8</ele><time>2026-03-29T11:24:05Z</time></trkpt><trkpt lat="44.57381736013149" lon="8.747475069277607"><ele>529.2</ele><time>2026-03-29T11:24:06Z</time></trkpt><trkpt lat="44.5739252124381" lon="8.74755121467143"><ele>524.6</ele><time>2026-03-29T11:24:08Z</time></trkpt><trkpt lat="44.57401109131398" lon="8.747612718923149"><ele>520.0</ele><time>2026-03-29T11:24:10Z</time></trkpt><trkpt lat="44.57411907406927" lon="8.74766023513014"><ele>520.0</ele><time>2026-03-29T11:24:12Z</time></trkpt><trkpt lat="44.57422155053807" lon="8.74773985445819"><ele>520.0</ele><time>2026-03-29T11:24:14Z</time></trkpt><trkpt lat="44.574295040118116" lon="8.74775212131809"><ele>520.0</ele><time>2026-03-29T11:24:15Z</time></trkpt><trkpt lat="44.57436829678264" lon="8.74779872060067"><ele>520.0</ele><time>2026-03-29T11:24:16Z</time></trkpt><trkpt lat="44.57445460542417" lon="8.747831713053257"><ele>520.0</ele><time>2026-03-29T11:24:17Z</time></trkpt><trkpt lat="44.57458997586815" lon="8.747866216696"><ele>520.0</ele><time>2026-03-29T11:24:19Z</time></trkpt><trkpt lat="44.57465690965848" lon="8.747892889804438"><ele>520.0</ele><time>2026-03-29T11:24:20Z</time></trkpt><trkpt lat="44.574749875375254" lon="8.74793628586755"><ele>520.0</ele><time>2026-03-29T11:24:21Z</time></trkpt><trkpt lat="44.5748562498886" lon="8.748018605955036"><ele>520.0</ele><time>2026-03-29T11:24:23.001Z</time></trkpt><trkpt lat="44.574914524541" lon="8.748057322523387"><ele>520.0</ele><time>2026-03-29T11:24:24.001Z</time></trkpt><trkpt lat="44.57498338825228" lon="8.74807436131966"><ele>520.0</ele><time>2026-03-29T11:24:25.001Z</time></trkpt><trkpt lat="44.57508686120274" lon="8.748110814948165"><ele>520.0</ele><time>2026-03-29T11:24:27.001Z</time></trkpt><trkpt lat="44.57519330037859" lon="8.748200153471805"><ele>520.0</ele><time>2026-03-29T11:24:29.001Z</time></trkpt><trkpt lat="44.575222576241266" lon="8.748301982934152"><ele>520.0</ele><time>2026-03-29T11:24:30.001Z</time></trkpt><trkpt lat="44.57531994720219" lon="8.748416335745695"><ele>520.0</ele><time>2026-03-29T11:24:32.001Z</time></trkpt><trkpt lat="44.575411463219545" lon="8.748499666826632"><ele>520.0</ele><time>2026-03-29T11:24:34.001Z</time></trkpt><trkpt lat="44.575509543054004" lon="8.748532742929097"><ele>516.6</ele><time>2026-03-29T11:24:36.001Z</time></trkpt><trkpt lat="44.575536331068086" lon="8.748437522260408"><ele>513.2</ele><time>2026-03-29T11:24:37.001Z</time></trkpt><trkpt lat="44.57559529158982" lon="8.748324479588272"><ele>509.79999999999995</ele><time>2026-03-29T11:24:39.001Z</time></trkpt><trkpt lat="44.57566533991765" lon="8.748233873336739"><ele>506.4</ele><time>2026-03-29T11:24:41.001Z</time></trkpt><trkpt lat="44.575766433930255" lon="8.748239792097285"><ele>503.0</ele><time>2026-03-29T11:24:43.001Z</time></trkpt><trkpt lat="44.575875498256494" lon="8.748271307874884"><ele>502.99999999999994</ele><time>2026-03-29T11:24:45.001Z</time></trkpt><trkpt lat="44.57598510460595" lon="8.748289656208915"><ele>503.0</ele><time>2026-03-29T11:24:47.001Z</time></trkpt><trkpt lat="44.57607458510388" lon="8.748209247978147"><ele>503.0</ele><time>2026-03-29T11:24:49.001Z</time></trkpt><trkpt lat="44.57612941516358" lon="8.748137810822522"><ele>503.0</ele><time>2026-03-29T11:24:50.001Z</time></trkpt><trkpt lat="44.576174913654526" lon="8.748058495412275"><ele>502.99999999999994</ele><time>2026-03-29T11:24:51.001Z</time></trkpt><trkpt lat="44.57621213855943" lon="8.747973226084554"><ele>503.0</ele><time>2026-03-29T11:24:52.001Z</time></trkpt><trkpt lat="44.5763180788704" lon="8.74789606658047"><ele>506.79999999999995</ele><time>2026-03-29T11:24:54.001Z</time></trkpt><trkpt lat="44.57641694480237" lon="8.747836588561265"><ele>510.59999999999997</ele><time>2026-03-29T11:24:56.001Z</time></trkpt><trkpt lat="44.57652606250308" lon="8.74783869403469"><ele>514.4000000000001</ele><time>2026-03-29T11:24:58.001Z</time></trkpt><trkpt lat="44.57662329728025" lon="8.747859209732384"><ele>518.2</ele><time>2026-03-29T11:25:00.001Z</time></trkpt><trkpt lat="44.57674312622227" lon="8.74782237545824"><ele>522.0</ele><time>2026-03-29T11:25:02.001Z</time></trkpt><trkpt lat="44.57681722731059" lon="8.747787808439552"><ele>522.0</ele><time>2026-03-29T11:25:03.001Z</time></trkpt><trkpt lat="44.57688310042903" lon="8.747769195751701"><ele>522.0</ele><time>2026-03-29T11:25:04.001Z</time></trkpt><trkpt lat="44.57694889143526" lon="8.747755818426155"><ele>522.0</ele><time>2026-03-29T11:25:05.001Z</time></trkpt><trkpt lat="44.577010436533726" lon="8.747735358479957"><ele>522.0</ele><time>2026-03-29T11:25:06.001Z</time></trkpt><trkpt lat="44.57707866875452" lon="8.747694027352809"><ele>522.0</ele><time>2026-03-29T11:25:07.001Z</time></trkpt><trkpt lat="44.57715130849405" lon="8.747681010709362"><ele>522.0</ele><time>2026-03-29T11:25:08.001Z</time></trkpt><trkpt lat="44.57721314957271" lon="8.7476490122907"><ele>522.0</ele><time>2026-03-29T11:25:09.001Z</time></trkpt><trkpt lat="44.57728132355016" lon="8.747631037577918"><ele>515.8571428571429</ele><time>2026-03-29T11:25:10.001Z</time></trkpt><trkpt lat="44.57735573785383" lon="8.74764091053156"><ele>509.71428571428567</ele><time>2026-03-29T11:25:11.001Z</time></trkpt><trkpt lat="44.5774196403487" lon="8.747599279030098"><ele>503.57142857142856</ele><time>2026-03-29T11:25:12.001Z</time></trkpt><trkpt lat="44.57747855236801" lon="8.747551949178819"><ele>497.42857142857144</ele><time>2026-03-29T11:25:13.001Z</time></trkpt><trkpt lat="44.57753632142769" lon="8.74750061670247"><ele>491.28571428571433</ele><time>2026-03-29T11:25:14.001Z</time></trkpt><trkpt lat="44.57759575722246" lon="8.747450305860173"><ele>485.1428571428571</ele><time>2026-03-29T11:25:15.001Z</time></trkpt><trkpt lat="44.57765561672286" lon="8.747422903318652"><ele>479.0</ele><time>2026-03-29T11:25:16.001Z</time></trkpt><trkpt lat="44.57777907887209" lon="8.747416978282981"><ele>478.99999999999994</ele><time>2026-03-29T11:25:18.001Z</time></trkpt><trkpt lat="44.577843987328656" lon="8.747443523913528"><ele>479.0</ele><time>2026-03-29T11:25:19.001Z</time></trkpt><trkpt lat="44.57789479745131" lon="8.747523554083443"><ele>479.0</ele><time>2026-03-29T11:25:20.001Z</time></trkpt><trkpt lat="44.57795644372116" lon="8.747545643486433"><ele>479.0</ele><time>2026-03-29T11:25:21.001Z</time></trkpt><trkpt lat="44.57805827125218" lon="8.747637476057442"><ele>478.99999999999994</ele><time>2026-03-29T11:25:23.001Z</time></trkpt><trkpt lat="44.57814887846604" lon="8.747606997412884"><ele>479.0</ele><time>2026-03-29T11:25:25.001Z</time></trkpt><trkpt lat="44.5782136992847" lon="8.747576724876316"><ele>479.71428571428567</ele><time>2026-03-29T11:25:27.001Z</time></trkpt><trkpt lat="44.57827063852201" lon="8.747496941206434"><ele>480.42857142857144</ele><time>2026-03-29T11:25:30.001Z</time></trkpt><trkpt lat="44.57829311576556" lon="8.747392639815278"><ele>481.1428571428571</ele><time>2026-03-29T11:25:32Z</time></trkpt><trkpt lat="44.578280928142455" lon="8.747302539096697"><ele>481.85714285714283</ele><time>2026-03-29T11:25:33Z</time></trkpt><trkpt lat="44.57827963203128" lon="8.74720436057014"><ele>482.57142857142856</ele><time>2026-03-29T11:25:34Z</time></trkpt><trkpt lat="44.57824936014842" lon="8.747114209531652"><ele>483.2857142857143</ele><time>2026-03-29T11:25:35Z</time></trkpt><trkpt lat="44.57820724140614" lon="8.747022699749566"><ele>484.0</ele><time>2026-03-29T11:25:36Z</time></trkpt><trkpt lat="44.578136608997944" lon="8.746917364019465"><ele>482.2</ele><time>2026-03-29T11:25:38Z</time></trkpt><trkpt lat="44.578084347513375" lon="8.746811321264591"><ele>480.4</ele><time>2026-03-29T11:25:40Z</time></trkpt><trkpt lat="44.57805424817118" lon="8.74666275679503"><ele>478.6</ele><time>2026-03-29T11:25:42Z</time></trkpt><trkpt lat="44.578050618868275" lon="8.746515984213357"><ele>476.8</ele><time>2026-03-29T11:25:44Z</time></trkpt><trkpt lat="44.5781029994949" lon="8.746387894601103"><ele>475.0</ele><time>2026-03-29T11:25:46Z</time></trkpt><trkpt lat="44.57822371662338" lon="8.746337367171924"><ele>475.0</ele><time>2026-03-29T11:25:48Z</time></trkpt><trkpt lat="44.57829189199903" lon="8.746294529362743"><ele>475.0</ele><time>2026-03-29T11:25:49Z</time></trkpt><trkpt lat="44.578387414321206" lon="8.746151427697649"><ele>475.0</ele><time>2026-03-29T11:25:51Z</time></trkpt><trkpt lat="44.57843463265085" lon="8.746072305357536"><ele>475.0</ele><time>2026-03-29T11:25:52Z</time></trkpt><trkpt lat="44.5784661757288" lon="8.74598204262834"><ele>475.0</ele><time>2026-03-29T11:25:53Z</time></trkpt><trkpt lat="44.57852332183716" lon="8.74583355057708"><ele>475.0</ele><time>2026-03-29T11:25:55Z</time></trkpt><trkpt lat="44.57862534244894" lon="8.745718123406277"><ele>475.0</ele><time>2026-03-29T11:25:57Z</time></trkpt><trkpt lat="44.57868133813492" lon="8.745663578911762"><ele>475.0</ele><time>2026-03-29T11:25:58Z</time></trkpt><trkpt lat="44.578774958136066" lon="8.745533580865967"><ele>475.0</ele><time>2026-03-29T11:26:00Z</time></trkpt><trkpt lat="44.5788190627375" lon="8.745462056768481"><ele>475.0</ele><time>2026-03-29T11:26:01Z</time></trkpt><trkpt lat="44.57890836203954" lon="8.74537551580508"><ele>475.0</ele><time>2026-03-29T11:26:03Z</time></trkpt><trkpt lat="44.578969847934715" lon="8.7453505892123"><ele>475.0</ele><time>2026-03-29T11:26:04Z</time></trkpt><trkpt lat="44.57906965852677" lon="8.745281074997672"><ele>475.0</ele><time>2026-03-29T11:26:06Z</time></trkpt><trkpt lat="44.57915131986419" lon="8.7451355276112"><ele>475.0</ele><time>2026-03-29T11:26:08Z</time></trkpt><trkpt lat="44.5791748671519" lon="8.745041880586355"><ele>475.0</ele><time>2026-03-29T11:26:09Z</time></trkpt><trkpt lat="44.579192041568646" lon="8.74492758783845"><ele>475.1666666666667</ele><time>2026-03-29T11:26:10Z</time></trkpt><trkpt lat="44.57923308082167" lon="8.744846928772313"><ele>475.33333333333337</ele><time>2026-03-29T11:26:11Z</time></trkpt><trkpt lat="44.57925349248377" lon="8.744756624711782"><ele>475.5</ele><time>2026-03-29T11:26:12Z</time></trkpt><trkpt lat="44.579309003532494" lon="8.744700617053478"><ele>475.66666666666663</ele><time>2026-03-29T11:26:13Z</time></trkpt><trkpt lat="44.57936971718028" lon="8.744625282476445"><ele>475.8333333333333</ele><time>2026-03-29T11:26:14Z</time></trkpt><trkpt lat="44.579440584822905" lon="8.74454162823062"><ele>476.0</ele><time>2026-03-29T11:26:15Z</time></trkpt><trkpt lat="44.57953524805022" lon="8.744477306245214"><ele>476.0</ele><time>2026-03-29T11:26:16Z</time></trkpt><trkpt lat="44.57962830291772" lon="8.744415413694187"><ele>476.0</ele><time>2026-03-29T11:26:17Z</time></trkpt><trkpt lat="44.57971368929653" lon="8.74434029416483"><ele>476.0</ele><time>2026-03-29T11:26:18Z</time></trkpt><trkpt lat="44.57980735677418" lon="8.744268892064321"><ele>476.0</ele><time>2026-03-29T11:26:19Z</time></trkpt><trkpt lat="44.57987879209319" lon="8.744217146525083"><ele>476.0</ele><time>2026-03-29T11:26:20Z</time></trkpt><trkpt lat="44.57995723935981" lon="8.744144060823144"><ele>473.3333333333333</ele><time>2026-03-29T11:26:21Z</time></trkpt><trkpt lat="44.5800269934227" lon="8.744064954822896"><ele>470.66666666666663</ele><time>2026-03-29T11:26:22Z</time></trkpt><trkpt lat="44.580078391535835" lon="8.743994454704465"><ele>468.0</ele><time>2026-03-29T11:26:23Z</time></trkpt><trkpt lat="44.58012227824852" lon="8.743927885290619"><ele>465.33333333333337</ele><time>2026-03-29T11:26:24Z</time></trkpt><trkpt lat="44.58017161684365" lon="8.743740913348537"><ele>462.6666666666667</ele><time>2026-03-29T11:26:26Z</time></trkpt><trkpt lat="44.580176875644824" lon="8.743640403626083"><ele>460.0</ele><time>2026-03-29T11:26:27Z</time></trkpt><trkpt lat="44.58016722959885" lon="8.743531775315578"><ele>457.83333333333337</ele><time>2026-03-29T11:26:28Z</time></trkpt><trkpt lat="44.580133421684515" lon="8.743421363540737"><ele>455.6666666666667</ele><time>2026-03-29T11:26:29Z</time></trkpt><trkpt lat="44.58009120281775" lon="8.743323209620641"><ele>453.5</ele><time>2026-03-29T11:26:30Z</time></trkpt><trkpt lat="44.58006051779799" lon="8.743242147017309"><ele>451.33333333333337</ele><time>2026-03-29T11:26:31Z</time></trkpt><trkpt lat="44.580045215275476" lon="8.743123704498421"><ele>449.1666666666667</ele><time>2026-03-29T11:26:33Z</time></trkpt><trkpt lat="44.58008712076021" lon="8.743038086614305"><ele>447.0</ele><time>2026-03-29T11:26:36.001Z</time></trkpt><trkpt lat="44.58014139813439" lon="8.74298308978048"><ele>447.0</ele><time>2026-03-29T11:26:39.001Z</time></trkpt><trkpt lat="44.58025348576885" lon="8.74292769953151"><ele>447.0</ele><time>2026-03-29T11:26:41.001Z</time></trkpt><trkpt lat="44.58030745549376" lon="8.742864518007632"><ele>447.0</ele><time>2026-03-29T11:26:42.001Z</time></trkpt><trkpt lat="44.58035716433867" lon="8.742801904719132"><ele>447.0</ele><time>2026-03-29T11:26:43.001Z</time></trkpt><trkpt lat="44.580446995453954" lon="8.742734765189345"><ele>447.0</ele><time>2026-03-29T11:26:45.001Z</time></trkpt><trkpt lat="44.580533730473384" lon="8.742749513171718"><ele>447.0</ele><time>2026-03-29T11:26:47.001Z</time></trkpt><trkpt lat="44.58063454584862" lon="8.742803582550973"><ele>449.6666666666667</ele><time>2026-03-29T11:26:49.001Z</time></trkpt><trkpt lat="44.58070158375633" lon="8.742840601957777"><ele>452.33333333333337</ele><time>2026-03-29T11:26:50.001Z</time></trkpt><trkpt lat="44.58077254677853" lon="8.7428824709794"><ele>455.0</ele><time>2026-03-29T11:26:51.001Z</time></trkpt><trkpt lat="44.58084610565018" lon="8.74293348042662"><ele>457.6666666666667</ele><time>2026-03-29T11:26:52.001Z</time></trkpt><trkpt lat="44.58090553342507" lon="8.743000598500153"><ele>460.33333333333337</ele><time>2026-03-29T11:26:53.001Z</time></trkpt><trkpt lat="44.58095364704573" lon="8.743090874237629"><ele>463.0</ele><time>2026-03-29T11:26:54.001Z</time></trkpt><trkpt lat="44.58099510444443" lon="8.743176416578926"><ele>463.00000000000006</ele><time>2026-03-29T11:26:55.001Z</time></trkpt><trkpt lat="44.5810912075308" lon="8.743282246024366"><ele>463.0</ele><time>2026-03-29T11:26:57.001Z</time></trkpt><trkpt lat="44.58117645448662" lon="8.7433023340524"><ele>463.0</ele><time>2026-03-29T11:26:58.001Z</time></trkpt><trkpt lat="44.581242798626704" lon="8.74332247684414"><ele>463.0</ele><time>2026-03-29T11:26:59.001Z</time></trkpt><trkpt lat="44.58130731982825" lon="8.743353673054052"><ele>463.00000000000006</ele><time>2026-03-29T11:27:00.001Z</time></trkpt><trkpt lat="44.581371135943954" lon="8.743386538432677"><ele>463.0</ele><time>2026-03-29T11:27:01.001Z</time></trkpt><trkpt lat="44.58145895682912" lon="8.743368942323011"><ele>462.50000000000006</ele><time>2026-03-29T11:27:03.001Z</time></trkpt><trkpt lat="44.5815126923827" lon="8.74329444469409"><ele>462.0</ele><time>2026-03-29T11:27:05.001Z</time></trkpt><trkpt lat="44.58151242755825" lon="8.743187401469457"><ele>461.5</ele><time>2026-03-29T11:27:07.001Z</time></trkpt><trkpt lat="44.581459426498725" lon="8.743066067820054"><ele>461.0</ele><time>2026-03-29T11:27:08.001Z</time></trkpt><trkpt lat="44.581413457118686" lon="8.74294687476294"><ele>460.50000000000006</ele><time>2026-03-29T11:27:09.001Z</time></trkpt><trkpt lat="44.581378692626004" lon="8.742831942547957"><ele>460.0</ele><time>2026-03-29T11:27:10.001Z</time></trkpt><trkpt lat="44.581365492203744" lon="8.742716169515797"><ele>459.1666666666667</ele><time>2026-03-29T11:27:11.001Z</time></trkpt><trkpt lat="44.58136531269548" lon="8.742606827645156"><ele>458.33333333333337</ele><time>2026-03-29T11:27:12.001Z</time></trkpt><trkpt lat="44.58137411738328" lon="8.742511137903952"><ele>457.5</ele><time>2026-03-29T11:27:13.001Z</time></trkpt><trkpt lat="44.581384596480866" lon="8.74236054847388"><ele>456.66666666666663</ele><time>2026-03-29T11:27:15.001Z</time></trkpt><trkpt lat="44.5814813171663" lon="8.742262377595242"><ele>455.8333333333333</ele><time>2026-03-29T11:27:17.001Z</time></trkpt><trkpt lat="44.5815459930736" lon="8.742247155619998"><ele>455.0</ele><time>2026-03-29T11:27:18.001Z</time></trkpt><trkpt lat="44.58163721949915" lon="8.742236388011765"><ele>455.0</ele><time>2026-03-29T11:27:19.001Z</time></trkpt><trkpt lat="44.581709879920986" lon="8.742212155742578"><ele>455.0</ele><time>2026-03-29T11:27:20.001Z</time></trkpt><trkpt lat="44.581813495799345" lon="8.742182478285462"><ele>455.0</ele><time>2026-03-29T11:27:21.001Z</time></trkpt><trkpt lat="44.58191171742941" lon="8.742152528885478"><ele>455.0</ele><time>2026-03-29T11:27:22.001Z</time></trkpt><trkpt lat="44.58200332662527" lon="8.742134692284083"><ele>455.0</ele><time>2026-03-29T11:27:23.001Z</time></trkpt><trkpt lat="44.58210043100138" lon="8.74212151020083"><ele>456.49999999999994</ele><time>2026-03-29T11:27:24.001Z</time></trkpt><trkpt lat="44.58217965746407" lon="8.742095313456225"><ele>458.0</ele><time>2026-03-29T11:27:25.001Z</time></trkpt><trkpt lat="44.58224861228575" lon="8.742066271570328"><ele>459.5</ele><time>2026-03-29T11:27:26.001Z</time></trkpt><trkpt lat="44.582363326213546" lon="8.742109506388806"><ele>461.0</ele><time>2026-03-29T11:27:28.001Z</time></trkpt><trkpt lat="44.58242005335152" lon="8.74216769171053"><ele>462.49999999999994</ele><time>2026-03-29T11:27:29.001Z</time></trkpt><trkpt lat="44.5825058314822" lon="8.742247566142115"><ele>464.0</ele><time>2026-03-29T11:27:31.001Z</time></trkpt><trkpt lat="44.582602150701284" lon="8.742180801060575"><ele>463.99999999999994</ele><time>2026-03-29T11:27:33.001Z</time></trkpt><trkpt lat="44.58265077595099" lon="8.74211703415306"><ele>464.0</ele><time>2026-03-29T11:27:34.001Z</time></trkpt><trkpt lat="44.582700809337005" lon="8.742061809950227"><ele>464.0</ele><time>2026-03-29T11:27:35.001Z</time></trkpt><trkpt lat="44.58277657720264" lon="8.742020914949213"><ele>464.0</ele><time>2026-03-29T11:27:36.001Z</time></trkpt><trkpt lat="44.58284882341793" lon="8.741963793288708"><ele>463.99999999999994</ele><time>2026-03-29T11:27:37Z</time></trkpt><trkpt lat="44.58292160737338" lon="8.74189150821002"><ele>464.0</ele><time>2026-03-29T11:27:38Z</time></trkpt><trkpt lat="44.58298411350939" lon="8.741829091906563"><ele>463.49999999999994</ele><time>2026-03-29T11:27:39Z</time></trkpt><trkpt lat="44.583049386009904" lon="8.741793776274386"><ele>463.0</ele><time>2026-03-29T11:27:40Z</time></trkpt><trkpt lat="44.58311635960605" lon="8.741774907896447"><ele>462.5</ele><time>2026-03-29T11:27:41Z</time></trkpt><trkpt lat="44.58319670197175" lon="8.741814627065036"><ele>462.0</ele><time>2026-03-29T11:27:42Z</time></trkpt><trkpt lat="44.583278736496574" lon="8.741818198474325"><ele>461.49999999999994</ele><time>2026-03-29T11:27:43Z</time></trkpt><trkpt lat="44.583359546864074" lon="8.74185270957554"><ele>461.0</ele><time>2026-03-29T11:27:44Z</time></trkpt><trkpt lat="44.58342826471947" lon="8.74189903259229"><ele>460.99999999999994</ele><time>2026-03-29T11:27:45Z</time></trkpt><trkpt lat="44.58349493529097" lon="8.741940474427055"><ele>461.0</ele><time>2026-03-29T11:27:46Z</time></trkpt><trkpt lat="44.583558481216606" lon="8.741934330835253"><ele>461.0</ele><time>2026-03-29T11:27:47Z</time></trkpt><trkpt lat="44.58362279336984" lon="8.74190430977511"><ele>461.0</ele><time>2026-03-29T11:27:48Z</time></trkpt><trkpt lat="44.58367736608325" lon="8.74184825122089"><ele>460.99999999999994</ele><time>2026-03-29T11:27:49Z</time></trkpt><trkpt lat="44.58374838816477" lon="8.741745060508931"><ele>461.0</ele><time>2026-03-29T11:27:50Z</time></trkpt><trkpt lat="44.58382559545593" lon="8.741641698583326"><ele>463.0</ele><time>2026-03-29T11:27:51Z</time></trkpt><trkpt lat="44.583904179739285" lon="8.741575989302564"><ele>465.0</ele><time>2026-03-29T11:27:52Z</time></trkpt><trkpt lat="44.58397868216273" lon="8.741539978835574"><ele>467.0</ele><time>2026-03-29T11:27:53Z</time></trkpt><trkpt lat="44.584039700169875" lon="8.741494500325558"><ele>469.0</ele><time>2026-03-29T11:27:54Z</time></trkpt><trkpt lat="44.58410178391126" lon="8.741368940119816"><ele>471.0</ele><time>2026-03-29T11:27:56Z</time></trkpt><trkpt lat="44.58413244468696" lon="8.741188959034298"><ele>471.0</ele><time>2026-03-29T11:27:58Z</time></trkpt><trkpt lat="44.5841388831765" lon="8.74107368248694"><ele>471.0</ele><time>2026-03-29T11:27:59Z</time></trkpt><trkpt lat="44.58415565171411" lon="8.740986706879909"><ele>471.0</ele><time>2026-03-29T11:28:00Z</time></trkpt><trkpt lat="44.58424465054005" lon="8.7408745027572"><ele>471.0</ele><time>2026-03-29T11:28:02Z</time></trkpt><trkpt lat="44.58430781943888" lon="8.740851242335518"><ele>471.0</ele><time>2026-03-29T11:28:03Z</time></trkpt><trkpt lat="44.584383581632295" lon="8.740844833681415"><ele>471.0</ele><time>2026-03-29T11:28:04Z</time></trkpt><trkpt lat="44.58446750927514" lon="8.740844501884546"><ele>472.8</ele><time>2026-03-29T11:28:05Z</time></trkpt><trkpt lat="44.58457357331616" lon="8.74084994959469"><ele>474.6</ele><time>2026-03-29T11:28:06Z</time></trkpt><trkpt lat="44.58468950394001" lon="8.740855154147663"><ele>476.4</ele><time>2026-03-29T11:28:07Z</time></trkpt><trkpt lat="44.58481124605096" lon="8.740872316764065"><ele>478.2</ele><time>2026-03-29T11:28:08Z</time></trkpt><trkpt lat="44.58491085116387" lon="8.740877335103809"><ele>480.0</ele><time>2026-03-29T11:28:09Z</time></trkpt><trkpt lat="44.58499566832136" lon="8.74087541866409"><ele>480.0</ele><time>2026-03-29T11:28:10Z</time></trkpt><trkpt lat="44.58506142004357" lon="8.740862908488468"><ele>480.0</ele><time>2026-03-29T11:28:11Z</time></trkpt><trkpt lat="44.58515991585684" lon="8.740822813618948"><ele>480.0</ele><time>2026-03-29T11:28:12Z</time></trkpt><trkpt lat="44.585236217275195" lon="8.740762671693139"><ele>480.0</ele><time>2026-03-29T11:28:13Z</time></trkpt><trkpt lat="44.58532335603201" lon="8.740710503770377"><ele>480.0</ele><time>2026-03-29T11:28:14Z</time></trkpt><trkpt lat="44.58540291565046" lon="8.740686049312758"><ele>480.0</ele><time>2026-03-29T11:28:15Z</time></trkpt><trkpt lat="44.585466179152725" lon="8.740623592412383"><ele>483.2</ele><time>2026-03-29T11:28:16Z</time></trkpt><trkpt lat="44.58555653717145" lon="8.740581161467821"><ele>486.4</ele><time>2026-03-29T11:28:17Z</time></trkpt><trkpt lat="44.585624370458014" lon="8.740554666962007"><ele>489.6</ele><time>2026-03-29T11:28:18Z</time></trkpt><trkpt lat="44.585704476064315" lon="8.740495747913217"><ele>492.8</ele><time>2026-03-29T11:28:19Z</time></trkpt><trkpt lat="44.585793877731334" lon="8.740484822968497"><ele>496.0</ele><time>2026-03-29T11:28:20Z</time></trkpt><trkpt lat="44.58590004161795" lon="8.740491373732752"><ele>496.00000000000006</ele><time>2026-03-29T11:28:21Z</time></trkpt><trkpt lat="44.5860011285262" lon="8.740477071955505"><ele>496.0</ele><time>2026-03-29T11:28:22Z</time></trkpt><trkpt lat="44.586096563200186" lon="8.740503632054237"><ele>496.0</ele><time>2026-03-29T11:28:23Z</time></trkpt><trkpt lat="44.58617413252297" lon="8.740482401103364"><ele>496.0</ele><time>2026-03-29T11:28:24Z</time></trkpt><trkpt lat="44.58624948617781" lon="8.740461383236372"><ele>496.00000000000006</ele><time>2026-03-29T11:28:25Z</time></trkpt><trkpt lat="44.58631043623613" lon="8.740433166139512"><ele>496.0</ele><time>2026-03-29T11:28:26Z</time></trkpt><trkpt lat="44.58637112788002" lon="8.740368699358216"><ele>495.8</ele><time>2026-03-29T11:28:28Z</time></trkpt><trkpt lat="44.58641910539329" lon="8.740265960678592"><ele>495.6</ele><time>2026-03-29T11:28:29Z</time></trkpt><trkpt lat="44.586455607315216" lon="8.740139904110585"><ele>495.4</ele><time>2026-03-29T11:28:30Z</time></trkpt><trkpt lat="44.58650380724121" lon="8.740031434391007"><ele>495.2</ele><time>2026-03-29T11:28:31Z</time></trkpt><trkpt lat="44.586579908851775" lon="8.739944281971438"><ele>495.0</ele><time>2026-03-29T11:28:32Z</time></trkpt><trkpt lat="44.5866741723654" lon="8.739853205075217"><ele>495.0</ele><time>2026-03-29T11:28:33Z</time></trkpt><trkpt lat="44.58673576971552" lon="8.739786179540216"><ele>495.0</ele><time>2026-03-29T11:28:34Z</time></trkpt><trkpt lat="44.586791815758104" lon="8.739685541906123"><ele>495.0</ele><time>2026-03-29T11:28:35Z</time></trkpt><trkpt lat="44.58684041483683" lon="8.739590089872157"><ele>495.0</ele><time>2026-03-29T11:28:36Z</time></trkpt><trkpt lat="44.586891841648175" lon="8.739506695834656"><ele>495.0</ele><time>2026-03-29T11:28:37Z</time></trkpt><trkpt lat="44.58696520949944" lon="8.739443372536298"><ele>495.0</ele><time>2026-03-29T11:28:38Z</time></trkpt><trkpt lat="44.587028633562525" lon="8.739392352453862"><ele>494.8</ele><time>2026-03-29T11:28:39Z</time></trkpt><trkpt lat="44.58710054576563" lon="8.73933373445482"><ele>494.6</ele><time>2026-03-29T11:28:40Z</time></trkpt><trkpt lat="44.587168190370924" lon="8.739283428542038"><ele>494.4</ele><time>2026-03-29T11:28:41.001Z</time></trkpt><trkpt lat="44.58724166672621" lon="8.73919083600631"><ele>494.2</ele><time>2026-03-29T11:28:42.001Z</time></trkpt><trkpt lat="44.58732201825583" lon="8.739120559175536"><ele>494.0</ele><time>2026-03-29T11:28:43.001Z</time></trkpt><trkpt lat="44.58741348410171" lon="8.739063343487212"><ele>493.99999999999994</ele><time>2026-03-29T11:28:44.001Z</time></trkpt><trkpt lat="44.58749724598037" lon="8.739020532920229"><ele>494.0</ele><time>2026-03-29T11:28:45.001Z</time></trkpt><trkpt lat="44.58758698715021" lon="8.73897384090297"><ele>494.0</ele><time>2026-03-29T11:28:46.001Z</time></trkpt><trkpt lat="44.58767994146798" lon="8.73894306213539"><ele>494.0</ele><time>2026-03-29T11:28:47.001Z</time></trkpt><trkpt lat="44.58775436301593" lon="8.738927490792188"><ele>493.99999999999994</ele><time>2026-03-29T11:28:48.001Z</time></trkpt><trkpt lat="44.587830120242" lon="8.738916425211182"><ele>494.0</ele><time>2026-03-29T11:28:49.001Z</time></trkpt><trkpt lat="44.58790487946316" lon="8.73893258970233"><ele>495.8333333333333</ele><time>2026-03-29T11:28:50.001Z</time></trkpt><trkpt lat="44.587970210728095" lon="8.73895076955819"><ele>497.66666666666663</ele><time>2026-03-29T11:28:51.001Z</time></trkpt><trkpt lat="44.58803264360873" lon="8.73899763219759"><ele>499.5</ele><time>2026-03-29T11:28:52.001Z</time></trkpt><trkpt lat="44.58809485306394" lon="8.739057273258437"><ele>501.33333333333337</ele><time>2026-03-29T11:28:53.001Z</time></trkpt><trkpt lat="44.58816096440121" lon="8.739124920792113"><ele>503.1666666666667</ele><time>2026-03-29T11:28:54.001Z</time></trkpt><trkpt lat="44.58827329520539" lon="8.739154394733294"><ele>505.0</ele><time>2026-03-29T11:28:56.001Z</time></trkpt><trkpt lat="44.58834739829977" lon="8.739113736153065"><ele>505.00000000000006</ele><time>2026-03-29T11:28:57.001Z</time></trkpt><trkpt lat="44.58846907233352" lon="8.739056807271306"><ele>505.0</ele><time>2026-03-29T11:28:59.001Z</time></trkpt><trkpt lat="44.588534801611004" lon="8.738931211356176"><ele>505.0</ele><time>2026-03-29T11:29:00.001Z</time></trkpt><trkpt lat="44.58858396928497" lon="8.738869607090459"><ele>505.0</ele><time>2026-03-29T11:29:01.001Z</time></trkpt><trkpt lat="44.58862725632466" lon="8.73879751055095"><ele>505.00000000000006</ele><time>2026-03-29T11:29:02.001Z</time></trkpt><trkpt lat="44.58869484460975" lon="8.73874682588523"><ele>505.0</ele><time>2026-03-29T11:29:03.001Z</time></trkpt><trkpt lat="44.588795852682786" lon="8.738703478183472"><ele>505.6</ele><time>2026-03-29T11:29:04.001Z</time></trkpt><trkpt lat="44.58888361401109" lon="8.738641489095318"><ele>506.2</ele><time>2026-03-29T11:29:05.001Z</time></trkpt><trkpt lat="44.58896888952623" lon="8.738618347737305"><ele>506.79999999999995</ele><time>2026-03-29T11:29:06.001Z</time></trkpt><trkpt lat="44.58904887421631" lon="8.738599383810566"><ele>507.4</ele><time>2026-03-29T11:29:07.001Z</time></trkpt><trkpt lat="44.58913812891961" lon="8.738597077728729"><ele>508.0</ele><time>2026-03-29T11:29:08.001Z</time></trkpt><trkpt lat="44.58924482284357" lon="8.738584728925687"><ele>508.00000000000006</ele><time>2026-03-29T11:29:09.001Z</time></trkpt><trkpt lat="44.58932788918256" lon="8.738573795281074"><ele>508.0</ele><time>2026-03-29T11:29:10.001Z</time></trkpt><trkpt lat="44.58939365974846" lon="8.738564164223783"><ele>508.0</ele><time>2026-03-29T11:29:11.001Z</time></trkpt><trkpt lat="44.58948023363833" lon="8.738610786683987"><ele>508.0</ele><time>2026-03-29T11:29:13.001Z</time></trkpt><trkpt lat="44.58953210843863" lon="8.738662296041584"><ele>508.00000000000006</ele><time>2026-03-29T11:29:15.001Z</time></trkpt><trkpt lat="44.5895803978344" lon="8.73878002307499"><ele>508.0</ele><time>2026-03-29T11:29:17.001Z</time></trkpt><trkpt lat="44.589625393091595" lon="8.738884547936513"><ele>507.83333333333337</ele><time>2026-03-29T11:29:18.001Z</time></trkpt><trkpt lat="44.589664685175094" lon="8.738974513015561"><ele>507.6666666666667</ele><time>2026-03-29T11:29:19.001Z</time></trkpt><trkpt lat="44.58970208574383" lon="8.739058215307521"><ele>507.5</ele><time>2026-03-29T11:29:20.001Z</time></trkpt><trkpt lat="44.58977274975934" lon="8.739189515762417"><ele>507.33333333333337</ele><time>2026-03-29T11:29:22.001Z</time></trkpt><trkpt lat="44.58982947965196" lon="8.739269104733413"><ele>507.1666666666667</ele><time>2026-03-29T11:29:23.001Z</time></trkpt><trkpt lat="44.589906434917275" lon="8.739252757339493"><ele>507.0</ele><time>2026-03-29T11:29:24.001Z</time></trkpt><trkpt lat="44.59002871976365" lon="8.739272238570127"><ele>507.0</ele><time>2026-03-29T11:29:26.001Z</time></trkpt><trkpt lat="44.590144651524966" lon="8.73921371916228"><ele>507.00000000000006</ele><time>2026-03-29T11:29:27.001Z</time></trkpt><trkpt lat="44.5902127176429" lon="8.73918756808198"><ele>507.00000000000006</ele><time>2026-03-29T11:29:28.001Z</time></trkpt><trkpt lat="44.590302719342375" lon="8.739074894808384"><ele>507.0</ele><time>2026-03-29T11:29:30.001Z</time></trkpt><trkpt lat="44.590357166084694" lon="8.738946852996095"><ele>507.0</ele><time>2026-03-29T11:29:32.001Z</time></trkpt><trkpt lat="44.59040866124089" lon="8.738807845828667"><ele>508.0</ele><time>2026-03-29T11:29:34.001Z</time></trkpt><trkpt lat="44.590485655496494" lon="8.738697320382368"><ele>509.00000000000006</ele><time>2026-03-29T11:29:36.001Z</time></trkpt><trkpt lat="44.590602377789736" lon="8.738620745404482"><ele>510.00000000000006</ele><time>2026-03-29T11:29:38.001Z</time></trkpt><trkpt lat="44.59066468437716" lon="8.738605194754356"><ele>511.0</ele><time>2026-03-29T11:29:39.001Z</time></trkpt><trkpt lat="44.590778585631895" lon="8.73862166630604"><ele>512.0</ele><time>2026-03-29T11:29:41.001Z</time></trkpt><trkpt lat="44.59088070864133" lon="8.738667519446615"><ele>511.99999999999994</ele><time>2026-03-29T11:29:43Z</time></trkpt><trkpt lat="44.59094352545941" lon="8.738692523277471"><ele>512.0</ele><time>2026-03-29T11:29:44Z</time></trkpt><trkpt lat="44.59100385076075" lon="8.738726529712984"><ele>512.0</ele><time>2026-03-29T11:29:45Z</time></trkpt><trkpt lat="44.59106741324236" lon="8.738747488574711"><ele>512.0</ele><time>2026-03-29T11:29:46Z</time></trkpt><trkpt lat="44.59120570455477" lon="8.738747841913424"><ele>511.99999999999994</ele><time>2026-03-29T11:29:48Z</time></trkpt><trkpt lat="44.591294071226834" lon="8.738686445285788"><ele>512.0</ele><time>2026-03-29T11:29:49Z</time></trkpt><trkpt lat="44.59138056461113" lon="8.738663838472643"><ele>509.6</ele><time>2026-03-29T11:29:50Z</time></trkpt><trkpt lat="44.591467562656014" lon="8.73866253619636"><ele>507.20000000000005</ele><time>2026-03-29T11:29:51Z</time></trkpt><trkpt lat="44.59153050159469" lon="8.738679942817384"><ele>504.8</ele><time>2026-03-29T11:29:52Z</time></trkpt><trkpt lat="44.591615343795816" lon="8.738803813583235"><ele>502.4</ele><time>2026-03-29T11:29:54Z</time></trkpt><trkpt lat="44.59165135435171" lon="8.738876502256199"><ele>500.0</ele><time>2026-03-29T11:29:55Z</time></trkpt><trkpt lat="44.5917061919138" lon="8.739021249155826"><ele>500.0</ele><time>2026-03-29T11:29:57Z</time></trkpt><trkpt lat="44.591751114968744" lon="8.73911826861181"><ele>500.0</ele><time>2026-03-29T11:29:59Z</time></trkpt><trkpt lat="44.591839616023336" lon="8.739109700439917"><ele>500.0</ele><time>2026-03-29T11:30:01Z</time></trkpt><trkpt lat="44.591930275695844" lon="8.738987047704649"><ele>500.0</ele><time>2026-03-29T11:30:03Z</time></trkpt><trkpt lat="44.5919772924988" lon="8.73891082675218"><ele>500.0</ele><time>2026-03-29T11:30:04Z</time></trkpt><trkpt lat="44.59206751212409" lon="8.738850516180586"><ele>501.66666666666663</ele><time>2026-03-29T11:30:06Z</time></trkpt><trkpt lat="44.59213651791354" lon="8.738801626106364"><ele>503.3333333333333</ele><time>2026-03-29T11:30:07Z</time></trkpt><trkpt lat="44.59221872537171" lon="8.738784751570739"><ele>505.0</ele><time>2026-03-29T11:30:08Z</time></trkpt><trkpt lat="44.592294534340944" lon="8.738768244165593"><ele>506.66666666666663</ele><time>2026-03-29T11:30:09Z</time></trkpt><trkpt lat="44.59236104592644" lon="8.738723179772899"><ele>508.3333333333333</ele><time>2026-03-29T11:30:10Z</time></trkpt><trkpt lat="44.59245864283969" lon="8.738645416529904"><ele>510.0</ele><time>2026-03-29T11:30:12Z</time></trkpt><trkpt lat="44.59251482365595" lon="8.73853005033865"><ele>505.8</ele><time>2026-03-29T11:30:14Z</time></trkpt><trkpt lat="44.59255289000363" lon="8.738352449931218"><ele>501.6</ele><time>2026-03-29T11:30:16Z</time></trkpt><trkpt lat="44.5925806871288" lon="8.73826815543557"><ele>497.4</ele><time>2026-03-29T11:30:17Z</time></trkpt><trkpt lat="44.5926465523099" lon="8.738124671520033"><ele>493.2</ele><time>2026-03-29T11:30:19Z</time></trkpt><trkpt lat="44.59269365511168" lon="8.737995860731509"><ele>489.0</ele><time>2026-03-29T11:30:21Z</time></trkpt><trkpt lat="44.59279674284833" lon="8.737933953355316"><ele>489.0</ele><time>2026-03-29T11:30:23Z</time></trkpt><trkpt lat="44.59286292191439" lon="8.73788511412925"><ele>489.0</ele><time>2026-03-29T11:30:24Z</time></trkpt><trkpt lat="44.59283717981623" lon="8.737778777384026"><ele>489.0</ele><time>2026-03-29T11:30:28Z</time></trkpt><trkpt lat="44.59273891280171" lon="8.737773803405469"><ele>489.0</ele><time>2026-03-29T11:30:30Z</time></trkpt><trkpt lat="44.59261612907059" lon="8.737838380807217"><ele>489.0</ele><time>2026-03-29T11:30:32Z</time></trkpt><trkpt lat="44.5925444941182" lon="8.737933172824334"><ele>489.0</ele><time>2026-03-29T11:30:34Z</time></trkpt><trkpt lat="44.59249970770538" lon="8.738010605633724"><ele>489.0</ele><time>2026-03-29T11:30:35Z</time></trkpt><trkpt lat="44.59245157825461" lon="8.738086007187764"><ele>489.0</ele><time>2026-03-29T11:30:36Z</time></trkpt><trkpt lat="44.59238664030062" lon="8.738169009741354"><ele>489.0</ele><time>2026-03-29T11:30:38Z</time></trkpt><trkpt lat="44.59233404543024" lon="8.738091647950428"><ele>489.0</ele><time>2026-03-29T11:30:41Z</time></trkpt><trkpt lat="44.5923492158896" lon="8.737977286061751"><ele>489.0</ele><time>2026-03-29T11:30:43Z</time></trkpt><trkpt lat="44.59239426494098" lon="8.737889432128494"><ele>489.0</ele><time>2026-03-29T11:30:44Z</time></trkpt><trkpt lat="44.592441214555144" lon="8.73780812972779"><ele>489.0</ele><time>2026-03-29T11:30:45Z</time></trkpt><trkpt lat="44.592479627042394" lon="8.73772457860603"><ele>489.0</ele><time>2026-03-29T11:30:46Z</time></trkpt><trkpt lat="44.592532915989814" lon="8.73767032999289"><ele>489.0</ele><time>2026-03-29T11:30:47Z</time></trkpt><trkpt lat="44.592574380830285" lon="8.737603752801032"><ele>489.0</ele><time>2026-03-29T11:30:48Z</time></trkpt><trkpt lat="44.59262667383652" lon="8.737533210941816"><ele>489.0</ele><time>2026-03-29T11:30:49Z</time></trkpt><trkpt lat="44.59274071647961" lon="8.737439102618563"><ele>487.0</ele><time>2026-03-29T11:30:51Z</time></trkpt><trkpt lat="44.59279931477672" lon="8.737401669988122"><ele>485.0</ele><time>2026-03-29T11:30:52Z</time></trkpt><trkpt lat="44.59290218413111" lon="8.737332354662495"><ele>483.0</ele><time>2026-03-29T11:30:54Z</time></trkpt><trkpt lat="44.59297905533344" lon="8.737267403221896"><ele>481.0</ele><time>2026-03-29T11:30:55Z</time></trkpt><trkpt lat="44.59305141594449" lon="8.737234775622127"><ele>479.0</ele><time>2026-03-29T11:30:56Z</time></trkpt><trkpt lat="44.593118347537214" lon="8.737200109976555"><ele>477.0</ele><time>2026-03-29T11:30:57Z</time></trkpt><trkpt lat="44.59318095251588" lon="8.737132377419801"><ele>477.0</ele><time>2026-03-29T11:30:58Z</time></trkpt><trkpt lat="44.5932430642182" lon="8.73710465723394"><ele>476.99999999999994</ele><time>2026-03-29T11:30:59Z</time></trkpt><trkpt lat="44.59329788838713" lon="8.737060393697341"><ele>477.0</ele><time>2026-03-29T11:31:00Z</time></trkpt><trkpt lat="44.59335538626428" lon="8.736989426807684"><ele>477.0</ele><time>2026-03-29T11:31:01Z</time></trkpt><trkpt lat="44.593411214203726" lon="8.736917322110044"><ele>476.99999999999994</ele><time>2026-03-29T11:31:02Z</time></trkpt><trkpt lat="44.593473744703566" lon="8.736855707223594"><ele>477.0</ele><time>2026-03-29T11:31:03Z</time></trkpt><trkpt lat="44.59353456041512" lon="8.736801549776152"><ele>477.0</ele><time>2026-03-29T11:31:04Z</time></trkpt><trkpt lat="44.5935893181561" lon="8.736751799261611"><ele>474.8333333333333</ele><time>2026-03-29T11:31:05Z</time></trkpt><trkpt lat="44.59365222810835" lon="8.736692238174614"><ele>472.66666666666663</ele><time>2026-03-29T11:31:06Z</time></trkpt><trkpt lat="44.593705167360724" lon="8.73662660986091"><ele>470.5</ele><time>2026-03-29T11:31:07Z</time></trkpt><trkpt lat="44.593768302027605" lon="8.736577174244296"><ele>468.3333333333333</ele><time>2026-03-29T11:31:08Z</time></trkpt><trkpt lat="44.59382578435431" lon="8.73652343713287"><ele>466.16666666666663</ele><time>2026-03-29T11:31:09Z</time></trkpt><trkpt lat="44.59391969220663" lon="8.73642235173076"><ele>464.0</ele><time>2026-03-29T11:31:11.001Z</time></trkpt><trkpt lat="44.59398434801574" lon="8.736304425928125"><ele>464.0</ele><time>2026-03-29T11:31:13.001Z</time></trkpt><trkpt lat="44.59401496116993" lon="8.736146143115539"><ele>464.0</ele><time>2026-03-29T11:31:15.001Z</time></trkpt><trkpt lat="44.59403290909544" lon="8.736052804461835"><ele>464.0</ele><time>2026-03-29T11:31:16.001Z</time></trkpt><trkpt lat="44.59409235771042" lon="8.735898277557801"><ele>464.0</ele><time>2026-03-29T11:31:18.001Z</time></trkpt><trkpt lat="44.59413871067125" lon="8.735824742994941"><ele>464.0</ele><time>2026-03-29T11:31:19.001Z</time></trkpt><trkpt lat="44.594202402770144" lon="8.735757545180567"><ele>460.16666666666663</ele><time>2026-03-29T11:31:20.001Z</time></trkpt><trkpt lat="44.59426405380922" lon="8.735708031111349"><ele>456.3333333333333</ele><time>2026-03-29T11:31:21.001Z</time></trkpt><trkpt lat="44.5943212517944" lon="8.73563863739074"><ele>452.5</ele><time>2026-03-29T11:31:22.001Z</time></trkpt><trkpt lat="44.59435840419378" lon="8.735557563811959"><ele>448.66666666666663</ele><time>2026-03-29T11:31:23.001Z</time></trkpt><trkpt lat="44.594385142117574" lon="8.73544990460412"><ele>444.8333333333333</ele><time>2026-03-29T11:31:24.001Z</time></trkpt><trkpt lat="44.594419538444235" lon="8.735334585623566"><ele>441.0</ele><time>2026-03-29T11:31:25.001Z</time></trkpt><trkpt lat="44.59446806348291" lon="8.735227134556832"><ele>443.5</ele><time>2026-03-29T11:31:26.001Z</time></trkpt><trkpt lat="44.59453149398591" lon="8.735112307898602"><ele>446.0</ele><time>2026-03-29T11:31:27.001Z</time></trkpt><trkpt lat="44.59459586574498" lon="8.735013829344103"><ele>448.5</ele><time>2026-03-29T11:31:28.001Z</time></trkpt><trkpt lat="44.594658045672105" lon="8.734931184288758"><ele>451.0</ele><time>2026-03-29T11:31:29.001Z</time></trkpt><trkpt lat="44.59471788358398" lon="8.734844865062103"><ele>453.5</ele><time>2026-03-29T11:31:30.001Z</time></trkpt><trkpt lat="44.594771558698554" lon="8.734772526679182"><ele>456.0</ele><time>2026-03-29T11:31:31.001Z</time></trkpt><trkpt lat="44.59481318485194" lon="8.734684334217963"><ele>456.0</ele><time>2026-03-29T11:31:32.001Z</time></trkpt><trkpt lat="44.5948573443023" lon="8.734601963885009"><ele>456.0</ele><time>2026-03-29T11:31:33.001Z</time></trkpt><trkpt lat="44.59490952538015" lon="8.734509183027404"><ele>456.0</ele><time>2026-03-29T11:31:34.001Z</time></trkpt><trkpt lat="44.594973869907555" lon="8.734402628872807"><ele>456.0</ele><time>2026-03-29T11:31:35.001Z</time></trkpt><trkpt lat="44.595036662548246" lon="8.73433099683642"><ele>456.0</ele><time>2026-03-29T11:31:36.001Z</time></trkpt><trkpt lat="44.5950937401744" lon="8.734266341730523"><ele>456.0</ele><time>2026-03-29T11:31:37.001Z</time></trkpt><trkpt lat="44.595205501253204" lon="8.734174166022266"><ele>455.0</ele><time>2026-03-29T11:31:39.001Z</time></trkpt><trkpt lat="44.595273969022784" lon="8.734140794308505"><ele>454.0</ele><time>2026-03-29T11:31:40.001Z</time></trkpt><trkpt lat="44.59535298387811" lon="8.73412860476172"><ele>453.0</ele><time>2026-03-29T11:31:41.001Z</time></trkpt><trkpt lat="44.59541487017781" lon="8.73407235377104"><ele>452.0</ele><time>2026-03-29T11:31:42.001Z</time></trkpt><trkpt lat="44.595490795330335" lon="8.733978128838574"><ele>451.0</ele><time>2026-03-29T11:31:44.001Z</time></trkpt><trkpt lat="44.595529118219496" lon="8.733839367888702"><ele>450.0</ele><time>2026-03-29T11:31:46.001Z</time></trkpt><trkpt lat="44.59556500919955" lon="8.733696490382771"><ele>450.0</ele><time>2026-03-29T11:31:48.001Z</time></trkpt><trkpt lat="44.59560467296725" lon="8.733567573863946"><ele>450.0</ele><time>2026-03-29T11:31:49.999Z</time></trkpt><trkpt lat="44.595680113291486" lon="8.733470984069502"><ele>450.0</ele><time>2026-03-29T11:31:51.999Z</time></trkpt><trkpt lat="44.5957693495899" lon="8.73342622901259"><ele>450.0</ele><time>2026-03-29T11:31:53.999Z</time></trkpt><trkpt lat="44.595835832263354" lon="8.73342306528498"><ele>450.0</ele><time>2026-03-29T11:31:54.999Z</time></trkpt><trkpt lat="44.59591052483006" lon="8.733428423973118"><ele>450.0</ele><time>2026-03-29T11:31:55.999Z</time></trkpt><trkpt lat="44.59598535039255" lon="8.733445977903138"><ele>445.5</ele><time>2026-03-29T11:31:56.999Z</time></trkpt><trkpt lat="44.59605908420805" lon="8.733458580249497"><ele>441.0</ele><time>2026-03-29T11:31:57.999Z</time></trkpt><trkpt lat="44.59612715166478" lon="8.73346340348421"><ele>436.5</ele><time>2026-03-29T11:31:58.999Z</time></trkpt><trkpt lat="44.59619476034422" lon="8.7334496283389"><ele>432.0</ele><time>2026-03-29T11:31:59.999Z</time></trkpt><trkpt lat="44.596270529731214" lon="8.733434708289082"><ele>427.5</ele><time>2026-03-29T11:32:00.999Z</time></trkpt><trkpt lat="44.5963456183324" lon="8.733404993319624"><ele>423.0</ele><time>2026-03-29T11:32:01.999Z</time></trkpt><trkpt lat="44.59642717502846" lon="8.73337088799406"><ele>423.0</ele><time>2026-03-29T11:32:02.999Z</time></trkpt><trkpt lat="44.59650378918291" lon="8.733336133383386"><ele>423.0</ele><time>2026-03-29T11:32:03.999Z</time></trkpt><trkpt lat="44.596573452539275" lon="8.733304481886837"><ele>423.0</ele><time>2026-03-29T11:32:04.999Z</time></trkpt><trkpt lat="44.59664286319652" lon="8.733266004261514"><ele>423.0</ele><time>2026-03-29T11:32:05.999Z</time></trkpt><trkpt lat="44.59670276746476" lon="8.733221870893383"><ele>423.0</ele><time>2026-03-29T11:32:06.999Z</time></trkpt><trkpt lat="44.59676207446953" lon="8.73318147200436"><ele>423.0</ele><time>2026-03-29T11:32:07.999Z</time></trkpt><trkpt lat="44.59687053859554" lon="8.733085062075844"><ele>423.0</ele><time>2026-03-29T11:32:10Z</time></trkpt><trkpt lat="44.59693384574572" lon="8.733043643545932"><ele>423.0</ele><time>2026-03-29T11:32:11Z</time></trkpt><trkpt lat="44.597039830869605" lon="8.732947112670278"><ele>423.0</ele><time>2026-03-29T11:32:13Z</time></trkpt><trkpt lat="44.59710020107304" lon="8.732885281671095"><ele>423.0</ele><time>2026-03-29T11:32:14Z</time></trkpt><trkpt lat="44.597161603501036" lon="8.73281903941495"><ele>423.0</ele><time>2026-03-29T11:32:15Z</time></trkpt><trkpt lat="44.597226905449006" lon="8.732733203154785"><ele>423.0</ele><time>2026-03-29T11:32:16Z</time></trkpt><trkpt lat="44.59728520142131" lon="8.732647866495816"><ele>420.1666666666667</ele><time>2026-03-29T11:32:17Z</time></trkpt><trkpt lat="44.597336709142965" lon="8.732552330365932"><ele>417.33333333333337</ele><time>2026-03-29T11:32:18Z</time></trkpt><trkpt lat="44.597386868026604" lon="8.73247819456207"><ele>414.5</ele><time>2026-03-29T11:32:19Z</time></trkpt><trkpt lat="44.59744123338269" lon="8.73239362187936"><ele>411.6666666666667</ele><time>2026-03-29T11:32:20Z</time></trkpt><trkpt lat="44.59749065155821" lon="8.732309535994906"><ele>408.83333333333337</ele><time>2026-03-29T11:32:21Z</time></trkpt><trkpt lat="44.597536843209355" lon="8.732239001870463"><ele>406.0</ele><time>2026-03-29T11:32:22Z</time></trkpt><trkpt lat="44.59758905228495" lon="8.732175865662956"><ele>406.0</ele><time>2026-03-29T11:32:23Z</time></trkpt><trkpt lat="44.597703903863085" lon="8.732091657374164"><ele>406.0</ele><time>2026-03-29T11:32:25Z</time></trkpt><trkpt lat="44.5977623482948" lon="8.732053583087689"><ele>406.0</ele><time>2026-03-29T11:32:26Z</time></trkpt><trkpt lat="44.59781643030395" lon="8.731998924440571"><ele>406.0</ele><time>2026-03-29T11:32:27Z</time></trkpt><trkpt lat="44.597911432753406" lon="8.73193936675601"><ele>406.0</ele><time>2026-03-29T11:32:29Z</time></trkpt><trkpt lat="44.59800255820546" lon="8.731878923530296"><ele>408.4</ele><time>2026-03-29T11:32:31Z</time></trkpt><trkpt lat="44.598053699886385" lon="8.7317529306772"><ele>410.8</ele><time>2026-03-29T11:32:33Z</time></trkpt><trkpt lat="44.59803828027743" lon="8.731652661403807"><ele>413.2</ele><time>2026-03-29T11:32:34Z</time></trkpt><trkpt lat="44.598052612444484" lon="8.731493087701146"><ele>415.59999999999997</ele><time>2026-03-29T11:32:36Z</time></trkpt><trkpt lat="44.59811476691945" lon="8.731360442234987"><ele>418.0</ele><time>2026-03-29T11:32:38Z</time></trkpt><trkpt lat="44.59817216506359" lon="8.731216526502074"><ele>418.0</ele><time>2026-03-29T11:32:40Z</time></trkpt><trkpt lat="44.59818567863176" lon="8.731058215455532"><ele>418.0</ele><time>2026-03-29T11:32:42Z</time></trkpt><trkpt lat="44.598202115780765" lon="8.730890244482536"><ele>418.0</ele><time>2026-03-29T11:32:44Z</time></trkpt><trkpt lat="44.598219605714675" lon="8.730786696674912"><ele>418.0</ele><time>2026-03-29T11:32:45Z</time></trkpt><trkpt lat="44.59824319032698" lon="8.730692964475143"><ele>418.0</ele><time>2026-03-29T11:32:46Z</time></trkpt><trkpt lat="44.598281966727846" lon="8.73053397019222"><ele>411.59999999999997</ele><time>2026-03-29T11:32:48Z</time></trkpt><trkpt lat="44.598296283798334" lon="8.730370674868617"><ele>405.2</ele><time>2026-03-29T11:32:50Z</time></trkpt><trkpt lat="44.59830194463523" lon="8.730281001015149"><ele>398.8</ele><time>2026-03-29T11:32:51Z</time></trkpt><trkpt lat="44.59828988471898" lon="8.730126673314748"><ele>392.4</ele><time>2026-03-29T11:32:53Z</time></trkpt><trkpt lat="44.598242516561115" lon="8.729986196845402"><ele>386.0</ele><time>2026-03-29T11:32:55Z</time></trkpt><trkpt lat="44.59819489293944" lon="8.729846984147928"><ele>382.16666666666663</ele><time>2026-03-29T11:32:57Z</time></trkpt><trkpt lat="44.59817804099148" lon="8.729728776201227"><ele>378.3333333333333</ele><time>2026-03-29T11:32:59Z</time></trkpt><trkpt lat="44.598199150610085" lon="8.729624719941116"><ele>374.5</ele><time>2026-03-29T11:33:01Z</time></trkpt><trkpt lat="44.598280238743115" lon="8.729540520206253"><ele>370.66666666666663</ele><time>2026-03-29T11:33:03Z</time></trkpt><trkpt lat="44.598344221873084" lon="8.729554598274097"><ele>366.8333333333333</ele><time>2026-03-29T11:33:04Z</time></trkpt><trkpt lat="44.59841960294752" lon="8.729530760681232"><ele>363.0</ele><time>2026-03-29T11:33:05Z</time></trkpt><trkpt lat="44.598484595862836" lon="8.729521410475433"><ele>363.0</ele><time>2026-03-29T11:33:06Z</time></trkpt><trkpt lat="44.598550761591774" lon="8.729501082816512"><ele>363.0</ele><time>2026-03-29T11:33:07Z</time></trkpt><trkpt lat="44.59862299578414" lon="8.729460565674865"><ele>363.0</ele><time>2026-03-29T11:33:08Z</time></trkpt><trkpt lat="44.59871900738579" lon="8.729343721918822"><ele>363.0</ele><time>2026-03-29T11:33:10Z</time></trkpt><trkpt lat="44.59879009965899" lon="8.729281718581197"><ele>363.0</ele><time>2026-03-29T11:33:11Z</time></trkpt><trkpt lat="44.59887985071818" lon="8.729189376928195"><ele>364.1666666666667</ele><time>2026-03-29T11:33:13Z</time></trkpt><trkpt lat="44.59892905783082" lon="8.729071187982996"><ele>365.3333333333333</ele><time>2026-03-29T11:33:15Z</time></trkpt><trkpt lat="44.59894006085166" lon="8.728965669465719"><ele>366.5</ele><time>2026-03-29T11:33:16Z</time></trkpt><trkpt lat="44.59895334426398" lon="8.728868417941984"><ele>367.66666666666663</ele><time>2026-03-29T11:33:17Z</time></trkpt><trkpt lat="44.59896248685248" lon="8.728765679843153"><ele>368.8333333333333</ele><time>2026-03-29T11:33:18Z</time></trkpt><trkpt lat="44.5989818968578" lon="8.728626543599766"><ele>370.0</ele><time>2026-03-29T11:33:20Z</time></trkpt><trkpt lat="44.59894894164922" lon="8.728473327340199"><ele>365.5</ele><time>2026-03-29T11:33:23.001Z</time></trkpt><trkpt lat="44.5989023555637" lon="8.72838800212562"><ele>361.0</ele><time>2026-03-29T11:33:24.001Z</time></trkpt><trkpt lat="44.59880386025293" lon="8.728327379920511"><ele>356.5</ele><time>2026-03-29T11:33:26.001Z</time></trkpt><trkpt lat="44.59873422256743" lon="8.72825331486709"><ele>352.0</ele><time>2026-03-29T11:33:28.001Z</time></trkpt><trkpt lat="44.59867255314461" lon="8.728223397767069"><ele>347.5</ele><time>2026-03-29T11:33:30.001Z</time></trkpt><trkpt lat="44.59867117213819" lon="8.7281289018134"><ele>343.0</ele><time>2026-03-29T11:33:33.001Z</time></trkpt><trkpt lat="44.59873863376932" lon="8.728125708972184"><ele>343.0</ele><time>2026-03-29T11:33:34.001Z</time></trkpt><trkpt lat="44.59885384124013" lon="8.728187767573846"><ele>343.0</ele><time>2026-03-29T11:33:36.001Z</time></trkpt><trkpt lat="44.598954444838284" lon="8.728222800338536"><ele>343.0</ele><time>2026-03-29T11:33:38.001Z</time></trkpt><trkpt lat="44.59903427751148" lon="8.72822025418135"><ele>343.0</ele><time>2026-03-29T11:33:39.001Z</time></trkpt><trkpt lat="44.59909414282384" lon="8.72818957145357"><ele>343.0</ele><time>2026-03-29T11:33:40.001Z</time></trkpt><trkpt lat="44.59920083691382" lon="8.728159919619134"><ele>343.0</ele><time>2026-03-29T11:33:42.001Z</time></trkpt><trkpt lat="44.59929376373557" lon="8.728133410929448"><ele>343.0</ele><time>2026-03-29T11:33:44.001Z</time></trkpt><trkpt lat="44.59940690505368" lon="8.728103399961157"><ele>343.0</ele><time>2026-03-29T11:33:46.001Z</time></trkpt><trkpt lat="44.59950191039766" lon="8.728090839107981"><ele>343.0</ele><time>2026-03-29T11:33:48.001Z</time></trkpt><trkpt lat="44.59958685537355" lon="8.728029925161449"><ele>343.0</ele><time>2026-03-29T11:33:50.001Z</time></trkpt><trkpt lat="44.59962991198063" lon="8.727955517371624"><ele>343.79999999999995</ele><time>2026-03-29T11:33:52.001Z</time></trkpt><trkpt lat="44.599660166140076" lon="8.727817903901103"><ele>344.6</ele><time>2026-03-29T11:33:54.001Z</time></trkpt><trkpt lat="44.599701670449356" lon="8.727693339800007"><ele>345.4</ele><time>2026-03-29T11:33:55.999Z</time></trkpt><trkpt lat="44.59979189850377" lon="8.727643163374553"><ele>346.20000000000005</ele><time>2026-03-29T11:33:57.999Z</time></trkpt><trkpt lat="44.59985688947801" lon="8.727653895108226"><ele>347.0</ele><time>2026-03-29T11:33:58.999Z</time></trkpt><trkpt lat="44.59996629419834" lon="8.727642897310226"><ele>342.8</ele><time>2026-03-29T11:34:00.999Z</time></trkpt><trkpt lat="44.600018322645354" lon="8.727547276777312"><ele>338.6</ele><time>2026-03-29T11:34:01.999Z</time></trkpt><trkpt lat="44.60006701820187" lon="8.72735950960669"><ele>334.40000000000003</ele><time>2026-03-29T11:34:03.999Z</time></trkpt><trkpt lat="44.600098946796656" lon="8.72727095240512"><ele>330.20000000000005</ele><time>2026-03-29T11:34:04.999Z</time></trkpt><trkpt lat="44.600152432563895" lon="8.7271254620056"><ele>326.0</ele><time>2026-03-29T11:34:06.999Z</time></trkpt><trkpt lat="44.600177036504455" lon="8.727037593615977"><ele>326.0</ele><time>2026-03-29T11:34:07.999Z</time></trkpt><trkpt lat="44.60021434274382" lon="8.726961780585885"><ele>326.0</ele><time>2026-03-29T11:34:08.999Z</time></trkpt><trkpt lat="44.60024370945925" lon="8.72686953669007"><ele>326.0</ele><time>2026-03-29T11:34:09.999Z</time></trkpt><trkpt lat="44.60029571124933" lon="8.726797876053423"><ele>326.0</ele><time>2026-03-29T11:34:10.999Z</time></trkpt><trkpt lat="44.60037534488371" lon="8.726691637253538"><ele>326.0</ele><time>2026-03-29T11:34:12.999Z</time></trkpt><trkpt lat="44.600435723974925" lon="8.72664654617476"><ele>326.0</ele><time>2026-03-29T11:34:13.999Z</time></trkpt><trkpt lat="44.600510966030406" lon="8.72659441372794"><ele>325.33333333333337</ele><time>2026-03-29T11:34:15Z</time></trkpt><trkpt lat="44.60058568203493" lon="8.726538305947416"><ele>324.6666666666667</ele><time>2026-03-29T11:34:16Z</time></trkpt><trkpt lat="44.60064619100284" lon="8.726466289588046"><ele>324.0</ele><time>2026-03-29T11:34:17Z</time></trkpt><trkpt lat="44.60071579486831" lon="8.726433425450962"><ele>323.3333333333333</ele><time>2026-03-29T11:34:18Z</time></trkpt><trkpt lat="44.6007939022791" lon="8.726337422532627"><ele>322.66666666666663</ele><time>2026-03-29T11:34:20Z</time></trkpt><trkpt lat="44.60084944527355" lon="8.726258845891516"><ele>322.0</ele><time>2026-03-29T11:34:21Z</time></trkpt><trkpt lat="44.60088228434962" lon="8.726172419381637"><ele>322.0</ele><time>2026-03-29T11:34:22Z</time></trkpt><trkpt lat="44.60090890123338" lon="8.726066576048936"><ele>322.0</ele><time>2026-03-29T11:34:23Z</time></trkpt><trkpt lat="44.60092841975084" lon="8.725964030261144"><ele>322.0</ele><time>2026-03-29T11:34:24Z</time></trkpt><trkpt lat="44.60096355475517" lon="8.725788562065913"><ele>322.0</ele><time>2026-03-29T11:34:26Z</time></trkpt><trkpt lat="44.60098547669415" lon="8.725702385532415"><ele>322.0</ele><time>2026-03-29T11:34:27Z</time></trkpt><trkpt lat="44.601052286729285" lon="8.725632236162424"><ele>322.0</ele><time>2026-03-29T11:34:29Z</time></trkpt><trkpt lat="44.601142957370335" lon="8.725620433761357"><ele>318.0</ele><time>2026-03-29T11:34:31Z</time></trkpt><trkpt lat="44.60126499694756" lon="8.72571527705162"><ele>314.0</ele><time>2026-03-29T11:34:33Z</time></trkpt><trkpt lat="44.60134176642255" lon="8.725760267348031"><ele>310.0</ele><time>2026-03-29T11:34:34Z</time></trkpt><trkpt lat="44.60146510006385" lon="8.725767456167773"><ele>306.0</ele><time>2026-03-29T11:34:35Z</time></trkpt><trkpt lat="44.601580132971975" lon="8.7258270772894"><ele>306.0</ele><time>2026-03-29T11:34:36Z</time></trkpt><trkpt lat="44.6016868134698" lon="8.725782852250266"><ele>306.0</ele><time>2026-03-29T11:34:37Z</time></trkpt><trkpt lat="44.60182173261769" lon="8.725749547993567"><ele>306.0</ele><time>2026-03-29T11:34:38Z</time></trkpt><trkpt lat="44.60193885603828" lon="8.725715868133683"><ele>306.0</ele><time>2026-03-29T11:34:39Z</time></trkpt><trkpt lat="44.602047411255214" lon="8.72568845349596"><ele>307.0</ele><time>2026-03-29T11:34:40Z</time></trkpt><trkpt lat="44.60216667842714" lon="8.725677352718975"><ele>308.0</ele><time>2026-03-29T11:34:41Z</time></trkpt><trkpt lat="44.60226650908384" lon="8.725620557396303"><ele>309.0</ele><time>2026-03-29T11:34:42Z</time></trkpt><trkpt lat="44.60234780861687" lon="8.72561794846235"><ele>310.0</ele><time>2026-03-29T11:34:43Z</time></trkpt><trkpt lat="44.602476755505954" lon="8.725573928030869"><ele>311.0</ele><time>2026-03-29T11:34:45Z</time></trkpt><trkpt lat="44.6025516997118" lon="8.725528294709736"><ele>311.0</ele><time>2026-03-29T11:34:46Z</time></trkpt><trkpt lat="44.602602713149864" lon="8.725447480254774"><ele>311.0</ele><time>2026-03-29T11:34:47Z</time></trkpt><trkpt lat="44.602669852729264" lon="8.72536197479342"><ele>311.0</ele><time>2026-03-29T11:34:48Z</time></trkpt><trkpt lat="44.60274259199907" lon="8.725270908785902"><ele>311.0</ele><time>2026-03-29T11:34:49Z</time></trkpt><trkpt lat="44.60281971564182" lon="8.725187009676514"><ele>311.0</ele><time>2026-03-29T11:34:50Z</time></trkpt><trkpt lat="44.60288789157322" lon="8.725111907057043"><ele>311.0</ele><time>2026-03-29T11:34:51Z</time></trkpt><trkpt lat="44.60296430267455" lon="8.72496758847407"><ele>311.40000000000003</ele><time>2026-03-29T11:34:53Z</time></trkpt><trkpt lat="44.60297024101428" lon="8.724877499064034"><ele>311.8</ele><time>2026-03-29T11:34:54Z</time></trkpt><trkpt lat="44.60299846631443" lon="8.724711276954189"><ele>312.20000000000005</ele><time>2026-03-29T11:34:56Z</time></trkpt><trkpt lat="44.603057860280934" lon="8.724600321806038"><ele>312.6</ele><time>2026-03-29T11:34:58Z</time></trkpt><trkpt lat="44.60312587749172" lon="8.724555783193319"><ele>313.0</ele><time>2026-03-29T11:34:59Z</time></trkpt><trkpt lat="44.603209346161826" lon="8.724505431706202"><ele>313.0</ele><time>2026-03-29T11:35:00Z</time></trkpt><trkpt lat="44.60329474719268" lon="8.724439218591096"><ele>313.0</ele><time>2026-03-29T11:35:01Z</time></trkpt><trkpt lat="44.603391710652815" lon="8.724409066081153"><ele>313.0</ele><time>2026-03-29T11:35:02Z</time></trkpt><trkpt lat="44.60346702733658" lon="8.724353510940523"><ele>313.0</ele><time>2026-03-29T11:35:03Z</time></trkpt><trkpt lat="44.60355900715152" lon="8.72432662030004"><ele>313.0</ele><time>2026-03-29T11:35:04Z</time></trkpt><trkpt lat="44.60365728979046" lon="8.724346405915501"><ele>308.25</ele><time>2026-03-29T11:35:05Z</time></trkpt><trkpt lat="44.603776931816945" lon="8.724333157976112"><ele>303.5</ele><time>2026-03-29T11:35:06Z</time></trkpt><trkpt lat="44.603926357294135" lon="8.724274979740368"><ele>298.75</ele><time>2026-03-29T11:35:07Z</time></trkpt><trkpt lat="44.6040602584701" lon="8.72428043671297"><ele>294.0</ele><time>2026-03-29T11:35:08Z</time></trkpt><trkpt lat="44.60418459231081" lon="8.724247786030778"><ele>294.0</ele><time>2026-03-29T11:35:09Z</time></trkpt><trkpt lat="44.60428605961082" lon="8.72423862337664"><ele>294.0</ele><time>2026-03-29T11:35:10Z</time></trkpt><trkpt lat="44.604375093686485" lon="8.724220608187439"><ele>294.0</ele><time>2026-03-29T11:35:11Z</time></trkpt><trkpt lat="44.60444312641951" lon="8.724227252118846"><ele>294.0</ele><time>2026-03-29T11:35:12.001Z</time></trkpt><trkpt lat="44.60450580231208" lon="8.724242536800293"><ele>294.0</ele><time>2026-03-29T11:35:13.001Z</time></trkpt><trkpt lat="44.604608599125456" lon="8.724317862387279"><ele>294.0</ele><time>2026-03-29T11:35:15.001Z</time></trkpt><trkpt lat="44.60470736460761" lon="8.724353691899681"><ele>296.0</ele><time>2026-03-29T11:35:17.001Z</time></trkpt><trkpt lat="44.60481047014912" lon="8.724324155347253"><ele>298.0</ele><time>2026-03-29T11:35:19.001Z</time></trkpt><trkpt lat="44.60482065145081" lon="8.724226488945868"><ele>300.0</ele><time>2026-03-29T11:35:20.001Z</time></trkpt><trkpt lat="44.60483915668694" lon="8.724076038670145"><ele>302.0</ele><time>2026-03-29T11:35:21.001Z</time></trkpt><trkpt lat="44.60483772474176" lon="8.723949744239414"><ele>304.0</ele><time>2026-03-29T11:35:22.001Z</time></trkpt><trkpt lat="44.60492845719974" lon="8.72382895356294"><ele>304.0</ele><time>2026-03-29T11:35:24.001Z</time></trkpt><trkpt lat="44.60502334514815" lon="8.723833137943496"><ele>304.0</ele><time>2026-03-29T11:35:25.001Z</time></trkpt><trkpt lat="44.60510911525059" lon="8.72379716534464"><ele>304.0</ele><time>2026-03-29T11:35:26.001Z</time></trkpt><trkpt lat="44.605202402804274" lon="8.723738004953638"><ele>304.0</ele><time>2026-03-29T11:35:27.001Z</time></trkpt><trkpt lat="44.605281131764286" lon="8.723690189500402"><ele>304.0</ele><time>2026-03-29T11:35:28.001Z</time></trkpt><trkpt lat="44.60536822177851" lon="8.723602209996413"><ele>307.6</ele><time>2026-03-29T11:35:29.001Z</time></trkpt><trkpt lat="44.60544866031987" lon="8.723488088033283"><ele>311.2</ele><time>2026-03-29T11:35:30.001Z</time></trkpt><trkpt lat="44.605511103024746" lon="8.723408619801306"><ele>314.8</ele><time>2026-03-29T11:35:31.001Z</time></trkpt><trkpt lat="44.605562527882256" lon="8.723309416171512"><ele>318.40000000000003</ele><time>2026-03-29T11:35:32.001Z</time></trkpt><trkpt lat="44.6056015426861" lon="8.72320966118853"><ele>322.0</ele><time>2026-03-29T11:35:33.001Z</time></trkpt><trkpt lat="44.60562611619866" lon="8.72309276396339"><ele>322.0</ele><time>2026-03-29T11:35:34.001Z</time></trkpt><trkpt lat="44.60564498531336" lon="8.722945210310007"><ele>322.0</ele><time>2026-03-29T11:35:35.001Z</time></trkpt><trkpt lat="44.60567042169767" lon="8.722769853414679"><ele>322.0</ele><time>2026-03-29T11:35:36.001Z</time></trkpt><trkpt lat="44.60571184205085" lon="8.722650419978933"><ele>322.0</ele><time>2026-03-29T11:35:37.001Z</time></trkpt><trkpt lat="44.60577011232376" lon="8.722563317641862"><ele>322.0</ele><time>2026-03-29T11:35:38.001Z</time></trkpt><trkpt lat="44.605770540840055" lon="8.722460856755388"><ele>319.25</ele><time>2026-03-29T11:35:39.001Z</time></trkpt><trkpt lat="44.60574284153655" lon="8.722245402858885"><ele>316.5</ele><time>2026-03-29T11:35:41.001Z</time></trkpt><trkpt lat="44.605626615348875" lon="8.722096275394424"><ele>313.75</ele><time>2026-03-29T11:35:43.001Z</time></trkpt><trkpt lat="44.60554068976157" lon="8.721973739699735"><ele>311.0</ele><time>2026-03-29T11:35:44.001Z</time></trkpt><trkpt lat="44.60549513789555" lon="8.721873615289041"><ele>310.8</ele><time>2026-03-29T11:35:45.001Z</time></trkpt><trkpt lat="44.60546808557966" lon="8.72176512077474"><ele>310.6</ele><time>2026-03-29T11:35:46.001Z</time></trkpt><trkpt lat="44.605507258461465" lon="8.72162423205882"><ele>310.4</ele><time>2026-03-29T11:35:49.001Z</time></trkpt><trkpt lat="44.60556350936978" lon="8.72154066303899"><ele>310.2</ele><time>2026-03-29T11:35:51.001Z</time></trkpt><trkpt lat="44.6056679964489" lon="8.721478303611477"><ele>310.0</ele><time>2026-03-29T11:35:53.001Z</time></trkpt><trkpt lat="44.60573191227365" lon="8.721447763493186"><ele>310.0</ele><time>2026-03-29T11:35:54.001Z</time></trkpt><trkpt lat="44.60583910478245" lon="8.721397653420379"><ele>310.0</ele><time>2026-03-29T11:35:55.001Z</time></trkpt><trkpt lat="44.60592744918832" lon="8.721344457331792"><ele>310.0</ele><time>2026-03-29T11:35:56.001Z</time></trkpt><trkpt lat="44.606016250912376" lon="8.721319376100688"><ele>310.0</ele><time>2026-03-29T11:35:57.001Z</time></trkpt><trkpt lat="44.606096558276015" lon="8.721277246530079"><ele>310.0</ele><time>2026-03-29T11:35:58.001Z</time></trkpt><trkpt lat="44.60617333258435" lon="8.721249077695239"><ele>308.0</ele><time>2026-03-29T11:35:59.001Z</time></trkpt><trkpt lat="44.60624657072785" lon="8.721179254861791"><ele>306.0</ele><time>2026-03-29T11:36:00.001Z</time></trkpt><trkpt lat="44.60632571623416" lon="8.72113682478057"><ele>304.0</ele><time>2026-03-29T11:36:01Z</time></trkpt><trkpt lat="44.60642699829061" lon="8.721090166028457"><ele>302.0</ele><time>2026-03-29T11:36:02Z</time></trkpt><trkpt lat="44.60650658912167" lon="8.721075709024564"><ele>300.0</ele><time>2026-03-29T11:36:03Z</time></trkpt><trkpt lat="44.60659215297361" lon="8.721066141902682"><ele>298.0</ele><time>2026-03-29T11:36:04Z</time></trkpt><trkpt lat="44.60668367122748" lon="8.721048950001775"><ele>298.0</ele><time>2026-03-29T11:36:05Z</time></trkpt><trkpt lat="44.606761223508904" lon="8.721062105392928"><ele>298.0</ele><time>2026-03-29T11:36:06Z</time></trkpt><trkpt lat="44.606847094272005" lon="8.721059250171919"><ele>298.0</ele><time>2026-03-29T11:36:07Z</time></trkpt><trkpt lat="44.606923574109615" lon="8.721057154610657"><ele>298.0</ele><time>2026-03-29T11:36:08Z</time></trkpt><trkpt lat="44.607001205495635" lon="8.721055002617938"><ele>298.0</ele><time>2026-03-29T11:36:09Z</time></trkpt><trkpt lat="44.60707640105477" lon="8.721040936666425"><ele>298.0</ele><time>2026-03-29T11:36:10Z</time></trkpt><trkpt lat="44.60713933101838" lon="8.721083197477162"><ele>298.2</ele><time>2026-03-29T11:36:11Z</time></trkpt><trkpt lat="44.60723357307865" lon="8.721103336752757"><ele>298.4</ele><time>2026-03-29T11:36:13Z</time></trkpt><trkpt lat="44.607330710892214" lon="8.72104549377081"><ele>298.59999999999997</ele><time>2026-03-29T11:36:15Z</time></trkpt><trkpt lat="44.60738452334562" lon="8.720982590736421"><ele>298.8</ele><time>2026-03-29T11:36:16Z</time></trkpt><trkpt lat="44.607516991580695" lon="8.720905849362193"><ele>299.0</ele><time>2026-03-29T11:36:18Z</time></trkpt><trkpt lat="44.6076023883057" lon="8.72091352932866"><ele>299.0</ele><time>2026-03-29T11:36:19Z</time></trkpt><trkpt lat="44.60771121820621" lon="8.72092610232849"><ele>299.0</ele><time>2026-03-29T11:36:21Z</time></trkpt><trkpt lat="44.60781214472242" lon="8.72085369647993"><ele>299.0</ele><time>2026-03-29T11:36:23Z</time></trkpt><trkpt lat="44.60789335114483" lon="8.720771305074392"><ele>299.0</ele><time>2026-03-29T11:36:24Z</time></trkpt><trkpt lat="44.607963473308764" lon="8.72070582199539"><ele>299.0</ele><time>2026-03-29T11:36:25Z</time></trkpt><trkpt lat="44.608045376199165" lon="8.720646176485632"><ele>300.0</ele><time>2026-03-29T11:36:26Z</time></trkpt><trkpt lat="44.6081324337463" lon="8.720637381991985"><ele>301.0</ele><time>2026-03-29T11:36:27Z</time></trkpt><trkpt lat="44.608222461893675" lon="8.720596641348322"><ele>302.0</ele><time>2026-03-29T11:36:28Z</time></trkpt><trkpt lat="44.60831528926542" lon="8.7205976833069"><ele>303.0</ele><time>2026-03-29T11:36:29Z</time></trkpt><trkpt lat="44.60839855268182" lon="8.720619339143463"><ele>304.0</ele><time>2026-03-29T11:36:30Z</time></trkpt><trkpt lat="44.608474026881595" lon="8.720619667284264"><ele>305.0</ele><time>2026-03-29T11:36:31Z</time></trkpt><trkpt lat="44.608543855170936" lon="8.720605528869601"><ele>305.0</ele><time>2026-03-29T11:36:32Z</time></trkpt><trkpt lat="44.60860165697547" lon="8.720569191965158"><ele>305.0</ele><time>2026-03-29T11:36:33Z</time></trkpt><trkpt lat="44.6086604182755" lon="8.72050047211052"><ele>305.0</ele><time>2026-03-29T11:36:34Z</time></trkpt><trkpt lat="44.6087060087644" lon="8.720395998883351"><ele>305.0</ele><time>2026-03-29T11:36:35Z</time></trkpt><trkpt lat="44.60877332714853" lon="8.720320627198545"><ele>305.0</ele><time>2026-03-29T11:36:36Z</time></trkpt><trkpt lat="44.60885903213216" lon="8.72029853164663"><ele>305.0</ele><time>2026-03-29T11:36:37Z</time></trkpt><trkpt lat="44.608942399905814" lon="8.720239004771555"><ele>301.6</ele><time>2026-03-29T11:36:38Z</time></trkpt><trkpt lat="44.6090386011692" lon="8.72022193283162"><ele>298.2</ele><time>2026-03-29T11:36:39Z</time></trkpt><trkpt lat="44.60911968682208" lon="8.720179656840806"><ele>294.8</ele><time>2026-03-29T11:36:40Z</time></trkpt><trkpt lat="44.60918455398509" lon="8.720127830955583"><ele>291.4</ele><time>2026-03-29T11:36:41Z</time></trkpt><trkpt lat="44.60927519854146" lon="8.720065898749082"><ele>288.0</ele><time>2026-03-29T11:36:42Z</time></trkpt><trkpt lat="44.609390112379906" lon="8.719965641010502"><ele>288.0</ele><time>2026-03-29T11:36:43Z</time></trkpt><trkpt lat="44.60948103792898" lon="8.719899669576241"><ele>288.0</ele><time>2026-03-29T11:36:44Z</time></trkpt><trkpt lat="44.609556074693316" lon="8.719813506504574"><ele>288.0</ele><time>2026-03-29T11:36:45Z</time></trkpt><trkpt lat="44.60964211867619" lon="8.719719733501446"><ele>288.0</ele><time>2026-03-29T11:36:46Z</time></trkpt><trkpt lat="44.60973228154005" lon="8.71960886672124"><ele>288.0</ele><time>2026-03-29T11:36:47Z</time></trkpt><trkpt lat="44.60980989482574" lon="8.719554279956597"><ele>287.1666666666667</ele><time>2026-03-29T11:36:48Z</time></trkpt><trkpt lat="44.60988368556103" lon="8.719485735582005"><ele>286.3333333333333</ele><time>2026-03-29T11:36:49Z</time></trkpt><trkpt lat="44.60994366609171" lon="8.719387085764316"><ele>285.5</ele><time>2026-03-29T11:36:50Z</time></trkpt><trkpt lat="44.61000655067848" lon="8.719327742161205"><ele>284.66666666666663</ele><time>2026-03-29T11:36:51Z</time></trkpt><trkpt lat="44.61006585779425" lon="8.719258216910301"><ele>283.8333333333333</ele><time>2026-03-29T11:36:52Z</time></trkpt><trkpt lat="44.61012910240503" lon="8.719155818246403"><ele>283.0</ele><time>2026-03-29T11:36:53Z</time></trkpt><trkpt lat="44.61019706348327" lon="8.719086652664451"><ele>283.0</ele><time>2026-03-29T11:36:54Z</time></trkpt><trkpt lat="44.610259041194915" lon="8.7190196546832"><ele>283.0</ele><time>2026-03-29T11:36:55Z</time></trkpt><trkpt lat="44.61032138913528" lon="8.718943117462285"><ele>283.0</ele><time>2026-03-29T11:36:56Z</time></trkpt><trkpt lat="44.610374414937866" lon="8.718881120439834"><ele>283.0</ele><time>2026-03-29T11:36:57Z</time></trkpt><trkpt lat="44.610434273943596" lon="8.718825264418475"><ele>283.0</ele><time>2026-03-29T11:36:58Z</time></trkpt><trkpt lat="44.610488973074894" lon="8.718779395844251"><ele>283.0</ele><time>2026-03-29T11:36:59Z</time></trkpt><trkpt lat="44.61058894848104" lon="8.718718379465278"><ele>281.0</ele><time>2026-03-29T11:37:01Z</time></trkpt><trkpt lat="44.610666523168206" lon="8.718683819417565"><ele>279.0</ele><time>2026-03-29T11:37:03.001Z</time></trkpt><trkpt lat="44.61077526097996" lon="8.71862078357198"><ele>277.0</ele><time>2026-03-29T11:37:05.001Z</time></trkpt><trkpt lat="44.61089616614409" lon="8.718538220012142"><ele>275.0</ele><time>2026-03-29T11:37:07.001Z</time></trkpt><trkpt lat="44.61098493135512" lon="8.718482700470835"><ele>273.0</ele><time>2026-03-29T11:37:08.001Z</time></trkpt><trkpt lat="44.611083916001164" lon="8.71844866272603"><ele>274.0</ele><time>2026-03-29T11:37:09.001Z</time></trkpt><trkpt lat="44.611179553573244" lon="8.718414023084614"><ele>275.0</ele><time>2026-03-29T11:37:10.001Z</time></trkpt><trkpt lat="44.611267228874055" lon="8.718403147093738"><ele>276.0</ele><time>2026-03-29T11:37:11.001Z</time></trkpt><trkpt lat="44.611335724439336" lon="8.718363496558377"><ele>277.0</ele><time>2026-03-29T11:37:12.001Z</time></trkpt><trkpt lat="44.61139888926767" lon="8.718358073709094"><ele>278.0</ele><time>2026-03-29T11:37:13.001Z</time></trkpt><trkpt lat="44.61149682030242" lon="8.71823834446882"><ele>278.0</ele><time>2026-03-29T11:37:15.001Z</time></trkpt><trkpt lat="44.611572547553514" lon="8.718174435259362"><ele>278.0</ele><time>2026-03-29T11:37:16.001Z</time></trkpt><trkpt lat="44.61165473679384" lon="8.71813403716027"><ele>278.0</ele><time>2026-03-29T11:37:17.001Z</time></trkpt><trkpt lat="44.61172692731703" lon="8.718094452047099"><ele>278.0</ele><time>2026-03-29T11:37:18.001Z</time></trkpt><trkpt lat="44.61179569918083" lon="8.718077152109538"><ele>278.0</ele><time>2026-03-29T11:37:19.001Z</time></trkpt><trkpt lat="44.611864897749335" lon="8.71808148490276"><ele>278.0</ele><time>2026-03-29T11:37:20.001Z</time></trkpt><trkpt lat="44.61198856868097" lon="8.71802459257401"><ele>277.8</ele><time>2026-03-29T11:37:22.001Z</time></trkpt><trkpt lat="44.61207911078925" lon="8.717956140438341"><ele>277.6</ele><time>2026-03-29T11:37:23.001Z</time></trkpt><trkpt lat="44.61218578954743" lon="8.717882447088575"><ele>277.4</ele><time>2026-03-29T11:37:24.001Z</time></trkpt><trkpt lat="44.6122974446519" lon="8.717838540555892"><ele>277.2</ele><time>2026-03-29T11:37:25.001Z</time></trkpt><trkpt lat="44.61240073412382" lon="8.717822188327569"><ele>277.0</ele><time>2026-03-29T11:37:26.001Z</time></trkpt><trkpt lat="44.61248812368931" lon="8.717795612270963"><ele>277.0</ele><time>2026-03-29T11:37:27.001Z</time></trkpt><trkpt lat="44.612571440007294" lon="8.717808716748303"><ele>277.0</ele><time>2026-03-29T11:37:28.001Z</time></trkpt><trkpt lat="44.61263951632729" lon="8.717822043323915"><ele>277.0</ele><time>2026-03-29T11:37:29.001Z</time></trkpt><trkpt lat="44.61270776066715" lon="8.71786591122058"><ele>277.0</ele><time>2026-03-29T11:37:30.001Z</time></trkpt><trkpt lat="44.61278196010839" lon="8.717879831604126"><ele>277.0</ele><time>2026-03-29T11:37:31.001Z</time></trkpt><trkpt lat="44.612849285816324" lon="8.717921032251255"><ele>277.0</ele><time>2026-03-29T11:37:32.001Z</time></trkpt><trkpt lat="44.612931279421005" lon="8.717957616775054"><ele>277.0</ele><time>2026-03-29T11:37:33.001Z</time></trkpt><trkpt lat="44.61301417623001" lon="8.717929757930465"><ele>277.0</ele><time>2026-03-29T11:37:34.001Z</time></trkpt><trkpt lat="44.61309496756186" lon="8.717911679803594"><ele>277.0</ele><time>2026-03-29T11:37:35.001Z</time></trkpt><trkpt lat="44.61317472736464" lon="8.71789088072061"><ele>277.0</ele><time>2026-03-29T11:37:36.001Z</time></trkpt><trkpt lat="44.61325634254011" lon="8.717869530507135"><ele>277.0</ele><time>2026-03-29T11:37:37.001Z</time></trkpt><trkpt lat="44.61333202033609" lon="8.717818896537324"><ele>277.0</ele><time>2026-03-29T11:37:38.001Z</time></trkpt><trkpt lat="44.61339943683832" lon="8.717766335897995"><ele>273.0</ele><time>2026-03-29T11:37:39.001Z</time></trkpt><trkpt lat="44.6134707566588" lon="8.717726347494644"><ele>269.0</ele><time>2026-03-29T11:37:40.001Z</time></trkpt><trkpt lat="44.61353556813127" lon="8.717689341677378"><ele>265.0</ele><time>2026-03-29T11:37:41.001Z</time></trkpt><trkpt lat="44.61359296281181" lon="8.717645590751067"><ele>261.0</ele><time>2026-03-29T11:37:42.001Z</time></trkpt><trkpt lat="44.61370217957696" lon="8.717569145029513"><ele>257.0</ele><time>2026-03-29T11:37:44.001Z</time></trkpt><trkpt lat="44.61376072736189" lon="8.717526464214046"><ele>253.0</ele><time>2026-03-29T11:37:45.001Z</time></trkpt><trkpt lat="44.61382471543573" lon="8.717495095345182"><ele>252.99999999999997</ele><time>2026-03-29T11:37:46.001Z</time></trkpt><trkpt lat="44.61388251290759" lon="8.717454210891557"><ele>253.0</ele><time>2026-03-29T11:37:47.001Z</time></trkpt><trkpt lat="44.613943344202816" lon="8.717431016780129"><ele>253.0</ele><time>2026-03-29T11:37:48.001Z</time></trkpt><trkpt lat="44.6140079552126" lon="8.717413314914662"><ele>253.0</ele><time>2026-03-29T11:37:49.001Z</time></trkpt><trkpt lat="44.614069973457724" lon="8.71739778561326"><ele>252.99999999999997</ele><time>2026-03-29T11:37:50.001Z</time></trkpt><trkpt lat="44.61419341162193" lon="8.717375181425547"><ele>253.0</ele><time>2026-03-29T11:37:52.001Z</time></trkpt><trkpt lat="44.614309105165006" lon="8.717335425841924"><ele>253.0</ele><time>2026-03-29T11:37:54.001Z</time></trkpt><trkpt lat="44.61441401303246" lon="8.717236453942782"><ele>253.0</ele><time>2026-03-29T11:37:56.001Z</time></trkpt><trkpt lat="44.61453385148118" lon="8.717186912691947"><ele>253.0</ele><time>2026-03-29T11:37:58.001Z</time></trkpt><trkpt lat="44.61460794476229" lon="8.71716787041907"><ele>253.0</ele><time>2026-03-29T11:37:59.001Z</time></trkpt><trkpt lat="44.61469201979731" lon="8.717153221432115"><ele>253.0</ele><time>2026-03-29T11:38:00.001Z</time></trkpt><trkpt lat="44.6147785489682" lon="8.717153969479792"><ele>251.33333333333331</ele><time>2026-03-29T11:38:01.001Z</time></trkpt><trkpt lat="44.61485644440158" lon="8.717153247056556"><ele>249.66666666666666</ele><time>2026-03-29T11:38:02.001Z</time></trkpt><trkpt lat="44.61493798571778" lon="8.717148344404965"><ele>248.0</ele><time>2026-03-29T11:38:03.001Z</time></trkpt><trkpt lat="44.615032234831325" lon="8.717117888922017"><ele>246.33333333333331</ele><time>2026-03-29T11:38:04.001Z</time></trkpt><trkpt lat="44.615117855969935" lon="8.717063297891816"><ele>244.66666666666666</ele><time>2026-03-29T11:38:05.001Z</time></trkpt><trkpt lat="44.61520282225198" lon="8.717005226883204"><ele>243.0</ele><time>2026-03-29T11:38:06.001Z</time></trkpt><trkpt lat="44.61530344824454" lon="8.71695116382167"><ele>241.4</ele><time>2026-03-29T11:38:06.999Z</time></trkpt><trkpt lat="44.61539944648666" lon="8.716920002362322"><ele>239.8</ele><time>2026-03-29T11:38:07.999Z</time></trkpt><trkpt lat="44.61548937003758" lon="8.716909931291642"><ele>238.2</ele><time>2026-03-29T11:38:08.999Z</time></trkpt><trkpt lat="44.615583672454974" lon="8.716916523943015"><ele>236.6</ele><time>2026-03-29T11:38:09.999Z</time></trkpt><trkpt lat="44.615676840659866" lon="8.716932430831758"><ele>235.0</ele><time>2026-03-29T11:38:10.999Z</time></trkpt><trkpt lat="44.61575259960258" lon="8.716938939610401"><ele>234.99999999999997</ele><time>2026-03-29T11:38:11.999Z</time></trkpt><trkpt lat="44.61581775548846" lon="8.716939269355803"><ele>235.0</ele><time>2026-03-29T11:38:12.999Z</time></trkpt><trkpt lat="44.61588255652452" lon="8.71692136629741"><ele>235.0</ele><time>2026-03-29T11:38:13.999Z</time></trkpt><trkpt lat="44.615978821155" lon="8.716847869201377"><ele>235.0</ele><time>2026-03-29T11:38:15.999Z</time></trkpt><trkpt lat="44.61602871216627" lon="8.716687438278822"><ele>234.99999999999997</ele><time>2026-03-29T11:38:17.999Z</time></trkpt><trkpt lat="44.61602111287887" lon="8.716597292663433"><ele>235.0</ele><time>2026-03-29T11:38:18.999Z</time></trkpt><trkpt lat="44.61601766797554" lon="8.716500992785106"><ele>234.16666666666666</ele><time>2026-03-29T11:38:19.999Z</time></trkpt><trkpt lat="44.616022636165376" lon="8.71640186616277"><ele>233.33333333333331</ele><time>2026-03-29T11:38:20.999Z</time></trkpt><trkpt lat="44.6160525316706" lon="8.716313818975532"><ele>232.5</ele><time>2026-03-29T11:38:22Z</time></trkpt><trkpt lat="44.6161109334769" lon="8.716238471495831"><ele>231.66666666666669</ele><time>2026-03-29T11:38:23Z</time></trkpt><trkpt lat="44.61620248059066" lon="8.7161961477949"><ele>230.83333333333334</ele><time>2026-03-29T11:38:24Z</time></trkpt><trkpt lat="44.6163011573479" lon="8.716101970634636"><ele>230.0</ele><time>2026-03-29T11:38:25Z</time></trkpt><trkpt lat="44.61640198821839" lon="8.71598679025194"><ele>229.8</ele><time>2026-03-29T11:38:26Z</time></trkpt><trkpt lat="44.616481234660455" lon="8.715867852671824"><ele>229.6</ele><time>2026-03-29T11:38:27Z</time></trkpt><trkpt lat="44.61654573178947" lon="8.715766471772442"><ele>229.39999999999998</ele><time>2026-03-29T11:38:28Z</time></trkpt><trkpt lat="44.61658291151542" lon="8.715645130164315"><ele>229.2</ele><time>2026-03-29T11:38:29Z</time></trkpt><trkpt lat="44.6165991375478" lon="8.7154992931031"><ele>229.0</ele><time>2026-03-29T11:38:30Z</time></trkpt><trkpt lat="44.61660698066204" lon="8.715353681708466"><ele>229.0</ele><time>2026-03-29T11:38:31Z</time></trkpt><trkpt lat="44.61661427684324" lon="8.715202381876445"><ele>229.0</ele><time>2026-03-29T11:38:32Z</time></trkpt><trkpt lat="44.6166331884586" lon="8.715101333688995"><ele>229.0</ele><time>2026-03-29T11:38:33Z</time></trkpt><trkpt lat="44.61667392025826" lon="8.714986315847113"><ele>229.0</ele><time>2026-03-29T11:38:35Z</time></trkpt></trkseg><trkseg><trkpt lat="44.63106522549785" lon="8.703204921638216"><ele>203.8</ele><time>2026-03-29T11:52:47.001Z</time></trkpt><trkpt lat="44.63117680682324" lon="8.703117940110836"><ele>204.60000000000002</ele><time>2026-03-29T11:52:48.999Z</time></trkpt><trkpt lat="44.631257331532815" lon="8.703055091560278"><ele>205.39999999999998</ele><time>2026-03-29T11:52:49.999Z</time></trkpt><trkpt lat="44.63134420928168" lon="8.702968253936362"><ele>206.2</ele><time>2026-03-29T11:52:50.999Z</time></trkpt><trkpt lat="44.63142467668422" lon="8.702913400837986"><ele>207.0</ele><time>2026-03-29T11:52:51.999Z</time></trkpt><trkpt lat="44.6314944428357" lon="8.702855813934223"><ele>207.0</ele><time>2026-03-29T11:52:52.999Z</time></trkpt><trkpt lat="44.63158023211564" lon="8.702787634931108"><ele>207.0</ele><time>2026-03-29T11:52:53.999Z</time></trkpt><trkpt lat="44.63167646223614" lon="8.702720794995633"><ele>207.0</ele><time>2026-03-29T11:52:54.999Z</time></trkpt><trkpt lat="44.631758156416986" lon="8.702667666671905"><ele>207.0</ele><time>2026-03-29T11:52:55.999Z</time></trkpt><trkpt lat="44.631830022938445" lon="8.702641876464721"><ele>207.0</ele><time>2026-03-29T11:52:56.999Z</time></trkpt><trkpt lat="44.63192879604578" lon="8.702663063018122"><ele>205.6</ele><time>2026-03-29T11:52:58.999Z</time></trkpt><trkpt lat="44.63199985754566" lon="8.702662112900814"><ele>204.2</ele><time>2026-03-29T11:53:46Z</time></trkpt><trkpt lat="44.6320399646872" lon="8.702423288488346"><ele>202.8</ele><time>2026-03-29T11:55:41Z</time></trkpt><trkpt lat="44.63201434550802" lon="8.702331287170262"><ele>201.4</ele><time>2026-03-29T11:55:42Z</time></trkpt><trkpt lat="44.6319693974902" lon="8.702220810690307"><ele>200.0</ele><time>2026-03-29T11:55:43Z</time></trkpt><trkpt lat="44.63191711177944" lon="8.702096078790877"><ele>200.0</ele><time>2026-03-29T11:55:44Z</time></trkpt><trkpt lat="44.63186078910765" lon="8.701959614130702"><ele>200.0</ele><time>2026-03-29T11:55:45Z</time></trkpt><trkpt lat="44.631805612217356" lon="8.701820779634875"><ele>200.0</ele><time>2026-03-29T11:55:46Z</time></trkpt><trkpt lat="44.631749530759485" lon="8.701696805501799"><ele>200.0</ele><time>2026-03-29T11:55:47Z</time></trkpt><trkpt lat="44.63169326407305" lon="8.701568253736411"><ele>200.0</ele><time>2026-03-29T11:55:48Z</time></trkpt><trkpt lat="44.63163405875091" lon="8.701423913520893"><ele>199.0</ele><time>2026-03-29T11:55:49Z</time></trkpt><trkpt lat="44.63157024426262" lon="8.70126653483238"><ele>198.0</ele><time>2026-03-29T11:55:50Z</time></trkpt><trkpt lat="44.63150110182215" lon="8.701097674532509"><ele>197.0</ele><time>2026-03-29T11:55:51Z</time></trkpt><trkpt lat="44.6314423297447" lon="8.70091959855724"><ele>196.0</ele><time>2026-03-29T11:55:52Z</time></trkpt><trkpt lat="44.63139729994565" lon="8.70072587141944"><ele>198.0</ele><time>2026-03-29T11:55:53Z</time></trkpt><trkpt lat="44.631366929300356" lon="8.700535312133942"><ele>200.0</ele><time>2026-03-29T11:55:54Z</time></trkpt><trkpt lat="44.63133949735855" lon="8.70036864361654"><ele>202.0</ele><time>2026-03-29T11:55:55Z</time></trkpt><trkpt lat="44.6313104925786" lon="8.700197909078488"><ele>204.0</ele><time>2026-03-29T11:55:56Z</time></trkpt><trkpt lat="44.63127410485575" lon="8.700027997872636"><ele>206.25</ele><time>2026-03-29T11:55:57.001Z</time></trkpt><trkpt lat="44.63124997292916" lon="8.699857389486132"><ele>208.5</ele><time>2026-03-29T11:55:58.001Z</time></trkpt><trkpt lat="44.6312341731101" lon="8.699684882509851"><ele>210.75</ele><time>2026-03-29T11:55:59.001Z</time></trkpt><trkpt lat="44.631235612749926" lon="8.699509760925727"><ele>213.0</ele><time>2026-03-29T11:56:00.001Z</time></trkpt><trkpt lat="44.63125886186018" lon="8.69932364114138"><ele>214.0</ele><time>2026-03-29T11:56:01.001Z</time></trkpt><trkpt lat="44.63129214433669" lon="8.699136232642795"><ele>215.0</ele><time>2026-03-29T11:56:02.001Z</time></trkpt><trkpt lat="44.631328882989436" lon="8.698949276651712"><ele>216.0</ele><time>2026-03-29T11:56:03.001Z</time></trkpt><trkpt lat="44.631358361393374" lon="8.698767569783852"><ele>217.0</ele><time>2026-03-29T11:56:04.001Z</time></trkpt><trkpt lat="44.63137286576904" lon="8.69858704454082"><ele>217.0</ele><time>2026-03-29T11:56:05.001Z</time></trkpt><trkpt lat="44.631402030432966" lon="8.698404998913217"><ele>217.0</ele><time>2026-03-29T11:56:06.001Z</time></trkpt><trkpt lat="44.63145507186819" lon="8.698221989161686"><ele>217.0</ele><time>2026-03-29T11:56:07.001Z</time></trkpt><trkpt lat="44.63152007799821" lon="8.698052253738258"><ele>217.0</ele><time>2026-03-29T11:56:08.001Z</time></trkpt><trkpt lat="44.631599302748135" lon="8.697893581980987"><ele>218.0</ele><time>2026-03-29T11:56:09.001Z</time></trkpt><trkpt lat="44.63169117630519" lon="8.697745888388436"><ele>219.0</ele><time>2026-03-29T11:56:10.001Z</time></trkpt><trkpt lat="44.63179217001423" lon="8.697582945711739"><ele>220.0</ele><time>2026-03-29T11:56:11.001Z</time></trkpt><trkpt lat="44.6319219625184" lon="8.69741279269686"><ele>220.0</ele><time>2026-03-29T11:56:12.001Z</time></trkpt><trkpt lat="44.63205540635711" lon="8.697207872394175"><ele>220.0</ele><time>2026-03-29T11:56:13.001Z</time></trkpt><trkpt lat="44.632184301023045" lon="8.696977650191323"><ele>220.0</ele><time>2026-03-29T11:56:14.001Z</time></trkpt><trkpt lat="44.63233112942761" lon="8.696767530897402"><ele>220.0</ele><time>2026-03-29T11:56:15.001Z</time></trkpt><trkpt lat="44.63246585104189" lon="8.696572707308437"><ele>220.0</ele><time>2026-03-29T11:56:16.001Z</time></trkpt><trkpt lat="44.632578140048594" lon="8.696389775228305"><ele>220.0</ele><time>2026-03-29T11:56:17.001Z</time></trkpt><trkpt lat="44.63268523268713" lon="8.696218186440673"><ele>220.0</ele><time>2026-03-29T11:56:18.001Z</time></trkpt><trkpt lat="44.632784389794715" lon="8.696057854423719"><ele>220.0</ele><time>2026-03-29T11:56:19.001Z</time></trkpt><trkpt lat="44.632888535752436" lon="8.69590986788818"><ele>220.0</ele><time>2026-03-29T11:56:20.001Z</time></trkpt><trkpt lat="44.633014771356954" lon="8.695774116957706"><ele>220.0</ele><time>2026-03-29T11:56:21.001Z</time></trkpt><trkpt lat="44.63315071736626" lon="8.69564757495"><ele>220.0</ele><time>2026-03-29T11:56:22.001Z</time></trkpt><trkpt lat="44.633305777052385" lon="8.69556136915374"><ele>220.0</ele><time>2026-03-29T11:56:23.001Z</time></trkpt><trkpt lat="44.63345665660409" lon="8.695445970115838"><ele>220.0</ele><time>2026-03-29T11:56:24.001Z</time></trkpt><trkpt lat="44.63360936384008" lon="8.695356442047565"><ele>220.0</ele><time>2026-03-29T11:56:25.001Z</time></trkpt><trkpt lat="44.63373971206239" lon="8.695267698374177"><ele>220.0</ele><time>2026-03-29T11:56:26.001Z</time></trkpt><trkpt lat="44.63386132722929" lon="8.695187291549583"><ele>220.0</ele><time>2026-03-29T11:56:27.001Z</time></trkpt><trkpt lat="44.63397371008603" lon="8.69509678712236"><ele>219.5</ele><time>2026-03-29T11:56:28.001Z</time></trkpt><trkpt lat="44.63408418259991" lon="8.694981933618887"><ele>219.0</ele><time>2026-03-29T11:56:29.001Z</time></trkpt><trkpt lat="44.63417806562269" lon="8.694849493386876"><ele>218.5</ele><time>2026-03-29T11:56:30.001Z</time></trkpt><trkpt lat="44.63425287991194" lon="8.69469241789061"><ele>218.0</ele><time>2026-03-29T11:56:31.001Z</time></trkpt><trkpt lat="44.63433393983115" lon="8.6945295526302"><ele>217.25</ele><time>2026-03-29T11:56:32.001Z</time></trkpt><trkpt lat="44.63441490258979" lon="8.694376237396218"><ele>216.5</ele><time>2026-03-29T11:56:33.001Z</time></trkpt><trkpt lat="44.634499069301576" lon="8.694236192765723"><ele>215.75</ele><time>2026-03-29T11:56:34.001Z</time></trkpt><trkpt lat="44.63459319908037" lon="8.694127846037988"><ele>215.0</ele><time>2026-03-29T11:56:35.001Z</time></trkpt><trkpt lat="44.63471943043528" lon="8.694064639046198"><ele>215.0</ele><time>2026-03-29T11:56:36.001Z</time></trkpt><trkpt lat="44.63483730814732" lon="8.693997196837731"><ele>215.0</ele><time>2026-03-29T11:56:37.001Z</time></trkpt><trkpt lat="44.63494828205688" lon="8.693904806422905"><ele>215.0</ele><time>2026-03-29T11:56:38.001Z</time></trkpt><trkpt lat="44.63503712228476" lon="8.693773582510332"><ele>215.0</ele><time>2026-03-29T11:56:39.001Z</time></trkpt><trkpt lat="44.63511064634196" lon="8.693627040553407"><ele>214.4</ele><time>2026-03-29T11:56:40.001Z</time></trkpt><trkpt lat="44.63516787372065" lon="8.693488261295888"><ele>213.8</ele><time>2026-03-29T11:56:41.001Z</time></trkpt><trkpt lat="44.63524445138851" lon="8.693404518294225"><ele>213.2</ele><time>2026-03-29T11:56:42.001Z</time></trkpt><trkpt lat="44.635319361645486" lon="8.69334931197539"><ele>212.6</ele><time>2026-03-29T11:56:43.001Z</time></trkpt><trkpt lat="44.63541287723479" lon="8.693345933871278"><ele>212.0</ele><time>2026-03-29T11:56:44.002Z</time></trkpt><trkpt lat="44.63552019938107" lon="8.693338588941199"><ele>212.0</ele><time>2026-03-29T11:56:45.002Z</time></trkpt><trkpt lat="44.63564245385999" lon="8.693354755047869"><ele>212.0</ele><time>2026-03-29T11:56:46.002Z</time></trkpt><trkpt lat="44.6358107228645" lon="8.693370681661493"><ele>212.0</ele><time>2026-03-29T11:56:47.002Z</time></trkpt><trkpt lat="44.63595653485853" lon="8.693383419446201"><ele>212.0</ele><time>2026-03-29T11:56:48.002Z</time></trkpt><trkpt lat="44.6361058945147" lon="8.693376614102231"><ele>211.75</ele><time>2026-03-29T11:56:49.002Z</time></trkpt><trkpt lat="44.636234049351344" lon="8.69340273356523"><ele>211.5</ele><time>2026-03-29T11:56:50.002Z</time></trkpt><trkpt lat="44.6363570531374" lon="8.693413424379004"><ele>211.25</ele><time>2026-03-29T11:56:51.002Z</time></trkpt><trkpt lat="44.63646535972549" lon="8.69343412481214"><ele>211.0</ele><time>2026-03-29T11:56:52.002Z</time></trkpt><trkpt lat="44.63656234900719" lon="8.693439704871745"><ele>210.99999999999997</ele><time>2026-03-29T11:56:53.002Z</time></trkpt><trkpt lat="44.63664545762687" lon="8.693421768030317"><ele>211.0</ele><time>2026-03-29T11:56:54.002Z</time></trkpt><trkpt lat="44.63672402026626" lon="8.693429638943634"><ele>211.0</ele><time>2026-03-29T11:56:55.002Z</time></trkpt><trkpt lat="44.63678666271475" lon="8.693311056956505"><ele>211.0</ele><time>2026-03-29T11:56:56.002Z</time></trkpt><trkpt lat="44.63682472675255" lon="8.693222706334684"><ele>210.99999999999997</ele><time>2026-03-29T11:56:57.002Z</time></trkpt><trkpt lat="44.636848356138" lon="8.693116108727233"><ele>211.0</ele><time>2026-03-29T11:56:58.002Z</time></trkpt><trkpt lat="44.63684941716432" lon="8.692996174183518"><ele>211.0</ele><time>2026-03-29T11:56:59.002Z</time></trkpt><trkpt lat="44.636834858704454" lon="8.692869567193389"><ele>211.0</ele><time>2026-03-29T11:57:00.002Z</time></trkpt><trkpt lat="44.636784797996526" lon="8.692730267407292"><ele>211.0</ele><time>2026-03-29T11:57:00.999Z</time></trkpt><trkpt lat="44.63672244583422" lon="8.69258578713651"><ele>211.0</ele><time>2026-03-29T11:57:01.999Z</time></trkpt><trkpt lat="44.6366531156918" lon="8.692411710969761"><ele>212.33333333333331</ele><time>2026-03-29T11:57:02.999Z</time></trkpt><trkpt lat="44.63658010443856" lon="8.69221520646175"><ele>213.66666666666669</ele><time>2026-03-29T11:57:03.999Z</time></trkpt><trkpt lat="44.63649878276863" lon="8.69200561750921"><ele>215.0</ele><time>2026-03-29T11:57:04.999Z</time></trkpt><trkpt lat="44.63642037471354" lon="8.691791054809578"><ele>215.5</ele><time>2026-03-29T11:57:05.999Z</time></trkpt><trkpt lat="44.6363496048682" lon="8.691588549507264"><ele>216.0</ele><time>2026-03-29T11:57:06.999Z</time></trkpt><trkpt lat="44.63629313850327" lon="8.691418966425196"><ele>216.5</ele><time>2026-03-29T11:57:07.999Z</time></trkpt><trkpt lat="44.63625274220274" lon="8.691295460367236"><ele>217.0</ele><time>2026-03-29T11:57:08.999Z</time></trkpt><trkpt lat="44.63621415793379" lon="8.691221634369388"><ele>216.99999999999997</ele><time>2026-03-29T11:57:09.999Z</time></trkpt><trkpt lat="44.63615229029934" lon="8.691188404674817"><ele>217.0</ele><time>2026-03-29T11:57:10.999Z</time></trkpt><trkpt lat="44.63607775572194" lon="8.691200223094308"><ele>217.0</ele><time>2026-03-29T11:57:11.999Z</time></trkpt><trkpt lat="44.63600294723527" lon="8.691261472146971"><ele>217.0</ele><time>2026-03-29T11:57:12.999Z</time></trkpt><trkpt lat="44.63594274652582" lon="8.691373870879932"><ele>216.99999999999997</ele><time>2026-03-29T11:57:13.999Z</time></trkpt><trkpt lat="44.63588702961737" lon="8.691512268682821"><ele>217.0</ele><time>2026-03-29T11:57:14.999Z</time></trkpt><trkpt lat="44.63580689878128" lon="8.691653126373431"><ele>216.99999999999997</ele><time>2026-03-29T11:57:15.999Z</time></trkpt><trkpt lat="44.63574085284976" lon="8.691777560325411"><ele>217.0</ele><time>2026-03-29T11:57:16.999Z</time></trkpt><trkpt lat="44.635677784404955" lon="8.691884668018606"><ele>217.0</ele><time>2026-03-29T11:57:17.999Z</time></trkpt><trkpt lat="44.63561938388241" lon="8.691964084133259"><ele>217.0</ele><time>2026-03-29T11:57:18.999Z</time></trkpt><trkpt lat="44.635550128368834" lon="8.69201280566567"><ele>216.99999999999997</ele><time>2026-03-29T11:57:19.999Z</time></trkpt><trkpt lat="44.63548036802461" lon="8.6919952716242"><ele>217.0</ele><time>2026-03-29T11:57:20.999Z</time></trkpt><trkpt lat="44.635419192426056" lon="8.691924874915989"><ele>218.5</ele><time>2026-03-29T11:57:22Z</time></trkpt><trkpt lat="44.63536692700287" lon="8.691811469117406"><ele>220.0</ele><time>2026-03-29T11:57:23Z</time></trkpt><trkpt lat="44.63531495346543" lon="8.691674780100458"><ele>221.5</ele><time>2026-03-29T11:57:24Z</time></trkpt><trkpt lat="44.63525202697045" lon="8.691523645904836"><ele>223.0</ele><time>2026-03-29T11:57:25Z</time></trkpt><trkpt lat="44.6351803707008" lon="8.691356468847395"><ele>223.0</ele><time>2026-03-29T11:57:26Z</time></trkpt><trkpt lat="44.635110710458385" lon="8.691188636454163"><ele>223.0</ele><time>2026-03-29T11:57:27Z</time></trkpt><trkpt lat="44.635041527556005" lon="8.691022356183014"><ele>223.0</ele><time>2026-03-29T11:57:28Z</time></trkpt><trkpt lat="44.634978645759546" lon="8.69086788597767"><ele>223.0</ele><time>2026-03-29T11:57:29Z</time></trkpt><trkpt lat="44.634916335820776" lon="8.690714442157837"><ele>225.0</ele><time>2026-03-29T11:57:30Z</time></trkpt><trkpt lat="44.63486314096787" lon="8.69055442934685"><ele>227.0</ele><time>2026-03-29T11:57:31Z</time></trkpt><trkpt lat="44.63482244598784" lon="8.690367604867223"><ele>229.0</ele><time>2026-03-29T11:57:32Z</time></trkpt><trkpt lat="44.63478569400411" lon="8.690173111238689"><ele>231.0</ele><time>2026-03-29T11:57:33Z</time></trkpt><trkpt lat="44.6347477686296" lon="8.68998374529368"><ele>233.0</ele><time>2026-03-29T11:57:34Z</time></trkpt><trkpt lat="44.63471006932932" lon="8.689807954948098"><ele>235.0</ele><time>2026-03-29T11:57:35Z</time></trkpt><trkpt lat="44.634683992406565" lon="8.689637658464056"><ele>237.0</ele><time>2026-03-29T11:57:36Z</time></trkpt><trkpt lat="44.63465363161877" lon="8.689476157099419"><ele>239.0</ele><time>2026-03-29T11:57:37Z</time></trkpt><trkpt lat="44.63462353761694" lon="8.689308889116791"><ele>239.75</ele><time>2026-03-29T11:57:38Z</time></trkpt><trkpt lat="44.63459471255005" lon="8.689132346446982"><ele>240.5</ele><time>2026-03-29T11:57:39Z</time></trkpt><trkpt lat="44.63457127199319" lon="8.68893704405641"><ele>241.25</ele><time>2026-03-29T11:57:40Z</time></trkpt><trkpt lat="44.63455857920322" lon="8.688726503469608"><ele>242.0</ele><time>2026-03-29T11:57:41Z</time></trkpt><trkpt lat="44.63455045750908" lon="8.688503204547322"><ele>242.0</ele><time>2026-03-29T11:57:42Z</time></trkpt><trkpt lat="44.63455025101598" lon="8.688284644175067"><ele>242.0</ele><time>2026-03-29T11:57:43Z</time></trkpt><trkpt lat="44.634543520730254" lon="8.688065571708375"><ele>242.0</ele><time>2026-03-29T11:57:44Z</time></trkpt><trkpt lat="44.63453616014212" lon="8.687839284118597"><ele>242.66666666666669</ele><time>2026-03-29T11:57:45Z</time></trkpt><trkpt lat="44.63452447130929" lon="8.687604502960884"><ele>243.33333333333331</ele><time>2026-03-29T11:57:46Z</time></trkpt><trkpt lat="44.63451827846129" lon="8.687373242000072"><ele>244.0</ele><time>2026-03-29T11:57:47Z</time></trkpt><trkpt lat="44.63451499909341" lon="8.687156530355386"><ele>244.0</ele><time>2026-03-29T11:57:48Z</time></trkpt><trkpt lat="44.634507049785334" lon="8.686959936975375"><ele>244.0</ele><time>2026-03-29T11:57:49Z</time></trkpt><trkpt lat="44.634486236311346" lon="8.686771753003542"><ele>244.0</ele><time>2026-03-29T11:57:50Z</time></trkpt><trkpt lat="44.63445760653401" lon="8.686600017661092"><ele>244.0</ele><time>2026-03-29T11:57:51Z</time></trkpt><trkpt lat="44.63442838023533" lon="8.686432161946657"><ele>245.0</ele><time>2026-03-29T11:57:52Z</time></trkpt><trkpt lat="44.634402161421725" lon="8.68627880050101"><ele>246.0</ele><time>2026-03-29T11:57:53Z</time></trkpt><trkpt lat="44.63437758135345" lon="8.686116364340137"><ele>247.0</ele><time>2026-03-29T11:57:54Z</time></trkpt><trkpt lat="44.634354879881236" lon="8.685941575243474"><ele>248.0</ele><time>2026-03-29T11:57:55.001Z</time></trkpt><trkpt lat="44.63431410787826" lon="8.685751903977629"><ele>248.0</ele><time>2026-03-29T11:57:56.001Z</time></trkpt><trkpt lat="44.634280918611104" lon="8.685553663464406"><ele>248.0</ele><time>2026-03-29T11:57:57.001Z</time></trkpt><trkpt lat="44.63426623116771" lon="8.68533013371715"><ele>248.0</ele><time>2026-03-29T11:57:58.001Z</time></trkpt><trkpt lat="44.634257030397514" lon="8.685096041421636"><ele>247.33333333333334</ele><time>2026-03-29T11:57:59.001Z</time></trkpt><trkpt lat="44.634248564512404" lon="8.684856225753075"><ele>246.66666666666669</ele><time>2026-03-29T11:58:00.001Z</time></trkpt><trkpt lat="44.634246243492676" lon="8.68460988332608"><ele>246.0</ele><time>2026-03-29T11:58:01.001Z</time></trkpt><trkpt lat="44.634247008960344" lon="8.684383189761581"><ele>245.25</ele><time>2026-03-29T11:58:02.001Z</time></trkpt><trkpt lat="44.63424729868755" lon="8.684167949817972"><ele>244.5</ele><time>2026-03-29T11:58:03.001Z</time></trkpt><trkpt lat="44.63424303368091" lon="8.6839685396122"><ele>243.75</ele><time>2026-03-29T11:58:04.001Z</time></trkpt><trkpt lat="44.63422745841668" lon="8.683782149288572"><ele>243.0</ele><time>2026-03-29T11:58:05.001Z</time></trkpt><trkpt lat="44.634187556835876" lon="8.683607261775103"><ele>242.0</ele><time>2026-03-29T11:58:06.001Z</time></trkpt><trkpt lat="44.63412983705995" lon="8.683421915150605"><ele>241.0</ele><time>2026-03-29T11:58:07.001Z</time></trkpt><trkpt lat="44.63404738004147" lon="8.683230783937708"><ele>240.0</ele><time>2026-03-29T11:58:08.001Z</time></trkpt><trkpt lat="44.63394617724415" lon="8.683040957281978"><ele>240.0</ele><time>2026-03-29T11:58:09.001Z</time></trkpt><trkpt lat="44.6338318879573" lon="8.682837395471001"><ele>240.0</ele><time>2026-03-29T11:58:10.001Z</time></trkpt><trkpt lat="44.633717302126534" lon="8.682627116402912"><ele>240.0</ele><time>2026-03-29T11:58:11.001Z</time></trkpt><trkpt lat="44.633615568091074" lon="8.682454876543552"><ele>240.5</ele><time>2026-03-29T11:58:12.001Z</time></trkpt><trkpt lat="44.63351591039666" lon="8.682291084314597"><ele>241.0</ele><time>2026-03-29T11:58:13.001Z</time></trkpt><trkpt lat="44.633426624584885" lon="8.682140285231313"><ele>241.5</ele><time>2026-03-29T11:58:14.001Z</time></trkpt><trkpt lat="44.63334970543588" lon="8.682002006606012"><ele>242.0</ele><time>2026-03-29T11:58:15.001Z</time></trkpt><trkpt lat="44.63327720604139" lon="8.681867379138245"><ele>242.0</ele><time>2026-03-29T11:58:16.001Z</time></trkpt><trkpt lat="44.63323510426879" lon="8.681744026231343"><ele>242.0</ele><time>2026-03-29T11:58:17.001Z</time></trkpt><trkpt lat="44.63323908347639" lon="8.681630795854401"><ele>242.0</ele><time>2026-03-29T11:58:18.001Z</time></trkpt><trkpt lat="44.63327628608495" lon="8.681512494316793"><ele>242.0</ele><time>2026-03-29T11:58:19.001Z</time></trkpt><trkpt lat="44.63333974374857" lon="8.681394734885933"><ele>242.0</ele><time>2026-03-29T11:58:20.001Z</time></trkpt><trkpt lat="44.63341139713799" lon="8.681258662205291"><ele>242.0</ele><time>2026-03-29T11:58:21.001Z</time></trkpt><trkpt lat="44.633476375415256" lon="8.681096256700732"><ele>242.0</ele><time>2026-03-29T11:58:22.001Z</time></trkpt><trkpt lat="44.633543089435285" lon="8.680911767705572"><ele>242.0</ele><time>2026-03-29T11:58:23.001Z</time></trkpt><trkpt lat="44.63361248701728" lon="8.680714784500843"><ele>242.0</ele><time>2026-03-29T11:58:24.001Z</time></trkpt><trkpt lat="44.63367941924256" lon="8.680517496755224"><ele>242.0</ele><time>2026-03-29T11:58:25.001Z</time></trkpt><trkpt lat="44.633758577468065" lon="8.680327021462679"><ele>242.0</ele><time>2026-03-29T11:58:26.001Z</time></trkpt><trkpt lat="44.63384904547481" lon="8.680164915338482"><ele>242.0</ele><time>2026-03-29T11:58:27.001Z</time></trkpt><trkpt lat="44.633940835404296" lon="8.680023061562324"><ele>242.0</ele><time>2026-03-29T11:58:28.001Z</time></trkpt><trkpt lat="44.63402371036316" lon="8.679901473737926"><ele>243.0</ele><time>2026-03-29T11:58:29.001Z</time></trkpt><trkpt lat="44.634099917306386" lon="8.679798264551552"><ele>244.0</ele><time>2026-03-29T11:58:30.001Z</time></trkpt><trkpt lat="44.63418125421391" lon="8.679719288188444"><ele>245.0</ele><time>2026-03-29T11:58:31.001Z</time></trkpt><trkpt lat="44.63426698649978" lon="8.679674620282885"><ele>246.0</ele><time>2026-03-29T11:58:32.001Z</time></trkpt><trkpt lat="44.634353747322756" lon="8.679672011255093"><ele>247.0</ele><time>2026-03-29T11:58:33.001Z</time></trkpt><trkpt lat="44.63443401068653" lon="8.679756429411972"><ele>249.0</ele><time>2026-03-29T11:58:34.001Z</time></trkpt><trkpt lat="44.634514344167215" lon="8.679845945065722"><ele>251.0</ele><time>2026-03-29T11:58:35.001Z</time></trkpt><trkpt lat="44.63461188212253" lon="8.679910487923156"><ele>253.0</ele><time>2026-03-29T11:58:36.001Z</time></trkpt><trkpt lat="44.63470059408338" lon="8.679952818822276"><ele>255.0</ele><time>2026-03-29T11:58:37.002Z</time></trkpt><trkpt lat="44.634792200592194" lon="8.679934785415279"><ele>257.0</ele><time>2026-03-29T11:58:38.002Z</time></trkpt><trkpt lat="44.63486821690272" lon="8.67986064867651"><ele>257.0</ele><time>2026-03-29T11:58:39.002Z</time></trkpt><trkpt lat="44.63491898908782" lon="8.679744730528656"><ele>257.0</ele><time>2026-03-29T11:58:40.002Z</time></trkpt><trkpt lat="44.6349310032767" lon="8.679611616612661"><ele>257.0</ele><time>2026-03-29T11:58:41.002Z</time></trkpt><trkpt lat="44.63493305139449" lon="8.679462198269189"><ele>257.0</ele><time>2026-03-29T11:58:42.002Z</time></trkpt><trkpt lat="44.63494225621718" lon="8.679290600411184"><ele>257.0</ele><time>2026-03-29T11:58:43.002Z</time></trkpt><trkpt lat="44.63496239282294" lon="8.67910956538953"><ele>257.25</ele><time>2026-03-29T11:58:44.002Z</time></trkpt><trkpt lat="44.6349823205365" lon="8.678929907620363"><ele>257.5</ele><time>2026-03-29T11:58:45.002Z</time></trkpt><trkpt lat="44.63500402867938" lon="8.678745414096255"><ele>257.75</ele><time>2026-03-29T11:58:46.002Z</time></trkpt><trkpt lat="44.635022101809795" lon="8.678587649873272"><ele>258.0</ele><time>2026-03-29T11:58:47.002Z</time></trkpt><trkpt lat="44.63502633540602" lon="8.678467683931421"><ele>259.6</ele><time>2026-03-29T11:58:48.002Z</time></trkpt><trkpt lat="44.63501188059425" lon="8.678372725749757"><ele>261.20000000000005</ele><time>2026-03-29T11:58:49.002Z</time></trkpt><trkpt lat="44.634966323354085" lon="8.67829607185983"><ele>262.8</ele><time>2026-03-29T11:58:50.002Z</time></trkpt><trkpt lat="44.63488453488191" lon="8.678221975823085"><ele>264.40000000000003</ele><time>2026-03-29T11:58:51.002Z</time></trkpt><trkpt lat="44.6347773034018" lon="8.678197514083486"><ele>266.0</ele><time>2026-03-29T11:58:52.002Z</time></trkpt><trkpt lat="44.6346639257073" lon="8.67822288664432"><ele>266.0</ele><time>2026-03-29T11:58:53.002Z</time></trkpt><trkpt lat="44.63455663114815" lon="8.678314480178694"><ele>266.0</ele><time>2026-03-29T11:58:54.002Z</time></trkpt><trkpt lat="44.634457232114976" lon="8.678433279040206"><ele>266.0</ele><time>2026-03-29T11:58:55.002Z</time></trkpt><trkpt lat="44.634355016415725" lon="8.678504262113805"><ele>266.0</ele><time>2026-03-29T11:58:56.002Z</time></trkpt><trkpt lat="44.63427597691021" lon="8.678579780430235"><ele>266.0</ele><time>2026-03-29T11:58:57.002Z</time></trkpt><trkpt lat="44.634194599601244" lon="8.678574688797214"><ele>266.0</ele><time>2026-03-29T11:58:58.002Z</time></trkpt><trkpt lat="44.63412171529073" lon="8.678517967177122"><ele>266.0</ele><time>2026-03-29T11:58:59.002Z</time></trkpt><trkpt lat="44.6340489749634" lon="8.678417595078773"><ele>266.0</ele><time>2026-03-29T11:59:00.002Z</time></trkpt><trkpt lat="44.63397883385895" lon="8.678292440753687"><ele>266.0</ele><time>2026-03-29T11:59:01.002Z</time></trkpt><trkpt lat="44.633903430143995" lon="8.67814595494354"><ele>266.0</ele><time>2026-03-29T11:59:02.002Z</time></trkpt><trkpt lat="44.63381370784593" lon="8.67799967119213"><ele>266.0</ele><time>2026-03-29T11:59:03.002Z</time></trkpt><trkpt lat="44.63371536198579" lon="8.6778457607274"><ele>266.0</ele><time>2026-03-29T11:59:04.002Z</time></trkpt><trkpt lat="44.63362021831442" lon="8.677687409847504"><ele>266.0</ele><time>2026-03-29T11:59:05.002Z</time></trkpt><trkpt lat="44.63352994908515" lon="8.677539467819908"><ele>267.0</ele><time>2026-03-29T11:59:06.002Z</time></trkpt><trkpt lat="44.63344798738255" lon="8.677388050225975"><ele>268.0</ele><time>2026-03-29T11:59:06.999Z</time></trkpt><trkpt lat="44.63338058598062" lon="8.67723397877373"><ele>269.0</ele><time>2026-03-29T11:59:07.999Z</time></trkpt><trkpt lat="44.63333183267754" lon="8.677045879522641"><ele>270.0</ele><time>2026-03-29T11:59:08.999Z</time></trkpt><trkpt lat="44.63328818550463" lon="8.676826801633345"><ele>273.6666666666667</ele><time>2026-03-29T11:59:09.999Z</time></trkpt><trkpt lat="44.63323880440206" lon="8.676601993114991"><ele>277.33333333333337</ele><time>2026-03-29T11:59:10.999Z</time></trkpt><trkpt lat="44.63318701963086" lon="8.676387668134765"><ele>281.0</ele><time>2026-03-29T11:59:11.999Z</time></trkpt><trkpt lat="44.63314674342998" lon="8.676205407516402"><ele>283.0</ele><time>2026-03-29T11:59:12.999Z</time></trkpt><trkpt lat="44.63310523057083" lon="8.676040572802547"><ele>285.0</ele><time>2026-03-29T11:59:13.999Z</time></trkpt><trkpt lat="44.63307357641172" lon="8.675878995246853"><ele>287.0</ele><time>2026-03-29T11:59:14.999Z</time></trkpt><trkpt lat="44.633056256048924" lon="8.675717334350516"><ele>289.0</ele><time>2026-03-29T11:59:15.999Z</time></trkpt><trkpt lat="44.63304957798139" lon="8.675576564369154"><ele>289.0</ele><time>2026-03-29T11:59:16.999Z</time></trkpt><trkpt lat="44.63304310365235" lon="8.675444542047586"><ele>289.0</ele><time>2026-03-29T11:59:17.999Z</time></trkpt><trkpt lat="44.633046381986134" lon="8.675321908425968"><ele>289.0</ele><time>2026-03-29T11:59:18.999Z</time></trkpt><trkpt lat="44.63305898869039" lon="8.67521094440209"><ele>289.0</ele><time>2026-03-29T11:59:19.999Z</time></trkpt><trkpt lat="44.633047642321955" lon="8.675113296815598"><ele>289.0</ele><time>2026-03-29T11:59:20.999Z</time></trkpt><trkpt lat="44.632974550392746" lon="8.675041349083228"><ele>289.0</ele><time>2026-03-29T11:59:22.999Z</time></trkpt><trkpt lat="44.63286021419308" lon="8.67501643597709"><ele>287.59999999999997</ele><time>2026-03-29T11:59:25Z</time></trkpt><trkpt lat="44.63277597309872" lon="8.6750292881207"><ele>286.2</ele><time>2026-03-29T11:59:26Z</time></trkpt><trkpt lat="44.63269050838498" lon="8.67503750487562"><ele>284.79999999999995</ele><time>2026-03-29T11:59:27Z</time></trkpt><trkpt lat="44.63260775379552" lon="8.675043768181508"><ele>283.4</ele><time>2026-03-29T11:59:28Z</time></trkpt><trkpt lat="44.63251505183412" lon="8.675061497414823"><ele>282.0</ele><time>2026-03-29T11:59:29Z</time></trkpt><trkpt lat="44.63240294659774" lon="8.675081313259653"><ele>282.0</ele><time>2026-03-29T11:59:30Z</time></trkpt><trkpt lat="44.63227974128899" lon="8.675092225212797"><ele>282.0</ele><time>2026-03-29T11:59:31Z</time></trkpt><trkpt lat="44.632150899723314" lon="8.67509866366833"><ele>282.0</ele><time>2026-03-29T11:59:32Z</time></trkpt><trkpt lat="44.63202434373381" lon="8.675106872155125"><ele>282.0</ele><time>2026-03-29T11:59:33Z</time></trkpt><trkpt lat="44.63190055372254" lon="8.675116549754796"><ele>281.0</ele><time>2026-03-29T11:59:34Z</time></trkpt><trkpt lat="44.631776016186706" lon="8.675128997276744"><ele>280.0</ele><time>2026-03-29T11:59:35Z</time></trkpt><trkpt lat="44.63164979279166" lon="8.67514063036995"><ele>279.0</ele><time>2026-03-29T11:59:36Z</time></trkpt><trkpt lat="44.631529740143584" lon="8.675141739266017"><ele>278.0</ele><time>2026-03-29T11:59:37Z</time></trkpt><trkpt lat="44.63141597574812" lon="8.675141876631663"><ele>278.0</ele><time>2026-03-29T11:59:38Z</time></trkpt><trkpt lat="44.63130233530662" lon="8.675145792873462"><ele>278.0</ele><time>2026-03-29T11:59:39Z</time></trkpt><trkpt lat="44.631188148383146" lon="8.675154125472146"><ele>278.0</ele><time>2026-03-29T11:59:40Z</time></trkpt><trkpt lat="44.63106686357996" lon="8.675164531096607"><ele>278.0</ele><time>2026-03-29T11:59:41Z</time></trkpt><trkpt lat="44.630948115557445" lon="8.675172147985773"><ele>277.8</ele><time>2026-03-29T11:59:42Z</time></trkpt><trkpt lat="44.63084232894831" lon="8.675180731257797"><ele>277.6</ele><time>2026-03-29T11:59:43Z</time></trkpt><trkpt lat="44.63075465786583" lon="8.67519483814213"><ele>277.4</ele><time>2026-03-29T11:59:44Z</time></trkpt><trkpt lat="44.630667327656006" lon="8.675237047264746"><ele>277.2</ele><time>2026-03-29T11:59:45Z</time></trkpt><trkpt lat="44.630587400192724" lon="8.675323366396729"><ele>277.0</ele><time>2026-03-29T11:59:46Z</time></trkpt><trkpt lat="44.630525274321755" lon="8.675436509398539"><ele>277.0</ele><time>2026-03-29T11:59:47Z</time></trkpt><trkpt lat="44.63048573078814" lon="8.675570057186917"><ele>277.0</ele><time>2026-03-29T11:59:48Z</time></trkpt><trkpt lat="44.630449733881186" lon="8.675721309146194"><ele>277.0</ele><time>2026-03-29T11:59:49Z</time></trkpt><trkpt lat="44.630399510520085" lon="8.675862865900633"><ele>277.0</ele><time>2026-03-29T11:59:50Z</time></trkpt><trkpt lat="44.63033388498107" lon="8.675981019050568"><ele>277.0</ele><time>2026-03-29T11:59:51Z</time></trkpt><trkpt lat="44.63025302433935" lon="8.676069677322896"><ele>276.5</ele><time>2026-03-29T11:59:52Z</time></trkpt><trkpt lat="44.6301387008861" lon="8.67613138027502"><ele>276.0</ele><time>2026-03-29T11:59:53Z</time></trkpt><trkpt lat="44.630023247720246" lon="8.676180002911423"><ele>275.5</ele><time>2026-03-29T11:59:54Z</time></trkpt><trkpt lat="44.629913751776705" lon="8.676211306678804"><ele>275.0</ele><time>2026-03-29T11:59:55Z</time></trkpt><trkpt lat="44.62979227598711" lon="8.6762178553645"><ele>275.0</ele><time>2026-03-29T11:59:56.001Z</time></trkpt><trkpt lat="44.629668412385286" lon="8.676195866396075"><ele>275.0</ele><time>2026-03-29T11:59:57.001Z</time></trkpt><trkpt lat="44.62954814390673" lon="8.676154062682105"><ele>275.0</ele><time>2026-03-29T11:59:58.001Z</time></trkpt><trkpt lat="44.629427377291094" lon="8.676113961739826"><ele>275.0</ele><time>2026-03-29T11:59:59.001Z</time></trkpt><trkpt lat="44.629307082502216" lon="8.67608589442104"><ele>275.5</ele><time>2026-03-29T12:00:00.001Z</time></trkpt><trkpt lat="44.629192856961275" lon="8.676048928590516"><ele>276.0</ele><time>2026-03-29T12:00:01.001Z</time></trkpt><trkpt lat="44.629073948930994" lon="8.67601426228246"><ele>276.5</ele><time>2026-03-29T12:00:02.001Z</time></trkpt><trkpt lat="44.62894116520664" lon="8.675979904425196"><ele>277.0</ele><time>2026-03-29T12:00:03.001Z</time></trkpt><trkpt lat="44.6288002553936" lon="8.67593309464065"><ele>277.0</ele><time>2026-03-29T12:00:04.001Z</time></trkpt><trkpt lat="44.628644317698495" lon="8.675887347646793"><ele>277.0</ele><time>2026-03-29T12:00:05.001Z</time></trkpt><trkpt lat="44.62850039984226" lon="8.675832809535653"><ele>277.0</ele><time>2026-03-29T12:00:06.001Z</time></trkpt><trkpt lat="44.6283719107997" lon="8.675767941471351"><ele>277.0</ele><time>2026-03-29T12:00:07.001Z</time></trkpt><trkpt lat="44.62825644875423" lon="8.675686653633807"><ele>278.75</ele><time>2026-03-29T12:00:08.001Z</time></trkpt><trkpt lat="44.62815293196033" lon="8.675581122997396"><ele>280.5</ele><time>2026-03-29T12:00:09.001Z</time></trkpt><trkpt lat="44.62805537240801" lon="8.675478954641678"><ele>282.25</ele><time>2026-03-29T12:00:10.001Z</time></trkpt><trkpt lat="44.6279420700331" lon="8.67543113236156"><ele>284.0</ele><time>2026-03-29T12:00:11.001Z</time></trkpt><trkpt lat="44.62781444847997" lon="8.675444732925243"><ele>284.0</ele><time>2026-03-29T12:00:12.001Z</time></trkpt><trkpt lat="44.627695236456596" lon="8.675465035999913"><ele>284.0</ele><time>2026-03-29T12:00:13.001Z</time></trkpt><trkpt lat="44.62758778510556" lon="8.675427843540794"><ele>284.0</ele><time>2026-03-29T12:00:14.001Z</time></trkpt><trkpt lat="44.62749985475365" lon="8.675322994845695"><ele>284.0</ele><time>2026-03-29T12:00:15.001Z</time></trkpt><trkpt lat="44.6274157157852" lon="8.675186331335468"><ele>284.0</ele><time>2026-03-29T12:00:16.001Z</time></trkpt><trkpt lat="44.6273326970556" lon="8.675033907202614"><ele>284.0</ele><time>2026-03-29T12:00:17.001Z</time></trkpt><trkpt lat="44.62725066941947" lon="8.674872320613787"><ele>284.0</ele><time>2026-03-29T12:00:18.001Z</time></trkpt><trkpt lat="44.627171912939225" lon="8.674706693040173"><ele>284.0</ele><time>2026-03-29T12:00:19.001Z</time></trkpt><trkpt lat="44.627090790882924" lon="8.674543973141136"><ele>282.25</ele><time>2026-03-29T12:00:20.001Z</time></trkpt><trkpt lat="44.62701408314885" lon="8.674406577742399"><ele>280.5</ele><time>2026-03-29T12:00:21.001Z</time></trkpt><trkpt lat="44.62693000523145" lon="8.674290101773067"><ele>278.75</ele><time>2026-03-29T12:00:22.001Z</time></trkpt><trkpt lat="44.62682026197071" lon="8.674215344639334"><ele>277.0</ele><time>2026-03-29T12:00:23.001Z</time></trkpt><trkpt lat="44.62669458034436" lon="8.67418534897447"><ele>280.5</ele><time>2026-03-29T12:00:24.001Z</time></trkpt><trkpt lat="44.62655411439879" lon="8.67417332743932"><ele>284.0</ele><time>2026-03-29T12:00:25.001Z</time></trkpt><trkpt lat="44.62643349290242" lon="8.67416242915651"><ele>287.5</ele><time>2026-03-29T12:00:26.001Z</time></trkpt><trkpt lat="44.6263321391327" lon="8.674108216673073"><ele>291.0</ele><time>2026-03-29T12:00:27.001Z</time></trkpt><trkpt lat="44.62624377001682" lon="8.674005722063088"><ele>291.0</ele><time>2026-03-29T12:00:28.001Z</time></trkpt><trkpt lat="44.62618823211515" lon="8.673823166359282"><ele>291.0</ele><time>2026-03-29T12:00:29.001Z</time></trkpt><trkpt lat="44.62614149508919" lon="8.673637776869729"><ele>291.0</ele><time>2026-03-29T12:00:30.001Z</time></trkpt><trkpt lat="44.62609710686593" lon="8.673429339280396"><ele>291.0</ele><time>2026-03-29T12:00:31.001Z</time></trkpt><trkpt lat="44.62604456346144" lon="8.67321456901459"><ele>289.0</ele><time>2026-03-29T12:00:32.001Z</time></trkpt><trkpt lat="44.62600087142344" lon="8.67299005291304"><ele>287.0</ele><time>2026-03-29T12:00:33.001Z</time></trkpt><trkpt lat="44.62598695409294" lon="8.672762409959493"><ele>285.0</ele><time>2026-03-29T12:00:34.002Z</time></trkpt><trkpt lat="44.62599128902818" lon="8.67253383105843"><ele>284.25</ele><time>2026-03-29T12:00:35.002Z</time></trkpt><trkpt lat="44.626004361381426" lon="8.672322519789999"><ele>283.5</ele><time>2026-03-29T12:00:36.002Z</time></trkpt><trkpt lat="44.62602469096163" lon="8.672119919709635"><ele>282.75</ele><time>2026-03-29T12:00:37.002Z</time></trkpt><trkpt lat="44.62606018401336" lon="8.671927671919411"><ele>282.0</ele><time>2026-03-29T12:00:38.002Z</time></trkpt><trkpt lat="44.62608679703155" lon="8.671752891066502"><ele>282.0</ele><time>2026-03-29T12:00:39.002Z</time></trkpt><trkpt lat="44.626085620147705" lon="8.671592768540345"><ele>282.0</ele><time>2026-03-29T12:00:40.002Z</time></trkpt><trkpt lat="44.62605535998695" lon="8.671444195582223"><ele>282.0</ele><time>2026-03-29T12:00:41.002Z</time></trkpt><trkpt lat="44.62597981001953" lon="8.671302397390484"><ele>282.0</ele><time>2026-03-29T12:00:42.002Z</time></trkpt><trkpt lat="44.62587176784707" lon="8.671171001612157"><ele>281.0</ele><time>2026-03-29T12:00:43.002Z</time></trkpt><trkpt lat="44.62574728595884" lon="8.67104094301564"><ele>280.0</ele><time>2026-03-29T12:00:44.002Z</time></trkpt><trkpt lat="44.62562883281985" lon="8.670908233147419"><ele>279.0</ele><time>2026-03-29T12:00:45.002Z</time></trkpt><trkpt lat="44.62553045735151" lon="8.67077596794493"><ele>278.0</ele><time>2026-03-29T12:00:46.002Z</time></trkpt><trkpt lat="44.62544602383415" lon="8.670616998842187"><ele>278.0</ele><time>2026-03-29T12:00:47.002Z</time></trkpt><trkpt lat="44.62539262414291" lon="8.67041352382033"><ele>278.0</ele><time>2026-03-29T12:00:48.002Z</time></trkpt><trkpt lat="44.62533337634406" lon="8.67017954558265"><ele>278.0</ele><time>2026-03-29T12:00:49.002Z</time></trkpt><trkpt lat="44.62527153044138" lon="8.669919603943654"><ele>275.0</ele><time>2026-03-29T12:00:50.002Z</time></trkpt><trkpt lat="44.625203774638" lon="8.669688533495428"><ele>272.0</ele><time>2026-03-29T12:00:51.002Z</time></trkpt><trkpt lat="44.6251564622407" lon="8.669461112450378"><ele>269.0</ele><time>2026-03-29T12:00:52.002Z</time></trkpt><trkpt lat="44.6251000567369" lon="8.66923018789689"><ele>269.0</ele><time>2026-03-29T12:00:53.002Z</time></trkpt><trkpt lat="44.62504269749679" lon="8.668996878234932"><ele>269.0</ele><time>2026-03-29T12:00:54.002Z</time></trkpt><trkpt lat="44.62498289149048" lon="8.668768075948138"><ele>269.0</ele><time>2026-03-29T12:00:55.002Z</time></trkpt><trkpt lat="44.62493098931967" lon="8.668540366089948"><ele>269.6666666666667</ele><time>2026-03-29T12:00:56.002Z</time></trkpt><trkpt lat="44.624880993776785" lon="8.66830989785221"><ele>270.3333333333333</ele><time>2026-03-29T12:00:57.002Z</time></trkpt><trkpt lat="44.62482662770431" lon="8.668076882792597"><ele>271.0</ele><time>2026-03-29T12:00:58.002Z</time></trkpt><trkpt lat="44.624767823614896" lon="8.667844551069063"><ele>270.66666666666663</ele><time>2026-03-29T12:00:59.002Z</time></trkpt><trkpt lat="44.6247098002943" lon="8.6676169583959"><ele>270.3333333333333</ele><time>2026-03-29T12:01:00.002Z</time></trkpt><trkpt lat="44.62465807244859" lon="8.66739806020626"><ele>270.0</ele><time>2026-03-29T12:01:01.002Z</time></trkpt><trkpt lat="44.62461348897087" lon="8.667197561695868"><ele>270.0</ele><time>2026-03-29T12:01:02.002Z</time></trkpt><trkpt lat="44.62456618474438" lon="8.667004372730096"><ele>270.0</ele><time>2026-03-29T12:01:03.002Z</time></trkpt><trkpt lat="44.62451360737076" lon="8.666811343801111"><ele>270.0</ele><time>2026-03-29T12:01:04.002Z</time></trkpt><trkpt lat="44.62444407039711" lon="8.666638670123007"><ele>270.0</ele><time>2026-03-29T12:01:05.002Z</time></trkpt><trkpt lat="44.62435535736669" lon="8.666482612818529"><ele>272.0</ele><time>2026-03-29T12:01:06.002Z</time></trkpt><trkpt lat="44.62426156757187" lon="8.666368066483782"><ele>274.0</ele><time>2026-03-29T12:01:07.002Z</time></trkpt><trkpt lat="44.624160321736625" lon="8.666273578276238"><ele>276.0</ele><time>2026-03-29T12:01:08.002Z</time></trkpt><trkpt lat="44.624078789549515" lon="8.666205504047484"><ele>278.0</ele><time>2026-03-29T12:01:09.002Z</time></trkpt><trkpt lat="44.62401364741545" lon="8.666104037622269"><ele>280.0</ele><time>2026-03-29T12:01:10.002Z</time></trkpt><trkpt lat="44.62396927568518" lon="8.665986580358972"><ele>280.0</ele><time>2026-03-29T12:01:11.002Z</time></trkpt><trkpt lat="44.62395179966358" lon="8.665839535591864"><ele>280.0</ele><time>2026-03-29T12:01:12.002Z</time></trkpt><trkpt lat="44.62396057742436" lon="8.665657616145454"><ele>280.0</ele><time>2026-03-29T12:01:13Z</time></trkpt><trkpt lat="44.623977027683814" lon="8.665456240448819"><ele>280.0</ele><time>2026-03-29T12:01:14Z</time></trkpt><trkpt lat="44.62400323320633" lon="8.6652511476472"><ele>277.66666666666663</ele><time>2026-03-29T12:01:15Z</time></trkpt><trkpt lat="44.62402128706161" lon="8.6650287570317"><ele>275.3333333333333</ele><time>2026-03-29T12:01:16Z</time></trkpt><trkpt lat="44.624038944799004" lon="8.664790395444463"><ele>273.0</ele><time>2026-03-29T12:01:17Z</time></trkpt><trkpt lat="44.624061992213825" lon="8.664556299099289"><ele>272.6666666666667</ele><time>2026-03-29T12:01:18Z</time></trkpt><trkpt lat="44.624078606542874" lon="8.664327783056724"><ele>272.33333333333337</ele><time>2026-03-29T12:01:19Z</time></trkpt><trkpt lat="44.62409981331346" lon="8.664109467723643"><ele>272.0</ele><time>2026-03-29T12:01:20Z</time></trkpt><trkpt lat="44.62411194313437" lon="8.663892048804696"><ele>272.0</ele><time>2026-03-29T12:01:21Z</time></trkpt><trkpt lat="44.6241321278842" lon="8.66369515866334"><ele>272.0</ele><time>2026-03-29T12:01:22Z</time></trkpt><trkpt lat="44.62416322361958" lon="8.663512546627299"><ele>272.0</ele><time>2026-03-29T12:01:23Z</time></trkpt><trkpt lat="44.624221746717815" lon="8.663351674553084"><ele>272.0</ele><time>2026-03-29T12:01:24Z</time></trkpt><trkpt lat="44.62425827444595" lon="8.66319889256658"><ele>272.0</ele><time>2026-03-29T12:01:25Z</time></trkpt><trkpt lat="44.62428894993094" lon="8.663057200023403"><ele>272.0</ele><time>2026-03-29T12:01:26Z</time></trkpt><trkpt lat="44.624361944069854" lon="8.66293123170538"><ele>272.0</ele><time>2026-03-29T12:01:27Z</time></trkpt><trkpt lat="44.624424973906066" lon="8.662804399893671"><ele>272.0</ele><time>2026-03-29T12:01:28Z</time></trkpt><trkpt lat="44.624478248217876" lon="8.662691274891401"><ele>272.0</ele><time>2026-03-29T12:01:29Z</time></trkpt><trkpt lat="44.62451801773264" lon="8.662574884997449"><ele>269.33333333333337</ele><time>2026-03-29T12:01:30Z</time></trkpt><trkpt lat="44.62455289427907" lon="8.662487439859625"><ele>266.6666666666667</ele><time>2026-03-29T12:01:31Z</time></trkpt><trkpt lat="44.62458764586732" lon="8.66238938647005"><ele>264.0</ele><time>2026-03-29T12:01:32Z</time></trkpt><trkpt lat="44.62461575172878" lon="8.662267514623137"><ele>261.3333333333333</ele><time>2026-03-29T12:01:34Z</time></trkpt><trkpt lat="44.62466965159387" lon="8.662221293848559"><ele>258.66666666666663</ele><time>2026-03-29T12:01:35Z</time></trkpt><trkpt lat="44.624736028545165" lon="8.662160841898022"><ele>256.0</ele><time>2026-03-29T12:01:36Z</time></trkpt><trkpt lat="44.62480495263462" lon="8.662094205063495"><ele>256.0</ele><time>2026-03-29T12:01:37Z</time></trkpt><trkpt lat="44.62488288959648" lon="8.662039607058663"><ele>256.0</ele><time>2026-03-29T12:01:38Z</time></trkpt><trkpt lat="44.62493420742729" lon="8.661960059871772"><ele>256.0</ele><time>2026-03-29T12:01:39Z</time></trkpt><trkpt lat="44.62498979639272" lon="8.661882657893814"><ele>256.0</ele><time>2026-03-29T12:01:41Z</time></trkpt><trkpt lat="44.62486623808766" lon="8.661678988878672"><ele>256.0</ele><time>2026-03-29T12:01:43Z</time></trkpt><trkpt lat="44.6247750072015" lon="8.661632123037057"><ele>256.25</ele><time>2026-03-29T12:01:44Z</time></trkpt><trkpt lat="44.62464271690366" lon="8.661587780330702"><ele>256.5</ele><time>2026-03-29T12:01:45Z</time></trkpt><trkpt lat="44.624530073983124" lon="8.661519745953939"><ele>256.75</ele><time>2026-03-29T12:01:46Z</time></trkpt><trkpt lat="44.62441906468389" lon="8.661440736411626"><ele>257.0</ele><time>2026-03-29T12:01:47Z</time></trkpt><trkpt lat="44.62430583827703" lon="8.661361678570506"><ele>257.75</ele><time>2026-03-29T12:01:48Z</time></trkpt><trkpt lat="44.62420046006327" lon="8.661253889021587"><ele>258.5</ele><time>2026-03-29T12:01:49Z</time></trkpt><trkpt lat="44.62409990547867" lon="8.661173531820136"><ele>259.25</ele><time>2026-03-29T12:01:50.001Z</time></trkpt><trkpt lat="44.624006818344604" lon="8.661097397869534"><ele>260.0</ele><time>2026-03-29T12:01:51.001Z</time></trkpt><trkpt lat="44.62391385022987" lon="8.661035317330724"><ele>257.4</ele><time>2026-03-29T12:01:52.001Z</time></trkpt><trkpt lat="44.623854008749134" lon="8.660932142107276"><ele>254.8</ele><time>2026-03-29T12:01:53.001Z</time></trkpt><trkpt lat="44.62382413759957" lon="8.66082198733"><ele>252.2</ele><time>2026-03-29T12:01:54.001Z</time></trkpt><trkpt lat="44.623832655867254" lon="8.66070177857069"><ele>249.6</ele><time>2026-03-29T12:01:55.001Z</time></trkpt><trkpt lat="44.623877351682324" lon="8.660579665660132"><ele>247.0</ele><time>2026-03-29T12:01:56.001Z</time></trkpt><trkpt lat="44.62394864499593" lon="8.660458178940948"><ele>247.0</ele><time>2026-03-29T12:01:57.001Z</time></trkpt><trkpt lat="44.623995929596916" lon="8.660316197611285"><ele>247.0</ele><time>2026-03-29T12:01:58.001Z</time></trkpt><trkpt lat="44.62403130474575" lon="8.660147980137648"><ele>247.0</ele><time>2026-03-29T12:01:59.001Z</time></trkpt><trkpt lat="44.624065192940954" lon="8.659962286201981"><ele>247.0</ele><time>2026-03-29T12:02:00.001Z</time></trkpt><trkpt lat="44.624087040011666" lon="8.659777036505258"><ele>245.25</ele><time>2026-03-29T12:02:01.001Z</time></trkpt><trkpt lat="44.62413849606381" lon="8.659612286178467"><ele>243.5</ele><time>2026-03-29T12:02:02.001Z</time></trkpt><trkpt lat="44.62415406236079" lon="8.65944564253107"><ele>241.75</ele><time>2026-03-29T12:02:03.001Z</time></trkpt><trkpt lat="44.62418029493595" lon="8.659261603010155"><ele>240.0</ele><time>2026-03-29T12:02:04.001Z</time></trkpt><trkpt lat="44.62420900173568" lon="8.65906877957219"><ele>239.75</ele><time>2026-03-29T12:02:05.001Z</time></trkpt><trkpt lat="44.62426506143079" lon="8.658871994002823"><ele>239.5</ele><time>2026-03-29T12:02:06.001Z</time></trkpt><trkpt lat="44.62432284870541" lon="8.658693566566669"><ele>239.25</ele><time>2026-03-29T12:02:07.001Z</time></trkpt><trkpt lat="44.62436530299101" lon="8.65851551443799"><ele>239.0</ele><time>2026-03-29T12:02:08.001Z</time></trkpt><trkpt lat="44.62438258485339" lon="8.658328752802523"><ele>238.0</ele><time>2026-03-29T12:02:09.001Z</time></trkpt><trkpt lat="44.624364945168175" lon="8.658114052732715"><ele>237.0</ele><time>2026-03-29T12:02:10.001Z</time></trkpt><trkpt lat="44.62434179095009" lon="8.657901350502593"><ele>236.0</ele><time>2026-03-29T12:02:11.001Z</time></trkpt><trkpt lat="44.62432714833789" lon="8.65765735090673"><ele>234.66666666666669</ele><time>2026-03-29T12:02:12.001Z</time></trkpt><trkpt lat="44.6243388994421" lon="8.6574132724174"><ele>233.33333333333331</ele><time>2026-03-29T12:02:13.001Z</time></trkpt><trkpt lat="44.62436319186539" lon="8.657177098183183"><ele>232.0</ele><time>2026-03-29T12:02:14.001Z</time></trkpt><trkpt lat="44.624384504319764" lon="8.656967485593837"><ele>231.25</ele><time>2026-03-29T12:02:15.001Z</time></trkpt><trkpt lat="44.624403201205105" lon="8.656763131381883"><ele>230.5</ele><time>2026-03-29T12:02:16.001Z</time></trkpt><trkpt lat="44.62442843211551" lon="8.65657132959775"><ele>229.75</ele><time>2026-03-29T12:02:17.001Z</time></trkpt><trkpt lat="44.624442140530434" lon="8.656409396445648"><ele>229.0</ele><time>2026-03-29T12:02:18.001Z</time></trkpt><trkpt lat="44.62446545900447" lon="8.656288306099365"><ele>226.16666666666666</ele><time>2026-03-29T12:02:19.001Z</time></trkpt><trkpt lat="44.62450238403084" lon="8.656199767752936"><ele>223.33333333333331</ele><time>2026-03-29T12:02:20.001Z</time></trkpt><trkpt lat="44.624560649996944" lon="8.656140249611406"><ele>220.5</ele><time>2026-03-29T12:02:21.001Z</time></trkpt><trkpt lat="44.62464597562019" lon="8.656144889891262"><ele>217.66666666666669</ele><time>2026-03-29T12:02:22.001Z</time></trkpt><trkpt lat="44.6247261421144" lon="8.656178690823388"><ele>214.83333333333334</ele><time>2026-03-29T12:02:23.001Z</time></trkpt><trkpt lat="44.62481041299854" lon="8.656212959383918"><ele>212.0</ele><time>2026-03-29T12:02:24.001Z</time></trkpt><trkpt lat="44.624894993224096" lon="8.656296897149845"><ele>212.0</ele><time>2026-03-29T12:02:25.001Z</time></trkpt><trkpt lat="44.62494068466649" lon="8.656434380437044"><ele>212.0</ele><time>2026-03-29T12:02:26.001Z</time></trkpt><trkpt lat="44.62497501943595" lon="8.65655213372705"><ele>212.0</ele><time>2026-03-29T12:02:27.001Z</time></trkpt><trkpt lat="44.62501773326483" lon="8.656670607438745"><ele>212.0</ele><time>2026-03-29T12:02:28.002Z</time></trkpt><trkpt lat="44.625078117526506" lon="8.656781046463376"><ele>212.0</ele><time>2026-03-29T12:02:29.002Z</time></trkpt><trkpt lat="44.625169350507406" lon="8.656860508954882"><ele>212.0</ele><time>2026-03-29T12:02:30.002Z</time></trkpt><trkpt lat="44.625283602116156" lon="8.6568874140366"><ele>212.0</ele><time>2026-03-29T12:02:31.002Z</time></trkpt><trkpt lat="44.62540898596811" lon="8.656889260647992"><ele>212.0</ele><time>2026-03-29T12:02:32.002Z</time></trkpt><trkpt lat="44.62554119854022" lon="8.656887257936186"><ele>212.0</ele><time>2026-03-29T12:02:33.002Z</time></trkpt><trkpt lat="44.6256750809652" lon="8.65688458427992"><ele>210.5</ele><time>2026-03-29T12:02:34.002Z</time></trkpt><trkpt lat="44.62580317153101" lon="8.656870557656077"><ele>209.0</ele><time>2026-03-29T12:02:35.002Z</time></trkpt><trkpt lat="44.62591795563959" lon="8.656834658820365"><ele>207.5</ele><time>2026-03-29T12:02:36.002Z</time></trkpt><trkpt lat="44.6260142938231" lon="8.656763403073013"><ele>206.0</ele><time>2026-03-29T12:02:37.002Z</time></trkpt><trkpt lat="44.62610330407585" lon="8.656657158059"><ele>205.60000000000002</ele><time>2026-03-29T12:02:38.002Z</time></trkpt><trkpt lat="44.62616577637977" lon="8.65656039181869"><ele>205.2</ele><time>2026-03-29T12:02:39.002Z</time></trkpt><trkpt lat="44.62622610131645" lon="8.656498153991848"><ele>204.8</ele><time>2026-03-29T12:02:40.002Z</time></trkpt><trkpt lat="44.62634343748688" lon="8.656421519087452"><ele>204.39999999999998</ele><time>2026-03-29T12:02:42.002Z</time></trkpt><trkpt lat="44.62639838943656" lon="8.65634615713578"><ele>204.0</ele><time>2026-03-29T12:02:43.002Z</time></trkpt><trkpt lat="44.6264022352022" lon="8.656215125043124"><ele>203.39999999999998</ele><time>2026-03-29T12:02:45.002Z</time></trkpt><trkpt lat="44.62627976168614" lon="8.656046084713394"><ele>202.8</ele><time>2026-03-29T12:02:48.002Z</time></trkpt><trkpt lat="44.62622775725543" lon="8.655964660026244"><ele>202.2</ele><time>2026-03-29T12:02:49.002Z</time></trkpt><trkpt lat="44.626231051199774" lon="8.655818782008346"><ele>201.60000000000002</ele><time>2026-03-29T12:02:50.002Z</time></trkpt><trkpt lat="44.62620781229673" lon="8.655698869393111"><ele>201.0</ele><time>2026-03-29T12:02:51.002Z</time></trkpt><trkpt lat="44.62615917273688" lon="8.655562404959097"><ele>201.5</ele><time>2026-03-29T12:02:52.002Z</time></trkpt><trkpt lat="44.62608746206491" lon="8.655422719477258"><ele>202.0</ele><time>2026-03-29T12:02:53.002Z</time></trkpt><trkpt lat="44.6260069484584" lon="8.655296699735597"><ele>202.5</ele><time>2026-03-29T12:02:54.002Z</time></trkpt><trkpt lat="44.62593522848863" lon="8.655169839340397"><ele>203.0</ele><time>2026-03-29T12:02:55.002Z</time></trkpt><trkpt lat="44.62586111923354" lon="8.655038484938597"><ele>203.0</ele><time>2026-03-29T12:02:56.002Z</time></trkpt><trkpt lat="44.625784071740334" lon="8.65489753327565"><ele>203.0</ele><time>2026-03-29T12:02:57.002Z</time></trkpt><trkpt lat="44.62570756465154" lon="8.654758740865221"><ele>203.0</ele><time>2026-03-29T12:02:58.002Z</time></trkpt><trkpt lat="44.625640677463544" lon="8.654635767100409"><ele>203.0</ele><time>2026-03-29T12:02:59.002Z</time></trkpt><trkpt lat="44.62557688728456" lon="8.65452521825191"><ele>203.00000000000003</ele><time>2026-03-29T12:03:00.002Z</time></trkpt><trkpt lat="44.62552411165179" lon="8.654417286849624"><ele>203.0</ele><time>2026-03-29T12:03:01.002Z</time></trkpt><trkpt lat="44.62549895677779" lon="8.654312792614983"><ele>203.0</ele><time>2026-03-29T12:03:02.002Z</time></trkpt><trkpt lat="44.62550131606875" lon="8.65420318334829"><ele>203.0</ele><time>2026-03-29T12:03:03.002Z</time></trkpt><trkpt lat="44.62552692468045" lon="8.654104311212382"><ele>203.00000000000003</ele><time>2026-03-29T12:03:04.002Z</time></trkpt><trkpt lat="44.62556030471886" lon="8.654025284472189"><ele>203.0</ele><time>2026-03-29T12:03:05.002Z</time></trkpt><trkpt lat="44.6256118421168" lon="8.653948737155531"><ele>203.0</ele><time>2026-03-29T12:03:06.003Z</time></trkpt><trkpt lat="44.625654630389555" lon="8.653851103715985"><ele>203.0</ele><time>2026-03-29T12:03:07.003Z</time></trkpt><trkpt lat="44.62570291579623" lon="8.653765674728577"><ele>203.0</ele><time>2026-03-29T12:03:08.003Z</time></trkpt><trkpt lat="44.62586241246447" lon="8.653819897452353"><ele>203.0</ele><time>2026-03-29T12:03:09.003Z</time></trkpt><trkpt lat="44.625974623424305" lon="8.653827658090517"><ele>203.0</ele><time>2026-03-29T12:03:10.003Z</time></trkpt><trkpt lat="44.62609152727579" lon="8.65384697481806"><ele>202.25</ele><time>2026-03-29T12:03:11.003Z</time></trkpt><trkpt lat="44.626214730999024" lon="8.653876891404511"><ele>201.5</ele><time>2026-03-29T12:03:12.003Z</time></trkpt><trkpt lat="44.62634067445734" lon="8.653908747634892"><ele>200.75</ele><time>2026-03-29T12:03:13.003Z</time></trkpt><trkpt lat="44.62647610443398" lon="8.653955288376304"><ele>200.0</ele><time>2026-03-29T12:03:14.003Z</time></trkpt><trkpt lat="44.6266142099395" lon="8.65402476737159"><ele>200.0</ele><time>2026-03-29T12:03:15.003Z</time></trkpt><trkpt lat="44.62674717842181" lon="8.654106013176312"><ele>200.0</ele><time>2026-03-29T12:03:16.003Z</time></trkpt><trkpt lat="44.62688098852859" lon="8.654195388836854"><ele>200.0</ele><time>2026-03-29T12:03:17.003Z</time></trkpt><trkpt lat="44.62700869495417" lon="8.654294202689297"><ele>200.0</ele><time>2026-03-29T12:03:18.003Z</time></trkpt><trkpt lat="44.62713300149716" lon="8.65439390137372"><ele>200.0</ele><time>2026-03-29T12:03:19Z</time></trkpt><trkpt lat="44.6272498192538" lon="8.654502258774611"><ele>200.0</ele><time>2026-03-29T12:03:20Z</time></trkpt><trkpt lat="44.627359653094665" lon="8.654609553520853"><ele>200.0</ele><time>2026-03-29T12:03:21Z</time></trkpt><trkpt lat="44.627461695554885" lon="8.65470426447844"><ele>200.0</ele><time>2026-03-29T12:03:22Z</time></trkpt><trkpt lat="44.62755988495327" lon="8.654797585852096"><ele>200.0</ele><time>2026-03-29T12:03:23Z</time></trkpt><trkpt lat="44.62765410289715" lon="8.654887443330502"><ele>200.0</ele><time>2026-03-29T12:03:24Z</time></trkpt><trkpt lat="44.627745602457345" lon="8.654974757291514"><ele>200.0</ele><time>2026-03-29T12:03:25Z</time></trkpt><trkpt lat="44.62784103925171" lon="8.65506270633802"><ele>200.0</ele><time>2026-03-29T12:03:26Z</time></trkpt><trkpt lat="44.62794586228505" lon="8.655123654733208"><ele>200.16666666666669</ele><time>2026-03-29T12:03:27Z</time></trkpt><trkpt lat="44.62801774050225" lon="8.655182281538302"><ele>200.33333333333334</ele><time>2026-03-29T12:03:28Z</time></trkpt><trkpt lat="44.628091337471204" lon="8.655244113520085"><ele>200.5</ele><time>2026-03-29T12:03:29Z</time></trkpt><trkpt lat="44.62815920301585" lon="8.655303409917812"><ele>200.66666666666669</ele><time>2026-03-29T12:03:30Z</time></trkpt><trkpt lat="44.62823287849963" lon="8.655370209031656"><ele>200.83333333333334</ele><time>2026-03-29T12:03:31Z</time></trkpt><trkpt lat="44.628317470419866" lon="8.65544896467375"><ele>201.0</ele><time>2026-03-29T12:03:32Z</time></trkpt><trkpt lat="44.628412882740854" lon="8.655539750391018"><ele>201.0</ele><time>2026-03-29T12:03:33Z</time></trkpt><trkpt lat="44.628514785152014" lon="8.65563672994832"><ele>201.0</ele><time>2026-03-29T12:03:34Z</time></trkpt><trkpt lat="44.628626880543536" lon="8.65573861878675"><ele>201.0</ele><time>2026-03-29T12:03:35Z</time></trkpt><trkpt lat="44.628747462766995" lon="8.655845671877046"><ele>201.0</ele><time>2026-03-29T12:03:36Z</time></trkpt><trkpt lat="44.628876665644455" lon="8.65596077288409"><ele>200.75</ele><time>2026-03-29T12:03:37Z</time></trkpt><trkpt lat="44.628999032349164" lon="8.656073170176404"><ele>200.5</ele><time>2026-03-29T12:03:38Z</time></trkpt><trkpt lat="44.62910936449185" lon="8.6561862509939"><ele>200.25</ele><time>2026-03-29T12:03:39Z</time></trkpt><trkpt lat="44.62921020471796" lon="8.656308122310193"><ele>200.0</ele><time>2026-03-29T12:03:40Z</time></trkpt><trkpt lat="44.629317974084486" lon="8.65641142025515"><ele>200.0</ele><time>2026-03-29T12:03:41Z</time></trkpt><trkpt lat="44.62941787085308" lon="8.656532359816953"><ele>200.0</ele><time>2026-03-29T12:03:42Z</time></trkpt><trkpt lat="44.62951264162051" lon="8.656681690159338"><ele>200.0</ele><time>2026-03-29T12:03:43Z</time></trkpt><trkpt lat="44.62959274832556" lon="8.65685611056733"><ele>200.0</ele><time>2026-03-29T12:03:44Z</time></trkpt><trkpt lat="44.62966476334195" lon="8.657055061250237"><ele>200.33333333333334</ele><time>2026-03-29T12:03:45Z</time></trkpt><trkpt lat="44.62972397267103" lon="8.657266506635878"><ele>200.66666666666669</ele><time>2026-03-29T12:03:46Z</time></trkpt><trkpt lat="44.62976781018005" lon="8.657490848240684"><ele>201.0</ele><time>2026-03-29T12:03:47Z</time></trkpt><trkpt lat="44.62979264060067" lon="8.657713928398586"><ele>201.66666666666669</ele><time>2026-03-29T12:03:48Z</time></trkpt><trkpt lat="44.629796240790185" lon="8.657934750623633"><ele>202.33333333333334</ele><time>2026-03-29T12:03:49.001Z</time></trkpt><trkpt lat="44.62978117365728" lon="8.65816554524552"><ele>203.0</ele><time>2026-03-29T12:03:50.001Z</time></trkpt><trkpt lat="44.62974079288938" lon="8.658396204810431"><ele>203.66666666666669</ele><time>2026-03-29T12:03:51.001Z</time></trkpt><trkpt lat="44.629682850796016" lon="8.658624932124706"><ele>204.33333333333331</ele><time>2026-03-29T12:03:52.001Z</time></trkpt><trkpt lat="44.62958458419952" lon="8.65882425391379"><ele>205.0</ele><time>2026-03-29T12:03:53.001Z</time></trkpt><trkpt lat="44.62947527828583" lon="8.659026516993675"><ele>205.0</ele><time>2026-03-29T12:03:54.001Z</time></trkpt><trkpt lat="44.62937509524903" lon="8.659244469845225"><ele>205.0</ele><time>2026-03-29T12:03:55.001Z</time></trkpt><trkpt lat="44.62927069919245" lon="8.659464511549581"><ele>205.0</ele><time>2026-03-29T12:03:56.001Z</time></trkpt><trkpt lat="44.62917073906607" lon="8.659674438676175"><ele>206.66666666666666</ele><time>2026-03-29T12:03:57.001Z</time></trkpt><trkpt lat="44.62907991446942" lon="8.659864704866632"><ele>208.33333333333331</ele><time>2026-03-29T12:03:58.001Z</time></trkpt><trkpt lat="44.62898887265071" lon="8.660059855259862"><ele>210.0</ele><time>2026-03-29T12:03:59.001Z</time></trkpt><trkpt lat="44.62891850981471" lon="8.66020911314587"><ele>209.75</ele><time>2026-03-29T12:04:00.001Z</time></trkpt><trkpt lat="44.62883416515972" lon="8.660354868864376"><ele>209.5</ele><time>2026-03-29T12:04:01.001Z</time></trkpt><trkpt lat="44.62874334575603" lon="8.660476927521028"><ele>209.25</ele><time>2026-03-29T12:04:02.001Z</time></trkpt><trkpt lat="44.62864906208006" lon="8.660586968388193"><ele>209.0</ele><time>2026-03-29T12:04:03.001Z</time></trkpt><trkpt lat="44.62853588624669" lon="8.660640856332975"><ele>209.0</ele><time>2026-03-29T12:04:04.001Z</time></trkpt><trkpt lat="44.628413256992836" lon="8.660653810474745"><ele>209.0</ele><time>2026-03-29T12:04:05.001Z</time></trkpt><trkpt lat="44.628289980727025" lon="8.660625558542447"><ele>209.0</ele><time>2026-03-29T12:04:06.001Z</time></trkpt><trkpt lat="44.62817753387701" lon="8.66055417412547"><ele>209.0</ele><time>2026-03-29T12:04:07.001Z</time></trkpt><trkpt lat="44.62808562688247" lon="8.660455998097131"><ele>209.0</ele><time>2026-03-29T12:04:08.001Z</time></trkpt><trkpt lat="44.628004924008984" lon="8.660333907666681"><ele>209.0</ele><time>2026-03-29T12:04:09.001Z</time></trkpt><trkpt lat="44.62798295978695" lon="8.660156292762549"><ele>209.0</ele><time>2026-03-29T12:04:10.001Z</time></trkpt><trkpt lat="44.627964725370056" lon="8.659989594318727"><ele>209.0</ele><time>2026-03-29T12:04:11.001Z</time></trkpt><trkpt lat="44.627976162230304" lon="8.659820413566951"><ele>209.0</ele><time>2026-03-29T12:04:12.001Z</time></trkpt><trkpt lat="44.628018449817255" lon="8.659663854884421"><ele>209.0</ele><time>2026-03-29T12:04:13.001Z</time></trkpt><trkpt lat="44.628088725813775" lon="8.659529305793399"><ele>209.0</ele><time>2026-03-29T12:04:14.001Z</time></trkpt><trkpt lat="44.62818459563195" lon="8.65942114314008"><ele>209.0</ele><time>2026-03-29T12:04:15.001Z</time></trkpt><trkpt lat="44.62829198368081" lon="8.659352248462561"><ele>209.25</ele><time>2026-03-29T12:04:16.001Z</time></trkpt><trkpt lat="44.628405824305105" lon="8.659324189559685"><ele>209.5</ele><time>2026-03-29T12:04:17.001Z</time></trkpt><trkpt lat="44.6285255003797" lon="8.659340213303976"><ele>209.75</ele><time>2026-03-29T12:04:18.001Z</time></trkpt><trkpt lat="44.62865558712244" lon="8.659394018992732"><ele>210.0</ele><time>2026-03-29T12:04:19.001Z</time></trkpt><trkpt lat="44.628794172389675" lon="8.659478769600435"><ele>210.0</ele><time>2026-03-29T12:04:20.001Z</time></trkpt><trkpt lat="44.62893951203241" lon="8.659556933100822"><ele>210.0</ele><time>2026-03-29T12:04:21.001Z</time></trkpt><trkpt lat="44.629077944512204" lon="8.659718751338637"><ele>210.0</ele><time>2026-03-29T12:04:22.001Z</time></trkpt><trkpt lat="44.62922817021181" lon="8.65985413903902"><ele>210.0</ele><time>2026-03-29T12:04:23.001Z</time></trkpt><trkpt lat="44.62936933161382" lon="8.659987410957536"><ele>210.0</ele><time>2026-03-29T12:04:24.001Z</time></trkpt><trkpt lat="44.62950911108444" lon="8.660112473328798"><ele>210.0</ele><time>2026-03-29T12:04:25.001Z</time></trkpt><trkpt lat="44.62965693693228" lon="8.66024203976398"><ele>211.0</ele><time>2026-03-29T12:04:26.001Z</time></trkpt><trkpt lat="44.629806465233145" lon="8.660371812638143"><ele>212.0</ele><time>2026-03-29T12:04:27.001Z</time></trkpt><trkpt lat="44.629958056091844" lon="8.660505595545201"><ele>213.0</ele><time>2026-03-29T12:04:28.001Z</time></trkpt><trkpt lat="44.630110930006076" lon="8.660640224357866"><ele>213.0</ele><time>2026-03-29T12:04:29.002Z</time></trkpt><trkpt lat="44.63026887369907" lon="8.660776518175014"><ele>213.0</ele><time>2026-03-29T12:04:30.002Z</time></trkpt><trkpt lat="44.630431746132714" lon="8.660917430331736"><ele>213.0</ele><time>2026-03-29T12:04:31.002Z</time></trkpt><trkpt lat="44.630598029746345" lon="8.661060739681997"><ele>216.0</ele><time>2026-03-29T12:04:32.002Z</time></trkpt><trkpt lat="44.63075612259876" lon="8.661201425430871"><ele>219.0</ele><time>2026-03-29T12:04:33.002Z</time></trkpt><trkpt lat="44.63090379930938" lon="8.66133458230236"><ele>222.0</ele><time>2026-03-29T12:04:34.002Z</time></trkpt><trkpt lat="44.631051116651975" lon="8.661465754548857"><ele>221.33333333333331</ele><time>2026-03-29T12:04:35.002Z</time></trkpt><trkpt lat="44.631201045917976" lon="8.661607711358869"><ele>220.66666666666666</ele><time>2026-03-29T12:04:36.002Z</time></trkpt><trkpt lat="44.63136357696692" lon="8.661742118035846"><ele>220.0</ele><time>2026-03-29T12:04:37.002Z</time></trkpt><trkpt lat="44.631528598397416" lon="8.661889768242192"><ele>219.33333333333331</ele><time>2026-03-29T12:04:38.002Z</time></trkpt><trkpt lat="44.63169872503788" lon="8.662027556465961"><ele>218.66666666666669</ele><time>2026-03-29T12:04:39.002Z</time></trkpt><trkpt lat="44.631876143138314" lon="8.662156711822067"><ele>218.0</ele><time>2026-03-29T12:04:40.002Z</time></trkpt><trkpt lat="44.632055622767645" lon="8.662283975031412"><ele>218.0</ele><time>2026-03-29T12:04:41.002Z</time></trkpt><trkpt lat="44.63223704058388" lon="8.662404869723867"><ele>218.0</ele><time>2026-03-29T12:04:42.002Z</time></trkpt><trkpt lat="44.632421591241354" lon="8.662514684080723"><ele>218.0</ele><time>2026-03-29T12:04:43.002Z</time></trkpt><trkpt lat="44.63261107144099" lon="8.662615572155996"><ele>218.0</ele><time>2026-03-29T12:04:44.002Z</time></trkpt><trkpt lat="44.63280531710456" lon="8.66270462454814"><ele>218.0</ele><time>2026-03-29T12:04:45.002Z</time></trkpt><trkpt lat="44.63299488282567" lon="8.662781367415171"><ele>218.0</ele><time>2026-03-29T12:04:46.002Z</time></trkpt><trkpt lat="44.63319018988125" lon="8.662851882350983"><ele>216.0</ele><time>2026-03-29T12:04:47.002Z</time></trkpt><trkpt lat="44.63339059982758" lon="8.662911568771126"><ele>214.0</ele><time>2026-03-29T12:04:48.002Z</time></trkpt><trkpt lat="44.6335959014834" lon="8.66296138139354"><ele>212.0</ele><time>2026-03-29T12:04:49.002Z</time></trkpt><trkpt lat="44.63380330018456" lon="8.663001958598755"><ele>212.0</ele><time>2026-03-29T12:04:50.002Z</time></trkpt><trkpt lat="44.6340121160773" lon="8.663030607802765"><ele>212.0</ele><time>2026-03-29T12:04:51.002Z</time></trkpt><trkpt lat="44.63422477089107" lon="8.66304932529976"><ele>212.0</ele><time>2026-03-29T12:04:52.002Z</time></trkpt><trkpt lat="44.63443857202586" lon="8.663058508802974"><ele>219.66666666666669</ele><time>2026-03-29T12:04:53.002Z</time></trkpt><trkpt lat="44.63465182798784" lon="8.663052343616638"><ele>227.33333333333331</ele><time>2026-03-29T12:04:54.002Z</time></trkpt><trkpt lat="44.63486623619903" lon="8.663031246787126"><ele>235.0</ele><time>2026-03-29T12:04:55.002Z</time></trkpt><trkpt lat="44.63508288622278" lon="8.663001633192279"><ele>235.0</ele><time>2026-03-29T12:04:56.002Z</time></trkpt><trkpt lat="44.63529802415419" lon="8.662958870177047"><ele>235.0</ele><time>2026-03-29T12:04:57.002Z</time></trkpt><trkpt lat="44.63551557750187" lon="8.662906937734457"><ele>235.0</ele><time>2026-03-29T12:04:58.002Z</time></trkpt><trkpt lat="44.63573747609172" lon="8.662847880856264"><ele>239.5</ele><time>2026-03-29T12:04:59.002Z</time></trkpt><trkpt lat="44.63596151587547" lon="8.662779658520515"><ele>244.0</ele><time>2026-03-29T12:05:00.002Z</time></trkpt><trkpt lat="44.63618879044644" lon="8.66271267532168"><ele>247.0</ele><time>2026-03-29T12:05:01.016Z</time></trkpt><trkpt lat="44.636411850101915" lon="8.662648337220984"><ele>250.0</ele><time>2026-03-29T12:05:02.015Z</time></trkpt><trkpt lat="44.63663302381104" lon="8.662579830993016"><ele>250.0</ele><time>2026-03-29T12:05:03.018Z</time></trkpt><trkpt lat="44.63685959738726" lon="8.6625173581105"><ele>250.0</ele><time>2026-03-29T12:05:04.016Z</time></trkpt><trkpt lat="44.63708549343279" lon="8.662450139871648"><ele>251.0</ele><time>2026-03-29T12:05:05.014Z</time></trkpt><trkpt lat="44.639031172171556" lon="8.66166057494232"><ele>246.0</ele><time>2026-03-29T12:05:08.855Z</time></trkpt><trkpt lat="44.63978683114484" lon="8.661374850206693"><ele>246.0</ele><time>2026-03-29T12:05:16.003Z</time></trkpt><trkpt lat="44.64003024786234" lon="8.661287223142246"><ele>246.0</ele><time>2026-03-29T12:05:17.003Z</time></trkpt><trkpt lat="44.640268566468414" lon="8.661205735560484"><ele>244.5</ele><time>2026-03-29T12:05:18.003Z</time></trkpt><trkpt lat="44.640517316421835" lon="8.661124904154555"><ele>243.0</ele><time>2026-03-29T12:05:19.003Z</time></trkpt><trkpt lat="44.6407528108634" lon="8.661036541501113"><ele>243.0</ele><time>2026-03-29T12:05:20.003Z</time></trkpt><trkpt lat="44.64098572825651" lon="8.660946355068727"><ele>243.0</ele><time>2026-03-29T12:05:21.003Z</time></trkpt><trkpt lat="44.6412254834875" lon="8.66085266080865"><ele>241.5</ele><time>2026-03-29T12:05:22.003Z</time></trkpt><trkpt lat="44.64146292644957" lon="8.660765541423904"><ele>240.0</ele><time>2026-03-29T12:05:23.003Z</time></trkpt><trkpt lat="44.641691562593984" lon="8.660686832804641"><ele>240.0</ele><time>2026-03-29T12:05:24.003Z</time></trkpt><trkpt lat="44.64193931543209" lon="8.660600360814529"><ele>240.0</ele><time>2026-03-29T12:05:25.001Z</time></trkpt><trkpt lat="44.64218594143008" lon="8.66053559780015"><ele>240.0</ele><time>2026-03-29T12:05:26.001Z</time></trkpt><trkpt lat="44.64243706030663" lon="8.66048663767054"><ele>240.0</ele><time>2026-03-29T12:05:27.001Z</time></trkpt><trkpt lat="44.642691350364444" lon="8.660454251978473"><ele>236.0</ele><time>2026-03-29T12:05:28.001Z</time></trkpt><trkpt lat="44.64294579925826" lon="8.660442178269887"><ele>232.0</ele><time>2026-03-29T12:05:29.001Z</time></trkpt><trkpt lat="44.64320039590206" lon="8.660445157227805"><ele>232.0</ele><time>2026-03-29T12:05:30.001Z</time></trkpt><trkpt lat="44.64346013086247" lon="8.660465049370394"><ele>232.0</ele><time>2026-03-29T12:05:31.001Z</time></trkpt><trkpt lat="44.643716675808726" lon="8.660505751637697"><ele>232.0</ele><time>2026-03-29T12:05:32.001Z</time></trkpt><trkpt lat="44.643978533691005" lon="8.660559355323057"><ele>232.0</ele><time>2026-03-29T12:05:33.001Z</time></trkpt><trkpt lat="44.644248103283644" lon="8.660624273030255"><ele>233.0</ele><time>2026-03-29T12:05:34.001Z</time></trkpt><trkpt lat="44.64450949697308" lon="8.660695330042797"><ele>234.0</ele><time>2026-03-29T12:05:35.001Z</time></trkpt><trkpt lat="44.64477089460039" lon="8.660768599798255"><ele>234.0</ele><time>2026-03-29T12:05:36.001Z</time></trkpt><trkpt lat="44.645024454455665" lon="8.660842151979422"><ele>234.0</ele><time>2026-03-29T12:05:37.001Z</time></trkpt><trkpt lat="44.645273149088744" lon="8.660909065803867"><ele>232.0</ele><time>2026-03-29T12:05:38.001Z</time></trkpt><trkpt lat="44.64549610455468" lon="8.660974489210485"><ele>230.0</ele><time>2026-03-29T12:05:39.001Z</time></trkpt><trkpt lat="44.64571504458563" lon="8.661033600360279"><ele>230.0</ele><time>2026-03-29T12:05:40.001Z</time></trkpt><trkpt lat="44.64592328404306" lon="8.661092021871786"><ele>230.0</ele><time>2026-03-29T12:05:41.001Z</time></trkpt><trkpt lat="44.64613760314446" lon="8.661147165175235"><ele>230.0</ele><time>2026-03-29T12:05:42.001Z</time></trkpt><trkpt lat="44.6463463680088" lon="8.661209464761237"><ele>227.66666666666669</ele><time>2026-03-29T12:05:43.001Z</time></trkpt><trkpt lat="44.64654259057186" lon="8.661267927610975"><ele>225.33333333333331</ele><time>2026-03-29T12:05:44.001Z</time></trkpt><trkpt lat="44.646737552850695" lon="8.661327230098491"><ele>223.0</ele><time>2026-03-29T12:05:45.001Z</time></trkpt><trkpt lat="44.646939506071796" lon="8.66138826479174"><ele>222.66666666666666</ele><time>2026-03-29T12:05:46.001Z</time></trkpt><trkpt lat="44.64714618767687" lon="8.66143807124143"><ele>222.33333333333331</ele><time>2026-03-29T12:05:47.001Z</time></trkpt><trkpt lat="44.64735523609045" lon="8.661499751464152"><ele>222.0</ele><time>2026-03-29T12:05:48.001Z</time></trkpt><trkpt lat="44.64757026296648" lon="8.661563935619958"><ele>221.5</ele><time>2026-03-29T12:05:49.001Z</time></trkpt><trkpt lat="44.64780062575735" lon="8.661621690509127"><ele>221.0</ele><time>2026-03-29T12:05:50.001Z</time></trkpt><trkpt lat="44.64803773151479" lon="8.661683679282046"><ele>221.0</ele><time>2026-03-29T12:05:51.001Z</time></trkpt><trkpt lat="44.64827485795911" lon="8.661730153044386"><ele>221.0</ele><time>2026-03-29T12:05:52.001Z</time></trkpt><trkpt lat="44.64850686913668" lon="8.661761138544357"><ele>217.5</ele><time>2026-03-29T12:05:53.001Z</time></trkpt><trkpt lat="44.64873521218777" lon="8.6617802414064"><ele>214.0</ele><time>2026-03-29T12:05:54.001Z</time></trkpt><trkpt lat="44.648967303919186" lon="8.661791981726422"><ele>214.0</ele><time>2026-03-29T12:05:55.001Z</time></trkpt><trkpt lat="44.64919964395" lon="8.661791923820264"><ele>214.0</ele><time>2026-03-29T12:05:56.001Z</time></trkpt><trkpt lat="44.64943056346448" lon="8.66178163694238"><ele>209.5</ele><time>2026-03-29T12:05:57.001Z</time></trkpt><trkpt lat="44.64966462622716" lon="8.661755938517272"><ele>205.0</ele><time>2026-03-29T12:05:58.001Z</time></trkpt><trkpt lat="44.64989168256425" lon="8.661717223699567"><ele>205.0</ele><time>2026-03-29T12:05:59.001Z</time></trkpt><trkpt lat="44.65012163171094" lon="8.661663870697991"><ele>205.0</ele><time>2026-03-29T12:06:00.001Z</time></trkpt><trkpt lat="44.6503482629303" lon="8.661593336018123"><ele>208.5</ele><time>2026-03-29T12:06:01.001Z</time></trkpt><trkpt lat="44.65057136170375" lon="8.661510555372129"><ele>212.0</ele><time>2026-03-29T12:06:02.001Z</time></trkpt><trkpt lat="44.65079136456911" lon="8.661414100756293"><ele>212.0</ele><time>2026-03-29T12:06:03.001Z</time></trkpt><trkpt lat="44.65101442950355" lon="8.661305721190251"><ele>212.0</ele><time>2026-03-29T12:06:04.001Z</time></trkpt><trkpt lat="44.65124133129113" lon="8.661183619645318"><ele>210.0</ele><time>2026-03-29T12:06:05.001Z</time></trkpt><trkpt lat="44.65147457985936" lon="8.661051482035127"><ele>208.0</ele><time>2026-03-29T12:06:06.001Z</time></trkpt><trkpt lat="44.65171095199494" lon="8.660910995858602"><ele>208.0</ele><time>2026-03-29T12:06:07.001Z</time></trkpt><trkpt lat="44.65195290717646" lon="8.660766986119256"><ele>208.0</ele><time>2026-03-29T12:06:08.001Z</time></trkpt><trkpt lat="44.6521900925893" lon="8.660628799895813"><ele>208.5</ele><time>2026-03-29T12:06:09.001Z</time></trkpt><trkpt lat="44.65242408530415" lon="8.660498282442155"><ele>209.0</ele><time>2026-03-29T12:06:10.001Z</time></trkpt><trkpt lat="44.652660853555304" lon="8.660368803796933"><ele>206.0</ele><time>2026-03-29T12:06:11.001Z</time></trkpt><trkpt lat="44.65292096100334" lon="8.660238884966232"><ele>203.0</ele><time>2026-03-29T12:06:12.001Z</time></trkpt><trkpt lat="44.65316604501133" lon="8.660121077721364"><ele>203.0</ele><time>2026-03-29T12:06:13.001Z</time></trkpt><trkpt lat="44.65339680804933" lon="8.66002443165756"><ele>203.0</ele><time>2026-03-29T12:06:14.001Z</time></trkpt><trkpt lat="44.653629292687164" lon="8.659934426147325"><ele>200.0</ele><time>2026-03-29T12:06:15.001Z</time></trkpt><trkpt lat="44.653866808247855" lon="8.659852401411957"><ele>197.0</ele><time>2026-03-29T12:06:16.001Z</time></trkpt><trkpt lat="44.654105486125175" lon="8.659781918484446"><ele>197.0</ele><time>2026-03-29T12:06:17.001Z</time></trkpt><trkpt lat="44.65434330388011" lon="8.65972156972318"><ele>197.0</ele><time>2026-03-29T12:06:18.001Z</time></trkpt><trkpt lat="44.6545840171255" lon="8.659668605897652"><ele>195.5</ele><time>2026-03-29T12:06:19.001Z</time></trkpt><trkpt lat="44.65481876784033" lon="8.659623546707284"><ele>194.0</ele><time>2026-03-29T12:06:20.001Z</time></trkpt><trkpt lat="44.65504898699408" lon="8.659586661543004"><ele>194.0</ele><time>2026-03-29T12:06:21.001Z</time></trkpt><trkpt lat="44.65528552191385" lon="8.659559407839868"><ele>194.0</ele><time>2026-03-29T12:06:22.001Z</time></trkpt><trkpt lat="44.65551973427444" lon="8.659530762045662"><ele>193.5</ele><time>2026-03-29T12:06:23.001Z</time></trkpt><trkpt lat="44.65575366705927" lon="8.659508594589585"><ele>193.0</ele><time>2026-03-29T12:06:24.001Z</time></trkpt><trkpt lat="44.655990388696715" lon="8.659479669866347"><ele>194.5</ele><time>2026-03-29T12:06:25.002Z</time></trkpt><trkpt lat="44.65622309382728" lon="8.659452040171123"><ele>196.0</ele><time>2026-03-29T12:06:26.002Z</time></trkpt><trkpt lat="44.656456368181026" lon="8.6594247764494"><ele>192.5</ele><time>2026-03-29T12:06:27.002Z</time></trkpt><trkpt lat="44.65669695732819" lon="8.659397231557874"><ele>189.0</ele><time>2026-03-29T12:06:28.002Z</time></trkpt><trkpt lat="44.65693224535337" lon="8.659368884085787"><ele>187.0</ele><time>2026-03-29T12:06:29.002Z</time></trkpt><trkpt lat="44.65717022322294" lon="8.659341474996037"><ele>185.0</ele><time>2026-03-29T12:06:30.002Z</time></trkpt><trkpt lat="44.65739978512289" lon="8.65931348390029"><ele>185.0</ele><time>2026-03-29T12:06:31.002Z</time></trkpt><trkpt lat="44.657632756568255" lon="8.659289029827447"><ele>185.0</ele><time>2026-03-29T12:06:32.002Z</time></trkpt><trkpt lat="44.657860679346854" lon="8.659263063886833"><ele>181.5</ele><time>2026-03-29T12:06:33.002Z</time></trkpt><trkpt lat="44.65808484023715" lon="8.659240412483028"><ele>178.0</ele><time>2026-03-29T12:06:34.002Z</time></trkpt><trkpt lat="44.6583098970889" lon="8.659216310158723"><ele>178.0</ele><time>2026-03-29T12:06:35.002Z</time></trkpt><trkpt lat="44.65853518866139" lon="8.659196055884587"><ele>178.0</ele><time>2026-03-29T12:06:36.002Z</time></trkpt><trkpt lat="44.65875659952754" lon="8.659181023511808"><ele>178.0</ele><time>2026-03-29T12:06:37.002Z</time></trkpt><trkpt lat="44.658980855298346" lon="8.659174683251566"><ele>178.0</ele><time>2026-03-29T12:06:38.002Z</time></trkpt><trkpt lat="44.65921508639587" lon="8.65917351819691"><ele>178.0</ele><time>2026-03-29T12:06:39.002Z</time></trkpt><trkpt lat="44.6594549498584" lon="8.659174205799781"><ele>177.0</ele><time>2026-03-29T12:06:40.002Z</time></trkpt><trkpt lat="44.65970114003525" lon="8.65916085579665"><ele>176.0</ele><time>2026-03-29T12:06:41.002Z</time></trkpt><trkpt lat="44.6599448933663" lon="8.659137729371267"><ele>176.0</ele><time>2026-03-29T12:06:42.002Z</time></trkpt><trkpt lat="44.66019095078231" lon="8.659103689873813"><ele>176.0</ele><time>2026-03-29T12:06:43.002Z</time></trkpt><trkpt lat="44.66043305245784" lon="8.659080379362175"><ele>176.0</ele><time>2026-03-29T12:06:44.002Z</time></trkpt><trkpt lat="44.66067844623634" lon="8.659053879656524"><ele>176.0</ele><time>2026-03-29T12:06:45.002Z</time></trkpt><trkpt lat="44.66092978517983" lon="8.659032535749361"><ele>175.5</ele><time>2026-03-29T12:06:46.002Z</time></trkpt><trkpt lat="44.66118930188612" lon="8.659016537518468"><ele>175.0</ele><time>2026-03-29T12:06:47.002Z</time></trkpt><trkpt lat="44.66144808409498" lon="8.659008412483725"><ele>175.0</ele><time>2026-03-29T12:06:48.002Z</time></trkpt><trkpt lat="44.66170585390115" lon="8.659009451427156"><ele>175.0</ele><time>2026-03-29T12:06:49.002Z</time></trkpt><trkpt lat="44.66197193151099" lon="8.659022967905399"><ele>174.5</ele><time>2026-03-29T12:06:50.002Z</time></trkpt><trkpt lat="44.66223299434291" lon="8.659045279131472"><ele>174.0</ele><time>2026-03-29T12:06:51.002Z</time></trkpt><trkpt lat="44.6624723793897" lon="8.659076316291207"><ele>174.0</ele><time>2026-03-29T12:06:52.002Z</time></trkpt><trkpt lat="44.66272187099956" lon="8.659115612576679"><ele>174.0</ele><time>2026-03-29T12:06:53.002Z</time></trkpt><trkpt lat="44.66297350581325" lon="8.659155248011098"><ele>173.0</ele><time>2026-03-29T12:06:54.002Z</time></trkpt><trkpt lat="44.66322575852736" lon="8.65920259982695"><ele>172.0</ele><time>2026-03-29T12:06:55.002Z</time></trkpt><trkpt lat="44.66347393548357" lon="8.659249424769413"><ele>172.5</ele><time>2026-03-29T12:06:56.002Z</time></trkpt><trkpt lat="44.663725932945525" lon="8.65929680184377"><ele>173.0</ele><time>2026-03-29T12:06:57.002Z</time></trkpt><trkpt lat="44.663977329460344" lon="8.659342284803127"><ele>173.0</ele><time>2026-03-29T12:06:58.002Z</time></trkpt><trkpt lat="44.664227203862595" lon="8.659389173952109"><ele>173.0</ele><time>2026-03-29T12:06:59.002Z</time></trkpt><trkpt lat="44.66447761893247" lon="8.65944252547826"><ele>172.5</ele><time>2026-03-29T12:07:00.002Z</time></trkpt><trkpt lat="44.66472642815183" lon="8.659493115911864"><ele>172.0</ele><time>2026-03-29T12:07:01.002Z</time></trkpt><trkpt lat="44.66497685791348" lon="8.659545115545532"><ele>172.0</ele><time>2026-03-29T12:07:02.002Z</time></trkpt><trkpt lat="44.66522856016553" lon="8.659595593074568"><ele>172.0</ele><time>2026-03-29T12:07:03.002Z</time></trkpt><trkpt lat="44.66548534530256" lon="8.659647455396296"><ele>171.0</ele><time>2026-03-29T12:07:04.002Z</time></trkpt><trkpt lat="44.66573794633485" lon="8.659697926169782"><ele>170.0</ele><time>2026-03-29T12:07:05.002Z</time></trkpt><trkpt lat="44.666003091840054" lon="8.659745129929421"><ele>169.0</ele><time>2026-03-29T12:07:06.002Z</time></trkpt><trkpt lat="44.66626257410592" lon="8.65979023367392"><ele>168.0</ele><time>2026-03-29T12:07:07.002Z</time></trkpt><trkpt lat="44.66651739979667" lon="8.659843667394114"><ele>168.0</ele><time>2026-03-29T12:07:08.003Z</time></trkpt><trkpt lat="44.66676963836057" lon="8.659895790094856"><ele>168.0</ele><time>2026-03-29T12:07:09.003Z</time></trkpt><trkpt lat="44.667029319849576" lon="8.65995039843586"><ele>167.5</ele><time>2026-03-29T12:07:10.003Z</time></trkpt><trkpt lat="44.66729040912245" lon="8.659999491737244"><ele>167.0</ele><time>2026-03-29T12:07:11.003Z</time></trkpt><trkpt lat="44.667557638056365" lon="8.66004385619276"><ele>167.5</ele><time>2026-03-29T12:07:12.003Z</time></trkpt><trkpt lat="44.66782289435582" lon="8.660074931936428"><ele>168.0</ele><time>2026-03-29T12:07:13.003Z</time></trkpt><trkpt lat="44.66809432243285" lon="8.66009432247119"><ele>168.0</ele><time>2026-03-29T12:07:14.003Z</time></trkpt><trkpt lat="44.66835722141975" lon="8.66010504803027"><ele>168.0</ele><time>2026-03-29T12:07:15.003Z</time></trkpt><trkpt lat="44.66862730908257" lon="8.66010731228683"><ele>167.0</ele><time>2026-03-29T12:07:16.003Z</time></trkpt><trkpt lat="44.66889717198388" lon="8.660100048851207"><ele>166.0</ele><time>2026-03-29T12:07:17.003Z</time></trkpt><trkpt lat="44.669160890804804" lon="8.660085027535029"><ele>166.0</ele><time>2026-03-29T12:07:18.003Z</time></trkpt><trkpt lat="44.66942487413792" lon="8.660061001456874"><ele>166.0</ele><time>2026-03-29T12:07:19.003Z</time></trkpt><trkpt lat="44.6696927592669" lon="8.660030243571285"><ele>163.5</ele><time>2026-03-29T12:07:20.003Z</time></trkpt><trkpt lat="44.66995875037553" lon="8.659985249974135"><ele>161.0</ele><time>2026-03-29T12:07:21.003Z</time></trkpt><trkpt lat="44.6702243357137" lon="8.659940824640017"><ele>159.0</ele><time>2026-03-29T12:07:22.003Z</time></trkpt><trkpt lat="44.67048600186062" lon="8.659878234669584"><ele>157.0</ele><time>2026-03-29T12:07:23.003Z</time></trkpt><trkpt lat="44.67074539002432" lon="8.65981039669201"><ele>157.0</ele><time>2026-03-29T12:07:24.003Z</time></trkpt><trkpt lat="44.6710024469244" lon="8.659730920732903"><ele>157.0</ele><time>2026-03-29T12:07:25.003Z</time></trkpt><trkpt lat="44.67126378470414" lon="8.659642963129084"><ele>155.5</ele><time>2026-03-29T12:07:26.003Z</time></trkpt><trkpt lat="44.67152133279667" lon="8.659547147759898"><ele>154.0</ele><time>2026-03-29T12:07:27.003Z</time></trkpt><trkpt lat="44.67178037108554" lon="8.65946342508205"><ele>154.0</ele><time>2026-03-29T12:07:28.003Z</time></trkpt><trkpt lat="44.67204047081905" lon="8.659364478346019"><ele>154.0</ele><time>2026-03-29T12:07:29.003Z</time></trkpt><trkpt lat="44.67230087833311" lon="8.659278261513982"><ele>154.0</ele><time>2026-03-29T12:07:30.003Z</time></trkpt><trkpt lat="44.672558010372825" lon="8.659186218303446"><ele>154.0</ele><time>2026-03-29T12:07:31.001Z</time></trkpt><trkpt lat="44.67281708013451" lon="8.65909226318804"><ele>154.5</ele><time>2026-03-29T12:07:32.001Z</time></trkpt><trkpt lat="44.673072861119024" lon="8.658999559432914"><ele>155.0</ele><time>2026-03-29T12:07:33.001Z</time></trkpt><trkpt lat="44.67333062273786" lon="8.658906743898473"><ele>155.0</ele><time>2026-03-29T12:07:34.001Z</time></trkpt><trkpt lat="44.67358718699356" lon="8.65881667951989"><ele>155.0</ele><time>2026-03-29T12:07:35.001Z</time></trkpt><trkpt lat="44.67384872330721" lon="8.658722442106079"><ele>152.5</ele><time>2026-03-29T12:07:36.001Z</time></trkpt><trkpt lat="44.67410516927373" lon="8.658631207991613"><ele>150.0</ele><time>2026-03-29T12:07:37.001Z</time></trkpt><trkpt lat="44.67435834635726" lon="8.658549016912843"><ele>152.0</ele><time>2026-03-29T12:07:38.001Z</time></trkpt><trkpt lat="44.67461579505056" lon="8.658465611672515"><ele>154.0</ele><time>2026-03-29T12:07:39.001Z</time></trkpt><trkpt lat="44.67485030886462" lon="8.65840853662146"><ele>154.0</ele><time>2026-03-29T12:07:40.001Z</time></trkpt><trkpt lat="44.675091850974724" lon="8.65835887320855"><ele>154.0</ele><time>2026-03-29T12:07:41.001Z</time></trkpt><trkpt lat="44.67533041012265" lon="8.658324032272663"><ele>155.0</ele><time>2026-03-29T12:07:42.001Z</time></trkpt><trkpt lat="44.67557704319997" lon="8.658293892247508"><ele>156.0</ele><time>2026-03-29T12:07:43.001Z</time></trkpt><trkpt lat="44.67581538536015" lon="8.65828204736357"><ele>156.0</ele><time>2026-03-29T12:07:44.001Z</time></trkpt><trkpt lat="44.67605922380618" lon="8.658274295602084"><ele>156.0</ele><time>2026-03-29T12:07:45.001Z</time></trkpt><trkpt lat="44.67629839272744" lon="8.658283206105398"><ele>157.5</ele><time>2026-03-29T12:07:46.001Z</time></trkpt><trkpt lat="44.676547430806934" lon="8.658294651180166"><ele>159.0</ele><time>2026-03-29T12:07:47.001Z</time></trkpt><trkpt lat="44.676793494074204" lon="8.658331907032869"><ele>158.0</ele><time>2026-03-29T12:07:48.001Z</time></trkpt><trkpt lat="44.6770428076054" lon="8.658380185474774"><ele>157.0</ele><time>2026-03-29T12:07:49.001Z</time></trkpt><trkpt lat="44.67728622207692" lon="8.658448323462567"><ele>157.0</ele><time>2026-03-29T12:07:50.001Z</time></trkpt><trkpt lat="44.677540443349244" lon="8.658515278692024"><ele>157.0</ele><time>2026-03-29T12:07:51.001Z</time></trkpt><trkpt lat="44.67779345400713" lon="8.658597695349235"><ele>155.5</ele><time>2026-03-29T12:07:52.001Z</time></trkpt><trkpt lat="44.67804532442447" lon="8.658690030509709"><ele>154.0</ele><time>2026-03-29T12:07:53.001Z</time></trkpt><trkpt lat="44.67828931771533" lon="8.65878831387251"><ele>154.0</ele><time>2026-03-29T12:07:54.001Z</time></trkpt><trkpt lat="44.67853278642671" lon="8.658904301436573"><ele>154.0</ele><time>2026-03-29T12:07:55.001Z</time></trkpt><trkpt lat="44.678769119625976" lon="8.659024599358741"><ele>155.5</ele><time>2026-03-29T12:07:56.001Z</time></trkpt><trkpt lat="44.67900595644883" lon="8.659157370494158"><ele>157.0</ele><time>2026-03-29T12:07:57.001Z</time></trkpt><trkpt lat="44.67923958299555" lon="8.659295374009556"><ele>155.5</ele><time>2026-03-29T12:07:58.001Z</time></trkpt><trkpt lat="44.679477521953636" lon="8.659429886060433"><ele>154.0</ele><time>2026-03-29T12:07:59.001Z</time></trkpt><trkpt lat="44.67971587257068" lon="8.659564795717573"><ele>154.0</ele><time>2026-03-29T12:08:00.001Z</time></trkpt><trkpt lat="44.67995255347032" lon="8.65969975116174"><ele>154.0</ele><time>2026-03-29T12:08:01.001Z</time></trkpt><trkpt lat="44.68018857940756" lon="8.659835185707303"><ele>155.0</ele><time>2026-03-29T12:08:02.001Z</time></trkpt><trkpt lat="44.680430497777216" lon="8.659967460046348"><ele>156.0</ele><time>2026-03-29T12:08:03.001Z</time></trkpt><trkpt lat="44.68067400959759" lon="8.660095801907213"><ele>156.0</ele><time>2026-03-29T12:08:04.001Z</time></trkpt><trkpt lat="44.68091628447452" lon="8.660227377579075"><ele>156.0</ele><time>2026-03-29T12:08:05.001Z</time></trkpt><trkpt lat="44.681153806438324" lon="8.660354742820672"><ele>155.0</ele><time>2026-03-29T12:08:06.001Z</time></trkpt><trkpt lat="44.681389916194746" lon="8.660489310688142"><ele>154.0</ele><time>2026-03-29T12:08:07.001Z</time></trkpt><trkpt lat="44.68164007069745" lon="8.660626231452527"><ele>154.0</ele><time>2026-03-29T12:08:08.001Z</time></trkpt><trkpt lat="44.68188747434128" lon="8.660763049245805"><ele>154.0</ele><time>2026-03-29T12:08:09.001Z</time></trkpt><trkpt lat="44.68213107618745" lon="8.660900762750176"><ele>154.5</ele><time>2026-03-29T12:08:10.001Z</time></trkpt><trkpt lat="44.682369093773886" lon="8.661049688090705"><ele>155.0</ele><time>2026-03-29T12:08:11.001Z</time></trkpt><trkpt lat="44.682613252911075" lon="8.661201567537901"><ele>156.0</ele><time>2026-03-29T12:08:12.001Z</time></trkpt><trkpt lat="44.682864281800015" lon="8.661317311525453"><ele>157.0</ele><time>2026-03-29T12:08:13.001Z</time></trkpt><trkpt lat="44.68311163374654" lon="8.661453783770252"><ele>157.0</ele><time>2026-03-29T12:08:14.001Z</time></trkpt><trkpt lat="44.68336249559602" lon="8.661590360289782"><ele>157.0</ele><time>2026-03-29T12:08:15.001Z</time></trkpt><trkpt lat="44.683611790950735" lon="8.661726006640377"><ele>158.0</ele><time>2026-03-29T12:08:16.001Z</time></trkpt><trkpt lat="44.68386245704633" lon="8.661866036976358"><ele>159.0</ele><time>2026-03-29T12:08:17.001Z</time></trkpt><trkpt lat="44.68411208404038" lon="8.662003473990437"><ele>157.0</ele><time>2026-03-29T12:08:18.001Z</time></trkpt><trkpt lat="44.68436324245976" lon="8.662143547988428"><ele>155.0</ele><time>2026-03-29T12:08:19.001Z</time></trkpt><trkpt lat="44.684612672448864" lon="8.662285037914954"><ele>155.0</ele><time>2026-03-29T12:08:20.001Z</time></trkpt><trkpt lat="44.68485970336925" lon="8.662426221418256"><ele>155.0</ele><time>2026-03-29T12:08:21.001Z</time></trkpt><trkpt lat="44.68510697001069" lon="8.662564226512899"><ele>155.5</ele><time>2026-03-29T12:08:22.001Z</time></trkpt><trkpt lat="44.68535828888687" lon="8.662704813399417"><ele>156.0</ele><time>2026-03-29T12:08:23.001Z</time></trkpt><trkpt lat="44.685611253767966" lon="8.662843327008508"><ele>156.5</ele><time>2026-03-29T12:08:24.001Z</time></trkpt><trkpt lat="44.68586084724266" lon="8.662981534413694"><ele>157.0</ele><time>2026-03-29T12:08:25.001Z</time></trkpt><trkpt lat="44.68611207218121" lon="8.663120445800825"><ele>157.0</ele><time>2026-03-29T12:08:26.001Z</time></trkpt><trkpt lat="44.68636435398721" lon="8.663263185775204"><ele>157.0</ele><time>2026-03-29T12:08:27.002Z</time></trkpt><trkpt lat="44.68661608074647" lon="8.663404577805567"><ele>157.0</ele><time>2026-03-29T12:08:28.002Z</time></trkpt><trkpt lat="44.68686839267553" lon="8.663544867706037"><ele>157.0</ele><time>2026-03-29T12:08:29.002Z</time></trkpt><trkpt lat="44.68712060784287" lon="8.663683306519614"><ele>157.0</ele><time>2026-03-29T12:08:30.002Z</time></trkpt><trkpt lat="44.68737448802146" lon="8.663822905856419"><ele>157.0</ele><time>2026-03-29T12:08:31.002Z</time></trkpt><trkpt lat="44.68762956190837" lon="8.663966041294975"><ele>159.0</ele><time>2026-03-29T12:08:32.002Z</time></trkpt><trkpt lat="44.6878826382131" lon="8.664110425859496"><ele>161.0</ele><time>2026-03-29T12:08:33.002Z</time></trkpt><trkpt lat="44.688138076665076" lon="8.664252890682551"><ele>161.0</ele><time>2026-03-29T12:08:34.002Z</time></trkpt><trkpt lat="44.68839114848715" lon="8.664395114160618"><ele>161.0</ele><time>2026-03-29T12:08:35.002Z</time></trkpt><trkpt lat="44.68864712864364" lon="8.664535353976246"><ele>159.5</ele><time>2026-03-29T12:08:36.002Z</time></trkpt><trkpt lat="44.688904536341724" lon="8.664667331165946"><ele>158.0</ele><time>2026-03-29T12:08:37.002Z</time></trkpt><trkpt lat="44.689166151412984" lon="8.664791061528863"><ele>158.0</ele><time>2026-03-29T12:08:38.002Z</time></trkpt><trkpt lat="44.68942876402739" lon="8.664906542985978"><ele>158.0</ele><time>2026-03-29T12:08:39.002Z</time></trkpt><trkpt lat="44.68969543650243" lon="8.665016529272263"><ele>158.0</ele><time>2026-03-29T12:08:40.002Z</time></trkpt><trkpt lat="44.68996354285134" lon="8.66511988838822"><ele>158.0</ele><time>2026-03-29T12:08:41.002Z</time></trkpt><trkpt lat="44.690231614648035" lon="8.665219413921776"><ele>158.5</ele><time>2026-03-29T12:08:42.002Z</time></trkpt><trkpt lat="44.690504486124745" lon="8.665311686063273"><ele>159.0</ele><time>2026-03-29T12:08:43.002Z</time></trkpt><trkpt lat="44.690783231956495" lon="8.665402869986371"><ele>159.0</ele><time>2026-03-29T12:08:44.002Z</time></trkpt><trkpt lat="44.69106144904123" lon="8.665466826759072"><ele>159.0</ele><time>2026-03-29T12:08:45.002Z</time></trkpt><trkpt lat="44.691340723012296" lon="8.665526458973677"><ele>156.5</ele><time>2026-03-29T12:08:46.002Z</time></trkpt><trkpt lat="44.69161883064877" lon="8.665581997678785"><ele>154.0</ele><time>2026-03-29T12:08:47.002Z</time></trkpt><trkpt lat="44.69190010652311" lon="8.66563179792915"><ele>152.0</ele><time>2026-03-29T12:08:48.002Z</time></trkpt><trkpt lat="44.69217874683168" lon="8.665685873961092"><ele>150.0</ele><time>2026-03-29T12:08:49.002Z</time></trkpt><trkpt lat="44.69245664968025" lon="8.665732222326344"><ele>150.0</ele><time>2026-03-29T12:08:50.002Z</time></trkpt><trkpt lat="44.69273803987298" lon="8.66577921981454"><ele>150.0</ele><time>2026-03-29T12:08:51.002Z</time></trkpt><trkpt lat="44.69301372851409" lon="8.665821787910245"><ele>149.0</ele><time>2026-03-29T12:08:52.002Z</time></trkpt><trkpt lat="44.69329259425392" lon="8.665871428419585"><ele>148.0</ele><time>2026-03-29T12:08:53.002Z</time></trkpt><trkpt lat="44.6935679211464" lon="8.665919594140234"><ele>149.0</ele><time>2026-03-29T12:08:54.002Z</time></trkpt><trkpt lat="44.693843943684165" lon="8.665960418428263"><ele>150.0</ele><time>2026-03-29T12:08:55.002Z</time></trkpt><trkpt lat="44.69411586962448" lon="8.666003355790739"><ele>150.0</ele><time>2026-03-29T12:08:56.002Z</time></trkpt><trkpt lat="44.69439054823298" lon="8.666047567324792"><ele>150.0</ele><time>2026-03-29T12:08:57.002Z</time></trkpt><trkpt lat="44.694659090844276" lon="8.666091077634135"><ele>149.0</ele><time>2026-03-29T12:08:58.002Z</time></trkpt><trkpt lat="44.69492896251814" lon="8.666137179748977"><ele>148.0</ele><time>2026-03-29T12:08:59.002Z</time></trkpt><trkpt lat="44.695197079891436" lon="8.666187586465353"><ele>147.0</ele><time>2026-03-29T12:09:00.002Z</time></trkpt><trkpt lat="44.69546941802896" lon="8.666236947409441"><ele>146.0</ele><time>2026-03-29T12:09:01.002Z</time></trkpt><trkpt lat="44.69574097556953" lon="8.666285350146003"><ele>146.0</ele><time>2026-03-29T12:09:02.002Z</time></trkpt><trkpt lat="44.69601882359991" lon="8.666329599176024"><ele>146.0</ele><time>2026-03-29T12:09:03.002Z</time></trkpt><trkpt lat="44.69629619549328" lon="8.666373153874266"><ele>145.5</ele><time>2026-03-29T12:09:04.002Z</time></trkpt><trkpt lat="44.69657157368617" lon="8.66642233896898"><ele>145.0</ele><time>2026-03-29T12:09:05.002Z</time></trkpt><trkpt lat="44.69684971966403" lon="8.66646968738464"><ele>145.0</ele><time>2026-03-29T12:09:06.002Z</time></trkpt><trkpt lat="44.69712646872708" lon="8.666517440842998"><ele>145.0</ele><time>2026-03-29T12:09:07.002Z</time></trkpt><trkpt lat="44.697400688224505" lon="8.666566213351683"><ele>145.0</ele><time>2026-03-29T12:09:08.002Z</time></trkpt><trkpt lat="44.69767776843347" lon="8.666613730811864"><ele>145.0</ele><time>2026-03-29T12:09:09.002Z</time></trkpt><trkpt lat="44.697949692756765" lon="8.666659730708107"><ele>145.0</ele><time>2026-03-29T12:09:10.002Z</time></trkpt><trkpt lat="44.69822874531726" lon="8.666707546077914"><ele>145.0</ele><time>2026-03-29T12:09:11.002Z</time></trkpt><trkpt lat="44.69850429474841" lon="8.666754674017675"><ele>146.0</ele><time>2026-03-29T12:09:12.002Z</time></trkpt><trkpt lat="44.69878345555847" lon="8.666802410345433"><ele>147.0</ele><time>2026-03-29T12:09:13.002Z</time></trkpt><trkpt lat="44.6990537040296" lon="8.666852219075201"><ele>147.0</ele><time>2026-03-29T12:09:14.002Z</time></trkpt><trkpt lat="44.69932909915257" lon="8.666899356784107"><ele>147.0</ele><time>2026-03-29T12:09:15.002Z</time></trkpt><trkpt lat="44.69960753822872" lon="8.666947216807872"><ele>145.5</ele><time>2026-03-29T12:09:16.002Z</time></trkpt><trkpt lat="44.69988222627349" lon="8.666995580255723"><ele>144.0</ele><time>2026-03-29T12:09:17.002Z</time></trkpt><trkpt lat="44.70015892159311" lon="8.667042657699676"><ele>145.5</ele><time>2026-03-29T12:09:18.003Z</time></trkpt><trkpt lat="44.70043231849465" lon="8.667087911210315"><ele>147.0</ele><time>2026-03-29T12:09:19.003Z</time></trkpt><trkpt lat="44.70070347206855" lon="8.667128997185912"><ele>147.0</ele><time>2026-03-29T12:09:20.003Z</time></trkpt><trkpt lat="44.70097861646864" lon="8.667173428250084"><ele>147.0</ele><time>2026-03-29T12:09:21.003Z</time></trkpt><trkpt lat="44.70124504798082" lon="8.667218466505279"><ele>144.5</ele><time>2026-03-29T12:09:22.003Z</time></trkpt><trkpt lat="44.70151429399597" lon="8.667263965614431"><ele>142.0</ele><time>2026-03-29T12:09:23.003Z</time></trkpt><trkpt lat="44.70177932511987" lon="8.667310703543667"><ele>142.0</ele><time>2026-03-29T12:09:24.003Z</time></trkpt><trkpt lat="44.702045666090434" lon="8.667356791544053"><ele>142.0</ele><time>2026-03-29T12:09:25.003Z</time></trkpt><trkpt lat="44.70230809751257" lon="8.667398182549373"><ele>142.0</ele><time>2026-03-29T12:09:26.003Z</time></trkpt><trkpt lat="44.70257205308026" lon="8.667440649407263"><ele>142.0</ele><time>2026-03-29T12:09:27.003Z</time></trkpt><trkpt lat="44.70283565851513" lon="8.66747966139895"><ele>141.5</ele><time>2026-03-29T12:09:28.003Z</time></trkpt><trkpt lat="44.70310182537683" lon="8.667519165530956"><ele>141.0</ele><time>2026-03-29T12:09:29.003Z</time></trkpt><trkpt lat="44.70336774076605" lon="8.667553053214979"><ele>141.5</ele><time>2026-03-29T12:09:30.003Z</time></trkpt><trkpt lat="44.703632337000435" lon="8.66758532762601"><ele>142.0</ele><time>2026-03-29T12:09:31.003Z</time></trkpt><trkpt lat="44.70390016874389" lon="8.667611022180965"><ele>142.0</ele><time>2026-03-29T12:09:32.003Z</time></trkpt><trkpt lat="44.70416609755497" lon="8.66762983454977"><ele>142.0</ele><time>2026-03-29T12:09:33.003Z</time></trkpt><trkpt lat="44.704435456919775" lon="8.66764631594195"><ele>141.5</ele><time>2026-03-29T12:09:34.003Z</time></trkpt><trkpt lat="44.70470635825983" lon="8.667660682421028"><ele>141.0</ele><time>2026-03-29T12:09:35.003Z</time></trkpt><trkpt lat="44.70497231409876" lon="8.667673829469031"><ele>141.0</ele><time>2026-03-29T12:09:36.003Z</time></trkpt><trkpt lat="44.70523570277678" lon="8.667685923997706"><ele>141.0</ele><time>2026-03-29T12:09:37.002Z</time></trkpt><trkpt lat="44.70549417937053" lon="8.667687322299162"><ele>142.0</ele><time>2026-03-29T12:09:38.002Z</time></trkpt><trkpt lat="44.7057441804194" lon="8.667681080042696"><ele>143.0</ele><time>2026-03-29T12:09:39.002Z</time></trkpt><trkpt lat="44.70600853011444" lon="8.667664470855948"><ele>142.5</ele><time>2026-03-29T12:09:40.002Z</time></trkpt><trkpt lat="44.70628562618785" lon="8.66763786463069"><ele>142.0</ele><time>2026-03-29T12:09:41.002Z</time></trkpt><trkpt lat="44.7065716221677" lon="8.667621326646755"><ele>142.0</ele><time>2026-03-29T12:09:42.002Z</time></trkpt><trkpt lat="44.70685837516764" lon="8.667607615138328"><ele>142.0</ele><time>2026-03-29T12:09:43.002Z</time></trkpt><trkpt lat="44.70713692220274" lon="8.66760036099358"><ele>142.5</ele><time>2026-03-29T12:09:44.002Z</time></trkpt><trkpt lat="44.707411830524656" lon="8.667590090520186"><ele>143.0</ele><time>2026-03-29T12:09:45.002Z</time></trkpt><trkpt lat="44.707685552689064" lon="8.667573401651186"><ele>142.5</ele><time>2026-03-29T12:09:46.001Z</time></trkpt><trkpt lat="44.70795470441759" lon="8.66754136462644"><ele>142.0</ele><time>2026-03-29T12:09:47.001Z</time></trkpt><trkpt lat="44.70822292870061" lon="8.667504006607045"><ele>142.0</ele><time>2026-03-29T12:09:48.001Z</time></trkpt><trkpt lat="44.70848906750558" lon="8.6674640597737"><ele>142.0</ele><time>2026-03-29T12:09:49.001Z</time></trkpt><trkpt lat="44.70874931802767" lon="8.66742408798808"><ele>142.0</ele><time>2026-03-29T12:09:50.001Z</time></trkpt><trkpt lat="44.709012710914386" lon="8.667383731567499"><ele>142.0</ele><time>2026-03-29T12:09:51.001Z</time></trkpt><trkpt lat="44.709276295874666" lon="8.66734350598352"><ele>141.0</ele><time>2026-03-29T12:09:52.001Z</time></trkpt><trkpt lat="44.709541401570036" lon="8.66730195171964"><ele>140.0</ele><time>2026-03-29T12:09:53.001Z</time></trkpt><trkpt lat="44.70979990370712" lon="8.667268666284297"><ele>140.0</ele><time>2026-03-29T12:09:54.001Z</time></trkpt><trkpt lat="44.71006286552375" lon="8.667232650795153"><ele>140.0</ele><time>2026-03-29T12:09:55.001Z</time></trkpt><trkpt lat="44.71032445653726" lon="8.66719319200017"><ele>140.5</ele><time>2026-03-29T12:09:56.001Z</time></trkpt><trkpt lat="44.71058733561207" lon="8.667153513846772"><ele>141.0</ele><time>2026-03-29T12:09:57.001Z</time></trkpt><trkpt lat="44.71085241215053" lon="8.667112515651331"><ele>141.5</ele><time>2026-03-29T12:09:58.001Z</time></trkpt><trkpt lat="44.71111714454532" lon="8.667072414736333"><ele>142.0</ele><time>2026-03-29T12:09:59.001Z</time></trkpt><trkpt lat="44.71137904192654" lon="8.66703492947717"><ele>142.0</ele><time>2026-03-29T12:10:00.001Z</time></trkpt><trkpt lat="44.71164434476372" lon="8.666996128470698"><ele>142.0</ele><time>2026-03-29T12:10:01.001Z</time></trkpt><trkpt lat="44.711908268000116" lon="8.666957610228211"><ele>141.0</ele><time>2026-03-29T12:10:02.001Z</time></trkpt><trkpt lat="44.71217073658974" lon="8.666919183716887"><ele>140.0</ele><time>2026-03-29T12:10:03.001Z</time></trkpt><trkpt lat="44.71243570753724" lon="8.666882653020284"><ele>140.0</ele><time>2026-03-29T12:10:04.001Z</time></trkpt><trkpt lat="44.71270235323282" lon="8.666847096122671"><ele>140.0</ele><time>2026-03-29T12:10:05.001Z</time></trkpt><trkpt lat="44.712963507538554" lon="8.666819782343318"><ele>140.0</ele><time>2026-03-29T12:10:06.001Z</time></trkpt><trkpt lat="44.71322629116945" lon="8.666799525547914"><ele>140.0</ele><time>2026-03-29T12:10:07.001Z</time></trkpt><trkpt lat="44.71349231034916" lon="8.666781232832676"><ele>140.5</ele><time>2026-03-29T12:10:08.001Z</time></trkpt><trkpt lat="44.71375585925753" lon="8.666765576516012"><ele>141.0</ele><time>2026-03-29T12:10:09.001Z</time></trkpt><trkpt lat="44.71402328524932" lon="8.666750492955822"><ele>141.0</ele><time>2026-03-29T12:10:10.001Z</time></trkpt><trkpt lat="44.714289889585146" lon="8.666740174824131"><ele>141.0</ele><time>2026-03-29T12:10:11.001Z</time></trkpt><trkpt lat="44.71455604096304" lon="8.666736013883224"><ele>140.5</ele><time>2026-03-29T12:10:12.001Z</time></trkpt><trkpt lat="44.71482315381644" lon="8.666735459124169"><ele>140.0</ele><time>2026-03-29T12:10:13.001Z</time></trkpt><trkpt lat="44.71509077205137" lon="8.666736959390425"><ele>139.0</ele><time>2026-03-29T12:10:14.001Z</time></trkpt><trkpt lat="44.71535804355587" lon="8.666742699967434"><ele>138.0</ele><time>2026-03-29T12:10:15.001Z</time></trkpt><trkpt lat="44.7156236849843" lon="8.666752532977084"><ele>138.0</ele><time>2026-03-29T12:10:16.001Z</time></trkpt><trkpt lat="44.71589188583821" lon="8.666765324154312"><ele>138.0</ele><time>2026-03-29T12:10:17.001Z</time></trkpt><trkpt lat="44.71615577417295" lon="8.666781727859185"><ele>137.5</ele><time>2026-03-29T12:10:18.001Z</time></trkpt><trkpt lat="44.716422346549194" lon="8.666803925295255"><ele>137.0</ele><time>2026-03-29T12:10:19.001Z</time></trkpt><trkpt lat="44.716689933834346" lon="8.666828044017448"><ele>139.5</ele><time>2026-03-29T12:10:20.001Z</time></trkpt><trkpt lat="44.716955620101594" lon="8.666855422513793"><ele>142.0</ele><time>2026-03-29T12:10:21.001Z</time></trkpt><trkpt lat="44.717220790246515" lon="8.666885264008144"><ele>142.0</ele><time>2026-03-29T12:10:22.001Z</time></trkpt><trkpt lat="44.71748205656648" lon="8.66692078738873"><ele>142.0</ele><time>2026-03-29T12:10:23.001Z</time></trkpt><trkpt lat="44.71774946477912" lon="8.666959996540871"><ele>140.5</ele><time>2026-03-29T12:10:24.001Z</time></trkpt><trkpt lat="44.71801026410315" lon="8.666998413075287"><ele>139.0</ele><time>2026-03-29T12:10:25.001Z</time></trkpt><trkpt lat="44.71827321088355" lon="8.667036073809564"><ele>139.0</ele><time>2026-03-29T12:10:26.001Z</time></trkpt><trkpt lat="44.718538301982704" lon="8.667072209354696"><ele>139.0</ele><time>2026-03-29T12:10:27.001Z</time></trkpt><trkpt lat="44.718805052293746" lon="8.66711113890682"><ele>140.5</ele><time>2026-03-29T12:10:28.001Z</time></trkpt><trkpt lat="44.71907060407826" lon="8.667150090041803"><ele>142.0</ele><time>2026-03-29T12:10:29.001Z</time></trkpt><trkpt lat="44.719335705879494" lon="8.66719010961339"><ele>141.5</ele><time>2026-03-29T12:10:30.001Z</time></trkpt><trkpt lat="44.719602587223775" lon="8.667228865218055"><ele>141.0</ele><time>2026-03-29T12:10:31.001Z</time></trkpt><trkpt lat="44.71986998172473" lon="8.667265905638933"><ele>141.0</ele><time>2026-03-29T12:10:32.001Z</time></trkpt><trkpt lat="44.72013520568691" lon="8.667300793296448"><ele>141.0</ele><time>2026-03-29T12:10:33.001Z</time></trkpt><trkpt lat="44.72040569745659" lon="8.667329515490103"><ele>141.0</ele><time>2026-03-29T12:10:34.001Z</time></trkpt><trkpt lat="44.72067781359534" lon="8.667349478937375"><ele>141.0</ele><time>2026-03-29T12:10:35.001Z</time></trkpt><trkpt lat="44.72095001078521" lon="8.667362068307497"><ele>141.0</ele><time>2026-03-29T12:10:36.001Z</time></trkpt><trkpt lat="44.72122152641719" lon="8.667370749244991"><ele>141.0</ele><time>2026-03-29T12:10:37.001Z</time></trkpt><trkpt lat="44.72149028683907" lon="8.667376921912947"><ele>141.0</ele><time>2026-03-29T12:10:38.001Z</time></trkpt><trkpt lat="44.72176146330418" lon="8.667382334364918"><ele>141.0</ele><time>2026-03-29T12:10:39.001Z</time></trkpt><trkpt lat="44.72203219906789" lon="8.66737679887103"><ele>141.0</ele><time>2026-03-29T12:10:40.001Z</time></trkpt><trkpt lat="44.72229608628603" lon="8.667359782696039"><ele>141.0</ele><time>2026-03-29T12:10:41.001Z</time></trkpt><trkpt lat="44.72256267370551" lon="8.667328973929207"><ele>140.0</ele><time>2026-03-29T12:10:42.001Z</time></trkpt><trkpt lat="44.72282986280715" lon="8.667286412051391"><ele>139.0</ele><time>2026-03-29T12:10:43.001Z</time></trkpt><trkpt lat="44.72309718357126" lon="8.667237656651226"><ele>139.0</ele><time>2026-03-29T12:10:44.001Z</time></trkpt><trkpt lat="44.72336276972409" lon="8.667182747846685"><ele>139.0</ele><time>2026-03-29T12:10:45.002Z</time></trkpt><trkpt lat="44.723630685354735" lon="8.667122237400184"><ele>140.0</ele><time>2026-03-29T12:10:46.002Z</time></trkpt><trkpt lat="44.7238993195166" lon="8.667055707608364"><ele>141.0</ele><time>2026-03-29T12:10:47.002Z</time></trkpt><trkpt lat="44.72416647506501" lon="8.666977757282652"><ele>143.0</ele><time>2026-03-29T12:10:48.002Z</time></trkpt><trkpt lat="44.724431757758964" lon="8.666892304952908"><ele>145.0</ele><time>2026-03-29T12:10:49.002Z</time></trkpt><trkpt lat="44.72469839831767" lon="8.666801085177243"><ele>145.0</ele><time>2026-03-29T12:10:50.002Z</time></trkpt><trkpt lat="44.72495644960505" lon="8.666693399641645"><ele>145.0</ele><time>2026-03-29T12:10:51.002Z</time></trkpt><trkpt lat="44.725216803562574" lon="8.666586974344725"><ele>143.0</ele><time>2026-03-29T12:10:52.002Z</time></trkpt><trkpt lat="44.72547427945743" lon="8.666475341465276"><ele>141.0</ele><time>2026-03-29T12:10:53.002Z</time></trkpt><trkpt lat="44.725727831219714" lon="8.666350083977553"><ele>141.0</ele><time>2026-03-29T12:10:54.002Z</time></trkpt><trkpt lat="44.72597805829528" lon="8.666224700786904"><ele>141.0</ele><time>2026-03-29T12:10:55.002Z</time></trkpt><trkpt lat="44.726228429210494" lon="8.666096090160023"><ele>140.5</ele><time>2026-03-29T12:10:56.002Z</time></trkpt><trkpt lat="44.726476992700846" lon="8.665954497318893"><ele>140.0</ele><time>2026-03-29T12:10:57.002Z</time></trkpt><trkpt lat="44.72672278415136" lon="8.665810939107212"><ele>140.0</ele><time>2026-03-29T12:10:58.002Z</time></trkpt><trkpt lat="44.726973910549084" lon="8.66567183816276"><ele>140.0</ele><time>2026-03-29T12:10:59.002Z</time></trkpt><trkpt lat="44.72722248992957" lon="8.665527660167864"><ele>140.0</ele><time>2026-03-29T12:11:00.002Z</time></trkpt><trkpt lat="44.727480207946215" lon="8.665379903942519"><ele>140.0</ele><time>2026-03-29T12:11:01.002Z</time></trkpt><trkpt lat="44.727735268955236" lon="8.665229763073452"><ele>142.0</ele><time>2026-03-29T12:11:02.002Z</time></trkpt><trkpt lat="44.72799289798411" lon="8.665081557107138"><ele>144.0</ele><time>2026-03-29T12:11:03.002Z</time></trkpt><trkpt lat="44.728251340192266" lon="8.664927473527998"><ele>144.0</ele><time>2026-03-29T12:11:04.002Z</time></trkpt><trkpt lat="44.728508455494676" lon="8.664775808089738"><ele>144.0</ele><time>2026-03-29T12:11:05.002Z</time></trkpt><trkpt lat="44.72875885047929" lon="8.664632584916436"><ele>144.0</ele><time>2026-03-29T12:11:06.002Z</time></trkpt><trkpt lat="44.72901291817083" lon="8.664486999192176"><ele>144.0</ele><time>2026-03-29T12:11:07.002Z</time></trkpt><trkpt lat="44.72926579117857" lon="8.66434160146166"><ele>145.0</ele><time>2026-03-29T12:11:08.002Z</time></trkpt><trkpt lat="44.72951901873499" lon="8.664197617318965"><ele>146.0</ele><time>2026-03-29T12:11:09.002Z</time></trkpt><trkpt lat="44.72977030081258" lon="8.664054669922255"><ele>146.0</ele><time>2026-03-29T12:11:10.002Z</time></trkpt><trkpt lat="44.730020802639565" lon="8.663909196828643"><ele>146.0</ele><time>2026-03-29T12:11:11.002Z</time></trkpt><trkpt lat="44.73027328097832" lon="8.66376151165336"><ele>144.5</ele><time>2026-03-29T12:11:12.002Z</time></trkpt><trkpt lat="44.73052410149191" lon="8.663617251309674"><ele>143.0</ele><time>2026-03-29T12:11:13.002Z</time></trkpt><trkpt lat="44.7307759911634" lon="8.663470397376424"><ele>143.0</ele><time>2026-03-29T12:11:14.002Z</time></trkpt><trkpt lat="44.73102744479823" lon="8.663323276990507"><ele>143.0</ele><time>2026-03-29T12:11:15.002Z</time></trkpt><trkpt lat="44.73127643111096" lon="8.663179450675184"><ele>143.0</ele><time>2026-03-29T12:11:16.002Z</time></trkpt><trkpt lat="44.73152837037569" lon="8.663037625156552"><ele>143.0</ele><time>2026-03-29T12:11:17.002Z</time></trkpt><trkpt lat="44.731782580093544" lon="8.662891897108832"><ele>143.0</ele><time>2026-03-29T12:11:18.002Z</time></trkpt><trkpt lat="44.732032560455416" lon="8.662745821841893"><ele>143.0</ele><time>2026-03-29T12:11:19.002Z</time></trkpt><trkpt lat="44.73227862381342" lon="8.662592469477458"><ele>143.0</ele><time>2026-03-29T12:11:20.002Z</time></trkpt><trkpt lat="44.7325223780139" lon="8.662426427134957"><ele>143.0</ele><time>2026-03-29T12:11:21.002Z</time></trkpt><trkpt lat="44.73276873551175" lon="8.662248425234132"><ele>143.0</ele><time>2026-03-29T12:11:22.002Z</time></trkpt><trkpt lat="44.733010986842004" lon="8.66206912905542"><ele>143.0</ele><time>2026-03-29T12:11:23.002Z</time></trkpt><trkpt lat="44.73324728098684" lon="8.661887634712912"><ele>143.0</ele><time>2026-03-29T12:11:24.002Z</time></trkpt><trkpt lat="44.73348421079393" lon="8.661696610191752"><ele>143.0</ele><time>2026-03-29T12:11:25.002Z</time></trkpt><trkpt lat="44.73371268500595" lon="8.661502247700769"><ele>143.0</ele><time>2026-03-29T12:11:26.002Z</time></trkpt><trkpt lat="44.73393858322906" lon="8.661300907506007"><ele>143.0</ele><time>2026-03-29T12:11:27.002Z</time></trkpt><trkpt lat="44.73416029828651" lon="8.661092857649267"><ele>143.0</ele><time>2026-03-29T12:11:28.002Z</time></trkpt><trkpt lat="44.734379097425645" lon="8.660881697798583"><ele>143.0</ele><time>2026-03-29T12:11:29.002Z</time></trkpt><trkpt lat="44.7345931754333" lon="8.660661379623942"><ele>143.0</ele><time>2026-03-29T12:11:30.002Z</time></trkpt><trkpt lat="44.734804768070546" lon="8.660441912256855"><ele>143.0</ele><time>2026-03-29T12:11:31.002Z</time></trkpt><trkpt lat="44.73501532907938" lon="8.660212152426944"><ele>143.5</ele><time>2026-03-29T12:11:32.002Z</time></trkpt><trkpt lat="44.73522003130465" lon="8.659975227064447"><ele>144.0</ele><time>2026-03-29T12:11:33.002Z</time></trkpt><trkpt lat="44.735420920147526" lon="8.659732085631264"><ele>144.0</ele><time>2026-03-29T12:11:34.002Z</time></trkpt><trkpt lat="44.7356211791892" lon="8.659480665743228"><ele>144.0</ele><time>2026-03-29T12:11:35.002Z</time></trkpt><trkpt lat="44.735817433402616" lon="8.659228922607715"><ele>144.0</ele><time>2026-03-29T12:11:36.002Z</time></trkpt><trkpt lat="44.736013134484296" lon="8.65897251182242"><ele>144.0</ele><time>2026-03-29T12:11:37.002Z</time></trkpt><trkpt lat="44.73620118855717" lon="8.658708808553424"><ele>144.5</ele><time>2026-03-29T12:11:38.002Z</time></trkpt><trkpt lat="44.73638824399063" lon="8.658441369525564"><ele>145.0</ele><time>2026-03-29T12:11:39.002Z</time></trkpt><trkpt lat="44.73657123048327" lon="8.65817122014038"><ele>145.0</ele><time>2026-03-29T12:11:40.002Z</time></trkpt><trkpt lat="44.73674875685341" lon="8.657895063164728"><ele>145.0</ele><time>2026-03-29T12:11:41.002Z</time></trkpt><trkpt lat="44.73692183899132" lon="8.657613266950918"><ele>145.0</ele><time>2026-03-29T12:11:42.002Z</time></trkpt><trkpt lat="44.7370884728799" lon="8.657330022271916"><ele>145.0</ele><time>2026-03-29T12:11:43.001Z</time></trkpt><trkpt lat="44.737253513613986" lon="8.657037200160298"><ele>145.5</ele><time>2026-03-29T12:11:44.001Z</time></trkpt><trkpt lat="44.737415408942034" lon="8.656742213992267"><ele>146.0</ele><time>2026-03-29T12:11:45.001Z</time></trkpt><trkpt lat="44.73757362741637" lon="8.656441239453244"><ele>146.5</ele><time>2026-03-29T12:11:46.001Z</time></trkpt><trkpt lat="44.73772989498093" lon="8.65613960340762"><ele>147.0</ele><time>2026-03-29T12:11:47.001Z</time></trkpt><trkpt lat="44.73788106284971" lon="8.655841785986317"><ele>147.0</ele><time>2026-03-29T12:11:48.001Z</time></trkpt><trkpt lat="44.73803325836543" lon="8.655539673001774"><ele>147.0</ele><time>2026-03-29T12:11:49.001Z</time></trkpt><trkpt lat="44.738185395883576" lon="8.655239395913437"><ele>148.0</ele><time>2026-03-29T12:11:50.001Z</time></trkpt><trkpt lat="44.73834225378137" lon="8.654941088445575"><ele>149.0</ele><time>2026-03-29T12:11:51.001Z</time></trkpt><trkpt lat="44.73850194836616" lon="8.654647099724295"><ele>148.0</ele><time>2026-03-29T12:11:52.001Z</time></trkpt><trkpt lat="44.73866628566682" lon="8.654355992148021"><ele>147.0</ele><time>2026-03-29T12:11:53.001Z</time></trkpt><trkpt lat="44.73883430179214" lon="8.654066177623651"><ele>147.0</ele><time>2026-03-29T12:11:54.001Z</time></trkpt><trkpt lat="44.73900662231288" lon="8.65378481945435"><ele>147.0</ele><time>2026-03-29T12:11:55.001Z</time></trkpt><trkpt lat="44.739184119426646" lon="8.653511123361717"><ele>147.5</ele><time>2026-03-29T12:11:56.001Z</time></trkpt><trkpt lat="44.73936919476174" lon="8.653246542733491"><ele>148.0</ele><time>2026-03-29T12:11:57.001Z</time></trkpt><trkpt lat="44.73956043097271" lon="8.652985083214237"><ele>147.5</ele><time>2026-03-29T12:11:58.001Z</time></trkpt><trkpt lat="44.73975896993361" lon="8.652728970029868"><ele>147.0</ele><time>2026-03-29T12:11:59.001Z</time></trkpt><trkpt lat="44.73996430264538" lon="8.65247616862012"><ele>147.0</ele><time>2026-03-29T12:12:00.001Z</time></trkpt><trkpt lat="44.7401728120685" lon="8.652229258420322"><ele>147.0</ele><time>2026-03-29T12:12:01.001Z</time></trkpt><trkpt lat="44.74038265889934" lon="8.651982906741589"><ele>146.5</ele><time>2026-03-29T12:12:02.001Z</time></trkpt><trkpt lat="44.7405977897042" lon="8.651746981058658"><ele>146.0</ele><time>2026-03-29T12:12:03.001Z</time></trkpt><trkpt lat="44.74081380411311" lon="8.651523350802936"><ele>146.0</ele><time>2026-03-29T12:12:04.001Z</time></trkpt><trkpt lat="44.741027574504564" lon="8.651315383034975"><ele>146.0</ele><time>2026-03-29T12:12:05.001Z</time></trkpt><trkpt lat="44.74124629889133" lon="8.651109912241356"><ele>146.5</ele><time>2026-03-29T12:12:06.001Z</time></trkpt><trkpt lat="44.74146912793362" lon="8.650912472395369"><ele>147.0</ele><time>2026-03-29T12:12:07.001Z</time></trkpt><trkpt lat="44.74169459468472" lon="8.650724949097041"><ele>144.5</ele><time>2026-03-29T12:12:08.001Z</time></trkpt><trkpt lat="44.74192293220706" lon="8.650550235800289"><ele>142.0</ele><time>2026-03-29T12:12:09.001Z</time></trkpt><trkpt lat="44.74215500001579" lon="8.65037942225765"><ele>142.5</ele><time>2026-03-29T12:12:10.001Z</time></trkpt><trkpt lat="44.742385738282486" lon="8.650223056790121"><ele>143.0</ele><time>2026-03-29T12:12:11.001Z</time></trkpt><trkpt lat="44.74262281079381" lon="8.650064646576325"><ele>142.5</ele><time>2026-03-29T12:12:12.001Z</time></trkpt><trkpt lat="44.742859439393705" lon="8.649919217615583"><ele>142.0</ele><time>2026-03-29T12:12:13.001Z</time></trkpt><trkpt lat="44.743102773159926" lon="8.649780058096272"><ele>142.0</ele><time>2026-03-29T12:12:14.001Z</time></trkpt><trkpt lat="44.743353187103715" lon="8.6496479701622"><ele>142.0</ele><time>2026-03-29T12:12:15.001Z</time></trkpt><trkpt lat="44.74360208914644" lon="8.649524546692101"><ele>143.5</ele><time>2026-03-29T12:12:16.001Z</time></trkpt><trkpt lat="44.74385614976115" lon="8.649406014997481"><ele>145.0</ele><time>2026-03-29T12:12:17.001Z</time></trkpt><trkpt lat="44.744111802171766" lon="8.649287913932417"><ele>145.0</ele><time>2026-03-29T12:12:18.001Z</time></trkpt><trkpt lat="44.7443646281755" lon="8.649171231114932"><ele>145.0</ele><time>2026-03-29T12:12:19.001Z</time></trkpt><trkpt lat="44.744617035187375" lon="8.649052535252086"><ele>143.0</ele><time>2026-03-29T12:12:20.001Z</time></trkpt><trkpt lat="44.744866784103195" lon="8.648930334691217"><ele>141.0</ele><time>2026-03-29T12:12:21.001Z</time></trkpt><trkpt lat="44.745119083970586" lon="8.64881066033308"><ele>141.0</ele><time>2026-03-29T12:12:22.001Z</time></trkpt><trkpt lat="44.74537319944722" lon="8.648689520303472"><ele>141.0</ele><time>2026-03-29T12:12:23.001Z</time></trkpt><trkpt lat="44.745619014784864" lon="8.648575961172922"><ele>141.5</ele><time>2026-03-29T12:12:24.001Z</time></trkpt><trkpt lat="44.745868477864846" lon="8.648463180050308"><ele>142.0</ele><time>2026-03-29T12:12:25.001Z</time></trkpt><trkpt lat="44.74611948186776" lon="8.648345924116578"><ele>142.0</ele><time>2026-03-29T12:12:26.001Z</time></trkpt><trkpt lat="44.746365644474956" lon="8.648235985518998"><ele>142.0</ele><time>2026-03-29T12:12:27.001Z</time></trkpt><trkpt lat="44.746610313839234" lon="8.64813183012386"><ele>142.0</ele><time>2026-03-29T12:12:28.001Z</time></trkpt><trkpt lat="44.7468620991401" lon="8.648021641222456"><ele>142.0</ele><time>2026-03-29T12:12:29.001Z</time></trkpt><trkpt lat="44.747112238693994" lon="8.64791248375533"><ele>141.0</ele><time>2026-03-29T12:12:30.001Z</time></trkpt><trkpt lat="44.74736400699535" lon="8.647807383627704"><ele>140.0</ele><time>2026-03-29T12:12:31.001Z</time></trkpt><trkpt lat="44.74761971441441" lon="8.647703944123014"><ele>141.0</ele><time>2026-03-29T12:12:32.001Z</time></trkpt><trkpt lat="44.747868823335516" lon="8.647609526087324"><ele>142.0</ele><time>2026-03-29T12:12:33.001Z</time></trkpt><trkpt lat="44.748117336381235" lon="8.64751999212781"><ele>142.0</ele><time>2026-03-29T12:12:34.001Z</time></trkpt><trkpt lat="44.74836316058629" lon="8.647442814868322"><ele>142.0</ele><time>2026-03-29T12:12:35.001Z</time></trkpt><trkpt lat="44.74860996844187" lon="8.647362845067422"><ele>141.0</ele><time>2026-03-29T12:12:36.001Z</time></trkpt><trkpt lat="44.74885763594249" lon="8.647285548550762"><ele>140.0</ele><time>2026-03-29T12:12:37.001Z</time></trkpt><trkpt lat="44.749106140731875" lon="8.64720340256976"><ele>140.0</ele><time>2026-03-29T12:12:38.001Z</time></trkpt><trkpt lat="44.74935592431324" lon="8.647126978535729"><ele>140.0</ele><time>2026-03-29T12:12:39.001Z</time></trkpt><trkpt lat="44.749606716201214" lon="8.647053026939917"><ele>139.5</ele><time>2026-03-29T12:12:40.001Z</time></trkpt><trkpt lat="44.74985763287817" lon="8.646981873400462"><ele>139.0</ele><time>2026-03-29T12:12:41.001Z</time></trkpt><trkpt lat="44.750106222434546" lon="8.64691536690975"><ele>141.0</ele><time>2026-03-29T12:12:42.001Z</time></trkpt><trkpt lat="44.75035856601174" lon="8.646852177675122"><ele>143.0</ele><time>2026-03-29T12:12:43.001Z</time></trkpt><trkpt lat="44.75061101582079" lon="8.646796548145153"><ele>143.0</ele><time>2026-03-29T12:12:44.001Z</time></trkpt><trkpt lat="44.75086177615971" lon="8.64674611739994"><ele>143.0</ele><time>2026-03-29T12:12:45.001Z</time></trkpt><trkpt lat="44.75110829179537" lon="8.646699704596175"><ele>143.0</ele><time>2026-03-29T12:12:46.001Z</time></trkpt><trkpt lat="44.75135127007168" lon="8.646656359801797"><ele>143.0</ele><time>2026-03-29T12:12:47.001Z</time></trkpt><trkpt lat="44.751590082680956" lon="8.64661849132052"><ele>143.0</ele><time>2026-03-29T12:12:48.001Z</time></trkpt><trkpt lat="44.75182633449081" lon="8.646578908742237"><ele>143.0</ele><time>2026-03-29T12:12:49.001Z</time></trkpt><trkpt lat="44.752062657707874" lon="8.64654001984839"><ele>143.0</ele><time>2026-03-29T12:12:50.001Z</time></trkpt><trkpt lat="44.75229969179455" lon="8.646502253563712"><ele>143.0</ele><time>2026-03-29T12:12:51.001Z</time></trkpt><trkpt lat="44.752538276490206" lon="8.646464303462718"><ele>143.5</ele><time>2026-03-29T12:12:52.001Z</time></trkpt><trkpt lat="44.752780740541" lon="8.646424790146833"><ele>144.0</ele><time>2026-03-29T12:12:53.001Z</time></trkpt><trkpt lat="44.753020824275424" lon="8.646385503183257"><ele>144.0</ele><time>2026-03-29T12:12:54.001Z</time></trkpt><trkpt lat="44.75326064739862" lon="8.64634781107898"><ele>144.0</ele><time>2026-03-29T12:12:55.001Z</time></trkpt><trkpt lat="44.753501991999045" lon="8.646308668165057"><ele>143.5</ele><time>2026-03-29T12:12:56.001Z</time></trkpt><trkpt lat="44.75374319879754" lon="8.646270743573035"><ele>143.0</ele><time>2026-03-29T12:12:57.001Z</time></trkpt><trkpt lat="44.75397893032082" lon="8.646239229186575"><ele>143.0</ele><time>2026-03-29T12:12:58.001Z</time></trkpt><trkpt lat="44.7542153625141" lon="8.64621240356648"><ele>143.0</ele><time>2026-03-29T12:12:59.001Z</time></trkpt><trkpt lat="44.75445878531602" lon="8.646169802214498"><ele>142.5</ele><time>2026-03-29T12:13:00.001Z</time></trkpt><trkpt lat="44.75469358017956" lon="8.64612682037447"><ele>142.0</ele><time>2026-03-29T12:13:01.001Z</time></trkpt><trkpt lat="44.754930019532964" lon="8.646090112291864"><ele>142.0</ele><time>2026-03-29T12:13:02.001Z</time></trkpt><trkpt lat="44.75516660187256" lon="8.646053076936745"><ele>142.0</ele><time>2026-03-29T12:13:03.001Z</time></trkpt><trkpt lat="44.75539589731225" lon="8.64602466751554"><ele>141.0</ele><time>2026-03-29T12:13:04.001Z</time></trkpt><trkpt lat="44.75562325057431" lon="8.645996659771779"><ele>140.0</ele><time>2026-03-29T12:13:05.001Z</time></trkpt><trkpt lat="44.7558502062984" lon="8.645965082030388"><ele>140.5</ele><time>2026-03-29T12:13:06.001Z</time></trkpt><trkpt lat="44.756074800734204" lon="8.64593304090302"><ele>141.0</ele><time>2026-03-29T12:13:07.001Z</time></trkpt><trkpt lat="44.75630478311464" lon="8.645897134641208"><ele>141.0</ele><time>2026-03-29T12:13:08.001Z</time></trkpt><trkpt lat="44.75653821610484" lon="8.645856851804279"><ele>141.0</ele><time>2026-03-29T12:13:09.001Z</time></trkpt><trkpt lat="44.75676960704547" lon="8.645818771714957"><ele>140.5</ele><time>2026-03-29T12:13:10.001Z</time></trkpt><trkpt lat="44.757000948600364" lon="8.645784368400033"><ele>140.0</ele><time>2026-03-29T12:13:11.001Z</time></trkpt><trkpt lat="44.757238181171125" lon="8.645744038800672"><ele>140.0</ele><time>2026-03-29T12:13:12.001Z</time></trkpt><trkpt lat="44.75747689570457" lon="8.645703828742409"><ele>140.0</ele><time>2026-03-29T12:13:13.001Z</time></trkpt><trkpt lat="44.75771433903902" lon="8.645663752999983"><ele>139.0</ele><time>2026-03-29T12:13:14.001Z</time></trkpt><trkpt lat="44.7579518813111" lon="8.64562337807023"><ele>138.0</ele><time>2026-03-29T12:13:15.002Z</time></trkpt><trkpt lat="44.75819167307127" lon="8.645584053157318"><ele>138.0</ele><time>2026-03-29T12:13:16.002Z</time></trkpt><trkpt lat="44.75843527684187" lon="8.645548311940972"><ele>138.0</ele><time>2026-03-29T12:13:17.002Z</time></trkpt><trkpt lat="44.75868135090264" lon="8.645520682383921"><ele>137.0</ele><time>2026-03-29T12:13:18.002Z</time></trkpt><trkpt lat="44.7589303895421" lon="8.645495642274602"><ele>136.0</ele><time>2026-03-29T12:13:19.002Z</time></trkpt><trkpt lat="44.75917921437401" lon="8.645483578102741"><ele>137.0</ele><time>2026-03-29T12:13:20.002Z</time></trkpt><trkpt lat="44.75942834272022" lon="8.645482793478584"><ele>138.0</ele><time>2026-03-29T12:13:21.002Z</time></trkpt><trkpt lat="44.759677569053935" lon="8.645496121073949"><ele>138.0</ele><time>2026-03-29T12:13:22.002Z</time></trkpt><trkpt lat="44.75992543641113" lon="8.645522314169899"><ele>138.0</ele><time>2026-03-29T12:13:23.002Z</time></trkpt><trkpt lat="44.76016947449623" lon="8.645562011519589"><ele>138.0</ele><time>2026-03-29T12:13:24.002Z</time></trkpt><trkpt lat="44.76041342698139" lon="8.645610855294281"><ele>138.0</ele><time>2026-03-29T12:13:25.002Z</time></trkpt><trkpt lat="44.760658741106" lon="8.645675203832745"><ele>138.0</ele><time>2026-03-29T12:13:26.002Z</time></trkpt><trkpt lat="44.760900561901565" lon="8.64575374106435"><ele>138.0</ele><time>2026-03-29T12:13:27.002Z</time></trkpt><trkpt lat="44.76113937110712" lon="8.645848361511327"><ele>138.5</ele><time>2026-03-29T12:13:28.002Z</time></trkpt><trkpt lat="44.76135660147701" lon="8.645954903263487"><ele>139.0</ele><time>2026-03-29T12:13:29.002Z</time></trkpt><trkpt lat="44.76156107307026" lon="8.646082302301789"><ele>139.0</ele><time>2026-03-29T12:13:30.002Z</time></trkpt><trkpt lat="44.76176543397333" lon="8.646235610870544"><ele>139.0</ele><time>2026-03-29T12:13:31.002Z</time></trkpt><trkpt lat="44.76197044204596" lon="8.64639495069014"><ele>139.0</ele><time>2026-03-29T12:13:32.002Z</time></trkpt><trkpt lat="44.76217461971508" lon="8.646565916125708"><ele>139.0</ele><time>2026-03-29T12:13:33.002Z</time></trkpt><trkpt lat="44.76237338018396" lon="8.646750402287216"><ele>139.0</ele><time>2026-03-29T12:13:34.002Z</time></trkpt><trkpt lat="44.762566186810375" lon="8.646952787364343"><ele>139.0</ele><time>2026-03-29T12:13:35.002Z</time></trkpt><trkpt lat="44.762749866497046" lon="8.647171320752227"><ele>138.5</ele><time>2026-03-29T12:13:36.002Z</time></trkpt><trkpt lat="44.76292904697046" lon="8.647403841583953"><ele>138.0</ele><time>2026-03-29T12:13:37.002Z</time></trkpt><trkpt lat="44.763101404034344" lon="8.647645617994995"><ele>138.0</ele><time>2026-03-29T12:13:38.002Z</time></trkpt><trkpt lat="44.76326815118846" lon="8.647896902500166"><ele>138.0</ele><time>2026-03-29T12:13:39.002Z</time></trkpt><trkpt lat="44.7634289010653" lon="8.648159646617533"><ele>136.0</ele><time>2026-03-29T12:13:40.002Z</time></trkpt><trkpt lat="44.76358273550802" lon="8.648431111196802"><ele>134.0</ele><time>2026-03-29T12:13:41.002Z</time></trkpt><trkpt lat="44.763732346903936" lon="8.648708791583609"><ele>134.0</ele><time>2026-03-29T12:13:42.002Z</time></trkpt><trkpt lat="44.763880064648944" lon="8.648989725105976"><ele>134.0</ele><time>2026-03-29T12:13:43.002Z</time></trkpt><trkpt lat="44.764022112030254" lon="8.649268581768185"><ele>133.5</ele><time>2026-03-29T12:13:44.002Z</time></trkpt><trkpt lat="44.7641640857006" lon="8.64955289507211"><ele>133.0</ele><time>2026-03-29T12:13:45.002Z</time></trkpt><trkpt lat="44.76430088043674" lon="8.649848815652389"><ele>133.0</ele><time>2026-03-29T12:13:46.002Z</time></trkpt><trkpt lat="44.764430725726655" lon="8.650137245099446"><ele>133.0</ele><time>2026-03-29T12:13:47.002Z</time></trkpt><trkpt lat="44.76455869945427" lon="8.650429478749732"><ele>133.0</ele><time>2026-03-29T12:13:48.002Z</time></trkpt><trkpt lat="44.764686858751666" lon="8.650725428067956"><ele>133.0</ele><time>2026-03-29T12:13:49.001Z</time></trkpt><trkpt lat="44.76481261422075" lon="8.651018811107079"><ele>132.5</ele><time>2026-03-29T12:13:50.001Z</time></trkpt><trkpt lat="44.76493965795238" lon="8.651313070322637"><ele>132.0</ele><time>2026-03-29T12:13:51.001Z</time></trkpt><trkpt lat="44.76506632005597" lon="8.651605930558667"><ele>132.0</ele><time>2026-03-29T12:13:52.001Z</time></trkpt><trkpt lat="44.7651929989404" lon="8.651897694846411"><ele>132.0</ele><time>2026-03-29T12:13:53.001Z</time></trkpt><trkpt lat="44.765319938491785" lon="8.652192700944658"><ele>132.0</ele><time>2026-03-29T12:13:54.001Z</time></trkpt><trkpt lat="44.76544950037077" lon="8.65248977740275"><ele>132.0</ele><time>2026-03-29T12:13:55.001Z</time></trkpt><trkpt lat="44.76557670308185" lon="8.65278700895853"><ele>132.0</ele><time>2026-03-29T12:13:56.001Z</time></trkpt><trkpt lat="44.765707327982255" lon="8.65308544650817"><ele>132.0</ele><time>2026-03-29T12:13:57.001Z</time></trkpt><trkpt lat="44.765836662672676" lon="8.65338074141626"><ele>130.5</ele><time>2026-03-29T12:13:58.001Z</time></trkpt><trkpt lat="44.76597008839231" lon="8.653683588858732"><ele>129.0</ele><time>2026-03-29T12:13:59.001Z</time></trkpt><trkpt lat="44.7661013499935" lon="8.65398389188645"><ele>129.0</ele><time>2026-03-29T12:14:00.001Z</time></trkpt><trkpt lat="44.76622457700308" lon="8.654300089431159"><ele>129.0</ele><time>2026-03-29T12:14:01.001Z</time></trkpt><trkpt lat="44.766338565529864" lon="8.654601367564025"><ele>129.5</ele><time>2026-03-29T12:14:02.001Z</time></trkpt><trkpt lat="44.7664910399724" lon="8.654898308244174"><ele>130.0</ele><time>2026-03-29T12:14:03.001Z</time></trkpt><trkpt lat="44.76662127185127" lon="8.655195590186075"><ele>130.0</ele><time>2026-03-29T12:14:04.001Z</time></trkpt><trkpt lat="44.76675388380727" lon="8.655496252039443"><ele>130.0</ele><time>2026-03-29T12:14:05.001Z</time></trkpt><trkpt lat="44.766886987460445" lon="8.655794706863796"><ele>130.0</ele><time>2026-03-29T12:14:06.001Z</time></trkpt><trkpt lat="44.76701664862687" lon="8.656092998380721"><ele>130.0</ele><time>2026-03-29T12:14:07.001Z</time></trkpt><trkpt lat="44.7671492401983" lon="8.656392478022264"><ele>130.0</ele><time>2026-03-29T12:14:08.001Z</time></trkpt><trkpt lat="44.76727745208687" lon="8.65669216075758"><ele>130.0</ele><time>2026-03-29T12:14:09.001Z</time></trkpt><trkpt lat="44.76740762349059" lon="8.656994483357513"><ele>129.5</ele><time>2026-03-29T12:14:10.001Z</time></trkpt><trkpt lat="44.76754838765275" lon="8.657312025717408"><ele>129.0</ele><time>2026-03-29T12:14:11.001Z</time></trkpt><trkpt lat="44.76766763538146" lon="8.657603599769503"><ele>127.0</ele><time>2026-03-29T12:14:12.001Z</time></trkpt><trkpt lat="44.76779760079957" lon="8.657908482733184"><ele>125.0</ele><time>2026-03-29T12:14:13.001Z</time></trkpt><trkpt lat="44.76792907242257" lon="8.65820975403026"><ele>125.0</ele><time>2026-03-29T12:14:14.001Z</time></trkpt><trkpt lat="44.76805973798569" lon="8.658510882866306"><ele>125.0</ele><time>2026-03-29T12:14:15.001Z</time></trkpt><trkpt lat="44.76819495768746" lon="8.6588130472848"><ele>125.5</ele><time>2026-03-29T12:14:16.001Z</time></trkpt><trkpt lat="44.76832604155307" lon="8.65911610708654"><ele>126.0</ele><time>2026-03-29T12:14:17.001Z</time></trkpt><trkpt lat="44.7684562885678" lon="8.659419993757474"><ele>127.5</ele><time>2026-03-29T12:14:18.001Z</time></trkpt><trkpt lat="44.7685889588085" lon="8.659726566226071"><ele>129.0</ele><time>2026-03-29T12:14:19.001Z</time></trkpt><trkpt lat="44.76872243936095" lon="8.660033259682685"><ele>128.5</ele><time>2026-03-29T12:14:20.001Z</time></trkpt><trkpt lat="44.76885715638125" lon="8.6603424674604"><ele>128.0</ele><time>2026-03-29T12:14:21.001Z</time></trkpt><trkpt lat="44.76899417561277" lon="8.660656697772664"><ele>128.0</ele><time>2026-03-29T12:14:22.001Z</time></trkpt><trkpt lat="44.769130981507814" lon="8.660966934732024"><ele>128.0</ele><time>2026-03-29T12:14:23.001Z</time></trkpt><trkpt lat="44.76927646854073" lon="8.661277231353262"><ele>126.0</ele><time>2026-03-29T12:14:24.001Z</time></trkpt><trkpt lat="44.769423399267666" lon="8.661596975336307"><ele>124.0</ele><time>2026-03-29T12:14:25.001Z</time></trkpt><trkpt lat="44.769535509618684" lon="8.661893398356389"><ele>123.0</ele><time>2026-03-29T12:14:26.001Z</time></trkpt><trkpt lat="44.76966936239382" lon="8.662210188427519"><ele>122.0</ele><time>2026-03-29T12:14:27.001Z</time></trkpt><trkpt lat="44.76980134598692" lon="8.662520349336734"><ele>121.5</ele><time>2026-03-29T12:14:28.001Z</time></trkpt><trkpt lat="44.76993374329257" lon="8.662829893460401"><ele>121.0</ele><time>2026-03-29T12:14:29.001Z</time></trkpt><trkpt lat="44.77006571568141" lon="8.663137488724006"><ele>121.0</ele><time>2026-03-29T12:14:30.001Z</time></trkpt><trkpt lat="44.77019752298778" lon="8.66344547519528"><ele>121.0</ele><time>2026-03-29T12:14:31.001Z</time></trkpt><trkpt lat="44.77033636709311" lon="8.663754008300895"><ele>121.0</ele><time>2026-03-29T12:14:32.001Z</time></trkpt><trkpt lat="44.770468578974096" lon="8.664058805270544"><ele>121.0</ele><time>2026-03-29T12:14:33.001Z</time></trkpt><trkpt lat="44.77060283923175" lon="8.664368020015978"><ele>121.0</ele><time>2026-03-29T12:14:34.001Z</time></trkpt><trkpt lat="44.77073671473972" lon="8.664674669656662"><ele>121.0</ele><time>2026-03-29T12:14:35.001Z</time></trkpt><trkpt lat="44.77087056457414" lon="8.664980610405953"><ele>121.5</ele><time>2026-03-29T12:14:36.001Z</time></trkpt><trkpt lat="44.77100198137507" lon="8.665283128030001"><ele>122.0</ele><time>2026-03-29T12:14:37.001Z</time></trkpt><trkpt lat="44.771133977836655" lon="8.665591315345901"><ele>122.5</ele><time>2026-03-29T12:14:38.001Z</time></trkpt><trkpt lat="44.77126186403251" lon="8.665898979193882"><ele>123.0</ele><time>2026-03-29T12:14:39.001Z</time></trkpt><trkpt lat="44.771393776698794" lon="8.666207851071759"><ele>121.5</ele><time>2026-03-29T12:14:40.001Z</time></trkpt><trkpt lat="44.77152910469751" lon="8.66651779119594"><ele>120.0</ele><time>2026-03-29T12:14:41.001Z</time></trkpt><trkpt lat="44.77166596574765" lon="8.666822100033578"><ele>120.0</ele><time>2026-03-29T12:14:42.001Z</time></trkpt><trkpt lat="44.77180170718206" lon="8.667129164588175"><ele>120.0</ele><time>2026-03-29T12:14:43.001Z</time></trkpt><trkpt lat="44.77193494116154" lon="8.667438573576028"><ele>120.0</ele><time>2026-03-29T12:14:44.001Z</time></trkpt><trkpt lat="44.77207018104373" lon="8.667746044619866"><ele>120.0</ele><time>2026-03-29T12:14:45.001Z</time></trkpt><trkpt lat="44.77220394664743" lon="8.668055393268308"><ele>120.5</ele><time>2026-03-29T12:14:46.001Z</time></trkpt><trkpt lat="44.772340217440664" lon="8.668369834264938"><ele>121.0</ele><time>2026-03-29T12:14:47.001Z</time></trkpt><trkpt lat="44.77246864588811" lon="8.668680072817516"><ele>121.0</ele><time>2026-03-29T12:14:48.001Z</time></trkpt><trkpt lat="44.77260950377348" lon="8.66899655033216"><ele>121.0</ele><time>2026-03-29T12:14:49.001Z</time></trkpt><trkpt lat="44.77275439755449" lon="8.669316386391932"><ele>121.0</ele><time>2026-03-29T12:14:50.001Z</time></trkpt><trkpt lat="44.77287479486542" lon="8.66961340638237"><ele>121.0</ele><time>2026-03-29T12:14:51.001Z</time></trkpt><trkpt lat="44.77299998998945" lon="8.66991851901389"><ele>121.0</ele><time>2026-03-29T12:14:52.001Z</time></trkpt><trkpt lat="44.77314039626761" lon="8.670232677918246"><ele>121.0</ele><time>2026-03-29T12:14:53.001Z</time></trkpt><trkpt lat="44.77327393510622" lon="8.670541853001689"><ele>121.0</ele><time>2026-03-29T12:14:54.001Z</time></trkpt><trkpt lat="44.77340968750082" lon="8.670849620036755"><ele>121.0</ele><time>2026-03-29T12:14:55.001Z</time></trkpt><trkpt lat="44.7735358663062" lon="8.671151244144422"><ele>121.5</ele><time>2026-03-29T12:14:56.001Z</time></trkpt><trkpt lat="44.77366676790372" lon="8.671452466191518"><ele>122.0</ele><time>2026-03-29T12:14:57.001Z</time></trkpt><trkpt lat="44.77379413072575" lon="8.671757121585115"><ele>122.5</ele><time>2026-03-29T12:14:58.001Z</time></trkpt><trkpt lat="44.77392256445758" lon="8.672063520063503"><ele>123.0</ele><time>2026-03-29T12:14:59.001Z</time></trkpt><trkpt lat="44.77404631619867" lon="8.672370196356047"><ele>123.0</ele><time>2026-03-29T12:15:00.001Z</time></trkpt><trkpt lat="44.77416782720884" lon="8.672685420438405"><ele>123.0</ele><time>2026-03-29T12:15:01.001Z</time></trkpt><trkpt lat="44.7742841327985" lon="8.673002868051588"><ele>122.5</ele><time>2026-03-29T12:15:02.001Z</time></trkpt><trkpt lat="44.774401340482626" lon="8.673323994777633"><ele>122.0</ele><time>2026-03-29T12:15:03.001Z</time></trkpt><trkpt lat="44.774513168828804" lon="8.673647332993642"><ele>122.0</ele><time>2026-03-29T12:15:04.001Z</time></trkpt><trkpt lat="44.77462156372823" lon="8.673973534444338"><ele>122.0</ele><time>2026-03-29T12:15:05.001Z</time></trkpt><trkpt lat="44.77472586048722" lon="8.674301365265272"><ele>123.0</ele><time>2026-03-29T12:15:06.001Z</time></trkpt><trkpt lat="44.7748265588222" lon="8.674633566129431"><ele>124.0</ele><time>2026-03-29T12:15:07.001Z</time></trkpt><trkpt lat="44.77492173619104" lon="8.674964712951978"><ele>123.5</ele><time>2026-03-29T12:15:08.001Z</time></trkpt><trkpt lat="44.77501605143064" lon="8.675300264694085"><ele>123.0</ele><time>2026-03-29T12:15:09.001Z</time></trkpt><trkpt lat="44.77510455183437" lon="8.675636663134885"><ele>122.5</ele><time>2026-03-29T12:15:10.001Z</time></trkpt><trkpt lat="44.77519254133292" lon="8.675978838561088"><ele>122.0</ele><time>2026-03-29T12:15:11.001Z</time></trkpt><trkpt lat="44.77527796950547" lon="8.67632384601154"><ele>122.0</ele><time>2026-03-29T12:15:12.001Z</time></trkpt><trkpt lat="44.77536100407885" lon="8.676670397296814"><ele>122.0</ele><time>2026-03-29T12:15:13.001Z</time></trkpt><trkpt lat="44.775443786965866" lon="8.677024516695129"><ele>122.0</ele><time>2026-03-29T12:15:14.001Z</time></trkpt><trkpt lat="44.77552064136756" lon="8.677382526410442"><ele>122.0</ele><time>2026-03-29T12:15:15.001Z</time></trkpt><trkpt lat="44.77559238472213" lon="8.677744339068553"><ele>122.0</ele><time>2026-03-29T12:15:16.001Z</time></trkpt><trkpt lat="44.77566043075066" lon="8.678106725401559"><ele>122.0</ele><time>2026-03-29T12:15:17.001Z</time></trkpt><trkpt lat="44.77572559300311" lon="8.678471744451999"><ele>122.0</ele><time>2026-03-29T12:15:18.001Z</time></trkpt><trkpt lat="44.77578452662103" lon="8.678835838095292"><ele>122.0</ele><time>2026-03-29T12:15:19.001Z</time></trkpt><trkpt lat="44.77584292761699" lon="8.679203322102648"><ele>122.5</ele><time>2026-03-29T12:15:20.001Z</time></trkpt><trkpt lat="44.77589670272325" lon="8.679569327660351"><ele>123.0</ele><time>2026-03-29T12:15:21.001Z</time></trkpt><trkpt lat="44.77594459476715" lon="8.679934587318353"><ele>122.5</ele><time>2026-03-29T12:15:22.001Z</time></trkpt><trkpt lat="44.77598896629197" lon="8.680299569110408"><ele>122.0</ele><time>2026-03-29T12:15:23.001Z</time></trkpt><trkpt lat="44.7760282543916" lon="8.680663298200406"><ele>122.0</ele><time>2026-03-29T12:15:24.001Z</time></trkpt><trkpt lat="44.77606575803983" lon="8.681026438981938"><ele>122.0</ele><time>2026-03-29T12:15:25.001Z</time></trkpt><trkpt lat="44.77610520557021" lon="8.681387409134024"><ele>122.0</ele><time>2026-03-29T12:15:26.001Z</time></trkpt><trkpt lat="44.77615270242328" lon="8.681749778868134"><ele>122.0</ele><time>2026-03-29T12:15:27.001Z</time></trkpt><trkpt lat="44.77619978538202" lon="8.68210283135488"><ele>121.5</ele><time>2026-03-29T12:15:28.001Z</time></trkpt><trkpt lat="44.77622969090477" lon="8.682454433268068"><ele>121.0</ele><time>2026-03-29T12:15:29.001Z</time></trkpt><trkpt lat="44.77627573452762" lon="8.682814619507731"><ele>122.5</ele><time>2026-03-29T12:15:30.001Z</time></trkpt><trkpt lat="44.77632418292436" lon="8.683179389961381"><ele>124.0</ele><time>2026-03-29T12:15:31.001Z</time></trkpt><trkpt lat="44.776358223211446" lon="8.683537369194"><ele>125.5</ele><time>2026-03-29T12:15:32.001Z</time></trkpt><trkpt lat="44.77639938632242" lon="8.683896693309409"><ele>127.0</ele><time>2026-03-29T12:15:33.001Z</time></trkpt><trkpt lat="44.77644018154224" lon="8.68426049747174"><ele>128.5</ele><time>2026-03-29T12:15:34.001Z</time></trkpt><trkpt lat="44.77647493861248" lon="8.684621947496984"><ele>130.0</ele><time>2026-03-29T12:15:35.001Z</time></trkpt><trkpt lat="44.776516908093136" lon="8.684984330246014"><ele>131.5</ele><time>2026-03-29T12:15:36.001Z</time></trkpt><trkpt lat="44.776556216271736" lon="8.685350853308393"><ele>133.0</ele><time>2026-03-29T12:15:37.001Z</time></trkpt><trkpt lat="44.77659549526229" lon="8.685718994067672"><ele>133.0</ele><time>2026-03-29T12:15:38.001Z</time></trkpt><trkpt lat="44.7766404053083" lon="8.686087124306809"><ele>133.0</ele><time>2026-03-29T12:15:39.001Z</time></trkpt><trkpt lat="44.776679815500366" lon="8.68645377971121"><ele>134.5</ele><time>2026-03-29T12:15:40.001Z</time></trkpt><trkpt lat="44.776723155719004" lon="8.686821337272688"><ele>136.0</ele><time>2026-03-29T12:15:41.001Z</time></trkpt><trkpt lat="44.77676551240352" lon="8.687188551072724"><ele>136.5</ele><time>2026-03-29T12:15:42.001Z</time></trkpt><trkpt lat="44.77680817966452" lon="8.687556013542928"><ele>137.0</ele><time>2026-03-29T12:15:43.001Z</time></trkpt><trkpt lat="44.77685252262602" lon="8.687926606075044"><ele>138.0</ele><time>2026-03-29T12:15:44.001Z</time></trkpt><trkpt lat="44.77689492988382" lon="8.688291163668731"><ele>139.0</ele><time>2026-03-29T12:15:45.001Z</time></trkpt><trkpt lat="44.77693893543283" lon="8.688654103571144"><ele>140.0</ele><time>2026-03-29T12:15:46.001Z</time></trkpt><trkpt lat="44.776987823778725" lon="8.689021071893958"><ele>141.0</ele><time>2026-03-29T12:15:47.001Z</time></trkpt><trkpt lat="44.77704035648894" lon="8.68938490928984"><ele>142.0</ele><time>2026-03-29T12:15:48.001Z</time></trkpt><trkpt lat="44.77709437445109" lon="8.689749892252827"><ele>143.0</ele><time>2026-03-29T12:15:49.001Z</time></trkpt><trkpt lat="44.77714844830461" lon="8.690114629184164"><ele>143.5</ele><time>2026-03-29T12:15:50.001Z</time></trkpt><trkpt lat="44.777200749286095" lon="8.690476950786577"><ele>144.0</ele><time>2026-03-29T12:15:51.001Z</time></trkpt><trkpt lat="44.77725961378668" lon="8.69083809264654"><ele>143.5</ele><time>2026-03-29T12:15:52.001Z</time></trkpt><trkpt lat="44.77732177833749" lon="8.691205020592742"><ele>143.0</ele><time>2026-03-29T12:15:53.001Z</time></trkpt><trkpt lat="44.77738269714775" lon="8.691567673571544"><ele>143.0</ele><time>2026-03-29T12:15:54.001Z</time></trkpt><trkpt lat="44.77744176834127" lon="8.691927520787724"><ele>143.0</ele><time>2026-03-29T12:15:55.001Z</time></trkpt><trkpt lat="44.77750519415497" lon="8.692287812410799"><ele>143.0</ele><time>2026-03-29T12:15:56.001Z</time></trkpt><trkpt lat="44.777570120179334" lon="8.692648333440996"><ele>143.0</ele><time>2026-03-29T12:15:57.001Z</time></trkpt><trkpt lat="44.77763402321253" lon="8.69300786297054"><ele>144.0</ele><time>2026-03-29T12:15:58.001Z</time></trkpt><trkpt lat="44.77770193376737" lon="8.693365749963151"><ele>145.0</ele><time>2026-03-29T12:15:59.001Z</time></trkpt><trkpt lat="44.777773206078216" lon="8.693724087213715"><ele>145.5</ele><time>2026-03-29T12:16:00.001Z</time></trkpt><trkpt lat="44.777841889121184" lon="8.694080448365057"><ele>146.0</ele><time>2026-03-29T12:16:01.001Z</time></trkpt><trkpt lat="44.77791426286427" lon="8.6944341246084"><ele>146.0</ele><time>2026-03-29T12:16:02.001Z</time></trkpt><trkpt lat="44.77798745043515" lon="8.694785976268605"><ele>146.0</ele><time>2026-03-29T12:16:03.001Z</time></trkpt><trkpt lat="44.77806530834514" lon="8.69514060431608"><ele>146.0</ele><time>2026-03-29T12:16:04.001Z</time></trkpt><trkpt lat="44.77813743164834" lon="8.695499664142725"><ele>146.0</ele><time>2026-03-29T12:16:05.001Z</time></trkpt><trkpt lat="44.77821948728916" lon="8.695844977868564"><ele>145.0</ele><time>2026-03-29T12:16:06.001Z</time></trkpt><trkpt lat="44.7782998724624" lon="8.696198893503304"><ele>144.0</ele><time>2026-03-29T12:16:07.001Z</time></trkpt><trkpt lat="44.77837519810849" lon="8.696550783717464"><ele>144.0</ele><time>2026-03-29T12:16:08.001Z</time></trkpt><trkpt lat="44.77845216786862" lon="8.696902889741217"><ele>144.0</ele><time>2026-03-29T12:16:09.001Z</time></trkpt><trkpt lat="44.77853638177873" lon="8.697253527521534"><ele>145.5</ele><time>2026-03-29T12:16:10.001Z</time></trkpt><trkpt lat="44.7786228205294" lon="8.697604308109684"><ele>147.0</ele><time>2026-03-29T12:16:11.001Z</time></trkpt><trkpt lat="44.77870852356398" lon="8.697954464122443"><ele>147.0</ele><time>2026-03-29T12:16:12.001Z</time></trkpt><trkpt lat="44.778797582756106" lon="8.698303900191751"><ele>147.0</ele><time>2026-03-29T12:16:13.001Z</time></trkpt><trkpt lat="44.778886746330436" lon="8.69865225253862"><ele>147.0</ele><time>2026-03-29T12:16:14.001Z</time></trkpt><trkpt lat="44.77897931120156" lon="8.698997868779472"><ele>147.0</ele><time>2026-03-29T12:16:15.001Z</time></trkpt><trkpt lat="44.7790701014002" lon="8.699341982881032"><ele>147.5</ele><time>2026-03-29T12:16:16.001Z</time></trkpt><trkpt lat="44.77916522896366" lon="8.69968506868554"><ele>148.0</ele><time>2026-03-29T12:16:17.001Z</time></trkpt><trkpt lat="44.77925847663094" lon="8.700024783195637"><ele>147.5</ele><time>2026-03-29T12:16:18.001Z</time></trkpt><trkpt lat="44.779351348360144" lon="8.70036584977804"><ele>147.0</ele><time>2026-03-29T12:16:19.001Z</time></trkpt><trkpt lat="44.77945438770987" lon="8.700701171236481"><ele>147.0</ele><time>2026-03-29T12:16:20.001Z</time></trkpt><trkpt lat="44.779556169555654" lon="8.701036329575382"><ele>147.0</ele><time>2026-03-29T12:16:21.001Z</time></trkpt><trkpt lat="44.77964145362049" lon="8.701371975739214"><ele>147.5</ele><time>2026-03-29T12:16:22.001Z</time></trkpt><trkpt lat="44.7797369183082" lon="8.701702180515673"><ele>148.0</ele><time>2026-03-29T12:16:23.001Z</time></trkpt><trkpt lat="44.77982767135912" lon="8.702035299565054"><ele>148.0</ele><time>2026-03-29T12:16:24.001Z</time></trkpt><trkpt lat="44.779920184312786" lon="8.7023663201129"><ele>148.0</ele><time>2026-03-29T12:16:25.001Z</time></trkpt><trkpt lat="44.78001336242631" lon="8.702696170274777"><ele>148.0</ele><time>2026-03-29T12:16:26.001Z</time></trkpt><trkpt lat="44.78010926026542" lon="8.703025211998433"><ele>148.0</ele><time>2026-03-29T12:16:27.001Z</time></trkpt><trkpt lat="44.78020306523319" lon="8.703355436272856"><ele>148.5</ele><time>2026-03-29T12:16:28.001Z</time></trkpt><trkpt lat="44.780297510465175" lon="8.703686030345372"><ele>149.0</ele><time>2026-03-29T12:16:29.001Z</time></trkpt><trkpt lat="44.78039141004035" lon="8.7040173635202"><ele>149.0</ele><time>2026-03-29T12:16:30.001Z</time></trkpt><trkpt lat="44.78048544740888" lon="8.704349549743455"><ele>149.0</ele><time>2026-03-29T12:16:31.001Z</time></trkpt><trkpt lat="44.7805790334884" lon="8.704679189576597"><ele>149.5</ele><time>2026-03-29T12:16:32.001Z</time></trkpt><trkpt lat="44.78067346382788" lon="8.705008108068522"><ele>150.0</ele><time>2026-03-29T12:16:33.001Z</time></trkpt><trkpt lat="44.78076680689808" lon="8.705336412807709"><ele>150.5</ele><time>2026-03-29T12:16:34.001Z</time></trkpt><trkpt lat="44.780859524808854" lon="8.705665196143698"><ele>151.0</ele><time>2026-03-29T12:16:35.001Z</time></trkpt><trkpt lat="44.78095309558908" lon="8.705993073428461"><ele>151.0</ele><time>2026-03-29T12:16:36.001Z</time></trkpt><trkpt lat="44.78104629099258" lon="8.70631914759002"><ele>151.0</ele><time>2026-03-29T12:16:37.001Z</time></trkpt><trkpt lat="44.78113753306317" lon="8.70664177057644"><ele>151.5</ele><time>2026-03-29T12:16:38.001Z</time></trkpt><trkpt lat="44.7812297650158" lon="8.706964013571602"><ele>152.0</ele><time>2026-03-29T12:16:39.001Z</time></trkpt><trkpt lat="44.781323863212485" lon="8.707284112435607"><ele>152.0</ele><time>2026-03-29T12:16:40.001Z</time></trkpt><trkpt lat="44.781419513528185" lon="8.707607535157903"><ele>152.0</ele><time>2026-03-29T12:16:41.001Z</time></trkpt><trkpt lat="44.78150766536432" lon="8.707931631656258"><ele>153.0</ele><time>2026-03-29T12:16:42.001Z</time></trkpt><trkpt lat="44.78160367972206" lon="8.708257802473407"><ele>154.0</ele><time>2026-03-29T12:16:43.001Z</time></trkpt><trkpt lat="44.78170320486576" lon="8.70858517634179"><ele>154.0</ele><time>2026-03-29T12:16:44.001Z</time></trkpt><trkpt lat="44.78180276464568" lon="8.708917116029594"><ele>154.0</ele><time>2026-03-29T12:16:45.001Z</time></trkpt><trkpt lat="44.78190597808762" lon="8.709247745203855"><ele>153.0</ele><time>2026-03-29T12:16:46.001Z</time></trkpt><trkpt lat="44.78201590502258" lon="8.709585059895453"><ele>152.0</ele><time>2026-03-29T12:16:47.001Z</time></trkpt><trkpt lat="44.782117139997915" lon="8.709923957034242"><ele>151.5</ele><time>2026-03-29T12:16:48.001Z</time></trkpt><trkpt lat="44.782214199150665" lon="8.710261749266717"><ele>151.0</ele><time>2026-03-29T12:16:49.001Z</time></trkpt><trkpt lat="44.782304904821736" lon="8.71059871464235"><ele>151.0</ele><time>2026-03-29T12:16:50.001Z</time></trkpt><trkpt lat="44.78238990309996" lon="8.710934951235913"><ele>151.0</ele><time>2026-03-29T12:16:51.001Z</time></trkpt><trkpt lat="44.78248453543884" lon="8.711274708985247"><ele>151.0</ele><time>2026-03-29T12:16:52.001Z</time></trkpt><trkpt lat="44.78256742726918" lon="8.71161184061904"><ele>151.0</ele><time>2026-03-29T12:16:53.001Z</time></trkpt><trkpt lat="44.782656335255766" lon="8.711948621455686"><ele>151.5</ele><time>2026-03-29T12:16:54.001Z</time></trkpt><trkpt lat="44.782746086749185" lon="8.712279511858883"><ele>152.0</ele><time>2026-03-29T12:16:55.001Z</time></trkpt><trkpt lat="44.782838794118554" lon="8.712606840478607"><ele>151.5</ele><time>2026-03-29T12:16:56.001Z</time></trkpt><trkpt lat="44.78293681469285" lon="8.712933391496575"><ele>151.0</ele><time>2026-03-29T12:16:57.001Z</time></trkpt><trkpt lat="44.78302825273476" lon="8.713258849052307"><ele>151.5</ele><time>2026-03-29T12:16:58.001Z</time></trkpt><trkpt lat="44.7831194320181" lon="8.713588526515124"><ele>152.0</ele><time>2026-03-29T12:16:59.001Z</time></trkpt><trkpt lat="44.783209516203826" lon="8.713916640073874"><ele>152.0</ele><time>2026-03-29T12:17:00.001Z</time></trkpt><trkpt lat="44.78330234489424" lon="8.714246298421536"><ele>152.0</ele><time>2026-03-29T12:17:01.001Z</time></trkpt><trkpt lat="44.783394452243236" lon="8.714575994231309"><ele>152.0</ele><time>2026-03-29T12:17:02.001Z</time></trkpt><trkpt lat="44.78348593139227" lon="8.714906658346978"><ele>152.0</ele><time>2026-03-29T12:17:03.001Z</time></trkpt><trkpt lat="44.78358229193836" lon="8.715239303839"><ele>151.0</ele><time>2026-03-29T12:17:04.001Z</time></trkpt><trkpt lat="44.78367777062477" lon="8.715571976439817"><ele>150.0</ele><time>2026-03-29T12:17:05.001Z</time></trkpt><trkpt lat="44.78377268752795" lon="8.715903589993966"><ele>151.0</ele><time>2026-03-29T12:17:06.001Z</time></trkpt><trkpt lat="44.78386856523644" lon="8.716238993883664"><ele>152.0</ele><time>2026-03-29T12:17:07.001Z</time></trkpt><trkpt lat="44.78396235533459" lon="8.716573425101636"><ele>152.5</ele><time>2026-03-29T12:17:08.001Z</time></trkpt><trkpt lat="44.7840574337389" lon="8.716911336166223"><ele>153.0</ele><time>2026-03-29T12:17:09.001Z</time></trkpt><trkpt lat="44.78414661717569" lon="8.717244263278996"><ele>153.0</ele><time>2026-03-29T12:17:10.001Z</time></trkpt><trkpt lat="44.784241775092056" lon="8.71757853538788"><ele>153.0</ele><time>2026-03-29T12:17:11.001Z</time></trkpt><trkpt lat="44.784338607027735" lon="8.717913676950152"><ele>151.5</ele><time>2026-03-29T12:17:12.001Z</time></trkpt><trkpt lat="44.78443718980155" lon="8.718246327117981"><ele>150.0</ele><time>2026-03-29T12:17:13.001Z</time></trkpt><trkpt lat="44.78453323133832" lon="8.718578514822397"><ele>149.5</ele><time>2026-03-29T12:17:14.001Z</time></trkpt><trkpt lat="44.78463067938197" lon="8.718910361304122"><ele>149.0</ele><time>2026-03-29T12:17:15.001Z</time></trkpt><trkpt lat="44.78472525084975" lon="8.719243930093498"><ele>150.5</ele><time>2026-03-29T12:17:16.001Z</time></trkpt><trkpt lat="44.78481726735083" lon="8.719576298403746"><ele>152.0</ele><time>2026-03-29T12:17:17.001Z</time></trkpt><trkpt lat="44.78490968220374" lon="8.719905891354852"><ele>152.0</ele><time>2026-03-29T12:17:18.001Z</time></trkpt><trkpt lat="44.78500289903018" lon="8.72023409476283"><ele>152.0</ele><time>2026-03-29T12:17:19.001Z</time></trkpt><trkpt lat="44.78509736977379" lon="8.720562532747834"><ele>151.0</ele><time>2026-03-29T12:17:20.001Z</time></trkpt><trkpt lat="44.7851950665814" lon="8.720888157079862"><ele>150.0</ele><time>2026-03-29T12:17:21.001Z</time></trkpt><trkpt lat="44.78529338158035" lon="8.721213593893856"><ele>150.0</ele><time>2026-03-29T12:17:22.001Z</time></trkpt><trkpt lat="44.78539784373947" lon="8.721539079879948"><ele>150.0</ele><time>2026-03-29T12:17:23.001Z</time></trkpt><trkpt lat="44.78550456674079" lon="8.721863436680204"><ele>150.5</ele><time>2026-03-29T12:17:24.001Z</time></trkpt><trkpt lat="44.78561294280858" lon="8.722182868182038"><ele>151.0</ele><time>2026-03-29T12:17:25.001Z</time></trkpt><trkpt lat="44.785723644252116" lon="8.722498828713844"><ele>151.5</ele><time>2026-03-29T12:17:26.001Z</time></trkpt><trkpt lat="44.78584445057128" lon="8.722818066723015"><ele>152.0</ele><time>2026-03-29T12:17:27.001Z</time></trkpt><trkpt lat="44.785964576148984" lon="8.72313285836224"><ele>151.0</ele><time>2026-03-29T12:17:28.001Z</time></trkpt><trkpt lat="44.78608750500789" lon="8.7234441013455"><ele>150.0</ele><time>2026-03-29T12:17:29.001Z</time></trkpt><trkpt lat="44.786216033466566" lon="8.723753041481215"><ele>149.5</ele><time>2026-03-29T12:17:30.001Z</time></trkpt><trkpt lat="44.7863430966339" lon="8.724059647404241"><ele>149.0</ele><time>2026-03-29T12:17:31.001Z</time></trkpt><trkpt lat="44.78647784944677" lon="8.724362375182041"><ele>149.5</ele><time>2026-03-29T12:17:32.001Z</time></trkpt><trkpt lat="44.78661393153629" lon="8.724656939526035"><ele>150.0</ele><time>2026-03-29T12:17:33.001Z</time></trkpt><trkpt lat="44.78675203918579" lon="8.724951918436163"><ele>147.5</ele><time>2026-03-29T12:17:34.001Z</time></trkpt><trkpt lat="44.786896134078205" lon="8.725243932239353"><ele>145.0</ele><time>2026-03-29T12:17:35.001Z</time></trkpt><trkpt lat="44.7870378225497" lon="8.725536881739455"><ele>145.0</ele><time>2026-03-29T12:17:36.001Z</time></trkpt><trkpt lat="44.7871834202548" lon="8.725828055322268"><ele>145.0</ele><time>2026-03-29T12:17:37.001Z</time></trkpt><trkpt lat="44.78732987801336" lon="8.72611574134363"><ele>145.5</ele><time>2026-03-29T12:17:38.001Z</time></trkpt><trkpt lat="44.78748212973873" lon="8.726398980307627"><ele>146.0</ele><time>2026-03-29T12:17:39.001Z</time></trkpt><trkpt lat="44.787638649803036" lon="8.726679545032527"><ele>148.5</ele><time>2026-03-29T12:17:40.001Z</time></trkpt><trkpt lat="44.78779688430198" lon="8.726957533755943"><ele>151.0</ele><time>2026-03-29T12:17:41.001Z</time></trkpt><trkpt lat="44.787958216703224" lon="8.72723290776724"><ele>151.0</ele><time>2026-03-29T12:17:42.001Z</time></trkpt><trkpt lat="44.78811532868167" lon="8.72750948346972"><ele>151.0</ele><time>2026-03-29T12:17:43.001Z</time></trkpt><trkpt lat="44.78827127449319" lon="8.727786537840936"><ele>151.0</ele><time>2026-03-29T12:17:44.001Z</time></trkpt><trkpt lat="44.78842154690255" lon="8.728066956812558"><ele>151.0</ele><time>2026-03-29T12:17:45.001Z</time></trkpt><trkpt lat="44.78857721549948" lon="8.728345447750765"><ele>152.0</ele><time>2026-03-29T12:17:46.001Z</time></trkpt><trkpt lat="44.788726988825005" lon="8.72862453588913"><ele>153.0</ele><time>2026-03-29T12:17:47.001Z</time></trkpt><trkpt lat="44.78888683241188" lon="8.728878098971064"><ele>153.0</ele><time>2026-03-29T12:17:48.001Z</time></trkpt><trkpt lat="44.78903549283094" lon="8.729164920240269"><ele>153.0</ele><time>2026-03-29T12:17:49.001Z</time></trkpt><trkpt lat="44.789185630614405" lon="8.729438707970626"><ele>152.5</ele><time>2026-03-29T12:17:50.001Z</time></trkpt><trkpt lat="44.78933525746459" lon="8.729707775399735"><ele>152.0</ele><time>2026-03-29T12:17:51.001Z</time></trkpt><trkpt lat="44.78948122320528" lon="8.729976534024871"><ele>152.5</ele><time>2026-03-29T12:17:52.001Z</time></trkpt><trkpt lat="44.78962740837132" lon="8.73024430613556"><ele>153.0</ele><time>2026-03-29T12:17:53.001Z</time></trkpt><trkpt lat="44.789778364265295" lon="8.730509394190728"><ele>153.0</ele><time>2026-03-29T12:17:54.001Z</time></trkpt><trkpt lat="44.789930424989166" lon="8.730775364481223"><ele>153.0</ele><time>2026-03-29T12:17:55.001Z</time></trkpt><trkpt lat="44.79008066592907" lon="8.731041557389053"><ele>154.0</ele><time>2026-03-29T12:17:56.001Z</time></trkpt><trkpt lat="44.79023248881129" lon="8.731311356991418"><ele>155.0</ele><time>2026-03-29T12:17:57.001Z</time></trkpt><trkpt lat="44.79038453871024" lon="8.73157831597151"><ele>155.0</ele><time>2026-03-29T12:17:58.001Z</time></trkpt><trkpt lat="44.79053540356673" lon="8.731846543330422"><ele>155.0</ele><time>2026-03-29T12:17:59.001Z</time></trkpt><trkpt lat="44.79068648295129" lon="8.732113346541734"><ele>155.0</ele><time>2026-03-29T12:18:00.001Z</time></trkpt><trkpt lat="44.79083977165208" lon="8.73238297380357"><ele>155.0</ele><time>2026-03-29T12:18:01.001Z</time></trkpt><trkpt lat="44.790983380113595" lon="8.732646666880349"><ele>154.0</ele><time>2026-03-29T12:18:02.001Z</time></trkpt><trkpt lat="44.79113329733122" lon="8.732913235011255"><ele>153.0</ele><time>2026-03-29T12:18:03.001Z</time></trkpt><trkpt lat="44.79128313737763" lon="8.733179435753286"><ele>153.0</ele><time>2026-03-29T12:18:04.001Z</time></trkpt><trkpt lat="44.79143532061934" lon="8.73345059007871"><ele>153.0</ele><time>2026-03-29T12:18:05.001Z</time></trkpt><trkpt lat="44.791586868072464" lon="8.733722196347555"><ele>153.0</ele><time>2026-03-29T12:18:06.001Z</time></trkpt><trkpt lat="44.791736677931524" lon="8.733992913553433"><ele>153.0</ele><time>2026-03-29T12:18:07.001Z</time></trkpt><trkpt lat="44.79188903389078" lon="8.734265341282859"><ele>153.5</ele><time>2026-03-29T12:18:08.001Z</time></trkpt><trkpt lat="44.792043708693754" lon="8.734538801993098"><ele>154.0</ele><time>2026-03-29T12:18:09.001Z</time></trkpt><trkpt lat="44.792198030339456" lon="8.734814106832616"><ele>154.0</ele><time>2026-03-29T12:18:10.001Z</time></trkpt><trkpt lat="44.79235508279683" lon="8.735092655636164"><ele>154.0</ele><time>2026-03-29T12:18:11.001Z</time></trkpt><trkpt lat="44.79250773315458" lon="8.735371919649486"><ele>154.0</ele><time>2026-03-29T12:18:12.001Z</time></trkpt><trkpt lat="44.79267039435735" lon="8.735656494717922"><ele>154.0</ele><time>2026-03-29T12:18:13.001Z</time></trkpt><trkpt lat="44.792829098445424" lon="8.735941502709691"><ele>155.0</ele><time>2026-03-29T12:18:14.001Z</time></trkpt><trkpt lat="44.79298878972678" lon="8.736224382258088"><ele>156.0</ele><time>2026-03-29T12:18:15.001Z</time></trkpt><trkpt lat="44.793145663001454" lon="8.736508581066822"><ele>156.0</ele><time>2026-03-29T12:18:16.001Z</time></trkpt><trkpt lat="44.79330976201369" lon="8.736791794340572"><ele>156.0</ele><time>2026-03-29T12:18:17.001Z</time></trkpt><trkpt lat="44.79346430436929" lon="8.73708443958998"><ele>155.5</ele><time>2026-03-29T12:18:18.001Z</time></trkpt><trkpt lat="44.79362694399512" lon="8.737353013413088"><ele>155.0</ele><time>2026-03-29T12:18:19.001Z</time></trkpt><trkpt lat="44.79377980606899" lon="8.737628934520304"><ele>155.0</ele><time>2026-03-29T12:18:20.001Z</time></trkpt><trkpt lat="44.79393655473693" lon="8.737907075201974"><ele>155.0</ele><time>2026-03-29T12:18:21.001Z</time></trkpt><trkpt lat="44.79409233949749" lon="8.738181807451832"><ele>155.0</ele><time>2026-03-29T12:18:22.001Z</time></trkpt><trkpt lat="44.794247992973176" lon="8.738457617293214"><ele>155.0</ele><time>2026-03-29T12:18:23.001Z</time></trkpt><trkpt lat="44.794400097694485" lon="8.738731577805996"><ele>155.5</ele><time>2026-03-29T12:18:24.001Z</time></trkpt><trkpt lat="44.79455262489359" lon="8.739004680362477"><ele>156.0</ele><time>2026-03-29T12:18:25.001Z</time></trkpt><trkpt lat="44.79470543900747" lon="8.73927996071117"><ele>156.5</ele><time>2026-03-29T12:18:26Z</time></trkpt><trkpt lat="44.79485892405138" lon="8.73955138142905"><ele>157.0</ele><time>2026-03-29T12:18:27Z</time></trkpt><trkpt lat="44.79501082117782" lon="8.739820530002445"><ele>157.0</ele><time>2026-03-29T12:18:28Z</time></trkpt><trkpt lat="44.795161955090805" lon="8.740090277948653"><ele>157.0</ele><time>2026-03-29T12:18:29Z</time></trkpt><trkpt lat="44.79531460625048" lon="8.740359563649045"><ele>156.0</ele><time>2026-03-29T12:18:30Z</time></trkpt><trkpt lat="44.79546571507226" lon="8.740632897350173"><ele>155.0</ele><time>2026-03-29T12:18:31Z</time></trkpt><trkpt lat="44.79562374128782" lon="8.740910718622748"><ele>156.0</ele><time>2026-03-29T12:18:32Z</time></trkpt><trkpt lat="44.79577898671724" lon="8.741186284092402"><ele>157.0</ele><time>2026-03-29T12:18:33Z</time></trkpt><trkpt lat="44.79593587939716" lon="8.74146101545995"><ele>156.5</ele><time>2026-03-29T12:18:34Z</time></trkpt><trkpt lat="44.796089921958234" lon="8.741735226335042"><ele>156.0</ele><time>2026-03-29T12:18:35Z</time></trkpt><trkpt lat="44.7962427291091" lon="8.742010797960695"><ele>156.0</ele><time>2026-03-29T12:18:36Z</time></trkpt><trkpt lat="44.796391555154514" lon="8.74228450768225"><ele>156.0</ele><time>2026-03-29T12:18:37Z</time></trkpt><trkpt lat="44.79654440775748" lon="8.742555667348432"><ele>156.0</ele><time>2026-03-29T12:18:38Z</time></trkpt><trkpt lat="44.796698139499156" lon="8.742823816798044"><ele>156.0</ele><time>2026-03-29T12:18:39Z</time></trkpt><trkpt lat="44.796852233806845" lon="8.743092738155191"><ele>156.0</ele><time>2026-03-29T12:18:40Z</time></trkpt><trkpt lat="44.797004134745876" lon="8.743361933991467"><ele>156.0</ele><time>2026-03-29T12:18:41Z</time></trkpt><trkpt lat="44.79715314170632" lon="8.74363118452823"><ele>156.0</ele><time>2026-03-29T12:18:42Z</time></trkpt><trkpt lat="44.79730418842411" lon="8.743901535800001"><ele>156.0</ele><time>2026-03-29T12:18:43Z</time></trkpt><trkpt lat="44.79745178022436" lon="8.744168466221698"><ele>156.0</ele><time>2026-03-29T12:18:44Z</time></trkpt><trkpt lat="44.79760062786783" lon="8.744435851913643"><ele>156.0</ele><time>2026-03-29T12:18:45Z</time></trkpt><trkpt lat="44.79774488959776" lon="8.744701097689088"><ele>155.5</ele><time>2026-03-29T12:18:46Z</time></trkpt><trkpt lat="44.79789905361683" lon="8.74497044048983"><ele>155.0</ele><time>2026-03-29T12:18:47Z</time></trkpt><trkpt lat="44.79805241115009" lon="8.745234117103417"><ele>155.0</ele><time>2026-03-29T12:18:48Z</time></trkpt><trkpt lat="44.7981970964558" lon="8.745495114553856"><ele>155.0</ele><time>2026-03-29T12:18:49Z</time></trkpt><trkpt lat="44.79834381270545" lon="8.74575340403441"><ele>155.0</ele><time>2026-03-29T12:18:50.001Z</time></trkpt><trkpt lat="44.79848410104777" lon="8.746009533283232"><ele>155.0</ele><time>2026-03-29T12:18:51.001Z</time></trkpt><trkpt lat="44.79862025586529" lon="8.746265998541517"><ele>154.66666666666666</ele><time>2026-03-29T12:18:52.001Z</time></trkpt><trkpt lat="44.79874203856497" lon="8.746509210254088"><ele>154.33333333333334</ele><time>2026-03-29T12:18:53.001Z</time></trkpt><trkpt lat="44.79886486531192" lon="8.746744194197245"><ele>154.0</ele><time>2026-03-29T12:18:54.001Z</time></trkpt><trkpt lat="44.79899264009779" lon="8.746977850212744"><ele>154.0</ele><time>2026-03-29T12:18:55.001Z</time></trkpt><trkpt lat="44.799110829057604" lon="8.747207873970769"><ele>154.0</ele><time>2026-03-29T12:18:56.001Z</time></trkpt><trkpt lat="44.79922099763753" lon="8.747431394654003"><ele>154.0</ele><time>2026-03-29T12:18:57.001Z</time></trkpt><trkpt lat="44.79933067029411" lon="8.747647138194603"><ele>155.0</ele><time>2026-03-29T12:18:58.001Z</time></trkpt><trkpt lat="44.79943186629631" lon="8.747853311599313"><ele>156.0</ele><time>2026-03-29T12:18:59.001Z</time></trkpt><trkpt lat="44.79952150018736" lon="8.748052445396498"><ele>157.0</ele><time>2026-03-29T12:19:00.001Z</time></trkpt><trkpt lat="44.799595250497255" lon="8.748246895836814"><ele>157.0</ele><time>2026-03-29T12:19:01.001Z</time></trkpt><trkpt lat="44.79965693519986" lon="8.748440962737018"><ele>157.0</ele><time>2026-03-29T12:19:02.001Z</time></trkpt><trkpt lat="44.79969929512446" lon="8.748631092481828"><ele>157.0</ele><time>2026-03-29T12:19:03.001Z</time></trkpt><trkpt lat="44.799738772767626" lon="8.748817563058676"><ele>157.0</ele><time>2026-03-29T12:19:04.001Z</time></trkpt><trkpt lat="44.79977667577016" lon="8.74897192553139"><ele>156.83333333333334</ele><time>2026-03-29T12:19:05.001Z</time></trkpt><trkpt lat="44.79981991896794" lon="8.7490968488117"><ele>156.66666666666669</ele><time>2026-03-29T12:19:06.001Z</time></trkpt><trkpt lat="44.799868100828625" lon="8.749185257348623"><ele>156.5</ele><time>2026-03-29T12:19:07.001Z</time></trkpt><trkpt lat="44.79992941074426" lon="8.74926812940846"><ele>156.33333333333334</ele><time>2026-03-29T12:19:08.001Z</time></trkpt><trkpt lat="44.80000157130443" lon="8.74934285105248"><ele>156.16666666666666</ele><time>2026-03-29T12:19:09.001Z</time></trkpt><trkpt lat="44.800073338957446" lon="8.749409147221053"><ele>156.0</ele><time>2026-03-29T12:19:10.001Z</time></trkpt><trkpt lat="44.80013609543638" lon="8.74948549512222"><ele>155.6</ele><time>2026-03-29T12:19:11.001Z</time></trkpt><trkpt lat="44.80021180687028" lon="8.749584000935862"><ele>155.2</ele><time>2026-03-29T12:19:12.001Z</time></trkpt><trkpt lat="44.80027312031766" lon="8.749697454182424"><ele>154.8</ele><time>2026-03-29T12:19:13.001Z</time></trkpt><trkpt lat="44.80033068797309" lon="8.749818895496984"><ele>154.4</ele><time>2026-03-29T12:19:14.001Z</time></trkpt><trkpt lat="44.80038999040034" lon="8.7499229403681"><ele>154.0</ele><time>2026-03-29T12:19:15.001Z</time></trkpt><trkpt lat="44.800451817689826" lon="8.750020473778042"><ele>154.0</ele><time>2026-03-29T12:19:16.001Z</time></trkpt><trkpt lat="44.80050144467869" lon="8.75011739721737"><ele>154.0</ele><time>2026-03-29T12:19:17.001Z</time></trkpt><trkpt lat="44.800554965289216" lon="8.750210966802761"><ele>154.0</ele><time>2026-03-29T12:19:18.001Z</time></trkpt><trkpt lat="44.800603145428674" lon="8.750310824669551"><ele>154.0</ele><time>2026-03-29T12:19:19.001Z</time></trkpt><trkpt lat="44.80064508724501" lon="8.750400555253586"><ele>154.0</ele><time>2026-03-29T12:19:20.001Z</time></trkpt><trkpt lat="44.800672127473206" lon="8.750490434621957"><ele>154.0</ele><time>2026-03-29T12:19:21.001Z</time></trkpt><trkpt lat="44.80069095473391" lon="8.750660569917198"><ele>154.0</ele><time>2026-03-29T12:19:23.001Z</time></trkpt><trkpt lat="44.80069415258303" lon="8.750754362699238"><ele>154.0</ele><time>2026-03-29T12:19:24.001Z</time></trkpt><trkpt lat="44.800701617019726" lon="8.750842809212717"><ele>154.0</ele><time>2026-03-29T12:19:25.001Z</time></trkpt><trkpt lat="44.800719572587845" lon="8.750985176065944"><ele>154.0</ele><time>2026-03-29T12:19:27.001Z</time></trkpt><trkpt lat="44.800746315459314" lon="8.751082502389858"><ele>154.0</ele><time>2026-03-29T12:19:30.001Z</time></trkpt><trkpt lat="44.80090590791293" lon="8.751283060001578"><ele>153.83333333333334</ele><time>2026-03-29T12:27:06Z</time></trkpt><trkpt lat="44.80096088317317" lon="8.751343366051469"><ele>153.66666666666669</ele><time>2026-03-29T12:27:07Z</time></trkpt><trkpt lat="44.801031782312" lon="8.751368471160506"><ele>153.5</ele><time>2026-03-29T12:27:08Z</time></trkpt><trkpt lat="44.80107032199941" lon="8.751441466858333"><ele>153.33333333333334</ele><time>2026-03-29T12:27:09Z</time></trkpt><trkpt lat="44.80113355085782" lon="8.751507923877703"><ele>153.16666666666666</ele><time>2026-03-29T12:27:10Z</time></trkpt><trkpt lat="44.80120098031668" lon="8.751580946759892"><ele>153.0</ele><time>2026-03-29T12:27:11Z</time></trkpt><trkpt lat="44.80128822527353" lon="8.75164912932631"><ele>152.8</ele><time>2026-03-29T12:27:12Z</time></trkpt><trkpt lat="44.80138311213287" lon="8.751724512219337"><ele>152.60000000000002</ele><time>2026-03-29T12:27:13Z</time></trkpt><trkpt lat="44.80147379472812" lon="8.751799838864661"><ele>152.39999999999998</ele><time>2026-03-29T12:27:14Z</time></trkpt><trkpt lat="44.80155459287051" lon="8.751869095748306"><ele>152.2</ele><time>2026-03-29T12:27:15Z</time></trkpt><trkpt lat="44.8016467253499" lon="8.751949686871058"><ele>152.0</ele><time>2026-03-29T12:27:16Z</time></trkpt><trkpt lat="44.801738084557144" lon="8.752038594528281"><ele>152.0</ele><time>2026-03-29T12:27:17Z</time></trkpt><trkpt lat="44.80183098231181" lon="8.752143619463315"><ele>152.0</ele><time>2026-03-29T12:27:18Z</time></trkpt><trkpt lat="44.80191968314345" lon="8.752263481767308"><ele>152.0</ele><time>2026-03-29T12:27:19Z</time></trkpt><trkpt lat="44.80200693228398" lon="8.752401985925003"><ele>152.0</ele><time>2026-03-29T12:27:20Z</time></trkpt><trkpt lat="44.80209580329466" lon="8.752551081417716"><ele>151.75</ele><time>2026-03-29T12:27:21Z</time></trkpt><trkpt lat="44.80218511026762" lon="8.75270487676622"><ele>151.5</ele><time>2026-03-29T12:27:22Z</time></trkpt><trkpt lat="44.80227929684466" lon="8.752865132141048"><ele>151.25</ele><time>2026-03-29T12:27:23Z</time></trkpt><trkpt lat="44.80237487535766" lon="8.753023451077453"><ele>151.0</ele><time>2026-03-29T12:27:24Z</time></trkpt><trkpt lat="44.802478842756244" lon="8.753181566831454"><ele>151.0</ele><time>2026-03-29T12:27:25Z</time></trkpt><trkpt lat="44.80257560278702" lon="8.7533539338754"><ele>151.0</ele><time>2026-03-29T12:27:26Z</time></trkpt><trkpt lat="44.80267326318728" lon="8.75353041666326"><ele>151.0</ele><time>2026-03-29T12:27:27Z</time></trkpt><trkpt lat="44.8027791521433" lon="8.753708975293723"><ele>151.0</ele><time>2026-03-29T12:27:28Z</time></trkpt><trkpt lat="44.80288678977246" lon="8.753891923736806"><ele>151.0</ele><time>2026-03-29T12:27:29Z</time></trkpt><trkpt lat="44.802993880326945" lon="8.75408038133004"><ele>151.0</ele><time>2026-03-29T12:27:30Z</time></trkpt><trkpt lat="44.8030964120362" lon="8.754263323631513"><ele>150.66666666666669</ele><time>2026-03-29T12:27:31Z</time></trkpt><trkpt lat="44.803193771600185" lon="8.754438065929897"><ele>150.33333333333334</ele><time>2026-03-29T12:27:32Z</time></trkpt><trkpt lat="44.80329348574285" lon="8.754616051961392"><ele>150.0</ele><time>2026-03-29T12:27:33Z</time></trkpt><trkpt lat="44.80338768482133" lon="8.754786538838975"><ele>150.0</ele><time>2026-03-29T12:27:34Z</time></trkpt><trkpt lat="44.803477732800395" lon="8.754950557638052"><ele>150.0</ele><time>2026-03-29T12:27:35Z</time></trkpt><trkpt lat="44.80356184503841" lon="8.755108212537474"><ele>150.0</ele><time>2026-03-29T12:27:36Z</time></trkpt><trkpt lat="44.803644124065606" lon="8.755262976692974"><ele>150.0</ele><time>2026-03-29T12:27:37Z</time></trkpt><trkpt lat="44.80371093581402" lon="8.755398511474889"><ele>150.0</ele><time>2026-03-29T12:27:38Z</time></trkpt><trkpt lat="44.80376124509996" lon="8.755494969871593"><ele>150.0</ele><time>2026-03-29T12:27:39Z</time></trkpt><trkpt lat="44.80377601894969" lon="8.7555823678172"><ele>150.0</ele><time>2026-03-29T12:27:41Z</time></trkpt><trkpt lat="44.803814157625055" lon="8.755661748068809"><ele>150.0</ele><time>2026-03-29T12:29:51Z</time></trkpt><trkpt lat="44.80390477951452" lon="8.755791226761717"><ele>150.0</ele><time>2026-03-29T12:29:53Z</time></trkpt><trkpt lat="44.803956002407524" lon="8.755866975508237"><ele>150.0</ele><time>2026-03-29T12:29:54Z</time></trkpt><trkpt lat="44.80401756820886" lon="8.755965310803052"><ele>150.0</ele><time>2026-03-29T12:29:55Z</time></trkpt><trkpt lat="44.80408430349071" lon="8.756078748227631"><ele>150.0</ele><time>2026-03-29T12:29:56Z</time></trkpt><trkpt lat="44.80416578545175" lon="8.75621782766285"><ele>150.0</ele><time>2026-03-29T12:29:57Z</time></trkpt><trkpt lat="44.80433941578507" lon="8.756525657430158"><ele>150.0</ele><time>2026-03-29T12:29:59Z</time></trkpt><trkpt lat="44.80444137227183" lon="8.756699087564227"><ele>150.0</ele><time>2026-03-29T12:30:00Z</time></trkpt><trkpt lat="44.804561059531665" lon="8.756896610943551"><ele>150.0</ele><time>2026-03-29T12:30:01Z</time></trkpt><trkpt lat="44.80468606530882" lon="8.75711638622163"><ele>150.33333333333334</ele><time>2026-03-29T12:30:02Z</time></trkpt><trkpt lat="44.804808521581876" lon="8.757332546120969"><ele>150.66666666666669</ele><time>2026-03-29T12:30:03Z</time></trkpt><trkpt lat="44.80492005628294" lon="8.757533224455946"><ele>151.0</ele><time>2026-03-29T12:30:04Z</time></trkpt><trkpt lat="44.805034894670705" lon="8.757743376199782"><ele>150.33333333333334</ele><time>2026-03-29T12:30:05Z</time></trkpt><trkpt lat="44.805158480216555" lon="8.757962145048527"><ele>149.66666666666666</ele><time>2026-03-29T12:30:06Z</time></trkpt><trkpt lat="44.80528609232038" lon="8.758184103755354"><ele>149.0</ele><time>2026-03-29T12:30:07Z</time></trkpt><trkpt lat="44.80540542819358" lon="8.758403920417699"><ele>149.33333333333331</ele><time>2026-03-29T12:30:08Z</time></trkpt><trkpt lat="44.80553815734708" lon="8.758637653661197"><ele>149.66666666666666</ele><time>2026-03-29T12:30:09Z</time></trkpt><trkpt lat="44.8056733330151" lon="8.758869053128073"><ele>150.0</ele><time>2026-03-29T12:30:10Z</time></trkpt><trkpt lat="44.805800353602514" lon="8.759081967022988"><ele>150.0</ele><time>2026-03-29T12:30:11Z</time></trkpt><trkpt lat="44.805928159006754" lon="8.759301626593343"><ele>150.0</ele><time>2026-03-29T12:30:12Z</time></trkpt><trkpt lat="44.806058757920276" lon="8.759529044439063"><ele>150.0</ele><time>2026-03-29T12:30:13Z</time></trkpt><trkpt lat="44.80619097713361" lon="8.759760972538016"><ele>149.33333333333334</ele><time>2026-03-29T12:30:14Z</time></trkpt><trkpt lat="44.80632385944074" lon="8.759995766586673"><ele>148.66666666666669</ele><time>2026-03-29T12:30:15Z</time></trkpt><trkpt lat="44.80645917128174" lon="8.76022949874134"><ele>148.0</ele><time>2026-03-29T12:30:16Z</time></trkpt><trkpt lat="44.80659561975907" lon="8.760468796077737"><ele>148.0</ele><time>2026-03-29T12:30:17Z</time></trkpt><trkpt lat="44.80673127067454" lon="8.760708584615234"><ele>148.0</ele><time>2026-03-29T12:30:18Z</time></trkpt><trkpt lat="44.806869919073044" lon="8.760952526276084"><ele>148.0</ele><time>2026-03-29T12:30:19Z</time></trkpt><trkpt lat="44.807011928925306" lon="8.76120762844988"><ele>149.0</ele><time>2026-03-29T12:30:20Z</time></trkpt><trkpt lat="44.807159554061094" lon="8.761478097783929"><ele>150.0</ele><time>2026-03-29T12:30:21Z</time></trkpt><trkpt lat="44.807305300681904" lon="8.761744276459543"><ele>149.0</ele><time>2026-03-29T12:30:22Z</time></trkpt><trkpt lat="44.80744698216093" lon="8.761998629124639"><ele>148.0</ele><time>2026-03-29T12:30:23Z</time></trkpt><trkpt lat="44.80758911375747" lon="8.762251180689942"><ele>148.0</ele><time>2026-03-29T12:30:24Z</time></trkpt><trkpt lat="44.80773390041708" lon="8.762504640747835"><ele>148.0</ele><time>2026-03-29T12:30:25Z</time></trkpt><trkpt lat="44.80787870178778" lon="8.762763374534035"><ele>149.0</ele><time>2026-03-29T12:30:26Z</time></trkpt><trkpt lat="44.808021335161" lon="8.763012944896962"><ele>150.0</ele><time>2026-03-29T12:30:27Z</time></trkpt><trkpt lat="44.80816568754862" lon="8.763265855476305"><ele>150.0</ele><time>2026-03-29T12:30:28Z</time></trkpt><trkpt lat="44.808305493432634" lon="8.763524217137125"><ele>150.0</ele><time>2026-03-29T12:30:29Z</time></trkpt><trkpt lat="44.808449129439495" lon="8.763789362453783"><ele>149.5</ele><time>2026-03-29T12:30:30Z</time></trkpt><trkpt lat="44.808595469048285" lon="8.764053658285448"><ele>149.0</ele><time>2026-03-29T12:30:31Z</time></trkpt><trkpt lat="44.80874898756773" lon="8.764321054765654"><ele>149.5</ele><time>2026-03-29T12:30:32Z</time></trkpt><trkpt lat="44.80890408910752" lon="8.764591097586115"><ele>150.0</ele><time>2026-03-29T12:30:33Z</time></trkpt><trkpt lat="44.809056496633424" lon="8.764859084743676"><ele>150.0</ele><time>2026-03-29T12:30:34Z</time></trkpt><trkpt lat="44.8092091825555" lon="8.765129809489741"><ele>150.0</ele><time>2026-03-29T12:30:35Z</time></trkpt><trkpt lat="44.80935615553467" lon="8.765395260466123"><ele>149.5</ele><time>2026-03-29T12:30:36Z</time></trkpt><trkpt lat="44.809503472185284" lon="8.765659534744945"><ele>149.0</ele><time>2026-03-29T12:30:36.999Z</time></trkpt><trkpt lat="44.809652465917424" lon="8.765924105427993"><ele>149.5</ele><time>2026-03-29T12:30:37.999Z</time></trkpt><trkpt lat="44.80979909750573" lon="8.766188381868488"><ele>150.0</ele><time>2026-03-29T12:30:38.999Z</time></trkpt><trkpt lat="44.809947858428494" lon="8.766452250125507"><ele>150.0</ele><time>2026-03-29T12:30:39.999Z</time></trkpt><trkpt lat="44.8100996299265" lon="8.766715789829606"><ele>150.0</ele><time>2026-03-29T12:30:40.999Z</time></trkpt><trkpt lat="44.81025000668312" lon="8.766979020593325"><ele>150.5</ele><time>2026-03-29T12:30:41.999Z</time></trkpt><trkpt lat="44.81039654975774" lon="8.767245826572303"><ele>151.0</ele><time>2026-03-29T12:30:42.999Z</time></trkpt><trkpt lat="44.81054750962405" lon="8.767508546897929"><ele>150.5</ele><time>2026-03-29T12:30:43.999Z</time></trkpt><trkpt lat="44.81069747689459" lon="8.767770839979862"><ele>150.0</ele><time>2026-03-29T12:30:44.999Z</time></trkpt><trkpt lat="44.8108538021288" lon="8.768034167146212"><ele>149.5</ele><time>2026-03-29T12:30:45.999Z</time></trkpt><trkpt lat="44.81101202181565" lon="8.76830022163589"><ele>149.0</ele><time>2026-03-29T12:30:46.999Z</time></trkpt><trkpt lat="44.811167900564854" lon="8.768565056938217"><ele>149.0</ele><time>2026-03-29T12:30:47.999Z</time></trkpt><trkpt lat="44.81132814364244" lon="8.76883315640286"><ele>149.0</ele><time>2026-03-29T12:30:48.999Z</time></trkpt><trkpt lat="44.81149050532047" lon="8.769104290517236"><ele>148.5</ele><time>2026-03-29T12:30:49.999Z</time></trkpt><trkpt lat="44.81165387052122" lon="8.769370763725114"><ele>148.0</ele><time>2026-03-29T12:30:50.999Z</time></trkpt><trkpt lat="44.811815749056706" lon="8.76963315396318"><ele>148.0</ele><time>2026-03-29T12:30:51.999Z</time></trkpt><trkpt lat="44.8119815013066" lon="8.769903208003448"><ele>148.0</ele><time>2026-03-29T12:30:52.999Z</time></trkpt><trkpt lat="44.812144904933284" lon="8.770172734921559"><ele>149.0</ele><time>2026-03-29T12:30:53.999Z</time></trkpt><trkpt lat="44.81231133147647" lon="8.770442188547038"><ele>150.0</ele><time>2026-03-29T12:30:54.999Z</time></trkpt><trkpt lat="44.812476126557065" lon="8.770712210159749"><ele>150.0</ele><time>2026-03-29T12:30:55.999Z</time></trkpt><trkpt lat="44.812643296463115" lon="8.770984163342243"><ele>150.0</ele><time>2026-03-29T12:30:56.999Z</time></trkpt><trkpt lat="44.81280903739509" lon="8.771256943860969"><ele>149.0</ele><time>2026-03-29T12:30:57.999Z</time></trkpt><trkpt lat="44.812981061527346" lon="8.771537721385947"><ele>148.0</ele><time>2026-03-29T12:30:58.999Z</time></trkpt><trkpt lat="44.8131488607079" lon="8.771813819436561"><ele>149.0</ele><time>2026-03-29T12:30:59.999Z</time></trkpt><trkpt lat="44.81331470306817" lon="8.77209002947593"><ele>150.0</ele><time>2026-03-29T12:31:00.999Z</time></trkpt><trkpt lat="44.81348622131761" lon="8.772372209949976"><ele>150.0</ele><time>2026-03-29T12:31:01.999Z</time></trkpt><trkpt lat="44.813654521786155" lon="8.77265123139199"><ele>150.0</ele><time>2026-03-29T12:31:02.999Z</time></trkpt><trkpt lat="44.81382826618639" lon="8.772936788596194"><ele>150.0</ele><time>2026-03-29T12:31:03.999Z</time></trkpt><trkpt lat="44.813997659498256" lon="8.773219506598275"><ele>150.0</ele><time>2026-03-29T12:31:04.999Z</time></trkpt><trkpt lat="44.81416458261218" lon="8.773502742089095"><ele>149.0</ele><time>2026-03-29T12:31:05.999Z</time></trkpt><trkpt lat="44.81433619645392" lon="8.773780634811573"><ele>148.0</ele><time>2026-03-29T12:31:06.999Z</time></trkpt><trkpt lat="44.81450986665438" lon="8.774056049287672"><ele>148.0</ele><time>2026-03-29T12:31:07.999Z</time></trkpt><trkpt lat="44.81467911740191" lon="8.774336732884347"><ele>148.0</ele><time>2026-03-29T12:31:08.999Z</time></trkpt><trkpt lat="44.814843214848615" lon="8.774612320768831"><ele>148.0</ele><time>2026-03-29T12:31:09.999Z</time></trkpt><trkpt lat="44.81501662984936" lon="8.774889757482784"><ele>148.0</ele><time>2026-03-29T12:31:10.999Z</time></trkpt><trkpt lat="44.815181791883745" lon="8.775156593767756"><ele>149.0</ele><time>2026-03-29T12:31:11.999Z</time></trkpt><trkpt lat="44.815351712558225" lon="8.775433406371631"><ele>150.0</ele><time>2026-03-29T12:31:12.999Z</time></trkpt><trkpt lat="44.815517448880044" lon="8.775702183418055"><ele>150.0</ele><time>2026-03-29T12:31:13.999Z</time></trkpt><trkpt lat="44.815688183074016" lon="8.775975145534703"><ele>150.0</ele><time>2026-03-29T12:31:14.999Z</time></trkpt><trkpt lat="44.815855873039865" lon="8.776251273264274"><ele>149.5</ele><time>2026-03-29T12:31:15.999Z</time></trkpt><trkpt lat="44.81602536235918" lon="8.77652781733546"><ele>149.0</ele><time>2026-03-29T12:31:16.999Z</time></trkpt><trkpt lat="44.81619465938022" lon="8.776805832970856"><ele>149.0</ele><time>2026-03-29T12:31:18Z</time></trkpt><trkpt lat="44.81636606712" lon="8.777087650281063"><ele>149.0</ele><time>2026-03-29T12:31:19Z</time></trkpt><trkpt lat="44.816536483331696" lon="8.777371581094844"><ele>149.0</ele><time>2026-03-29T12:31:20Z</time></trkpt><trkpt lat="44.81670705916558" lon="8.77765509129733"><ele>149.0</ele><time>2026-03-29T12:31:21Z</time></trkpt><trkpt lat="44.81688040231674" lon="8.777939209677461"><ele>149.5</ele><time>2026-03-29T12:31:22Z</time></trkpt><trkpt lat="44.81706301685551" lon="8.778220560643303"><ele>150.0</ele><time>2026-03-29T12:31:23Z</time></trkpt><trkpt lat="44.81723458126448" lon="8.778516348522086"><ele>149.0</ele><time>2026-03-29T12:31:24Z</time></trkpt><trkpt lat="44.81740661113128" lon="8.778794169469197"><ele>148.0</ele><time>2026-03-29T12:31:25Z</time></trkpt><trkpt lat="44.817583462677824" lon="8.77907698877756"><ele>148.0</ele><time>2026-03-29T12:31:26Z</time></trkpt><trkpt lat="44.817755661214775" lon="8.779358257642262"><ele>148.0</ele><time>2026-03-29T12:31:27Z</time></trkpt><trkpt lat="44.81792594484367" lon="8.779641253994777"><ele>148.0</ele><time>2026-03-29T12:31:28Z</time></trkpt><trkpt lat="44.81809555499907" lon="8.779922968650261"><ele>148.0</ele><time>2026-03-29T12:31:29Z</time></trkpt><trkpt lat="44.818268758354215" lon="8.780206079410881"><ele>148.5</ele><time>2026-03-29T12:31:30Z</time></trkpt><trkpt lat="44.81844163708302" lon="8.780489194470231"><ele>149.0</ele><time>2026-03-29T12:31:31Z</time></trkpt><trkpt lat="44.81861746454059" lon="8.780774762257547"><ele>149.5</ele><time>2026-03-29T12:31:32Z</time></trkpt><trkpt lat="44.81879193868163" lon="8.781058897678252"><ele>150.0</ele><time>2026-03-29T12:31:33Z</time></trkpt><trkpt lat="44.818965266216274" lon="8.781343244139892"><ele>150.0</ele><time>2026-03-29T12:31:34Z</time></trkpt><trkpt lat="44.819135072299304" lon="8.781626921333624"><ele>150.0</ele><time>2026-03-29T12:31:35Z</time></trkpt><trkpt lat="44.819308777646235" lon="8.781914397494797"><ele>149.0</ele><time>2026-03-29T12:31:36Z</time></trkpt><trkpt lat="44.819481724610135" lon="8.782201157340722"><ele>148.0</ele><time>2026-03-29T12:31:37Z</time></trkpt><trkpt lat="44.81965643098681" lon="8.78248768165551"><ele>148.0</ele><time>2026-03-29T12:31:38Z</time></trkpt><trkpt lat="44.81983143444712" lon="8.78277235655752"><ele>148.0</ele><time>2026-03-29T12:31:39Z</time></trkpt><trkpt lat="44.82000584611562" lon="8.783054974102125"><ele>148.0</ele><time>2026-03-29T12:31:40Z</time></trkpt><trkpt lat="44.82017940621025" lon="8.783337867852632"><ele>148.0</ele><time>2026-03-29T12:31:41Z</time></trkpt><trkpt lat="44.82035485123213" lon="8.783622619074347"><ele>148.0</ele><time>2026-03-29T12:31:42Z</time></trkpt><trkpt lat="44.820531463136525" lon="8.7839074970302"><ele>148.0</ele><time>2026-03-29T12:31:43Z</time></trkpt><trkpt lat="44.82070735555041" lon="8.784191043579881"><ele>148.0</ele><time>2026-03-29T12:31:44Z</time></trkpt><trkpt lat="44.820881285397505" lon="8.78447781955205"><ele>148.0</ele><time>2026-03-29T12:31:45Z</time></trkpt><trkpt lat="44.821055882869395" lon="8.784768050993213"><ele>148.0</ele><time>2026-03-29T12:31:46Z</time></trkpt><trkpt lat="44.8212247258681" lon="8.785053932495886"><ele>148.0</ele><time>2026-03-29T12:31:47Z</time></trkpt><trkpt lat="44.821393270644016" lon="8.785339130535052"><ele>148.0</ele><time>2026-03-29T12:31:48Z</time></trkpt><trkpt lat="44.82155614708151" lon="8.785625633124821"><ele>148.0</ele><time>2026-03-29T12:31:49Z</time></trkpt><trkpt lat="44.82171816155207" lon="8.78591562161429"><ele>147.5</ele><time>2026-03-29T12:31:50Z</time></trkpt><trkpt lat="44.8218771937409" lon="8.786206356768211"><ele>147.0</ele><time>2026-03-29T12:31:51Z</time></trkpt><trkpt lat="44.82203664620386" lon="8.786495679985084"><ele>147.0</ele><time>2026-03-29T12:31:52Z</time></trkpt><trkpt lat="44.8221933088092" lon="8.786792437051663"><ele>147.0</ele><time>2026-03-29T12:31:53Z</time></trkpt><trkpt lat="44.82234709541557" lon="8.787093966374682"><ele>148.0</ele><time>2026-03-29T12:31:54Z</time></trkpt><trkpt lat="44.82250323617668" lon="8.787398982577972"><ele>149.0</ele><time>2026-03-29T12:31:55Z</time></trkpt><trkpt lat="44.82264433878223" lon="8.787700423078904"><ele>148.0</ele><time>2026-03-29T12:31:56Z</time></trkpt><trkpt lat="44.82279865470505" lon="8.788000676838367"><ele>147.0</ele><time>2026-03-29T12:31:57Z</time></trkpt><trkpt lat="44.822946025421814" lon="8.78830426633484"><ele>146.5</ele><time>2026-03-29T12:31:58Z</time></trkpt><trkpt lat="44.823089627130145" lon="8.788612512839133"><ele>146.0</ele><time>2026-03-29T12:31:59Z</time></trkpt><trkpt lat="44.8232309109775" lon="8.788919371154613"><ele>146.0</ele><time>2026-03-29T12:32:00Z</time></trkpt><trkpt lat="44.82337062129468" lon="8.789231474906478"><ele>146.0</ele><time>2026-03-29T12:32:01Z</time></trkpt><trkpt lat="44.82350688408874" lon="8.78954734201472"><ele>146.5</ele><time>2026-03-29T12:32:02Z</time></trkpt><trkpt lat="44.82364300189664" lon="8.789863205610681"><ele>147.0</ele><time>2026-03-29T12:32:03Z</time></trkpt><trkpt lat="44.823772673676686" lon="8.790181599574758"><ele>147.5</ele><time>2026-03-29T12:32:04Z</time></trkpt><trkpt lat="44.82390369124772" lon="8.790502191440732"><ele>148.0</ele><time>2026-03-29T12:32:05Z</time></trkpt><trkpt lat="44.82403242561516" lon="8.790823954497302"><ele>148.0</ele><time>2026-03-29T12:32:06Z</time></trkpt><trkpt lat="44.82415718467026" lon="8.791144712806494"><ele>148.0</ele><time>2026-03-29T12:32:07Z</time></trkpt><trkpt lat="44.82428015867805" lon="8.791474295350305"><ele>147.5</ele><time>2026-03-29T12:32:08Z</time></trkpt><trkpt lat="44.824402388581426" lon="8.791799427226982"><ele>147.0</ele><time>2026-03-29T12:32:09Z</time></trkpt><trkpt lat="44.824518243790784" lon="8.792127386121633"><ele>147.0</ele><time>2026-03-29T12:32:10Z</time></trkpt><trkpt lat="44.82462734721467" lon="8.79245676767062"><ele>147.0</ele><time>2026-03-29T12:32:11Z</time></trkpt><trkpt lat="44.82473117695936" lon="8.79278878670966"><ele>147.0</ele><time>2026-03-29T12:32:12Z</time></trkpt><trkpt lat="44.82483477855297" lon="8.793117858592517"><ele>147.0</ele><time>2026-03-29T12:32:13Z</time></trkpt><trkpt lat="44.82494164243575" lon="8.793445600883064"><ele>147.0</ele><time>2026-03-29T12:32:14Z</time></trkpt><trkpt lat="44.82505216156163" lon="8.793774111119875"><ele>147.0</ele><time>2026-03-29T12:32:15Z</time></trkpt><trkpt lat="44.82515512143492" lon="8.794096884484757"><ele>147.5</ele><time>2026-03-29T12:32:16Z</time></trkpt><trkpt lat="44.82525942615922" lon="8.794430763221108"><ele>148.0</ele><time>2026-03-29T12:32:17Z</time></trkpt><trkpt lat="44.825357838923836" lon="8.794763414376142"><ele>148.0</ele><time>2026-03-29T12:32:18Z</time></trkpt><trkpt lat="44.82545255543128" lon="8.79509328647245"><ele>148.0</ele><time>2026-03-29T12:32:19Z</time></trkpt><trkpt lat="44.825546156750725" lon="8.795422761777642"><ele>149.5</ele><time>2026-03-29T12:32:20Z</time></trkpt><trkpt lat="44.825639010279644" lon="8.79575836258897"><ele>151.0</ele><time>2026-03-29T12:32:21Z</time></trkpt><trkpt lat="44.82572572345494" lon="8.796094519109586"><ele>151.0</ele><time>2026-03-29T12:32:22Z</time></trkpt><trkpt lat="44.82580889926196" lon="8.79643293099302"><ele>151.0</ele><time>2026-03-29T12:32:23Z</time></trkpt><trkpt lat="44.82588901684581" lon="8.796774631218215"><ele>150.5</ele><time>2026-03-29T12:32:24Z</time></trkpt><trkpt lat="44.82596842744583" lon="8.797114936752465"><ele>150.0</ele><time>2026-03-29T12:32:25Z</time></trkpt><trkpt lat="44.82604976959797" lon="8.797453356017394"><ele>149.0</ele><time>2026-03-29T12:32:26Z</time></trkpt><trkpt lat="44.82613071312645" lon="8.797793317434447"><ele>148.0</ele><time>2026-03-29T12:32:27Z</time></trkpt><trkpt lat="44.826215414814634" lon="8.798133925607392"><ele>148.0</ele><time>2026-03-29T12:32:28Z</time></trkpt><trkpt lat="44.82629709131471" lon="8.798476591309463"><ele>148.0</ele><time>2026-03-29T12:32:29Z</time></trkpt><trkpt lat="44.82637728213672" lon="8.798811046937807"><ele>149.5</ele><time>2026-03-29T12:32:30Z</time></trkpt><trkpt lat="44.8264610938544" lon="8.799156558945182"><ele>151.0</ele><time>2026-03-29T12:32:31Z</time></trkpt><trkpt lat="44.82654836992627" lon="8.799495455669952"><ele>151.5</ele><time>2026-03-29T12:32:32Z</time></trkpt><trkpt lat="44.826633894350245" lon="8.799841011764522"><ele>152.0</ele><time>2026-03-29T12:32:33Z</time></trkpt><trkpt lat="44.82672192680235" lon="8.8001805174801"><ele>151.0</ele><time>2026-03-29T12:32:34Z</time></trkpt><trkpt lat="44.826808527102344" lon="8.800517879180621"><ele>150.0</ele><time>2026-03-29T12:32:35Z</time></trkpt><trkpt lat="44.82689017575961" lon="8.80086809281992"><ele>149.0</ele><time>2026-03-29T12:32:36Z</time></trkpt><trkpt lat="44.826973341751355" lon="8.801219478602196"><ele>148.0</ele><time>2026-03-29T12:32:37Z</time></trkpt><trkpt lat="44.8270532827359" lon="8.80156203827947"><ele>149.0</ele><time>2026-03-29T12:32:38Z</time></trkpt><trkpt lat="44.827133533551056" lon="8.801897565575013"><ele>150.0</ele><time>2026-03-29T12:32:39Z</time></trkpt><trkpt lat="44.827212898472474" lon="8.802232912971999"><ele>150.0</ele><time>2026-03-29T12:32:40Z</time></trkpt><trkpt lat="44.82729546290957" lon="8.802569587257906"><ele>150.0</ele><time>2026-03-29T12:32:41Z</time></trkpt><trkpt lat="44.82737500892004" lon="8.802902481110735"><ele>150.0</ele><time>2026-03-29T12:32:42Z</time></trkpt><trkpt lat="44.82746002594369" lon="8.803233749025429"><ele>150.0</ele><time>2026-03-29T12:32:42.998Z</time></trkpt><trkpt lat="44.82754599270586" lon="8.803563637868802"><ele>150.0</ele><time>2026-03-29T12:32:43.998Z</time></trkpt><trkpt lat="44.827630239354974" lon="8.803895623411693"><ele>150.0</ele><time>2026-03-29T12:32:44.999Z</time></trkpt><trkpt lat="44.82770979342066" lon="8.804227464622988"><ele>148.5</ele><time>2026-03-29T12:32:45.999Z</time></trkpt><trkpt lat="44.82778767265385" lon="8.804561912620457"><ele>147.0</ele><time>2026-03-29T12:32:46.999Z</time></trkpt><trkpt lat="44.827866642340574" lon="8.804893803519057"><ele>147.0</ele><time>2026-03-29T12:32:47.999Z</time></trkpt><trkpt lat="44.82794669121109" lon="8.805230838096536"><ele>147.0</ele><time>2026-03-29T12:32:48.999Z</time></trkpt><trkpt lat="44.828025765250665" lon="8.805568726341603"><ele>147.0</ele><time>2026-03-29T12:32:49.999Z</time></trkpt><trkpt lat="44.82810617141799" lon="8.80590575713409"><ele>147.0</ele><time>2026-03-29T12:32:50.999Z</time></trkpt><trkpt lat="44.82818813847567" lon="8.806241726239604"><ele>146.5</ele><time>2026-03-29T12:32:51.999Z</time></trkpt><trkpt lat="44.828268919157324" lon="8.806575780205513"><ele>146.0</ele><time>2026-03-29T12:32:52.999Z</time></trkpt><trkpt lat="44.82834903612689" lon="8.80690767065321"><ele>146.0</ele><time>2026-03-29T12:32:53.999Z</time></trkpt><trkpt lat="44.82842658324172" lon="8.807239629251878"><ele>146.0</ele><time>2026-03-29T12:32:54.999Z</time></trkpt><trkpt lat="44.828504144025985" lon="8.807571173336658"><ele>145.5</ele><time>2026-03-29T12:32:55.999Z</time></trkpt><trkpt lat="44.82858310466801" lon="8.807901826229523"><ele>145.0</ele><time>2026-03-29T12:32:56.999Z</time></trkpt><trkpt lat="44.82865936167959" lon="8.80823229788314"><ele>144.5</ele><time>2026-03-29T12:32:57.999Z</time></trkpt><trkpt lat="44.828736786150394" lon="8.808561271888866"><ele>144.0</ele><time>2026-03-29T12:32:58.999Z</time></trkpt><trkpt lat="44.82881586944475" lon="8.80889408889236"><ele>144.0</ele><time>2026-03-29T12:32:59.999Z</time></trkpt><trkpt lat="44.82889056485808" lon="8.809223300844153"><ele>144.0</ele><time>2026-03-29T12:33:00.999Z</time></trkpt><trkpt lat="44.828967770853794" lon="8.80955156815008"><ele>144.0</ele><time>2026-03-29T12:33:01.999Z</time></trkpt><trkpt lat="44.82904722171499" lon="8.809883339294066"><ele>144.0</ele><time>2026-03-29T12:33:02.999Z</time></trkpt><trkpt lat="44.82912647197495" lon="8.81021392048119"><ele>145.5</ele><time>2026-03-29T12:33:03.999Z</time></trkpt><trkpt lat="44.829205674443436" lon="8.810548262784286"><ele>147.0</ele><time>2026-03-29T12:33:04.999Z</time></trkpt><trkpt lat="44.829286598211205" lon="8.81088891586986"><ele>146.5</ele><time>2026-03-29T12:33:05.999Z</time></trkpt><trkpt lat="44.82936861341205" lon="8.811228073691472"><ele>146.0</ele><time>2026-03-29T12:33:06.999Z</time></trkpt><trkpt lat="44.82945126021173" lon="8.811569844616514"><ele>146.0</ele><time>2026-03-29T12:33:07.999Z</time></trkpt><trkpt lat="44.829535363940174" lon="8.811916105827239"><ele>146.0</ele><time>2026-03-29T12:33:08.999Z</time></trkpt><trkpt lat="44.82961536970262" lon="8.812263509158507"><ele>146.0</ele><time>2026-03-29T12:33:09.999Z</time></trkpt><trkpt lat="44.82969310263235" lon="8.81260620531229"><ele>146.0</ele><time>2026-03-29T12:33:10.999Z</time></trkpt><trkpt lat="44.82977532706648" lon="8.812952243561442"><ele>145.5</ele><time>2026-03-29T12:33:11.999Z</time></trkpt><trkpt lat="44.82986025985885" lon="8.813298381387629"><ele>145.0</ele><time>2026-03-29T12:33:12.999Z</time></trkpt><trkpt lat="44.82993818116319" lon="8.81363733546109"><ele>145.0</ele><time>2026-03-29T12:33:13.999Z</time></trkpt><trkpt lat="44.83002013339454" lon="8.813980797630222"><ele>145.0</ele><time>2026-03-29T12:33:14.999Z</time></trkpt><trkpt lat="44.83010105757854" lon="8.814320937843563"><ele>145.5</ele><time>2026-03-29T12:33:15.999Z</time></trkpt><trkpt lat="44.8301820092532" lon="8.81466055670655"><ele>146.0</ele><time>2026-03-29T12:33:16.999Z</time></trkpt><trkpt lat="44.83026310358154" lon="8.815004081280422"><ele>146.0</ele><time>2026-03-29T12:33:17.999Z</time></trkpt><trkpt lat="44.83034493817056" lon="8.815347667476985"><ele>146.0</ele><time>2026-03-29T12:33:18.999Z</time></trkpt><trkpt lat="44.830424691249895" lon="8.815687346436734"><ele>146.5</ele><time>2026-03-29T12:33:19.999Z</time></trkpt><trkpt lat="44.83050699430878" lon="8.81602644077279"><ele>147.0</ele><time>2026-03-29T12:33:21Z</time></trkpt><trkpt lat="44.83058763487797" lon="8.816367484805061"><ele>147.0</ele><time>2026-03-29T12:33:22Z</time></trkpt><trkpt lat="44.83066823200763" lon="8.816707097676263"><ele>147.0</ele><time>2026-03-29T12:33:23Z</time></trkpt><trkpt lat="44.830749844605215" lon="8.817047525263915"><ele>147.0</ele><time>2026-03-29T12:33:24Z</time></trkpt><trkpt lat="44.83083430486117" lon="8.817393921724792"><ele>147.0</ele><time>2026-03-29T12:33:25Z</time></trkpt><trkpt lat="44.830913981718965" lon="8.817735691982051"><ele>146.0</ele><time>2026-03-29T12:33:26Z</time></trkpt><trkpt lat="44.83099773248067" lon="8.818079925891544"><ele>145.0</ele><time>2026-03-29T12:33:27Z</time></trkpt><trkpt lat="44.831082102611724" lon="8.818427828888012"><ele>147.0</ele><time>2026-03-29T12:33:28Z</time></trkpt><trkpt lat="44.83116615877588" lon="8.818774192673821"><ele>149.0</ele><time>2026-03-29T12:33:29Z</time></trkpt><trkpt lat="44.831249585767964" lon="8.819119459811388"><ele>148.5</ele><time>2026-03-29T12:33:30Z</time></trkpt><trkpt lat="44.8313311816299" lon="8.81946905873283"><ele>148.0</ele><time>2026-03-29T12:33:31Z</time></trkpt><trkpt lat="44.831406330786066" lon="8.819810143088985"><ele>148.0</ele><time>2026-03-29T12:33:32Z</time></trkpt><trkpt lat="44.83148085868739" lon="8.820149368564438"><ele>148.0</ele><time>2026-03-29T12:33:33Z</time></trkpt><trkpt lat="44.83156022287187" lon="8.820492995631804"><ele>148.0</ele><time>2026-03-29T12:33:34Z</time></trkpt><trkpt lat="44.83164615454271" lon="8.82084017453362"><ele>148.0</ele><time>2026-03-29T12:33:35Z</time></trkpt><trkpt lat="44.83171849964006" lon="8.82119718404742"><ele>147.5</ele><time>2026-03-29T12:33:36Z</time></trkpt><trkpt lat="44.831810147847676" lon="8.821539684649673"><ele>147.0</ele><time>2026-03-29T12:33:37Z</time></trkpt><trkpt lat="44.83189390692039" lon="8.821885188682272"><ele>147.0</ele><time>2026-03-29T12:33:38Z</time></trkpt><trkpt lat="44.831972915403924" lon="8.822223063470128"><ele>147.0</ele><time>2026-03-29T12:33:39Z</time></trkpt><trkpt lat="44.83205431213503" lon="8.822564712806189"><ele>147.0</ele><time>2026-03-29T12:33:40Z</time></trkpt><trkpt lat="44.83213232379743" lon="8.82289864821278"><ele>147.0</ele><time>2026-03-29T12:33:41Z</time></trkpt><trkpt lat="44.832209907177806" lon="8.823229936733894"><ele>148.0</ele><time>2026-03-29T12:33:42Z</time></trkpt><trkpt lat="44.832286963472576" lon="8.823559047502545"><ele>149.0</ele><time>2026-03-29T12:33:43Z</time></trkpt><trkpt lat="44.83236737752862" lon="8.823885751310208"><ele>149.0</ele><time>2026-03-29T12:33:44Z</time></trkpt><trkpt lat="44.83244277123082" lon="8.824199317587555"><ele>149.0</ele><time>2026-03-29T12:33:45Z</time></trkpt><trkpt lat="44.832518111364394" lon="8.82451513092005"><ele>148.0</ele><time>2026-03-29T12:33:46Z</time></trkpt><trkpt lat="44.8325919738725" lon="8.824827208882668"><ele>147.0</ele><time>2026-03-29T12:33:47Z</time></trkpt><trkpt lat="44.8326620497347" lon="8.825133969122552"><ele>146.5</ele><time>2026-03-29T12:33:48Z</time></trkpt><trkpt lat="44.83273056577268" lon="8.825435343736554"><ele>146.0</ele><time>2026-03-29T12:33:49Z</time></trkpt><trkpt lat="44.83280431953321" lon="8.825740698431968"><ele>146.66666666666666</ele><time>2026-03-29T12:33:50Z</time></trkpt><trkpt lat="44.832872187657465" lon="8.826032637235961"><ele>147.33333333333334</ele><time>2026-03-29T12:33:51Z</time></trkpt><trkpt lat="44.83294174498896" lon="8.826326907277569"><ele>148.0</ele><time>2026-03-29T12:33:52Z</time></trkpt><trkpt lat="44.83300929426947" lon="8.826616834466053"><ele>148.0</ele><time>2026-03-29T12:33:53Z</time></trkpt><trkpt lat="44.83307666639191" lon="8.826905158615144"><ele>148.0</ele><time>2026-03-29T12:33:54Z</time></trkpt><trkpt lat="44.83313777186795" lon="8.827182706428824"><ele>148.0</ele><time>2026-03-29T12:33:55Z</time></trkpt><trkpt lat="44.8332042631026" lon="8.82746367469742"><ele>147.66666666666669</ele><time>2026-03-29T12:33:56Z</time></trkpt><trkpt lat="44.83326390392245" lon="8.827728739009128"><ele>147.33333333333334</ele><time>2026-03-29T12:33:57Z</time></trkpt><trkpt lat="44.83333013675443" lon="8.82798607594192"><ele>147.0</ele><time>2026-03-29T12:33:58Z</time></trkpt><trkpt lat="44.83339009341905" lon="8.82822984301146"><ele>147.0</ele><time>2026-03-29T12:33:59Z</time></trkpt><trkpt lat="44.8334530528946" lon="8.828475040924923"><ele>147.0</ele><time>2026-03-29T12:34:00Z</time></trkpt><trkpt lat="44.833522514913184" lon="8.828706343432385"><ele>147.0</ele><time>2026-03-29T12:34:01Z</time></trkpt><trkpt lat="44.83360492713688" lon="8.828931555269335"><ele>146.33333333333334</ele><time>2026-03-29T12:34:02Z</time></trkpt><trkpt lat="44.83370206490642" lon="8.829157227043375"><ele>145.66666666666669</ele><time>2026-03-29T12:34:03Z</time></trkpt><trkpt lat="44.833809015635275" lon="8.82937333484174"><ele>145.0</ele><time>2026-03-29T12:34:04Z</time></trkpt><trkpt lat="44.83393145021106" lon="8.829573916177365"><ele>144.66666666666669</ele><time>2026-03-29T12:34:05Z</time></trkpt><trkpt lat="44.83406652694074" lon="8.82975831909369"><ele>144.33333333333334</ele><time>2026-03-29T12:34:06Z</time></trkpt><trkpt lat="44.834212622225124" lon="8.82991723850396"><ele>144.0</ele><time>2026-03-29T12:34:07Z</time></trkpt><trkpt lat="44.83436053818554" lon="8.830043637531164"><ele>143.66666666666666</ele><time>2026-03-29T12:34:08Z</time></trkpt><trkpt lat="44.83451334917946" lon="8.830142145638021"><ele>143.33333333333331</ele><time>2026-03-29T12:34:09Z</time></trkpt><trkpt lat="44.8346815973457" lon="8.830233838344588"><ele>143.0</ele><time>2026-03-29T12:34:10Z</time></trkpt><trkpt lat="44.83485690982756" lon="8.830301901869296"><ele>143.0</ele><time>2026-03-29T12:34:11Z</time></trkpt><trkpt lat="44.835041508422115" lon="8.830345936711577"><ele>143.0</ele><time>2026-03-29T12:34:12Z</time></trkpt><trkpt lat="44.83522572075861" lon="8.830360099325716"><ele>143.0</ele><time>2026-03-29T12:34:13Z</time></trkpt><trkpt lat="44.83541665620189" lon="8.830353646730027"><ele>143.0</ele><time>2026-03-29T12:34:14Z</time></trkpt><trkpt lat="44.835611336546975" lon="8.830322643030279"><ele>143.0</ele><time>2026-03-29T12:34:15Z</time></trkpt><trkpt lat="44.835799473937456" lon="8.830268303952478"><ele>143.0</ele><time>2026-03-29T12:34:16Z</time></trkpt><trkpt lat="44.835991759572735" lon="8.83019896666921"><ele>142.66666666666666</ele><time>2026-03-29T12:34:17Z</time></trkpt><trkpt lat="44.83618272549642" lon="8.830106446782475"><ele>142.33333333333334</ele><time>2026-03-29T12:34:18Z</time></trkpt><trkpt lat="44.83636927978958" lon="8.830003644437406"><ele>142.0</ele><time>2026-03-29T12:34:19Z</time></trkpt><trkpt lat="44.83655653896133" lon="8.829897320425058"><ele>142.0</ele><time>2026-03-29T12:34:20Z</time></trkpt><trkpt lat="44.83674712322903" lon="8.829779875082764"><ele>142.0</ele><time>2026-03-29T12:34:21Z</time></trkpt><trkpt lat="44.83694002682804" lon="8.829659802351909"><ele>142.0</ele><time>2026-03-29T12:34:22Z</time></trkpt><trkpt lat="44.83713581085358" lon="8.82954967768373"><ele>141.66666666666669</ele><time>2026-03-29T12:34:23Z</time></trkpt><trkpt lat="44.837332670259414" lon="8.829442963066017"><ele>141.33333333333334</ele><time>2026-03-29T12:34:24Z</time></trkpt><trkpt lat="44.83753256397352" lon="8.829348529687305"><ele>141.0</ele><time>2026-03-29T12:34:25Z</time></trkpt><trkpt lat="44.837742330557504" lon="8.829262589419272"><ele>141.66666666666666</ele><time>2026-03-29T12:34:26Z</time></trkpt><trkpt lat="44.837955874886504" lon="8.829193335501508"><ele>142.33333333333331</ele><time>2026-03-29T12:34:27Z</time></trkpt><trkpt lat="44.83817225734035" lon="8.82913749779061"><ele>143.0</ele><time>2026-03-29T12:34:28Z</time></trkpt><trkpt lat="44.838395255616554" lon="8.8290948960578"><ele>142.0</ele><time>2026-03-29T12:34:29Z</time></trkpt><trkpt lat="44.83860604581129" lon="8.829051130634214"><ele>141.0</ele><time>2026-03-29T12:34:30Z</time></trkpt><trkpt lat="44.83883944543151" lon="8.82902110285655"><ele>140.0</ele><time>2026-03-29T12:34:31Z</time></trkpt><trkpt lat="44.83906705078282" lon="8.828997012090653"><ele>139.5</ele><time>2026-03-29T12:34:32Z</time></trkpt><trkpt lat="44.839301877380336" lon="8.828976460675317"><ele>139.0</ele><time>2026-03-29T12:34:33Z</time></trkpt><trkpt lat="44.8395392577287" lon="8.828971301972091"><ele>139.0</ele><time>2026-03-29T12:34:34Z</time></trkpt><trkpt lat="44.83977915031565" lon="8.828974423770442"><ele>139.0</ele><time>2026-03-29T12:34:35Z</time></trkpt><trkpt lat="44.84002478588573" lon="8.828980889834568"><ele>139.5</ele><time>2026-03-29T12:34:36Z</time></trkpt><trkpt lat="44.840269717084375" lon="8.828990592497389"><ele>140.0</ele><time>2026-03-29T12:34:37Z</time></trkpt><trkpt lat="44.84051438287564" lon="8.829001320869066"><ele>140.0</ele><time>2026-03-29T12:34:38Z</time></trkpt><trkpt lat="44.840763651113875" lon="8.82901307608518"><ele>140.0</ele><time>2026-03-29T12:34:39Z</time></trkpt><trkpt lat="44.841017702508964" lon="8.82902152184759"><ele>140.0</ele><time>2026-03-29T12:34:40Z</time></trkpt><trkpt lat="44.84126728774862" lon="8.829031074355076"><ele>140.0</ele><time>2026-03-29T12:34:41Z</time></trkpt><trkpt lat="44.84151715777725" lon="8.829041262577135"><ele>140.0</ele><time>2026-03-29T12:34:42Z</time></trkpt><trkpt lat="44.841772025701836" lon="8.829049254347057"><ele>140.0</ele><time>2026-03-29T12:34:43Z</time></trkpt><trkpt lat="44.84202479323099" lon="8.829061025687029"><ele>139.5</ele><time>2026-03-29T12:34:44Z</time></trkpt><trkpt lat="44.84227772232454" lon="8.829072791389766"><ele>139.0</ele><time>2026-03-29T12:34:45Z</time></trkpt><trkpt lat="44.842530671127264" lon="8.829082791361213"><ele>138.5</ele><time>2026-03-29T12:34:46Z</time></trkpt><trkpt lat="44.842781988396524" lon="8.829095310359069"><ele>138.0</ele><time>2026-03-29T12:34:47.001Z</time></trkpt><trkpt lat="44.843030831192486" lon="8.829108622113965"><ele>138.0</ele><time>2026-03-29T12:34:48.001Z</time></trkpt><trkpt lat="44.843279026559465" lon="8.82912327907529"><ele>138.0</ele><time>2026-03-29T12:34:49Z</time></trkpt><trkpt lat="44.84352722434154" lon="8.829134132256698"><ele>138.0</ele><time>2026-03-29T12:34:50Z</time></trkpt><trkpt lat="44.843772815610826" lon="8.829148314143708"><ele>138.0</ele><time>2026-03-29T12:34:51Z</time></trkpt><trkpt lat="44.844012793138" lon="8.829165512422286"><ele>138.0</ele><time>2026-03-29T12:34:52Z</time></trkpt><trkpt lat="44.84425001144151" lon="8.829179231854535"><ele>138.0</ele><time>2026-03-29T12:34:53Z</time></trkpt><trkpt lat="44.84448540215301" lon="8.8291906689791"><ele>138.0</ele><time>2026-03-29T12:34:54Z</time></trkpt><trkpt lat="44.84471524691661" lon="8.829201726653384"><ele>138.0</ele><time>2026-03-29T12:34:55Z</time></trkpt><trkpt lat="44.844946089267104" lon="8.829212818433462"><ele>138.0</ele><time>2026-03-29T12:34:56Z</time></trkpt><trkpt lat="44.845176136753686" lon="8.829223276982116"><ele>138.0</ele><time>2026-03-29T12:34:57Z</time></trkpt><trkpt lat="44.845402204542616" lon="8.829235095389771"><ele>138.0</ele><time>2026-03-29T12:34:58Z</time></trkpt><trkpt lat="44.84562876785397" lon="8.829245377123131"><ele>138.0</ele><time>2026-03-29T12:34:59Z</time></trkpt><trkpt lat="44.845851759944075" lon="8.829257403764267"><ele>137.33333333333334</ele><time>2026-03-29T12:35:00Z</time></trkpt><trkpt lat="44.84607634309965" lon="8.829267147111418"><ele>136.66666666666669</ele><time>2026-03-29T12:35:01Z</time></trkpt><trkpt lat="44.846298868628324" lon="8.82928020961414"><ele>136.0</ele><time>2026-03-29T12:35:02Z</time></trkpt><trkpt lat="44.8465207822939" lon="8.829291071790692"><ele>136.0</ele><time>2026-03-29T12:35:03Z</time></trkpt><trkpt lat="44.846746309500624" lon="8.829302270072182"><ele>136.0</ele><time>2026-03-29T12:35:04Z</time></trkpt><trkpt lat="44.84697564609217" lon="8.829314539132486"><ele>136.0</ele><time>2026-03-29T12:35:05Z</time></trkpt><trkpt lat="44.84721103879053" lon="8.829327188239965"><ele>136.0</ele><time>2026-03-29T12:35:06Z</time></trkpt><trkpt lat="44.847446153140616" lon="8.829340020060611"><ele>136.0</ele><time>2026-03-29T12:35:07Z</time></trkpt><trkpt lat="44.847683435068014" lon="8.82935118069348"><ele>136.0</ele><time>2026-03-29T12:35:08Z</time></trkpt><trkpt lat="44.847920655814015" lon="8.829364875559811"><ele>136.0</ele><time>2026-03-29T12:35:09Z</time></trkpt><trkpt lat="44.84816301458284" lon="8.829381222279467"><ele>136.0</ele><time>2026-03-29T12:35:10Z</time></trkpt><trkpt lat="44.84840695340107" lon="8.82939622760046"><ele>135.5</ele><time>2026-03-29T12:35:11Z</time></trkpt><trkpt lat="44.84865336281361" lon="8.82940995350266"><ele>135.0</ele><time>2026-03-29T12:35:12Z</time></trkpt><trkpt lat="44.84889701631325" lon="8.829423539985628"><ele>135.0</ele><time>2026-03-29T12:35:13Z</time></trkpt><trkpt lat="44.84915085051674" lon="8.829439442639137"><ele>135.0</ele><time>2026-03-29T12:35:14Z</time></trkpt><trkpt lat="44.849406973211316" lon="8.829451164589985"><ele>135.0</ele><time>2026-03-29T12:35:15Z</time></trkpt><trkpt lat="44.8496625532821" lon="8.829462921921301"><ele>135.0</ele><time>2026-03-29T12:35:16Z</time></trkpt><trkpt lat="44.84991472323191" lon="8.829477552117487"><ele>135.5</ele><time>2026-03-29T12:35:17Z</time></trkpt><trkpt lat="44.85017458185857" lon="8.82948975098676"><ele>136.0</ele><time>2026-03-29T12:35:18Z</time></trkpt><trkpt lat="44.850426022241784" lon="8.829501855030745"><ele>136.0</ele><time>2026-03-29T12:35:19Z</time></trkpt><trkpt lat="44.850677886528246" lon="8.829514097045243"><ele>136.0</ele><time>2026-03-29T12:35:20Z</time></trkpt><trkpt lat="44.85092642439137" lon="8.829528947311484"><ele>135.0</ele><time>2026-03-29T12:35:21Z</time></trkpt><trkpt lat="44.851176255333584" lon="8.8295452707505"><ele>134.0</ele><time>2026-03-29T12:35:22Z</time></trkpt><trkpt lat="44.85142634428705" lon="8.829559444621681"><ele>134.0</ele><time>2026-03-29T12:35:23Z</time></trkpt><trkpt lat="44.851674762999195" lon="8.829571850334384"><ele>134.0</ele><time>2026-03-29T12:35:24Z</time></trkpt><trkpt lat="44.85191430495912" lon="8.829583121482269"><ele>134.0</ele><time>2026-03-29T12:35:25Z</time></trkpt><trkpt lat="44.852152681274504" lon="8.829591903491448"><ele>134.0</ele><time>2026-03-29T12:35:26Z</time></trkpt><trkpt lat="44.852386337687825" lon="8.82960563493386"><ele>134.0</ele><time>2026-03-29T12:35:27Z</time></trkpt><trkpt lat="44.85261787507077" lon="8.829624585727556"><ele>134.0</ele><time>2026-03-29T12:35:28Z</time></trkpt><trkpt lat="44.85284713152171" lon="8.829638207933147"><ele>135.0</ele><time>2026-03-29T12:35:29Z</time></trkpt><trkpt lat="44.8530795984872" lon="8.82964977590348"><ele>136.0</ele><time>2026-03-29T12:35:30Z</time></trkpt><trkpt lat="44.8533165241607" lon="8.82966017049043"><ele>135.0</ele><time>2026-03-29T12:35:31Z</time></trkpt><trkpt lat="44.853552515300684" lon="8.829672321339237"><ele>134.0</ele><time>2026-03-29T12:35:32Z</time></trkpt><trkpt lat="44.85379339581078" lon="8.82968030678568"><ele>134.0</ele><time>2026-03-29T12:35:33Z</time></trkpt><trkpt lat="44.854034778896924" lon="8.82969179047533"><ele>134.0</ele><time>2026-03-29T12:35:34Z</time></trkpt><trkpt lat="44.85428082562355" lon="8.829707118508365"><ele>133.0</ele><time>2026-03-29T12:35:35Z</time></trkpt><trkpt lat="44.85453180636297" lon="8.829720054689187"><ele>132.0</ele><time>2026-03-29T12:35:36Z</time></trkpt><trkpt lat="44.85478787151265" lon="8.829734102911473"><ele>132.0</ele><time>2026-03-29T12:35:37Z</time></trkpt><trkpt lat="44.85504467446889" lon="8.829749716093126"><ele>132.0</ele><time>2026-03-29T12:35:38Z</time></trkpt><trkpt lat="44.8553006437658" lon="8.829766276014865"><ele>131.5</ele><time>2026-03-29T12:35:39Z</time></trkpt><trkpt lat="44.855555276409135" lon="8.82978094847215"><ele>131.0</ele><time>2026-03-29T12:35:40Z</time></trkpt><trkpt lat="44.855814345060196" lon="8.82979577075249"><ele>130.0</ele><time>2026-03-29T12:35:41Z</time></trkpt><trkpt lat="44.85607348343815" lon="8.829807357546285"><ele>129.0</ele><time>2026-03-29T12:35:42Z</time></trkpt><trkpt lat="44.856330869459" lon="8.82982201067455"><ele>129.0</ele><time>2026-03-29T12:35:43Z</time></trkpt><trkpt lat="44.85658844154928" lon="8.829836591604513"><ele>129.0</ele><time>2026-03-29T12:35:44Z</time></trkpt><trkpt lat="44.85684035253561" lon="8.829851537807603"><ele>129.5</ele><time>2026-03-29T12:35:45Z</time></trkpt><trkpt lat="44.85709764373787" lon="8.829867544333768"><ele>130.0</ele><time>2026-03-29T12:35:46Z</time></trkpt><trkpt lat="44.85734997537683" lon="8.829883257653819"><ele>130.0</ele><time>2026-03-29T12:35:47Z</time></trkpt><trkpt lat="44.85760521647462" lon="8.829896033029103"><ele>130.0</ele><time>2026-03-29T12:35:48Z</time></trkpt><trkpt lat="44.85785978937" lon="8.829905013293738"><ele>129.5</ele><time>2026-03-29T12:35:49Z</time></trkpt><trkpt lat="44.85811081734792" lon="8.82991912060696"><ele>129.0</ele><time>2026-03-29T12:35:50Z</time></trkpt><trkpt lat="44.85836063656267" lon="8.829932333233975"><ele>128.5</ele><time>2026-03-29T12:35:51Z</time></trkpt><trkpt lat="44.85861119961584" lon="8.829944881032471"><ele>128.0</ele><time>2026-03-29T12:35:52Z</time></trkpt><trkpt lat="44.858862062202554" lon="8.829956923475617"><ele>128.0</ele><time>2026-03-29T12:35:53Z</time></trkpt><trkpt lat="44.859115078975776" lon="8.82997083245044"><ele>128.0</ele><time>2026-03-29T12:35:54.001Z</time></trkpt><trkpt lat="44.85936987717478" lon="8.829984650508699"><ele>128.5</ele><time>2026-03-29T12:35:55.001Z</time></trkpt><trkpt lat="44.8596237058792" lon="8.829999402510607"><ele>129.0</ele><time>2026-03-29T12:35:56.001Z</time></trkpt><trkpt lat="44.85987386340417" lon="8.830013842494239"><ele>129.0</ele><time>2026-03-29T12:35:57.001Z</time></trkpt><trkpt lat="44.86012074516211" lon="8.830026528573999"><ele>129.0</ele><time>2026-03-29T12:35:58.001Z</time></trkpt><trkpt lat="44.86036905684362" lon="8.830039613740004"><ele>129.0</ele><time>2026-03-29T12:35:59.001Z</time></trkpt><trkpt lat="44.86061182952847" lon="8.830054434671954"><ele>129.0</ele><time>2026-03-29T12:36:00.001Z</time></trkpt><trkpt lat="44.8608572782577" lon="8.830069318623952"><ele>128.0</ele><time>2026-03-29T12:36:01.001Z</time></trkpt><trkpt lat="44.86110104441059" lon="8.830080733412506"><ele>127.0</ele><time>2026-03-29T12:36:02.001Z</time></trkpt><trkpt lat="44.86134801682591" lon="8.83009273789618"><ele>127.0</ele><time>2026-03-29T12:36:03.001Z</time></trkpt><trkpt lat="44.86159682400113" lon="8.830105178682489"><ele>127.0</ele><time>2026-03-29T12:36:04.001Z</time></trkpt><trkpt lat="44.86184879662713" lon="8.83012062557252"><ele>128.0</ele><time>2026-03-29T12:36:05.001Z</time></trkpt><trkpt lat="44.86209721125032" lon="8.830133931741008"><ele>129.0</ele><time>2026-03-29T12:36:06.001Z</time></trkpt><trkpt lat="44.8623477776406" lon="8.830145717685586"><ele>129.5</ele><time>2026-03-29T12:36:07.001Z</time></trkpt><trkpt lat="44.86260188034591" lon="8.83016073927019"><ele>130.0</ele><time>2026-03-29T12:36:08.001Z</time></trkpt><trkpt lat="44.86285237688986" lon="8.830178131526848"><ele>130.5</ele><time>2026-03-29T12:36:09.001Z</time></trkpt><trkpt lat="44.86310313302402" lon="8.830193985682772"><ele>131.0</ele><time>2026-03-29T12:36:10.001Z</time></trkpt><trkpt lat="44.863361767724136" lon="8.830207421789384"><ele>129.5</ele><time>2026-03-29T12:36:11.001Z</time></trkpt><trkpt lat="44.86361155858271" lon="8.83022099565579"><ele>128.0</ele><time>2026-03-29T12:36:12.001Z</time></trkpt><trkpt lat="44.863867261865174" lon="8.83023642390619"><ele>128.0</ele><time>2026-03-29T12:36:13.001Z</time></trkpt><trkpt lat="44.86411956208718" lon="8.830249122959666"><ele>128.0</ele><time>2026-03-29T12:36:14.001Z</time></trkpt><trkpt lat="44.864375978351426" lon="8.830264822914234"><ele>127.5</ele><time>2026-03-29T12:36:15.001Z</time></trkpt><trkpt lat="44.864630753972364" lon="8.830287130435837"><ele>127.0</ele><time>2026-03-29T12:36:16.001Z</time></trkpt><trkpt lat="44.86488578054649" lon="8.830315880275531"><ele>127.0</ele><time>2026-03-29T12:36:17.001Z</time></trkpt><trkpt lat="44.8651387455155" lon="8.830352441539553"><ele>127.0</ele><time>2026-03-29T12:36:18.001Z</time></trkpt><trkpt lat="44.86539182228278" lon="8.83039411155187"><ele>127.0</ele><time>2026-03-29T12:36:19.001Z</time></trkpt><trkpt lat="44.86564357612734" lon="8.830441216347069"><ele>127.0</ele><time>2026-03-29T12:36:20.001Z</time></trkpt><trkpt lat="44.86589009724277" lon="8.830494879204968"><ele>126.0</ele><time>2026-03-29T12:36:21.001Z</time></trkpt><trkpt lat="44.86613823544971" lon="8.830551270181468"><ele>125.0</ele><time>2026-03-29T12:36:22.001Z</time></trkpt><trkpt lat="44.866385436986185" lon="8.830609225841487"><ele>125.0</ele><time>2026-03-29T12:36:23.001Z</time></trkpt><trkpt lat="44.8666355928284" lon="8.830673087196205"><ele>125.0</ele><time>2026-03-29T12:36:24.001Z</time></trkpt><trkpt lat="44.866885232030185" lon="8.830745086438919"><ele>124.5</ele><time>2026-03-29T12:36:25.001Z</time></trkpt><trkpt lat="44.86713287065674" lon="8.830822056474254"><ele>124.0</ele><time>2026-03-29T12:36:26.001Z</time></trkpt><trkpt lat="44.86738176486812" lon="8.830899127235368"><ele>125.0</ele><time>2026-03-29T12:36:27.001Z</time></trkpt><trkpt lat="44.86762284990123" lon="8.830980093921246"><ele>126.0</ele><time>2026-03-29T12:36:28.001Z</time></trkpt><trkpt lat="44.86786490377479" lon="8.831068943115293"><ele>126.0</ele><time>2026-03-29T12:36:29.001Z</time></trkpt><trkpt lat="44.86810416461297" lon="8.83116392509982"><ele>126.0</ele><time>2026-03-29T12:36:30.001Z</time></trkpt><trkpt lat="44.868338151983096" lon="8.831262001751059"><ele>126.0</ele><time>2026-03-29T12:36:31.001Z</time></trkpt><trkpt lat="44.86857438012957" lon="8.831363966527944"><ele>126.0</ele><time>2026-03-29T12:36:32.001Z</time></trkpt><trkpt lat="44.8688066670371" lon="8.831468088194757"><ele>126.0</ele><time>2026-03-29T12:36:33.001Z</time></trkpt><trkpt lat="44.8690406009714" lon="8.831572066059696"><ele>126.0</ele><time>2026-03-29T12:36:34.001Z</time></trkpt><trkpt lat="44.869273870533284" lon="8.831676368812891"><ele>125.0</ele><time>2026-03-29T12:36:35.001Z</time></trkpt><trkpt lat="44.869502641370545" lon="8.831777770237549"><ele>124.0</ele><time>2026-03-29T12:36:36.001Z</time></trkpt><trkpt lat="44.86973676976725" lon="8.831877174806282"><ele>124.0</ele><time>2026-03-29T12:36:37.001Z</time></trkpt><trkpt lat="44.86996939198264" lon="8.831971969876317"><ele>124.0</ele><time>2026-03-29T12:36:38.001Z</time></trkpt><trkpt lat="44.87020194513902" lon="8.83207145166085"><ele>123.5</ele><time>2026-03-29T12:36:39.001Z</time></trkpt><trkpt lat="44.87043457987856" lon="8.832174394871066"><ele>123.0</ele><time>2026-03-29T12:36:40.001Z</time></trkpt><trkpt lat="44.870663109479004" lon="8.832275126456375"><ele>123.0</ele><time>2026-03-29T12:36:41.001Z</time></trkpt><trkpt lat="44.870893917177476" lon="8.832373741810981"><ele>123.0</ele><time>2026-03-29T12:36:42.001Z</time></trkpt><trkpt lat="44.871125735898254" lon="8.832474594514627"><ele>123.0</ele><time>2026-03-29T12:36:43.001Z</time></trkpt><trkpt lat="44.87135827725007" lon="8.832578980772693"><ele>123.0</ele><time>2026-03-29T12:36:44.001Z</time></trkpt><trkpt lat="44.87159148622488" lon="8.832681586150077"><ele>123.5</ele><time>2026-03-29T12:36:45.001Z</time></trkpt><trkpt lat="44.871820884883185" lon="8.832782996408634"><ele>124.0</ele><time>2026-03-29T12:36:46.001Z</time></trkpt><trkpt lat="44.87205372292411" lon="8.83288509121237"><ele>124.0</ele><time>2026-03-29T12:36:47.001Z</time></trkpt><trkpt lat="44.8722878659877" lon="8.83298632486424"><ele>124.0</ele><time>2026-03-29T12:36:48.001Z</time></trkpt><trkpt lat="44.872519289648345" lon="8.833085152786685"><ele>124.0</ele><time>2026-03-29T12:36:49.001Z</time></trkpt><trkpt lat="44.87274969719587" lon="8.83318684929763"><ele>124.0</ele><time>2026-03-29T12:36:50.001Z</time></trkpt><trkpt lat="44.87297778015174" lon="8.833286052943256"><ele>124.0</ele><time>2026-03-29T12:36:51.001Z</time></trkpt><trkpt lat="44.87320766815824" lon="8.833388400019754"><ele>124.0</ele><time>2026-03-29T12:36:52.001Z</time></trkpt><trkpt lat="44.873440728989564" lon="8.83349069549086"><ele>124.5</ele><time>2026-03-29T12:36:53.001Z</time></trkpt><trkpt lat="44.87367632099764" lon="8.833591609964266"><ele>125.0</ele><time>2026-03-29T12:36:54.001Z</time></trkpt><trkpt lat="44.87391116458318" lon="8.833694913555883"><ele>125.0</ele><time>2026-03-29T12:36:55.001Z</time></trkpt><trkpt lat="44.87414812868385" lon="8.8337977943329"><ele>125.0</ele><time>2026-03-29T12:36:56.001Z</time></trkpt><trkpt lat="44.87438317334642" lon="8.83390295304926"><ele>124.5</ele><time>2026-03-29T12:36:57.001Z</time></trkpt><trkpt lat="44.8746224268352" lon="8.834010130399076"><ele>124.0</ele><time>2026-03-29T12:36:58.001Z</time></trkpt><trkpt lat="44.87486388554807" lon="8.834116155423752"><ele>124.5</ele><time>2026-03-29T12:36:59.001Z</time></trkpt><trkpt lat="44.87510499167461" lon="8.834215498858047"><ele>125.0</ele><time>2026-03-29T12:37:00.001Z</time></trkpt><trkpt lat="44.8753482467914" lon="8.834316193615573"><ele>125.0</ele><time>2026-03-29T12:37:01.001Z</time></trkpt><trkpt lat="44.875591575961856" lon="8.83441688893949"><ele>125.0</ele><time>2026-03-29T12:37:02.001Z</time></trkpt><trkpt lat="44.87583260693141" lon="8.834522330991105"><ele>123.5</ele><time>2026-03-29T12:37:03.001Z</time></trkpt><trkpt lat="44.876070682143585" lon="8.834631520727342"><ele>122.0</ele><time>2026-03-29T12:37:04.001Z</time></trkpt><trkpt lat="44.8763122778779" lon="8.834736320062154"><ele>122.0</ele><time>2026-03-29T12:37:05.001Z</time></trkpt><trkpt lat="44.8765467754489" lon="8.83483874191336"><ele>122.0</ele><time>2026-03-29T12:37:06.001Z</time></trkpt><trkpt lat="44.87678221935168" lon="8.834940183473863"><ele>122.5</ele><time>2026-03-29T12:37:07.001Z</time></trkpt><trkpt lat="44.87701555695454" lon="8.835042949362759"><ele>123.0</ele><time>2026-03-29T12:37:08.001Z</time></trkpt><trkpt lat="44.87724621449687" lon="8.83514691035884"><ele>123.0</ele><time>2026-03-29T12:37:09.001Z</time></trkpt><trkpt lat="44.87747595487256" lon="8.835249875753302"><ele>123.0</ele><time>2026-03-29T12:37:10.001Z</time></trkpt><trkpt lat="44.87770934840061" lon="8.835354712098265"><ele>123.0</ele><time>2026-03-29T12:37:11.001Z</time></trkpt><trkpt lat="44.877950455100766" lon="8.835461753526507"><ele>123.0</ele><time>2026-03-29T12:37:12.001Z</time></trkpt><trkpt lat="44.87820201489475" lon="8.835568991609366"><ele>123.5</ele><time>2026-03-29T12:37:13.001Z</time></trkpt><trkpt lat="44.87846879130265" lon="8.835680387292019"><ele>124.0</ele><time>2026-03-29T12:37:14.001Z</time></trkpt><trkpt lat="44.87873794840465" lon="8.835801546918228"><ele>124.0</ele><time>2026-03-29T12:37:15.001Z</time></trkpt><trkpt lat="44.87900497281342" lon="8.835924064445647"><ele>124.0</ele><time>2026-03-29T12:37:16.001Z</time></trkpt><trkpt lat="44.87927084941443" lon="8.83604866148449"><ele>123.5</ele><time>2026-03-29T12:37:17.001Z</time></trkpt><trkpt lat="44.879535435410816" lon="8.836171785540905"><ele>123.0</ele><time>2026-03-29T12:37:18.001Z</time></trkpt><trkpt lat="44.87979917329278" lon="8.836297496663963"><ele>123.0</ele><time>2026-03-29T12:37:19.001Z</time></trkpt><trkpt lat="44.88006058275069" lon="8.83642549565342"><ele>123.0</ele><time>2026-03-29T12:37:20.001Z</time></trkpt><trkpt lat="44.8803241421552" lon="8.836557557997466"><ele>122.0</ele><time>2026-03-29T12:37:21.001Z</time></trkpt><trkpt lat="44.88058199984667" lon="8.83669483753239"><ele>121.0</ele><time>2026-03-29T12:37:22.001Z</time></trkpt><trkpt lat="44.880843001163754" lon="8.836827397137172"><ele>119.5</ele><time>2026-03-29T12:37:23.001Z</time></trkpt><trkpt lat="44.88110131376424" lon="8.836957979735395"><ele>118.0</ele><time>2026-03-29T12:37:24.001Z</time></trkpt><trkpt lat="44.88136095374606" lon="8.837086171711308"><ele>118.0</ele><time>2026-03-29T12:37:25.001Z</time></trkpt><trkpt lat="44.881621269243944" lon="8.837209790622142"><ele>118.0</ele><time>2026-03-29T12:37:26.001Z</time></trkpt><trkpt lat="44.881883215626814" lon="8.83733122922791"><ele>119.0</ele><time>2026-03-29T12:37:27.001Z</time></trkpt><trkpt lat="44.882141184489804" lon="8.837452956240165"><ele>120.0</ele><time>2026-03-29T12:37:28.001Z</time></trkpt><trkpt lat="44.88240139376642" lon="8.837576584255107"><ele>120.0</ele><time>2026-03-29T12:37:29.001Z</time></trkpt><trkpt lat="44.88266119966926" lon="8.837696630338252"><ele>120.0</ele><time>2026-03-29T12:37:30.001Z</time></trkpt><trkpt lat="44.88292301517306" lon="8.83781920008121"><ele>120.0</ele><time>2026-03-29T12:37:31.001Z</time></trkpt><trkpt lat="44.8831819092555" lon="8.837941889030692"><ele>120.0</ele><time>2026-03-29T12:37:32.001Z</time></trkpt><trkpt lat="44.88344154860649" lon="8.838065929872316"><ele>118.5</ele><time>2026-03-29T12:37:33.001Z</time></trkpt><trkpt lat="44.88370157697884" lon="8.838189096423623"><ele>117.0</ele><time>2026-03-29T12:37:34.001Z</time></trkpt><trkpt lat="44.883958150295555" lon="8.838311348342451"><ele>117.0</ele><time>2026-03-29T12:37:35.001Z</time></trkpt><trkpt lat="44.884218289652054" lon="8.838435117007984"><ele>117.0</ele><time>2026-03-29T12:37:36.001Z</time></trkpt><trkpt lat="44.8844780067627" lon="8.838555358045074"><ele>118.5</ele><time>2026-03-29T12:37:37.001Z</time></trkpt><trkpt lat="44.88473613952973" lon="8.83867554476618"><ele>120.0</ele><time>2026-03-29T12:37:38.001Z</time></trkpt><trkpt lat="44.88499647479799" lon="8.838797811505385"><ele>119.5</ele><time>2026-03-29T12:37:39.001Z</time></trkpt><trkpt lat="44.88525467360466" lon="8.838918536284796"><ele>119.0</ele><time>2026-03-29T12:37:40.001Z</time></trkpt><trkpt lat="44.8855143742481" lon="8.839036521613759"><ele>119.0</ele><time>2026-03-29T12:37:41.001Z</time></trkpt><trkpt lat="44.885775498460234" lon="8.839163283953074"><ele>119.0</ele><time>2026-03-29T12:37:42.001Z</time></trkpt><trkpt lat="44.8860305938249" lon="8.839281071659554"><ele>118.0</ele><time>2026-03-29T12:37:43.001Z</time></trkpt><trkpt lat="44.886293436220335" lon="8.839399817104095"><ele>117.0</ele><time>2026-03-29T12:37:44.001Z</time></trkpt><trkpt lat="44.88654289745862" lon="8.839517730009847"><ele>117.0</ele><time>2026-03-29T12:37:45.001Z</time></trkpt><trkpt lat="44.88679425488635" lon="8.839635468717423"><ele>117.0</ele><time>2026-03-29T12:37:46.001Z</time></trkpt><trkpt lat="44.88704693744295" lon="8.839753728528903"><ele>117.0</ele><time>2026-03-29T12:37:47.001Z</time></trkpt><trkpt lat="44.8872964884097" lon="8.839873824609315"><ele>117.0</ele><time>2026-03-29T12:37:48.001Z</time></trkpt><trkpt lat="44.88754478085349" lon="8.839991244000215"><ele>117.0</ele><time>2026-03-29T12:37:49.001Z</time></trkpt><trkpt lat="44.88779320754083" lon="8.84010869264419"><ele>117.0</ele><time>2026-03-29T12:37:50.001Z</time></trkpt><trkpt lat="44.888043128448714" lon="8.840222922583692"><ele>117.0</ele><time>2026-03-29T12:37:51.001Z</time></trkpt><trkpt lat="44.888291322892385" lon="8.840334330326417"><ele>117.0</ele><time>2026-03-29T12:37:52.001Z</time></trkpt><trkpt lat="44.88854199304855" lon="8.840442103653542"><ele>117.0</ele><time>2026-03-29T12:37:53.001Z</time></trkpt><trkpt lat="44.88879350888916" lon="8.840546286885155"><ele>117.0</ele><time>2026-03-29T12:37:54.001Z</time></trkpt><trkpt lat="44.88904170592963" lon="8.840647142174102"><ele>117.5</ele><time>2026-03-29T12:37:55.001Z</time></trkpt><trkpt lat="44.889296787861234" lon="8.840741878944467"><ele>118.0</ele><time>2026-03-29T12:37:56.001Z</time></trkpt><trkpt lat="44.88955081257625" lon="8.840834595658237"><ele>118.0</ele><time>2026-03-29T12:37:57.001Z</time></trkpt><trkpt lat="44.88980526234812" lon="8.84092703235317"><ele>118.0</ele><time>2026-03-29T12:37:58.001Z</time></trkpt><trkpt lat="44.890061338532725" lon="8.841017331729292"><ele>117.5</ele><time>2026-03-29T12:37:59.001Z</time></trkpt><trkpt lat="44.89031621368153" lon="8.84110497981783"><ele>117.0</ele><time>2026-03-29T12:38:00.001Z</time></trkpt><trkpt lat="44.890574867761686" lon="8.841190960749286"><ele>117.0</ele><time>2026-03-29T12:38:01.001Z</time></trkpt><trkpt lat="44.89083825773671" lon="8.841268461959741"><ele>117.0</ele><time>2026-03-29T12:38:02.001Z</time></trkpt><trkpt lat="44.89109708102678" lon="8.841342770797612"><ele>116.0</ele><time>2026-03-29T12:38:03.001Z</time></trkpt><trkpt lat="44.891359669557005" lon="8.841412639006547"><ele>115.0</ele><time>2026-03-29T12:38:04.001Z</time></trkpt><trkpt lat="44.89162150078232" lon="8.841481529924492"><ele>115.5</ele><time>2026-03-29T12:38:05.001Z</time></trkpt><trkpt lat="44.89188381571895" lon="8.841545031310119"><ele>116.0</ele><time>2026-03-29T12:38:06.001Z</time></trkpt><trkpt lat="44.89214378262074" lon="8.841608019803266"><ele>116.0</ele><time>2026-03-29T12:38:07.001Z</time></trkpt><trkpt lat="44.892404535155435" lon="8.841667435158543"><ele>116.0</ele><time>2026-03-29T12:38:08.001Z</time></trkpt><trkpt lat="44.89266653394191" lon="8.841723048126942"><ele>116.5</ele><time>2026-03-29T12:38:09.001Z</time></trkpt><trkpt lat="44.89293225930543" lon="8.841773172239824"><ele>117.0</ele><time>2026-03-29T12:38:10.001Z</time></trkpt><trkpt lat="44.893193450060814" lon="8.841820896374905"><ele>117.5</ele><time>2026-03-29T12:38:11.001Z</time></trkpt><trkpt lat="44.89345804275178" lon="8.841863257263569"><ele>118.0</ele><time>2026-03-29T12:38:12.001Z</time></trkpt><trkpt lat="44.8937218119945" lon="8.841906831440621"><ele>118.0</ele><time>2026-03-29T12:38:13.001Z</time></trkpt><trkpt lat="44.89398532947142" lon="8.841952110100344"><ele>118.0</ele><time>2026-03-29T12:38:14.001Z</time></trkpt><trkpt lat="44.89424668959988" lon="8.841995618114717"><ele>117.0</ele><time>2026-03-29T12:38:15.001Z</time></trkpt><trkpt lat="44.89450699993912" lon="8.842037985505396"><ele>116.0</ele><time>2026-03-29T12:38:16.001Z</time></trkpt><trkpt lat="44.89476935518939" lon="8.842079756370277"><ele>116.0</ele><time>2026-03-29T12:38:17.001Z</time></trkpt><trkpt lat="44.89502657133297" lon="8.842125758024244"><ele>116.0</ele><time>2026-03-29T12:38:18.001Z</time></trkpt><trkpt lat="44.895282502509325" lon="8.842170772506696"><ele>116.5</ele><time>2026-03-29T12:38:19.001Z</time></trkpt><trkpt lat="44.8955464100941" lon="8.84221470272412"><ele>117.0</ele><time>2026-03-29T12:38:20.001Z</time></trkpt><trkpt lat="44.895808684456235" lon="8.842256734867705"><ele>115.5</ele><time>2026-03-29T12:38:21.001Z</time></trkpt><trkpt lat="44.896073267675106" lon="8.842298217989358"><ele>114.0</ele><time>2026-03-29T12:38:22.001Z</time></trkpt><trkpt lat="44.8963330723147" lon="8.842342396288533"><ele>114.0</ele><time>2026-03-29T12:38:23.001Z</time></trkpt><trkpt lat="44.89659197288359" lon="8.842389274505889"><ele>114.0</ele><time>2026-03-29T12:38:24.001Z</time></trkpt><trkpt lat="44.89685658265713" lon="8.842432529122568"><ele>115.0</ele><time>2026-03-29T12:38:25.001Z</time></trkpt><trkpt lat="44.897120046878044" lon="8.842475198107516"><ele>116.0</ele><time>2026-03-29T12:38:26.001Z</time></trkpt><trkpt lat="44.89738055956487" lon="8.842517654621343"><ele>115.5</ele><time>2026-03-29T12:38:27.001Z</time></trkpt><trkpt lat="44.89764168064223" lon="8.842559917128773"><ele>115.0</ele><time>2026-03-29T12:38:28.001Z</time></trkpt><trkpt lat="44.89790291090207" lon="8.842601508179174"><ele>114.0</ele><time>2026-03-29T12:38:29.001Z</time></trkpt><trkpt lat="44.8981616977811" lon="8.84264396917826"><ele>113.0</ele><time>2026-03-29T12:38:30.001Z</time></trkpt><trkpt lat="44.898421244135534" lon="8.84268220974183"><ele>112.0</ele><time>2026-03-29T12:38:31.001Z</time></trkpt><trkpt lat="44.89867953666423" lon="8.842724975990363"><ele>111.0</ele><time>2026-03-29T12:38:32.001Z</time></trkpt><trkpt lat="44.898934394407554" lon="8.842771737857573"><ele>111.0</ele><time>2026-03-29T12:38:33.001Z</time></trkpt><trkpt lat="44.89918845677778" lon="8.842820173743753"><ele>111.0</ele><time>2026-03-29T12:38:34.001Z</time></trkpt><trkpt lat="44.899454340819325" lon="8.842859068019177"><ele>112.0</ele><time>2026-03-29T12:38:35.001Z</time></trkpt><trkpt lat="44.89971033822549" lon="8.842902849756182"><ele>113.0</ele><time>2026-03-29T12:38:36.001Z</time></trkpt><trkpt lat="44.89996602231364" lon="8.842949371315354"><ele>111.5</ele><time>2026-03-29T12:38:37.001Z</time></trkpt><trkpt lat="44.90022404573976" lon="8.842991305390662"><ele>110.0</ele><time>2026-03-29T12:38:38.001Z</time></trkpt><trkpt lat="44.90048235355888" lon="8.843031043337197"><ele>110.0</ele><time>2026-03-29T12:38:39.001Z</time></trkpt><trkpt lat="44.90073207200468" lon="8.843073099165423"><ele>110.0</ele><time>2026-03-29T12:38:40.001Z</time></trkpt><trkpt lat="44.90098917070459" lon="8.843106458243144"><ele>110.0</ele><time>2026-03-29T12:38:41.001Z</time></trkpt><trkpt lat="44.90124839842061" lon="8.84313634567695"><ele>110.0</ele><time>2026-03-29T12:38:42.001Z</time></trkpt><trkpt lat="44.901502817846726" lon="8.843169251887751"><ele>111.0</ele><time>2026-03-29T12:38:43.001Z</time></trkpt><trkpt lat="44.90175346722223" lon="8.843198920267652"><ele>112.0</ele><time>2026-03-29T12:38:44.001Z</time></trkpt><trkpt lat="44.90201999538114" lon="8.84322250057549"><ele>112.0</ele><time>2026-03-29T12:38:45.001Z</time></trkpt><trkpt lat="44.90227947683493" lon="8.84324490637027"><ele>112.0</ele><time>2026-03-29T12:38:46.001Z</time></trkpt><trkpt lat="44.90254216179349" lon="8.843268557162364"><ele>110.5</ele><time>2026-03-29T12:38:47.001Z</time></trkpt><trkpt lat="44.90280142338765" lon="8.843292726329961"><ele>109.0</ele><time>2026-03-29T12:38:48.001Z</time></trkpt><trkpt lat="44.90306034322964" lon="8.843318272108368"><ele>109.0</ele><time>2026-03-29T12:38:49.001Z</time></trkpt><trkpt lat="44.90331171704323" lon="8.843343862246167"><ele>109.0</ele><time>2026-03-29T12:38:50.001Z</time></trkpt><trkpt lat="44.903558852731514" lon="8.843370863111668"><ele>110.0</ele><time>2026-03-29T12:38:51.001Z</time></trkpt><trkpt lat="44.90380746833028" lon="8.843395972798223"><ele>111.0</ele><time>2026-03-29T12:38:52.001Z</time></trkpt><trkpt lat="44.90405210642411" lon="8.843421990873134"><ele>110.0</ele><time>2026-03-29T12:38:53.001Z</time></trkpt><trkpt lat="44.90430084198326" lon="8.843437268007595"><ele>109.0</ele><time>2026-03-29T12:38:54.001Z</time></trkpt><trkpt lat="44.904542789954185" lon="8.843461461630591"><ele>109.0</ele><time>2026-03-29T12:38:55.001Z</time></trkpt><trkpt lat="44.90478901485433" lon="8.84348651245996"><ele>109.0</ele><time>2026-03-29T12:38:56.001Z</time></trkpt><trkpt lat="44.90502862364367" lon="8.843508826887984"><ele>109.0</ele><time>2026-03-29T12:38:57.001Z</time></trkpt><trkpt lat="44.905260350544" lon="8.843527485653421"><ele>109.0</ele><time>2026-03-29T12:38:58.001Z</time></trkpt><trkpt lat="44.90549204539327" lon="8.84354793482619"><ele>109.0</ele><time>2026-03-29T12:38:59.001Z</time></trkpt><trkpt lat="44.905725130737956" lon="8.843572459546387"><ele>109.0</ele><time>2026-03-29T12:39:00.001Z</time></trkpt><trkpt lat="44.905961521337545" lon="8.843596131577254"><ele>109.0</ele><time>2026-03-29T12:39:01.001Z</time></trkpt><trkpt lat="44.906202465363585" lon="8.843618244826843"><ele>109.0</ele><time>2026-03-29T12:39:02.001Z</time></trkpt><trkpt lat="44.90645117077221" lon="8.843641706843117"><ele>109.0</ele><time>2026-03-29T12:39:03.001Z</time></trkpt><trkpt lat="44.906705502997134" lon="8.84366660828557"><ele>109.0</ele><time>2026-03-29T12:39:04.001Z</time></trkpt><trkpt lat="44.906961828921055" lon="8.843691476545356"><ele>109.0</ele><time>2026-03-29T12:39:05.001Z</time></trkpt><trkpt lat="44.907219545684576" lon="8.84371399934734"><ele>109.0</ele><time>2026-03-29T12:39:06.001Z</time></trkpt><trkpt lat="44.90747882892747" lon="8.843732897768456"><ele>109.0</ele><time>2026-03-29T12:39:07.001Z</time></trkpt><trkpt lat="44.907736073174284" lon="8.843755496775051"><ele>109.0</ele><time>2026-03-29T12:39:08Z</time></trkpt><trkpt lat="44.90799377267516" lon="8.843778512807955"><ele>109.0</ele><time>2026-03-29T12:39:09Z</time></trkpt><trkpt lat="44.908251699774446" lon="8.843799384343864"><ele>109.0</ele><time>2026-03-29T12:39:10Z</time></trkpt><trkpt lat="44.908497165945484" lon="8.843824089326336"><ele>108.5</ele><time>2026-03-29T12:39:11Z</time></trkpt><trkpt lat="44.908739693788334" lon="8.843852244586166"><ele>108.0</ele><time>2026-03-29T12:39:12Z</time></trkpt><trkpt lat="44.90897730533391" lon="8.843881063137651"><ele>108.0</ele><time>2026-03-29T12:39:13Z</time></trkpt><trkpt lat="44.90922369291628" lon="8.843898842704135"><ele>108.0</ele><time>2026-03-29T12:39:14Z</time></trkpt><trkpt lat="44.90946406471432" lon="8.843920306944153"><ele>108.0</ele><time>2026-03-29T12:39:15Z</time></trkpt><trkpt lat="44.90970505643509" lon="8.843941677602405"><ele>108.0</ele><time>2026-03-29T12:39:16Z</time></trkpt><trkpt lat="44.90994260058313" lon="8.843968062864107"><ele>107.5</ele><time>2026-03-29T12:39:17Z</time></trkpt><trkpt lat="44.91018616599296" lon="8.843985838675357"><ele>107.0</ele><time>2026-03-29T12:39:18Z</time></trkpt><trkpt lat="44.91041897597623" lon="8.84401224717061"><ele>107.0</ele><time>2026-03-29T12:39:19Z</time></trkpt><trkpt lat="44.910652929970716" lon="8.844035991697151"><ele>107.0</ele><time>2026-03-29T12:39:20Z</time></trkpt><trkpt lat="44.91088427314664" lon="8.844057102423763"><ele>106.0</ele><time>2026-03-29T12:39:21Z</time></trkpt><trkpt lat="44.911111965515936" lon="8.844077161757143"><ele>105.0</ele><time>2026-03-29T12:39:22Z</time></trkpt><trkpt lat="44.911340476712354" lon="8.844098697581833"><ele>105.0</ele><time>2026-03-29T12:39:23Z</time></trkpt><trkpt lat="44.911565894894565" lon="8.84412743628042"><ele>105.0</ele><time>2026-03-29T12:39:24Z</time></trkpt><trkpt lat="44.91179550089878" lon="8.8441524583449"><ele>105.0</ele><time>2026-03-29T12:39:25Z</time></trkpt><trkpt lat="44.91201765654029" lon="8.844179952132091"><ele>105.0</ele><time>2026-03-29T12:39:26Z</time></trkpt><trkpt lat="44.91223837244216" lon="8.844204724026454"><ele>105.0</ele><time>2026-03-29T12:39:27Z</time></trkpt><trkpt lat="44.912462579789185" lon="8.844232143803763"><ele>105.33333333333334</ele><time>2026-03-29T12:39:28Z</time></trkpt><trkpt lat="44.91267246792579" lon="8.84425867489539"><ele>105.66666666666667</ele><time>2026-03-29T12:39:29Z</time></trkpt><trkpt lat="44.91287425079102" lon="8.844284785419111"><ele>106.0</ele><time>2026-03-29T12:39:30Z</time></trkpt><trkpt lat="44.91307301303448" lon="8.844312313431335"><ele>105.0</ele><time>2026-03-29T12:39:31Z</time></trkpt><trkpt lat="44.91327510222004" lon="8.844331305575581"><ele>104.0</ele><time>2026-03-29T12:39:32Z</time></trkpt><trkpt lat="44.91347455804548" lon="8.844350720982012"><ele>103.0</ele><time>2026-03-29T12:39:33Z</time></trkpt><trkpt lat="44.9136732137332" lon="8.844368147808046"><ele>103.0</ele><time>2026-03-29T12:39:34Z</time></trkpt><trkpt lat="44.913867722243225" lon="8.844386675190385"><ele>103.0</ele><time>2026-03-29T12:39:35Z</time></trkpt><trkpt lat="44.91406115587484" lon="8.844409319887033"><ele>103.0</ele><time>2026-03-29T12:39:36Z</time></trkpt><trkpt lat="44.914256721127266" lon="8.844417740935274"><ele>103.0</ele><time>2026-03-29T12:39:37Z</time></trkpt><trkpt lat="44.91444650108774" lon="8.844491605359561"><ele>103.0</ele><time>2026-03-29T12:39:38Z</time></trkpt><trkpt lat="44.914635168633616" lon="8.844553336405815"><ele>103.0</ele><time>2026-03-29T12:39:39Z</time></trkpt><trkpt lat="44.91482288753544" lon="8.844625126249406"><ele>103.0</ele><time>2026-03-29T12:39:40Z</time></trkpt><trkpt lat="44.91501498810888" lon="8.844700680040605"><ele>103.0</ele><time>2026-03-29T12:39:41Z</time></trkpt><trkpt lat="44.91520912940363" lon="8.84478583006752"><ele>103.0</ele><time>2026-03-29T12:39:42Z</time></trkpt><trkpt lat="44.91540575618099" lon="8.84488536091484"><ele>104.0</ele><time>2026-03-29T12:39:43Z</time></trkpt><trkpt lat="44.91560202665331" lon="8.84499480093164"><ele>105.0</ele><time>2026-03-29T12:39:44Z</time></trkpt><trkpt lat="44.91578850104414" lon="8.84511880409016"><ele>106.0</ele><time>2026-03-29T12:39:45Z</time></trkpt><trkpt lat="44.91596737779396" lon="8.845254213392225"><ele>107.33333333333334</ele><time>2026-03-29T12:39:46Z</time></trkpt><trkpt lat="44.916132019729524" lon="8.845388797085134"><ele>108.66666666666666</ele><time>2026-03-29T12:39:47Z</time></trkpt><trkpt lat="44.91628801053592" lon="8.845522088251274"><ele>110.0</ele><time>2026-03-29T12:39:48Z</time></trkpt><trkpt lat="44.916426103222" lon="8.845664384524493"><ele>110.0</ele><time>2026-03-29T12:39:49Z</time></trkpt><trkpt lat="44.916551840217686" lon="8.845821542255958"><ele>110.0</ele><time>2026-03-29T12:39:50Z</time></trkpt><trkpt lat="44.916666380324834" lon="8.846005385134017"><ele>110.0</ele><time>2026-03-29T12:39:51Z</time></trkpt><trkpt lat="44.91677014731943" lon="8.84621233529128"><ele>109.66666666666666</ele><time>2026-03-29T12:39:52Z</time></trkpt><trkpt lat="44.91685419048131" lon="8.846432607715961"><ele>109.33333333333334</ele><time>2026-03-29T12:39:53Z</time></trkpt><trkpt lat="44.91693212081032" lon="8.846665071205422"><ele>109.0</ele><time>2026-03-29T12:39:54Z</time></trkpt><trkpt lat="44.91700741116708" lon="8.846918182466279"><ele>109.66666666666667</ele><time>2026-03-29T12:39:55Z</time></trkpt><trkpt lat="44.917079196067235" lon="8.847167653554095"><ele>110.33333333333334</ele><time>2026-03-29T12:39:56Z</time></trkpt><trkpt lat="44.917152334521454" lon="8.847417406211274"><ele>111.0</ele><time>2026-03-29T12:39:57Z</time></trkpt><trkpt lat="44.917225825185156" lon="8.847659423375024"><ele>109.66666666666666</ele><time>2026-03-29T12:39:58Z</time></trkpt><trkpt lat="44.917298501753585" lon="8.847895215775887"><ele>108.33333333333333</ele><time>2026-03-29T12:39:59.001Z</time></trkpt><trkpt lat="44.91737338062967" lon="8.848134216417359"><ele>107.0</ele><time>2026-03-29T12:40:00.001Z</time></trkpt><trkpt lat="44.91745011486546" lon="8.848386028031534"><ele>106.66666666666666</ele><time>2026-03-29T12:40:01.001Z</time></trkpt><trkpt lat="44.91752998210216" lon="8.8486559195039"><ele>106.33333333333334</ele><time>2026-03-29T12:40:02.001Z</time></trkpt><trkpt lat="44.91761294764981" lon="8.848941352253354"><ele>106.0</ele><time>2026-03-29T12:40:03.001Z</time></trkpt><trkpt lat="44.91769768929045" lon="8.84923704099234"><ele>103.5</ele><time>2026-03-29T12:40:04.001Z</time></trkpt><trkpt lat="44.91778115923392" lon="8.849536301905166"><ele>101.0</ele><time>2026-03-29T12:40:05.001Z</time></trkpt><trkpt lat="44.917864727501644" lon="8.849854188329543"><ele>100.5</ele><time>2026-03-29T12:40:06.001Z</time></trkpt><trkpt lat="44.91795217618395" lon="8.850188990426235"><ele>100.0</ele><time>2026-03-29T12:40:07.001Z</time></trkpt><trkpt lat="44.918039792417055" lon="8.850533183774884"><ele>100.0</ele><time>2026-03-29T12:40:08.001Z</time></trkpt><trkpt lat="44.91812067817209" lon="8.850878765436176"><ele>100.0</ele><time>2026-03-29T12:40:09.001Z</time></trkpt><trkpt lat="44.91819888240769" lon="8.851226621168795"><ele>100.0</ele><time>2026-03-29T12:40:10.001Z</time></trkpt><trkpt lat="44.918275850837084" lon="8.85158884536829"><ele>100.0</ele><time>2026-03-29T12:40:11.001Z</time></trkpt><trkpt lat="44.91835352748686" lon="8.85193164420076"><ele>99.5</ele><time>2026-03-29T12:40:12.001Z</time></trkpt><trkpt lat="44.91843329852575" lon="8.852267338598466"><ele>99.0</ele><time>2026-03-29T12:40:13.001Z</time></trkpt><trkpt lat="44.91851748402246" lon="8.852605325617125"><ele>101.5</ele><time>2026-03-29T12:40:14.001Z</time></trkpt><trkpt lat="44.91859763021688" lon="8.852934265218787"><ele>104.0</ele><time>2026-03-29T12:40:15.001Z</time></trkpt><trkpt lat="44.918678771120334" lon="8.85325812349214"><ele>104.0</ele><time>2026-03-29T12:40:16.001Z</time></trkpt><trkpt lat="44.918758278255545" lon="8.853583859121207"><ele>104.0</ele><time>2026-03-29T12:40:17.001Z</time></trkpt><trkpt lat="44.91884042846539" lon="8.853917599812126"><ele>104.0</ele><time>2026-03-29T12:40:18.001Z</time></trkpt><trkpt lat="44.918921263728336" lon="8.854242489918724"><ele>104.0</ele><time>2026-03-29T12:40:19.001Z</time></trkpt><trkpt lat="44.91900480318359" lon="8.85457138345298"><ele>103.5</ele><time>2026-03-29T12:40:20.001Z</time></trkpt><trkpt lat="44.91909014840609" lon="8.854900315014499"><ele>103.0</ele><time>2026-03-29T12:40:21.001Z</time></trkpt><trkpt lat="44.91917176571794" lon="8.855227131828517"><ele>103.5</ele><time>2026-03-29T12:40:22.001Z</time></trkpt><trkpt lat="44.91925079877623" lon="8.855558825484817"><ele>104.0</ele><time>2026-03-29T12:40:23.001Z</time></trkpt><trkpt lat="44.91933300131174" lon="8.855896726679125"><ele>103.5</ele><time>2026-03-29T12:40:24.001Z</time></trkpt><trkpt lat="44.91941613960779" lon="8.85622881863593"><ele>103.0</ele><time>2026-03-29T12:40:25.001Z</time></trkpt><trkpt lat="44.91950091865975" lon="8.856566541400783"><ele>103.0</ele><time>2026-03-29T12:40:26.001Z</time></trkpt><trkpt lat="44.91958448529104" lon="8.856904772550665"><ele>103.0</ele><time>2026-03-29T12:40:27.001Z</time></trkpt><trkpt lat="44.91966684408317" lon="8.857243374020573"><ele>103.0</ele><time>2026-03-29T12:40:28.001Z</time></trkpt><trkpt lat="44.919750536120105" lon="8.857587359976414"><ele>103.0</ele><time>2026-03-29T12:40:29.001Z</time></trkpt><trkpt lat="44.91983395172673" lon="8.85792967029578"><ele>102.5</ele><time>2026-03-29T12:40:30.001Z</time></trkpt><trkpt lat="44.91992098791533" lon="8.858270643764092"><ele>102.0</ele><time>2026-03-29T12:40:31.001Z</time></trkpt><trkpt lat="44.920011264884295" lon="8.858611656745065"><ele>101.5</ele><time>2026-03-29T12:40:32.001Z</time></trkpt><trkpt lat="44.92010257309316" lon="8.858953140639303"><ele>101.0</ele><time>2026-03-29T12:40:33.001Z</time></trkpt><trkpt lat="44.92019568215148" lon="8.859297548844859"><ele>101.0</ele><time>2026-03-29T12:40:34.001Z</time></trkpt><trkpt lat="44.920288269020624" lon="8.859636471695449"><ele>101.0</ele><time>2026-03-29T12:40:35.001Z</time></trkpt><trkpt lat="44.9203820137407" lon="8.859971587419016"><ele>101.0</ele><time>2026-03-29T12:40:36.001Z</time></trkpt><trkpt lat="44.92048377723629" lon="8.860311749129927"><ele>101.0</ele><time>2026-03-29T12:40:37.001Z</time></trkpt><trkpt lat="44.92058870325993" lon="8.860649739948238"><ele>100.5</ele><time>2026-03-29T12:40:38.001Z</time></trkpt><trkpt lat="44.92069315394633" lon="8.860981871249194"><ele>100.0</ele><time>2026-03-29T12:40:39.001Z</time></trkpt><trkpt lat="44.92080378730053" lon="8.861319967945343"><ele>99.5</ele><time>2026-03-29T12:40:40.001Z</time></trkpt><trkpt lat="44.9209084625064" lon="8.861645706992986"><ele>99.0</ele><time>2026-03-29T12:40:41.001Z</time></trkpt><trkpt lat="44.92101531932666" lon="8.861970650156493"><ele>99.0</ele><time>2026-03-29T12:40:42.001Z</time></trkpt><trkpt lat="44.921130705769016" lon="8.862308476337208"><ele>99.0</ele><time>2026-03-29T12:40:43.001Z</time></trkpt><trkpt lat="44.921247823520076" lon="8.862636192640606"><ele>100.0</ele><time>2026-03-29T12:40:44.001Z</time></trkpt><trkpt lat="44.92136485734132" lon="8.862958109222692"><ele>101.0</ele><time>2026-03-29T12:40:45.001Z</time></trkpt><trkpt lat="44.921487830358444" lon="8.863283081752478"><ele>101.0</ele><time>2026-03-29T12:40:46.001Z</time></trkpt><trkpt lat="44.92161229693178" lon="8.863605830619594"><ele>101.0</ele><time>2026-03-29T12:40:47.001Z</time></trkpt><trkpt lat="44.921741581880624" lon="8.863929848756854"><ele>100.5</ele><time>2026-03-29T12:40:48.001Z</time></trkpt><trkpt lat="44.921868095062976" lon="8.864249888229452"><ele>100.0</ele><time>2026-03-29T12:40:49.001Z</time></trkpt><trkpt lat="44.92199546938803" lon="8.86456827240659"><ele>101.0</ele><time>2026-03-29T12:40:50.001Z</time></trkpt><trkpt lat="44.92212172179564" lon="8.864878145057236"><ele>102.0</ele><time>2026-03-29T12:40:51.001Z</time></trkpt><trkpt lat="44.922256670524874" lon="8.865197509317227"><ele>102.5</ele><time>2026-03-29T12:40:52.001Z</time></trkpt><trkpt lat="44.92239749369101" lon="8.865512344548629"><ele>103.0</ele><time>2026-03-29T12:40:53.001Z</time></trkpt><trkpt lat="44.92253915033765" lon="8.865827454685148"><ele>101.0</ele><time>2026-03-29T12:40:54.001Z</time></trkpt><trkpt lat="44.92268059167203" lon="8.8661370709824"><ele>99.0</ele><time>2026-03-29T12:40:55.001Z</time></trkpt><trkpt lat="44.92282152911013" lon="8.866448660402218"><ele>99.0</ele><time>2026-03-29T12:40:56.001Z</time></trkpt><trkpt lat="44.92296740578642" lon="8.866760655505669"><ele>99.0</ele><time>2026-03-29T12:40:57.001Z</time></trkpt><trkpt lat="44.92311522303655" lon="8.86706407405962"><ele>99.0</ele><time>2026-03-29T12:40:58.001Z</time></trkpt><trkpt lat="44.92326584445246" lon="8.867366356427933"><ele>99.0</ele><time>2026-03-29T12:40:59.001Z</time></trkpt><trkpt lat="44.92341756541719" lon="8.86766387696371"><ele>99.5</ele><time>2026-03-29T12:41:00.001Z</time></trkpt><trkpt lat="44.92357172063327" lon="8.86796385580414"><ele>100.0</ele><time>2026-03-29T12:41:01.001Z</time></trkpt><trkpt lat="44.92372829424908" lon="8.86826038074108"><ele>100.5</ele><time>2026-03-29T12:41:02.001Z</time></trkpt><trkpt lat="44.923885024784944" lon="8.868552128053746"><ele>101.0</ele><time>2026-03-29T12:41:03.001Z</time></trkpt><trkpt lat="44.92404538112155" lon="8.868839128149453"><ele>101.0</ele><time>2026-03-29T12:41:04.001Z</time></trkpt><trkpt lat="44.92420835159414" lon="8.869129584110988"><ele>101.0</ele><time>2026-03-29T12:41:05.001Z</time></trkpt><trkpt lat="44.92437175140666" lon="8.86941524986665"><ele>101.0</ele><time>2026-03-29T12:41:06.001Z</time></trkpt><trkpt lat="44.92453128480892" lon="8.869697144887741"><ele>101.0</ele><time>2026-03-29T12:41:07Z</time></trkpt><trkpt lat="44.92469355967193" lon="8.869972580473561"><ele>102.0</ele><time>2026-03-29T12:41:08Z</time></trkpt><trkpt lat="44.92485829706287" lon="8.87024398413003"><ele>103.0</ele><time>2026-03-29T12:41:09Z</time></trkpt><trkpt lat="44.92502515111932" lon="8.870514139345278"><ele>102.5</ele><time>2026-03-29T12:41:10Z</time></trkpt><trkpt lat="44.92519297392364" lon="8.870786510887505"><ele>102.0</ele><time>2026-03-29T12:41:11Z</time></trkpt><trkpt lat="44.92536371894744" lon="8.871054427051618"><ele>102.0</ele><time>2026-03-29T12:41:12Z</time></trkpt><trkpt lat="44.92553528471688" lon="8.871317965527039"><ele>102.0</ele><time>2026-03-29T12:41:13Z</time></trkpt><trkpt lat="44.92571103984141" lon="8.871580647245718"><ele>102.5</ele><time>2026-03-29T12:41:14Z</time></trkpt><trkpt lat="44.925887689316745" lon="8.871844532742017"><ele>103.0</ele><time>2026-03-29T12:41:15Z</time></trkpt><trkpt lat="44.92606420005584" lon="8.872103687775422"><ele>103.0</ele><time>2026-03-29T12:41:16Z</time></trkpt><trkpt lat="44.9262455557098" lon="8.872359384870837"><ele>103.0</ele><time>2026-03-29T12:41:17Z</time></trkpt><trkpt lat="44.92642965774843" lon="8.872613536015749"><ele>103.5</ele><time>2026-03-29T12:41:18Z</time></trkpt><trkpt lat="44.926610701543765" lon="8.872862384709409"><ele>104.0</ele><time>2026-03-29T12:41:19Z</time></trkpt><trkpt lat="44.92679579972708" lon="8.87311200979284"><ele>103.0</ele><time>2026-03-29T12:41:20Z</time></trkpt><trkpt lat="44.92698135091573" lon="8.873363209928364"><ele>102.0</ele><time>2026-03-29T12:41:21Z</time></trkpt><trkpt lat="44.92716403329869" lon="8.873610295352348"><ele>102.0</ele><time>2026-03-29T12:41:22Z</time></trkpt><trkpt lat="44.92734318672928" lon="8.873859284838217"><ele>102.0</ele><time>2026-03-29T12:41:23Z</time></trkpt><trkpt lat="44.92752731111423" lon="8.87410799830996"><ele>101.0</ele><time>2026-03-29T12:41:24Z</time></trkpt><trkpt lat="44.927711853016085" lon="8.874357671534236"><ele>100.0</ele><time>2026-03-29T12:41:25Z</time></trkpt><trkpt lat="44.92789374288839" lon="8.874605067649044"><ele>100.0</ele><time>2026-03-29T12:41:26Z</time></trkpt><trkpt lat="44.92807290786299" lon="8.874851528349858"><ele>100.0</ele><time>2026-03-29T12:41:27Z</time></trkpt><trkpt lat="44.92825257141505" lon="8.875098670439241"><ele>100.5</ele><time>2026-03-29T12:41:28Z</time></trkpt><trkpt lat="44.92843509534019" lon="8.875345471779667"><ele>101.0</ele><time>2026-03-29T12:41:29Z</time></trkpt><trkpt lat="44.92861613518935" lon="8.875590633589784"><ele>101.0</ele><time>2026-03-29T12:41:30Z</time></trkpt><trkpt lat="44.92879816447551" lon="8.875835606818338"><ele>101.0</ele><time>2026-03-29T12:41:31Z</time></trkpt><trkpt lat="44.92897656739342" lon="8.876081714226682"><ele>101.0</ele><time>2026-03-29T12:41:32Z</time></trkpt><trkpt lat="44.92915504602758" lon="8.876327973147495"><ele>101.0</ele><time>2026-03-29T12:41:33Z</time></trkpt><trkpt lat="44.929334789935" lon="8.876572576616205"><ele>101.0</ele><time>2026-03-29T12:41:34Z</time></trkpt><trkpt lat="44.92951044743624" lon="8.876817476998252"><ele>101.0</ele><time>2026-03-29T12:41:35Z</time></trkpt><trkpt lat="44.929690462905164" lon="8.877065444602"><ele>101.0</ele><time>2026-03-29T12:41:36Z</time></trkpt><trkpt lat="44.92987010425869" lon="8.877312161702667"><ele>101.0</ele><time>2026-03-29T12:41:37Z</time></trkpt><trkpt lat="44.930050379872036" lon="8.877556932198543"><ele>102.0</ele><time>2026-03-29T12:41:38Z</time></trkpt><trkpt lat="44.93023334324417" lon="8.877805440990807"><ele>103.0</ele><time>2026-03-29T12:41:39Z</time></trkpt><trkpt lat="44.93041199024161" lon="8.878050183549052"><ele>103.0</ele><time>2026-03-29T12:41:40Z</time></trkpt><trkpt lat="44.93059099994352" lon="8.878296010743144"><ele>103.0</ele><time>2026-03-29T12:41:41Z</time></trkpt><trkpt lat="44.9307689692464" lon="8.878539929975048"><ele>101.5</ele><time>2026-03-29T12:41:42Z</time></trkpt><trkpt lat="44.930949458101445" lon="8.87878618818712"><ele>100.0</ele><time>2026-03-29T12:41:43Z</time></trkpt><trkpt lat="44.93112773676244" lon="8.879028613416715"><ele>100.5</ele><time>2026-03-29T12:41:44Z</time></trkpt><trkpt lat="44.93131408979415" lon="8.87927791398674"><ele>101.0</ele><time>2026-03-29T12:41:45Z</time></trkpt><trkpt lat="44.93148693254088" lon="8.87951181841152"><ele>101.0</ele><time>2026-03-29T12:41:46Z</time></trkpt><trkpt lat="44.93166164443429" lon="8.879746782104593"><ele>101.0</ele><time>2026-03-29T12:41:47Z</time></trkpt><trkpt lat="44.931838169649325" lon="8.87998296626141"><ele>100.0</ele><time>2026-03-29T12:41:48Z</time></trkpt><trkpt lat="44.93201082029011" lon="8.880217479240157"><ele>99.0</ele><time>2026-03-29T12:41:49Z</time></trkpt><trkpt lat="44.93218191374487" lon="8.880451847602684"><ele>99.0</ele><time>2026-03-29T12:41:50Z</time></trkpt><trkpt lat="44.93235542815136" lon="8.880686182385945"><ele>99.0</ele><time>2026-03-29T12:41:51Z</time></trkpt><trkpt lat="44.93252071516448" lon="8.880918251874402"><ele>99.0</ele><time>2026-03-29T12:41:52Z</time></trkpt><trkpt lat="44.932684389102654" lon="8.881145332956597"><ele>99.0</ele><time>2026-03-29T12:41:53Z</time></trkpt><trkpt lat="44.93284463903508" lon="8.881365815056494"><ele>99.0</ele><time>2026-03-29T12:41:54Z</time></trkpt><trkpt lat="44.93299861166115" lon="8.881581930978449"><ele>99.0</ele><time>2026-03-29T12:41:55Z</time></trkpt><trkpt lat="44.93315047639942" lon="8.881794175347263"><ele>99.0</ele><time>2026-03-29T12:41:56Z</time></trkpt><trkpt lat="44.933292273331155" lon="8.881997341341494"><ele>99.0</ele><time>2026-03-29T12:41:57Z</time></trkpt><trkpt lat="44.93343394104833" lon="8.882199973038931"><ele>99.0</ele><time>2026-03-29T12:41:58Z</time></trkpt><trkpt lat="44.9335635399562" lon="8.882386333469636"><ele>99.0</ele><time>2026-03-29T12:41:59Z</time></trkpt><trkpt lat="44.933685534959224" lon="8.88255897848284"><ele>100.0</ele><time>2026-03-29T12:42:00Z</time></trkpt><trkpt lat="44.933802158461795" lon="8.88272727108309"><ele>101.0</ele><time>2026-03-29T12:42:01Z</time></trkpt><trkpt lat="44.93391499561384" lon="8.882889518351773"><ele>102.0</ele><time>2026-03-29T12:42:02Z</time></trkpt><trkpt lat="44.934020506684675" lon="8.883043295210678"><ele>102.0</ele><time>2026-03-29T12:42:03Z</time></trkpt><trkpt lat="44.93411417637405" lon="8.883202393795745"><ele>102.0</ele><time>2026-03-29T12:42:04Z</time></trkpt><trkpt lat="44.93419570430709" lon="8.883367029589246"><ele>102.0</ele><time>2026-03-29T12:42:05Z</time></trkpt><trkpt lat="44.9342726705219" lon="8.883530259630456"><ele>102.0</ele><time>2026-03-29T12:42:06Z</time></trkpt><trkpt lat="44.93434939113338" lon="8.883686814303541"><ele>101.5</ele><time>2026-03-29T12:42:07Z</time></trkpt><trkpt lat="44.934423790954604" lon="8.883833276173421"><ele>101.0</ele><time>2026-03-29T12:42:08Z</time></trkpt><trkpt lat="44.93449415033592" lon="8.883971330653495"><ele>100.5</ele><time>2026-03-29T12:42:09Z</time></trkpt><trkpt lat="44.934563601597716" lon="8.884098860294733"><ele>100.0</ele><time>2026-03-29T12:42:10Z</time></trkpt><trkpt lat="44.93462968809368" lon="8.884214702743526"><ele>100.4</ele><time>2026-03-29T12:42:11Z</time></trkpt><trkpt lat="44.934697522268394" lon="8.88432024470249"><ele>100.8</ele><time>2026-03-29T12:42:12Z</time></trkpt><trkpt lat="44.93476179196699" lon="8.88441983506411"><ele>101.19999999999999</ele><time>2026-03-29T12:42:13Z</time></trkpt><trkpt lat="44.934821414792445" lon="8.884506106751715"><ele>101.6</ele><time>2026-03-29T12:42:14Z</time></trkpt><trkpt lat="44.93488681854564" lon="8.884595539003941"><ele>102.0</ele><time>2026-03-29T12:42:15Z</time></trkpt><trkpt lat="44.93495457549101" lon="8.884682143531945"><ele>102.0</ele><time>2026-03-29T12:42:16.001Z</time></trkpt><trkpt lat="44.935017299404905" lon="8.88475928056731"><ele>102.0</ele><time>2026-03-29T12:42:17.001Z</time></trkpt><trkpt lat="44.935069815079544" lon="8.88481621303164"><ele>102.0</ele><time>2026-03-29T12:42:18.001Z</time></trkpt><trkpt lat="44.93514601391832" lon="8.884873566452438"><ele>102.0</ele><time>2026-03-29T12:42:20.001Z</time></trkpt><trkpt lat="44.935143881614785" lon="8.884974847909975"><ele>102.0</ele><time>2026-03-29T12:43:17Z</time></trkpt><trkpt lat="44.93520818975498" lon="8.88513651684253"><ele>102.0</ele><time>2026-03-29T12:43:19Z</time></trkpt><trkpt lat="44.935255400894306" lon="8.885222844618935"><ele>101.66666666666667</ele><time>2026-03-29T12:43:20Z</time></trkpt><trkpt lat="44.935297022730374" lon="8.885297881005624"><ele>101.33333333333334</ele><time>2026-03-29T12:43:21Z</time></trkpt><trkpt lat="44.93534232577046" lon="8.885376768330632"><ele>101.0</ele><time>2026-03-29T12:43:22Z</time></trkpt><trkpt lat="44.93540292169219" lon="8.88543493700702"><ele>100.66666666666667</ele><time>2026-03-29T12:43:23Z</time></trkpt><trkpt lat="44.93547495746896" lon="8.8856022106739"><ele>100.33333333333334</ele><time>2026-03-29T12:43:25Z</time></trkpt><trkpt lat="44.935532118852805" lon="8.885676651153107"><ele>100.0</ele><time>2026-03-29T12:43:26Z</time></trkpt><trkpt lat="44.93558954552148" lon="8.885747742913999"><ele>100.0</ele><time>2026-03-29T12:43:27Z</time></trkpt><trkpt lat="44.93565406049277" lon="8.885811176669028"><ele>100.0</ele><time>2026-03-29T12:43:28Z</time></trkpt><trkpt lat="44.9357321022623" lon="8.885892382697655"><ele>100.0</ele><time>2026-03-29T12:43:29Z</time></trkpt><trkpt lat="44.935811623148226" lon="8.885974515786884"><ele>100.0</ele><time>2026-03-29T12:43:30Z</time></trkpt><trkpt lat="44.935889851395515" lon="8.886051570679438"><ele>100.0</ele><time>2026-03-29T12:43:31Z</time></trkpt><trkpt lat="44.93596567982033" lon="8.886111430199524"><ele>99.75</ele><time>2026-03-29T12:43:32Z</time></trkpt><trkpt lat="44.936053905329366" lon="8.886157427969726"><ele>99.5</ele><time>2026-03-29T12:43:33Z</time></trkpt><trkpt lat="44.93617099382988" lon="8.886192102308133"><ele>99.25</ele><time>2026-03-29T12:43:34Z</time></trkpt><trkpt lat="44.93629066245157" lon="8.886246097042303"><ele>99.0</ele><time>2026-03-29T12:43:35Z</time></trkpt><trkpt lat="44.93641777556237" lon="8.88632032726453"><ele>99.0</ele><time>2026-03-29T12:43:36Z</time></trkpt><trkpt lat="44.93652894112183" lon="8.886459032337724"><ele>99.0</ele><time>2026-03-29T12:43:37Z</time></trkpt><trkpt lat="44.93664658934719" lon="8.886628573515639"><ele>99.0</ele><time>2026-03-29T12:43:38Z</time></trkpt><trkpt lat="44.936760870840274" lon="8.886791304194835"><ele>99.0</ele><time>2026-03-29T12:43:39Z</time></trkpt><trkpt lat="44.936876858690084" lon="8.886944949184581"><ele>99.0</ele><time>2026-03-29T12:43:40Z</time></trkpt><trkpt lat="44.9370031823086" lon="8.887109322317395"><ele>99.0</ele><time>2026-03-29T12:43:41Z</time></trkpt><trkpt lat="44.93713880853919" lon="8.887284693955623"><ele>99.0</ele><time>2026-03-29T12:43:42Z</time></trkpt><trkpt lat="44.93727407170428" lon="8.88746130951358"><ele>99.0</ele><time>2026-03-29T12:43:43Z</time></trkpt><trkpt lat="44.93741808585039" lon="8.887651808180356"><ele>99.0</ele><time>2026-03-29T12:43:44Z</time></trkpt><trkpt lat="44.937564058313555" lon="8.887847393214495"><ele>98.66666666666666</ele><time>2026-03-29T12:43:45Z</time></trkpt><trkpt lat="44.937715218653565" lon="8.888056707477833"><ele>98.33333333333333</ele><time>2026-03-29T12:43:46Z</time></trkpt><trkpt lat="44.93786566675015" lon="8.888265612469965"><ele>98.0</ele><time>2026-03-29T12:43:47Z</time></trkpt><trkpt lat="44.93802193454357" lon="8.88847429432714"><ele>98.33333333333333</ele><time>2026-03-29T12:43:48Z</time></trkpt><trkpt lat="44.93818193124224" lon="8.888687636027875"><ele>98.66666666666666</ele><time>2026-03-29T12:43:49Z</time></trkpt><trkpt lat="44.93832943281067" lon="8.888888913584283"><ele>99.0</ele><time>2026-03-29T12:43:50Z</time></trkpt><trkpt lat="44.93847383630672" lon="8.889088352630692"><ele>99.33333333333334</ele><time>2026-03-29T12:43:51Z</time></trkpt><trkpt lat="44.938622150550586" lon="8.889288472179087"><ele>99.66666666666667</ele><time>2026-03-29T12:43:52Z</time></trkpt><trkpt lat="44.93877656029178" lon="8.889497501771565"><ele>100.0</ele><time>2026-03-29T12:43:53Z</time></trkpt><trkpt lat="44.93893350625705" lon="8.88971059429296"><ele>100.0</ele><time>2026-03-29T12:43:54Z</time></trkpt><trkpt lat="44.939090827129164" lon="8.889933005335434"><ele>100.0</ele><time>2026-03-29T12:43:55Z</time></trkpt><trkpt lat="44.939263810124025" lon="8.890155655889657"><ele>99.5</ele><time>2026-03-29T12:43:56Z</time></trkpt><trkpt lat="44.9394320287337" lon="8.890380167424201"><ele>99.0</ele><time>2026-03-29T12:43:57Z</time></trkpt><trkpt lat="44.93960324896842" lon="8.89060989443726"><ele>99.0</ele><time>2026-03-29T12:43:58Z</time></trkpt><trkpt lat="44.93977883072096" lon="8.89084856002952"><ele>99.0</ele><time>2026-03-29T12:43:59Z</time></trkpt><trkpt lat="44.93995945781037" lon="8.891094144437751"><ele>99.5</ele><time>2026-03-29T12:44:00Z</time></trkpt><trkpt lat="44.94014352645283" lon="8.891342224602047"><ele>100.0</ele><time>2026-03-29T12:44:01Z</time></trkpt><trkpt lat="44.940330841640666" lon="8.891595683388427"><ele>100.0</ele><time>2026-03-29T12:44:02Z</time></trkpt><trkpt lat="44.94052149193873" lon="8.89185699358319"><ele>100.0</ele><time>2026-03-29T12:44:03Z</time></trkpt><trkpt lat="44.94071344624046" lon="8.892120013722023"><ele>100.0</ele><time>2026-03-29T12:44:04Z</time></trkpt><trkpt lat="44.94090497947468" lon="8.89237959073464"><ele>100.0</ele><time>2026-03-29T12:44:05Z</time></trkpt><trkpt lat="44.94110023751866" lon="8.892643220539371"><ele>101.0</ele><time>2026-03-29T12:44:06Z</time></trkpt><trkpt lat="44.94129593175817" lon="8.892909652329282"><ele>102.0</ele><time>2026-03-29T12:44:07Z</time></trkpt><trkpt lat="44.941487827190144" lon="8.893175685905689"><ele>101.0</ele><time>2026-03-29T12:44:08Z</time></trkpt><trkpt lat="44.941687326399084" lon="8.89344607479642"><ele>100.0</ele><time>2026-03-29T12:44:09Z</time></trkpt><trkpt lat="44.94188679161579" lon="8.893718029876633"><ele>99.5</ele><time>2026-03-29T12:44:10Z</time></trkpt><trkpt lat="44.94208409634201" lon="8.893986382376875"><ele>99.0</ele><time>2026-03-29T12:44:11Z</time></trkpt><trkpt lat="44.94227892775334" lon="8.894251509701542"><ele>99.0</ele><time>2026-03-29T12:44:12Z</time></trkpt><trkpt lat="44.94246839167098" lon="8.894513284116805"><ele>99.0</ele><time>2026-03-29T12:44:13Z</time></trkpt><trkpt lat="44.94266013964605" lon="8.89477562082986"><ele>99.0</ele><time>2026-03-29T12:44:14Z</time></trkpt><trkpt lat="44.942848270039825" lon="8.895035288249943"><ele>99.0</ele><time>2026-03-29T12:44:15Z</time></trkpt><trkpt lat="44.943038501755275" lon="8.895295264688363"><ele>99.5</ele><time>2026-03-29T12:44:16Z</time></trkpt><trkpt lat="44.94322779510237" lon="8.895552897156572"><ele>100.0</ele><time>2026-03-29T12:44:17Z</time></trkpt><trkpt lat="44.94341655633668" lon="8.895809894529547"><ele>99.0</ele><time>2026-03-29T12:44:18Z</time></trkpt><trkpt lat="44.94360421952526" lon="8.896064781787253"><ele>98.0</ele><time>2026-03-29T12:44:19Z</time></trkpt><trkpt lat="44.943794573363085" lon="8.896323333326846"><ele>98.0</ele><time>2026-03-29T12:44:20Z</time></trkpt><trkpt lat="44.943980451761014" lon="8.896580206112043"><ele>98.0</ele><time>2026-03-29T12:44:21Z</time></trkpt><trkpt lat="44.944170779584276" lon="8.896840380412824"><ele>98.0</ele><time>2026-03-29T12:44:22Z</time></trkpt><trkpt lat="44.944361943433634" lon="8.89709635761051"><ele>98.0</ele><time>2026-03-29T12:44:23Z</time></trkpt><trkpt lat="44.94455327347168" lon="8.897357620862223"><ele>97.5</ele><time>2026-03-29T12:44:24Z</time></trkpt><trkpt lat="44.944744238339396" lon="8.897619146063043"><ele>97.0</ele><time>2026-03-29T12:44:25Z</time></trkpt><trkpt lat="44.944933983518794" lon="8.89787882440672"><ele>96.0</ele><time>2026-03-29T12:44:26Z</time></trkpt><trkpt lat="44.94512541666779" lon="8.898142186890981"><ele>95.0</ele><time>2026-03-29T12:44:27Z</time></trkpt><trkpt lat="44.94531564295528" lon="8.898402731099042"><ele>96.0</ele><time>2026-03-29T12:44:28.001Z</time></trkpt><trkpt lat="44.94550707026265" lon="8.898663755385869"><ele>97.0</ele><time>2026-03-29T12:44:29.001Z</time></trkpt><trkpt lat="44.94569779354044" lon="8.898923070508614"><ele>96.5</ele><time>2026-03-29T12:44:30.001Z</time></trkpt><trkpt lat="44.94589017186488" lon="8.899184994208834"><ele>96.0</ele><time>2026-03-29T12:44:31.001Z</time></trkpt><trkpt lat="44.94608317555184" lon="8.899446013227518"><ele>96.0</ele><time>2026-03-29T12:44:32.001Z</time></trkpt><trkpt lat="44.9462773615965" lon="8.899712314596675"><ele>96.0</ele><time>2026-03-29T12:44:33.001Z</time></trkpt><trkpt lat="44.94646743206617" lon="8.899973300132709"><ele>96.0</ele><time>2026-03-29T12:44:34.001Z</time></trkpt><trkpt lat="44.946657233224606" lon="8.900233984847715"><ele>96.0</ele><time>2026-03-29T12:44:35.001Z</time></trkpt><trkpt lat="44.94684985151522" lon="8.900495486833224"><ele>95.5</ele><time>2026-03-29T12:44:36.001Z</time></trkpt><trkpt lat="44.94704174958045" lon="8.900757546999557"><ele>95.0</ele><time>2026-03-29T12:44:37.001Z</time></trkpt><trkpt lat="44.9472333894232" lon="8.90101586760684"><ele>95.0</ele><time>2026-03-29T12:44:38.001Z</time></trkpt><trkpt lat="44.947427166139896" lon="8.901277576526992"><ele>95.0</ele><time>2026-03-29T12:44:39.001Z</time></trkpt><trkpt lat="44.94761727114982" lon="8.901537466613966"><ele>94.0</ele><time>2026-03-29T12:44:40.001Z</time></trkpt><trkpt lat="44.94780714245322" lon="8.901799001443983"><ele>93.0</ele><time>2026-03-29T12:44:41.001Z</time></trkpt><trkpt lat="44.94799699912678" lon="8.902062301090103"><ele>93.0</ele><time>2026-03-29T12:44:42.001Z</time></trkpt><trkpt lat="44.948190100336596" lon="8.90232528406175"><ele>93.0</ele><time>2026-03-29T12:44:43.001Z</time></trkpt><trkpt lat="44.948382452236615" lon="8.902587664746376"><ele>93.5</ele><time>2026-03-29T12:44:44.001Z</time></trkpt><trkpt lat="44.94857357455129" lon="8.902844452775524"><ele>94.0</ele><time>2026-03-29T12:44:45.001Z</time></trkpt><trkpt lat="44.94876950725109" lon="8.90311048406824"><ele>94.0</ele><time>2026-03-29T12:44:46.001Z</time></trkpt><trkpt lat="44.94895752340599" lon="8.90337000764802"><ele>94.0</ele><time>2026-03-29T12:44:47.001Z</time></trkpt><trkpt lat="44.94914816997317" lon="8.903628526188744"><ele>94.0</ele><time>2026-03-29T12:44:48.001Z</time></trkpt><trkpt lat="44.94933600002589" lon="8.903887234561921"><ele>94.0</ele><time>2026-03-29T12:44:49.001Z</time></trkpt><trkpt lat="44.94952619461217" lon="8.904146416173537"><ele>94.5</ele><time>2026-03-29T12:44:50.001Z</time></trkpt><trkpt lat="44.94971449708726" lon="8.904403810773823"><ele>95.0</ele><time>2026-03-29T12:44:51.001Z</time></trkpt><trkpt lat="44.949899476000404" lon="8.904661145692476"><ele>94.5</ele><time>2026-03-29T12:44:52.001Z</time></trkpt><trkpt lat="44.95008749914761" lon="8.904918158436569"><ele>94.0</ele><time>2026-03-29T12:44:53.001Z</time></trkpt><trkpt lat="44.95027135844883" lon="8.905175377954087"><ele>95.0</ele><time>2026-03-29T12:44:54.001Z</time></trkpt><trkpt lat="44.9504599319187" lon="8.905432493723216"><ele>96.0</ele><time>2026-03-29T12:44:55.001Z</time></trkpt><trkpt lat="44.950649234089425" lon="8.90568913749933"><ele>94.5</ele><time>2026-03-29T12:44:56.001Z</time></trkpt><trkpt lat="44.950835912815286" lon="8.905945672986748"><ele>93.0</ele><time>2026-03-29T12:44:57.001Z</time></trkpt><trkpt lat="44.95102400523292" lon="8.906204350690981"><ele>92.5</ele><time>2026-03-29T12:44:58.001Z</time></trkpt><trkpt lat="44.95121299229578" lon="8.90646026343201"><ele>92.0</ele><time>2026-03-29T12:44:59.001Z</time></trkpt><trkpt lat="44.951402041178454" lon="8.906716725008364"><ele>92.0</ele><time>2026-03-29T12:45:00.001Z</time></trkpt><trkpt lat="44.951591147204574" lon="8.906973509092268"><ele>92.0</ele><time>2026-03-29T12:45:01.001Z</time></trkpt><trkpt lat="44.95177880709399" lon="8.907230900552989"><ele>92.0</ele><time>2026-03-29T12:45:02.001Z</time></trkpt><trkpt lat="44.95196411893764" lon="8.907487215773068"><ele>92.0</ele><time>2026-03-29T12:45:03.001Z</time></trkpt><trkpt lat="44.952152725105094" lon="8.907741257916356"><ele>93.0</ele><time>2026-03-29T12:45:04.001Z</time></trkpt><trkpt lat="44.95233607623611" lon="8.907996229438066"><ele>94.0</ele><time>2026-03-29T12:45:05.001Z</time></trkpt><trkpt lat="44.95252152507391" lon="8.908252151593802"><ele>95.0</ele><time>2026-03-29T12:45:06.001Z</time></trkpt><trkpt lat="44.95271157512675" lon="8.908505545371943"><ele>96.0</ele><time>2026-03-29T12:45:07.001Z</time></trkpt><trkpt lat="44.95289193961498" lon="8.90876106982041"><ele>96.0</ele><time>2026-03-29T12:45:08.001Z</time></trkpt><trkpt lat="44.953084312425275" lon="8.90901433492815"><ele>96.0</ele><time>2026-03-29T12:45:09.001Z</time></trkpt><trkpt lat="44.953268283493585" lon="8.909266846739174"><ele>96.5</ele><time>2026-03-29T12:45:10.001Z</time></trkpt><trkpt lat="44.953454519821015" lon="8.909519730489777"><ele>97.0</ele><time>2026-03-29T12:45:11.001Z</time></trkpt><trkpt lat="44.95364133358359" lon="8.909771724776167"><ele>97.0</ele><time>2026-03-29T12:45:12.001Z</time></trkpt><trkpt lat="44.953821761257885" lon="8.910025222168747"><ele>97.0</ele><time>2026-03-29T12:45:13.001Z</time></trkpt><trkpt lat="44.95400273910935" lon="8.910280010990805"><ele>97.5</ele><time>2026-03-29T12:45:14.001Z</time></trkpt><trkpt lat="44.95418706817169" lon="8.910534970769506"><ele>98.0</ele><time>2026-03-29T12:45:15.001Z</time></trkpt><trkpt lat="44.954373191080506" lon="8.91079253206713"><ele>96.0</ele><time>2026-03-29T12:45:16.001Z</time></trkpt><trkpt lat="44.95456266843507" lon="8.911045725631652"><ele>94.0</ele><time>2026-03-29T12:45:17.001Z</time></trkpt><trkpt lat="44.95474655285551" lon="8.911295459986537"><ele>94.0</ele><time>2026-03-29T12:45:18.001Z</time></trkpt><trkpt lat="44.954932366770606" lon="8.911546461979398"><ele>94.0</ele><time>2026-03-29T12:45:18.999Z</time></trkpt><trkpt lat="44.9551171888917" lon="8.911796052920687"><ele>94.0</ele><time>2026-03-29T12:45:19.999Z</time></trkpt><trkpt lat="44.95529595028559" lon="8.912047332807287"><ele>94.0</ele><time>2026-03-29T12:45:20.999Z</time></trkpt><trkpt lat="44.9554804960706" lon="8.912296254776162"><ele>94.0</ele><time>2026-03-29T12:45:21.999Z</time></trkpt><trkpt lat="44.95566024787057" lon="8.912547864210806"><ele>94.0</ele><time>2026-03-29T12:45:22.999Z</time></trkpt><trkpt lat="44.955843873915335" lon="8.912800084697192"><ele>94.0</ele><time>2026-03-29T12:45:23.999Z</time></trkpt><trkpt lat="44.956033346365444" lon="8.913052681504102"><ele>94.0</ele><time>2026-03-29T12:45:24.999Z</time></trkpt><trkpt lat="44.956217391901816" lon="8.913303214452156"><ele>95.0</ele><time>2026-03-29T12:45:25.999Z</time></trkpt><trkpt lat="44.95640075407376" lon="8.913554156915394"><ele>96.0</ele><time>2026-03-29T12:45:26.999Z</time></trkpt><trkpt lat="44.95658124237518" lon="8.913807917709418"><ele>96.0</ele><time>2026-03-29T12:45:27.999Z</time></trkpt><trkpt lat="44.956769883316284" lon="8.914060019560376"><ele>96.0</ele><time>2026-03-29T12:45:28.999Z</time></trkpt><trkpt lat="44.956960046856" lon="8.914311772468093"><ele>96.0</ele><time>2026-03-29T12:45:29.999Z</time></trkpt><trkpt lat="44.95714501074542" lon="8.91456554368838"><ele>96.0</ele><time>2026-03-29T12:45:30.999Z</time></trkpt><trkpt lat="44.957325392368396" lon="8.914817501638694"><ele>96.0</ele><time>2026-03-29T12:45:31.999Z</time></trkpt><trkpt lat="44.95751313206889" lon="8.91506861859469"><ele>96.0</ele><time>2026-03-29T12:45:32.999Z</time></trkpt><trkpt lat="44.95769631975157" lon="8.915318990655402"><ele>95.5</ele><time>2026-03-29T12:45:33.999Z</time></trkpt><trkpt lat="44.957882239092065" lon="8.915570104302097"><ele>95.0</ele><time>2026-03-29T12:45:34.999Z</time></trkpt><trkpt lat="44.95806701960636" lon="8.91582166057653"><ele>94.5</ele><time>2026-03-29T12:45:35.999Z</time></trkpt><trkpt lat="44.958252661019934" lon="8.916072517988413"><ele>94.0</ele><time>2026-03-29T12:45:36.999Z</time></trkpt><trkpt lat="44.95843722453568" lon="8.916322506345903"><ele>94.0</ele><time>2026-03-29T12:45:37.999Z</time></trkpt><trkpt lat="44.95862145212895" lon="8.916572218631046"><ele>94.0</ele><time>2026-03-29T12:45:38.999Z</time></trkpt><trkpt lat="44.95881099089034" lon="8.916821486328859"><ele>95.5</ele><time>2026-03-29T12:45:39.999Z</time></trkpt><trkpt lat="44.95899500192747" lon="8.917067713974763"><ele>97.0</ele><time>2026-03-29T12:45:40.999Z</time></trkpt><trkpt lat="44.95917996581553" lon="8.917312759107949"><ele>97.0</ele><time>2026-03-29T12:45:41.999Z</time></trkpt><trkpt lat="44.959366854468136" lon="8.917558576238957"><ele>97.0</ele><time>2026-03-29T12:45:42.999Z</time></trkpt><trkpt lat="44.95955991044508" lon="8.917804842736476"><ele>97.0</ele><time>2026-03-29T12:45:43.999Z</time></trkpt><trkpt lat="44.959747194992765" lon="8.918051807524494"><ele>97.0</ele><time>2026-03-29T12:45:44.999Z</time></trkpt><trkpt lat="44.959936182206256" lon="8.918297942509257"><ele>97.0</ele><time>2026-03-29T12:45:45.999Z</time></trkpt><trkpt lat="44.960123342850316" lon="8.918544248398884"><ele>97.0</ele><time>2026-03-29T12:45:46.999Z</time></trkpt><trkpt lat="44.960312079547684" lon="8.918789915354418"><ele>97.0</ele><time>2026-03-29T12:45:47.999Z</time></trkpt><trkpt lat="44.96050616622698" lon="8.919036265798077"><ele>97.0</ele><time>2026-03-29T12:45:48.999Z</time></trkpt><trkpt lat="44.96069931632633" lon="8.919280535598546"><ele>96.0</ele><time>2026-03-29T12:45:49.999Z</time></trkpt><trkpt lat="44.960889712670514" lon="8.919529202058818"><ele>95.0</ele><time>2026-03-29T12:45:50.999Z</time></trkpt><trkpt lat="44.9610799554588" lon="8.919781883375085"><ele>95.0</ele><time>2026-03-29T12:45:51.999Z</time></trkpt><trkpt lat="44.9612745693941" lon="8.920031031582546"><ele>95.0</ele><time>2026-03-29T12:45:52.999Z</time></trkpt><trkpt lat="44.96147119031948" lon="8.920278759342173"><ele>95.0</ele><time>2026-03-29T12:45:53.999Z</time></trkpt><trkpt lat="44.96166353404194" lon="8.92052637928802"><ele>95.0</ele><time>2026-03-29T12:45:55Z</time></trkpt><trkpt lat="44.961856316196304" lon="8.9207709700601"><ele>95.0</ele><time>2026-03-29T12:45:56Z</time></trkpt><trkpt lat="44.962051626156594" lon="8.92101802097252"><ele>95.0</ele><time>2026-03-29T12:45:57Z</time></trkpt><trkpt lat="44.96224224275047" lon="8.921266781755625"><ele>95.0</ele><time>2026-03-29T12:45:58Z</time></trkpt><trkpt lat="44.96243644654533" lon="8.921515579206314"><ele>95.0</ele><time>2026-03-29T12:45:59Z</time></trkpt><trkpt lat="44.96262691593309" lon="8.921765391595287"><ele>95.5</ele><time>2026-03-29T12:46:00Z</time></trkpt><trkpt lat="44.962822351823455" lon="8.922015507739799"><ele>96.0</ele><time>2026-03-29T12:46:01Z</time></trkpt><trkpt lat="44.963017918201544" lon="8.922265483683525"><ele>96.0</ele><time>2026-03-29T12:46:02Z</time></trkpt><trkpt lat="44.96321361725783" lon="8.922517033774627"><ele>96.0</ele><time>2026-03-29T12:46:03Z</time></trkpt><trkpt lat="44.96340613951944" lon="8.922767922586344"><ele>95.0</ele><time>2026-03-29T12:46:04Z</time></trkpt><trkpt lat="44.963603366626394" lon="8.923018982788848"><ele>94.0</ele><time>2026-03-29T12:46:05Z</time></trkpt><trkpt lat="44.96379839789287" lon="8.923269049656474"><ele>94.0</ele><time>2026-03-29T12:46:06Z</time></trkpt><trkpt lat="44.963993827061124" lon="8.923517821335329"><ele>94.0</ele><time>2026-03-29T12:46:07Z</time></trkpt><trkpt lat="44.96418899339165" lon="8.923768192389096"><ele>94.0</ele><time>2026-03-29T12:46:08Z</time></trkpt><trkpt lat="44.964383535203034" lon="8.924020417045918"><ele>94.0</ele><time>2026-03-29T12:46:09Z</time></trkpt><trkpt lat="44.964576161715875" lon="8.924273098262054"><ele>94.5</ele><time>2026-03-29T12:46:10Z</time></trkpt><trkpt lat="44.96477152929194" lon="8.924522853947778"><ele>95.0</ele><time>2026-03-29T12:46:11Z</time></trkpt><trkpt lat="44.964967759928626" lon="8.924770840778548"><ele>95.0</ele><time>2026-03-29T12:46:12Z</time></trkpt><trkpt lat="44.96516330089507" lon="8.92501753450828"><ele>95.0</ele><time>2026-03-29T12:46:13Z</time></trkpt><trkpt lat="44.96535629582367" lon="8.925263410041378"><ele>95.0</ele><time>2026-03-29T12:46:14Z</time></trkpt><trkpt lat="44.9655513710707" lon="8.925511635973292"><ele>95.0</ele><time>2026-03-29T12:46:15Z</time></trkpt><trkpt lat="44.96573960039124" lon="8.925758905207465"><ele>95.5</ele><time>2026-03-29T12:46:16Z</time></trkpt><trkpt lat="44.96593401300927" lon="8.926001543377971"><ele>96.0</ele><time>2026-03-29T12:46:17Z</time></trkpt><trkpt lat="44.96612295629338" lon="8.926246310195634"><ele>96.0</ele><time>2026-03-29T12:46:18Z</time></trkpt><trkpt lat="44.96630834359651" lon="8.926488867257973"><ele>96.0</ele><time>2026-03-29T12:46:19Z</time></trkpt><trkpt lat="44.96650117677896" lon="8.926732394665603"><ele>95.0</ele><time>2026-03-29T12:46:20Z</time></trkpt><trkpt lat="44.966691678954724" lon="8.92697145411283"><ele>94.0</ele><time>2026-03-29T12:46:21Z</time></trkpt><trkpt lat="44.96688023149786" lon="8.927217254505408"><ele>94.0</ele><time>2026-03-29T12:46:22Z</time></trkpt><trkpt lat="44.967068369958994" lon="8.927460152687804"><ele>94.0</ele><time>2026-03-29T12:46:23Z</time></trkpt><trkpt lat="44.96726104715673" lon="8.927702261254783"><ele>94.0</ele><time>2026-03-29T12:46:24Z</time></trkpt><trkpt lat="44.96744833422403" lon="8.92794228436077"><ele>94.0</ele><time>2026-03-29T12:46:25Z</time></trkpt><trkpt lat="44.967638240229526" lon="8.928182155611799"><ele>95.5</ele><time>2026-03-29T12:46:26Z</time></trkpt><trkpt lat="44.96782779170515" lon="8.928421056516052"><ele>97.0</ele><time>2026-03-29T12:46:27Z</time></trkpt><trkpt lat="44.96801460729963" lon="8.928665164938522"><ele>97.0</ele><time>2026-03-29T12:46:28Z</time></trkpt><trkpt lat="44.968198100972565" lon="8.928910013329364"><ele>97.0</ele><time>2026-03-29T12:46:29Z</time></trkpt><trkpt lat="44.9683867975702" lon="8.929154785223192"><ele>95.5</ele><time>2026-03-29T12:46:30Z</time></trkpt><trkpt lat="44.96857921130623" lon="8.92939775728735"><ele>94.0</ele><time>2026-03-29T12:46:31Z</time></trkpt><trkpt lat="44.96877419394215" lon="8.929646438652734"><ele>94.0</ele><time>2026-03-29T12:46:32Z</time></trkpt><trkpt lat="44.96896579419306" lon="8.929887582271308"><ele>94.0</ele><time>2026-03-29T12:46:33Z</time></trkpt><trkpt lat="44.969158124277925" lon="8.930137240463702"><ele>95.0</ele><time>2026-03-29T12:46:34Z</time></trkpt><trkpt lat="44.969347480301096" lon="8.930385641179416"><ele>96.0</ele><time>2026-03-29T12:46:35Z</time></trkpt><trkpt lat="44.969539596933686" lon="8.930632863047586"><ele>96.0</ele><time>2026-03-29T12:46:36Z</time></trkpt><trkpt lat="44.969735905852744" lon="8.930876449820524"><ele>96.0</ele><time>2026-03-29T12:46:37Z</time></trkpt><trkpt lat="44.96992836104876" lon="8.931119858024857"><ele>95.0</ele><time>2026-03-29T12:46:38Z</time></trkpt><trkpt lat="44.970111817002156" lon="8.931365514532141"><ele>94.0</ele><time>2026-03-29T12:46:39Z</time></trkpt><trkpt lat="44.970298276205135" lon="8.931608513495448"><ele>94.0</ele><time>2026-03-29T12:46:40Z</time></trkpt><trkpt lat="44.970487483753004" lon="8.931851193088686"><ele>94.0</ele><time>2026-03-29T12:46:41Z</time></trkpt><trkpt lat="44.970671802669216" lon="8.932096625780154"><ele>94.0</ele><time>2026-03-29T12:46:42Z</time></trkpt><trkpt lat="44.97085928422506" lon="8.93233971493352"><ele>94.0</ele><time>2026-03-29T12:46:43Z</time></trkpt><trkpt lat="44.97105071639303" lon="8.932581662426587"><ele>94.0</ele><time>2026-03-29T12:46:44Z</time></trkpt><trkpt lat="44.97123854797545" lon="8.932823542545128"><ele>94.0</ele><time>2026-03-29T12:46:45Z</time></trkpt><trkpt lat="44.97142890537749" lon="8.933063763811333"><ele>94.0</ele><time>2026-03-29T12:46:46Z</time></trkpt><trkpt lat="44.97161424909551" lon="8.933304131927944"><ele>94.0</ele><time>2026-03-29T12:46:47Z</time></trkpt><trkpt lat="44.97180525453569" lon="8.933542047062812"><ele>95.0</ele><time>2026-03-29T12:46:48Z</time></trkpt><trkpt lat="44.97199108536703" lon="8.933779549602937"><ele>96.0</ele><time>2026-03-29T12:46:49Z</time></trkpt><trkpt lat="44.972180292942696" lon="8.934017072531372"><ele>95.5</ele><time>2026-03-29T12:46:50Z</time></trkpt><trkpt lat="44.972366368377145" lon="8.934256836771862"><ele>95.0</ele><time>2026-03-29T12:46:51Z</time></trkpt><trkpt lat="44.97255198505376" lon="8.934497594499089"><ele>94.0</ele><time>2026-03-29T12:46:52Z</time></trkpt><trkpt lat="44.9727377438894" lon="8.934736339253037"><ele>93.0</ele><time>2026-03-29T12:46:53Z</time></trkpt><trkpt lat="44.972928109151475" lon="8.934973194946533"><ele>93.5</ele><time>2026-03-29T12:46:54Z</time></trkpt><trkpt lat="44.9731080871144" lon="8.935210713123332"><ele>94.0</ele><time>2026-03-29T12:46:55Z</time></trkpt><trkpt lat="44.97329123363873" lon="8.935447414704017"><ele>94.0</ele><time>2026-03-29T12:46:56Z</time></trkpt><trkpt lat="44.973475861676064" lon="8.935682570958805"><ele>94.0</ele><time>2026-03-29T12:46:57Z</time></trkpt><trkpt lat="44.97365898882321" lon="8.93591742822413"><ele>94.0</ele><time>2026-03-29T12:46:58Z</time></trkpt><trkpt lat="44.97383910044408" lon="8.936153014282649"><ele>94.0</ele><time>2026-03-29T12:46:59Z</time></trkpt><trkpt lat="44.974020992440344" lon="8.936387115102875"><ele>93.5</ele><time>2026-03-29T12:47:00Z</time></trkpt><trkpt lat="44.974204080367265" lon="8.936620538290487"><ele>93.0</ele><time>2026-03-29T12:47:01Z</time></trkpt><trkpt lat="44.97438917629267" lon="8.936854285509707"><ele>93.0</ele><time>2026-03-29T12:47:02Z</time></trkpt><trkpt lat="44.974576627141666" lon="8.937089920488399"><ele>93.0</ele><time>2026-03-29T12:47:03Z</time></trkpt><trkpt lat="44.97476054408849" lon="8.937325060151537"><ele>92.0</ele><time>2026-03-29T12:47:04Z</time></trkpt><trkpt lat="44.974943331036606" lon="8.937562269271881"><ele>91.0</ele><time>2026-03-29T12:47:05Z</time></trkpt><trkpt lat="44.97512681891526" lon="8.937801421174258"><ele>90.5</ele><time>2026-03-29T12:47:06Z</time></trkpt><trkpt lat="44.9753111788163" lon="8.938042267168127"><ele>90.0</ele><time>2026-03-29T12:47:07Z</time></trkpt><trkpt lat="44.975497007853804" lon="8.93828439736227"><ele>90.5</ele><time>2026-03-29T12:47:08Z</time></trkpt><trkpt lat="44.975684257611725" lon="8.938526835839047"><ele>91.0</ele><time>2026-03-29T12:47:09Z</time></trkpt><trkpt lat="44.97587228039538" lon="8.93876581315729"><ele>90.5</ele><time>2026-03-29T12:47:10Z</time></trkpt><trkpt lat="44.97606377578035" lon="8.93900525389155"><ele>90.0</ele><time>2026-03-29T12:47:11Z</time></trkpt><trkpt lat="44.97625346338596" lon="8.939246351808738"><ele>90.0</ele><time>2026-03-29T12:47:12Z</time></trkpt><trkpt lat="44.97644524856477" lon="8.939488904127538"><ele>90.0</ele><time>2026-03-29T12:47:13Z</time></trkpt><trkpt lat="44.976635116009525" lon="8.939732022522183"><ele>90.0</ele><time>2026-03-29T12:47:14Z</time></trkpt><trkpt lat="44.976819921316995" lon="8.939977785381632"><ele>90.0</ele><time>2026-03-29T12:47:15Z</time></trkpt><trkpt lat="44.97700884440073" lon="8.940223169124199"><ele>90.0</ele><time>2026-03-29T12:47:16Z</time></trkpt><trkpt lat="44.97719710671469" lon="8.940469525554526"><ele>90.0</ele><time>2026-03-29T12:47:17Z</time></trkpt><trkpt lat="44.97739005144238" lon="8.940714753591688"><ele>89.5</ele><time>2026-03-29T12:47:18.001Z</time></trkpt><trkpt lat="44.97758098719695" lon="8.940959406333537"><ele>89.0</ele><time>2026-03-29T12:47:19.001Z</time></trkpt><trkpt lat="44.97777053510823" lon="8.94120297761319"><ele>89.0</ele><time>2026-03-29T12:47:20.001Z</time></trkpt><trkpt lat="44.97796176864914" lon="8.941449030662358"><ele>89.0</ele><time>2026-03-29T12:47:21.001Z</time></trkpt><trkpt lat="44.97814745814793" lon="8.941695938757892"><ele>89.0</ele><time>2026-03-29T12:47:22.001Z</time></trkpt><trkpt lat="44.97833524535722" lon="8.941945253791742"><ele>89.0</ele><time>2026-03-29T12:47:23.001Z</time></trkpt><trkpt lat="44.978534820220595" lon="8.94219067265557"><ele>89.0</ele><time>2026-03-29T12:47:24.001Z</time></trkpt><trkpt lat="44.978733447594955" lon="8.942438013604628"><ele>89.0</ele><time>2026-03-29T12:47:24.998Z</time></trkpt><trkpt lat="44.97892560996294" lon="8.942686596923728"><ele>88.5</ele><time>2026-03-29T12:47:25.998Z</time></trkpt><trkpt lat="44.979120242073925" lon="8.942933644694135"><ele>88.0</ele><time>2026-03-29T12:47:26.998Z</time></trkpt><trkpt lat="44.979311474598234" lon="8.943185553131343"><ele>88.0</ele><time>2026-03-29T12:47:27.998Z</time></trkpt><trkpt lat="44.979503746088824" lon="8.943434893952308"><ele>88.0</ele><time>2026-03-29T12:47:28.998Z</time></trkpt><trkpt lat="44.97969840625307" lon="8.943681466826735"><ele>88.0</ele><time>2026-03-29T12:47:29.998Z</time></trkpt><trkpt lat="44.97988865037267" lon="8.943927911755415"><ele>88.0</ele><time>2026-03-29T12:47:30.998Z</time></trkpt><trkpt lat="44.98008590254867" lon="8.944171483639563"><ele>88.0</ele><time>2026-03-29T12:47:31.998Z</time></trkpt><trkpt lat="44.98027269841995" lon="8.944415400245783"><ele>88.0</ele><time>2026-03-29T12:47:32.998Z</time></trkpt><trkpt lat="44.98046170167541" lon="8.944657655474884"><ele>88.0</ele><time>2026-03-29T12:47:33.999Z</time></trkpt><trkpt lat="44.98065098275753" lon="8.944901360222358"><ele>88.0</ele><time>2026-03-29T12:47:34.999Z</time></trkpt><trkpt lat="44.980840728546475" lon="8.945142222721781"><ele>88.5</ele><time>2026-03-29T12:47:35.999Z</time></trkpt><trkpt lat="44.98102503689961" lon="8.945382807899287"><ele>89.0</ele><time>2026-03-29T12:47:36.999Z</time></trkpt><trkpt lat="44.98121735354911" lon="8.945624519554533"><ele>89.0</ele><time>2026-03-29T12:47:37.999Z</time></trkpt><trkpt lat="44.98141165751168" lon="8.945866788021164"><ele>89.0</ele><time>2026-03-29T12:47:38.999Z</time></trkpt><trkpt lat="44.98160300467672" lon="8.946112758685949"><ele>89.5</ele><time>2026-03-29T12:47:39.999Z</time></trkpt><trkpt lat="44.98179234980619" lon="8.946360483193825"><ele>90.0</ele><time>2026-03-29T12:47:40.999Z</time></trkpt><trkpt lat="44.98198946433483" lon="8.946607732898245"><ele>89.5</ele><time>2026-03-29T12:47:41.999Z</time></trkpt><trkpt lat="44.98217428025873" lon="8.946858799327472"><ele>89.0</ele><time>2026-03-29T12:47:42.999Z</time></trkpt><trkpt lat="44.98236871093231" lon="8.947106559731933"><ele>89.0</ele><time>2026-03-29T12:47:43.999Z</time></trkpt><trkpt lat="44.98256183221336" lon="8.947355497783438"><ele>89.0</ele><time>2026-03-29T12:47:44.999Z</time></trkpt><trkpt lat="44.982755365570064" lon="8.947604739721488"><ele>89.0</ele><time>2026-03-29T12:47:45.999Z</time></trkpt><trkpt lat="44.982950212182566" lon="8.947852503553303"><ele>89.0</ele><time>2026-03-29T12:47:46.999Z</time></trkpt><trkpt lat="44.9831456658154" lon="8.94809935954444"><ele>89.0</ele><time>2026-03-29T12:47:47.999Z</time></trkpt><trkpt lat="44.983334090352365" lon="8.94834797916868"><ele>89.0</ele><time>2026-03-29T12:47:48.999Z</time></trkpt><trkpt lat="44.98352765509178" lon="8.948594690564244"><ele>87.5</ele><time>2026-03-29T12:47:49.999Z</time></trkpt><trkpt lat="44.9837134432855" lon="8.948843843754783"><ele>86.0</ele><time>2026-03-29T12:47:50.999Z</time></trkpt><trkpt lat="44.98390443716102" lon="8.949089134694535"><ele>86.5</ele><time>2026-03-29T12:47:51.999Z</time></trkpt><trkpt lat="44.9840931243213" lon="8.949334675428423"><ele>87.0</ele><time>2026-03-29T12:47:52.999Z</time></trkpt><trkpt lat="44.98428567861491" lon="8.949580595168472"><ele>87.0</ele><time>2026-03-29T12:47:53.999Z</time></trkpt><trkpt lat="44.98448383299739" lon="8.949824252418399"><ele>87.0</ele><time>2026-03-29T12:47:54.999Z</time></trkpt><trkpt lat="44.984682096622954" lon="8.950070313321703"><ele>87.0</ele><time>2026-03-29T12:47:55.999Z</time></trkpt><trkpt lat="44.98486592743927" lon="8.950322675988893"><ele>87.0</ele><time>2026-03-29T12:47:56.999Z</time></trkpt><trkpt lat="44.985058014703235" lon="8.950571916280738"><ele>87.0</ele><time>2026-03-29T12:47:57.999Z</time></trkpt><trkpt lat="44.985249363243184" lon="8.95082111607744"><ele>87.0</ele><time>2026-03-29T12:47:58.999Z</time></trkpt><trkpt lat="44.98544460654634" lon="8.951069807775884"><ele>87.0</ele><time>2026-03-29T12:47:59.999Z</time></trkpt><trkpt lat="44.98563886849086" lon="8.951319782759265"><ele>87.0</ele><time>2026-03-29T12:48:01Z</time></trkpt><trkpt lat="44.9858345053229" lon="8.951567868087137"><ele>87.5</ele><time>2026-03-29T12:48:02Z</time></trkpt><trkpt lat="44.986028139174785" lon="8.951817126521409"><ele>88.0</ele><time>2026-03-29T12:48:03Z</time></trkpt><trkpt lat="44.9862275725212" lon="8.952066907890314"><ele>88.0</ele><time>2026-03-29T12:48:04Z</time></trkpt><trkpt lat="44.986421475497544" lon="8.952315574512728"><ele>88.0</ele><time>2026-03-29T12:48:05Z</time></trkpt><trkpt lat="44.986613376918065" lon="8.952562467672859"><ele>86.0</ele><time>2026-03-29T12:48:06Z</time></trkpt><trkpt lat="44.986807227730374" lon="8.952808771214134"><ele>84.0</ele><time>2026-03-29T12:48:07Z</time></trkpt><trkpt lat="44.986994939923754" lon="8.953061855386974"><ele>84.0</ele><time>2026-03-29T12:48:08Z</time></trkpt><trkpt lat="44.98719216117175" lon="8.953311461009575"><ele>84.0</ele><time>2026-03-29T12:48:09Z</time></trkpt><trkpt lat="44.987386567019676" lon="8.953558067193109"><ele>83.0</ele><time>2026-03-29T12:48:10Z</time></trkpt><trkpt lat="44.987582369944015" lon="8.953803511997473"><ele>82.0</ele><time>2026-03-29T12:48:11Z</time></trkpt><trkpt lat="44.98777554335834" lon="8.954052945012544"><ele>84.0</ele><time>2026-03-29T12:48:12Z</time></trkpt><trkpt lat="44.98797173651558" lon="8.954301408137608"><ele>86.0</ele><time>2026-03-29T12:48:13Z</time></trkpt><trkpt lat="44.98816591148599" lon="8.954553561488115"><ele>85.5</ele><time>2026-03-29T12:48:14Z</time></trkpt><trkpt lat="44.988362374617694" lon="8.954805486617191"><ele>85.0</ele><time>2026-03-29T12:48:15Z</time></trkpt><trkpt lat="44.988554387231254" lon="8.95505763014209"><ele>85.0</ele><time>2026-03-29T12:48:16Z</time></trkpt><trkpt lat="44.98875055151085" lon="8.955309281457575"><ele>85.0</ele><time>2026-03-29T12:48:17Z</time></trkpt><trkpt lat="44.98894587149915" lon="8.95555943859222"><ele>85.0</ele><time>2026-03-29T12:48:18Z</time></trkpt><trkpt lat="44.98914408897627" lon="8.955810542236083"><ele>85.0</ele><time>2026-03-29T12:48:19Z</time></trkpt><trkpt lat="44.989341314673844" lon="8.956061727753521"><ele>84.5</ele><time>2026-03-29T12:48:20Z</time></trkpt><trkpt lat="44.989536774206655" lon="8.956314200092079"><ele>84.0</ele><time>2026-03-29T12:48:21Z</time></trkpt><trkpt lat="44.9897339672227" lon="8.956564897354383"><ele>85.0</ele><time>2026-03-29T12:48:22Z</time></trkpt><trkpt lat="44.98992499322974" lon="8.956818373282125"><ele>86.0</ele><time>2026-03-29T12:48:23Z</time></trkpt><trkpt lat="44.99011962414157" lon="8.957073827753371"><ele>86.0</ele><time>2026-03-29T12:48:24Z</time></trkpt><trkpt lat="44.990308404873524" lon="8.957331862782103"><ele>86.0</ele><time>2026-03-29T12:48:25Z</time></trkpt><trkpt lat="44.990501297660906" lon="8.957587893988103"><ele>86.0</ele><time>2026-03-29T12:48:26Z</time></trkpt><trkpt lat="44.99069210157679" lon="8.957844718613513"><ele>86.0</ele><time>2026-03-29T12:48:27Z</time></trkpt><trkpt lat="44.99087683885891" lon="8.9581031970563"><ele>86.5</ele><time>2026-03-29T12:48:28Z</time></trkpt><trkpt lat="44.99106500843605" lon="8.958363257477513"><ele>87.0</ele><time>2026-03-29T12:48:29Z</time></trkpt><trkpt lat="44.9912530597332" lon="8.958623345193221"><ele>87.0</ele><time>2026-03-29T12:48:30Z</time></trkpt><trkpt lat="44.99143488739888" lon="8.95888366020943"><ele>87.0</ele><time>2026-03-29T12:48:31Z</time></trkpt><trkpt lat="44.991620091444325" lon="8.959145489518148"><ele>86.5</ele><time>2026-03-29T12:48:32Z</time></trkpt><trkpt lat="44.99180248527019" lon="8.959409108372807"><ele>86.0</ele><time>2026-03-29T12:48:33Z</time></trkpt><trkpt lat="44.99198337645821" lon="8.959675418216317"><ele>86.0</ele><time>2026-03-29T12:48:34Z</time></trkpt><trkpt lat="44.992163205918914" lon="8.959943730683452"><ele>86.0</ele><time>2026-03-29T12:48:35Z</time></trkpt><trkpt lat="44.99234024683238" lon="8.960214458900715"><ele>86.0</ele><time>2026-03-29T12:48:36Z</time></trkpt><trkpt lat="44.99251586025163" lon="8.960484971187883"><ele>86.0</ele><time>2026-03-29T12:48:37Z</time></trkpt><trkpt lat="44.99268981546856" lon="8.96075470100897"><ele>87.5</ele><time>2026-03-29T12:48:38Z</time></trkpt><trkpt lat="44.992871810486896" lon="8.96101718300142"><ele>89.0</ele><time>2026-03-29T12:48:39Z</time></trkpt><trkpt lat="44.9930401880401" lon="8.96128346141911"><ele>89.0</ele><time>2026-03-29T12:48:40Z</time></trkpt><trkpt lat="44.993212751755046" lon="8.96154490607753"><ele>89.0</ele><time>2026-03-29T12:48:41Z</time></trkpt><trkpt lat="44.99338217316742" lon="8.961805465645323"><ele>87.5</ele><time>2026-03-29T12:48:42Z</time></trkpt><trkpt lat="44.993557840715546" lon="8.962066928966534"><ele>86.0</ele><time>2026-03-29T12:48:43Z</time></trkpt><trkpt lat="44.99373023556987" lon="8.962336684446168"><ele>86.5</ele><time>2026-03-29T12:48:44Z</time></trkpt><trkpt lat="44.99390045749156" lon="8.962594355276687"><ele>87.0</ele><time>2026-03-29T12:48:45Z</time></trkpt><trkpt lat="44.9940698985118" lon="8.962849820435151"><ele>87.0</ele><time>2026-03-29T12:48:46Z</time></trkpt><trkpt lat="44.99424297917885" lon="8.96310705464391"><ele>87.0</ele><time>2026-03-29T12:48:47Z</time></trkpt><trkpt lat="44.99441076169597" lon="8.963369320721485"><ele>87.0</ele><time>2026-03-29T12:48:48Z</time></trkpt><trkpt lat="44.99458224028622" lon="8.963625235914925"><ele>87.0</ele><time>2026-03-29T12:48:49Z</time></trkpt><trkpt lat="44.99475245616315" lon="8.963883688243948"><ele>87.0</ele><time>2026-03-29T12:48:50Z</time></trkpt><trkpt lat="44.99492308100797" lon="8.964143087887535"><ele>87.0</ele><time>2026-03-29T12:48:51Z</time></trkpt><trkpt lat="44.99509619196175" lon="8.964400068662291"><ele>86.5</ele><time>2026-03-29T12:48:52Z</time></trkpt><trkpt lat="44.995268929516804" lon="8.964658383984295"><ele>86.0</ele><time>2026-03-29T12:48:53Z</time></trkpt><trkpt lat="44.995439017323655" lon="8.964920836320418"><ele>86.0</ele><time>2026-03-29T12:48:54Z</time></trkpt><trkpt lat="44.99561204676205" lon="8.9651848185063"><ele>86.0</ele><time>2026-03-29T12:48:55Z</time></trkpt><trkpt lat="44.99578109574992" lon="8.965452269461972"><ele>86.0</ele><time>2026-03-29T12:48:56Z</time></trkpt><trkpt lat="44.99596061568903" lon="8.965717100732464"><ele>86.0</ele><time>2026-03-29T12:48:57Z</time></trkpt><trkpt lat="44.9961344164861" lon="8.965985668963025"><ele>86.5</ele><time>2026-03-29T12:48:58Z</time></trkpt><trkpt lat="44.996308906779106" lon="8.966253419631247"><ele>87.0</ele><time>2026-03-29T12:48:59.001Z</time></trkpt><trkpt lat="44.99648550832923" lon="8.966519698096384"><ele>87.0</ele><time>2026-03-29T12:49:00.001Z</time></trkpt><trkpt lat="44.99666456697284" lon="8.966788341923325"><ele>87.0</ele><time>2026-03-29T12:49:01.001Z</time></trkpt><trkpt lat="44.99684724848684" lon="8.967055508383915"><ele>87.0</ele><time>2026-03-29T12:49:02.001Z</time></trkpt><trkpt lat="44.99702041412159" lon="8.967324702939758"><ele>87.0</ele><time>2026-03-29T12:49:03.001Z</time></trkpt><trkpt lat="44.997200914904255" lon="8.967591226921787"><ele>87.0</ele><time>2026-03-29T12:49:04.001Z</time></trkpt><trkpt lat="44.997381126127806" lon="8.967858490841037"><ele>87.0</ele><time>2026-03-29T12:49:05.001Z</time></trkpt><trkpt lat="44.99755079871063" lon="8.968127029521781"><ele>87.0</ele><time>2026-03-29T12:49:06.001Z</time></trkpt><trkpt lat="44.99772282721944" lon="8.968393049288515"><ele>87.0</ele><time>2026-03-29T12:49:07.001Z</time></trkpt><trkpt lat="44.997899214349246" lon="8.968657262690282"><ele>87.0</ele><time>2026-03-29T12:49:08.001Z</time></trkpt><trkpt lat="44.99807908981096" lon="8.968923126631433"><ele>87.0</ele><time>2026-03-29T12:49:09.001Z</time></trkpt><trkpt lat="44.99826122877567" lon="8.969187900014175"><ele>86.5</ele><time>2026-03-29T12:49:10.001Z</time></trkpt><trkpt lat="44.99843416582139" lon="8.969450662458256"><ele>86.0</ele><time>2026-03-29T12:49:11.001Z</time></trkpt><trkpt lat="44.998612300016454" lon="8.96971580894672"><ele>86.0</ele><time>2026-03-29T12:49:12.001Z</time></trkpt><trkpt lat="44.99878328560256" lon="8.96997910152136"><ele>86.0</ele><time>2026-03-29T12:49:13.001Z</time></trkpt><trkpt lat="44.99896053099862" lon="8.970246971738439"><ele>86.0</ele><time>2026-03-29T12:49:14.001Z</time></trkpt><trkpt lat="44.99912635758967" lon="8.970503490411025"><ele>86.0</ele><time>2026-03-29T12:49:15.001Z</time></trkpt><trkpt lat="44.99929984796436" lon="8.970767100971287"><ele>86.0</ele><time>2026-03-29T12:49:16.001Z</time></trkpt><trkpt lat="44.999473239979906" lon="8.971031031150588"><ele>86.0</ele><time>2026-03-29T12:49:17.001Z</time></trkpt><trkpt lat="44.999645692412756" lon="8.971295043452029"><ele>86.0</ele><time>2026-03-29T12:49:18.001Z</time></trkpt><trkpt lat="44.999819167799195" lon="8.97155824886168"><ele>86.0</ele><time>2026-03-29T12:49:19.001Z</time></trkpt><trkpt lat="44.999987880031334" lon="8.971825573238766"><ele>85.5</ele><time>2026-03-29T12:49:20.001Z</time></trkpt><trkpt lat="45.000157438411556" lon="8.972093575312124"><ele>85.0</ele><time>2026-03-29T12:49:21.001Z</time></trkpt><trkpt lat="45.000327521721104" lon="8.972365890138068"><ele>84.5</ele><time>2026-03-29T12:49:22.001Z</time></trkpt><trkpt lat="45.00049620313107" lon="8.972653315500885"><ele>84.0</ele><time>2026-03-29T12:49:23.001Z</time></trkpt><trkpt lat="45.00066903823759" lon="8.972926021659276"><ele>84.0</ele><time>2026-03-29T12:49:24.001Z</time></trkpt><trkpt lat="45.000831179972764" lon="8.973207422959"><ele>84.0</ele><time>2026-03-29T12:49:25.001Z</time></trkpt><trkpt lat="45.00099912166776" lon="8.973483558005286"><ele>84.0</ele><time>2026-03-29T12:49:26.001Z</time></trkpt><trkpt lat="45.00116430129839" lon="8.973765717005964"><ele>84.0</ele><time>2026-03-29T12:49:27.001Z</time></trkpt><trkpt lat="45.00132399086556" lon="8.974053492504956"><ele>84.5</ele><time>2026-03-29T12:49:28.001Z</time></trkpt><trkpt lat="45.0014811451238" lon="8.974342336390897"><ele>85.0</ele><time>2026-03-29T12:49:29.001Z</time></trkpt><trkpt lat="45.00163825339958" lon="8.974632003172873"><ele>84.5</ele><time>2026-03-29T12:49:30.001Z</time></trkpt><trkpt lat="45.00179808183881" lon="8.974922339266573"><ele>84.0</ele><time>2026-03-29T12:49:30.998Z</time></trkpt><trkpt lat="45.001956825201994" lon="8.97521101173749"><ele>82.5</ele><time>2026-03-29T12:49:31.998Z</time></trkpt><trkpt lat="45.00212027399525" lon="8.975499042066074"><ele>81.0</ele><time>2026-03-29T12:49:32.998Z</time></trkpt><trkpt lat="45.002279873485136" lon="8.975789831816712"><ele>81.0</ele><time>2026-03-29T12:49:33.998Z</time></trkpt><trkpt lat="45.00242973741737" lon="8.976089755780931"><ele>81.0</ele><time>2026-03-29T12:49:34.998Z</time></trkpt><trkpt lat="45.002581812256096" lon="8.976391972056032"><ele>81.0</ele><time>2026-03-29T12:49:35.998Z</time></trkpt><trkpt lat="45.002728691353575" lon="8.976697350574117"><ele>81.0</ele><time>2026-03-29T12:49:36.999Z</time></trkpt><trkpt lat="45.0028722678152" lon="8.977005432376217"><ele>81.0</ele><time>2026-03-29T12:49:37.999Z</time></trkpt><trkpt lat="45.003024503279626" lon="8.977314053669819"><ele>81.0</ele><time>2026-03-29T12:49:38.999Z</time></trkpt><trkpt lat="45.0031787306332" lon="8.977622857358357"><ele>82.0</ele><time>2026-03-29T12:49:39.999Z</time></trkpt><trkpt lat="45.00333064643307" lon="8.97793522771852"><ele>83.0</ele><time>2026-03-29T12:49:40.999Z</time></trkpt><trkpt lat="45.00347433536551" lon="8.978246290720685"><ele>82.5</ele><time>2026-03-29T12:49:41.999Z</time></trkpt><trkpt lat="45.00362031194224" lon="8.97856726239752"><ele>82.0</ele><time>2026-03-29T12:49:42.999Z</time></trkpt><trkpt lat="45.00376351672735" lon="8.978887550110263"><ele>82.0</ele><time>2026-03-29T12:49:43.999Z</time></trkpt><trkpt lat="45.00390538305221" lon="8.979211419964292"><ele>82.0</ele><time>2026-03-29T12:49:44.999Z</time></trkpt><trkpt lat="45.004046749443326" lon="8.97953534200251"><ele>82.0</ele><time>2026-03-29T12:49:45.999Z</time></trkpt><trkpt lat="45.00418575414481" lon="8.979858686886793"><ele>82.0</ele><time>2026-03-29T12:49:46.999Z</time></trkpt><trkpt lat="45.00431925087194" lon="8.98018078573137"><ele>81.0</ele><time>2026-03-29T12:49:47.999Z</time></trkpt><trkpt lat="45.00445071796626" lon="8.980504035476764"><ele>80.0</ele><time>2026-03-29T12:49:48.999Z</time></trkpt><trkpt lat="45.00457986781918" lon="8.980827497575582"><ele>81.0</ele><time>2026-03-29T12:49:49.999Z</time></trkpt><trkpt lat="45.00470304876055" lon="8.981148936525527"><ele>82.0</ele><time>2026-03-29T12:49:50.999Z</time></trkpt><trkpt lat="45.0048287583651" lon="8.981467983974275"><ele>82.5</ele><time>2026-03-29T12:49:51.999Z</time></trkpt><trkpt lat="45.004948510823034" lon="8.981788985608615"><ele>83.0</ele><time>2026-03-29T12:49:52.999Z</time></trkpt><trkpt lat="45.0050703087073" lon="8.9821070247457"><ele>83.0</ele><time>2026-03-29T12:49:53.999Z</time></trkpt><trkpt lat="45.0051898026107" lon="8.982426415556446"><ele>83.0</ele><time>2026-03-29T12:49:54.999Z</time></trkpt><trkpt lat="45.0053048401715" lon="8.982746170054021"><ele>82.5</ele><time>2026-03-29T12:49:55.999Z</time></trkpt><trkpt lat="45.005424353761974" lon="8.983067451827411"><ele>82.0</ele><time>2026-03-29T12:49:56.999Z</time></trkpt><trkpt lat="45.00554335634533" lon="8.983388664792946"><ele>82.0</ele><time>2026-03-29T12:49:57.999Z</time></trkpt><trkpt lat="45.00566218343657" lon="8.98371173716553"><ele>82.0</ele><time>2026-03-29T12:49:58.999Z</time></trkpt><trkpt lat="45.0057780079251" lon="8.984036007229497"><ele>81.0</ele><time>2026-03-29T12:49:59.999Z</time></trkpt><trkpt lat="45.005901948669504" lon="8.984363726527583"><ele>80.0</ele><time>2026-03-29T12:50:00.999Z</time></trkpt><trkpt lat="45.00602724301167" lon="8.984692512377777"><ele>79.0</ele><time>2026-03-29T12:50:02Z</time></trkpt><trkpt lat="45.006150486535056" lon="8.985021006897968"><ele>78.0</ele><time>2026-03-29T12:50:03Z</time></trkpt><trkpt lat="45.00627544779016" lon="8.985350554191871"><ele>78.0</ele><time>2026-03-29T12:50:04Z</time></trkpt><trkpt lat="45.00639420529134" lon="8.985680371320639"><ele>78.0</ele><time>2026-03-29T12:50:05Z</time></trkpt><trkpt lat="45.00651378179447" lon="8.98600931150155"><ele>78.0</ele><time>2026-03-29T12:50:06Z</time></trkpt><trkpt lat="45.00663675009996" lon="8.986337560668094"><ele>78.0</ele><time>2026-03-29T12:50:07Z</time></trkpt><trkpt lat="45.0067592369275" lon="8.986663469927878"><ele>79.5</ele><time>2026-03-29T12:50:08Z</time></trkpt><trkpt lat="45.006882105910435" lon="8.986985233553863"><ele>81.0</ele><time>2026-03-29T12:50:09Z</time></trkpt><trkpt lat="45.006994994169396" lon="8.987305606401026"><ele>80.5</ele><time>2026-03-29T12:50:10Z</time></trkpt><trkpt lat="45.007114427241945" lon="8.9876256993174"><ele>80.0</ele><time>2026-03-29T12:50:11Z</time></trkpt><trkpt lat="45.007229289921185" lon="8.987943908620576"><ele>80.0</ele><time>2026-03-29T12:50:12Z</time></trkpt><trkpt lat="45.00734834027043" lon="8.98825961844098"><ele>80.0</ele><time>2026-03-29T12:50:13Z</time></trkpt><trkpt lat="45.00746229723146" lon="8.988574582222185"><ele>81.0</ele><time>2026-03-29T12:50:14Z</time></trkpt><trkpt lat="45.00757772935092" lon="8.988886635754492"><ele>82.0</ele><time>2026-03-29T12:50:15Z</time></trkpt><trkpt lat="45.00769443118903" lon="8.989200536235305"><ele>82.0</ele><time>2026-03-29T12:50:16Z</time></trkpt><trkpt lat="45.00780672338363" lon="8.989512841761345"><ele>82.0</ele><time>2026-03-29T12:50:17Z</time></trkpt><trkpt lat="45.007921538129274" lon="8.989827295802337"><ele>82.0</ele><time>2026-03-29T12:50:18Z</time></trkpt><trkpt lat="45.008037925027224" lon="8.990140934387318"><ele>82.0</ele><time>2026-03-29T12:50:19Z</time></trkpt><trkpt lat="45.008157587591256" lon="8.990454211431892"><ele>82.0</ele><time>2026-03-29T12:50:20Z</time></trkpt><trkpt lat="45.00827552524856" lon="8.990766990259448"><ele>82.0</ele><time>2026-03-29T12:50:21Z</time></trkpt><trkpt lat="45.00839154164478" lon="8.991083084282117"><ele>80.5</ele><time>2026-03-29T12:50:22Z</time></trkpt><trkpt lat="45.00850777332695" lon="8.991399355215156"><ele>79.0</ele><time>2026-03-29T12:50:23Z</time></trkpt><trkpt lat="45.00862635154436" lon="8.991717932408406"><ele>79.0</ele><time>2026-03-29T12:50:24Z</time></trkpt><trkpt lat="45.00873933030814" lon="8.992036571338973"><ele>79.0</ele><time>2026-03-29T12:50:25Z</time></trkpt><trkpt lat="45.008861392174936" lon="8.992358669998662"><ele>80.0</ele><time>2026-03-29T12:50:26Z</time></trkpt><trkpt lat="45.00897923714718" lon="8.99267702838557"><ele>81.0</ele><time>2026-03-29T12:50:27Z</time></trkpt><trkpt lat="45.0090979290067" lon="8.992997040495682"><ele>82.5</ele><time>2026-03-29T12:50:28Z</time></trkpt><trkpt lat="45.00921730106705" lon="8.993316818463223"><ele>84.0</ele><time>2026-03-29T12:50:29Z</time></trkpt><trkpt lat="45.009337712222965" lon="8.993634773851129"><ele>84.0</ele><time>2026-03-29T12:50:30Z</time></trkpt><trkpt lat="45.00945625816275" lon="8.993969114576558"><ele>84.0</ele><time>2026-03-29T12:50:31Z</time></trkpt><trkpt lat="45.009572704522526" lon="8.99428975535437"><ele>83.0</ele><time>2026-03-29T12:50:32Z</time></trkpt><trkpt lat="45.009690553032925" lon="8.994615239663563"><ele>82.0</ele><time>2026-03-29T12:50:33Z</time></trkpt><trkpt lat="45.009805892858296" lon="8.994937781942284"><ele>82.0</ele><time>2026-03-29T12:50:34Z</time></trkpt><trkpt lat="45.00992806357714" lon="8.99525978879217"><ele>82.0</ele><time>2026-03-29T12:50:35Z</time></trkpt><trkpt lat="45.01004797931046" lon="8.99558150100729"><ele>81.5</ele><time>2026-03-29T12:50:36Z</time></trkpt><trkpt lat="45.010175173098986" lon="8.995903054070315"><ele>81.0</ele><time>2026-03-29T12:50:37Z</time></trkpt><trkpt lat="45.01028761543454" lon="8.996223240944742"><ele>81.0</ele><time>2026-03-29T12:50:38Z</time></trkpt><trkpt lat="45.010412563138885" lon="8.99654758702442"><ele>81.0</ele><time>2026-03-29T12:50:39Z</time></trkpt><trkpt lat="45.010530351824166" lon="8.996860599581673"><ele>81.0</ele><time>2026-03-29T12:50:40Z</time></trkpt><trkpt lat="45.01064696392806" lon="8.997176107860046"><ele>81.0</ele><time>2026-03-29T12:50:41Z</time></trkpt><trkpt lat="45.01076290305045" lon="8.99748965400243"><ele>80.5</ele><time>2026-03-29T12:50:42Z</time></trkpt><trkpt lat="45.01087907408477" lon="8.997804003166246"><ele>80.0</ele><time>2026-03-29T12:50:43Z</time></trkpt><trkpt lat="45.01099367457368" lon="8.998113552220648"><ele>80.0</ele><time>2026-03-29T12:50:44.001Z</time></trkpt><trkpt lat="45.01110790242999" lon="8.998426759941436"><ele>80.0</ele><time>2026-03-29T12:50:45.001Z</time></trkpt><trkpt lat="45.011224827376786" lon="8.998735956310384"><ele>80.0</ele><time>2026-03-29T12:50:46.001Z</time></trkpt><trkpt lat="45.01133949716235" lon="8.999046582745027"><ele>80.0</ele><time>2026-03-29T12:50:47.001Z</time></trkpt><trkpt lat="45.011451909509326" lon="8.999360310296563"><ele>80.5</ele><time>2026-03-29T12:50:48.001Z</time></trkpt><trkpt lat="45.01157008978655" lon="8.999674967742637"><ele>81.0</ele><time>2026-03-29T12:50:49.001Z</time></trkpt><trkpt lat="45.01168175508325" lon="8.999991855369327"><ele>81.5</ele><time>2026-03-29T12:50:50.001Z</time></trkpt><trkpt lat="45.011793708735354" lon="9.000314167576335"><ele>82.0</ele><time>2026-03-29T12:50:51.001Z</time></trkpt><trkpt lat="45.0119060239851" lon="9.000640026101618"><ele>82.0</ele><time>2026-03-29T12:50:52.001Z</time></trkpt><trkpt lat="45.012018842505256" lon="9.000968061142872"><ele>82.0</ele><time>2026-03-29T12:50:53.001Z</time></trkpt><trkpt lat="45.012128033699994" lon="9.001295851838528"><ele>82.0</ele><time>2026-03-29T12:50:54.001Z</time></trkpt><trkpt lat="45.01223222823447" lon="9.00162453636203"><ele>82.0</ele><time>2026-03-29T12:50:55.001Z</time></trkpt><trkpt lat="45.01234674441039" lon="9.00196330651164"><ele>81.5</ele><time>2026-03-29T12:50:56.001Z</time></trkpt><trkpt lat="45.01245501761852" lon="9.00229675403904"><ele>81.0</ele><time>2026-03-29T12:50:57.001Z</time></trkpt><trkpt lat="45.01256546560019" lon="9.002634379496545"><ele>81.0</ele><time>2026-03-29T12:50:58.001Z</time></trkpt><trkpt lat="45.01267162102743" lon="9.002970503742278"><ele>81.0</ele><time>2026-03-29T12:50:59.001Z</time></trkpt><trkpt lat="45.01278149931714" lon="9.003309792890594"><ele>81.5</ele><time>2026-03-29T12:51:00.001Z</time></trkpt><trkpt lat="45.01288764728114" lon="9.003642009236158"><ele>82.0</ele><time>2026-03-29T12:51:01.001Z</time></trkpt><trkpt lat="45.01298965075727" lon="9.003981648009884"><ele>82.0</ele><time>2026-03-29T12:51:02.001Z</time></trkpt><trkpt lat="45.013088846556165" lon="9.004318375709058"><ele>82.0</ele><time>2026-03-29T12:51:03.001Z</time></trkpt><trkpt lat="45.01319229904998" lon="9.004657832726297"><ele>82.0</ele><time>2026-03-29T12:51:04.001Z</time></trkpt><trkpt lat="45.013287401874884" lon="9.004989753325692"><ele>82.0</ele><time>2026-03-29T12:51:05.001Z</time></trkpt><trkpt lat="45.01338505382223" lon="9.005326528672548"><ele>82.0</ele><time>2026-03-29T12:51:06.001Z</time></trkpt><trkpt lat="45.01348399977314" lon="9.005663851126828"><ele>82.0</ele><time>2026-03-29T12:51:07.001Z</time></trkpt><trkpt lat="45.01357603845346" lon="9.005999036730703"><ele>81.5</ele><time>2026-03-29T12:51:08.001Z</time></trkpt><trkpt lat="45.01367500576561" lon="9.006339708272286"><ele>81.0</ele><time>2026-03-29T12:51:09.001Z</time></trkpt><trkpt lat="45.01377182563389" lon="9.00667925490469"><ele>80.5</ele><time>2026-03-29T12:51:10.001Z</time></trkpt><trkpt lat="45.01386128773398" lon="9.00701755925486"><ele>80.0</ele><time>2026-03-29T12:51:11.001Z</time></trkpt><trkpt lat="45.013953978318206" lon="9.007357552214778"><ele>80.0</ele><time>2026-03-29T12:51:12.001Z</time></trkpt><trkpt lat="45.014041069347805" lon="9.007693209111208"><ele>80.0</ele><time>2026-03-29T12:51:13.001Z</time></trkpt><trkpt lat="45.01413097574322" lon="9.008032256819133"><ele>80.0</ele><time>2026-03-29T12:51:14.001Z</time></trkpt><trkpt lat="45.01421862250128" lon="9.008371425045931"><ele>80.0</ele><time>2026-03-29T12:51:15.001Z</time></trkpt><trkpt lat="45.014307370973704" lon="9.008713803700466"><ele>80.0</ele><time>2026-03-29T12:51:16.001Z</time></trkpt><trkpt lat="45.01438989023849" lon="9.009056060135677"><ele>80.0</ele><time>2026-03-29T12:51:17.001Z</time></trkpt><trkpt lat="45.014469803391655" lon="9.009397847253416"><ele>80.0</ele><time>2026-03-29T12:51:18.001Z</time></trkpt><trkpt lat="45.01455239724653" lon="9.009744276632599"><ele>80.0</ele><time>2026-03-29T12:51:19.001Z</time></trkpt><trkpt lat="45.014634010130486" lon="9.010091193506055"><ele>80.5</ele><time>2026-03-29T12:51:20.001Z</time></trkpt><trkpt lat="45.01471495884566" lon="9.010438707490055"><ele>81.0</ele><time>2026-03-29T12:51:21.001Z</time></trkpt><trkpt lat="45.014790961758614" lon="9.01078344026796"><ele>81.5</ele><time>2026-03-29T12:51:22.001Z</time></trkpt><trkpt lat="45.01487992650077" lon="9.011134821853384"><ele>82.0</ele><time>2026-03-29T12:51:23.001Z</time></trkpt><trkpt lat="45.014958159279175" lon="9.01148099262413"><ele>80.0</ele><time>2026-03-29T12:51:24.001Z</time></trkpt><trkpt lat="45.01504363194166" lon="9.011831720060147"><ele>78.0</ele><time>2026-03-29T12:51:25.001Z</time></trkpt><trkpt lat="45.01512660227644" lon="9.01218139483095"><ele>78.5</ele><time>2026-03-29T12:51:26.001Z</time></trkpt><trkpt lat="45.01521039036679" lon="9.012532357027114"><ele>79.0</ele><time>2026-03-29T12:51:27.001Z</time></trkpt><trkpt lat="45.01529554573451" lon="9.01288441451333"><ele>79.0</ele><time>2026-03-29T12:51:28.001Z</time></trkpt><trkpt lat="45.01537872482319" lon="9.013234133581866"><ele>79.0</ele><time>2026-03-29T12:51:29.001Z</time></trkpt><trkpt lat="45.01545737168829" lon="9.0135830118374"><ele>79.0</ele><time>2026-03-29T12:51:30.001Z</time></trkpt><trkpt lat="45.01554023477169" lon="9.013933316457365"><ele>79.0</ele><time>2026-03-29T12:51:31.001Z</time></trkpt><trkpt lat="45.015620431286756" lon="9.014285211900484"><ele>79.0</ele><time>2026-03-29T12:51:32.001Z</time></trkpt><trkpt lat="45.01570169835458" lon="9.014637705330474"><ele>79.0</ele><time>2026-03-29T12:51:33.001Z</time></trkpt><trkpt lat="45.015783361548536" lon="9.014991342581602"><ele>79.0</ele><time>2026-03-29T12:51:34.001Z</time></trkpt><trkpt lat="45.01586615829029" lon="9.015344623356285"><ele>79.0</ele><time>2026-03-29T12:51:35.001Z</time></trkpt><trkpt lat="45.01594875635896" lon="9.015696314171782"><ele>79.5</ele><time>2026-03-29T12:51:36.001Z</time></trkpt><trkpt lat="45.01603308726871" lon="9.016047112426218"><ele>80.0</ele><time>2026-03-29T12:51:36.999Z</time></trkpt><trkpt lat="45.01611559921335" lon="9.01641100855287"><ele>79.5</ele><time>2026-03-29T12:51:37.999Z</time></trkpt><trkpt lat="45.016197819024406" lon="9.016775338648278"><ele>79.0</ele><time>2026-03-29T12:51:38.999Z</time></trkpt><trkpt lat="45.01627885116463" lon="9.017115918567644"><ele>79.0</ele><time>2026-03-29T12:51:39.999Z</time></trkpt><trkpt lat="45.01636108443151" lon="9.01746895297108"><ele>79.0</ele><time>2026-03-29T12:51:40.999Z</time></trkpt><trkpt lat="45.0164456537735" lon="9.017823930679022"><ele>78.5</ele><time>2026-03-29T12:51:41.999Z</time></trkpt><trkpt lat="45.016526605520504" lon="9.018177344178502"><ele>78.0</ele><time>2026-03-29T12:51:42.999Z</time></trkpt><trkpt lat="45.0166141056535" lon="9.018533125193153"><ele>78.5</ele><time>2026-03-29T12:51:43.999Z</time></trkpt><trkpt lat="45.01669926281937" lon="9.018887090039298"><ele>79.0</ele><time>2026-03-29T12:51:44.999Z</time></trkpt><trkpt lat="45.016782486287084" lon="9.019240205447568"><ele>79.0</ele><time>2026-03-29T12:51:45.999Z</time></trkpt><trkpt lat="45.01686155293008" lon="9.01959307451634"><ele>79.0</ele><time>2026-03-29T12:51:46.999Z</time></trkpt><trkpt lat="45.01694380271727" lon="9.019945735416401"><ele>79.5</ele><time>2026-03-29T12:51:47.999Z</time></trkpt><trkpt lat="45.01702662256341" lon="9.020299068350266"><ele>80.0</ele><time>2026-03-29T12:51:48.999Z</time></trkpt><trkpt lat="45.01710663700573" lon="9.02064900528336"><ele>80.0</ele><time>2026-03-29T12:51:49.999Z</time></trkpt><trkpt lat="45.01718709639357" lon="9.020999561421965"><ele>80.0</ele><time>2026-03-29T12:51:50.999Z</time></trkpt><trkpt lat="45.01726720450432" lon="9.021352857745317"><ele>79.5</ele><time>2026-03-29T12:51:51.999Z</time></trkpt><trkpt lat="45.01735355164957" lon="9.02169859310489"><ele>79.0</ele><time>2026-03-29T12:51:52.999Z</time></trkpt><trkpt lat="45.017437636135625" lon="9.022044872216654"><ele>78.5</ele><time>2026-03-29T12:51:53.999Z</time></trkpt><trkpt lat="45.0175110961657" lon="9.022388292686358"><ele>78.0</ele><time>2026-03-29T12:51:54.999Z</time></trkpt><trkpt lat="45.0175921522322" lon="9.022734069215714"><ele>77.5</ele><time>2026-03-29T12:51:55.999Z</time></trkpt><trkpt lat="45.01767376119434" lon="9.023081611091019"><ele>77.0</ele><time>2026-03-29T12:51:56.999Z</time></trkpt><trkpt lat="45.0177605099883" lon="9.023427543760167"><ele>77.0</ele><time>2026-03-29T12:51:57.999Z</time></trkpt><trkpt lat="45.017841688426955" lon="9.023769694620604"><ele>77.0</ele><time>2026-03-29T12:51:58.999Z</time></trkpt><trkpt lat="45.01792042224106" lon="9.024112034318897"><ele>77.0</ele><time>2026-03-29T12:51:59.999Z</time></trkpt><trkpt lat="45.01800364353441" lon="9.024453852256466"><ele>77.0</ele><time>2026-03-29T12:52:00.999Z</time></trkpt><trkpt lat="45.0180814985463" lon="9.024794715959867"><ele>77.0</ele><time>2026-03-29T12:52:02Z</time></trkpt><trkpt lat="45.01816086869263" lon="9.025133965215423"><ele>77.0</ele><time>2026-03-29T12:52:03Z</time></trkpt><trkpt lat="45.018238799870566" lon="9.025474036850326"><ele>77.5</ele><time>2026-03-29T12:52:04Z</time></trkpt><trkpt lat="45.018317841354964" lon="9.025812163641339"><ele>78.0</ele><time>2026-03-29T12:52:05Z</time></trkpt><trkpt lat="45.01840034904806" lon="9.026152594091641"><ele>78.0</ele><time>2026-03-29T12:52:06Z</time></trkpt><trkpt lat="45.018479813601445" lon="9.026491184519212"><ele>78.0</ele><time>2026-03-29T12:52:07Z</time></trkpt><trkpt lat="45.018559209026044" lon="9.026829238841742"><ele>77.5</ele><time>2026-03-29T12:52:08Z</time></trkpt><trkpt lat="45.01863909271174" lon="9.027166084496223"><ele>77.0</ele><time>2026-03-29T12:52:09Z</time></trkpt><trkpt lat="45.018720304429024" lon="9.027505156116902"><ele>78.0</ele><time>2026-03-29T12:52:10Z</time></trkpt><trkpt lat="45.01880096076873" lon="9.027845873531064"><ele>79.0</ele><time>2026-03-29T12:52:11Z</time></trkpt><trkpt lat="45.018879569079544" lon="9.02818724455091"><ele>78.5</ele><time>2026-03-29T12:52:12Z</time></trkpt><trkpt lat="45.01896044764093" lon="9.02853045125311"><ele>78.0</ele><time>2026-03-29T12:52:13Z</time></trkpt><trkpt lat="45.01903636535661" lon="9.028873294447582"><ele>78.5</ele><time>2026-03-29T12:52:14Z</time></trkpt><trkpt lat="45.019117985436615" lon="9.029217655454277"><ele>79.0</ele><time>2026-03-29T12:52:15Z</time></trkpt><trkpt lat="45.01919781269744" lon="9.029561900767645"><ele>78.0</ele><time>2026-03-29T12:52:16Z</time></trkpt><trkpt lat="45.01928069904911" lon="9.029908747027253"><ele>77.0</ele><time>2026-03-29T12:52:17Z</time></trkpt><trkpt lat="45.019366236621195" lon="9.030256026383853"><ele>77.0</ele><time>2026-03-29T12:52:18Z</time></trkpt><trkpt lat="45.01944169237446" lon="9.030605687978369"><ele>77.0</ele><time>2026-03-29T12:52:19Z</time></trkpt><trkpt lat="45.019525321919616" lon="9.030952595189317"><ele>77.0</ele><time>2026-03-29T12:52:20Z</time></trkpt><trkpt lat="45.019609410861584" lon="9.031302498534433"><ele>77.0</ele><time>2026-03-29T12:52:21Z</time></trkpt><trkpt lat="45.01969285330526" lon="9.031653665500256"><ele>78.0</ele><time>2026-03-29T12:52:22Z</time></trkpt><trkpt lat="45.019774634960385" lon="9.03200142720787"><ele>79.0</ele><time>2026-03-29T12:52:23Z</time></trkpt><trkpt lat="45.0198553365589" lon="9.032352613011176"><ele>79.0</ele><time>2026-03-29T12:52:24Z</time></trkpt><trkpt lat="45.019934562060605" lon="9.032700902201858"><ele>79.0</ele><time>2026-03-29T12:52:25Z</time></trkpt><trkpt lat="45.020018776768936" lon="9.033050240069183"><ele>79.5</ele><time>2026-03-29T12:52:26Z</time></trkpt><trkpt lat="45.02009285075601" lon="9.033393470303514"><ele>80.0</ele><time>2026-03-29T12:52:27Z</time></trkpt><trkpt lat="45.020172996865014" lon="9.03373899762944"><ele>80.0</ele><time>2026-03-29T12:52:28Z</time></trkpt><trkpt lat="45.020259746949655" lon="9.03408480983453"><ele>80.0</ele><time>2026-03-29T12:52:29Z</time></trkpt><trkpt lat="45.02034289756045" lon="9.034429688441323"><ele>80.0</ele><time>2026-03-29T12:52:30Z</time></trkpt><trkpt lat="45.02041857430461" lon="9.034770961172546"><ele>80.0</ele><time>2026-03-29T12:52:31Z</time></trkpt><trkpt lat="45.02050286769251" lon="9.035115379263924"><ele>80.0</ele><time>2026-03-29T12:52:32Z</time></trkpt><trkpt lat="45.020578973002024" lon="9.03545634072216"><ele>80.0</ele><time>2026-03-29T12:52:33Z</time></trkpt><trkpt lat="45.020658870728305" lon="9.035797674279074"><ele>80.5</ele><time>2026-03-29T12:52:34Z</time></trkpt><trkpt lat="45.020741901167895" lon="9.03613919624222"><ele>81.0</ele><time>2026-03-29T12:52:35Z</time></trkpt><trkpt lat="45.020821936857715" lon="9.036481577772419"><ele>81.5</ele><time>2026-03-29T12:52:36.001Z</time></trkpt><trkpt lat="45.02090207033529" lon="9.036826666866231"><ele>82.0</ele><time>2026-03-29T12:52:37.001Z</time></trkpt><trkpt lat="45.020979324823884" lon="9.037174734860136"><ele>82.5</ele><time>2026-03-29T12:52:38.001Z</time></trkpt><trkpt lat="45.02106142420599" lon="9.037527158140367"><ele>83.0</ele><time>2026-03-29T12:52:39.001Z</time></trkpt><trkpt lat="45.021144938137766" lon="9.037881680530694"><ele>83.0</ele><time>2026-03-29T12:52:40.001Z</time></trkpt><trkpt lat="45.021228669666904" lon="9.038235103403654"><ele>83.0</ele><time>2026-03-29T12:52:41.001Z</time></trkpt><trkpt lat="45.02131341124513" lon="9.038588506566914"><ele>82.5</ele><time>2026-03-29T12:52:42.001Z</time></trkpt><trkpt lat="45.021394399640855" lon="9.03894006246232"><ele>82.0</ele><time>2026-03-29T12:52:43.001Z</time></trkpt><trkpt lat="45.02147624248916" lon="9.039290618937889"><ele>81.5</ele><time>2026-03-29T12:52:44.001Z</time></trkpt><trkpt lat="45.02155668078032" lon="9.039640929911656"><ele>81.0</ele><time>2026-03-29T12:52:45.001Z</time></trkpt><trkpt lat="45.021635518994685" lon="9.039991244746387"><ele>81.0</ele><time>2026-03-29T12:52:46.001Z</time></trkpt><trkpt lat="45.02171951958329" lon="9.04034272170076"><ele>81.0</ele><time>2026-03-29T12:52:47.001Z</time></trkpt><trkpt lat="45.02180355886864" lon="9.040691407149351"><ele>81.5</ele><time>2026-03-29T12:52:48.001Z</time></trkpt><trkpt lat="45.02188636571221" lon="9.041040833299233"><ele>82.0</ele><time>2026-03-29T12:52:49.001Z</time></trkpt><trkpt lat="45.021966851666264" lon="9.041389630212871"><ele>82.0</ele><time>2026-03-29T12:52:50.001Z</time></trkpt><trkpt lat="45.022044317334554" lon="9.041740233415856"><ele>82.0</ele><time>2026-03-29T12:52:51.001Z</time></trkpt><trkpt lat="45.022120195300786" lon="9.042089902961251"><ele>82.0</ele><time>2026-03-29T12:52:52.001Z</time></trkpt><trkpt lat="45.02220175128356" lon="9.042445401660993"><ele>82.0</ele><time>2026-03-29T12:52:53.001Z</time></trkpt><trkpt lat="45.02226972523298" lon="9.04279590290787"><ele>82.0</ele><time>2026-03-29T12:52:54.001Z</time></trkpt><trkpt lat="45.02234344196411" lon="9.043149587825564"><ele>82.0</ele><time>2026-03-29T12:52:55.001Z</time></trkpt><trkpt lat="45.02241964023577" lon="9.043504200168858"><ele>82.5</ele><time>2026-03-29T12:52:56.001Z</time></trkpt><trkpt lat="45.0224900889891" lon="9.043857887552166"><ele>83.0</ele><time>2026-03-29T12:52:57.001Z</time></trkpt><trkpt lat="45.02256073632286" lon="9.044215625741911"><ele>83.0</ele><time>2026-03-29T12:52:58.001Z</time></trkpt><trkpt lat="45.02263011638353" lon="9.044577492757666"><ele>83.0</ele><time>2026-03-29T12:52:59.001Z</time></trkpt><trkpt lat="45.02269361030542" lon="9.044935756463374"><ele>82.5</ele><time>2026-03-29T12:53:00.001Z</time></trkpt><trkpt lat="45.02275771755019" lon="9.045296572001767"><ele>82.0</ele><time>2026-03-29T12:53:01.001Z</time></trkpt><trkpt lat="45.022821793270424" lon="9.04565721672255"><ele>81.0</ele><time>2026-03-29T12:53:02.001Z</time></trkpt><trkpt lat="45.02288174583249" lon="9.046016505810051"><ele>80.0</ele><time>2026-03-29T12:53:03.001Z</time></trkpt><trkpt lat="45.02294167067169" lon="9.046375007622913"><ele>78.5</ele><time>2026-03-29T12:53:04.001Z</time></trkpt><trkpt lat="45.022999261358876" lon="9.046732351762671"><ele>77.0</ele><time>2026-03-29T12:53:05.001Z</time></trkpt><trkpt lat="45.02305990898502" lon="9.047092158103997"><ele>77.0</ele><time>2026-03-29T12:53:06.001Z</time></trkpt><trkpt lat="45.02311280723869" lon="9.047452686927429"><ele>77.0</ele><time>2026-03-29T12:53:07.001Z</time></trkpt><trkpt lat="45.023166514124206" lon="9.047815538567017"><ele>77.0</ele><time>2026-03-29T12:53:08.001Z</time></trkpt><trkpt lat="45.023214971259" lon="9.048176272633915"><ele>77.0</ele><time>2026-03-29T12:53:09.001Z</time></trkpt><trkpt lat="45.023262159528876" lon="9.04853709970561"><ele>77.0</ele><time>2026-03-29T12:53:10.001Z</time></trkpt><trkpt lat="45.02330364052999" lon="9.048894668533105"><ele>77.0</ele><time>2026-03-29T12:53:11.001Z</time></trkpt><trkpt lat="45.02335409154537" lon="9.049257161888624"><ele>77.5</ele><time>2026-03-29T12:53:12.001Z</time></trkpt><trkpt lat="45.02340425096095" lon="9.049618935371752"><ele>78.0</ele><time>2026-03-29T12:53:13.001Z</time></trkpt><trkpt lat="45.023453372573755" lon="9.049980383251977"><ele>78.0</ele><time>2026-03-29T12:53:14.001Z</time></trkpt><trkpt lat="45.02349206460178" lon="9.050340135779521"><ele>78.0</ele><time>2026-03-29T12:53:15.001Z</time></trkpt><trkpt lat="45.02353594815135" lon="9.050704487190233"><ele>77.5</ele><time>2026-03-29T12:53:16.001Z</time></trkpt><trkpt lat="45.02357294106832" lon="9.051066923342598"><ele>77.0</ele><time>2026-03-29T12:53:17.001Z</time></trkpt><trkpt lat="45.02361473389454" lon="9.051431704736562"><ele>77.0</ele><time>2026-03-29T12:53:18.001Z</time></trkpt><trkpt lat="45.023650244345596" lon="9.051787985972934"><ele>77.0</ele><time>2026-03-29T12:53:19.002Z</time></trkpt><trkpt lat="45.02368135065867" lon="9.052163534415168"><ele>77.0</ele><time>2026-03-29T12:53:20.002Z</time></trkpt><trkpt lat="45.02371658197594" lon="9.05252567325"><ele>77.0</ele><time>2026-03-29T12:53:21.002Z</time></trkpt><trkpt lat="45.02374891662226" lon="9.052886940350774"><ele>77.0</ele><time>2026-03-29T12:53:22.002Z</time></trkpt><trkpt lat="45.023783770274605" lon="9.053258956902862"><ele>77.0</ele><time>2026-03-29T12:53:23.002Z</time></trkpt><trkpt lat="45.02381347158255" lon="9.053626417573524"><ele>77.5</ele><time>2026-03-29T12:53:24.002Z</time></trkpt><trkpt lat="45.02384156390435" lon="9.053993600174268"><ele>78.0</ele><time>2026-03-29T12:53:25.002Z</time></trkpt><trkpt lat="45.02387300172205" lon="9.054359979306229"><ele>77.0</ele><time>2026-03-29T12:53:26.002Z</time></trkpt><trkpt lat="45.023896480070434" lon="9.054724280241532"><ele>76.0</ele><time>2026-03-29T12:53:27.002Z</time></trkpt><trkpt lat="45.023928290234956" lon="9.055092461031327"><ele>76.0</ele><time>2026-03-29T12:53:28.002Z</time></trkpt><trkpt lat="45.02395342084099" lon="9.0554514296907"><ele>76.0</ele><time>2026-03-29T12:53:29.002Z</time></trkpt><trkpt lat="45.023974330749894" lon="9.055805452857"><ele>76.5</ele><time>2026-03-29T12:53:30.002Z</time></trkpt><trkpt lat="45.02400569907841" lon="9.056168260228537"><ele>77.0</ele><time>2026-03-29T12:53:31.002Z</time></trkpt><trkpt lat="45.02403318348466" lon="9.056526870130178"><ele>75.5</ele><time>2026-03-29T12:53:32.002Z</time></trkpt><trkpt lat="45.0240605329812" lon="9.056886273047844"><ele>74.0</ele><time>2026-03-29T12:53:33.002Z</time></trkpt><trkpt lat="45.024085037097095" lon="9.057246056763706"><ele>73.5</ele><time>2026-03-29T12:53:34.002Z</time></trkpt><trkpt lat="45.02410984956287" lon="9.05760620542114"><ele>73.0</ele><time>2026-03-29T12:53:35.002Z</time></trkpt><trkpt lat="45.02414028915616" lon="9.057972976543002"><ele>74.5</ele><time>2026-03-29T12:53:36.002Z</time></trkpt><trkpt lat="45.02416304844867" lon="9.058329606025197"><ele>76.0</ele><time>2026-03-29T12:53:37.002Z</time></trkpt><trkpt lat="45.02419672808012" lon="9.058694870818114"><ele>76.0</ele><time>2026-03-29T12:53:38.002Z</time></trkpt><trkpt lat="45.024236363475666" lon="9.059070495412206"><ele>76.0</ele><time>2026-03-29T12:53:39.002Z</time></trkpt><trkpt lat="45.02427712932279" lon="9.059452582936856"><ele>76.0</ele><time>2026-03-29T12:53:40.002Z</time></trkpt><trkpt lat="45.02430586141135" lon="9.059832435285657"><ele>76.0</ele><time>2026-03-29T12:53:41.002Z</time></trkpt><trkpt lat="45.02434072883821" lon="9.060211928947808"><ele>76.5</ele><time>2026-03-29T12:53:42.002Z</time></trkpt><trkpt lat="45.02435955460579" lon="9.060587343224986"><ele>77.0</ele><time>2026-03-29T12:53:43Z</time></trkpt><trkpt lat="45.024383930198354" lon="9.060965885860716"><ele>77.0</ele><time>2026-03-29T12:53:44Z</time></trkpt><trkpt lat="45.024413414227936" lon="9.06134066141766"><ele>77.0</ele><time>2026-03-29T12:53:45Z</time></trkpt><trkpt lat="45.02444214265785" lon="9.061712592403216"><ele>77.5</ele><time>2026-03-29T12:53:46Z</time></trkpt><trkpt lat="45.02447131164123" lon="9.062082777027353"><ele>78.0</ele><time>2026-03-29T12:53:47Z</time></trkpt><trkpt lat="45.02450608437271" lon="9.062452308397024"><ele>78.0</ele><time>2026-03-29T12:53:48Z</time></trkpt><trkpt lat="45.0245435752283" lon="9.06281912098903"><ele>78.0</ele><time>2026-03-29T12:53:49Z</time></trkpt><trkpt lat="45.02457933837743" lon="9.06318771161212"><ele>77.5</ele><time>2026-03-29T12:53:50Z</time></trkpt><trkpt lat="45.024620273787505" lon="9.06354803333877"><ele>77.0</ele><time>2026-03-29T12:53:51Z</time></trkpt><trkpt lat="45.02466404901774" lon="9.063913441029023"><ele>77.0</ele><time>2026-03-29T12:53:52Z</time></trkpt><trkpt lat="45.02470406659292" lon="9.064268336121808"><ele>77.0</ele><time>2026-03-29T12:53:53Z</time></trkpt><trkpt lat="45.02474515242953" lon="9.064626549990736"><ele>76.5</ele><time>2026-03-29T12:53:54Z</time></trkpt><trkpt lat="45.02479096235593" lon="9.064987746788415"><ele>76.0</ele><time>2026-03-29T12:53:55Z</time></trkpt><trkpt lat="45.02483684194107" lon="9.065350188347105"><ele>76.0</ele><time>2026-03-29T12:53:56Z</time></trkpt><trkpt lat="45.024877760351096" lon="9.065703170583143"><ele>76.0</ele><time>2026-03-29T12:53:57Z</time></trkpt><trkpt lat="45.02492388185815" lon="9.0660582970675"><ele>75.5</ele><time>2026-03-29T12:53:58Z</time></trkpt><trkpt lat="45.02497146647279" lon="9.066413622271218"><ele>75.0</ele><time>2026-03-29T12:53:59Z</time></trkpt><trkpt lat="45.02501848199491" lon="9.066769387755114"><ele>75.0</ele><time>2026-03-29T12:54:00Z</time></trkpt><trkpt lat="45.025067135610286" lon="9.06712625779957"><ele>75.0</ele><time>2026-03-29T12:54:01Z</time></trkpt><trkpt lat="45.02511565338727" lon="9.067482997713327"><ele>75.5</ele><time>2026-03-29T12:54:02Z</time></trkpt><trkpt lat="45.02516620578513" lon="9.06784093377685"><ele>76.0</ele><time>2026-03-29T12:54:03Z</time></trkpt><trkpt lat="45.025215192808346" lon="9.068196822652977"><ele>76.0</ele><time>2026-03-29T12:54:04Z</time></trkpt><trkpt lat="45.025266792296115" lon="9.068553778358206"><ele>76.0</ele><time>2026-03-29T12:54:05Z</time></trkpt><trkpt lat="45.025319544153085" lon="9.068907461787013"><ele>77.0</ele><time>2026-03-29T12:54:06Z</time></trkpt><trkpt lat="45.02537361694271" lon="9.069260774924647"><ele>78.0</ele><time>2026-03-29T12:54:07Z</time></trkpt><trkpt lat="45.02542545314914" lon="9.069615425596021"><ele>77.0</ele><time>2026-03-29T12:54:08Z</time></trkpt><trkpt lat="45.02547666519021" lon="9.069968857858965"><ele>76.0</ele><time>2026-03-29T12:54:09Z</time></trkpt><trkpt lat="45.02552325757249" lon="9.070317880472947"><ele>76.0</ele><time>2026-03-29T12:54:10Z</time></trkpt><trkpt lat="45.02557232625743" lon="9.07066896403752"><ele>76.0</ele><time>2026-03-29T12:54:11Z</time></trkpt><trkpt lat="45.025619956166025" lon="9.071019332244985"><ele>75.0</ele><time>2026-03-29T12:54:12Z</time></trkpt><trkpt lat="45.025669336292836" lon="9.071370425244949"><ele>74.0</ele><time>2026-03-29T12:54:13Z</time></trkpt><trkpt lat="45.02571878538416" lon="9.071724413470267"><ele>73.5</ele><time>2026-03-29T12:54:14Z</time></trkpt><trkpt lat="45.02576807877882" lon="9.072075585369006"><ele>73.0</ele><time>2026-03-29T12:54:15Z</time></trkpt><trkpt lat="45.02581801554222" lon="9.072424154912802"><ele>74.5</ele><time>2026-03-29T12:54:16Z</time></trkpt><trkpt lat="45.02587051474116" lon="9.072777928368291"><ele>76.0</ele><time>2026-03-29T12:54:17Z</time></trkpt><trkpt lat="45.0259234921256" lon="9.073133582071957"><ele>76.0</ele><time>2026-03-29T12:54:18Z</time></trkpt><trkpt lat="45.025973979047876" lon="9.073487662891411"><ele>76.0</ele><time>2026-03-29T12:54:19Z</time></trkpt><trkpt lat="45.0260218655413" lon="9.073840450467769"><ele>75.5</ele><time>2026-03-29T12:54:20Z</time></trkpt><trkpt lat="45.02607431364577" lon="9.07419608061788"><ele>75.0</ele><time>2026-03-29T12:54:21Z</time></trkpt><trkpt lat="45.02612896476668" lon="9.074553879827034"><ele>75.0</ele><time>2026-03-29T12:54:22Z</time></trkpt><trkpt lat="45.026179281073055" lon="9.074907076732107"><ele>75.0</ele><time>2026-03-29T12:54:23Z</time></trkpt><trkpt lat="45.0262250910667" lon="9.075235537979923"><ele>75.0</ele><time>2026-03-29T12:54:24Z</time></trkpt><trkpt lat="45.026274781652944" lon="9.075558495278228"><ele>75.0</ele><time>2026-03-29T12:54:25Z</time></trkpt><trkpt lat="45.02631997079093" lon="9.075881349733779"><ele>74.5</ele><time>2026-03-29T12:54:26Z</time></trkpt><trkpt lat="45.026367638960494" lon="9.076216811809088"><ele>74.0</ele><time>2026-03-29T12:54:27.001Z</time></trkpt><trkpt lat="45.02641677978973" lon="9.076556598759348"><ele>74.0</ele><time>2026-03-29T12:54:28.001Z</time></trkpt><trkpt lat="45.02646602550553" lon="9.076898384036491"><ele>74.0</ele><time>2026-03-29T12:54:29.001Z</time></trkpt><trkpt lat="45.02651526823939" lon="9.077244086044914"><ele>75.0</ele><time>2026-03-29T12:54:30.001Z</time></trkpt><trkpt lat="45.026565839212154" lon="9.07759331628761"><ele>76.0</ele><time>2026-03-29T12:54:31.001Z</time></trkpt><trkpt lat="45.026617102983934" lon="9.077945795394827"><ele>76.0</ele><time>2026-03-29T12:54:32.001Z</time></trkpt><trkpt lat="45.026656614885674" lon="9.078287955833922"><ele>76.0</ele><time>2026-03-29T12:54:33.001Z</time></trkpt><trkpt lat="45.026711662533835" lon="9.078636108794703"><ele>76.0</ele><time>2026-03-29T12:54:34.001Z</time></trkpt><trkpt lat="45.0267642027753" lon="9.078980392924237"><ele>76.0</ele><time>2026-03-29T12:54:35.001Z</time></trkpt><trkpt lat="45.02681275535655" lon="9.079315765216142"><ele>75.5</ele><time>2026-03-29T12:54:36.001Z</time></trkpt><trkpt lat="45.02686059755486" lon="9.079654524022596"><ele>75.0</ele><time>2026-03-29T12:54:37.001Z</time></trkpt><trkpt lat="45.02691151957833" lon="9.079993248976416"><ele>76.0</ele><time>2026-03-29T12:54:38.001Z</time></trkpt><trkpt lat="45.02696254122693" lon="9.080344820409252"><ele>77.0</ele><time>2026-03-29T12:54:39.001Z</time></trkpt><trkpt lat="45.027013382393946" lon="9.080701937067737"><ele>78.0</ele><time>2026-03-29T12:54:40.001Z</time></trkpt><trkpt lat="45.02706530675774" lon="9.081058333511544"><ele>79.0</ele><time>2026-03-29T12:54:41.001Z</time></trkpt><trkpt lat="45.02711615592883" lon="9.081408461749783"><ele>78.0</ele><time>2026-03-29T12:54:42.001Z</time></trkpt><trkpt lat="45.02716803279523" lon="9.081775365431337"><ele>77.0</ele><time>2026-03-29T12:54:43.001Z</time></trkpt><trkpt lat="45.02721992535535" lon="9.082141559412634"><ele>77.0</ele><time>2026-03-29T12:54:44.001Z</time></trkpt><trkpt lat="45.02727176734256" lon="9.082507545412223"><ele>77.0</ele><time>2026-03-29T12:54:45.001Z</time></trkpt><trkpt lat="45.02732381904022" lon="9.082879430037579"><ele>77.0</ele><time>2026-03-29T12:54:46.001Z</time></trkpt><trkpt lat="45.02737723628755" lon="9.083245828725774"><ele>77.0</ele><time>2026-03-29T12:54:47.001Z</time></trkpt><trkpt lat="45.02743038829808" lon="9.083613385945883"><ele>76.0</ele><time>2026-03-29T12:54:48.001Z</time></trkpt><trkpt lat="45.02748379095821" lon="9.083975295481338"><ele>75.0</ele><time>2026-03-29T12:54:49.001Z</time></trkpt><trkpt lat="45.02753591400066" lon="9.084337920227613"><ele>75.0</ele><time>2026-03-29T12:54:50.001Z</time></trkpt><trkpt lat="45.0275879555871" lon="9.084700964880023"><ele>75.0</ele><time>2026-03-29T12:54:51.001Z</time></trkpt><trkpt lat="45.027641695055166" lon="9.085063515939291"><ele>75.0</ele><time>2026-03-29T12:54:52.001Z</time></trkpt><trkpt lat="45.027695741932135" lon="9.085424795680513"><ele>75.0</ele><time>2026-03-29T12:54:53.001Z</time></trkpt><trkpt lat="45.027748692509256" lon="9.085772071529776"><ele>75.5</ele><time>2026-03-29T12:54:54.001Z</time></trkpt><trkpt lat="45.02780307235585" lon="9.086131777507333"><ele>76.0</ele><time>2026-03-29T12:54:55.001Z</time></trkpt><trkpt lat="45.02786013296819" lon="9.086494074303543"><ele>76.5</ele><time>2026-03-29T12:54:56.001Z</time></trkpt><trkpt lat="45.02791485603757" lon="9.086839759386438"><ele>77.0</ele><time>2026-03-29T12:54:57.001Z</time></trkpt><trkpt lat="45.02797238739642" lon="9.087202125602728"><ele>76.5</ele><time>2026-03-29T12:54:58.001Z</time></trkpt><trkpt lat="45.02803324663905" lon="9.087567343221723"><ele>76.0</ele><time>2026-03-29T12:54:59.001Z</time></trkpt><trkpt lat="45.02809212150228" lon="9.08791841009714"><ele>75.5</ele><time>2026-03-29T12:55:00.001Z</time></trkpt><trkpt lat="45.028150736680935" lon="9.088270995347658"><ele>75.0</ele><time>2026-03-29T12:55:01.001Z</time></trkpt><trkpt lat="45.02821140496763" lon="9.088629269357007"><ele>75.0</ele><time>2026-03-29T12:55:02.001Z</time></trkpt><trkpt lat="45.02827366129894" lon="9.088991904100961"><ele>75.0</ele><time>2026-03-29T12:55:03.001Z</time></trkpt><trkpt lat="45.028332510913444" lon="9.089347711884262"><ele>75.0</ele><time>2026-03-29T12:55:04.001Z</time></trkpt><trkpt lat="45.02839351228823" lon="9.089709683449776"><ele>75.0</ele><time>2026-03-29T12:55:05.001Z</time></trkpt><trkpt lat="45.02845477987945" lon="9.090069868373957"><ele>76.0</ele><time>2026-03-29T12:55:06.001Z</time></trkpt><trkpt lat="45.02851850039419" lon="9.090428938880835"><ele>77.0</ele><time>2026-03-29T12:55:07.001Z</time></trkpt><trkpt lat="45.02858321127477" lon="9.090784670284581"><ele>77.0</ele><time>2026-03-29T12:55:08.002Z</time></trkpt><trkpt lat="45.028649936777704" lon="9.091140209259985"><ele>77.0</ele><time>2026-03-29T12:55:09.002Z</time></trkpt><trkpt lat="45.0287127380588" lon="9.091485945438443"><ele>76.0</ele><time>2026-03-29T12:55:10.002Z</time></trkpt><trkpt lat="45.02877712420366" lon="9.091834798055594"><ele>75.0</ele><time>2026-03-29T12:55:11.002Z</time></trkpt><trkpt lat="45.02884152689888" lon="9.092196448022884"><ele>74.0</ele><time>2026-03-29T12:55:12.002Z</time></trkpt><trkpt lat="45.0289046603381" lon="9.092545754463254"><ele>73.0</ele><time>2026-03-29T12:55:13.002Z</time></trkpt><trkpt lat="45.0289697197072" lon="9.09289279223171"><ele>73.0</ele><time>2026-03-29T12:55:14.002Z</time></trkpt><trkpt lat="45.02903677273192" lon="9.093243529015702"><ele>73.0</ele><time>2026-03-29T12:55:15.002Z</time></trkpt><trkpt lat="45.02910458801105" lon="9.093597840718392"><ele>74.0</ele><time>2026-03-29T12:55:16.002Z</time></trkpt><trkpt lat="45.029169821307846" lon="9.093943855599726"><ele>75.0</ele><time>2026-03-29T12:55:17.002Z</time></trkpt><trkpt lat="45.02923767030257" lon="9.094298652234954"><ele>75.0</ele><time>2026-03-29T12:55:18.002Z</time></trkpt><trkpt lat="45.02930278608843" lon="9.094646171856342"><ele>75.0</ele><time>2026-03-29T12:55:19.002Z</time></trkpt><trkpt lat="45.029367238936885" lon="9.094998119959401"><ele>74.5</ele><time>2026-03-29T12:55:20.002Z</time></trkpt><trkpt lat="45.02943183423778" lon="9.095348608414946"><ele>74.0</ele><time>2026-03-29T12:55:21.002Z</time></trkpt><trkpt lat="45.029496720516974" lon="9.095695401361178"><ele>74.0</ele><time>2026-03-29T12:55:22.002Z</time></trkpt><trkpt lat="45.02956279733113" lon="9.096053551023928"><ele>74.0</ele><time>2026-03-29T12:55:23.002Z</time></trkpt><trkpt lat="45.02963053308021" lon="9.096420748711063"><ele>74.0</ele><time>2026-03-29T12:55:24.002Z</time></trkpt><trkpt lat="45.02969502549826" lon="9.096778235145312"><ele>74.0</ele><time>2026-03-29T12:55:25.002Z</time></trkpt><trkpt lat="45.029760086317374" lon="9.097141857747035"><ele>74.5</ele><time>2026-03-29T12:55:26.002Z</time></trkpt><trkpt lat="45.02982528111792" lon="9.097499255390094"><ele>75.0</ele><time>2026-03-29T12:55:27.002Z</time></trkpt><trkpt lat="45.0298931748912" lon="9.097861918247483"><ele>75.0</ele><time>2026-03-29T12:55:28.002Z</time></trkpt><trkpt lat="45.02996008055037" lon="9.09822444910105"><ele>75.0</ele><time>2026-03-29T12:55:29.002Z</time></trkpt><trkpt lat="45.0300214336794" lon="9.098577992005048"><ele>76.0</ele><time>2026-03-29T12:55:30.002Z</time></trkpt><trkpt lat="45.03009209822916" lon="9.09893521497219"><ele>77.0</ele><time>2026-03-29T12:55:31.002Z</time></trkpt><trkpt lat="45.03016005482664" lon="9.099294112370677"><ele>77.0</ele><time>2026-03-29T12:55:32.002Z</time></trkpt><trkpt lat="45.03022667217391" lon="9.09965263177459"><ele>77.0</ele><time>2026-03-29T12:55:33.002Z</time></trkpt><trkpt lat="45.03029366410575" lon="9.10000982191884"><ele>75.5</ele><time>2026-03-29T12:55:34.002Z</time></trkpt><trkpt lat="45.030359174981214" lon="9.100363984426604"><ele>74.0</ele><time>2026-03-29T12:55:35.002Z</time></trkpt><trkpt lat="45.030425191400255" lon="9.100720603986801"><ele>73.5</ele><time>2026-03-29T12:55:36.002Z</time></trkpt><trkpt lat="45.03049266982907" lon="9.10108295100701"><ele>73.0</ele><time>2026-03-29T12:55:37.002Z</time></trkpt><trkpt lat="45.03055969865002" lon="9.101438446865524"><ele>73.5</ele><time>2026-03-29T12:55:38.002Z</time></trkpt><trkpt lat="45.030625884434045" lon="9.1017985245592"><ele>74.0</ele><time>2026-03-29T12:55:39.002Z</time></trkpt><trkpt lat="45.030692580232696" lon="9.102154138915882"><ele>74.0</ele><time>2026-03-29T12:55:40.002Z</time></trkpt><trkpt lat="45.030758545785446" lon="9.102512216219258"><ele>74.0</ele><time>2026-03-29T12:55:41.002Z</time></trkpt><trkpt lat="45.0308258889499" lon="9.102872579104043"><ele>74.5</ele><time>2026-03-29T12:55:42.002Z</time></trkpt><trkpt lat="45.03089468084954" lon="9.103234811428823"><ele>75.0</ele><time>2026-03-29T12:55:43.002Z</time></trkpt><trkpt lat="45.030958122031755" lon="9.103585107598589"><ele>74.5</ele><time>2026-03-29T12:55:44.002Z</time></trkpt><trkpt lat="45.031025429990294" lon="9.103946696108688"><ele>74.0</ele><time>2026-03-29T12:55:45.002Z</time></trkpt><trkpt lat="45.03109221081275" lon="9.104303334507692"><ele>74.0</ele><time>2026-03-29T12:55:46.002Z</time></trkpt><trkpt lat="45.03115948268825" lon="9.104656873055255"><ele>74.0</ele><time>2026-03-29T12:55:47.002Z</time></trkpt><trkpt lat="45.03122575473114" lon="9.105011245384054"><ele>75.0</ele><time>2026-03-29T12:55:48.002Z</time></trkpt><trkpt lat="45.031291367052674" lon="9.105365783771859"><ele>76.0</ele><time>2026-03-29T12:55:49Z</time></trkpt><trkpt lat="45.031356670904124" lon="9.10572472718327"><ele>75.0</ele><time>2026-03-29T12:55:50Z</time></trkpt><trkpt lat="45.03142192321295" lon="9.106080532120648"><ele>74.0</ele><time>2026-03-29T12:55:51Z</time></trkpt><trkpt lat="45.031486953099815" lon="9.106433978909337"><ele>74.0</ele><time>2026-03-29T12:55:52Z</time></trkpt><trkpt lat="45.0315523126056" lon="9.106788691063354"><ele>74.0</ele><time>2026-03-29T12:55:53Z</time></trkpt><trkpt lat="45.031621954390964" lon="9.107149419504754"><ele>75.5</ele><time>2026-03-29T12:55:54Z</time></trkpt><trkpt lat="45.031692378928874" lon="9.10751039227795"><ele>77.0</ele><time>2026-03-29T12:55:55Z</time></trkpt><trkpt lat="45.03175783572189" lon="9.10784791603333"><ele>77.0</ele><time>2026-03-29T12:55:56Z</time></trkpt><trkpt lat="45.03182412251991" lon="9.108212471549574"><ele>77.0</ele><time>2026-03-29T12:55:57Z</time></trkpt><trkpt lat="45.03189254336685" lon="9.1085666440337"><ele>76.5</ele><time>2026-03-29T12:55:58Z</time></trkpt><trkpt lat="45.03195659200433" lon="9.10891683888508"><ele>76.0</ele><time>2026-03-29T12:55:59Z</time></trkpt><trkpt lat="45.0320170896169" lon="9.109264822798714"><ele>76.0</ele><time>2026-03-29T12:56:00Z</time></trkpt><trkpt lat="45.032077754335006" lon="9.109610738064902"><ele>76.0</ele><time>2026-03-29T12:56:01Z</time></trkpt><trkpt lat="45.03214627436727" lon="9.109969475000025"><ele>76.5</ele><time>2026-03-29T12:56:02Z</time></trkpt><trkpt lat="45.032209246864575" lon="9.110317804596308"><ele>77.0</ele><time>2026-03-29T12:56:03Z</time></trkpt><trkpt lat="45.0322747482223" lon="9.110670796718745"><ele>76.5</ele><time>2026-03-29T12:56:04Z</time></trkpt><trkpt lat="45.032339606274654" lon="9.111020433347838"><ele>76.0</ele><time>2026-03-29T12:56:05Z</time></trkpt><trkpt lat="45.03240409861877" lon="9.1113696029721"><ele>76.0</ele><time>2026-03-29T12:56:06Z</time></trkpt><trkpt lat="45.032470524085376" lon="9.111720150726699"><ele>76.0</ele><time>2026-03-29T12:56:07Z</time></trkpt><trkpt lat="45.0325342269587" lon="9.112067796606357"><ele>78.5</ele><time>2026-03-29T12:56:08Z</time></trkpt><trkpt lat="45.032598365828214" lon="9.1124128074824"><ele>81.0</ele><time>2026-03-29T12:56:09Z</time></trkpt><trkpt lat="45.03266253037208" lon="9.112757156052297"><ele>81.0</ele><time>2026-03-29T12:56:10Z</time></trkpt><trkpt lat="45.032726475292016" lon="9.113099736935999"><ele>81.0</ele><time>2026-03-29T12:56:11Z</time></trkpt><trkpt lat="45.03278984698665" lon="9.113452869764417"><ele>79.5</ele><time>2026-03-29T12:56:12Z</time></trkpt><trkpt lat="45.032856075855534" lon="9.11379647281311"><ele>78.0</ele><time>2026-03-29T12:56:13.001Z</time></trkpt><trkpt lat="45.0329208108598" lon="9.114142774346744"><ele>77.0</ele><time>2026-03-29T12:56:14.001Z</time></trkpt><trkpt lat="45.03298478711361" lon="9.11448957212875"><ele>76.0</ele><time>2026-03-29T12:56:15.001Z</time></trkpt><trkpt lat="45.03304790426505" lon="9.114835146686938"><ele>76.5</ele><time>2026-03-29T12:56:16.001Z</time></trkpt><trkpt lat="45.03311159066845" lon="9.115185560953952"><ele>77.0</ele><time>2026-03-29T12:56:17.001Z</time></trkpt><trkpt lat="45.033176577019184" lon="9.115538349697093"><ele>77.0</ele><time>2026-03-29T12:56:18.001Z</time></trkpt><trkpt lat="45.03324351851217" lon="9.115890470286033"><ele>77.0</ele><time>2026-03-29T12:56:19.001Z</time></trkpt><trkpt lat="45.03330657945206" lon="9.116241129565243"><ele>77.5</ele><time>2026-03-29T12:56:20.001Z</time></trkpt><trkpt lat="45.03337743278429" lon="9.116595573406494"><ele>78.0</ele><time>2026-03-29T12:56:21.001Z</time></trkpt><trkpt lat="45.03344702323987" lon="9.116951097882378"><ele>78.0</ele><time>2026-03-29T12:56:22.001Z</time></trkpt><trkpt lat="45.03351013078547" lon="9.117302540181978"><ele>78.0</ele><time>2026-03-29T12:56:23.001Z</time></trkpt><trkpt lat="45.03356685989168" lon="9.117650689321053"><ele>78.0</ele><time>2026-03-29T12:56:24.001Z</time></trkpt><trkpt lat="45.03363269563829" lon="9.118004392362014"><ele>78.0</ele><time>2026-03-29T12:56:25.001Z</time></trkpt><trkpt lat="45.033704021161405" lon="9.11835818400404"><ele>77.0</ele><time>2026-03-29T12:56:26.001Z</time></trkpt><trkpt lat="45.0337736626376" lon="9.118712340612296"><ele>76.0</ele><time>2026-03-29T12:56:27.001Z</time></trkpt><trkpt lat="45.03383729369746" lon="9.119063842245057"><ele>76.5</ele><time>2026-03-29T12:56:28.001Z</time></trkpt><trkpt lat="45.033904047215785" lon="9.119417674264936"><ele>77.0</ele><time>2026-03-29T12:56:29.001Z</time></trkpt><trkpt lat="45.03397145624231" lon="9.119774098320667"><ele>78.0</ele><time>2026-03-29T12:56:30.001Z</time></trkpt><trkpt lat="45.034037350124144" lon="9.120129896826224"><ele>79.0</ele><time>2026-03-29T12:56:31.001Z</time></trkpt><trkpt lat="45.034102847437595" lon="9.120484140171996"><ele>79.0</ele><time>2026-03-29T12:56:32.001Z</time></trkpt><trkpt lat="45.03418022154473" lon="9.120841700199053"><ele>79.0</ele><time>2026-03-29T12:56:33.001Z</time></trkpt><trkpt lat="45.034253840427986" lon="9.121196379712414"><ele>79.0</ele><time>2026-03-29T12:56:34.001Z</time></trkpt><trkpt lat="45.034331139316436" lon="9.12155636953009"><ele>79.0</ele><time>2026-03-29T12:56:35.001Z</time></trkpt><trkpt lat="45.034407545961884" lon="9.121914949284712"><ele>78.5</ele><time>2026-03-29T12:56:36.001Z</time></trkpt><trkpt lat="45.0344887504914" lon="9.12227548266108"><ele>78.0</ele><time>2026-03-29T12:56:37.001Z</time></trkpt><trkpt lat="45.03457017960918" lon="9.12263435209"><ele>78.0</ele><time>2026-03-29T12:56:38.001Z</time></trkpt><trkpt lat="45.03464722300452" lon="9.122994827921083"><ele>78.0</ele><time>2026-03-29T12:56:39.001Z</time></trkpt><trkpt lat="45.03473097279491" lon="9.123350727425484"><ele>78.0</ele><time>2026-03-29T12:56:40.001Z</time></trkpt><trkpt lat="45.03481717048749" lon="9.12370629818205"><ele>78.0</ele><time>2026-03-29T12:56:41.001Z</time></trkpt><trkpt lat="45.03490517872689" lon="9.124061214789249"><ele>77.5</ele><time>2026-03-29T12:56:42.001Z</time></trkpt><trkpt lat="45.03499407883968" lon="9.124415226134499"><ele>77.0</ele><time>2026-03-29T12:56:43.001Z</time></trkpt><trkpt lat="45.03508758431859" lon="9.12477193878338"><ele>77.5</ele><time>2026-03-29T12:56:44.001Z</time></trkpt><trkpt lat="45.03517908277062" lon="9.125126662560683"><ele>78.0</ele><time>2026-03-29T12:56:45.001Z</time></trkpt><trkpt lat="45.03526767244737" lon="9.125481749130348"><ele>77.5</ele><time>2026-03-29T12:56:46.001Z</time></trkpt><trkpt lat="45.035363119077054" lon="9.125835028776798"><ele>77.0</ele><time>2026-03-29T12:56:47.001Z</time></trkpt><trkpt lat="45.035459995684555" lon="9.126186198877699"><ele>77.0</ele><time>2026-03-29T12:56:48.001Z</time></trkpt><trkpt lat="45.03555831063377" lon="9.126535495025013"><ele>77.0</ele><time>2026-03-29T12:56:49.001Z</time></trkpt><trkpt lat="45.0356546332068" lon="9.126885901276792"><ele>77.0</ele><time>2026-03-29T12:56:50.001Z</time></trkpt><trkpt lat="45.03575514706823" lon="9.127238473814055"><ele>77.0</ele><time>2026-03-29T12:56:51.001Z</time></trkpt><trkpt lat="45.03585633412435" lon="9.127586510176785"><ele>76.0</ele><time>2026-03-29T12:56:52.001Z</time></trkpt><trkpt lat="45.03595752131834" lon="9.127931657316392"><ele>75.0</ele><time>2026-03-29T12:56:53.001Z</time></trkpt><trkpt lat="45.03606267420117" lon="9.128277587707768"><ele>74.0</ele><time>2026-03-29T12:56:54.001Z</time></trkpt><trkpt lat="45.036165496830684" lon="9.128625023397126"><ele>73.0</ele><time>2026-03-29T12:56:55.001Z</time></trkpt><trkpt lat="45.036270314293795" lon="9.128972740283748"><ele>73.0</ele><time>2026-03-29T12:56:56.001Z</time></trkpt><trkpt lat="45.03637434324387" lon="9.129319872550665"><ele>73.0</ele><time>2026-03-29T12:56:57.001Z</time></trkpt><trkpt lat="45.0364770766656" lon="9.129666553585482"><ele>74.0</ele><time>2026-03-29T12:56:58.001Z</time></trkpt><trkpt lat="45.03657872714809" lon="9.130013743467723"><ele>75.0</ele><time>2026-03-29T12:56:59.002Z</time></trkpt><trkpt lat="45.03668565041001" lon="9.130359876107942"><ele>75.5</ele><time>2026-03-29T12:57:00.002Z</time></trkpt><trkpt lat="45.03678670076491" lon="9.130707569960608"><ele>76.0</ele><time>2026-03-29T12:57:01.002Z</time></trkpt><trkpt lat="45.036890666158705" lon="9.13105517450143"><ele>76.0</ele><time>2026-03-29T12:57:02.002Z</time></trkpt><trkpt lat="45.03699666246362" lon="9.131400106081777"><ele>76.0</ele><time>2026-03-29T12:57:03.002Z</time></trkpt><trkpt lat="45.03710598979671" lon="9.131740309638712"><ele>76.0</ele><time>2026-03-29T12:57:04.002Z</time></trkpt><trkpt lat="45.037208471752386" lon="9.132091066400863"><ele>76.0</ele><time>2026-03-29T12:57:05.002Z</time></trkpt><trkpt lat="45.03730515601783" lon="9.13243965896431"><ele>76.0</ele><time>2026-03-29T12:57:06.002Z</time></trkpt><trkpt lat="45.03740925074917" lon="9.132790295280826"><ele>76.0</ele><time>2026-03-29T12:57:07.002Z</time></trkpt><trkpt lat="45.03751336853074" lon="9.133141240611701"><ele>76.0</ele><time>2026-03-29T12:57:08.002Z</time></trkpt><trkpt lat="45.0376164670235" lon="9.133490999298798"><ele>76.0</ele><time>2026-03-29T12:57:09.002Z</time></trkpt><trkpt lat="45.037721608934696" lon="9.133840773722095"><ele>76.5</ele><time>2026-03-29T12:57:10.002Z</time></trkpt><trkpt lat="45.03782383885401" lon="9.134190623654153"><ele>77.0</ele><time>2026-03-29T12:57:11.002Z</time></trkpt><trkpt lat="45.037930919924655" lon="9.134541174026893"><ele>77.0</ele><time>2026-03-29T12:57:12.002Z</time></trkpt><trkpt lat="45.038038389004086" lon="9.134869592645833"><ele>77.0</ele><time>2026-03-29T12:57:13.002Z</time></trkpt><trkpt lat="45.03814565138575" lon="9.135228652001572"><ele>76.5</ele><time>2026-03-29T12:57:14.002Z</time></trkpt><trkpt lat="45.038243304559465" lon="9.135588950579253"><ele>76.0</ele><time>2026-03-29T12:57:15.002Z</time></trkpt><trkpt lat="45.03834600735465" lon="9.135936134152395"><ele>75.5</ele><time>2026-03-29T12:57:16.002Z</time></trkpt><trkpt lat="45.038446319099705" lon="9.136281409517423"><ele>75.0</ele><time>2026-03-29T12:57:17.002Z</time></trkpt><trkpt lat="45.03855117654204" lon="9.136626962104389"><ele>75.0</ele><time>2026-03-29T12:57:18.002Z</time></trkpt><trkpt lat="45.03865402134636" lon="9.136971498884485"><ele>75.0</ele><time>2026-03-29T12:57:19.002Z</time></trkpt><trkpt lat="45.03875575111634" lon="9.137318410556299"><ele>74.5</ele><time>2026-03-29T12:57:20.002Z</time></trkpt><trkpt lat="45.03885782448176" lon="9.137661221191792"><ele>74.0</ele><time>2026-03-29T12:57:21.002Z</time></trkpt><trkpt lat="45.038960299508304" lon="9.138001382197498"><ele>73.5</ele><time>2026-03-29T12:57:22.002Z</time></trkpt><trkpt lat="45.039061667019475" lon="9.138337190057019"><ele>73.0</ele><time>2026-03-29T12:57:23.002Z</time></trkpt><trkpt lat="45.03915975410597" lon="9.13867160939986"><ele>73.0</ele><time>2026-03-29T12:57:24.002Z</time></trkpt><trkpt lat="45.039255545804366" lon="9.139006144813337"><ele>73.0</ele><time>2026-03-29T12:57:25.002Z</time></trkpt><trkpt lat="45.03935951039584" lon="9.13934301461333"><ele>73.0</ele><time>2026-03-29T12:57:26.002Z</time></trkpt><trkpt lat="45.03945804269646" lon="9.13967734168342"><ele>73.0</ele><time>2026-03-29T12:57:27.002Z</time></trkpt><trkpt lat="45.03955626023997" lon="9.14000919370834"><ele>73.0</ele><time>2026-03-29T12:57:28.002Z</time></trkpt><trkpt lat="45.03965060852416" lon="9.140341561066588"><ele>73.0</ele><time>2026-03-29T12:57:29.002Z</time></trkpt><trkpt lat="45.03974893615614" lon="9.140674203457749"><ele>75.0</ele><time>2026-03-29T12:57:30.002Z</time></trkpt><trkpt lat="45.039849299509314" lon="9.141009738562708"><ele>77.0</ele><time>2026-03-29T12:57:31.002Z</time></trkpt><trkpt lat="45.03995134465084" lon="9.141349292734045"><ele>75.0</ele><time>2026-03-29T12:57:32.002Z</time></trkpt><trkpt lat="45.040049926915714" lon="9.141689785666506"><ele>73.0</ele><time>2026-03-29T12:57:33.002Z</time></trkpt><trkpt lat="45.040151518755344" lon="9.142034400739075"><ele>73.0</ele><time>2026-03-29T12:57:34.002Z</time></trkpt><trkpt lat="45.04025652736245" lon="9.142379290820802"><ele>73.0</ele><time>2026-03-29T12:57:35.002Z</time></trkpt><trkpt lat="45.040358766610886" lon="9.142722274549172"><ele>73.5</ele><time>2026-03-29T12:57:36.002Z</time></trkpt><trkpt lat="45.040460627796534" lon="9.143063133600185"><ele>74.0</ele><time>2026-03-29T12:57:37.002Z</time></trkpt><trkpt lat="45.040556179978644" lon="9.143403661705648"><ele>74.0</ele><time>2026-03-29T12:57:38.002Z</time></trkpt><trkpt lat="45.04066493451394" lon="9.14375421851824"><ele>74.0</ele><time>2026-03-29T12:57:39.002Z</time></trkpt><trkpt lat="45.04077012063907" lon="9.144098711680721"><ele>73.5</ele><time>2026-03-29T12:57:40.002Z</time></trkpt><trkpt lat="45.040868363421055" lon="9.144439023264878"><ele>73.0</ele><time>2026-03-29T12:57:41.002Z</time></trkpt><trkpt lat="45.04096946522842" lon="9.144779374700379"><ele>73.5</ele><time>2026-03-29T12:57:42.002Z</time></trkpt><trkpt lat="45.041072644846416" lon="9.145119462722057"><ele>74.0</ele><time>2026-03-29T12:57:43.003Z</time></trkpt><trkpt lat="45.041169688425526" lon="9.145457319837277"><ele>74.0</ele><time>2026-03-29T12:57:44.003Z</time></trkpt><trkpt lat="45.041272354844246" lon="9.145796832858016"><ele>74.0</ele><time>2026-03-29T12:57:45.003Z</time></trkpt><trkpt lat="45.041371246891615" lon="9.146135116419728"><ele>74.0</ele><time>2026-03-29T12:57:46.003Z</time></trkpt><trkpt lat="45.04147644690013" lon="9.146474952445612"><ele>74.0</ele><time>2026-03-29T12:57:47.003Z</time></trkpt><trkpt lat="45.041569896246315" lon="9.14680901853054"><ele>74.0</ele><time>2026-03-29T12:57:48.003Z</time></trkpt><trkpt lat="45.04166358098358" lon="9.147144694997941"><ele>74.0</ele><time>2026-03-29T12:57:49.003Z</time></trkpt><trkpt lat="45.04176141920623" lon="9.147477118949507"><ele>74.0</ele><time>2026-03-29T12:57:50.003Z</time></trkpt><trkpt lat="45.04186562546529" lon="9.147816790730129"><ele>74.0</ele><time>2026-03-29T12:57:51.003Z</time></trkpt><trkpt lat="45.041972550631606" lon="9.148158285019834"><ele>74.0</ele><time>2026-03-29T12:57:52.003Z</time></trkpt><trkpt lat="45.042066020812285" lon="9.14849360588533"><ele>74.0</ele><time>2026-03-29T12:57:53.003Z</time></trkpt><trkpt lat="45.04216368894177" lon="9.148829792318974"><ele>74.0</ele><time>2026-03-29T12:57:54.003Z</time></trkpt><trkpt lat="45.042263111334876" lon="9.149164292092848"><ele>74.0</ele><time>2026-03-29T12:57:55.001Z</time></trkpt><trkpt lat="45.04236810709227" lon="9.149503046966823"><ele>74.0</ele><time>2026-03-29T12:57:56.001Z</time></trkpt><trkpt lat="45.04246645281584" lon="9.149838214677404"><ele>74.0</ele><time>2026-03-29T12:57:57.001Z</time></trkpt><trkpt lat="45.042569582518674" lon="9.150185111606886"><ele>74.5</ele><time>2026-03-29T12:57:58.001Z</time></trkpt><trkpt lat="45.042671915570644" lon="9.150523604502855"><ele>75.0</ele><time>2026-03-29T12:57:59.001Z</time></trkpt><trkpt lat="45.04277299792856" lon="9.1508624049155"><ele>74.0</ele><time>2026-03-29T12:58:00.001Z</time></trkpt><trkpt lat="45.04287520186871" lon="9.151205399911582"><ele>73.0</ele><time>2026-03-29T12:58:01.001Z</time></trkpt><trkpt lat="45.042979742323276" lon="9.151549597591087"><ele>72.5</ele><time>2026-03-29T12:58:02.001Z</time></trkpt><trkpt lat="45.04308519557291" lon="9.151894723371965"><ele>72.0</ele><time>2026-03-29T12:58:03.001Z</time></trkpt><trkpt lat="45.04318552743595" lon="9.1522385754191"><ele>72.0</ele><time>2026-03-29T12:58:04.001Z</time></trkpt><trkpt lat="45.04328624590598" lon="9.152581652959604"><ele>72.0</ele><time>2026-03-29T12:58:05.001Z</time></trkpt><trkpt lat="45.04339194213546" lon="9.152929012273468"><ele>73.5</ele><time>2026-03-29T12:58:06.001Z</time></trkpt><trkpt lat="45.04349385386862" lon="9.153276740944495"><ele>75.0</ele><time>2026-03-29T12:58:07.001Z</time></trkpt><trkpt lat="45.043593755719044" lon="9.15362421586388"><ele>75.0</ele><time>2026-03-29T12:58:08.001Z</time></trkpt><trkpt lat="45.04369729988041" lon="9.15397350359612"><ele>75.0</ele><time>2026-03-29T12:58:09.001Z</time></trkpt><trkpt lat="45.043804479731236" lon="9.154325174555701"><ele>74.0</ele><time>2026-03-29T12:58:10.001Z</time></trkpt><trkpt lat="45.043907972101636" lon="9.154674933100623"><ele>73.0</ele><time>2026-03-29T12:58:11.001Z</time></trkpt><trkpt lat="45.044010379377255" lon="9.155022520510053"><ele>73.0</ele><time>2026-03-29T12:58:12.001Z</time></trkpt><trkpt lat="45.04411131982944" lon="9.155370907342936"><ele>73.0</ele><time>2026-03-29T12:58:13.001Z</time></trkpt><trkpt lat="45.044217917159514" lon="9.15572030173893"><ele>73.0</ele><time>2026-03-29T12:58:14.001Z</time></trkpt><trkpt lat="45.04432583464777" lon="9.156069062139956"><ele>73.0</ele><time>2026-03-29T12:58:15.001Z</time></trkpt><trkpt lat="45.04443029441159" lon="9.156421296223966"><ele>72.5</ele><time>2026-03-29T12:58:16.001Z</time></trkpt><trkpt lat="45.04453133857846" lon="9.156762881745871"><ele>72.0</ele><time>2026-03-29T12:58:17.001Z</time></trkpt><trkpt lat="45.04463152100101" lon="9.157102308566332"><ele>70.5</ele><time>2026-03-29T12:58:18.001Z</time></trkpt><trkpt lat="45.044735509060374" lon="9.157443280571355"><ele>69.0</ele><time>2026-03-29T12:58:19.001Z</time></trkpt><trkpt lat="45.04483727323045" lon="9.157782424496885"><ele>69.0</ele><time>2026-03-29T12:58:20.001Z</time></trkpt><trkpt lat="45.04494115989966" lon="9.158120282268323"><ele>69.0</ele><time>2026-03-29T12:58:21.001Z</time></trkpt><trkpt lat="45.045035643772515" lon="9.158455452158641"><ele>70.5</ele><time>2026-03-29T12:58:22.001Z</time></trkpt><trkpt lat="45.04514187276964" lon="9.15879725522861"><ele>72.0</ele><time>2026-03-29T12:58:23.001Z</time></trkpt><trkpt lat="45.04523755594786" lon="9.159140042219548"><ele>72.0</ele><time>2026-03-29T12:58:24.001Z</time></trkpt><trkpt lat="45.045336930419836" lon="9.159484927872077"><ele>72.0</ele><time>2026-03-29T12:58:25.001Z</time></trkpt><trkpt lat="45.04543780702666" lon="9.159829669144987"><ele>72.5</ele><time>2026-03-29T12:58:26.001Z</time></trkpt><trkpt lat="45.04554141912279" lon="9.160178669572772"><ele>73.0</ele><time>2026-03-29T12:58:27.001Z</time></trkpt><trkpt lat="45.04564947373371" lon="9.16051216890848"><ele>71.0</ele><time>2026-03-29T12:58:28.001Z</time></trkpt><trkpt lat="45.04574823695899" lon="9.160862981484607"><ele>69.0</ele><time>2026-03-29T12:58:29.001Z</time></trkpt><trkpt lat="45.04585150355105" lon="9.161209302176866"><ele>68.5</ele><time>2026-03-29T12:58:30.001Z</time></trkpt><trkpt lat="45.045951754422084" lon="9.161553389580376"><ele>68.0</ele><time>2026-03-29T12:58:31.001Z</time></trkpt><trkpt lat="45.0460529503479" lon="9.161897588269921"><ele>68.0</ele><time>2026-03-29T12:58:32.001Z</time></trkpt><trkpt lat="45.04615587575298" lon="9.162245328595068"><ele>68.0</ele><time>2026-03-29T12:58:33.001Z</time></trkpt><trkpt lat="45.04625916502731" lon="9.16259147333549"><ele>69.0</ele><time>2026-03-29T12:58:34.001Z</time></trkpt><trkpt lat="45.04635851772269" lon="9.162940056925239"><ele>70.0</ele><time>2026-03-29T12:58:35.001Z</time></trkpt><trkpt lat="45.04646126284989" lon="9.16328128298853"><ele>71.0</ele><time>2026-03-29T12:58:36.001Z</time></trkpt><trkpt lat="45.04656207386715" lon="9.163626978824796"><ele>72.0</ele><time>2026-03-29T12:58:37.001Z</time></trkpt><trkpt lat="45.04666239019884" lon="9.16397163897936"><ele>72.5</ele><time>2026-03-29T12:58:38.001Z</time></trkpt><trkpt lat="45.04676617087973" lon="9.164320473690967"><ele>73.0</ele><time>2026-03-29T12:58:39.001Z</time></trkpt><trkpt lat="45.04686849390161" lon="9.164668139886588"><ele>72.5</ele><time>2026-03-29T12:58:40.001Z</time></trkpt><trkpt lat="45.04697161626094" lon="9.16501649501505"><ele>72.0</ele><time>2026-03-29T12:58:41.001Z</time></trkpt><trkpt lat="45.04707536938557" lon="9.165365505518452"><ele>72.0</ele><time>2026-03-29T12:58:42.001Z</time></trkpt><trkpt lat="45.0471827745192" lon="9.165716301926397"><ele>72.0</ele><time>2026-03-29T12:58:43.001Z</time></trkpt><trkpt lat="45.04728707865133" lon="9.166064729789117"><ele>72.0</ele><time>2026-03-29T12:58:44.001Z</time></trkpt><trkpt lat="45.04739241289492" lon="9.166414003946178"><ele>72.0</ele><time>2026-03-29T12:58:45.001Z</time></trkpt><trkpt lat="45.04749737588353" lon="9.16676484324399"><ele>72.5</ele><time>2026-03-29T12:58:46.001Z</time></trkpt><trkpt lat="45.04760138506532" lon="9.167117708800633"><ele>73.0</ele><time>2026-03-29T12:58:47.001Z</time></trkpt><trkpt lat="45.04770220871615" lon="9.167467999980909"><ele>71.5</ele><time>2026-03-29T12:58:48.001Z</time></trkpt><trkpt lat="45.04780389161115" lon="9.167819018403758"><ele>70.0</ele><time>2026-03-29T12:58:49.001Z</time></trkpt><trkpt lat="45.04791004753845" lon="9.168169786373513"><ele>70.0</ele><time>2026-03-29T12:58:50.001Z</time></trkpt><trkpt lat="45.04801577471728" lon="9.168521222615484"><ele>70.0</ele><time>2026-03-29T12:58:51.001Z</time></trkpt><trkpt lat="45.04812115014935" lon="9.16887057769747"><ele>70.0</ele><time>2026-03-29T12:58:52.001Z</time></trkpt><trkpt lat="45.04822451354667" lon="9.169219823914013"><ele>70.0</ele><time>2026-03-29T12:58:53.001Z</time></trkpt><trkpt lat="45.04832744493467" lon="9.169570214611861"><ele>70.0</ele><time>2026-03-29T12:58:54.001Z</time></trkpt><trkpt lat="45.048430142412634" lon="9.169916972521609"><ele>70.0</ele><time>2026-03-29T12:58:55.001Z</time></trkpt><trkpt lat="45.04853354509011" lon="9.170262656599188"><ele>70.0</ele><time>2026-03-29T12:58:56.001Z</time></trkpt><trkpt lat="45.048638122271385" lon="9.170607771747326"><ele>70.0</ele><time>2026-03-29T12:58:57.001Z</time></trkpt><trkpt lat="45.04873639902802" lon="9.170949252135708"><ele>69.5</ele><time>2026-03-29T12:58:58.001Z</time></trkpt><trkpt lat="45.04883561610372" lon="9.171288994292901"><ele>69.0</ele><time>2026-03-29T12:58:59.001Z</time></trkpt><trkpt lat="45.04893602709601" lon="9.171629084868622"><ele>68.5</ele><time>2026-03-29T12:59:00.001Z</time></trkpt><trkpt lat="45.04903060127338" lon="9.171966607156271"><ele>68.0</ele><time>2026-03-29T12:59:01.001Z</time></trkpt><trkpt lat="45.04913690848937" lon="9.172308180587665"><ele>68.5</ele><time>2026-03-29T12:59:02.001Z</time></trkpt><trkpt lat="45.04924233000414" lon="9.172647051360624"><ele>69.0</ele><time>2026-03-29T12:59:03.001Z</time></trkpt><trkpt lat="45.04934135648232" lon="9.172983236255169"><ele>69.0</ele><time>2026-03-29T12:59:04.001Z</time></trkpt><trkpt lat="45.049438329984206" lon="9.173320630389076"><ele>69.0</ele><time>2026-03-29T12:59:05.001Z</time></trkpt><trkpt lat="45.049534955506445" lon="9.173659703468887"><ele>69.0</ele><time>2026-03-29T12:59:06.001Z</time></trkpt><trkpt lat="45.049634645324794" lon="9.17400341340819"><ele>69.0</ele><time>2026-03-29T12:59:07.001Z</time></trkpt><trkpt lat="45.0497411039682" lon="9.174352079377899"><ele>68.5</ele><time>2026-03-29T12:59:08.002Z</time></trkpt><trkpt lat="45.049843528290026" lon="9.17469732429808"><ele>68.0</ele><time>2026-03-29T12:59:09.002Z</time></trkpt><trkpt lat="45.04994713179333" lon="9.17504038144334"><ele>68.0</ele><time>2026-03-29T12:59:10.002Z</time></trkpt><trkpt lat="45.050048355417104" lon="9.175380884743015"><ele>68.0</ele><time>2026-03-29T12:59:11.002Z</time></trkpt><trkpt lat="45.05015046856072" lon="9.175722751338073"><ele>67.0</ele><time>2026-03-29T12:59:12.002Z</time></trkpt><trkpt lat="45.050249628036745" lon="9.176062202181011"><ele>66.0</ele><time>2026-03-29T12:59:13.002Z</time></trkpt><trkpt lat="45.050350259272655" lon="9.176403122477693"><ele>66.0</ele><time>2026-03-29T12:59:14.002Z</time></trkpt><trkpt lat="45.050446493627014" lon="9.176741534627759"><ele>66.0</ele><time>2026-03-29T12:59:15.002Z</time></trkpt><trkpt lat="45.05054715711094" lon="9.177080478634233"><ele>66.0</ele><time>2026-03-29T12:59:16.002Z</time></trkpt><trkpt lat="45.050651221754585" lon="9.177420866645788"><ele>66.0</ele><time>2026-03-29T12:59:17.002Z</time></trkpt><trkpt lat="45.05074722170886" lon="9.177759860835447"><ele>66.0</ele><time>2026-03-29T12:59:18.002Z</time></trkpt><trkpt lat="45.05085103880442" lon="9.178099024896913"><ele>66.0</ele><time>2026-03-29T12:59:19.002Z</time></trkpt><trkpt lat="45.05095136806126" lon="9.178439005189638"><ele>66.0</ele><time>2026-03-29T12:59:20.002Z</time></trkpt><trkpt lat="45.051047794379066" lon="9.178777063737495"><ele>66.0</ele><time>2026-03-29T12:59:21.002Z</time></trkpt><trkpt lat="45.05115377080835" lon="9.179117467255573"><ele>66.0</ele><time>2026-03-29T12:59:22.002Z</time></trkpt><trkpt lat="45.051253120406415" lon="9.179456941001211"><ele>66.0</ele><time>2026-03-29T12:59:23.002Z</time></trkpt><trkpt lat="45.05135371389854" lon="9.179795851883688"><ele>66.0</ele><time>2026-03-29T12:59:24.002Z</time></trkpt><trkpt lat="45.051454826066305" lon="9.180136780480188"><ele>66.0</ele><time>2026-03-29T12:59:25.002Z</time></trkpt><trkpt lat="45.05155299209945" lon="9.180476717152247"><ele>66.5</ele><time>2026-03-29T12:59:26.002Z</time></trkpt><trkpt lat="45.051655700914814" lon="9.180818932875448"><ele>67.0</ele><time>2026-03-29T12:59:27.002Z</time></trkpt><trkpt lat="45.05175812075679" lon="9.181161922423538"><ele>67.0</ele><time>2026-03-29T12:59:28.002Z</time></trkpt><trkpt lat="45.05185514254948" lon="9.181502045746265"><ele>67.0</ele><time>2026-03-29T12:59:29.002Z</time></trkpt><trkpt lat="45.05195352014201" lon="9.181843492028124"><ele>67.0</ele><time>2026-03-29T12:59:30.002Z</time></trkpt><trkpt lat="45.05205833456575" lon="9.182186270388051"><ele>67.0</ele><time>2026-03-29T12:59:31.002Z</time></trkpt><trkpt lat="45.05216104526656" lon="9.182528196149724"><ele>66.5</ele><time>2026-03-29T12:59:32.002Z</time></trkpt><trkpt lat="45.052270370134" lon="9.182870389468308"><ele>66.0</ele><time>2026-03-29T12:59:33.002Z</time></trkpt><trkpt lat="45.05237234759375" lon="9.183212478319886"><ele>65.5</ele><time>2026-03-29T12:59:34.002Z</time></trkpt><trkpt lat="45.05247771877375" lon="9.183557393168998"><ele>65.0</ele><time>2026-03-29T12:59:35.002Z</time></trkpt><trkpt lat="45.05257650778892" lon="9.183899087176902"><ele>64.5</ele><time>2026-03-29T12:59:36.002Z</time></trkpt><trkpt lat="45.05267939868828" lon="9.18424250057279"><ele>64.0</ele><time>2026-03-29T12:59:37.002Z</time></trkpt><trkpt lat="45.052778870186515" lon="9.184585480384657"><ele>65.5</ele><time>2026-03-29T12:59:38.002Z</time></trkpt><trkpt lat="45.05288381323559" lon="9.184926525491703"><ele>67.0</ele><time>2026-03-29T12:59:39.002Z</time></trkpt><trkpt lat="45.05297901437263" lon="9.185265948744332"><ele>67.0</ele><time>2026-03-29T12:59:40.002Z</time></trkpt><trkpt lat="45.05307622968629" lon="9.185598898224173"><ele>67.0</ele><time>2026-03-29T12:59:41.002Z</time></trkpt><trkpt lat="45.05317623908976" lon="9.185933187118051"><ele>68.0</ele><time>2026-03-29T12:59:42.002Z</time></trkpt><trkpt lat="45.053276154069565" lon="9.18626056774525"><ele>69.0</ele><time>2026-03-29T12:59:43.002Z</time></trkpt><trkpt lat="45.05338031817031" lon="9.186603768452306"><ele>67.0</ele><time>2026-03-29T12:59:44.002Z</time></trkpt><trkpt lat="45.053479068958474" lon="9.186946374266798"><ele>65.0</ele><time>2026-03-29T12:59:45.002Z</time></trkpt><trkpt lat="45.053570522151304" lon="9.187284950047095"><ele>64.0</ele><time>2026-03-29T12:59:46.002Z</time></trkpt><trkpt lat="45.05366880571572" lon="9.187628778841784"><ele>63.0</ele><time>2026-03-29T12:59:47.002Z</time></trkpt><trkpt lat="45.05377350154686" lon="9.18796935600118"><ele>62.5</ele><time>2026-03-29T12:59:48.002Z</time></trkpt><trkpt lat="45.05387685541858" lon="9.188311078305821"><ele>62.0</ele><time>2026-03-29T12:59:49.002Z</time></trkpt><trkpt lat="45.05397782498145" lon="9.188652380361498"><ele>62.0</ele><time>2026-03-29T12:59:50.002Z</time></trkpt><trkpt lat="45.05407940815364" lon="9.1889946341596"><ele>62.0</ele><time>2026-03-29T12:59:51.002Z</time></trkpt><trkpt lat="45.05418254941259" lon="9.189338718524482"><ele>62.5</ele><time>2026-03-29T12:59:52.002Z</time></trkpt><trkpt lat="45.054284949931755" lon="9.189681916349256"><ele>63.0</ele><time>2026-03-29T12:59:53.002Z</time></trkpt><trkpt lat="45.0543849934309" lon="9.190025805202554"><ele>63.0</ele><time>2026-03-29T12:59:54.002Z</time></trkpt><trkpt lat="45.054484288297026" lon="9.190369306990345"><ele>63.0</ele><time>2026-03-29T12:59:55.002Z</time></trkpt><trkpt lat="45.0545871551362" lon="9.19071076758752"><ele>63.5</ele><time>2026-03-29T12:59:56.003Z</time></trkpt><trkpt lat="45.05469009833497" lon="9.19105341278575"><ele>64.0</ele><time>2026-03-29T12:59:57.003Z</time></trkpt><trkpt lat="45.05479222475697" lon="9.191396103509495"><ele>64.5</ele><time>2026-03-29T12:59:58.003Z</time></trkpt><trkpt lat="45.05489402661406" lon="9.19173675720807"><ele>65.0</ele><time>2026-03-29T12:59:59.003Z</time></trkpt><trkpt lat="45.05499576211752" lon="9.19207819845517"><ele>65.0</ele><time>2026-03-29T13:00:00.003Z</time></trkpt><trkpt lat="45.05509815041629" lon="9.19242015017889"><ele>65.0</ele><time>2026-03-29T13:00:01.001Z</time></trkpt><trkpt lat="45.055200274256876" lon="9.19276540215193"><ele>65.0</ele><time>2026-03-29T13:00:02.001Z</time></trkpt><trkpt lat="45.05530101795244" lon="9.193111441206328"><ele>65.0</ele><time>2026-03-29T13:00:03.001Z</time></trkpt><trkpt lat="45.055401443291295" lon="9.19345288201446"><ele>64.5</ele><time>2026-03-29T13:00:04.001Z</time></trkpt><trkpt lat="45.055501395849724" lon="9.193797427562112"><ele>64.0</ele><time>2026-03-29T13:00:05.001Z</time></trkpt><trkpt lat="45.05560228312614" lon="9.194141824161946"><ele>64.0</ele><time>2026-03-29T13:00:06.001Z</time></trkpt><trkpt lat="45.0557054577661" lon="9.194482268530999"><ele>64.0</ele><time>2026-03-29T13:00:07.001Z</time></trkpt><trkpt lat="45.055808948378626" lon="9.194824345249074"><ele>64.0</ele><time>2026-03-29T13:00:08.001Z</time></trkpt><trkpt lat="45.05590944081652" lon="9.195164904297064"><ele>64.0</ele><time>2026-03-29T13:00:09.001Z</time></trkpt><trkpt lat="45.056011899400744" lon="9.195505372742518"><ele>63.5</ele><time>2026-03-29T13:00:10.001Z</time></trkpt><trkpt lat="45.05611489218254" lon="9.195843036913065"><ele>63.0</ele><time>2026-03-29T13:00:11.001Z</time></trkpt><trkpt lat="45.056216682184555" lon="9.196183176686485"><ele>62.5</ele><time>2026-03-29T13:00:12.001Z</time></trkpt><trkpt lat="45.056322714351516" lon="9.196510067419858"><ele>62.0</ele><time>2026-03-29T13:00:13.001Z</time></trkpt><trkpt lat="45.056413545925636" lon="9.196848933724642"><ele>62.0</ele><time>2026-03-29T13:00:14.001Z</time></trkpt><trkpt lat="45.05650643030987" lon="9.197185316409618"><ele>62.0</ele><time>2026-03-29T13:00:15.001Z</time></trkpt><trkpt lat="45.05660298325226" lon="9.197519378370957"><ele>63.5</ele><time>2026-03-29T13:00:16.001Z</time></trkpt><trkpt lat="45.05670311745154" lon="9.197849144736969"><ele>65.0</ele><time>2026-03-29T13:00:17.001Z</time></trkpt><trkpt lat="45.056806635464994" lon="9.198179055373977"><ele>65.5</ele><time>2026-03-29T13:00:18.001Z</time></trkpt><trkpt lat="45.056908582647566" lon="9.19850937569369"><ele>66.0</ele><time>2026-03-29T13:00:19.001Z</time></trkpt><trkpt lat="45.05700968490944" lon="9.198841835004565"><ele>65.5</ele><time>2026-03-29T13:00:20.001Z</time></trkpt><trkpt lat="45.0571149726873" lon="9.199174242879076"><ele>65.0</ele><time>2026-03-29T13:00:21.001Z</time></trkpt><trkpt lat="45.05721782171716" lon="9.19950629841969"><ele>64.0</ele><time>2026-03-29T13:00:22.001Z</time></trkpt><trkpt lat="45.05732497595236" lon="9.199836783642857"><ele>63.0</ele><time>2026-03-29T13:00:23.001Z</time></trkpt><trkpt lat="45.05742931697841" lon="9.20017294345845"><ele>63.5</ele><time>2026-03-29T13:00:24.001Z</time></trkpt><trkpt lat="45.05753863522178" lon="9.200499513949675"><ele>64.0</ele><time>2026-03-29T13:00:25.001Z</time></trkpt><trkpt lat="45.057644232266156" lon="9.200834262544547"><ele>64.0</ele><time>2026-03-29T13:00:26.001Z</time></trkpt><trkpt lat="45.05774914149497" lon="9.20117252208255"><ele>64.0</ele><time>2026-03-29T13:00:27.001Z</time></trkpt><trkpt lat="45.05785539944972" lon="9.201504460838494"><ele>64.0</ele><time>2026-03-29T13:00:28.001Z</time></trkpt><trkpt lat="45.05796817105422" lon="9.201832635455943"><ele>64.0</ele><time>2026-03-29T13:00:29.001Z</time></trkpt><trkpt lat="45.05808276884761" lon="9.20216203883663"><ele>65.0</ele><time>2026-03-29T13:00:30.001Z</time></trkpt><trkpt lat="45.058192732247484" lon="9.202494991852957"><ele>66.0</ele><time>2026-03-29T13:00:31.001Z</time></trkpt><trkpt lat="45.05831031189638" lon="9.20281808311012"><ele>66.0</ele><time>2026-03-29T13:00:32.001Z</time></trkpt><trkpt lat="45.05842519150605" lon="9.203144026239405"><ele>66.0</ele><time>2026-03-29T13:00:33.001Z</time></trkpt><trkpt lat="45.05854210958146" lon="9.203472434005441"><ele>66.5</ele><time>2026-03-29T13:00:34.001Z</time></trkpt><trkpt lat="45.058654010070846" lon="9.20379012310705"><ele>67.0</ele><time>2026-03-29T13:00:35.001Z</time></trkpt><trkpt lat="45.05875761776667" lon="9.204137711390457"><ele>66.0</ele><time>2026-03-29T13:00:36.001Z</time></trkpt><trkpt lat="45.05886574185868" lon="9.204465379425248"><ele>65.0</ele><time>2026-03-29T13:00:37.001Z</time></trkpt><trkpt lat="45.05897721357616" lon="9.204790681152861"><ele>64.5</ele><time>2026-03-29T13:00:38.001Z</time></trkpt><trkpt lat="45.05909614820332" lon="9.205110478918435"><ele>64.0</ele><time>2026-03-29T13:00:39.001Z</time></trkpt><trkpt lat="45.059213325368134" lon="9.205433578473055"><ele>65.5</ele><time>2026-03-29T13:00:40.001Z</time></trkpt><trkpt lat="45.05933125441209" lon="9.205757552227702"><ele>67.0</ele><time>2026-03-29T13:00:41.001Z</time></trkpt><trkpt lat="45.059448196163814" lon="9.206082357214106"><ele>67.0</ele><time>2026-03-29T13:00:42.001Z</time></trkpt><trkpt lat="45.059573659473195" lon="9.206403177454519"><ele>67.0</ele><time>2026-03-29T13:00:43.001Z</time></trkpt><trkpt lat="45.059695219165334" lon="9.206725728817377"><ele>66.0</ele><time>2026-03-29T13:00:44.001Z</time></trkpt><trkpt lat="45.059825865961876" lon="9.207063344581615"><ele>65.0</ele><time>2026-03-29T13:00:45.001Z</time></trkpt><trkpt lat="45.05996645367891" lon="9.207403577708122"><ele>63.5</ele><time>2026-03-29T13:00:46.001Z</time></trkpt><trkpt lat="45.06010377621656" lon="9.207745954412147"><ele>62.0</ele><time>2026-03-29T13:00:47.001Z</time></trkpt><trkpt lat="45.060234541714934" lon="9.208088108606562"><ele>65.0</ele><time>2026-03-29T13:00:48.001Z</time></trkpt><trkpt lat="45.06036112906068" lon="9.208434400651376"><ele>68.0</ele><time>2026-03-29T13:00:49.001Z</time></trkpt><trkpt lat="45.06048666259361" lon="9.208780839080358"><ele>67.5</ele><time>2026-03-29T13:00:50.001Z</time></trkpt><trkpt lat="45.06061094196326" lon="9.209126615714512"><ele>67.0</ele><time>2026-03-29T13:00:51.001Z</time></trkpt><trkpt lat="45.060736551957405" lon="9.20947488117691"><ele>66.5</ele><time>2026-03-29T13:00:52.001Z</time></trkpt><trkpt lat="45.060859392602914" lon="9.209820379935849"><ele>66.0</ele><time>2026-03-29T13:00:53.001Z</time></trkpt><trkpt lat="45.06098669243391" lon="9.210169695852231"><ele>66.0</ele><time>2026-03-29T13:00:54.001Z</time></trkpt><trkpt lat="45.06111162799578" lon="9.210511911165453"><ele>66.0</ele><time>2026-03-29T13:00:55.001Z</time></trkpt><trkpt lat="45.061235952084544" lon="9.210851981497388"><ele>66.0</ele><time>2026-03-29T13:00:56.001Z</time></trkpt><trkpt lat="45.06135834994578" lon="9.211190050751533"><ele>66.0</ele><time>2026-03-29T13:00:57.001Z</time></trkpt><trkpt lat="45.06148118352882" lon="9.211521732848134"><ele>66.0</ele><time>2026-03-29T13:00:58.001Z</time></trkpt><trkpt lat="45.061604339325676" lon="9.211850527228625"><ele>66.0</ele><time>2026-03-29T13:00:59.001Z</time></trkpt><trkpt lat="45.06172977662531" lon="9.212175868115615"><ele>66.5</ele><time>2026-03-29T13:01:00.001Z</time></trkpt><trkpt lat="45.06185271926653" lon="9.21249707790469"><ele>67.0</ele><time>2026-03-29T13:01:01.001Z</time></trkpt><trkpt lat="45.0619780924262" lon="9.212820034063911"><ele>67.0</ele><time>2026-03-29T13:01:02.001Z</time></trkpt><trkpt lat="45.062102780570484" lon="9.213143588217788"><ele>67.0</ele><time>2026-03-29T13:01:03.001Z</time></trkpt><trkpt lat="45.06222158915764" lon="9.21346572511263"><ele>68.0</ele><time>2026-03-29T13:01:04.001Z</time></trkpt><trkpt lat="45.062334546775645" lon="9.213784797394847"><ele>69.0</ele><time>2026-03-29T13:01:05.001Z</time></trkpt><trkpt lat="45.06245097472657" lon="9.214117271148048"><ele>69.0</ele><time>2026-03-29T13:01:06.001Z</time></trkpt><trkpt lat="45.06258087300348" lon="9.214449057366927"><ele>69.0</ele><time>2026-03-29T13:01:07.001Z</time></trkpt><trkpt lat="45.062707937114546" lon="9.214784665818065"><ele>69.0</ele><time>2026-03-29T13:01:08.001Z</time></trkpt><trkpt lat="45.0628324587411" lon="9.21511791218357"><ele>69.0</ele><time>2026-03-29T13:01:09.001Z</time></trkpt><trkpt lat="45.062952857808625" lon="9.215452380246191"><ele>68.0</ele><time>2026-03-29T13:01:10.001Z</time></trkpt><trkpt lat="45.06307473280709" lon="9.215786406829595"><ele>67.0</ele><time>2026-03-29T13:01:11.001Z</time></trkpt><trkpt lat="45.06320071692521" lon="9.216121655018213"><ele>68.0</ele><time>2026-03-29T13:01:12.001Z</time></trkpt><trkpt lat="45.06332803107356" lon="9.21645331706099"><ele>69.0</ele><time>2026-03-29T13:01:13.001Z</time></trkpt><trkpt lat="45.06345501186248" lon="9.216781579039644"><ele>69.0</ele><time>2026-03-29T13:01:14.001Z</time></trkpt><trkpt lat="45.06357976092704" lon="9.21710977122841"><ele>69.0</ele><time>2026-03-29T13:01:15.001Z</time></trkpt><trkpt lat="45.06370079046107" lon="9.217437576964914"><ele>68.5</ele><time>2026-03-29T13:01:16.001Z</time></trkpt><trkpt lat="45.063822265880596" lon="9.217763089631337"><ele>68.0</ele><time>2026-03-29T13:01:17.001Z</time></trkpt><trkpt lat="45.06394322950817" lon="9.21808393589888"><ele>68.0</ele><time>2026-03-29T13:01:18.001Z</time></trkpt><trkpt lat="45.06406613010816" lon="9.218408582444864"><ele>68.0</ele><time>2026-03-29T13:01:19.002Z</time></trkpt><trkpt lat="45.06418515455819" lon="9.218730765852053"><ele>70.0</ele><time>2026-03-29T13:01:20.002Z</time></trkpt><trkpt lat="45.064315006444254" lon="9.219054913138248"><ele>72.0</ele><time>2026-03-29T13:01:21.002Z</time></trkpt><trkpt lat="45.06443787128617" lon="9.219377437259235"><ele>72.0</ele><time>2026-03-29T13:01:22.002Z</time></trkpt><trkpt lat="45.0645590616482" lon="9.219699982890202"><ele>72.0</ele><time>2026-03-29T13:01:23.002Z</time></trkpt><trkpt lat="45.064680446539754" lon="9.220023356602315"><ele>72.0</ele><time>2026-03-29T13:01:24.002Z</time></trkpt><trkpt lat="45.06480128531273" lon="9.220351675336786"><ele>72.0</ele><time>2026-03-29T13:01:25.002Z</time></trkpt><trkpt lat="45.06492177044266" lon="9.220676735676284"><ele>72.5</ele><time>2026-03-29T13:01:26.002Z</time></trkpt><trkpt lat="45.06504466199701" lon="9.221006616573558"><ele>73.0</ele><time>2026-03-29T13:01:27.002Z</time></trkpt><trkpt lat="45.065168143638715" lon="9.22133113913095"><ele>73.0</ele><time>2026-03-29T13:01:28.002Z</time></trkpt><trkpt lat="45.06529031751141" lon="9.221658398856116"><ele>73.0</ele><time>2026-03-29T13:01:29.002Z</time></trkpt><trkpt lat="45.06541492559497" lon="9.221984985631572"><ele>73.0</ele><time>2026-03-29T13:01:30.002Z</time></trkpt><trkpt lat="45.06554011658802" lon="9.222311966021818"><ele>73.0</ele><time>2026-03-29T13:01:31.002Z</time></trkpt><trkpt lat="45.06566243986046" lon="9.222640076746348"><ele>74.0</ele><time>2026-03-29T13:01:32.002Z</time></trkpt><trkpt lat="45.065786562186254" lon="9.222967977343547"><ele>75.0</ele><time>2026-03-29T13:01:33.002Z</time></trkpt><trkpt lat="45.06590833429784" lon="9.22329331667055"><ele>76.0</ele><time>2026-03-29T13:01:34.002Z</time></trkpt><trkpt lat="45.06603038525436" lon="9.223618306523345"><ele>77.0</ele><time>2026-03-29T13:01:35.002Z</time></trkpt><trkpt lat="45.06615405014513" lon="9.223942580665636"><ele>77.0</ele><time>2026-03-29T13:01:36.002Z</time></trkpt><trkpt lat="45.06627799951757" lon="9.22427206348892"><ele>77.0</ele><time>2026-03-29T13:01:37.002Z</time></trkpt><trkpt lat="45.06640203069022" lon="9.224599623173425"><ele>76.5</ele><time>2026-03-29T13:01:38.002Z</time></trkpt><trkpt lat="45.066520793676446" lon="9.22492783277916"><ele>76.0</ele><time>2026-03-29T13:01:39.002Z</time></trkpt><trkpt lat="45.06664197548006" lon="9.225255360524057"><ele>76.0</ele><time>2026-03-29T13:01:40.002Z</time></trkpt><trkpt lat="45.066763814914985" lon="9.225584746129035"><ele>76.0</ele><time>2026-03-29T13:01:41.002Z</time></trkpt><trkpt lat="45.06688675388394" lon="9.22591513568534"><ele>76.0</ele><time>2026-03-29T13:01:42.002Z</time></trkpt><trkpt lat="45.06701336324847" lon="9.22624640294079"><ele>76.0</ele><time>2026-03-29T13:01:43.002Z</time></trkpt><trkpt lat="45.06713718557203" lon="9.226577184824768"><ele>75.5</ele><time>2026-03-29T13:01:44.002Z</time></trkpt><trkpt lat="45.067260181201796" lon="9.22691068117767"><ele>75.0</ele><time>2026-03-29T13:01:45.002Z</time></trkpt><trkpt lat="45.067381676275936" lon="9.227245032410826"><ele>76.0</ele><time>2026-03-29T13:01:46.002Z</time></trkpt><trkpt lat="45.067502648940064" lon="9.227579997197203"><ele>77.0</ele><time>2026-03-29T13:01:47.002Z</time></trkpt><trkpt lat="45.06762333133784" lon="9.227915883264828"><ele>75.5</ele><time>2026-03-29T13:01:48.002Z</time></trkpt><trkpt lat="45.067742135762266" lon="9.22825079542597"><ele>74.0</ele><time>2026-03-29T13:01:49.002Z</time></trkpt><trkpt lat="45.067859319327226" lon="9.228584530008712"><ele>74.0</ele><time>2026-03-29T13:01:50.002Z</time></trkpt><trkpt lat="45.06796936093578" lon="9.22891659259503"><ele>74.0</ele><time>2026-03-29T13:01:51.002Z</time></trkpt><trkpt lat="45.06808010572152" lon="9.229249117624628"><ele>74.0</ele><time>2026-03-29T13:01:52.002Z</time></trkpt><trkpt lat="45.06819306470436" lon="9.229584495258528"><ele>74.0</ele><time>2026-03-29T13:01:53.002Z</time></trkpt><trkpt lat="45.06830521026445" lon="9.229919336139856"><ele>74.0</ele><time>2026-03-29T13:01:54.002Z</time></trkpt><trkpt lat="45.06841981770296" lon="9.230258418718206"><ele>74.0</ele><time>2026-03-29T13:01:55.002Z</time></trkpt><trkpt lat="45.068533900945106" lon="9.230598459212882"><ele>72.5</ele><time>2026-03-29T13:01:56.002Z</time></trkpt><trkpt lat="45.06864387867249" lon="9.230942296083555"><ele>71.0</ele><time>2026-03-29T13:01:57.002Z</time></trkpt><trkpt lat="45.0687513456745" lon="9.231283911804518"><ele>71.0</ele><time>2026-03-29T13:01:58.002Z</time></trkpt><trkpt lat="45.06885845478329" lon="9.231627623477914"><ele>71.0</ele><time>2026-03-29T13:01:59.002Z</time></trkpt><trkpt lat="45.06896386974963" lon="9.231974265227835"><ele>71.0</ele><time>2026-03-29T13:02:00.002Z</time></trkpt><trkpt lat="45.069069322197834" lon="9.232321441927471"><ele>71.0</ele><time>2026-03-29T13:02:01.002Z</time></trkpt><trkpt lat="45.06917370918105" lon="9.232670579043962"><ele>71.5</ele><time>2026-03-29T13:02:02.002Z</time></trkpt><trkpt lat="45.06927402114925" lon="9.23301504860281"><ele>72.0</ele><time>2026-03-29T13:02:03.002Z</time></trkpt><trkpt lat="45.069370610972534" lon="9.233361337574788"><ele>70.5</ele><time>2026-03-29T13:02:04.002Z</time></trkpt><trkpt lat="45.0694699512821" lon="9.233710986584144"><ele>69.0</ele><time>2026-03-29T13:02:05.002Z</time></trkpt><trkpt lat="45.069568638662794" lon="9.234059189246251"><ele>68.5</ele><time>2026-03-29T13:02:06.002Z</time></trkpt><trkpt lat="45.069668538932895" lon="9.234407397439034"><ele>68.0</ele><time>2026-03-29T13:02:07.001Z</time></trkpt><trkpt lat="45.069764837998086" lon="9.234756747017284"><ele>67.5</ele><time>2026-03-29T13:02:08.001Z</time></trkpt><trkpt lat="45.06985869682448" lon="9.235105708883033"><ele>67.0</ele><time>2026-03-29T13:02:09.001Z</time></trkpt><trkpt lat="45.06995530210415" lon="9.235455356235013"><ele>69.0</ele><time>2026-03-29T13:02:10.001Z</time></trkpt><trkpt lat="45.07004499267264" lon="9.2358072738577"><ele>71.0</ele><time>2026-03-29T13:02:11.001Z</time></trkpt><trkpt lat="45.07013877704997" lon="9.236158952685209"><ele>70.5</ele><time>2026-03-29T13:02:12.001Z</time></trkpt><trkpt lat="45.070231243187735" lon="9.236516022449731"><ele>70.0</ele><time>2026-03-29T13:02:13.001Z</time></trkpt><trkpt lat="45.07031812182951" lon="9.236870121751368"><ele>70.0</ele><time>2026-03-29T13:02:14.001Z</time></trkpt><trkpt lat="45.070401106224026" lon="9.237228540104306"><ele>70.0</ele><time>2026-03-29T13:02:15.001Z</time></trkpt><trkpt lat="45.0704852702588" lon="9.237589154254486"><ele>70.0</ele><time>2026-03-29T13:02:16.001Z</time></trkpt><trkpt lat="45.07057097309623" lon="9.237952606191017"><ele>70.0</ele><time>2026-03-29T13:02:17.001Z</time></trkpt><trkpt lat="45.07065885159407" lon="9.238312916272726"><ele>70.0</ele><time>2026-03-29T13:02:18.001Z</time></trkpt><trkpt lat="45.07075119117383" lon="9.23867011950694"><ele>70.0</ele><time>2026-03-29T13:02:19.001Z</time></trkpt><trkpt lat="45.07084051305896" lon="9.23902739674616"><ele>69.5</ele><time>2026-03-29T13:02:20Z</time></trkpt><trkpt lat="45.070925175057084" lon="9.239379320186318"><ele>69.0</ele><time>2026-03-29T13:02:21Z</time></trkpt><trkpt lat="45.07101179501071" lon="9.239734266162886"><ele>70.0</ele><time>2026-03-29T13:02:22Z</time></trkpt><trkpt lat="45.07109626020675" lon="9.240090162384723"><ele>71.0</ele><time>2026-03-29T13:02:23Z</time></trkpt><trkpt lat="45.07118367171468" lon="9.240448537804179"><ele>71.5</ele><time>2026-03-29T13:02:24Z</time></trkpt><trkpt lat="45.071271756150146" lon="9.240800300032468"><ele>72.0</ele><time>2026-03-29T13:02:25Z</time></trkpt><trkpt lat="45.07136173817584" lon="9.241155998668562"><ele>71.5</ele><time>2026-03-29T13:02:26.001Z</time></trkpt><trkpt lat="45.071443963597254" lon="9.24151084254418"><ele>71.0</ele><time>2026-03-29T13:02:27.001Z</time></trkpt><trkpt lat="45.07152651167522" lon="9.241875782369647"><ele>71.0</ele><time>2026-03-29T13:02:28.001Z</time></trkpt><trkpt lat="45.0716086090233" lon="9.242229059324783"><ele>71.0</ele><time>2026-03-29T13:02:29.001Z</time></trkpt><trkpt lat="45.071696849257634" lon="9.242591946857756"><ele>71.0</ele><time>2026-03-29T13:02:30.001Z</time></trkpt><trkpt lat="45.07178535796922" lon="9.242951124064225"><ele>71.0</ele><time>2026-03-29T13:02:31.001Z</time></trkpt><trkpt lat="45.0718785211805" lon="9.243314819260316"><ele>71.0</ele><time>2026-03-29T13:02:32.001Z</time></trkpt><trkpt lat="45.071971860648766" lon="9.243675520314662"><ele>71.0</ele><time>2026-03-29T13:02:33.001Z</time></trkpt><trkpt lat="45.07206144468126" lon="9.244033625131465"><ele>70.0</ele><time>2026-03-29T13:02:34.001Z</time></trkpt><trkpt lat="45.07214582047239" lon="9.244390299308517"><ele>69.0</ele><time>2026-03-29T13:02:35.001Z</time></trkpt><trkpt lat="45.072230616987355" lon="9.244750067805699"><ele>69.5</ele><time>2026-03-29T13:02:36.001Z</time></trkpt><trkpt lat="45.07231405688756" lon="9.24510604839027"><ele>70.0</ele><time>2026-03-29T13:02:37.001Z</time></trkpt><trkpt lat="45.07239608263857" lon="9.245463621845815"><ele>69.5</ele><time>2026-03-29T13:02:38.001Z</time></trkpt><trkpt lat="45.072480669068064" lon="9.245815442366329"><ele>69.0</ele><time>2026-03-29T13:02:39.001Z</time></trkpt><trkpt lat="45.07257335767505" lon="9.24617359335541"><ele>69.5</ele><time>2026-03-29T13:02:40.001Z</time></trkpt><trkpt lat="45.07266345866561" lon="9.24652772186965"><ele>70.0</ele><time>2026-03-29T13:02:41.001Z</time></trkpt><trkpt lat="45.07275164210596" lon="9.246885653375008"><ele>70.0</ele><time>2026-03-29T13:02:42.001Z</time></trkpt><trkpt lat="45.07283769185668" lon="9.247246404767635"><ele>70.0</ele><time>2026-03-29T13:02:43.001Z</time></trkpt><trkpt lat="45.072928166024546" lon="9.24761537118978"><ele>70.5</ele><time>2026-03-29T13:02:44.001Z</time></trkpt><trkpt lat="45.07301387885383" lon="9.247979986267335"><ele>71.0</ele><time>2026-03-29T13:02:45.001Z</time></trkpt><trkpt lat="45.07310122570966" lon="9.248341023361062"><ele>71.0</ele><time>2026-03-29T13:02:46.001Z</time></trkpt><trkpt lat="45.07318920661873" lon="9.248704470731639"><ele>71.0</ele><time>2026-03-29T13:02:47.001Z</time></trkpt><trkpt lat="45.073279451261776" lon="9.249069714194782"><ele>71.0</ele><time>2026-03-29T13:02:48.001Z</time></trkpt><trkpt lat="45.073366071869096" lon="9.249426961828206"><ele>71.0</ele><time>2026-03-29T13:02:49.001Z</time></trkpt><trkpt lat="45.07345399806229" lon="9.249785646831453"><ele>70.5</ele><time>2026-03-29T13:02:50.001Z</time></trkpt><trkpt lat="45.07353826867734" lon="9.250136183174206"><ele>70.0</ele><time>2026-03-29T13:02:51.001Z</time></trkpt><trkpt lat="45.07362279072252" lon="9.25047605625734"><ele>70.0</ele><time>2026-03-29T13:02:52.001Z</time></trkpt><trkpt lat="45.073707073885416" lon="9.250818746266068"><ele>70.0</ele><time>2026-03-29T13:02:53.001Z</time></trkpt><trkpt lat="45.073803646162226" lon="9.25116945575523"><ele>69.5</ele><time>2026-03-29T13:02:54.001Z</time></trkpt><trkpt lat="45.0739029899333" lon="9.251530825508704"><ele>69.0</ele><time>2026-03-29T13:02:55.001Z</time></trkpt><trkpt lat="45.0739978018588" lon="9.251893595897847"><ele>69.0</ele><time>2026-03-29T13:02:56.001Z</time></trkpt><trkpt lat="45.07409231624205" lon="9.252261791479874"><ele>69.0</ele><time>2026-03-29T13:02:57.001Z</time></trkpt><trkpt lat="45.07418105927962" lon="9.252624721758583"><ele>70.0</ele><time>2026-03-29T13:02:58.001Z</time></trkpt><trkpt lat="45.07427647537867" lon="9.252986647297734"><ele>71.0</ele><time>2026-03-29T13:02:59.001Z</time></trkpt><trkpt lat="45.074349833062584" lon="9.25335079839278"><ele>71.0</ele><time>2026-03-29T13:03:00.001Z</time></trkpt><trkpt lat="45.07442799545387" lon="9.253710001221217"><ele>71.0</ele><time>2026-03-29T13:03:01.001Z</time></trkpt><trkpt lat="45.07450275946836" lon="9.254067790022413"><ele>70.0</ele><time>2026-03-29T13:03:02.001Z</time></trkpt><trkpt lat="45.07457804336343" lon="9.254418841417538"><ele>69.0</ele><time>2026-03-29T13:03:03.001Z</time></trkpt><trkpt lat="45.074659686270884" lon="9.254768481389608"><ele>68.5</ele><time>2026-03-29T13:03:04.001Z</time></trkpt><trkpt lat="45.074745369089925" lon="9.255118731739467"><ele>68.0</ele><time>2026-03-29T13:03:05.001Z</time></trkpt><trkpt lat="45.07482978344606" lon="9.255460526844255"><ele>70.0</ele><time>2026-03-29T13:03:06.001Z</time></trkpt><trkpt lat="45.074920697349675" lon="9.255810400951194"><ele>72.0</ele><time>2026-03-29T13:03:07.001Z</time></trkpt><trkpt lat="45.07500671888883" lon="9.256161532913692"><ele>72.5</ele><time>2026-03-29T13:03:08.001Z</time></trkpt><trkpt lat="45.07509274504214" lon="9.256512846279174"><ele>73.0</ele><time>2026-03-29T13:03:09.001Z</time></trkpt><trkpt lat="45.075182614095" lon="9.256869522844243"><ele>73.0</ele><time>2026-03-29T13:03:10.001Z</time></trkpt><trkpt lat="45.07527239401978" lon="9.25722362592359"><ele>73.0</ele><time>2026-03-29T13:03:11.001Z</time></trkpt><trkpt lat="45.07535990510187" lon="9.257588153480855"><ele>72.5</ele><time>2026-03-29T13:03:12.001Z</time></trkpt><trkpt lat="45.075446152285174" lon="9.25794643333929"><ele>72.0</ele><time>2026-03-29T13:03:13.001Z</time></trkpt><trkpt lat="45.075532190406854" lon="9.258300681647516"><ele>72.0</ele><time>2026-03-29T13:03:14.001Z</time></trkpt><trkpt lat="45.075615352775976" lon="9.258653701169637"><ele>72.0</ele><time>2026-03-29T13:03:15.001Z</time></trkpt><trkpt lat="45.075703686544195" lon="9.25900774502744"><ele>71.0</ele><time>2026-03-29T13:03:16.001Z</time></trkpt><trkpt lat="45.075788246378046" lon="9.259360710900273"><ele>70.0</ele><time>2026-03-29T13:03:17.001Z</time></trkpt><trkpt lat="45.07587042653065" lon="9.259715105976435"><ele>71.0</ele><time>2026-03-29T13:03:18.001Z</time></trkpt><trkpt lat="45.075951373566184" lon="9.260063510688266"><ele>72.0</ele><time>2026-03-29T13:03:19.001Z</time></trkpt><trkpt lat="45.0760342725931" lon="9.26041630786375"><ele>72.0</ele><time>2026-03-29T13:03:20.001Z</time></trkpt><trkpt lat="45.076117768982684" lon="9.26075789384009"><ele>72.0</ele><time>2026-03-29T13:03:21.001Z</time></trkpt><trkpt lat="45.07620956064678" lon="9.261112860760619"><ele>72.0</ele><time>2026-03-29T13:03:22.001Z</time></trkpt><trkpt lat="45.07629795628543" lon="9.26147137269754"><ele>72.0</ele><time>2026-03-29T13:03:23.001Z</time></trkpt><trkpt lat="45.07638407624687" lon="9.261826143539437"><ele>72.0</ele><time>2026-03-29T13:03:24.001Z</time></trkpt><trkpt lat="45.07647415516423" lon="9.262184112754989"><ele>72.0</ele><time>2026-03-29T13:03:25.001Z</time></trkpt><trkpt lat="45.07656236290848" lon="9.262546076127531"><ele>71.5</ele><time>2026-03-29T13:03:26.001Z</time></trkpt><trkpt lat="45.07665183213304" lon="9.262906807108246"><ele>71.0</ele><time>2026-03-29T13:03:27.001Z</time></trkpt><trkpt lat="45.07673911847852" lon="9.263270460821552"><ele>71.0</ele><time>2026-03-29T13:03:28.001Z</time></trkpt><trkpt lat="45.07682532741968" lon="9.263628627100386"><ele>71.0</ele><time>2026-03-29T13:03:29.001Z</time></trkpt><trkpt lat="45.07690915401821" lon="9.263989028745259"><ele>70.5</ele><time>2026-03-29T13:03:30.001Z</time></trkpt><trkpt lat="45.07699633976936" lon="9.264344721654263"><ele>70.0</ele><time>2026-03-29T13:03:31.001Z</time></trkpt><trkpt lat="45.07708045481461" lon="9.264700430944341"><ele>70.0</ele><time>2026-03-29T13:03:32.001Z</time></trkpt><trkpt lat="45.07716699916172" lon="9.265050648562019"><ele>70.0</ele><time>2026-03-29T13:03:33.001Z</time></trkpt><trkpt lat="45.07725264678442" lon="9.265407253926803"><ele>69.5</ele><time>2026-03-29T13:03:34.002Z</time></trkpt><trkpt lat="45.07734116175446" lon="9.265758394633568"><ele>69.0</ele><time>2026-03-29T13:03:35.002Z</time></trkpt><trkpt lat="45.077431248513456" lon="9.266112946680249"><ele>68.5</ele><time>2026-03-29T13:03:36.002Z</time></trkpt><trkpt lat="45.07751822507441" lon="9.266466832160459"><ele>68.0</ele><time>2026-03-29T13:03:37.002Z</time></trkpt><trkpt lat="45.077604279037885" lon="9.266821663333074"><ele>68.0</ele><time>2026-03-29T13:03:38.002Z</time></trkpt><trkpt lat="45.07768752674341" lon="9.267175655081793"><ele>68.0</ele><time>2026-03-29T13:03:39.002Z</time></trkpt><trkpt lat="45.07776816477793" lon="9.267533042992051"><ele>68.0</ele><time>2026-03-29T13:03:40.002Z</time></trkpt><trkpt lat="45.07784580741503" lon="9.267890131374605"><ele>68.0</ele><time>2026-03-29T13:03:41.002Z</time></trkpt><trkpt lat="45.077922456985675" lon="9.268251419448099"><ele>67.5</ele><time>2026-03-29T13:03:42.002Z</time></trkpt><trkpt lat="45.07800240508074" lon="9.26860861794978"><ele>67.0</ele><time>2026-03-29T13:03:43.002Z</time></trkpt><trkpt lat="45.078084271669226" lon="9.268966139019001"><ele>67.0</ele><time>2026-03-29T13:03:44.002Z</time></trkpt><trkpt lat="45.078167641380084" lon="9.269324261357008"><ele>67.0</ele><time>2026-03-29T13:03:45.002Z</time></trkpt><trkpt lat="45.078245184363084" lon="9.26967526038014"><ele>67.5</ele><time>2026-03-29T13:03:46.002Z</time></trkpt><trkpt lat="45.07832457814202" lon="9.270034181377028"><ele>68.0</ele><time>2026-03-29T13:03:47.002Z</time></trkpt><trkpt lat="45.07839651503018" lon="9.270389589849287"><ele>67.0</ele><time>2026-03-29T13:03:48.002Z</time></trkpt><trkpt lat="45.07846930260703" lon="9.27074330353834"><ele>66.0</ele><time>2026-03-29T13:03:49.002Z</time></trkpt><trkpt lat="45.078538666722515" lon="9.271094362065691"><ele>66.0</ele><time>2026-03-29T13:03:50.002Z</time></trkpt><trkpt lat="45.07861031416703" lon="9.271444528794367"><ele>66.0</ele><time>2026-03-29T13:03:51.002Z</time></trkpt><trkpt lat="45.078680232415785" lon="9.271792861492836"><ele>66.0</ele><time>2026-03-29T13:03:52.002Z</time></trkpt><trkpt lat="45.078753593439764" lon="9.272156244311208"><ele>66.0</ele><time>2026-03-29T13:03:53.002Z</time></trkpt><trkpt lat="45.07882820902656" lon="9.272520748371152"><ele>68.0</ele><time>2026-03-29T13:03:54.002Z</time></trkpt><trkpt lat="45.07889823109594" lon="9.272880865351983"><ele>70.0</ele><time>2026-03-29T13:03:55.002Z</time></trkpt><trkpt lat="45.078971270843475" lon="9.273241017345471"><ele>70.5</ele><time>2026-03-29T13:03:56.002Z</time></trkpt><trkpt lat="45.079033151014436" lon="9.273612179515407"><ele>71.0</ele><time>2026-03-29T13:03:57.002Z</time></trkpt><trkpt lat="45.079114737772585" lon="9.273966099845309"><ele>69.0</ele><time>2026-03-29T13:03:58.002Z</time></trkpt><trkpt lat="45.07919221916585" lon="9.274324522080757"><ele>67.0</ele><time>2026-03-29T13:03:59.002Z</time></trkpt><trkpt lat="45.07926649932837" lon="9.27468009999915"><ele>67.0</ele><time>2026-03-29T13:04:00.002Z</time></trkpt><trkpt lat="45.07933486130434" lon="9.275043303079892"><ele>67.0</ele><time>2026-03-29T13:04:01.002Z</time></trkpt><trkpt lat="45.079403013842246" lon="9.275400474691448"><ele>67.5</ele><time>2026-03-29T13:04:02.002Z</time></trkpt><trkpt lat="45.07947050565419" lon="9.275756489478178"><ele>68.0</ele><time>2026-03-29T13:04:03.002Z</time></trkpt><trkpt lat="45.07953702795833" lon="9.276108795836835"><ele>68.0</ele><time>2026-03-29T13:04:04.002Z</time></trkpt><trkpt lat="45.07960989903167" lon="9.276468202300897"><ele>68.0</ele><time>2026-03-29T13:04:05.002Z</time></trkpt><trkpt lat="45.079681660769076" lon="9.276824051507782"><ele>68.0</ele><time>2026-03-29T13:04:06.002Z</time></trkpt><trkpt lat="45.07975483606065" lon="9.277177480433894"><ele>68.0</ele><time>2026-03-29T13:04:07.002Z</time></trkpt><trkpt lat="45.07982259322138" lon="9.277526035741795"><ele>68.0</ele><time>2026-03-29T13:04:08.002Z</time></trkpt><trkpt lat="45.07989545189832" lon="9.277877775406463"><ele>68.0</ele><time>2026-03-29T13:04:09.002Z</time></trkpt><trkpt lat="45.07996684669006" lon="9.27823558824947"><ele>68.0</ele><time>2026-03-29T13:04:10.002Z</time></trkpt><trkpt lat="45.08004114013104" lon="9.278579767562048"><ele>68.0</ele><time>2026-03-29T13:04:11.002Z</time></trkpt><trkpt lat="45.08011421452764" lon="9.27892975893503"><ele>67.5</ele><time>2026-03-29T13:04:12.002Z</time></trkpt><trkpt lat="45.0801823771093" lon="9.279279275499112"><ele>67.0</ele><time>2026-03-29T13:04:13Z</time></trkpt><trkpt lat="45.08025101675225" lon="9.279627701710773"><ele>67.5</ele><time>2026-03-29T13:04:14Z</time></trkpt><trkpt lat="45.08031995886081" lon="9.27998433983676"><ele>68.0</ele><time>2026-03-29T13:04:15Z</time></trkpt><trkpt lat="45.080390661350044" lon="9.280346060942849"><ele>68.5</ele><time>2026-03-29T13:04:16Z</time></trkpt><trkpt lat="45.0804581715247" lon="9.280703479537406"><ele>69.0</ele><time>2026-03-29T13:04:17Z</time></trkpt><trkpt lat="45.08052431794352" lon="9.281058585193618"><ele>69.0</ele><time>2026-03-29T13:04:18Z</time></trkpt><trkpt lat="45.08059524893153" lon="9.281422590009987"><ele>69.0</ele><time>2026-03-29T13:04:19Z</time></trkpt><trkpt lat="45.08066594207779" lon="9.281779077386558"><ele>69.0</ele><time>2026-03-29T13:04:20Z</time></trkpt><trkpt lat="45.08073962992074" lon="9.282149185769514"><ele>69.0</ele><time>2026-03-29T13:04:21Z</time></trkpt><trkpt lat="45.08081530332041" lon="9.282517585384673"><ele>69.0</ele><time>2026-03-29T13:04:22Z</time></trkpt><trkpt lat="45.08086583039541" lon="9.282876807868995"><ele>69.0</ele><time>2026-03-29T13:04:23Z</time></trkpt><trkpt lat="45.08095207240882" lon="9.283235377231483"><ele>68.5</ele><time>2026-03-29T13:04:24Z</time></trkpt><trkpt lat="45.08102980630834" lon="9.283597258564104"><ele>68.0</ele><time>2026-03-29T13:04:25Z</time></trkpt><trkpt lat="45.081097375055165" lon="9.283955838894862"><ele>67.5</ele><time>2026-03-29T13:04:26Z</time></trkpt><trkpt lat="45.08116899588133" lon="9.2843131448776"><ele>67.0</ele><time>2026-03-29T13:04:27Z</time></trkpt><trkpt lat="45.08124365048067" lon="9.284668254446068"><ele>66.5</ele><time>2026-03-29T13:04:28Z</time></trkpt><trkpt lat="45.0813168773835" lon="9.285023646401596"><ele>66.0</ele><time>2026-03-29T13:04:29Z</time></trkpt><trkpt lat="45.081390445966115" lon="9.285378330340864"><ele>67.5</ele><time>2026-03-29T13:04:30Z</time></trkpt><trkpt lat="45.081462110110195" lon="9.285734363893322"><ele>69.0</ele><time>2026-03-29T13:04:31Z</time></trkpt><trkpt lat="45.08153356338598" lon="9.286094258941908"><ele>68.0</ele><time>2026-03-29T13:04:32Z</time></trkpt><trkpt lat="45.08160357043322" lon="9.286450780995867"><ele>67.0</ele><time>2026-03-29T13:04:33Z</time></trkpt><trkpt lat="45.08167569851791" lon="9.286810911036165"><ele>67.0</ele><time>2026-03-29T13:04:34Z</time></trkpt><trkpt lat="45.08174689655265" lon="9.287168241338378"><ele>67.0</ele><time>2026-03-29T13:04:35Z</time></trkpt><trkpt lat="45.08181433595803" lon="9.287528510619733"><ele>69.5</ele><time>2026-03-29T13:04:36Z</time></trkpt><trkpt lat="45.08188731926693" lon="9.28788285287683"><ele>72.0</ele><time>2026-03-29T13:04:37Z</time></trkpt><trkpt lat="45.0819554471485" lon="9.288241272744084"><ele>72.0</ele><time>2026-03-29T13:04:38Z</time></trkpt><trkpt lat="45.082027817193236" lon="9.288595085388392"><ele>72.0</ele><time>2026-03-29T13:04:39Z</time></trkpt><trkpt lat="45.08209792383298" lon="9.288955258199746"><ele>71.0</ele><time>2026-03-29T13:04:40Z</time></trkpt><trkpt lat="45.082164167427706" lon="9.289313362640542"><ele>70.0</ele><time>2026-03-29T13:04:41Z</time></trkpt><trkpt lat="45.082228998730045" lon="9.289671407676073"><ele>70.0</ele><time>2026-03-29T13:04:42Z</time></trkpt><trkpt lat="45.08229372705378" lon="9.290029627041605"><ele>70.0</ele><time>2026-03-29T13:04:43Z</time></trkpt><trkpt lat="45.08235469934311" lon="9.290389240811516"><ele>69.5</ele><time>2026-03-29T13:04:44Z</time></trkpt><trkpt lat="45.08240797692502" lon="9.290748386724047"><ele>69.0</ele><time>2026-03-29T13:04:45Z</time></trkpt><trkpt lat="45.08246048263711" lon="9.2911086187146"><ele>69.5</ele><time>2026-03-29T13:04:46Z</time></trkpt><trkpt lat="45.0825131405924" lon="9.291471836720365"><ele>70.0</ele><time>2026-03-29T13:04:47Z</time></trkpt><trkpt lat="45.082562876918296" lon="9.29183437299038"><ele>70.0</ele><time>2026-03-29T13:04:48Z</time></trkpt><trkpt lat="45.082613182565524" lon="9.292200317867044"><ele>70.0</ele><time>2026-03-29T13:04:49Z</time></trkpt><trkpt lat="45.08265680600393" lon="9.292566743697083"><ele>70.0</ele><time>2026-03-29T13:04:50Z</time></trkpt><trkpt lat="45.08269666372526" lon="9.29293518058953"><ele>70.0</ele><time>2026-03-29T13:04:51Z</time></trkpt><trkpt lat="45.08273736002201" lon="9.293304885354742"><ele>70.0</ele><time>2026-03-29T13:04:52Z</time></trkpt><trkpt lat="45.08277190796097" lon="9.293669392358325"><ele>70.0</ele><time>2026-03-29T13:04:53Z</time></trkpt><trkpt lat="45.08280408672034" lon="9.294036022889452"><ele>70.5</ele><time>2026-03-29T13:04:54.001Z</time></trkpt><trkpt lat="45.08283393208792" lon="9.29440429974223"><ele>71.0</ele><time>2026-03-29T13:04:55.001Z</time></trkpt><trkpt lat="45.08286352368844" lon="9.29477257058623"><ele>71.0</ele><time>2026-03-29T13:04:56.001Z</time></trkpt><trkpt lat="45.08289233208225" lon="9.29513953281456"><ele>71.0</ele><time>2026-03-29T13:04:57.001Z</time></trkpt><trkpt lat="45.08291914194459" lon="9.295504209652941"><ele>70.5</ele><time>2026-03-29T13:04:58.001Z</time></trkpt><trkpt lat="45.08294248648983" lon="9.295872824652765"><ele>70.0</ele><time>2026-03-29T13:04:59.001Z</time></trkpt><trkpt lat="45.08295963999026" lon="9.296241665695813"><ele>70.0</ele><time>2026-03-29T13:05:00.001Z</time></trkpt><trkpt lat="45.08297604915441" lon="9.296609993654663"><ele>70.0</ele><time>2026-03-29T13:05:01.001Z</time></trkpt><trkpt lat="45.08299172138589" lon="9.296978916797794"><ele>69.5</ele><time>2026-03-29T13:05:02.001Z</time></trkpt><trkpt lat="45.083000240868024" lon="9.297343940875612"><ele>69.0</ele><time>2026-03-29T13:05:03.001Z</time></trkpt><trkpt lat="45.08301303315334" lon="9.297714564285975"><ele>69.0</ele><time>2026-03-29T13:05:04.001Z</time></trkpt><trkpt lat="45.08301279616158" lon="9.29807532206588"><ele>69.0</ele><time>2026-03-29T13:05:05.001Z</time></trkpt><trkpt lat="45.08301413064703" lon="9.298441225328213"><ele>68.5</ele><time>2026-03-29T13:05:06.001Z</time></trkpt><trkpt lat="45.083029172200824" lon="9.298813305823932"><ele>68.0</ele><time>2026-03-29T13:05:07.001Z</time></trkpt><trkpt lat="45.08303765951431" lon="9.299182405696472"><ele>68.0</ele><time>2026-03-29T13:05:08.001Z</time></trkpt><trkpt lat="45.08303885303915" lon="9.299542715657688"><ele>68.0</ele><time>2026-03-29T13:05:09.001Z</time></trkpt><trkpt lat="45.08304513183612" lon="9.29990814387024"><ele>68.0</ele><time>2026-03-29T13:05:10.001Z</time></trkpt><trkpt lat="45.083045489514625" lon="9.300267146486512"><ele>68.0</ele><time>2026-03-29T13:05:11.001Z</time></trkpt><trkpt lat="45.08305227293664" lon="9.300629449869799"><ele>69.0</ele><time>2026-03-29T13:05:12.001Z</time></trkpt><trkpt lat="45.083057090963166" lon="9.300993862478103"><ele>70.0</ele><time>2026-03-29T13:05:13.001Z</time></trkpt><trkpt lat="45.083063054115144" lon="9.30135783735392"><ele>71.0</ele><time>2026-03-29T13:05:14.001Z</time></trkpt><trkpt lat="45.083065665302755" lon="9.301720304134975"><ele>72.0</ele><time>2026-03-29T13:05:15.001Z</time></trkpt><trkpt lat="45.08307854967169" lon="9.302088690981837"><ele>72.5</ele><time>2026-03-29T13:05:16.001Z</time></trkpt><trkpt lat="45.08308478207501" lon="9.302456110125863"><ele>73.0</ele><time>2026-03-29T13:05:17.001Z</time></trkpt><trkpt lat="45.08308378935539" lon="9.30282402638714"><ele>73.5</ele><time>2026-03-29T13:05:18.001Z</time></trkpt><trkpt lat="45.08308591236644" lon="9.30319719143045"><ele>74.0</ele><time>2026-03-29T13:05:19.001Z</time></trkpt><trkpt lat="45.083089558900944" lon="9.303575627367481"><ele>72.5</ele><time>2026-03-29T13:05:20.001Z</time></trkpt><trkpt lat="45.08309681044174" lon="9.303953270893702"><ele>71.0</ele><time>2026-03-29T13:05:21.001Z</time></trkpt><trkpt lat="45.083103175075664" lon="9.304329118512648"><ele>71.0</ele><time>2026-03-29T13:05:22.001Z</time></trkpt><trkpt lat="45.08310721297692" lon="9.304708477183587"><ele>71.0</ele><time>2026-03-29T13:05:23.001Z</time></trkpt><trkpt lat="45.08311406531034" lon="9.305086253681939"><ele>71.0</ele><time>2026-03-29T13:05:24.001Z</time></trkpt><trkpt lat="45.08311970304791" lon="9.305459160662855"><ele>71.0</ele><time>2026-03-29T13:05:25.001Z</time></trkpt><trkpt lat="45.083124014544374" lon="9.305828885206902"><ele>70.5</ele><time>2026-03-29T13:05:26.001Z</time></trkpt><trkpt lat="45.083134052773595" lon="9.306199679987547"><ele>70.0</ele><time>2026-03-29T13:05:27.001Z</time></trkpt><trkpt lat="45.08314331230413" lon="9.306568560376986"><ele>71.0</ele><time>2026-03-29T13:05:28.001Z</time></trkpt><trkpt lat="45.08315035304538" lon="9.306936862687238"><ele>72.0</ele><time>2026-03-29T13:05:29.001Z</time></trkpt><trkpt lat="45.08315857643516" lon="9.307305573672988"><ele>72.0</ele><time>2026-03-29T13:05:30.001Z</time></trkpt><trkpt lat="45.083159695272855" lon="9.307671982774554"><ele>72.0</ele><time>2026-03-29T13:05:31.001Z</time></trkpt><trkpt lat="45.08316915097964" lon="9.308043046432841"><ele>71.5</ele><time>2026-03-29T13:05:32.001Z</time></trkpt><trkpt lat="45.08316681278142" lon="9.30840651380473"><ele>71.0</ele><time>2026-03-29T13:05:33.001Z</time></trkpt><trkpt lat="45.08317451155477" lon="9.308772509361912"><ele>70.5</ele><time>2026-03-29T13:05:34.001Z</time></trkpt><trkpt lat="45.08319217581164" lon="9.309138898795078"><ele>70.0</ele><time>2026-03-29T13:05:35.001Z</time></trkpt><trkpt lat="45.08319866230093" lon="9.309504768175062"><ele>70.0</ele><time>2026-03-29T13:05:36.001Z</time></trkpt><trkpt lat="45.083196290881766" lon="9.309867843574215"><ele>70.0</ele><time>2026-03-29T13:05:37.001Z</time></trkpt><trkpt lat="45.08320169860812" lon="9.310231042577653"><ele>70.0</ele><time>2026-03-29T13:05:38.001Z</time></trkpt><trkpt lat="45.08320611143087" lon="9.31059665506335"><ele>70.0</ele><time>2026-03-29T13:05:39.001Z</time></trkpt><trkpt lat="45.08321364856769" lon="9.31096534053196"><ele>70.0</ele><time>2026-03-29T13:05:40.001Z</time></trkpt><trkpt lat="45.083215808752364" lon="9.311330446570672"><ele>70.0</ele><time>2026-03-29T13:05:41.001Z</time></trkpt><trkpt lat="45.08322787045905" lon="9.31170356168133"><ele>69.5</ele><time>2026-03-29T13:05:42.001Z</time></trkpt><trkpt lat="45.08323324351116" lon="9.312072332056687"><ele>69.0</ele><time>2026-03-29T13:05:43.001Z</time></trkpt><trkpt lat="45.08323588114835" lon="9.312440590205822"><ele>69.0</ele><time>2026-03-29T13:05:44.001Z</time></trkpt><trkpt lat="45.0832399726435" lon="9.31280857328725"><ele>69.0</ele><time>2026-03-29T13:05:45.001Z</time></trkpt><trkpt lat="45.083247153903976" lon="9.313177546394414"><ele>68.5</ele><time>2026-03-29T13:05:46.001Z</time></trkpt><trkpt lat="45.083250392899586" lon="9.313544886709616"><ele>68.0</ele><time>2026-03-29T13:05:47.001Z</time></trkpt><trkpt lat="45.083256138906016" lon="9.313913874060239"><ele>69.0</ele><time>2026-03-29T13:05:48.001Z</time></trkpt><trkpt lat="45.08326027802355" lon="9.314279736498067"><ele>70.0</ele><time>2026-03-29T13:05:49.001Z</time></trkpt><trkpt lat="45.08326555382694" lon="9.314646571568739"><ele>71.0</ele><time>2026-03-29T13:05:50.001Z</time></trkpt><trkpt lat="45.083265325982474" lon="9.315011310542776"><ele>72.0</ele><time>2026-03-29T13:05:51.001Z</time></trkpt><trkpt lat="45.08326647544306" lon="9.315373523332232"><ele>72.0</ele><time>2026-03-29T13:05:52.001Z</time></trkpt><trkpt lat="45.08327575533409" lon="9.31574115943091"><ele>72.0</ele><time>2026-03-29T13:05:53.002Z</time></trkpt><trkpt lat="45.083285893133144" lon="9.316108570537468"><ele>72.5</ele><time>2026-03-29T13:05:54.002Z</time></trkpt><trkpt lat="45.083297337104376" lon="9.31647479070433"><ele>73.0</ele><time>2026-03-29T13:05:55.002Z</time></trkpt><trkpt lat="45.08330932884685" lon="9.316843445465363"><ele>73.0</ele><time>2026-03-29T13:05:56.002Z</time></trkpt><trkpt lat="45.08331939671889" lon="9.317211002055553"><ele>73.0</ele><time>2026-03-29T13:05:57.002Z</time></trkpt><trkpt lat="45.08333913531469" lon="9.317590977854927"><ele>73.0</ele><time>2026-03-29T13:05:58.002Z</time></trkpt><trkpt lat="45.08333202711499" lon="9.317942444414411"><ele>73.0</ele><time>2026-03-29T13:05:59.002Z</time></trkpt><trkpt lat="45.08333210860984" lon="9.318305329559795"><ele>71.0</ele><time>2026-03-29T13:06:00.002Z</time></trkpt><trkpt lat="45.08333616827264" lon="9.318670824762027"><ele>69.0</ele><time>2026-03-29T13:06:01.002Z</time></trkpt><trkpt lat="45.083333571141985" lon="9.319031368314146"><ele>69.0</ele><time>2026-03-29T13:06:02.002Z</time></trkpt><trkpt lat="45.08333618361148" lon="9.319392745510783"><ele>69.0</ele><time>2026-03-29T13:06:03.002Z</time></trkpt><trkpt lat="45.083349789829235" lon="9.319759691100217"><ele>69.0</ele><time>2026-03-29T13:06:04.002Z</time></trkpt><trkpt lat="45.083365013987745" lon="9.320121814019615"><ele>69.0</ele><time>2026-03-29T13:06:05.002Z</time></trkpt><trkpt lat="45.083375495556595" lon="9.320483008224308"><ele>69.0</ele><time>2026-03-29T13:06:06.002Z</time></trkpt><trkpt lat="45.08339073046743" lon="9.320852631583106"><ele>69.0</ele><time>2026-03-29T13:06:07.002Z</time></trkpt><trkpt lat="45.083394077985155" lon="9.321220118263776"><ele>69.5</ele><time>2026-03-29T13:06:08.002Z</time></trkpt><trkpt lat="45.08338479501028" lon="9.321581822550666"><ele>70.0</ele><time>2026-03-29T13:06:09.002Z</time></trkpt><trkpt lat="45.08337896792739" lon="9.321942930098194"><ele>68.5</ele><time>2026-03-29T13:06:10.002Z</time></trkpt><trkpt lat="45.08337901736167" lon="9.32231370006383"><ele>67.0</ele><time>2026-03-29T13:06:11.002Z</time></trkpt><trkpt lat="45.08339536541963" lon="9.322678112191406"><ele>67.0</ele><time>2026-03-29T13:06:12.002Z</time></trkpt><trkpt lat="45.083399157010085" lon="9.323043691231979"><ele>67.0</ele><time>2026-03-29T13:06:13.002Z</time></trkpt><trkpt lat="45.0834048527947" lon="9.3234055393145"><ele>66.0</ele><time>2026-03-29T13:06:14.002Z</time></trkpt><trkpt lat="45.083411207157454" lon="9.323764664674956"><ele>65.0</ele><time>2026-03-29T13:06:15.002Z</time></trkpt><trkpt lat="45.08341766197101" lon="9.32412223748752"><ele>65.0</ele><time>2026-03-29T13:06:16.002Z</time></trkpt><trkpt lat="45.08342486581198" lon="9.324486004144845"><ele>65.0</ele><time>2026-03-29T13:06:17.002Z</time></trkpt><trkpt lat="45.08343034083996" lon="9.324849672833045"><ele>65.0</ele><time>2026-03-29T13:06:18.002Z</time></trkpt><trkpt lat="45.08343947369418" lon="9.325218689449459"><ele>65.0</ele><time>2026-03-29T13:06:19Z</time></trkpt><trkpt lat="45.08344291612165" lon="9.3255870764817"><ele>65.5</ele><time>2026-03-29T13:06:20Z</time></trkpt><trkpt lat="45.08344376830798" lon="9.325955496649044"><ele>66.0</ele><time>2026-03-29T13:06:21Z</time></trkpt><trkpt lat="45.083452286787605" lon="9.326318277133826"><ele>66.0</ele><time>2026-03-29T13:06:22Z</time></trkpt><trkpt lat="45.08345845811598" lon="9.32669029686843"><ele>66.0</ele><time>2026-03-29T13:06:23Z</time></trkpt><trkpt lat="45.08346227748565" lon="9.327059777440734"><ele>67.0</ele><time>2026-03-29T13:06:24Z</time></trkpt><trkpt lat="45.08346609292537" lon="9.32743054424276"><ele>68.0</ele><time>2026-03-29T13:06:25Z</time></trkpt><trkpt lat="45.083469819125256" lon="9.327803313578004"><ele>68.5</ele><time>2026-03-29T13:06:26Z</time></trkpt><trkpt lat="45.0834735446975" lon="9.328173148839234"><ele>69.0</ele><time>2026-03-29T13:06:27Z</time></trkpt><trkpt lat="45.083477338500565" lon="9.328542696119118"><ele>69.0</ele><time>2026-03-29T13:06:28Z</time></trkpt><trkpt lat="45.08348521488104" lon="9.328923390441345"><ele>69.0</ele><time>2026-03-29T13:06:29Z</time></trkpt><trkpt lat="45.08349761503518" lon="9.32928320674948"><ele>69.0</ele><time>2026-03-29T13:06:30Z</time></trkpt><trkpt lat="45.08350505577715" lon="9.32964706417335"><ele>69.0</ele><time>2026-03-29T13:06:31Z</time></trkpt><trkpt lat="45.083508342480926" lon="9.330012822176577"><ele>68.0</ele><time>2026-03-29T13:06:32Z</time></trkpt><trkpt lat="45.08351868903938" lon="9.330374190618674"><ele>67.0</ele><time>2026-03-29T13:06:33Z</time></trkpt><trkpt lat="45.08352791976642" lon="9.330745050834336"><ele>67.0</ele><time>2026-03-29T13:06:34Z</time></trkpt><trkpt lat="45.08353849068073" lon="9.331106060024366"><ele>67.0</ele><time>2026-03-29T13:06:35Z</time></trkpt><trkpt lat="45.08355727441421" lon="9.331473445348445"><ele>67.5</ele><time>2026-03-29T13:06:36Z</time></trkpt><trkpt lat="45.08356847682679" lon="9.331839251821382"><ele>68.0</ele><time>2026-03-29T13:06:37Z</time></trkpt><trkpt lat="45.0835844606567" lon="9.332211263104725"><ele>68.5</ele><time>2026-03-29T13:06:38Z</time></trkpt><trkpt lat="45.08359522818291" lon="9.332572291190033"><ele>69.0</ele><time>2026-03-29T13:06:39Z</time></trkpt><trkpt lat="45.08360152111773" lon="9.332933892434424"><ele>67.5</ele><time>2026-03-29T13:06:40Z</time></trkpt><trkpt lat="45.08361669122281" lon="9.333306003714734"><ele>66.0</ele><time>2026-03-29T13:06:41Z</time></trkpt><trkpt lat="45.08363704802259" lon="9.333676917888294"><ele>66.0</ele><time>2026-03-29T13:06:42Z</time></trkpt><trkpt lat="45.08364707508395" lon="9.334047410034234"><ele>66.0</ele><time>2026-03-29T13:06:43Z</time></trkpt><trkpt lat="45.08365486907655" lon="9.334413365354301"><ele>66.5</ele><time>2026-03-29T13:06:44Z</time></trkpt><trkpt lat="45.08366609078874" lon="9.334781326750559"><ele>67.0</ele><time>2026-03-29T13:06:45Z</time></trkpt><trkpt lat="45.083679819048236" lon="9.335149388691748"><ele>67.0</ele><time>2026-03-29T13:06:46Z</time></trkpt><trkpt lat="45.08368742875017" lon="9.33551269941395"><ele>67.0</ele><time>2026-03-29T13:06:47Z</time></trkpt><trkpt lat="45.08370131317504" lon="9.335874878881706"><ele>67.5</ele><time>2026-03-29T13:06:48Z</time></trkpt><trkpt lat="45.083715017781095" lon="9.33624197546539"><ele>68.0</ele><time>2026-03-29T13:06:49Z</time></trkpt><trkpt lat="45.08372811668444" lon="9.33660731462566"><ele>68.0</ele><time>2026-03-29T13:06:50Z</time></trkpt><trkpt lat="45.08373348288171" lon="9.336966736043005"><ele>68.0</ele><time>2026-03-29T13:06:51Z</time></trkpt><trkpt lat="45.08374456895136" lon="9.337327399305627"><ele>67.5</ele><time>2026-03-29T13:06:52Z</time></trkpt><trkpt lat="45.083770731297946" lon="9.337700024590768"><ele>67.0</ele><time>2026-03-29T13:06:53Z</time></trkpt><trkpt lat="45.083783673892874" lon="9.338067543758264"><ele>68.0</ele><time>2026-03-29T13:06:54Z</time></trkpt><trkpt lat="45.08378757538957" lon="9.338428276960064"><ele>69.0</ele><time>2026-03-29T13:06:55Z</time></trkpt><trkpt lat="45.08379188741641" lon="9.338791768305525"><ele>69.0</ele><time>2026-03-29T13:06:56.001Z</time></trkpt><trkpt lat="45.08380823039273" lon="9.339160568460946"><ele>69.0</ele><time>2026-03-29T13:06:57.001Z</time></trkpt><trkpt lat="45.083825986925596" lon="9.339528207046914"><ele>68.5</ele><time>2026-03-29T13:06:58.001Z</time></trkpt><trkpt lat="45.08384135987402" lon="9.339893175285836"><ele>68.0</ele><time>2026-03-29T13:06:59.001Z</time></trkpt><trkpt lat="45.083850846075826" lon="9.340259023434289"><ele>67.0</ele><time>2026-03-29T13:07:00.001Z</time></trkpt><trkpt lat="45.08385490403475" lon="9.340623319851241"><ele>66.0</ele><time>2026-03-29T13:07:01.001Z</time></trkpt><trkpt lat="45.08385629622513" lon="9.340987183271269"><ele>66.0</ele><time>2026-03-29T13:07:02.001Z</time></trkpt><trkpt lat="45.08387321367078" lon="9.341356828676926"><ele>66.0</ele><time>2026-03-29T13:07:03.001Z</time></trkpt><trkpt lat="45.0838859813014" lon="9.341721881540684"><ele>66.0</ele><time>2026-03-29T13:07:04.001Z</time></trkpt><trkpt lat="45.083895658392095" lon="9.342092362178832"><ele>66.0</ele><time>2026-03-29T13:07:05.001Z</time></trkpt><trkpt lat="45.08391003715326" lon="9.342461305322805"><ele>66.5</ele><time>2026-03-29T13:07:06.001Z</time></trkpt><trkpt lat="45.08392133461627" lon="9.342830467778736"><ele>67.0</ele><time>2026-03-29T13:07:07.001Z</time></trkpt><trkpt lat="45.08393148065831" lon="9.343198248068507"><ele>67.0</ele><time>2026-03-29T13:07:08.001Z</time></trkpt><trkpt lat="45.08394494817906" lon="9.343564654506759"><ele>67.0</ele><time>2026-03-29T13:07:09.001Z</time></trkpt><trkpt lat="45.08395354703999" lon="9.343932307342078"><ele>67.0</ele><time>2026-03-29T13:07:10.001Z</time></trkpt><trkpt lat="45.08396492583841" lon="9.344304042459227"><ele>67.0</ele><time>2026-03-29T13:07:11.001Z</time></trkpt><trkpt lat="45.08397594380231" lon="9.344677769003313"><ele>67.0</ele><time>2026-03-29T13:07:12.001Z</time></trkpt><trkpt lat="45.083988058569375" lon="9.345041343614323"><ele>67.0</ele><time>2026-03-29T13:07:13.001Z</time></trkpt><trkpt lat="45.08400531983543" lon="9.345412885438067"><ele>66.5</ele><time>2026-03-29T13:07:14.001Z</time></trkpt><trkpt lat="45.08401693710915" lon="9.345784864834863"><ele>66.0</ele><time>2026-03-29T13:07:15.001Z</time></trkpt><trkpt lat="45.08402861624999" lon="9.346151773409714"><ele>65.5</ele><time>2026-03-29T13:07:16.001Z</time></trkpt><trkpt lat="45.08403765490416" lon="9.346522134566195"><ele>65.0</ele><time>2026-03-29T13:07:17.001Z</time></trkpt><trkpt lat="45.08405308356094" lon="9.346886603992361"><ele>65.0</ele><time>2026-03-29T13:07:18.001Z</time></trkpt><trkpt lat="45.0840664943962" lon="9.34725155186677"><ele>65.0</ele><time>2026-03-29T13:07:19.001Z</time></trkpt><trkpt lat="45.084077428891604" lon="9.347617517695088"><ele>65.0</ele><time>2026-03-29T13:07:20.001Z</time></trkpt><trkpt lat="45.08408418939631" lon="9.34797907632209"><ele>65.0</ele><time>2026-03-29T13:07:21.001Z</time></trkpt><trkpt lat="45.08409100284183" lon="9.34834358829465"><ele>64.0</ele><time>2026-03-29T13:07:22.001Z</time></trkpt><trkpt lat="45.084100855399846" lon="9.34870976675671"><ele>63.0</ele><time>2026-03-29T13:07:23.001Z</time></trkpt><trkpt lat="45.08410733042347" lon="9.349070651466176"><ele>63.0</ele><time>2026-03-29T13:07:24.001Z</time></trkpt><trkpt lat="45.08412060394777" lon="9.349437848026106"><ele>63.0</ele><time>2026-03-29T13:07:25.001Z</time></trkpt><trkpt lat="45.084135269817644" lon="9.349804930239793"><ele>63.0</ele><time>2026-03-29T13:07:26.001Z</time></trkpt><trkpt lat="45.0841563632778" lon="9.350174908928992"><ele>63.0</ele><time>2026-03-29T13:07:27.001Z</time></trkpt><trkpt lat="45.08416698736921" lon="9.350531859450088"><ele>62.5</ele><time>2026-03-29T13:07:28.001Z</time></trkpt><trkpt lat="45.0841773735808" lon="9.350890920793491"><ele>62.0</ele><time>2026-03-29T13:07:29.001Z</time></trkpt><trkpt lat="45.08418815738976" lon="9.351251617953514"><ele>61.5</ele><time>2026-03-29T13:07:30.001Z</time></trkpt><trkpt lat="45.08419888656458" lon="9.351609435698665"><ele>61.0</ele><time>2026-03-29T13:07:31.001Z</time></trkpt><trkpt lat="45.08421128754712" lon="9.351967828645646"><ele>61.0</ele><time>2026-03-29T13:07:32.001Z</time></trkpt><trkpt lat="45.08422216480196" lon="9.352327747432378"><ele>61.0</ele><time>2026-03-29T13:07:33.001Z</time></trkpt><trkpt lat="45.08423348921211" lon="9.352689472535841"><ele>61.0</ele><time>2026-03-29T13:07:34.001Z</time></trkpt><trkpt lat="45.08424558848964" lon="9.353051866946913"><ele>61.0</ele><time>2026-03-29T13:07:35.001Z</time></trkpt><trkpt lat="45.084259304904116" lon="9.353415438354023"><ele>61.0</ele><time>2026-03-29T13:07:36.001Z</time></trkpt><trkpt lat="45.084271001926325" lon="9.353777465150273"><ele>61.0</ele><time>2026-03-29T13:07:37.001Z</time></trkpt><trkpt lat="45.084279081182935" lon="9.354136899282931"><ele>61.0</ele><time>2026-03-29T13:07:38.001Z</time></trkpt><trkpt lat="45.08428499465519" lon="9.354500193797215"><ele>61.0</ele><time>2026-03-29T13:07:39.001Z</time></trkpt><trkpt lat="45.084299017478884" lon="9.35487139858355"><ele>61.5</ele><time>2026-03-29T13:07:40.001Z</time></trkpt><trkpt lat="45.08431034942504" lon="9.355241496601435"><ele>62.0</ele><time>2026-03-29T13:07:41.001Z</time></trkpt><trkpt lat="45.084323238571805" lon="9.355612587388569"><ele>62.0</ele><time>2026-03-29T13:07:42.001Z</time></trkpt><trkpt lat="45.084331292271806" lon="9.355979982859322"><ele>62.0</ele><time>2026-03-29T13:07:43.001Z</time></trkpt><trkpt lat="45.08434240977881" lon="9.356349556899234"><ele>61.5</ele><time>2026-03-29T13:07:44.001Z</time></trkpt><trkpt lat="45.08435289876913" lon="9.356719045769035"><ele>61.0</ele><time>2026-03-29T13:07:45.001Z</time></trkpt><trkpt lat="45.08436766876397" lon="9.35709021211634"><ele>61.0</ele><time>2026-03-29T13:07:46.001Z</time></trkpt><trkpt lat="45.084381144510616" lon="9.35746292166446"><ele>61.0</ele><time>2026-03-29T13:07:47.001Z</time></trkpt><trkpt lat="45.084391478712575" lon="9.357832799793062"><ele>61.5</ele><time>2026-03-29T13:07:48.001Z</time></trkpt><trkpt lat="45.08440459033777" lon="9.358206635597924"><ele>62.0</ele><time>2026-03-29T13:07:49.001Z</time></trkpt><trkpt lat="45.084417350250924" lon="9.358577754015538"><ele>62.5</ele><time>2026-03-29T13:07:50.001Z</time></trkpt><trkpt lat="45.08443018950091" lon="9.358946640456141"><ele>63.0</ele><time>2026-03-29T13:07:51.001Z</time></trkpt><trkpt lat="45.084441085392704" lon="9.359314483268692"><ele>63.0</ele><time>2026-03-29T13:07:52.001Z</time></trkpt><trkpt lat="45.08444877076541" lon="9.359681113552323"><ele>63.0</ele><time>2026-03-29T13:07:53.001Z</time></trkpt><trkpt lat="45.08446058118805" lon="9.360050309937819"><ele>63.0</ele><time>2026-03-29T13:07:54.001Z</time></trkpt><trkpt lat="45.084470047903665" lon="9.360415198015804"><ele>63.0</ele><time>2026-03-29T13:07:55.002Z</time></trkpt><trkpt lat="45.08448575509477" lon="9.360784766004981"><ele>63.0</ele><time>2026-03-29T13:07:56.002Z</time></trkpt><trkpt lat="45.084502837394396" lon="9.361159797877312"><ele>63.0</ele><time>2026-03-29T13:07:57.002Z</time></trkpt><trkpt lat="45.08451983570463" lon="9.36152811467848"><ele>62.5</ele><time>2026-03-29T13:07:58.002Z</time></trkpt><trkpt lat="45.08453692415659" lon="9.361889901901026"><ele>62.0</ele><time>2026-03-29T13:07:59.002Z</time></trkpt><trkpt lat="45.08454305439935" lon="9.362250322395731"><ele>62.0</ele><time>2026-03-29T13:08:00.002Z</time></trkpt><trkpt lat="45.084559121184576" lon="9.362615088124569"><ele>62.0</ele><time>2026-03-29T13:08:01.002Z</time></trkpt><trkpt lat="45.08457127413627" lon="9.362980995957047"><ele>62.5</ele><time>2026-03-29T13:08:02.002Z</time></trkpt><trkpt lat="45.084581083812296" lon="9.363346869097523"><ele>63.0</ele><time>2026-03-29T13:08:03.002Z</time></trkpt><trkpt lat="45.084600812078705" lon="9.363711684706235"><ele>63.0</ele><time>2026-03-29T13:08:04.002Z</time></trkpt><trkpt lat="45.08461741980756" lon="9.36407166738854"><ele>63.0</ele><time>2026-03-29T13:08:05.002Z</time></trkpt><trkpt lat="45.08463871189405" lon="9.364435830811463"><ele>63.0</ele><time>2026-03-29T13:08:06.002Z</time></trkpt><trkpt lat="45.08465309585583" lon="9.364796051820932"><ele>63.0</ele><time>2026-03-29T13:08:07.002Z</time></trkpt><trkpt lat="45.084665703589636" lon="9.365158117470791"><ele>63.0</ele><time>2026-03-29T13:08:08.002Z</time></trkpt><trkpt lat="45.08467858648649" lon="9.365519121436218"><ele>63.0</ele><time>2026-03-29T13:08:09.002Z</time></trkpt><trkpt lat="45.084699000277574" lon="9.365887746696618"><ele>63.0</ele><time>2026-03-29T13:08:10.002Z</time></trkpt><trkpt lat="45.08471076529267" lon="9.366250808033948"><ele>63.0</ele><time>2026-03-29T13:08:11.002Z</time></trkpt><trkpt lat="45.0847224380892" lon="9.366614805792361"><ele>63.0</ele><time>2026-03-29T13:08:12.002Z</time></trkpt><trkpt lat="45.08473611719255" lon="9.366980040075209"><ele>63.0</ele><time>2026-03-29T13:08:13.002Z</time></trkpt><trkpt lat="45.08474847115533" lon="9.367350448614296"><ele>63.0</ele><time>2026-03-29T13:08:14.002Z</time></trkpt><trkpt lat="45.084768729301736" lon="9.367720207954056"><ele>63.0</ele><time>2026-03-29T13:08:15.002Z</time></trkpt><trkpt lat="45.08478288904825" lon="9.36809065178614"><ele>63.0</ele><time>2026-03-29T13:08:16.002Z</time></trkpt><trkpt lat="45.084795340243964" lon="9.368460083479563"><ele>63.0</ele><time>2026-03-29T13:08:17.002Z</time></trkpt><trkpt lat="45.084811024285884" lon="9.368832048206462"><ele>63.5</ele><time>2026-03-29T13:08:18.002Z</time></trkpt><trkpt lat="45.084825528735806" lon="9.369203884278365"><ele>64.0</ele><time>2026-03-29T13:08:19.002Z</time></trkpt><trkpt lat="45.08484037800051" lon="9.369575667686892"><ele>64.0</ele><time>2026-03-29T13:08:20.002Z</time></trkpt><trkpt lat="45.08485673975119" lon="9.369946496347513"><ele>64.0</ele><time>2026-03-29T13:08:21.002Z</time></trkpt><trkpt lat="45.08487382293206" lon="9.370320833188712"><ele>64.0</ele><time>2026-03-29T13:08:22.002Z</time></trkpt><trkpt lat="45.084890643939765" lon="9.370697068906182"><ele>64.0</ele><time>2026-03-29T13:08:23.002Z</time></trkpt><trkpt lat="45.08490427162747" lon="9.3710687780244"><ele>63.5</ele><time>2026-03-29T13:08:24.002Z</time></trkpt><trkpt lat="45.084919963773686" lon="9.37144253061945"><ele>63.0</ele><time>2026-03-29T13:08:25Z</time></trkpt><trkpt lat="45.08493808449854" lon="9.371816334148319"><ele>62.5</ele><time>2026-03-29T13:08:26Z</time></trkpt><trkpt lat="45.08495552158284" lon="9.37218716449506"><ele>62.0</ele><time>2026-03-29T13:08:27Z</time></trkpt><trkpt lat="45.08497169301989" lon="9.372556783419405"><ele>62.0</ele><time>2026-03-29T13:08:28Z</time></trkpt><trkpt lat="45.084987750347345" lon="9.372925078818218"><ele>62.0</ele><time>2026-03-29T13:08:29Z</time></trkpt><trkpt lat="45.08500180838801" lon="9.37329126853627"><ele>63.0</ele><time>2026-03-29T13:08:30Z</time></trkpt><trkpt lat="45.08501283365327" lon="9.373657135187083"><ele>64.0</ele><time>2026-03-29T13:08:31Z</time></trkpt><trkpt lat="45.08503302525267" lon="9.374023636649198"><ele>64.5</ele><time>2026-03-29T13:08:32Z</time></trkpt><trkpt lat="45.08504739389153" lon="9.374387935424586"><ele>65.0</ele><time>2026-03-29T13:08:33Z</time></trkpt><trkpt lat="45.08506485040657" lon="9.374749061665375"><ele>65.0</ele><time>2026-03-29T13:08:34Z</time></trkpt><trkpt lat="45.08507471914147" lon="9.375111036502924"><ele>65.0</ele><time>2026-03-29T13:08:35Z</time></trkpt><trkpt lat="45.08508086700754" lon="9.375478005919534"><ele>64.0</ele><time>2026-03-29T13:08:36Z</time></trkpt><trkpt lat="45.08509366958868" lon="9.375843472465858"><ele>63.0</ele><time>2026-03-29T13:08:37Z</time></trkpt><trkpt lat="45.08510876404497" lon="9.376210582813215"><ele>63.0</ele><time>2026-03-29T13:08:38Z</time></trkpt><trkpt lat="45.08513356293943" lon="9.376580502739063"><ele>63.0</ele><time>2026-03-29T13:08:39Z</time></trkpt><trkpt lat="45.08515094023596" lon="9.37695289994099"><ele>62.5</ele><time>2026-03-29T13:08:40Z</time></trkpt><trkpt lat="45.08516610876651" lon="9.377323427156242"><ele>62.0</ele><time>2026-03-29T13:08:41Z</time></trkpt><trkpt lat="45.085178140823686" lon="9.37769727999129"><ele>62.0</ele><time>2026-03-29T13:08:42Z</time></trkpt><trkpt lat="45.085187655105145" lon="9.37807173572878"><ele>62.0</ele><time>2026-03-29T13:08:43Z</time></trkpt><trkpt lat="45.08520259264855" lon="9.378450205016085"><ele>62.0</ele><time>2026-03-29T13:08:44Z</time></trkpt><trkpt lat="45.08522477695255" lon="9.378829907914406"><ele>62.0</ele><time>2026-03-29T13:08:45Z</time></trkpt><trkpt lat="45.08524517725725" lon="9.379205931231912"><ele>62.0</ele><time>2026-03-29T13:08:46Z</time></trkpt><trkpt lat="45.085259496216594" lon="9.37957766923055"><ele>62.0</ele><time>2026-03-29T13:08:47Z</time></trkpt><trkpt lat="45.08527091062368" lon="9.379945118804391"><ele>62.0</ele><time>2026-03-29T13:08:48Z</time></trkpt><trkpt lat="45.085281294925046" lon="9.380315128390562"><ele>62.0</ele><time>2026-03-29T13:08:49Z</time></trkpt><trkpt lat="45.08529781926581" lon="9.380684437949034"><ele>62.0</ele><time>2026-03-29T13:08:50Z</time></trkpt><trkpt lat="45.08531358610606" lon="9.381053207455357"><ele>62.0</ele><time>2026-03-29T13:08:51Z</time></trkpt><trkpt lat="45.08533082183496" lon="9.381420026308849"><ele>62.0</ele><time>2026-03-29T13:08:52Z</time></trkpt><trkpt lat="45.0853408294162" lon="9.381789318867341"><ele>62.0</ele><time>2026-03-29T13:08:53Z</time></trkpt><trkpt lat="45.08535939212529" lon="9.382160937252184"><ele>62.0</ele><time>2026-03-29T13:08:54Z</time></trkpt><trkpt lat="45.08537288144611" lon="9.382532735338446"><ele>62.0</ele><time>2026-03-29T13:08:55Z</time></trkpt><trkpt lat="45.08538875889023" lon="9.38290196127335"><ele>61.0</ele><time>2026-03-29T13:08:56Z</time></trkpt><trkpt lat="45.085407567104845" lon="9.38327326754119"><ele>60.0</ele><time>2026-03-29T13:08:57Z</time></trkpt><trkpt lat="45.08542816392126" lon="9.383644627629506"><ele>60.5</ele><time>2026-03-29T13:08:58Z</time></trkpt><trkpt lat="45.085442837602294" lon="9.384011428709579"><ele>61.0</ele><time>2026-03-29T13:08:59Z</time></trkpt><trkpt lat="45.0854560572716" lon="9.384380713098972"><ele>62.0</ele><time>2026-03-29T13:09:00Z</time></trkpt><trkpt lat="45.08546781051245" lon="9.384749859849336"><ele>63.0</ele><time>2026-03-29T13:09:01Z</time></trkpt><trkpt lat="45.085472856358514" lon="9.385117786164273"><ele>63.0</ele><time>2026-03-29T13:09:02Z</time></trkpt><trkpt lat="45.08547043957204" lon="9.385491628371557"><ele>63.0</ele><time>2026-03-29T13:09:03.001Z</time></trkpt><trkpt lat="45.08546598637949" lon="9.385860120020713"><ele>62.0</ele><time>2026-03-29T13:09:04.001Z</time></trkpt><trkpt lat="45.08545542980647" lon="9.386229621486454"><ele>61.0</ele><time>2026-03-29T13:09:05.001Z</time></trkpt><trkpt lat="45.08544524029405" lon="9.386601230752557"><ele>60.5</ele><time>2026-03-29T13:09:06.001Z</time></trkpt><trkpt lat="45.08543043578687" lon="9.38697172070753"><ele>60.0</ele><time>2026-03-29T13:09:07.001Z</time></trkpt><trkpt lat="45.085414459339844" lon="9.387342837179531"><ele>59.5</ele><time>2026-03-29T13:09:08.001Z</time></trkpt><trkpt lat="45.08539063294745" lon="9.387713519373563"><ele>59.0</ele><time>2026-03-29T13:09:09.001Z</time></trkpt><trkpt lat="45.08536161170641" lon="9.388080481168995"><ele>58.5</ele><time>2026-03-29T13:09:10.001Z</time></trkpt><trkpt lat="45.08533155215425" lon="9.388453570631713"><ele>58.0</ele><time>2026-03-29T13:09:11.001Z</time></trkpt><trkpt lat="45.08529387198038" lon="9.388823580851954"><ele>58.0</ele><time>2026-03-29T13:09:12.001Z</time></trkpt><trkpt lat="45.085254206140895" lon="9.389194404430892"><ele>58.0</ele><time>2026-03-29T13:09:13.001Z</time></trkpt><trkpt lat="45.08521539583077" lon="9.389565487792048"><ele>58.5</ele><time>2026-03-29T13:09:14.001Z</time></trkpt><trkpt lat="45.085168072262654" lon="9.389934120089373"><ele>59.0</ele><time>2026-03-29T13:09:15.001Z</time></trkpt><trkpt lat="45.085120838805416" lon="9.390303943697498"><ele>58.5</ele><time>2026-03-29T13:09:16.001Z</time></trkpt><trkpt lat="45.08506660042731" lon="9.390668209694725"><ele>58.0</ele><time>2026-03-29T13:09:17.001Z</time></trkpt><trkpt lat="45.08501179650423" lon="9.391033135314645"><ele>58.0</ele><time>2026-03-29T13:09:18.001Z</time></trkpt><trkpt lat="45.08495161386393" lon="9.39139371343995"><ele>58.0</ele><time>2026-03-29T13:09:19.001Z</time></trkpt><trkpt lat="45.08488797528605" lon="9.391751672924718"><ele>58.0</ele><time>2026-03-29T13:09:20.001Z</time></trkpt><trkpt lat="45.084821148742954" lon="9.392109512870656"><ele>58.0</ele><time>2026-03-29T13:09:21.001Z</time></trkpt><trkpt lat="45.08475107208434" lon="9.392466638319249"><ele>58.0</ele><time>2026-03-29T13:09:22.001Z</time></trkpt><trkpt lat="45.08467155047666" lon="9.392815838126296"><ele>58.0</ele><time>2026-03-29T13:09:23.001Z</time></trkpt><trkpt lat="45.08459433354028" lon="9.393166032049354"><ele>58.0</ele><time>2026-03-29T13:09:24.001Z</time></trkpt><trkpt lat="45.08450602701899" lon="9.393513377865842"><ele>58.0</ele><time>2026-03-29T13:09:25.001Z</time></trkpt><trkpt lat="45.0844261062857" lon="9.39386252182481"><ele>58.0</ele><time>2026-03-29T13:09:26.001Z</time></trkpt><trkpt lat="45.08433579157827" lon="9.394212722060836"><ele>58.0</ele><time>2026-03-29T13:09:27.001Z</time></trkpt><trkpt lat="45.08424196634012" lon="9.394559256618924"><ele>58.5</ele><time>2026-03-29T13:09:28.001Z</time></trkpt><trkpt lat="45.0841452512791" lon="9.394902745830281"><ele>59.0</ele><time>2026-03-29T13:09:29.001Z</time></trkpt><trkpt lat="45.08404871353112" lon="9.39524687403044"><ele>61.5</ele><time>2026-03-29T13:09:30.001Z</time></trkpt><trkpt lat="45.08394776182101" lon="9.395591445236956"><ele>64.0</ele><time>2026-03-29T13:09:31.001Z</time></trkpt><trkpt lat="45.083848199548044" lon="9.395937774654344"><ele>64.0</ele><time>2026-03-29T13:09:32.001Z</time></trkpt><trkpt lat="45.08374870388882" lon="9.396288798839986"><ele>64.0</ele><time>2026-03-29T13:09:33.001Z</time></trkpt><trkpt lat="45.08365442687617" lon="9.396638067110958"><ele>62.5</ele><time>2026-03-29T13:09:34.001Z</time></trkpt><trkpt lat="45.08356562387353" lon="9.396992078559263"><ele>61.0</ele><time>2026-03-29T13:09:35.001Z</time></trkpt><trkpt lat="45.08347919869897" lon="9.397343094581423"><ele>60.5</ele><time>2026-03-29T13:09:36.001Z</time></trkpt><trkpt lat="45.083392432624166" lon="9.397693256505477"><ele>60.0</ele><time>2026-03-29T13:09:37.001Z</time></trkpt><trkpt lat="45.08331231249044" lon="9.398045144522698"><ele>60.0</ele><time>2026-03-29T13:09:38.001Z</time></trkpt><trkpt lat="45.08323470555388" lon="9.398396594949753"><ele>60.0</ele><time>2026-03-29T13:09:39.001Z</time></trkpt><trkpt lat="45.08315311492584" lon="9.398742809055767"><ele>60.0</ele><time>2026-03-29T13:09:40.001Z</time></trkpt><trkpt lat="45.08307705309996" lon="9.39909148982875"><ele>60.0</ele><time>2026-03-29T13:09:41.001Z</time></trkpt><trkpt lat="45.08300515048782" lon="9.399439231246333"><ele>60.0</ele><time>2026-03-29T13:09:42.001Z</time></trkpt><trkpt lat="45.08293328559906" lon="9.399784275551577"><ele>60.0</ele><time>2026-03-29T13:09:43.001Z</time></trkpt><trkpt lat="45.08286959787642" lon="9.40013356956475"><ele>60.0</ele><time>2026-03-29T13:09:44.001Z</time></trkpt><trkpt lat="45.08280573390986" lon="9.400481403542637"><ele>60.0</ele><time>2026-03-29T13:09:45.001Z</time></trkpt><trkpt lat="45.082741610864105" lon="9.400826437289982"><ele>60.5</ele><time>2026-03-29T13:09:46.001Z</time></trkpt><trkpt lat="45.082683337665344" lon="9.401169645003485"><ele>61.0</ele><time>2026-03-29T13:09:47.001Z</time></trkpt><trkpt lat="45.08262728761619" lon="9.40150837101926"><ele>61.0</ele><time>2026-03-29T13:09:48.001Z</time></trkpt><trkpt lat="45.08257406749546" lon="9.401850062145165"><ele>61.0</ele><time>2026-03-29T13:09:49.001Z</time></trkpt><trkpt lat="45.082522931438774" lon="9.402190736301096"><ele>60.0</ele><time>2026-03-29T13:09:50.001Z</time></trkpt><trkpt lat="45.08247554382343" lon="9.402533049954345"><ele>59.0</ele><time>2026-03-29T13:09:51.001Z</time></trkpt><trkpt lat="45.0824324552815" lon="9.40287999902924"><ele>59.0</ele><time>2026-03-29T13:09:52.001Z</time></trkpt><trkpt lat="45.0823884789804" lon="9.403229266444194"><ele>59.0</ele><time>2026-03-29T13:09:53.001Z</time></trkpt><trkpt lat="45.082344421744615" lon="9.403582189244906"><ele>59.0</ele><time>2026-03-29T13:09:54.001Z</time></trkpt><trkpt lat="45.08229893902366" lon="9.40393703571155"><ele>59.0</ele><time>2026-03-29T13:09:55.001Z</time></trkpt><trkpt lat="45.082255359362854" lon="9.404291880151105"><ele>59.0</ele><time>2026-03-29T13:09:56.001Z</time></trkpt><trkpt lat="45.08220970193711" lon="9.40464868475837"><ele>59.0</ele><time>2026-03-29T13:09:57.001Z</time></trkpt><trkpt lat="45.08216931679529" lon="9.40504077449888"><ele>59.0</ele><time>2026-03-29T13:09:58.001Z</time></trkpt><trkpt lat="45.082121896660965" lon="9.405448064906302"><ele>59.0</ele><time>2026-03-29T13:09:59.001Z</time></trkpt><trkpt lat="45.082078801634154" lon="9.405868597695214"><ele>59.0</ele><time>2026-03-29T13:10:00.001Z</time></trkpt><trkpt lat="45.08203075123299" lon="9.406290225706773"><ele>59.0</ele><time>2026-03-29T13:10:01.001Z</time></trkpt><trkpt lat="45.081982686982634" lon="9.406702939487"><ele>59.5</ele><time>2026-03-29T13:10:02.001Z</time></trkpt><trkpt lat="45.081929816556425" lon="9.407100468731498"><ele>60.0</ele><time>2026-03-29T13:10:03.001Z</time></trkpt><trkpt lat="45.08187097900859" lon="9.407502325542621"><ele>60.5</ele><time>2026-03-29T13:10:04.001Z</time></trkpt><trkpt lat="45.081808445098645" lon="9.407900713063814"><ele>61.0</ele><time>2026-03-29T13:10:05.001Z</time></trkpt><trkpt lat="45.08174451870458" lon="9.408302341739514"><ele>62.0</ele><time>2026-03-29T13:10:06.001Z</time></trkpt><trkpt lat="45.08168609718347" lon="9.408704845917852"><ele>63.0</ele><time>2026-03-29T13:10:07.001Z</time></trkpt><trkpt lat="45.08163209439602" lon="9.409101251337507"><ele>62.0</ele><time>2026-03-29T13:10:08.002Z</time></trkpt><trkpt lat="45.08158518401251" lon="9.409506723730361"><ele>61.0</ele><time>2026-03-29T13:10:09.002Z</time></trkpt><trkpt lat="45.08153219953413" lon="9.409889883412895"><ele>61.0</ele><time>2026-03-29T13:10:10.002Z</time></trkpt><trkpt lat="45.08148342811682" lon="9.410281521071154"><ele>61.0</ele><time>2026-03-29T13:10:11.002Z</time></trkpt><trkpt lat="45.08143393809398" lon="9.410670303258016"><ele>61.0</ele><time>2026-03-29T13:10:12.002Z</time></trkpt><trkpt lat="45.08138773103219" lon="9.411055762922086"><ele>61.0</ele><time>2026-03-29T13:10:13.002Z</time></trkpt><trkpt lat="45.08133966995114" lon="9.41144271896021"><ele>60.5</ele><time>2026-03-29T13:10:14.002Z</time></trkpt><trkpt lat="45.08129235353818" lon="9.411826930239194"><ele>60.0</ele><time>2026-03-29T13:10:15.002Z</time></trkpt><trkpt lat="45.08124246291589" lon="9.412217556329676"><ele>61.0</ele><time>2026-03-29T13:10:16.002Z</time></trkpt><trkpt lat="45.081192764639404" lon="9.412608856508923"><ele>62.0</ele><time>2026-03-29T13:10:17.002Z</time></trkpt><trkpt lat="45.081142516406935" lon="9.413002111147163"><ele>62.5</ele><time>2026-03-29T13:10:18.002Z</time></trkpt><trkpt lat="45.08108875065458" lon="9.413397219023464"><ele>63.0</ele><time>2026-03-29T13:10:19.002Z</time></trkpt><trkpt lat="45.081036323648775" lon="9.413788166340007"><ele>62.5</ele><time>2026-03-29T13:10:20.002Z</time></trkpt><trkpt lat="45.080984724110664" lon="9.414180708486857"><ele>62.0</ele><time>2026-03-29T13:10:21.002Z</time></trkpt><trkpt lat="45.08093407182816" lon="9.414573697819387"><ele>61.5</ele><time>2026-03-29T13:10:22.002Z</time></trkpt><trkpt lat="45.080882900567794" lon="9.414970556132106"><ele>61.0</ele><time>2026-03-29T13:10:23.002Z</time></trkpt><trkpt lat="45.08083349464532" lon="9.41536629440183"><ele>62.5</ele><time>2026-03-29T13:10:24.002Z</time></trkpt><trkpt lat="45.08078122651624" lon="9.415759939543143"><ele>64.0</ele><time>2026-03-29T13:10:25.002Z</time></trkpt><trkpt lat="45.08072924782779" lon="9.4161590600315"><ele>63.5</ele><time>2026-03-29T13:10:26.002Z</time></trkpt><trkpt lat="45.080678639557426" lon="9.41655222812409"><ele>63.0</ele><time>2026-03-29T13:10:27.002Z</time></trkpt><trkpt lat="45.0806301409823" lon="9.416951318555082"><ele>62.5</ele><time>2026-03-29T13:10:28.002Z</time></trkpt><trkpt lat="45.080579824144635" lon="9.417348707117974"><ele>62.0</ele><time>2026-03-29T13:10:29.002Z</time></trkpt><trkpt lat="45.08053111918894" lon="9.417746226283874"><ele>61.5</ele><time>2026-03-29T13:10:30.002Z</time></trkpt><trkpt lat="45.080478938825856" lon="9.418144081350091"><ele>61.0</ele><time>2026-03-29T13:10:31Z</time></trkpt><trkpt lat="45.08042734658438" lon="9.41853938262607"><ele>61.0</ele><time>2026-03-29T13:10:32Z</time></trkpt><trkpt lat="45.08037479440567" lon="9.41893073657827"><ele>61.0</ele><time>2026-03-29T13:10:33Z</time></trkpt><trkpt lat="45.08032371826544" lon="9.41931757362543"><ele>61.0</ele><time>2026-03-29T13:10:34Z</time></trkpt><trkpt lat="45.080274662741516" lon="9.419704273234178"><ele>61.0</ele><time>2026-03-29T13:10:35Z</time></trkpt><trkpt lat="45.080226893416445" lon="9.420088452475776"><ele>61.0</ele><time>2026-03-29T13:10:36Z</time></trkpt><trkpt lat="45.08018015873086" lon="9.420467962126747"><ele>61.0</ele><time>2026-03-29T13:10:37Z</time></trkpt><trkpt lat="45.08013339414416" lon="9.42085074778541"><ele>61.0</ele><time>2026-03-29T13:10:38Z</time></trkpt><trkpt lat="45.08008486929933" lon="9.421229123825654"><ele>61.0</ele><time>2026-03-29T13:10:39Z</time></trkpt><trkpt lat="45.08003414727414" lon="9.421607365154205"><ele>61.0</ele><time>2026-03-29T13:10:40Z</time></trkpt><trkpt lat="45.07998379982724" lon="9.421991948930676"><ele>61.0</ele><time>2026-03-29T13:10:41Z</time></trkpt><trkpt lat="45.07993345661659" lon="9.422371852162478"><ele>60.5</ele><time>2026-03-29T13:10:42Z</time></trkpt><trkpt lat="45.07988319168242" lon="9.422750595149298"><ele>60.0</ele><time>2026-03-29T13:10:43Z</time></trkpt><trkpt lat="45.07983397242172" lon="9.423134558108346"><ele>60.0</ele><time>2026-03-29T13:10:44Z</time></trkpt><trkpt lat="45.079785557811384" lon="9.423510751929763"><ele>60.0</ele><time>2026-03-29T13:10:45Z</time></trkpt><trkpt lat="45.07973852282859" lon="9.42388738079143"><ele>60.0</ele><time>2026-03-29T13:10:46Z</time></trkpt><trkpt lat="45.07969162108015" lon="9.424261266837272"><ele>60.0</ele><time>2026-03-29T13:10:47Z</time></trkpt><trkpt lat="45.0796427602391" lon="9.424635225022614"><ele>59.0</ele><time>2026-03-29T13:10:48Z</time></trkpt><trkpt lat="45.07959516061355" lon="9.425012130019777"><ele>58.0</ele><time>2026-03-29T13:10:49Z</time></trkpt><trkpt lat="45.07954872044996" lon="9.425386548381026"><ele>58.0</ele><time>2026-03-29T13:10:50Z</time></trkpt><trkpt lat="45.079503063552494" lon="9.425756944001904"><ele>58.0</ele><time>2026-03-29T13:10:51Z</time></trkpt><trkpt lat="45.07945419857396" lon="9.42613351429126"><ele>59.5</ele><time>2026-03-29T13:10:52Z</time></trkpt><trkpt lat="45.07940421594783" lon="9.42651247998087"><ele>61.0</ele><time>2026-03-29T13:10:53Z</time></trkpt><trkpt lat="45.07935568195768" lon="9.426894834104449"><ele>61.0</ele><time>2026-03-29T13:10:54Z</time></trkpt><trkpt lat="45.07930897048653" lon="9.427276492323909"><ele>61.0</ele><time>2026-03-29T13:10:55Z</time></trkpt><trkpt lat="45.0792587614967" lon="9.427662077656082"><ele>60.0</ele><time>2026-03-29T13:10:56Z</time></trkpt><trkpt lat="45.0792070758846" lon="9.42804521149995"><ele>59.0</ele><time>2026-03-29T13:10:57Z</time></trkpt><trkpt lat="45.07916093311176" lon="9.42842459743498"><ele>59.0</ele><time>2026-03-29T13:10:58Z</time></trkpt><trkpt lat="45.07911186016813" lon="9.42880441410783"><ele>59.0</ele><time>2026-03-29T13:10:59Z</time></trkpt><trkpt lat="45.079062300452875" lon="9.429182932808786"><ele>59.0</ele><time>2026-03-29T13:11:00Z</time></trkpt><trkpt lat="45.07901057053941" lon="9.429564810798944"><ele>59.0</ele><time>2026-03-29T13:11:01Z</time></trkpt><trkpt lat="45.07895944839246" lon="9.429944601626726"><ele>59.0</ele><time>2026-03-29T13:11:02Z</time></trkpt><trkpt lat="45.07890303565423" lon="9.430328876540788"><ele>59.0</ele><time>2026-03-29T13:11:03Z</time></trkpt><trkpt lat="45.07884501264177" lon="9.430709379824993"><ele>59.0</ele><time>2026-03-29T13:11:04Z</time></trkpt><trkpt lat="45.078783328418595" lon="9.431092555722525"><ele>59.0</ele><time>2026-03-29T13:11:05Z</time></trkpt><trkpt lat="45.07872149967851" lon="9.43147335466782"><ele>58.0</ele><time>2026-03-29T13:11:06Z</time></trkpt><trkpt lat="45.07865861171135" lon="9.431856445212736"><ele>57.0</ele><time>2026-03-29T13:11:07.001Z</time></trkpt><trkpt lat="45.078593197889674" lon="9.432238831922767"><ele>57.0</ele><time>2026-03-29T13:11:08.001Z</time></trkpt><trkpt lat="45.07852975066724" lon="9.432617506984567"><ele>57.0</ele><time>2026-03-29T13:11:09.001Z</time></trkpt><trkpt lat="45.07846324022479" lon="9.432998273084856"><ele>57.0</ele><time>2026-03-29T13:11:10.001Z</time></trkpt><trkpt lat="45.07839399853868" lon="9.43337331546645"><ele>57.0</ele><time>2026-03-29T13:11:11.001Z</time></trkpt><trkpt lat="45.078322422079935" lon="9.433752395539623"><ele>57.0</ele><time>2026-03-29T13:11:12.001Z</time></trkpt><trkpt lat="45.07824901997577" lon="9.434125022203174"><ele>57.0</ele><time>2026-03-29T13:11:13.001Z</time></trkpt><trkpt lat="45.07817116148276" lon="9.434503252698196"><ele>57.0</ele><time>2026-03-29T13:11:14.001Z</time></trkpt><trkpt lat="45.078095780767" lon="9.434873157181382"><ele>57.0</ele><time>2026-03-29T13:11:15.001Z</time></trkpt><trkpt lat="45.078021023015864" lon="9.435245931561731"><ele>57.0</ele><time>2026-03-29T13:11:16.001Z</time></trkpt><trkpt lat="45.077946915390974" lon="9.435610338627164"><ele>57.0</ele><time>2026-03-29T13:11:17.001Z</time></trkpt><trkpt lat="45.077873065460984" lon="9.435967259631942"><ele>58.0</ele><time>2026-03-29T13:11:18.001Z</time></trkpt><trkpt lat="45.07780026933962" lon="9.436320541815489"><ele>59.0</ele><time>2026-03-29T13:11:19.001Z</time></trkpt><trkpt lat="45.07772981730198" lon="9.436668324117333"><ele>59.0</ele><time>2026-03-29T13:11:20.001Z</time></trkpt><trkpt lat="45.0776588546665" lon="9.437018479441322"><ele>59.0</ele><time>2026-03-29T13:11:21.001Z</time></trkpt><trkpt lat="45.07758684832426" lon="9.437378968237251"><ele>59.0</ele><time>2026-03-29T13:11:22.001Z</time></trkpt><trkpt lat="45.07751524391849" lon="9.437719064921232"><ele>59.0</ele><time>2026-03-29T13:11:23.001Z</time></trkpt><trkpt lat="45.077443418480364" lon="9.438066238740465"><ele>60.5</ele><time>2026-03-29T13:11:24.001Z</time></trkpt><trkpt lat="45.07737065843421" lon="9.43842259377905"><ele>62.0</ele><time>2026-03-29T13:11:25.001Z</time></trkpt><trkpt lat="45.07730067745848" lon="9.438772499930321"><ele>60.0</ele><time>2026-03-29T13:11:26.001Z</time></trkpt><trkpt lat="45.07722859702278" lon="9.439132337810255"><ele>58.0</ele><time>2026-03-29T13:11:27.001Z</time></trkpt><trkpt lat="45.07715738059794" lon="9.43948718880772"><ele>58.5</ele><time>2026-03-29T13:11:28.001Z</time></trkpt><trkpt lat="45.077087680408304" lon="9.439842441658438"><ele>59.0</ele><time>2026-03-29T13:11:29.001Z</time></trkpt><trkpt lat="45.07701805364614" lon="9.440191138699786"><ele>58.5</ele><time>2026-03-29T13:11:30.001Z</time></trkpt><trkpt lat="45.07694914686582" lon="9.440544434434878"><ele>58.0</ele><time>2026-03-29T13:11:31.001Z</time></trkpt><trkpt lat="45.076882612311" lon="9.440905887152457"><ele>58.0</ele><time>2026-03-29T13:11:32.001Z</time></trkpt><trkpt lat="45.0768226232848" lon="9.441246855686613"><ele>58.0</ele><time>2026-03-29T13:11:33.001Z</time></trkpt><trkpt lat="45.076758460020464" lon="9.44159841695635"><ele>58.0</ele><time>2026-03-29T13:11:34.001Z</time></trkpt><trkpt lat="45.07669823071217" lon="9.441950867087384"><ele>58.0</ele><time>2026-03-29T13:11:35.001Z</time></trkpt><trkpt lat="45.0766386626913" lon="9.442303277865395"><ele>59.0</ele><time>2026-03-29T13:11:36.001Z</time></trkpt><trkpt lat="45.0765821415964" lon="9.442652395747167"><ele>60.0</ele><time>2026-03-29T13:11:37.001Z</time></trkpt><trkpt lat="45.076521942277935" lon="9.443002987097088"><ele>60.0</ele><time>2026-03-29T13:11:38.001Z</time></trkpt><trkpt lat="45.076464119555645" lon="9.443355660138794"><ele>60.0</ele><time>2026-03-29T13:11:39.001Z</time></trkpt><trkpt lat="45.076407073976206" lon="9.443704054449164"><ele>59.5</ele><time>2026-03-29T13:11:40.001Z</time></trkpt><trkpt lat="45.07635561227189" lon="9.44405134955087"><ele>59.0</ele><time>2026-03-29T13:11:41.001Z</time></trkpt><trkpt lat="45.076307241843466" lon="9.44440035080343"><ele>58.5</ele><time>2026-03-29T13:11:42.001Z</time></trkpt><trkpt lat="45.076257596655" lon="9.444751825337036"><ele>58.0</ele><time>2026-03-29T13:11:43.001Z</time></trkpt><trkpt lat="45.07621371933943" lon="9.44509254728402"><ele>58.0</ele><time>2026-03-29T13:11:44.001Z</time></trkpt><trkpt lat="45.0761673789245" lon="9.445429218552224"><ele>58.0</ele><time>2026-03-29T13:11:45.001Z</time></trkpt><trkpt lat="45.07611979894959" lon="9.445753359390942"><ele>57.5</ele><time>2026-03-29T13:11:46.001Z</time></trkpt><trkpt lat="45.076075414581034" lon="9.446071019873896"><ele>57.0</ele><time>2026-03-29T13:11:47.001Z</time></trkpt><trkpt lat="45.07603411112525" lon="9.4463798648167"><ele>57.0</ele><time>2026-03-29T13:11:48.001Z</time></trkpt><trkpt lat="45.07599442981221" lon="9.446682080304202"><ele>57.0</ele><time>2026-03-29T13:11:49.001Z</time></trkpt><trkpt lat="45.07595586371929" lon="9.446974055314545"><ele>57.0</ele><time>2026-03-29T13:11:50.001Z</time></trkpt><trkpt lat="45.07591801246859" lon="9.44725197923855"><ele>57.66666666666667</ele><time>2026-03-29T13:11:51.001Z</time></trkpt><trkpt lat="45.07588482935574" lon="9.447505391228265"><ele>58.333333333333336</ele><time>2026-03-29T13:11:52.001Z</time></trkpt><trkpt lat="45.07585251297409" lon="9.447755639034828"><ele>59.0</ele><time>2026-03-29T13:11:53.001Z</time></trkpt><trkpt lat="45.07582206004839" lon="9.44799030624555"><ele>59.25</ele><time>2026-03-29T13:11:54.001Z</time></trkpt><trkpt lat="45.075786679007855" lon="9.448215243174047"><ele>59.5</ele><time>2026-03-29T13:11:55.001Z</time></trkpt><trkpt lat="45.07575311545343" lon="9.448427702034518"><ele>59.75</ele><time>2026-03-29T13:11:56.001Z</time></trkpt><trkpt lat="45.07569549998897" lon="9.448594080977951"><ele>60.0</ele><time>2026-03-29T13:11:57.001Z</time></trkpt><trkpt lat="45.07561320550416" lon="9.448741170480737"><ele>59.5</ele><time>2026-03-29T13:11:58.001Z</time></trkpt><trkpt lat="45.075524860063155" lon="9.448878930427902"><ele>59.0</ele><time>2026-03-29T13:11:59.001Z</time></trkpt><trkpt lat="45.07542626239099" lon="9.448989891911108"><ele>58.5</ele><time>2026-03-29T13:12:00.001Z</time></trkpt><trkpt lat="45.075321296007296" lon="9.449074070351891"><ele>58.0</ele><time>2026-03-29T13:12:01.001Z</time></trkpt><trkpt lat="45.07520842455309" lon="9.449125362840478"><ele>58.0</ele><time>2026-03-29T13:12:02.001Z</time></trkpt><trkpt lat="45.07508426619312" lon="9.449154027095753"><ele>58.0</ele><time>2026-03-29T13:12:03.001Z</time></trkpt><trkpt lat="45.07495491372667" lon="9.449147349101407"><ele>58.0</ele><time>2026-03-29T13:12:04.001Z</time></trkpt><trkpt lat="45.07482484855837" lon="9.449118624199679"><ele>58.0</ele><time>2026-03-29T13:12:05.001Z</time></trkpt><trkpt lat="45.074704922203495" lon="9.4491125718936"><ele>58.0</ele><time>2026-03-29T13:12:06.001Z</time></trkpt><trkpt lat="45.07459647763648" lon="9.449143460731431"><ele>58.0</ele><time>2026-03-29T13:12:07.001Z</time></trkpt><trkpt lat="45.074485576427335" lon="9.449213193896925"><ele>58.0</ele><time>2026-03-29T13:12:08.001Z</time></trkpt><trkpt lat="45.07438460273129" lon="9.449308127476694"><ele>58.0</ele><time>2026-03-29T13:12:09.001Z</time></trkpt><trkpt lat="45.07428943173593" lon="9.449434464069535"><ele>58.0</ele><time>2026-03-29T13:12:10.001Z</time></trkpt><trkpt lat="45.074204939250436" lon="9.4495768163079"><ele>58.0</ele><time>2026-03-29T13:12:11.001Z</time></trkpt><trkpt lat="45.07414578844002" lon="9.44973040408408"><ele>58.0</ele><time>2026-03-29T13:12:12.002Z</time></trkpt><trkpt lat="45.07411132179318" lon="9.449893359203742"><ele>58.0</ele><time>2026-03-29T13:12:13.002Z</time></trkpt><trkpt lat="45.07410174708609" lon="9.450070166203364"><ele>57.5</ele><time>2026-03-29T13:12:14.002Z</time></trkpt><trkpt lat="45.07412298511021" lon="9.450271180035246"><ele>57.0</ele><time>2026-03-29T13:12:15.002Z</time></trkpt><trkpt lat="45.07416169365557" lon="9.4504551487119"><ele>56.5</ele><time>2026-03-29T13:12:16.002Z</time></trkpt><trkpt lat="45.0742208989922" lon="9.450637165034214"><ele>56.0</ele><time>2026-03-29T13:12:17.002Z</time></trkpt><trkpt lat="45.074309467564376" lon="9.450791250135829"><ele>56.0</ele><time>2026-03-29T13:12:18.002Z</time></trkpt><trkpt lat="45.07441979696888" lon="9.45092291583469"><ele>56.0</ele><time>2026-03-29T13:12:19.002Z</time></trkpt><trkpt lat="45.07454807385461" lon="9.451021360179933"><ele>56.0</ele><time>2026-03-29T13:12:20.002Z</time></trkpt><trkpt lat="45.0746892458218" lon="9.45108421530994"><ele>56.0</ele><time>2026-03-29T13:12:21.002Z</time></trkpt><trkpt lat="45.07484321395565" lon="9.451118799953454"><ele>56.333333333333336</ele><time>2026-03-29T13:12:22.002Z</time></trkpt><trkpt lat="45.075011990364224" lon="9.451149183912301"><ele>56.66666666666667</ele><time>2026-03-29T13:12:23.002Z</time></trkpt><trkpt lat="45.075176898226495" lon="9.451183475848136"><ele>57.0</ele><time>2026-03-29T13:12:24.002Z</time></trkpt><trkpt lat="45.075326764111374" lon="9.451218808473989"><ele>57.0</ele><time>2026-03-29T13:12:25.002Z</time></trkpt><trkpt lat="45.07547456676455" lon="9.451256757537756"><ele>57.0</ele><time>2026-03-29T13:12:26.002Z</time></trkpt><trkpt lat="45.075616182270146" lon="9.451294474356422"><ele>57.0</ele><time>2026-03-29T13:12:27.002Z</time></trkpt><trkpt lat="45.07575989799788" lon="9.451328104682243"><ele>57.0</ele><time>2026-03-29T13:12:28.002Z</time></trkpt><trkpt lat="45.07590465784985" lon="9.45136029815128"><ele>56.5</ele><time>2026-03-29T13:12:29.002Z</time></trkpt><trkpt lat="45.076048395595365" lon="9.451380267975573"><ele>56.0</ele><time>2026-03-29T13:12:30.002Z</time></trkpt><trkpt lat="45.07619432125838" lon="9.45138265917237"><ele>55.5</ele><time>2026-03-29T13:12:31.002Z</time></trkpt><trkpt lat="45.076335990325575" lon="9.451372063316672"><ele>55.0</ele><time>2026-03-29T13:12:32.002Z</time></trkpt><trkpt lat="45.076471965155825" lon="9.451347968756046"><ele>55.0</ele><time>2026-03-29T13:12:33.002Z</time></trkpt><trkpt lat="45.07660104581308" lon="9.451314793557442"><ele>55.0</ele><time>2026-03-29T13:12:34.002Z</time></trkpt><trkpt lat="45.076724455940386" lon="9.451276310477882"><ele>55.0</ele><time>2026-03-29T13:12:35.002Z</time></trkpt><trkpt lat="45.076840968635445" lon="9.451233689495783"><ele>55.0</ele><time>2026-03-29T13:12:36.002Z</time></trkpt><trkpt lat="45.076952276519066" lon="9.45118665328585"><ele>55.4</ele><time>2026-03-29T13:12:37Z</time></trkpt><trkpt lat="45.077058579271224" lon="9.451140628339498"><ele>55.8</ele><time>2026-03-29T13:12:38Z</time></trkpt><trkpt lat="45.077165952288745" lon="9.451093880665045"><ele>56.2</ele><time>2026-03-29T13:12:39Z</time></trkpt><trkpt lat="45.077270460927075" lon="9.451050653674077"><ele>56.6</ele><time>2026-03-29T13:12:40Z</time></trkpt><trkpt lat="45.07737229431996" lon="9.451015871943497"><ele>57.0</ele><time>2026-03-29T13:12:41Z</time></trkpt><trkpt lat="45.07745824675058" lon="9.450942226445461"><ele>57.0</ele><time>2026-03-29T13:12:42Z</time></trkpt><trkpt lat="45.0775455180745" lon="9.450885484237999"><ele>57.0</ele><time>2026-03-29T13:12:43Z</time></trkpt><trkpt lat="45.07762642755937" lon="9.45083221621993"><ele>57.0</ele><time>2026-03-29T13:12:44Z</time></trkpt><trkpt lat="45.0777020633922" lon="9.450782265636018"><ele>57.0</ele><time>2026-03-29T13:12:45Z</time></trkpt><trkpt lat="45.07777461217872" lon="9.450734353774807"><ele>57.0</ele><time>2026-03-29T13:12:46Z</time></trkpt><trkpt lat="45.07784341861741" lon="9.450688913380462"><ele>57.0</ele><time>2026-03-29T13:12:47Z</time></trkpt><trkpt lat="45.07791003795791" lon="9.450644396407984"><ele>57.0</ele><time>2026-03-29T13:12:48Z</time></trkpt><trkpt lat="45.07797258876495" lon="9.450603168566014"><ele>57.0</ele><time>2026-03-29T13:12:49Z</time></trkpt><trkpt lat="45.078048979629195" lon="9.45055215390361"><ele>57.0</ele><time>2026-03-29T13:12:50Z</time></trkpt><trkpt lat="45.07812870907869" lon="9.450497779257143"><ele>57.0</ele><time>2026-03-29T13:12:51Z</time></trkpt><trkpt lat="45.07822287403122" lon="9.450431571700394"><ele>57.0</ele><time>2026-03-29T13:12:52Z</time></trkpt><trkpt lat="45.07832979065328" lon="9.450353162391943"><ele>56.75</ele><time>2026-03-29T13:12:53Z</time></trkpt><trkpt lat="45.0784440882337" lon="9.45026901400785"><ele>56.5</ele><time>2026-03-29T13:12:54Z</time></trkpt><trkpt lat="45.07854351100503" lon="9.450167723034443"><ele>56.25</ele><time>2026-03-29T13:12:55Z</time></trkpt><trkpt lat="45.07862904995333" lon="9.450039626011513"><ele>56.0</ele><time>2026-03-29T13:12:56Z</time></trkpt><trkpt lat="45.07873073778012" lon="9.449981885436468"><ele>56.0</ele><time>2026-03-29T13:12:57Z</time></trkpt><trkpt lat="45.07882271776919" lon="9.449908666079917"><ele>55.99999999999999</ele><time>2026-03-29T13:12:58Z</time></trkpt><trkpt lat="45.078921715579696" lon="9.449837718289789"><ele>55.99999999999999</ele><time>2026-03-29T13:12:59Z</time></trkpt><trkpt lat="45.07902212583697" lon="9.449775443088605"><ele>56.0</ele><time>2026-03-29T13:13:00Z</time></trkpt><trkpt lat="45.07911676403286" lon="9.44972911069231"><ele>56.0</ele><time>2026-03-29T13:13:01Z</time></trkpt><trkpt lat="45.07922681286662" lon="9.44967221567246"><ele>55.75</ele><time>2026-03-29T13:13:02Z</time></trkpt><trkpt lat="45.079348986347355" lon="9.44965165352845"><ele>55.5</ele><time>2026-03-29T13:13:03Z</time></trkpt><trkpt lat="45.079498085079344" lon="9.449644829717432"><ele>55.25</ele><time>2026-03-29T13:13:04Z</time></trkpt><trkpt lat="45.07963441863276" lon="9.449683247584863"><ele>55.0</ele><time>2026-03-29T13:13:05Z</time></trkpt><trkpt lat="45.079781626034375" lon="9.449737598223368"><ele>55.0</ele><time>2026-03-29T13:13:06Z</time></trkpt><trkpt lat="45.079922516843624" lon="9.449767692768779"><ele>55.0</ele><time>2026-03-29T13:13:07Z</time></trkpt><trkpt lat="45.08005461887878" lon="9.449797672897768"><ele>55.0</ele><time>2026-03-29T13:13:08Z</time></trkpt><trkpt lat="45.08017804039025" lon="9.449824705767215"><ele>55.0</ele><time>2026-03-29T13:13:09Z</time></trkpt><trkpt lat="45.08029526603599" lon="9.449851971543778"><ele>54.8</ele><time>2026-03-29T13:13:10Z</time></trkpt><trkpt lat="45.08040748011358" lon="9.449882620283452"><ele>54.6</ele><time>2026-03-29T13:13:11Z</time></trkpt><trkpt lat="45.08049884053765" lon="9.449928820667605"><ele>54.400000000000006</ele><time>2026-03-29T13:13:12Z</time></trkpt><trkpt lat="45.08057768703884" lon="9.449971788313126"><ele>54.2</ele><time>2026-03-29T13:13:13Z</time></trkpt><trkpt lat="45.08062645877869" lon="9.450068442501484"><ele>54.0</ele><time>2026-03-29T13:13:14Z</time></trkpt><trkpt lat="45.08068783239655" lon="9.450131227408484"><ele>54.0</ele><time>2026-03-29T13:13:15Z</time></trkpt><trkpt lat="45.080763493064545" lon="9.450153556428345"><ele>54.00000000000001</ele><time>2026-03-29T13:13:16Z</time></trkpt><trkpt lat="45.0808419514405" lon="9.450130378888067"><ele>54.00000000000001</ele><time>2026-03-29T13:13:17Z</time></trkpt><trkpt lat="45.080932865379815" lon="9.450090444468687"><ele>54.0</ele><time>2026-03-29T13:13:18Z</time></trkpt><trkpt lat="45.08102760710905" lon="9.45005848108403"><ele>54.0</ele><time>2026-03-29T13:13:19Z</time></trkpt><trkpt lat="45.08114641321832" lon="9.450053687378167"><ele>54.0</ele><time>2026-03-29T13:13:20Z</time></trkpt><trkpt lat="45.0812832666872" lon="9.45008524663987"><ele>54.0</ele><time>2026-03-29T13:13:21Z</time></trkpt><trkpt lat="45.08143478121004" lon="9.450131505266164"><ele>54.0</ele><time>2026-03-29T13:13:22Z</time></trkpt><trkpt lat="45.08158715962311" lon="9.450174360886646"><ele>54.0</ele><time>2026-03-29T13:13:23.001Z</time></trkpt><trkpt lat="45.0817560446111" lon="9.450218371598917"><ele>53.66666666666667</ele><time>2026-03-29T13:13:24Z</time></trkpt><trkpt lat="45.08192050071467" lon="9.450259683326257"><ele>53.333333333333336</ele><time>2026-03-29T13:13:25Z</time></trkpt><trkpt lat="45.082080932478384" lon="9.450294568263072"><ele>53.0</ele><time>2026-03-29T13:13:26.001Z</time></trkpt><trkpt lat="45.08225346580748" lon="9.450325920741017"><ele>52.66666666666667</ele><time>2026-03-29T13:13:27.001Z</time></trkpt><trkpt lat="45.08243639082092" lon="9.450361884628792"><ele>52.33333333333333</ele><time>2026-03-29T13:13:28.001Z</time></trkpt><trkpt lat="45.082623636158736" lon="9.450396417463049"><ele>52.0</ele><time>2026-03-29T13:13:29.001Z</time></trkpt><trkpt lat="45.082816913433845" lon="9.450431120264106"><ele>52.33333333333333</ele><time>2026-03-29T13:13:30.001Z</time></trkpt><trkpt lat="45.083015671618014" lon="9.450470061421745"><ele>52.66666666666667</ele><time>2026-03-29T13:13:31.001Z</time></trkpt><trkpt lat="45.08321143304478" lon="9.450508958610756"><ele>53.0</ele><time>2026-03-29T13:13:32.001Z</time></trkpt><trkpt lat="45.08338946672236" lon="9.450544593215046"><ele>53.0</ele><time>2026-03-29T13:13:33.001Z</time></trkpt><trkpt lat="45.08357523796432" lon="9.450581699271776"><ele>53.0</ele><time>2026-03-29T13:13:34.001Z</time></trkpt><trkpt lat="45.08375986481717" lon="9.450614369524256"><ele>53.0</ele><time>2026-03-29T13:13:35.001Z</time></trkpt><trkpt lat="45.08395317052592" lon="9.45065030706726"><ele>52.66666666666667</ele><time>2026-03-29T13:13:36.001Z</time></trkpt><trkpt lat="45.084143796617695" lon="9.450683854054981"><ele>52.33333333333333</ele><time>2026-03-29T13:13:37.001Z</time></trkpt><trkpt lat="45.0843299998771" lon="9.450722157314974"><ele>52.0</ele><time>2026-03-29T13:13:38.001Z</time></trkpt><trkpt lat="45.0845043495174" lon="9.450754919161723"><ele>52.0</ele><time>2026-03-29T13:13:39.001Z</time></trkpt><trkpt lat="45.08467725831426" lon="9.450788759392122"><ele>52.0</ele><time>2026-03-29T13:13:40.001Z</time></trkpt><trkpt lat="45.0848498626327" lon="9.450820347620407"><ele>52.0</ele><time>2026-03-29T13:13:41.001Z</time></trkpt><trkpt lat="45.0850196554507" lon="9.450847768047515"><ele>52.0</ele><time>2026-03-29T13:13:42.001Z</time></trkpt><trkpt lat="45.085190242544044" lon="9.450878040174262"><ele>52.0</ele><time>2026-03-29T13:13:43.001Z</time></trkpt><trkpt lat="45.08535565250476" lon="9.450907460638271"><ele>52.0</ele><time>2026-03-29T13:13:44.001Z</time></trkpt><trkpt lat="45.08552200535" lon="9.450929156703587"><ele>52.0</ele><time>2026-03-29T13:13:45.001Z</time></trkpt><trkpt lat="45.08569302744482" lon="9.450951142558578"><ele>52.0</ele><time>2026-03-29T13:13:46.001Z</time></trkpt><trkpt lat="45.085859616533085" lon="9.45097426884478"><ele>52.0</ele><time>2026-03-29T13:13:47.001Z</time></trkpt><trkpt lat="45.0860155840461" lon="9.451007327125923"><ele>52.25</ele><time>2026-03-29T13:13:48.001Z</time></trkpt><trkpt lat="45.08615781084814" lon="9.451038821252736"><ele>52.5</ele><time>2026-03-29T13:13:49.001Z</time></trkpt><trkpt lat="45.086299174908895" lon="9.451065079263822"><ele>52.75</ele><time>2026-03-29T13:13:50.001Z</time></trkpt><trkpt lat="45.08644258518005" lon="9.451089922766066"><ele>53.0</ele><time>2026-03-29T13:13:51.001Z</time></trkpt><trkpt lat="45.08659519101682" lon="9.451124688299549"><ele>53.0</ele><time>2026-03-29T13:13:52.001Z</time></trkpt><trkpt lat="45.086745190018014" lon="9.451153453329852"><ele>53.0</ele><time>2026-03-29T13:13:53.001Z</time></trkpt><trkpt lat="45.08689584543272" lon="9.451183903082503"><ele>53.0</ele><time>2026-03-29T13:13:54.001Z</time></trkpt><trkpt lat="45.0870521277364" lon="9.451210576227988"><ele>53.0</ele><time>2026-03-29T13:13:55.001Z</time></trkpt><trkpt lat="45.08721825323245" lon="9.451240509683487"><ele>53.0</ele><time>2026-03-29T13:13:56.001Z</time></trkpt><trkpt lat="45.087391689561585" lon="9.451268721670429"><ele>53.0</ele><time>2026-03-29T13:13:57.001Z</time></trkpt><trkpt lat="45.08757086994107" lon="9.451288018805311"><ele>52.66666666666667</ele><time>2026-03-29T13:13:58.001Z</time></trkpt><trkpt lat="45.08774886426435" lon="9.451302255831802"><ele>52.33333333333333</ele><time>2026-03-29T13:13:59.001Z</time></trkpt><trkpt lat="45.08792092125867" lon="9.451316674803273"><ele>52.0</ele><time>2026-03-29T13:14:00.001Z</time></trkpt><trkpt lat="45.088085501338206" lon="9.451333042958304"><ele>52.0</ele><time>2026-03-29T13:14:01.001Z</time></trkpt><trkpt lat="45.08825265649515" lon="9.451362432619435"><ele>52.0</ele><time>2026-03-29T13:14:02.001Z</time></trkpt><trkpt lat="45.08841951871974" lon="9.45138272581727"><ele>52.0</ele><time>2026-03-29T13:14:03.001Z</time></trkpt><trkpt lat="45.08858575897262" lon="9.45139678304764"><ele>52.666666666666664</ele><time>2026-03-29T13:14:04.001Z</time></trkpt><trkpt lat="45.0887478417591" lon="9.451411964848804"><ele>53.33333333333333</ele><time>2026-03-29T13:14:05.001Z</time></trkpt><trkpt lat="45.08890554319222" lon="9.451429156111233"><ele>54.0</ele><time>2026-03-29T13:14:06.001Z</time></trkpt><trkpt lat="45.08905813854297" lon="9.451446209830827"><ele>53.75</ele><time>2026-03-29T13:14:07.001Z</time></trkpt><trkpt lat="45.0892048147868" lon="9.451458214708504"><ele>53.5</ele><time>2026-03-29T13:14:08.001Z</time></trkpt><trkpt lat="45.08933996265938" lon="9.451461811920227"><ele>53.25</ele><time>2026-03-29T13:14:09.001Z</time></trkpt><trkpt lat="45.089463950439" lon="9.451462151907998"><ele>53.0</ele><time>2026-03-29T13:14:10.001Z</time></trkpt><trkpt lat="45.08957871198584" lon="9.451460694630391"><ele>53.0</ele><time>2026-03-29T13:14:11.001Z</time></trkpt><trkpt lat="45.08969176173278" lon="9.451454957046403"><ele>53.0</ele><time>2026-03-29T13:14:12.001Z</time></trkpt><trkpt lat="45.089815431263084" lon="9.451449875214191"><ele>53.0</ele><time>2026-03-29T13:14:13.001Z</time></trkpt><trkpt lat="45.08994654601651" lon="9.451436332750074"><ele>53.0</ele><time>2026-03-29T13:14:14.001Z</time></trkpt><trkpt lat="45.09008276905313" lon="9.451422111205495"><ele>53.0</ele><time>2026-03-29T13:14:15.001Z</time></trkpt><trkpt lat="45.09021585488616" lon="9.451414229435766"><ele>53.0</ele><time>2026-03-29T13:14:16.001Z</time></trkpt><trkpt lat="45.09034514919307" lon="9.451403678435652"><ele>53.0</ele><time>2026-03-29T13:14:17.001Z</time></trkpt><trkpt lat="45.09048302639227" lon="9.45139532242955"><ele>53.0</ele><time>2026-03-29T13:14:18.001Z</time></trkpt><trkpt lat="45.090616334276994" lon="9.451386043635507"><ele>53.0</ele><time>2026-03-29T13:14:19.001Z</time></trkpt><trkpt lat="45.09075553711004" lon="9.451378303882095"><ele>53.0</ele><time>2026-03-29T13:14:20.001Z</time></trkpt><trkpt lat="45.09088480247457" lon="9.451368973379875"><ele>53.0</ele><time>2026-03-29T13:14:21.001Z</time></trkpt><trkpt lat="45.091001257892806" lon="9.451358550578718"><ele>53.0</ele><time>2026-03-29T13:14:22.001Z</time></trkpt><trkpt lat="45.09111758854427" lon="9.451350086151088"><ele>53.0</ele><time>2026-03-29T13:14:23.001Z</time></trkpt><trkpt lat="45.09124302321588" lon="9.451344137509485"><ele>53.0</ele><time>2026-03-29T13:14:24.001Z</time></trkpt><trkpt lat="45.09137209138955" lon="9.45133910019202"><ele>53.0</ele><time>2026-03-29T13:14:25.001Z</time></trkpt><trkpt lat="45.0914971644148" lon="9.451333298553035"><ele>53.0</ele><time>2026-03-29T13:14:26.001Z</time></trkpt><trkpt lat="45.091622785660476" lon="9.451322450637823"><ele>53.0</ele><time>2026-03-29T13:14:27.001Z</time></trkpt><trkpt lat="45.09174709523624" lon="9.451309929846262"><ele>53.0</ele><time>2026-03-29T13:14:28.002Z</time></trkpt><trkpt lat="45.09187928044508" lon="9.451299797966534"><ele>53.0</ele><time>2026-03-29T13:14:29.002Z</time></trkpt><trkpt lat="45.092014333555746" lon="9.451290502750116"><ele>53.0</ele><time>2026-03-29T13:14:30.002Z</time></trkpt><trkpt lat="45.09215194994084" lon="9.451281525372224"><ele>53.25</ele><time>2026-03-29T13:14:31.002Z</time></trkpt><trkpt lat="45.092292764883446" lon="9.451272356707968"><ele>53.5</ele><time>2026-03-29T13:14:32.002Z</time></trkpt><trkpt lat="45.092427875534774" lon="9.451264021562729"><ele>53.75</ele><time>2026-03-29T13:14:33.002Z</time></trkpt><trkpt lat="45.0925701424074" lon="9.451255288994512"><ele>54.0</ele><time>2026-03-29T13:14:34.002Z</time></trkpt><trkpt lat="45.09271252502493" lon="9.451245178239"><ele>53.0</ele><time>2026-03-29T13:14:35.002Z</time></trkpt><trkpt lat="45.09285239342972" lon="9.451235408187456"><ele>52.0</ele><time>2026-03-29T13:14:36.002Z</time></trkpt><trkpt lat="45.09299542424353" lon="9.451223588509821"><ele>51.0</ele><time>2026-03-29T13:14:37.002Z</time></trkpt><trkpt lat="45.09313379776345" lon="9.451208567376108"><ele>50.0</ele><time>2026-03-29T13:14:38.002Z</time></trkpt><trkpt lat="45.09326707159737" lon="9.451196486843696"><ele>48.75</ele><time>2026-03-29T13:14:39.002Z</time></trkpt><trkpt lat="45.09340757378363" lon="9.451187540063257"><ele>47.5</ele><time>2026-03-29T13:14:40.002Z</time></trkpt><trkpt lat="45.09354182392867" lon="9.451180514828984"><ele>46.25</ele><time>2026-03-29T13:14:41.002Z</time></trkpt><trkpt lat="45.09368252552642" lon="9.451172654946408"><ele>45.0</ele><time>2026-03-29T13:14:42.002Z</time></trkpt><trkpt lat="45.09383006177464" lon="9.45116280485072"><ele>45.0</ele><time>2026-03-29T13:14:42.999Z</time></trkpt><trkpt lat="45.093985612009135" lon="9.45115227228416"><ele>45.0</ele><time>2026-03-29T13:14:43.999Z</time></trkpt><trkpt lat="45.09414488791738" lon="9.451140525502348"><ele>45.0</ele><time>2026-03-29T13:14:44.999Z</time></trkpt><trkpt lat="45.094306810150606" lon="9.451126601237716"><ele>45.0</ele><time>2026-03-29T13:14:45.999Z</time></trkpt><trkpt lat="45.0944678006857" lon="9.451114023319144"><ele>45.0</ele><time>2026-03-29T13:14:46.999Z</time></trkpt><trkpt lat="45.0946317136091" lon="9.451101766733371"><ele>45.0</ele><time>2026-03-29T13:14:47.999Z</time></trkpt><trkpt lat="45.09480088889502" lon="9.4510896482537"><ele>45.0</ele><time>2026-03-29T13:14:48.999Z</time></trkpt><trkpt lat="45.09497382804724" lon="9.451076462944146"><ele>45.0</ele><time>2026-03-29T13:14:49.999Z</time></trkpt><trkpt lat="45.095145514752105" lon="9.451063480076872"><ele>45.0</ele><time>2026-03-29T13:14:50.999Z</time></trkpt><trkpt lat="45.095313271557444" lon="9.451053618831212"><ele>45.0</ele><time>2026-03-29T13:14:51.999Z</time></trkpt><trkpt lat="45.09547976354179" lon="9.451041402224622"><ele>45.0</ele><time>2026-03-29T13:14:52.999Z</time></trkpt><trkpt lat="45.09564518840804" lon="9.451029468235394"><ele>45.0</ele><time>2026-03-29T13:14:53.999Z</time></trkpt><trkpt lat="45.09580282682871" lon="9.451018145320184"><ele>46.66666666666667</ele><time>2026-03-29T13:14:54.999Z</time></trkpt><trkpt lat="45.095952678313104" lon="9.45100393691415"><ele>48.333333333333336</ele><time>2026-03-29T13:14:55.999Z</time></trkpt><trkpt lat="45.09610707463504" lon="9.450990603888755"><ele>50.0</ele><time>2026-03-29T13:14:56.999Z</time></trkpt><trkpt lat="45.096258011453315" lon="9.450984851376449"><ele>50.0</ele><time>2026-03-29T13:14:57.999Z</time></trkpt><trkpt lat="45.09640958571904" lon="9.450974259635736"><ele>50.0</ele><time>2026-03-29T13:14:59Z</time></trkpt><trkpt lat="45.09656411642637" lon="9.450961169943984"><ele>50.0</ele><time>2026-03-29T13:15:00Z</time></trkpt><trkpt lat="45.09672103078568" lon="9.450955104434806"><ele>52.0</ele><time>2026-03-29T13:15:01Z</time></trkpt><trkpt lat="45.096885616690884" lon="9.450941963603537"><ele>54.0</ele><time>2026-03-29T13:15:02Z</time></trkpt><trkpt lat="45.09704192539943" lon="9.450931246069787"><ele>56.0</ele><time>2026-03-29T13:15:03Z</time></trkpt><trkpt lat="45.09719787586092" lon="9.450917097737266"><ele>56.0</ele><time>2026-03-29T13:15:04Z</time></trkpt><trkpt lat="45.09734958373687" lon="9.450904760306331"><ele>56.0</ele><time>2026-03-29T13:15:05Z</time></trkpt><trkpt lat="45.09750565618001" lon="9.450890702520786"><ele>56.0</ele><time>2026-03-29T13:15:06Z</time></trkpt><trkpt lat="45.09766463671477" lon="9.45087852011025"><ele>55.66666666666667</ele><time>2026-03-29T13:15:07Z</time></trkpt><trkpt lat="45.09781389551925" lon="9.450869158553378"><ele>55.33333333333333</ele><time>2026-03-29T13:15:08Z</time></trkpt><trkpt lat="45.09797286195792" lon="9.450858226733343"><ele>55.0</ele><time>2026-03-29T13:15:09Z</time></trkpt><trkpt lat="45.098124445024276" lon="9.450849155943796"><ele>54.666666666666664</ele><time>2026-03-29T13:15:10Z</time></trkpt><trkpt lat="45.098283508501375" lon="9.450834354322895"><ele>54.33333333333333</ele><time>2026-03-29T13:15:11Z</time></trkpt><trkpt lat="45.098437337616566" lon="9.45082411436578"><ele>54.0</ele><time>2026-03-29T13:15:12Z</time></trkpt><trkpt lat="45.098591052545416" lon="9.450815099920614"><ele>54.0</ele><time>2026-03-29T13:15:13Z</time></trkpt><trkpt lat="45.09874837203517" lon="9.450805577420207"><ele>54.0</ele><time>2026-03-29T13:15:14Z</time></trkpt><trkpt lat="45.09890144658816" lon="9.45079652658608"><ele>54.0</ele><time>2026-03-29T13:15:15Z</time></trkpt><trkpt lat="45.09905668948898" lon="9.450786572896108"><ele>54.25</ele><time>2026-03-29T13:15:16Z</time></trkpt><trkpt lat="45.09920861716683" lon="9.450776045122655"><ele>54.5</ele><time>2026-03-29T13:15:17Z</time></trkpt><trkpt lat="45.099355940723036" lon="9.45076604328298"><ele>54.75</ele><time>2026-03-29T13:15:18Z</time></trkpt><trkpt lat="45.0994949895456" lon="9.450753935497834"><ele>55.0</ele><time>2026-03-29T13:15:19Z</time></trkpt><trkpt lat="45.099634086877856" lon="9.450741857021251"><ele>55.0</ele><time>2026-03-29T13:15:20Z</time></trkpt><trkpt lat="45.099774922467" lon="9.450731733791418"><ele>55.0</ele><time>2026-03-29T13:15:21Z</time></trkpt><trkpt lat="45.09991052242878" lon="9.45072206773955"><ele>55.0</ele><time>2026-03-29T13:15:22Z</time></trkpt><trkpt lat="45.10005561372461" lon="9.450710801245066"><ele>55.0</ele><time>2026-03-29T13:15:23Z</time></trkpt><trkpt lat="45.1002024150926" lon="9.450701285937"><ele>54.75</ele><time>2026-03-29T13:15:24Z</time></trkpt><trkpt lat="45.100343456894834" lon="9.450690531473063"><ele>54.5</ele><time>2026-03-29T13:15:25Z</time></trkpt><trkpt lat="45.100474900820004" lon="9.45068032781158"><ele>54.25</ele><time>2026-03-29T13:15:26Z</time></trkpt><trkpt lat="45.10060019073941" lon="9.450672319791096"><ele>54.0</ele><time>2026-03-29T13:15:27Z</time></trkpt><trkpt lat="45.10072584528687" lon="9.450664048499862"><ele>53.5</ele><time>2026-03-29T13:15:28Z</time></trkpt><trkpt lat="45.1008563003597" lon="9.450653469095707"><ele>53.0</ele><time>2026-03-29T13:15:29Z</time></trkpt><trkpt lat="45.100987894306996" lon="9.450642485663591"><ele>52.5</ele><time>2026-03-29T13:15:30Z</time></trkpt><trkpt lat="45.10112937845584" lon="9.450630791814707"><ele>52.0</ele><time>2026-03-29T13:15:31Z</time></trkpt><trkpt lat="45.101273954820236" lon="9.450620142395763"><ele>52.0</ele><time>2026-03-29T13:15:32Z</time></trkpt><trkpt lat="45.101414182336875" lon="9.450611530201838"><ele>52.0</ele><time>2026-03-29T13:15:33Z</time></trkpt><trkpt lat="45.101551179947286" lon="9.450605591183399"><ele>52.0</ele><time>2026-03-29T13:15:34Z</time></trkpt><trkpt lat="45.10169115873043" lon="9.450597377274882"><ele>52.0</ele><time>2026-03-29T13:15:35Z</time></trkpt><trkpt lat="45.10184276306174" lon="9.450583562780876"><ele>52.33333333333333</ele><time>2026-03-29T13:15:36Z</time></trkpt><trkpt lat="45.10200418830356" lon="9.450566369666436"><ele>52.66666666666667</ele><time>2026-03-29T13:15:37Z</time></trkpt><trkpt lat="45.102166703885615" lon="9.45055408439534"><ele>53.0</ele><time>2026-03-29T13:15:38Z</time></trkpt><trkpt lat="45.10232543335976" lon="9.450542470760068"><ele>53.0</ele><time>2026-03-29T13:15:39Z</time></trkpt><trkpt lat="45.10247828875489" lon="9.450532755535674"><ele>53.0</ele><time>2026-03-29T13:15:40.001Z</time></trkpt><trkpt lat="45.102623470101335" lon="9.450525091171997"><ele>53.0</ele><time>2026-03-29T13:15:41.001Z</time></trkpt><trkpt lat="45.10276342597548" lon="9.450513920530387"><ele>53.0</ele><time>2026-03-29T13:15:42.001Z</time></trkpt><trkpt lat="45.10289548195155" lon="9.45050670526358"><ele>53.0</ele><time>2026-03-29T13:15:43.001Z</time></trkpt><trkpt lat="45.10303300100225" lon="9.45049483016117"><ele>53.0</ele><time>2026-03-29T13:15:44.001Z</time></trkpt><trkpt lat="45.103171132145626" lon="9.450479974070227"><ele>53.0</ele><time>2026-03-29T13:15:45.001Z</time></trkpt><trkpt lat="45.103300982629555" lon="9.450463808812962"><ele>53.0</ele><time>2026-03-29T13:15:46.001Z</time></trkpt><trkpt lat="45.10341759311172" lon="9.450442693833848"><ele>53.0</ele><time>2026-03-29T13:15:47.001Z</time></trkpt><trkpt lat="45.103499554234205" lon="9.450449982199073"><ele>53.0</ele><time>2026-03-29T13:15:48.001Z</time></trkpt><trkpt lat="45.10359188133734" lon="9.450443080041932"><ele>53.0</ele><time>2026-03-29T13:15:50.001Z</time></trkpt><trkpt lat="45.103566666161235" lon="9.450227954934773"><ele>53.0</ele><time>2026-03-29T13:15:52.001Z</time></trkpt><trkpt lat="45.10362392079209" lon="9.45011492925537"><ele>53.0</ele><time>2026-03-29T13:15:55.001Z</time></trkpt><trkpt lat="45.103696997681524" lon="9.450005089872056"><ele>53.0</ele><time>2026-03-29T13:15:57.001Z</time></trkpt><trkpt lat="45.10364473216385" lon="9.449872475580005"><ele>53.0</ele><time>2026-03-29T13:16:00.001Z</time></trkpt><trkpt lat="45.10358486418888" lon="9.449754059193598"><ele>53.0</ele><time>2026-03-29T13:16:02.001Z</time></trkpt><trkpt lat="45.10349926888103" lon="9.449761064524806"><ele>53.0</ele><time>2026-03-29T13:16:05.001Z</time></trkpt><trkpt lat="45.10349073339684" lon="9.450240794073476"><ele>53.00000000000001</ele><time>2026-03-29T13:16:07.001Z</time></trkpt><trkpt lat="45.10348314742366" lon="9.450355987882899"><ele>53.0</ele><time>2026-03-29T13:16:09.001Z</time></trkpt><trkpt lat="45.103547756963025" lon="9.450443031113018"><ele>53.0</ele><time>2026-03-29T13:16:14.001Z</time></trkpt><trkpt lat="45.10362361890581" lon="9.450462553026776"><ele>53.0</ele><time>2026-03-29T13:16:15.001Z</time></trkpt><trkpt lat="45.103723499113784" lon="9.450450615882225"><ele>53.00000000000001</ele><time>2026-03-29T13:16:16.001Z</time></trkpt><trkpt lat="45.10382007231956" lon="9.450438579573243"><ele>53.0</ele><time>2026-03-29T13:16:17.001Z</time></trkpt><trkpt lat="45.10393441211924" lon="9.450426302292144"><ele>53.0</ele><time>2026-03-29T13:16:18.001Z</time></trkpt><trkpt lat="45.104071788486166" lon="9.450419577382144"><ele>53.0</ele><time>2026-03-29T13:16:19.001Z</time></trkpt><trkpt lat="45.10421325924679" lon="9.450412539765532"><ele>53.0</ele><time>2026-03-29T13:16:20.001Z</time></trkpt><trkpt lat="45.10434592582218" lon="9.4504153282025"><ele>53.0</ele><time>2026-03-29T13:16:21.001Z</time></trkpt><trkpt lat="45.10449471541064" lon="9.45041623344635"><ele>52.66666666666667</ele><time>2026-03-29T13:16:22.001Z</time></trkpt><trkpt lat="45.104653730018434" lon="9.450417462046143"><ele>52.33333333333333</ele><time>2026-03-29T13:16:23.001Z</time></trkpt><trkpt lat="45.10481762057625" lon="9.45041818089498"><ele>52.0</ele><time>2026-03-29T13:16:24.001Z</time></trkpt><trkpt lat="45.10498629731231" lon="9.450419632341344"><ele>52.0</ele><time>2026-03-29T13:16:25.001Z</time></trkpt><trkpt lat="45.10515948787316" lon="9.450418936313438"><ele>52.0</ele><time>2026-03-29T13:16:26.001Z</time></trkpt><trkpt lat="45.10532254213435" lon="9.450418220290954"><ele>52.0</ele><time>2026-03-29T13:16:27.001Z</time></trkpt><trkpt lat="45.10546818648915" lon="9.450420280012331"><ele>52.0</ele><time>2026-03-29T13:16:28.001Z</time></trkpt><trkpt lat="45.1056192542537" lon="9.45041996905986"><ele>52.0</ele><time>2026-03-29T13:16:29.001Z</time></trkpt><trkpt lat="45.10577023369565" lon="9.45042147980593"><ele>52.0</ele><time>2026-03-29T13:16:30.001Z</time></trkpt><trkpt lat="45.105918727430584" lon="9.45042246791673"><ele>51.5</ele><time>2026-03-29T13:16:31.001Z</time></trkpt><trkpt lat="45.10607113280737" lon="9.45042567203381"><ele>51.0</ele><time>2026-03-29T13:16:32.001Z</time></trkpt><trkpt lat="45.10621598447953" lon="9.450416322231055"><ele>50.5</ele><time>2026-03-29T13:16:33.001Z</time></trkpt><trkpt lat="45.106343697954365" lon="9.450414318905768"><ele>50.0</ele><time>2026-03-29T13:16:34.001Z</time></trkpt><trkpt lat="45.10644860650581" lon="9.450412160946101"><ele>50.0</ele><time>2026-03-29T13:16:35.002Z</time></trkpt><trkpt lat="45.10652795568089" lon="9.450400552809382"><ele>50.0</ele><time>2026-03-29T13:16:36.002Z</time></trkpt><trkpt lat="45.106568042695535" lon="9.450147033782503"><ele>50.0</ele><time>2026-03-29T13:16:40.002Z</time></trkpt><trkpt lat="45.106568216761765" lon="9.450030712752556"><ele>50.0</ele><time>2026-03-29T13:16:41.002Z</time></trkpt><trkpt lat="45.1065844979837" lon="9.449927474183161"><ele>50.0</ele><time>2026-03-29T13:16:42.002Z</time></trkpt><trkpt lat="45.10660260801396" lon="9.449832650284957"><ele>49.8</ele><time>2026-03-29T13:16:43.002Z</time></trkpt><trkpt lat="45.1066263074344" lon="9.44971378676058"><ele>49.6</ele><time>2026-03-29T13:16:45.002Z</time></trkpt><trkpt lat="45.10659997453168" lon="9.449821725927283"><ele>49.400000000000006</ele><time>2026-03-29T13:17:26Z</time></trkpt><trkpt lat="45.10658811195487" lon="9.449912784574037"><ele>49.2</ele><time>2026-03-29T13:17:30Z</time></trkpt><trkpt lat="45.106614556472415" lon="9.449695237646207"><ele>49.0</ele><time>2026-03-29T13:17:33Z</time></trkpt><trkpt lat="45.10663977023058" lon="9.449571163139675"><ele>49.400000000000006</ele><time>2026-03-29T13:18:06.001Z</time></trkpt><trkpt lat="45.10663396748312" lon="9.449465756023331"><ele>49.8</ele><time>2026-03-29T13:18:07.001Z</time></trkpt><trkpt lat="45.106636673155265" lon="9.449339310673018"><ele>50.2</ele><time>2026-03-29T13:18:08.001Z</time></trkpt><trkpt lat="45.10663786200966" lon="9.449235881775182"><ele>50.599999999999994</ele><time>2026-03-29T13:18:09.001Z</time></trkpt><trkpt lat="45.106642548120185" lon="9.449087518170401"><ele>51.0</ele><time>2026-03-29T13:18:10.001Z</time></trkpt><trkpt lat="45.10664768556424" lon="9.448904915981538"><ele>51.0</ele><time>2026-03-29T13:18:11.001Z</time></trkpt><trkpt lat="45.106660961799484" lon="9.44872766414788"><ele>51.0</ele><time>2026-03-29T13:18:12.001Z</time></trkpt><trkpt lat="45.106679988657326" lon="9.448559078881498"><ele>51.0</ele><time>2026-03-29T13:18:13.001Z</time></trkpt><trkpt lat="45.10670134167151" lon="9.448369696005674"><ele>51.0</ele><time>2026-03-29T13:18:14.001Z</time></trkpt><trkpt lat="45.10672229725674" lon="9.44816567393421"><ele>51.0</ele><time>2026-03-29T13:18:15.001Z</time></trkpt><trkpt lat="45.10674528235495" lon="9.447962742928077"><ele>51.0</ele><time>2026-03-29T13:18:16.001Z</time></trkpt><trkpt lat="45.106764769510704" lon="9.447772825090741"><ele>51.0</ele><time>2026-03-29T13:18:17.001Z</time></trkpt><trkpt lat="45.106782123124106" lon="9.44757170188757"><ele>51.0</ele><time>2026-03-29T13:18:18.001Z</time></trkpt><trkpt lat="45.106801824934465" lon="9.447387082488838"><ele>51.0</ele><time>2026-03-29T13:18:19.001Z</time></trkpt><trkpt lat="45.106814582928536" lon="9.447221683872762"><ele>51.0</ele><time>2026-03-29T13:18:20.001Z</time></trkpt><trkpt lat="45.10682766256501" lon="9.44706783634782"><ele>51.0</ele><time>2026-03-29T13:18:21.001Z</time></trkpt><trkpt lat="45.10683992195199" lon="9.44692994819843"><ele>51.0</ele><time>2026-03-29T13:18:22.001Z</time></trkpt><trkpt lat="45.106847434624605" lon="9.446820833996034"><ele>51.0</ele><time>2026-03-29T13:18:23.001Z</time></trkpt><trkpt lat="45.10685322369401" lon="9.446731782278814"><ele>50.8</ele><time>2026-03-29T13:18:24.001Z</time></trkpt><trkpt lat="45.106853207016854" lon="9.446639239758353"><ele>50.599999999999994</ele><time>2026-03-29T13:18:25.001Z</time></trkpt><trkpt lat="45.10685720491881" lon="9.44654552427645"><ele>50.4</ele><time>2026-03-29T13:18:26.001Z</time></trkpt><trkpt lat="45.106863712799914" lon="9.446400430953318"><ele>50.2</ele><time>2026-03-29T13:18:27.001Z</time></trkpt><trkpt lat="45.10687117820289" lon="9.446231757807121"><ele>50.0</ele><time>2026-03-29T13:18:28.001Z</time></trkpt><trkpt lat="45.106877996439536" lon="9.446055492006865"><ele>50.0</ele><time>2026-03-29T13:18:29.001Z</time></trkpt><trkpt lat="45.10688470152893" lon="9.445866278755508"><ele>50.0</ele><time>2026-03-29T13:18:30.002Z</time></trkpt><trkpt lat="45.106887004397514" lon="9.445682823885827"><ele>50.0</ele><time>2026-03-29T13:18:31.002Z</time></trkpt><trkpt lat="45.10688550771639" lon="9.445503460459456"><ele>50.0</ele><time>2026-03-29T13:18:32.002Z</time></trkpt><trkpt lat="45.106885811528784" lon="9.44531807328789"><ele>50.0</ele><time>2026-03-29T13:18:33.002Z</time></trkpt><trkpt lat="45.10688627123296" lon="9.44514631503281"><ele>50.0</ele><time>2026-03-29T13:18:34.002Z</time></trkpt><trkpt lat="45.10688583982921" lon="9.444992642818034"><ele>50.0</ele><time>2026-03-29T13:18:35.002Z</time></trkpt><trkpt lat="45.106881876395775" lon="9.444851788931825"><ele>50.0</ele><time>2026-03-29T13:18:36.002Z</time></trkpt><trkpt lat="45.106878774176735" lon="9.444713491580734"><ele>50.0</ele><time>2026-03-29T13:18:37.002Z</time></trkpt><trkpt lat="45.10687163396504" lon="9.444566342614259"><ele>50.2</ele><time>2026-03-29T13:18:38.002Z</time></trkpt><trkpt lat="45.10685469494799" lon="9.444407091677945"><ele>50.4</ele><time>2026-03-29T13:18:39.002Z</time></trkpt><trkpt lat="45.1068283249702" lon="9.444251665585423"><ele>50.599999999999994</ele><time>2026-03-29T13:18:40.002Z</time></trkpt><trkpt lat="45.10680887898978" lon="9.444126913980615"><ele>50.8</ele><time>2026-03-29T13:18:41.002Z</time></trkpt><trkpt lat="45.10678718747469" lon="9.444014309989468"><ele>51.0</ele><time>2026-03-29T13:18:42.002Z</time></trkpt><trkpt lat="45.10677005549764" lon="9.44391808178959"><ele>51.0</ele><time>2026-03-29T13:18:43.002Z</time></trkpt><trkpt lat="45.1067329016726" lon="9.443790061414532"><ele>51.0</ele><time>2026-03-29T13:18:45.002Z</time></trkpt><trkpt lat="45.10672788567619" lon="9.443701012711156"><ele>51.0</ele><time>2026-03-29T13:18:47.002Z</time></trkpt><trkpt lat="45.106767590728836" lon="9.443551519254527"><ele>51.0</ele><time>2026-03-29T13:18:56Z</time></trkpt><trkpt lat="45.10681297056391" lon="9.443462101149994"><ele>51.0</ele><time>2026-03-29T13:18:57Z</time></trkpt><trkpt lat="45.10686813382799" lon="9.443365143196962"><ele>51.0</ele><time>2026-03-29T13:18:58Z</time></trkpt><trkpt lat="45.10691346569612" lon="9.443283557197313"><ele>51.0</ele><time>2026-03-29T13:18:59Z</time></trkpt><trkpt lat="45.10696600364726" lon="9.443186375890884"><ele>51.0</ele><time>2026-03-29T13:19:00Z</time></trkpt><trkpt lat="45.10703047928656" lon="9.443084431378383"><ele>51.0</ele><time>2026-03-29T13:19:01Z</time></trkpt><trkpt lat="45.10710044042453" lon="9.442969693408115"><ele>51.0</ele><time>2026-03-29T13:19:02Z</time></trkpt><trkpt lat="45.10717567574985" lon="9.442846871671655"><ele>51.0</ele><time>2026-03-29T13:19:03Z</time></trkpt><trkpt lat="45.10724854917581" lon="9.44273426939798"><ele>51.0</ele><time>2026-03-29T13:19:04Z</time></trkpt><trkpt lat="45.107317483174604" lon="9.442630386466307"><ele>51.0</ele><time>2026-03-29T13:19:05Z</time></trkpt><trkpt lat="45.1073849130093" lon="9.442525251161975"><ele>51.0</ele><time>2026-03-29T13:19:06Z</time></trkpt><trkpt lat="45.10745052578011" lon="9.442421298972858"><ele>51.0</ele><time>2026-03-29T13:19:07Z</time></trkpt><trkpt lat="45.10750819328752" lon="9.442326446494787"><ele>51.0</ele><time>2026-03-29T13:19:08Z</time></trkpt><trkpt lat="45.107571164439626" lon="9.442207911897324"><ele>51.166666666666664</ele><time>2026-03-29T13:19:09Z</time></trkpt><trkpt lat="45.10761337186093" lon="9.442069026055272"><ele>51.33333333333333</ele><time>2026-03-29T13:19:10Z</time></trkpt><trkpt lat="45.10765194204725" lon="9.441942963985875"><ele>51.5</ele><time>2026-03-29T13:19:11Z</time></trkpt><trkpt lat="45.107687791797765" lon="9.441837515575292"><ele>51.666666666666664</ele><time>2026-03-29T13:19:12Z</time></trkpt><trkpt lat="45.10772634366973" lon="9.44176430627683"><ele>51.83333333333333</ele><time>2026-03-29T13:19:13Z</time></trkpt><trkpt lat="45.10779670064485" lon="9.441724807596021"><ele>52.0</ele><time>2026-03-29T13:19:15Z</time></trkpt><trkpt lat="45.107860109824074" lon="9.441810426114241"><ele>52.0</ele><time>2026-03-29T13:19:19Z</time></trkpt><trkpt lat="45.1078924737165" lon="9.441704177281009"><ele>52.0</ele><time>2026-03-29T13:19:39Z</time></trkpt><trkpt lat="45.10789637856022" lon="9.441613298293344"><ele>52.0</ele><time>2026-03-29T13:19:40.001Z</time></trkpt><trkpt lat="45.10786479648494" lon="9.441447588456032"><ele>52.0</ele><time>2026-03-29T13:19:42.001Z</time></trkpt><trkpt lat="45.107845341940475" lon="9.441336005792142"><ele>52.0</ele><time>2026-03-29T13:19:43.001Z</time></trkpt><trkpt lat="45.107892956312206" lon="9.441186591333535"><ele>52.0</ele><time>2026-03-29T13:19:44.001Z</time></trkpt><trkpt lat="45.10789653304448" lon="9.441033722832705"><ele>52.0</ele><time>2026-03-29T13:19:45.001Z</time></trkpt><trkpt lat="45.10790671407269" lon="9.440889147149534"><ele>52.0</ele><time>2026-03-29T13:19:46.001Z</time></trkpt><trkpt lat="45.10792082461738" lon="9.440748730355603"><ele>52.0</ele><time>2026-03-29T13:19:47.001Z</time></trkpt><trkpt lat="45.10794616115077" lon="9.440592074531288"><ele>52.0</ele><time>2026-03-29T13:19:48.001Z</time></trkpt><trkpt lat="45.10797652530835" lon="9.440446010899688"><ele>52.0</ele><time>2026-03-29T13:19:49.001Z</time></trkpt><trkpt lat="45.10800920440951" lon="9.440302606791988"><ele>52.0</ele><time>2026-03-29T13:19:50.001Z</time></trkpt><trkpt lat="45.10804721830602" lon="9.440150627373063"><ele>52.0</ele><time>2026-03-29T13:19:51.001Z</time></trkpt><trkpt lat="45.10809058182933" lon="9.439994074088224"><ele>52.0</ele><time>2026-03-29T13:19:52.001Z</time></trkpt><trkpt lat="45.108143501409344" lon="9.439841496583194"><ele>52.0</ele><time>2026-03-29T13:19:53.001Z</time></trkpt><trkpt lat="45.10820038336189" lon="9.43968455414281"><ele>52.0</ele><time>2026-03-29T13:19:54.001Z</time></trkpt><trkpt lat="45.10825656331013" lon="9.439522494748163"><ele>52.0</ele><time>2026-03-29T13:19:55.001Z</time></trkpt><trkpt lat="45.108312875077914" lon="9.439366919276443"><ele>52.0</ele><time>2026-03-29T13:19:56.001Z</time></trkpt><trkpt lat="45.108367069804935" lon="9.439229703418922"><ele>52.166666666666664</ele><time>2026-03-29T13:19:57.001Z</time></trkpt><trkpt lat="45.10841031161535" lon="9.439099534109019"><ele>52.33333333333333</ele><time>2026-03-29T13:19:58.001Z</time></trkpt><trkpt lat="45.10845176169444" lon="9.43899098583343"><ele>52.5</ele><time>2026-03-29T13:19:59.001Z</time></trkpt><trkpt lat="45.108495180767974" lon="9.438894542601746"><ele>52.66666666666667</ele><time>2026-03-29T13:20:00.001Z</time></trkpt><trkpt lat="45.10853279514645" lon="9.438794188204596"><ele>52.833333333333336</ele><time>2026-03-29T13:20:01.001Z</time></trkpt><trkpt lat="45.108575711560135" lon="9.438700179979747"><ele>53.0</ele><time>2026-03-29T13:20:02.001Z</time></trkpt><trkpt lat="45.108605040734005" lon="9.438599570762522"><ele>53.00000000000001</ele><time>2026-03-29T13:20:03.001Z</time></trkpt><trkpt lat="45.108651599369175" lon="9.438521872517482"><ele>53.0</ele><time>2026-03-29T13:20:04.001Z</time></trkpt><trkpt lat="45.10869610380319" lon="9.438427397477836"><ele>53.0</ele><time>2026-03-29T13:20:05.001Z</time></trkpt><trkpt lat="45.10875604763513" lon="9.43832724642993"><ele>53.0</ele><time>2026-03-29T13:20:06.001Z</time></trkpt><trkpt lat="45.10881683528848" lon="9.438224018578019"><ele>53.00000000000001</ele><time>2026-03-29T13:20:07.001Z</time></trkpt><trkpt lat="45.10888539337509" lon="9.43812093968061"><ele>53.0</ele><time>2026-03-29T13:20:08.001Z</time></trkpt><trkpt lat="45.10897342426376" lon="9.438055745801387"><ele>53.0</ele><time>2026-03-29T13:20:09.001Z</time></trkpt><trkpt lat="45.10905594918784" lon="9.437970126441655"><ele>53.0</ele><time>2026-03-29T13:20:10.001Z</time></trkpt><trkpt lat="45.109147574468466" lon="9.437868823924452"><ele>53.0</ele><time>2026-03-29T13:20:11.001Z</time></trkpt><trkpt lat="45.10922924137221" lon="9.437755240552075"><ele>53.0</ele><time>2026-03-29T13:20:12.001Z</time></trkpt><trkpt lat="45.10931489559631" lon="9.437650404917258"><ele>53.0</ele><time>2026-03-29T13:20:13.001Z</time></trkpt><trkpt lat="45.10938084814886" lon="9.437511921779498"><ele>53.25</ele><time>2026-03-29T13:20:14.001Z</time></trkpt><trkpt lat="45.109443646025625" lon="9.437379944539105"><ele>53.5</ele><time>2026-03-29T13:20:15.001Z</time></trkpt><trkpt lat="45.10950092488212" lon="9.43722689244437"><ele>53.75</ele><time>2026-03-29T13:20:16.001Z</time></trkpt><trkpt lat="45.10954212115539" lon="9.437064735384126"><ele>54.0</ele><time>2026-03-29T13:20:17.001Z</time></trkpt><trkpt lat="45.10959289109691" lon="9.436921330022106"><ele>54.2</ele><time>2026-03-29T13:20:18.001Z</time></trkpt><trkpt lat="45.10964754164686" lon="9.436795455706598"><ele>54.400000000000006</ele><time>2026-03-29T13:20:19.001Z</time></trkpt><trkpt lat="45.10969394321283" lon="9.436670127984252"><ele>54.6</ele><time>2026-03-29T13:20:20.001Z</time></trkpt><trkpt lat="45.10973785294258" lon="9.436549287029504"><ele>54.8</ele><time>2026-03-29T13:20:21.001Z</time></trkpt><trkpt lat="45.10977711279518" lon="9.436448666502038"><ele>55.0</ele><time>2026-03-29T13:20:22.001Z</time></trkpt><trkpt lat="45.10984277682678" lon="9.436410158644232"><ele>55.0</ele><time>2026-03-29T13:20:24.001Z</time></trkpt><trkpt lat="45.109925197214864" lon="9.436461009872094"><ele>55.0</ele><time>2026-03-29T13:20:26.001Z</time></trkpt><trkpt lat="45.109989713153475" lon="9.436520963596866"><ele>55.0</ele><time>2026-03-29T13:20:28.002Z</time></trkpt><trkpt lat="45.11006594140098" lon="9.43657117486196"><ele>55.0</ele><time>2026-03-29T13:20:31.002Z</time></trkpt><trkpt lat="45.110140762835826" lon="9.436246018293932"><ele>54.6</ele><time>2026-03-29T13:20:51.002Z</time></trkpt><trkpt lat="45.11017013835972" lon="9.436122791722171"><ele>54.2</ele><time>2026-03-29T13:20:53.002Z</time></trkpt><trkpt lat="45.11020894119424" lon="9.436008426699265"><ele>53.8</ele><time>2026-03-29T13:20:55.002Z</time></trkpt><trkpt lat="45.1102632393958" lon="9.435813963585877"><ele>53.4</ele><time>2026-03-29T13:20:57.002Z</time></trkpt><trkpt lat="45.1102990569977" lon="9.435686326650712"><ele>53.0</ele><time>2026-03-29T13:20:58.002Z</time></trkpt><trkpt lat="45.11034314740872" lon="9.435538963172213"><ele>52.8</ele><time>2026-03-29T13:20:59.002Z</time></trkpt><trkpt lat="45.11038610036921" lon="9.435380094898003"><ele>52.599999999999994</ele><time>2026-03-29T13:21:00.002Z</time></trkpt><trkpt lat="45.110422245897205" lon="9.435233357655711"><ele>52.400000000000006</ele><time>2026-03-29T13:21:00.999Z</time></trkpt><trkpt lat="45.11044330565475" lon="9.435088289616928"><ele>52.2</ele><time>2026-03-29T13:21:01.999Z</time></trkpt><trkpt lat="45.11046723615867" lon="9.434933614740768"><ele>52.0</ele><time>2026-03-29T13:21:02.999Z</time></trkpt><trkpt lat="45.11048520732686" lon="9.43476739551513"><ele>52.25</ele><time>2026-03-29T13:21:03.999Z</time></trkpt><trkpt lat="45.11050080060169" lon="9.434603124693414"><ele>52.5</ele><time>2026-03-29T13:21:04.999Z</time></trkpt><trkpt lat="45.11051567840062" lon="9.434437338054627"><ele>52.75</ele><time>2026-03-29T13:21:05.999Z</time></trkpt><trkpt lat="45.110535840358416" lon="9.434272644012578"><ele>53.0</ele><time>2026-03-29T13:21:06.999Z</time></trkpt><trkpt lat="45.110564029602386" lon="9.434126479449136"><ele>53.0</ele><time>2026-03-29T13:21:07.999Z</time></trkpt><trkpt lat="45.110572445366266" lon="9.43398940361608"><ele>53.0</ele><time>2026-03-29T13:21:08.999Z</time></trkpt><trkpt lat="45.1105864964158" lon="9.43384911773504"><ele>53.0</ele><time>2026-03-29T13:21:09.999Z</time></trkpt><trkpt lat="45.11061981709918" lon="9.433708623275404"><ele>53.0</ele><time>2026-03-29T13:21:10.999Z</time></trkpt><trkpt lat="45.11064002748255" lon="9.433546489098294"><ele>53.0</ele><time>2026-03-29T13:21:11.999Z</time></trkpt><trkpt lat="45.1106444573068" lon="9.43337551831477"><ele>53.0</ele><time>2026-03-29T13:21:12.999Z</time></trkpt><trkpt lat="45.11067085683402" lon="9.43321094481631"><ele>53.0</ele><time>2026-03-29T13:21:13.999Z</time></trkpt><trkpt lat="45.110686361608195" lon="9.43306567420753"><ele>53.0</ele><time>2026-03-29T13:21:14.999Z</time></trkpt><trkpt lat="45.11070635352992" lon="9.432939748259077"><ele>53.0</ele><time>2026-03-29T13:21:15.999Z</time></trkpt><trkpt lat="45.11071646416536" lon="9.432823345064449"><ele>53.0</ele><time>2026-03-29T13:21:16.999Z</time></trkpt><trkpt lat="45.11073685345336" lon="9.432697928083408"><ele>52.8</ele><time>2026-03-29T13:21:17.999Z</time></trkpt><trkpt lat="45.110754093420255" lon="9.43256162191247"><ele>52.599999999999994</ele><time>2026-03-29T13:21:18.999Z</time></trkpt><trkpt lat="45.110757586558535" lon="9.432433491104996"><ele>52.400000000000006</ele><time>2026-03-29T13:21:19.999Z</time></trkpt><trkpt lat="45.11076669885093" lon="9.432297518448621"><ele>52.2</ele><time>2026-03-29T13:21:20.999Z</time></trkpt><trkpt lat="45.11077567947892" lon="9.43214182756677"><ele>52.0</ele><time>2026-03-29T13:21:21.999Z</time></trkpt><trkpt lat="45.11078486594944" lon="9.431957418304869"><ele>51.75</ele><time>2026-03-29T13:21:23Z</time></trkpt><trkpt lat="45.11081374477751" lon="9.43175477422737"><ele>51.5</ele><time>2026-03-29T13:21:24Z</time></trkpt><trkpt lat="45.1108579881753" lon="9.431550662737012"><ele>51.25</ele><time>2026-03-29T13:21:25Z</time></trkpt><trkpt lat="45.1108793689505" lon="9.431354075176758"><ele>51.0</ele><time>2026-03-29T13:21:26Z</time></trkpt><trkpt lat="45.11089897394532" lon="9.431166821257937"><ele>50.75</ele><time>2026-03-29T13:21:27Z</time></trkpt><trkpt lat="45.11091195870591" lon="9.430979239680575"><ele>50.5</ele><time>2026-03-29T13:21:28Z</time></trkpt><trkpt lat="45.11092022734932" lon="9.430795702312556"><ele>50.25</ele><time>2026-03-29T13:21:29Z</time></trkpt><trkpt lat="45.110926120690834" lon="9.430612055119123"><ele>50.0</ele><time>2026-03-29T13:21:30Z</time></trkpt><trkpt lat="45.11093222665943" lon="9.43042549729481"><ele>50.0</ele><time>2026-03-29T13:21:31Z</time></trkpt><trkpt lat="45.110942155453714" lon="9.43022882436383"><ele>50.0</ele><time>2026-03-29T13:21:32Z</time></trkpt><trkpt lat="45.11095784324086" lon="9.430014987610582"><ele>50.0</ele><time>2026-03-29T13:21:33Z</time></trkpt><trkpt lat="45.11097665456313" lon="9.429796130903048"><ele>50.0</ele><time>2026-03-29T13:21:34Z</time></trkpt><trkpt lat="45.111003427650274" lon="9.429579469948518"><ele>50.0</ele><time>2026-03-29T13:21:35Z</time></trkpt><trkpt lat="45.11103904482897" lon="9.429385209770818"><ele>50.0</ele><time>2026-03-29T13:21:36Z</time></trkpt><trkpt lat="45.11108369175745" lon="9.429192803057328"><ele>50.0</ele><time>2026-03-29T13:21:37Z</time></trkpt><trkpt lat="45.11113124071396" lon="9.428990659113309"><ele>50.0</ele><time>2026-03-29T13:21:38Z</time></trkpt><trkpt lat="45.11116751074939" lon="9.428769983734771"><ele>50.0</ele><time>2026-03-29T13:21:39Z</time></trkpt><trkpt lat="45.111194038717564" lon="9.428540093717015"><ele>50.0</ele><time>2026-03-29T13:21:40Z</time></trkpt><trkpt lat="45.11121593667288" lon="9.42830993148781"><ele>50.0</ele><time>2026-03-29T13:21:41Z</time></trkpt><trkpt lat="45.111235360705244" lon="9.428089368534026"><ele>50.25</ele><time>2026-03-29T13:21:42Z</time></trkpt><trkpt lat="45.111255081400856" lon="9.427890395397664"><ele>50.5</ele><time>2026-03-29T13:21:43Z</time></trkpt><trkpt lat="45.111274092399135" lon="9.427704528717562"><ele>50.75</ele><time>2026-03-29T13:21:44Z</time></trkpt><trkpt lat="45.11129293198167" lon="9.427521266709167"><ele>51.0</ele><time>2026-03-29T13:21:45Z</time></trkpt><trkpt lat="45.11130449002527" lon="9.427342680520432"><ele>51.0</ele><time>2026-03-29T13:21:46Z</time></trkpt><trkpt lat="45.111318107820864" lon="9.42716027397973"><ele>51.0</ele><time>2026-03-29T13:21:47Z</time></trkpt><trkpt lat="45.11133232896409" lon="9.426973212694184"><ele>51.0</ele><time>2026-03-29T13:21:48Z</time></trkpt><trkpt lat="45.11135613020343" lon="9.426779238800416"><ele>51.0</ele><time>2026-03-29T13:21:49Z</time></trkpt><trkpt lat="45.111388698728966" lon="9.426583896881993"><ele>51.0</ele><time>2026-03-29T13:21:50Z</time></trkpt><trkpt lat="45.111427837470195" lon="9.426367276975505"><ele>51.0</ele><time>2026-03-29T13:21:51Z</time></trkpt><trkpt lat="45.111466586589934" lon="9.426168835150271"><ele>51.0</ele><time>2026-03-29T13:21:52Z</time></trkpt><trkpt lat="45.111514339195786" lon="9.425957302399663"><ele>51.0</ele><time>2026-03-29T13:21:53Z</time></trkpt><trkpt lat="45.1115577785854" lon="9.4257503155073"><ele>51.0</ele><time>2026-03-29T13:21:54.001Z</time></trkpt><trkpt lat="45.11160038786099" lon="9.425548356070415"><ele>51.0</ele><time>2026-03-29T13:21:55.001Z</time></trkpt><trkpt lat="45.111646878588466" lon="9.425349489791675"><ele>51.0</ele><time>2026-03-29T13:21:56.001Z</time></trkpt><trkpt lat="45.11168957355881" lon="9.425167981802868"><ele>50.75</ele><time>2026-03-29T13:21:57.001Z</time></trkpt><trkpt lat="45.111731868026446" lon="9.424995929884805"><ele>50.5</ele><time>2026-03-29T13:21:58.001Z</time></trkpt><trkpt lat="45.11177236748853" lon="9.424822094866162"><ele>50.25</ele><time>2026-03-29T13:21:59.001Z</time></trkpt><trkpt lat="45.11180832458206" lon="9.424639684159631"><ele>50.0</ele><time>2026-03-29T13:22:00.001Z</time></trkpt><trkpt lat="45.11184335589077" lon="9.4244630220202"><ele>50.0</ele><time>2026-03-29T13:22:01.001Z</time></trkpt><trkpt lat="45.11187226864746" lon="9.42429559688503"><ele>50.0</ele><time>2026-03-29T13:22:02.001Z</time></trkpt><trkpt lat="45.11190225934971" lon="9.424132975867622"><ele>50.0</ele><time>2026-03-29T13:22:03.001Z</time></trkpt><trkpt lat="45.11192381312" lon="9.423964495526041"><ele>50.0</ele><time>2026-03-29T13:22:04.001Z</time></trkpt><trkpt lat="45.11195355937053" lon="9.423789928800229"><ele>50.25</ele><time>2026-03-29T13:22:05.001Z</time></trkpt><trkpt lat="45.11198634379497" lon="9.423627413401546"><ele>50.5</ele><time>2026-03-29T13:22:06.001Z</time></trkpt><trkpt lat="45.11202819374358" lon="9.423460842425456"><ele>50.75</ele><time>2026-03-29T13:22:07.001Z</time></trkpt><trkpt lat="45.11207611183905" lon="9.42329061034014"><ele>51.0</ele><time>2026-03-29T13:22:08.001Z</time></trkpt><trkpt lat="45.1121292766402" lon="9.423121214106203"><ele>50.8</ele><time>2026-03-29T13:22:09.001Z</time></trkpt><trkpt lat="45.1121778571566" lon="9.422975860510768"><ele>50.599999999999994</ele><time>2026-03-29T13:22:10.001Z</time></trkpt><trkpt lat="45.11222445390966" lon="9.422833913618001"><ele>50.4</ele><time>2026-03-29T13:22:11.001Z</time></trkpt><trkpt lat="45.11228849684115" lon="9.422721304836422"><ele>50.2</ele><time>2026-03-29T13:22:12.001Z</time></trkpt><trkpt lat="45.11235558258272" lon="9.422601101735331"><ele>50.0</ele><time>2026-03-29T13:22:13.001Z</time></trkpt><trkpt lat="45.112404294713954" lon="9.422482448507811"><ele>50.2</ele><time>2026-03-29T13:22:14.001Z</time></trkpt><trkpt lat="45.11246210833487" lon="9.422386185817917"><ele>50.4</ele><time>2026-03-29T13:22:15.001Z</time></trkpt><trkpt lat="45.11250525685857" lon="9.42227716093686"><ele>50.599999999999994</ele><time>2026-03-29T13:22:16.001Z</time></trkpt><trkpt lat="45.112534275165956" lon="9.422170620338814"><ele>50.8</ele><time>2026-03-29T13:22:17.001Z</time></trkpt><trkpt lat="45.11255388879011" lon="9.422038075729919"><ele>51.0</ele><time>2026-03-29T13:22:18.001Z</time></trkpt><trkpt lat="45.1125676868506" lon="9.421901133251668"><ele>51.0</ele><time>2026-03-29T13:22:19.001Z</time></trkpt><trkpt lat="45.11257787748881" lon="9.421745322723707"><ele>51.0</ele><time>2026-03-29T13:22:20.001Z</time></trkpt><trkpt lat="45.11261309865351" lon="9.42159663221873"><ele>51.0</ele><time>2026-03-29T13:22:21.001Z</time></trkpt><trkpt lat="45.11262577912874" lon="9.421462315533216"><ele>51.0</ele><time>2026-03-29T13:22:22.001Z</time></trkpt><trkpt lat="45.112650119965146" lon="9.421343130528431"><ele>51.0</ele><time>2026-03-29T13:22:23.001Z</time></trkpt><trkpt lat="45.11268188600673" lon="9.421242367552047"><ele>50.8</ele><time>2026-03-29T13:22:24.001Z</time></trkpt><trkpt lat="45.11272234304431" lon="9.421130458602386"><ele>50.599999999999994</ele><time>2026-03-29T13:22:25.001Z</time></trkpt><trkpt lat="45.11277780047961" lon="9.42101167704448"><ele>50.4</ele><time>2026-03-29T13:22:26.001Z</time></trkpt><trkpt lat="45.11284255643252" lon="9.420914839209418"><ele>50.2</ele><time>2026-03-29T13:22:27.001Z</time></trkpt><trkpt lat="45.11293419916218" lon="9.420883628844498"><ele>50.0</ele><time>2026-03-29T13:22:28.001Z</time></trkpt><trkpt lat="45.11302749277908" lon="9.420817406987974"><ele>50.00000000000001</ele><time>2026-03-29T13:22:29.001Z</time></trkpt><trkpt lat="45.11313249259904" lon="9.420740947810875"><ele>50.0</ele><time>2026-03-29T13:22:30.001Z</time></trkpt><trkpt lat="45.11319928679696" lon="9.420671820429005"><ele>50.0</ele><time>2026-03-29T13:22:31.001Z</time></trkpt><trkpt lat="45.113272032855576" lon="9.420631982518787"><ele>50.0</ele><time>2026-03-29T13:22:32.001Z</time></trkpt><trkpt lat="45.113342903400195" lon="9.420575357914624"><ele>50.00000000000001</ele><time>2026-03-29T13:22:33.001Z</time></trkpt><trkpt lat="45.113405351596825" lon="9.420497723029449"><ele>50.0</ele><time>2026-03-29T13:22:34.001Z</time></trkpt><trkpt lat="45.11345107652302" lon="9.420402869287166"><ele>50.00000000000001</ele><time>2026-03-29T13:22:35.002Z</time></trkpt><trkpt lat="45.11348755905803" lon="9.420313983389422"><ele>50.0</ele><time>2026-03-29T13:22:36.002Z</time></trkpt><trkpt lat="45.11353707694254" lon="9.420240920471624"><ele>50.0</ele><time>2026-03-29T13:22:37.002Z</time></trkpt><trkpt lat="45.11359781558238" lon="9.420194686285683"><ele>50.0</ele><time>2026-03-29T13:22:38.002Z</time></trkpt><trkpt lat="45.11367970923615" lon="9.420162618295896"><ele>50.00000000000001</ele><time>2026-03-29T13:22:39.002Z</time></trkpt><trkpt lat="45.11377051824762" lon="9.420129874481658"><ele>50.0</ele><time>2026-03-29T13:22:40.002Z</time></trkpt><trkpt lat="45.11387818263951" lon="9.420101534135277"><ele>50.0</ele><time>2026-03-29T13:22:41.002Z</time></trkpt><trkpt lat="45.11398842580978" lon="9.42007741297775"><ele>50.0</ele><time>2026-03-29T13:22:42.002Z</time></trkpt><trkpt lat="45.11408023976106" lon="9.420053166977878"><ele>50.0</ele><time>2026-03-29T13:22:43.002Z</time></trkpt><trkpt lat="45.11416617397017" lon="9.420065043647776"><ele>50.0</ele><time>2026-03-29T13:22:44.002Z</time></trkpt><trkpt lat="45.11425941108158" lon="9.420040260332028"><ele>50.0</ele><time>2026-03-29T13:22:45.002Z</time></trkpt><trkpt lat="45.114341874940344" lon="9.42002263215722"><ele>50.0</ele><time>2026-03-29T13:22:46.002Z</time></trkpt><trkpt lat="45.114422676217586" lon="9.419972654747465"><ele>50.0</ele><time>2026-03-29T13:22:47.002Z</time></trkpt><trkpt lat="45.1144907540194" lon="9.419894601255896"><ele>50.0</ele><time>2026-03-29T13:22:48.002Z</time></trkpt><trkpt lat="45.11454949756432" lon="9.419796787821213"><ele>50.0</ele><time>2026-03-29T13:22:49.002Z</time></trkpt><trkpt lat="45.114591722054406" lon="9.419680942623494"><ele>50.0</ele><time>2026-03-29T13:22:50.002Z</time></trkpt><trkpt lat="45.114640280537905" lon="9.419541527176657"><ele>50.0</ele><time>2026-03-29T13:22:51.002Z</time></trkpt><trkpt lat="45.114695074771895" lon="9.419380653123255"><ele>50.0</ele><time>2026-03-29T13:22:52.002Z</time></trkpt><trkpt lat="45.11476052808335" lon="9.419215677767134"><ele>50.0</ele><time>2026-03-29T13:22:53.002Z</time></trkpt><trkpt lat="45.114826849803755" lon="9.419068460758934"><ele>50.0</ele><time>2026-03-29T13:22:54.002Z</time></trkpt><trkpt lat="45.11489033567366" lon="9.418918002555433"><ele>50.0</ele><time>2026-03-29T13:22:55.002Z</time></trkpt><trkpt lat="45.114950353821335" lon="9.418764980541745"><ele>50.0</ele><time>2026-03-29T13:22:56.002Z</time></trkpt><trkpt lat="45.115010941478474" lon="9.418611014398813"><ele>50.0</ele><time>2026-03-29T13:22:57.002Z</time></trkpt><trkpt lat="45.11507304188788" lon="9.418464186530384"><ele>50.0</ele><time>2026-03-29T13:22:58.002Z</time></trkpt><trkpt lat="45.11512778162264" lon="9.418321693978186"><ele>50.0</ele><time>2026-03-29T13:22:59.002Z</time></trkpt><trkpt lat="45.11518454702078" lon="9.418180601090768"><ele>50.0</ele><time>2026-03-29T13:23:00.002Z</time></trkpt><trkpt lat="45.11523770260873" lon="9.418028918189412"><ele>50.0</ele><time>2026-03-29T13:23:01.002Z</time></trkpt><trkpt lat="45.1152893602238" lon="9.41787211689028"><ele>50.0</ele><time>2026-03-29T13:23:02.002Z</time></trkpt><trkpt lat="45.11534458010784" lon="9.417712271902454"><ele>50.0</ele><time>2026-03-29T13:23:03.002Z</time></trkpt><trkpt lat="45.11539994782458" lon="9.417553873751023"><ele>50.0</ele><time>2026-03-29T13:23:04.002Z</time></trkpt><trkpt lat="45.11545121420965" lon="9.417414906594626"><ele>50.0</ele><time>2026-03-29T13:23:05.002Z</time></trkpt><trkpt lat="45.115501438609144" lon="9.41727172102486"><ele>50.0</ele><time>2026-03-29T13:23:06.002Z</time></trkpt><trkpt lat="45.115550695279545" lon="9.417132015377542"><ele>50.0</ele><time>2026-03-29T13:23:06.999Z</time></trkpt><trkpt lat="45.11559410686983" lon="9.416996999371904"><ele>50.0</ele><time>2026-03-29T13:23:07.999Z</time></trkpt><trkpt lat="45.11562826453916" lon="9.416882654717815"><ele>50.0</ele><time>2026-03-29T13:23:08.999Z</time></trkpt><trkpt lat="45.11566234483401" lon="9.416774064549795"><ele>50.0</ele><time>2026-03-29T13:23:09.999Z</time></trkpt><trkpt lat="45.115703646035094" lon="9.416659067662822"><ele>50.0</ele><time>2026-03-29T13:23:10.999Z</time></trkpt><trkpt lat="45.11575515874171" lon="9.416547518652235"><ele>50.5</ele><time>2026-03-29T13:23:11.999Z</time></trkpt><trkpt lat="45.11581286817284" lon="9.416429014318002"><ele>51.0</ele><time>2026-03-29T13:23:12.999Z</time></trkpt><trkpt lat="45.11587869846673" lon="9.416310079929945"><ele>51.5</ele><time>2026-03-29T13:23:13.999Z</time></trkpt><trkpt lat="45.11594956902757" lon="9.416179315062704"><ele>52.0</ele><time>2026-03-29T13:23:14.999Z</time></trkpt><trkpt lat="45.11601130553406" lon="9.416025073575963"><ele>52.0</ele><time>2026-03-29T13:23:15.999Z</time></trkpt><trkpt lat="45.11608981567132" lon="9.41588239494066"><ele>52.0</ele><time>2026-03-29T13:23:16.999Z</time></trkpt><trkpt lat="45.116160800074326" lon="9.41574196992552"><ele>52.0</ele><time>2026-03-29T13:23:17.999Z</time></trkpt><trkpt lat="45.11622691396014" lon="9.415621161605369"><ele>52.0</ele><time>2026-03-29T13:23:18.999Z</time></trkpt><trkpt lat="45.11628280089355" lon="9.415511620457165"><ele>52.0</ele><time>2026-03-29T13:23:19.999Z</time></trkpt><trkpt lat="45.11634439056365" lon="9.415376121415141"><ele>52.0</ele><time>2026-03-29T13:23:20.999Z</time></trkpt><trkpt lat="45.116400604802166" lon="9.415241340428356"><ele>52.0</ele><time>2026-03-29T13:23:21.999Z</time></trkpt><trkpt lat="45.11643970539976" lon="9.415111526338773"><ele>52.0</ele><time>2026-03-29T13:23:22.999Z</time></trkpt><trkpt lat="45.116488475453814" lon="9.41500052142166"><ele>52.0</ele><time>2026-03-29T13:23:23.999Z</time></trkpt><trkpt lat="45.116530074372236" lon="9.414894514374101"><ele>51.99999999999999</ele><time>2026-03-29T13:23:24.999Z</time></trkpt><trkpt lat="45.116573396346894" lon="9.414785559516869"><ele>52.0</ele><time>2026-03-29T13:23:25.999Z</time></trkpt><trkpt lat="45.11660967360369" lon="9.41469090047095"><ele>52.0</ele><time>2026-03-29T13:23:26.999Z</time></trkpt><trkpt lat="45.11664952281515" lon="9.414589798023677"><ele>52.0</ele><time>2026-03-29T13:23:27.999Z</time></trkpt><trkpt lat="45.11668729536668" lon="9.414509475145492"><ele>51.99999999999999</ele><time>2026-03-29T13:23:28.999Z</time></trkpt><trkpt lat="45.11672155782871" lon="9.414424013087197"><ele>52.0</ele><time>2026-03-29T13:23:29.999Z</time></trkpt><trkpt lat="45.1167790160528" lon="9.414296977031725"><ele>52.2</ele><time>2026-03-29T13:23:32Z</time></trkpt><trkpt lat="45.11684022374516" lon="9.414174129252487"><ele>52.400000000000006</ele><time>2026-03-29T13:23:34Z</time></trkpt><trkpt lat="45.1169074622859" lon="9.414162642665655"><ele>52.599999999999994</ele><time>2026-03-29T13:23:35Z</time></trkpt><trkpt lat="45.11703544098669" lon="9.414186777227375"><ele>52.8</ele><time>2026-03-29T13:23:37Z</time></trkpt><trkpt lat="45.11712783563365" lon="9.414203988666447"><ele>53.0</ele><time>2026-03-29T13:23:38Z</time></trkpt><trkpt lat="45.11722624399785" lon="9.414222320351358"><ele>53.0</ele><time>2026-03-29T13:23:39Z</time></trkpt><trkpt lat="45.117319417432334" lon="9.41423967686432"><ele>53.0</ele><time>2026-03-29T13:23:40Z</time></trkpt><trkpt lat="45.11738575466995" lon="9.414428562688242"><ele>53.0</ele><time>2026-03-29T13:23:41Z</time></trkpt><trkpt lat="45.1174647878857" lon="9.414451820980108"><ele>53.0</ele><time>2026-03-29T13:23:42Z</time></trkpt><trkpt lat="45.11753519572371" lon="9.414465295715512"><ele>53.0</ele><time>2026-03-29T13:23:43Z</time></trkpt><trkpt lat="45.11763254078413" lon="9.41441357569938"><ele>53.0</ele><time>2026-03-29T13:23:45Z</time></trkpt><trkpt lat="45.11766662062399" lon="9.414261461749218"><ele>53.0</ele><time>2026-03-29T13:23:47Z</time></trkpt><trkpt lat="45.11767312283593" lon="9.414124413071114"><ele>53.0</ele><time>2026-03-29T13:23:49Z</time></trkpt><trkpt lat="45.11768994774339" lon="9.414002147097104"><ele>53.0</ele><time>2026-03-29T13:23:51Z</time></trkpt><trkpt lat="45.11770370416103" lon="9.413880411025078"><ele>53.0</ele><time>2026-03-29T13:23:53Z</time></trkpt><trkpt lat="45.11773613438817" lon="9.413780226645047"><ele>53.0</ele><time>2026-03-29T13:23:55Z</time></trkpt><trkpt lat="45.11780372807554" lon="9.41375374132418"><ele>53.0</ele><time>2026-03-29T13:23:57Z</time></trkpt><trkpt lat="45.11787803498754" lon="9.41378886105428"><ele>53.0</ele><time>2026-03-29T13:23:59Z</time></trkpt><trkpt lat="45.11793533084264" lon="9.413831690899052"><ele>53.0</ele><time>2026-03-29T13:24:00Z</time></trkpt><trkpt lat="45.11799696942494" lon="9.413878713372352"><ele>53.0</ele><time>2026-03-29T13:24:01.001Z</time></trkpt><trkpt lat="45.11806286008254" lon="9.41392047086213"><ele>53.0</ele><time>2026-03-29T13:24:02.001Z</time></trkpt><trkpt lat="45.11812687336062" lon="9.41395504806675"><ele>53.0</ele><time>2026-03-29T13:24:03.001Z</time></trkpt><trkpt lat="45.11819878125878" lon="9.414002957065982"><ele>52.8</ele><time>2026-03-29T13:24:04.001Z</time></trkpt><trkpt lat="45.11825817687022" lon="9.414037125722489"><ele>52.599999999999994</ele><time>2026-03-29T13:24:05.001Z</time></trkpt><trkpt lat="45.11836688148745" lon="9.414057860737605"><ele>52.400000000000006</ele><time>2026-03-29T13:24:07.001Z</time></trkpt><trkpt lat="45.11847081259606" lon="9.413984309037959"><ele>52.2</ele><time>2026-03-29T13:24:09.001Z</time></trkpt><trkpt lat="45.1185236749866" lon="9.413864184331013"><ele>52.0</ele><time>2026-03-29T13:24:11.001Z</time></trkpt><trkpt lat="45.118566846602526" lon="9.413732532373654"><ele>51.666666666666664</ele><time>2026-03-29T13:24:13.001Z</time></trkpt><trkpt lat="45.118622304356315" lon="9.413621177476784"><ele>51.33333333333333</ele><time>2026-03-29T13:24:15.001Z</time></trkpt><trkpt lat="45.118707325176246" lon="9.413486380413639"><ele>51.0</ele><time>2026-03-29T13:24:17.001Z</time></trkpt><trkpt lat="45.11874425447959" lon="9.413410731225833"><ele>50.66666666666667</ele><time>2026-03-29T13:24:18.001Z</time></trkpt><trkpt lat="45.11877950918217" lon="9.413319616742376"><ele>50.333333333333336</ele><time>2026-03-29T13:24:19.001Z</time></trkpt><trkpt lat="45.118803394472195" lon="9.41323588583938"><ele>50.0</ele><time>2026-03-29T13:24:20.001Z</time></trkpt><trkpt lat="45.118837854456174" lon="9.413114881464864"><ele>50.00000000000001</ele><time>2026-03-29T13:24:21.001Z</time></trkpt><trkpt lat="45.11886499575677" lon="9.412996953034682"><ele>50.0</ele><time>2026-03-29T13:24:22.001Z</time></trkpt><trkpt lat="45.11889485150984" lon="9.41289442271334"><ele>50.0</ele><time>2026-03-29T13:24:23.001Z</time></trkpt><trkpt lat="45.118937149193506" lon="9.412805058744048"><ele>50.0</ele><time>2026-03-29T13:24:24.001Z</time></trkpt><trkpt lat="45.11898001131351" lon="9.412731818464719"><ele>50.00000000000001</ele><time>2026-03-29T13:24:25.001Z</time></trkpt><trkpt lat="45.11902398487787" lon="9.412653795449271"><ele>50.0</ele><time>2026-03-29T13:24:26.001Z</time></trkpt><trkpt lat="45.119071534379145" lon="9.412571143029668"><ele>50.0</ele><time>2026-03-29T13:24:27.001Z</time></trkpt><trkpt lat="45.119120306900605" lon="9.412486937850245"><ele>50.0</ele><time>2026-03-29T13:24:28.001Z</time></trkpt><trkpt lat="45.11918363709209" lon="9.412387651364822"><ele>50.0</ele><time>2026-03-29T13:24:29.001Z</time></trkpt><trkpt lat="45.11924584566126" lon="9.412284495446077"><ele>50.0</ele><time>2026-03-29T13:24:30.001Z</time></trkpt><trkpt lat="45.119304437639386" lon="9.412175614409213"><ele>50.0</ele><time>2026-03-29T13:24:31.001Z</time></trkpt><trkpt lat="45.119363068076595" lon="9.412071842319897"><ele>50.16666666666667</ele><time>2026-03-29T13:24:32.001Z</time></trkpt><trkpt lat="45.11940873047667" lon="9.411983799081963"><ele>50.333333333333336</ele><time>2026-03-29T13:24:33.001Z</time></trkpt><trkpt lat="45.119446837708374" lon="9.411904708496932"><ele>50.5</ele><time>2026-03-29T13:24:34.001Z</time></trkpt><trkpt lat="45.11948767994151" lon="9.411749962458417"><ele>50.66666666666667</ele><time>2026-03-29T13:24:36.001Z</time></trkpt><trkpt lat="45.11950299432994" lon="9.411651443972088"><ele>50.833333333333336</ele><time>2026-03-29T13:24:37.002Z</time></trkpt><trkpt lat="45.119519086836625" lon="9.411533254203592"><ele>51.0</ele><time>2026-03-29T13:24:38.002Z</time></trkpt><trkpt lat="45.11953171223856" lon="9.411395170306259"><ele>50.8</ele><time>2026-03-29T13:24:39.002Z</time></trkpt><trkpt lat="45.11953940081879" lon="9.411265108510102"><ele>50.599999999999994</ele><time>2026-03-29T13:24:40.002Z</time></trkpt><trkpt lat="45.11953727173505" lon="9.411135655869515"><ele>50.4</ele><time>2026-03-29T13:24:41.002Z</time></trkpt><trkpt lat="45.11953088086957" lon="9.41100908843265"><ele>50.2</ele><time>2026-03-29T13:24:42.002Z</time></trkpt><trkpt lat="45.119522307127475" lon="9.410872550075501"><ele>50.0</ele><time>2026-03-29T13:24:43.002Z</time></trkpt><trkpt lat="45.119522426327066" lon="9.410754182272203"><ele>50.00000000000001</ele><time>2026-03-29T13:24:44.002Z</time></trkpt><trkpt lat="45.119529847591174" lon="9.410633263026119"><ele>50.0</ele><time>2026-03-29T13:24:45.002Z</time></trkpt><trkpt lat="45.119542410904785" lon="9.410524074321511"><ele>50.0</ele><time>2026-03-29T13:24:46.002Z</time></trkpt><trkpt lat="45.119554664826346" lon="9.410416271574224"><ele>50.0</ele><time>2026-03-29T13:24:47.002Z</time></trkpt><trkpt lat="45.119579089821876" lon="9.410303968403396"><ele>50.00000000000001</ele><time>2026-03-29T13:24:48.002Z</time></trkpt><trkpt lat="45.119607223829895" lon="9.410182683261002"><ele>50.0</ele><time>2026-03-29T13:24:49.002Z</time></trkpt><trkpt lat="45.119639377370845" lon="9.410059759570187"><ele>50.142857142857146</ele><time>2026-03-29T13:24:50.002Z</time></trkpt><trkpt lat="45.119663045748375" lon="9.40996340368523"><ele>50.285714285714285</ele><time>2026-03-29T13:24:51.002Z</time></trkpt><trkpt lat="45.119695018199806" lon="9.409875785899231"><ele>50.42857142857143</ele><time>2026-03-29T13:24:52.002Z</time></trkpt><trkpt lat="45.11973718154675" lon="9.409777951828529"><ele>50.57142857142857</ele><time>2026-03-29T13:24:53.002Z</time></trkpt><trkpt lat="45.119768914919234" lon="9.409691076354582"><ele>50.714285714285715</ele><time>2026-03-29T13:24:54.002Z</time></trkpt><trkpt lat="45.11978952018564" lon="9.409581134433026"><ele>50.85714285714286</ele><time>2026-03-29T13:24:55.002Z</time></trkpt><trkpt lat="45.11979315794371" lon="9.409472322343575"><ele>51.0</ele><time>2026-03-29T13:24:56.002Z</time></trkpt><trkpt lat="45.11979497520473" lon="9.409382375933204"><ele>51.199999999999996</ele><time>2026-03-29T13:24:57.002Z</time></trkpt><trkpt lat="45.11980397970202" lon="9.409215252413077"><ele>51.4</ele><time>2026-03-29T13:24:59.002Z</time></trkpt><trkpt lat="45.11981573199956" lon="9.409061937110152"><ele>51.6</ele><time>2026-03-29T13:25:01.002Z</time></trkpt><trkpt lat="45.11981739317801" lon="9.408971090900495"><ele>51.8</ele><time>2026-03-29T13:25:03.002Z</time></trkpt><trkpt lat="45.11976291333649" lon="9.408908949848866"><ele>52.0</ele><time>2026-03-29T13:25:13.999Z</time></trkpt><trkpt lat="45.119696064817894" lon="9.408807598863529"><ele>52.2</ele><time>2026-03-29T13:25:15.999Z</time></trkpt><trkpt lat="45.119695121181735" lon="9.408716435949001"><ele>52.400000000000006</ele><time>2026-03-29T13:25:16.999Z</time></trkpt><trkpt lat="45.11970894015372" lon="9.408608706506012"><ele>52.599999999999994</ele><time>2026-03-29T13:25:17.999Z</time></trkpt><trkpt lat="45.11972123016828" lon="9.408463070611788"><ele>52.8</ele><time>2026-03-29T13:25:18.999Z</time></trkpt><trkpt lat="45.11972513245042" lon="9.408310321255769"><ele>53.0</ele><time>2026-03-29T13:25:19.999Z</time></trkpt><trkpt lat="45.11972990392164" lon="9.40816795752088"><ele>53.0</ele><time>2026-03-29T13:25:20.999Z</time></trkpt><trkpt lat="45.11973545176927" lon="9.408027041386788"><ele>53.0</ele><time>2026-03-29T13:25:21.999Z</time></trkpt><trkpt lat="45.11974149166408" lon="9.407883552839362"><ele>53.0</ele><time>2026-03-29T13:25:22.999Z</time></trkpt><trkpt lat="45.11974832404924" lon="9.407724621886043"><ele>53.0</ele><time>2026-03-29T13:25:23.999Z</time></trkpt><trkpt lat="45.119756103124885" lon="9.407564175187309"><ele>53.0</ele><time>2026-03-29T13:25:24.999Z</time></trkpt><trkpt lat="45.11975046775526" lon="9.407398995852517"><ele>53.0</ele><time>2026-03-29T13:25:25.999Z</time></trkpt><trkpt lat="45.11975788283198" lon="9.407240584997018"><ele>53.0</ele><time>2026-03-29T13:25:26.999Z</time></trkpt><trkpt lat="45.11975534643947" lon="9.40708327532351"><ele>53.0</ele><time>2026-03-29T13:25:27.999Z</time></trkpt><trkpt lat="45.11975069698685" lon="9.40693995516556"><ele>53.0</ele><time>2026-03-29T13:25:28.999Z</time></trkpt><trkpt lat="45.11974404671652" lon="9.406816216707817"><ele>53.0</ele><time>2026-03-29T13:25:29.999Z</time></trkpt><trkpt lat="45.11974651709371" lon="9.406712716127197"><ele>52.833333333333336</ele><time>2026-03-29T13:25:30.999Z</time></trkpt><trkpt lat="45.11974341800539" lon="9.406621512519811"><ele>52.66666666666667</ele><time>2026-03-29T13:25:32Z</time></trkpt><trkpt lat="45.1197404738486" lon="9.406486685014253"><ele>52.5</ele><time>2026-03-29T13:25:34Z</time></trkpt><trkpt lat="45.119713690268675" lon="9.406342915535308"><ele>52.33333333333333</ele><time>2026-03-29T13:25:53Z</time></trkpt><trkpt lat="45.119647004566964" lon="9.406286667540341"><ele>52.166666666666664</ele><time>2026-03-29T13:25:54Z</time></trkpt><trkpt lat="45.119557957877326" lon="9.406280198412112"><ele>52.0</ele><time>2026-03-29T13:25:55Z</time></trkpt><trkpt lat="45.1194824742398" lon="9.406238375545142"><ele>51.75</ele><time>2026-03-29T13:25:56Z</time></trkpt><trkpt lat="45.11938225519875" lon="9.40621362429391"><ele>51.5</ele><time>2026-03-29T13:25:57Z</time></trkpt><trkpt lat="45.11925949769096" lon="9.406210918313809"><ele>51.25</ele><time>2026-03-29T13:25:58.001Z</time></trkpt><trkpt lat="45.11912043532041" lon="9.40616075344061"><ele>51.0</ele><time>2026-03-29T13:25:59.001Z</time></trkpt><trkpt lat="45.1189884282837" lon="9.406133259927335"><ele>51.0</ele><time>2026-03-29T13:26:00.001Z</time></trkpt><trkpt lat="45.118858255138605" lon="9.40610362006426"><ele>51.0</ele><time>2026-03-29T13:26:01.001Z</time></trkpt><trkpt lat="45.11873232602495" lon="9.406072020932733"><ele>51.0</ele><time>2026-03-29T13:26:02.001Z</time></trkpt><trkpt lat="45.11861324252814" lon="9.406040925445744"><ele>51.0</ele><time>2026-03-29T13:26:03.001Z</time></trkpt><trkpt lat="45.118510797498054" lon="9.406011593995208"><ele>51.0</ele><time>2026-03-29T13:26:04.001Z</time></trkpt><trkpt lat="45.11843309801004" lon="9.406005745059701"><ele>51.0</ele><time>2026-03-29T13:26:05.001Z</time></trkpt><trkpt lat="45.1183736176111" lon="9.405972462371928"><ele>51.0</ele><time>2026-03-29T13:26:06.001Z</time></trkpt><trkpt lat="45.11830752456907" lon="9.405954917043143"><ele>51.0</ele><time>2026-03-29T13:26:07.001Z</time></trkpt><trkpt lat="45.11822013901516" lon="9.405956763071178"><ele>51.0</ele><time>2026-03-29T13:26:08.001Z</time></trkpt><trkpt lat="45.11811979086014" lon="9.40590837249239"><ele>51.0</ele><time>2026-03-29T13:26:09.001Z</time></trkpt><trkpt lat="45.118010806981644" lon="9.40589666555917"><ele>51.0</ele><time>2026-03-29T13:26:10.001Z</time></trkpt><trkpt lat="45.117905690493664" lon="9.405877226458477"><ele>51.0</ele><time>2026-03-29T13:26:11.001Z</time></trkpt><trkpt lat="45.11781943086898" lon="9.40583411933175"><ele>51.0</ele><time>2026-03-29T13:26:12.001Z</time></trkpt><trkpt lat="45.11772765070902" lon="9.405811430004704"><ele>51.0</ele><time>2026-03-29T13:26:13.001Z</time></trkpt><trkpt lat="45.117625889063056" lon="9.405786273106123"><ele>51.0</ele><time>2026-03-29T13:26:14.001Z</time></trkpt><trkpt lat="45.11752517268021" lon="9.40576137462717"><ele>51.0</ele><time>2026-03-29T13:26:15.001Z</time></trkpt><trkpt lat="45.11741862848751" lon="9.405735035418184"><ele>51.0</ele><time>2026-03-29T13:26:16.001Z</time></trkpt><trkpt lat="45.11730969896836" lon="9.405705377843546"><ele>51.0</ele><time>2026-03-29T13:26:17.001Z</time></trkpt><trkpt lat="45.11718037570591" lon="9.405662646680266"><ele>51.0</ele><time>2026-03-29T13:26:18.001Z</time></trkpt><trkpt lat="45.11702430082772" lon="9.405620730528414"><ele>51.25</ele><time>2026-03-29T13:26:19.001Z</time></trkpt><trkpt lat="45.116888428903174" lon="9.405595602497417"><ele>51.5</ele><time>2026-03-29T13:26:20.001Z</time></trkpt><trkpt lat="45.11677102043833" lon="9.40555698780122"><ele>51.75</ele><time>2026-03-29T13:26:21.001Z</time></trkpt><trkpt lat="45.11666202702272" lon="9.405540063015511"><ele>52.0</ele><time>2026-03-29T13:26:22.001Z</time></trkpt><trkpt lat="45.116566189640324" lon="9.405508093633616"><ele>51.99999999999999</ele><time>2026-03-29T13:26:23.001Z</time></trkpt><trkpt lat="45.11647809046974" lon="9.405503054537364"><ele>52.0</ele><time>2026-03-29T13:26:24.001Z</time></trkpt><trkpt lat="45.11640622775067" lon="9.405476326179159"><ele>52.0</ele><time>2026-03-29T13:26:25.001Z</time></trkpt><trkpt lat="45.11633540933259" lon="9.405458172520175"><ele>52.0</ele><time>2026-03-29T13:26:26.001Z</time></trkpt><trkpt lat="45.11622256415566" lon="9.40542239308038"><ele>51.99999999999999</ele><time>2026-03-29T13:26:28.001Z</time></trkpt><trkpt lat="45.116125547653894" lon="9.405394744172781"><ele>52.0</ele><time>2026-03-29T13:26:30.002Z</time></trkpt><trkpt lat="45.11600147516698" lon="9.405343531826173"><ele>52.2</ele><time>2026-03-29T13:26:32.002Z</time></trkpt><trkpt lat="45.11592792867607" lon="9.405324085512708"><ele>52.400000000000006</ele><time>2026-03-29T13:26:33.002Z</time></trkpt><trkpt lat="45.115859336965606" lon="9.40532960791197"><ele>52.599999999999994</ele><time>2026-03-29T13:26:34.002Z</time></trkpt><trkpt lat="45.115772871900816" lon="9.405284909681907"><ele>52.8</ele><time>2026-03-29T13:26:36.002Z</time></trkpt><trkpt lat="45.115783211656066" lon="9.405062919842374"><ele>53.0</ele><time>2026-03-29T13:26:38.002Z</time></trkpt><trkpt lat="45.11580055307809" lon="9.404942237553364"><ele>53.0</ele><time>2026-03-29T13:26:39.002Z</time></trkpt><trkpt lat="45.1158295323369" lon="9.404764556932314"><ele>53.0</ele><time>2026-03-29T13:26:40.002Z</time></trkpt><trkpt lat="45.11586027449354" lon="9.404550714627103"><ele>53.0</ele><time>2026-03-29T13:26:41.002Z</time></trkpt><trkpt lat="45.115893300976325" lon="9.40430469038512"><ele>53.0</ele><time>2026-03-29T13:26:42.002Z</time></trkpt><trkpt lat="45.1159311824331" lon="9.404023095777347"><ele>53.0</ele><time>2026-03-29T13:26:43.002Z</time></trkpt><trkpt lat="45.11596791634525" lon="9.403739859020192"><ele>53.0</ele><time>2026-03-29T13:26:44.002Z</time></trkpt><trkpt lat="45.1159978348731" lon="9.403492246602639"><ele>53.0</ele><time>2026-03-29T13:26:45.002Z</time></trkpt><trkpt lat="45.11602244884946" lon="9.40330067743224"><ele>53.0</ele><time>2026-03-29T13:26:46.002Z</time></trkpt><trkpt lat="45.11605089664963" lon="9.403102758970599"><ele>53.0</ele><time>2026-03-29T13:26:47.002Z</time></trkpt><trkpt lat="45.11607530416212" lon="9.402927350188442"><ele>53.0</ele><time>2026-03-29T13:26:48.002Z</time></trkpt><trkpt lat="45.116097623002986" lon="9.402765104889577"><ele>53.0</ele><time>2026-03-29T13:26:49.002Z</time></trkpt><trkpt lat="45.11611779963949" lon="9.402620514098949"><ele>53.0</ele><time>2026-03-29T13:26:50.002Z</time></trkpt><trkpt lat="45.11613980879501" lon="9.402476819534789"><ele>53.0</ele><time>2026-03-29T13:26:51.002Z</time></trkpt><trkpt lat="45.1161592057483" lon="9.402350795031731"><ele>53.0</ele><time>2026-03-29T13:26:52.002Z</time></trkpt><trkpt lat="45.11617648778682" lon="9.402227286600818"><ele>53.0</ele><time>2026-03-29T13:26:53.002Z</time></trkpt><trkpt lat="45.11618736150742" lon="9.40205639825964"><ele>53.0</ele><time>2026-03-29T13:26:54.002Z</time></trkpt><trkpt lat="45.116186775894974" lon="9.401871320813719"><ele>53.0</ele><time>2026-03-29T13:26:55.002Z</time></trkpt><trkpt lat="45.116191194787476" lon="9.401676844718692"><ele>53.0</ele><time>2026-03-29T13:26:56.002Z</time></trkpt><trkpt lat="45.1162143870651" lon="9.401457151244125"><ele>53.0</ele><time>2026-03-29T13:26:57.002Z</time></trkpt><trkpt lat="45.116244231007585" lon="9.401222168187024"><ele>53.0</ele><time>2026-03-29T13:26:58.002Z</time></trkpt><trkpt lat="45.116272904571325" lon="9.400966858012325"><ele>53.0</ele><time>2026-03-29T13:26:59.002Z</time></trkpt><trkpt lat="45.11629159088363" lon="9.400728537239795"><ele>53.0</ele><time>2026-03-29T13:27:00.002Z</time></trkpt><trkpt lat="45.1163149225176" lon="9.400497692444196"><ele>53.0</ele><time>2026-03-29T13:27:01.002Z</time></trkpt><trkpt lat="45.11632931069538" lon="9.400282144038115"><ele>53.0</ele><time>2026-03-29T13:27:02.002Z</time></trkpt><trkpt lat="45.1163436759146" lon="9.400078104605296"><ele>53.0</ele><time>2026-03-29T13:27:03.003Z</time></trkpt><trkpt lat="45.11635110522495" lon="9.399883962891595"><ele>53.0</ele><time>2026-03-29T13:27:04.003Z</time></trkpt><trkpt lat="45.116357670104364" lon="9.399711218344391"><ele>53.0</ele><time>2026-03-29T13:27:05.003Z</time></trkpt><trkpt lat="45.116365845408176" lon="9.399539837681994"><ele>53.0</ele><time>2026-03-29T13:27:06.003Z</time></trkpt><trkpt lat="45.11637202710924" lon="9.39935471640429"><ele>53.0</ele><time>2026-03-29T13:27:07.003Z</time></trkpt><trkpt lat="45.11638069932777" lon="9.399175240390514"><ele>53.0</ele><time>2026-03-29T13:27:08.003Z</time></trkpt><trkpt lat="45.116397487237045" lon="9.399011291894436"><ele>53.0</ele><time>2026-03-29T13:27:09.003Z</time></trkpt><trkpt lat="45.11642259424575" lon="9.39883998224601"><ele>53.0</ele><time>2026-03-29T13:27:10.003Z</time></trkpt><trkpt lat="45.11646727161533" lon="9.398640488070523"><ele>53.0</ele><time>2026-03-29T13:27:11.003Z</time></trkpt><trkpt lat="45.116519518428966" lon="9.398421400084429"><ele>53.0</ele><time>2026-03-29T13:27:12.003Z</time></trkpt><trkpt lat="45.11656544927606" lon="9.39821818902146"><ele>52.8</ele><time>2026-03-29T13:27:13.003Z</time></trkpt><trkpt lat="45.11660226609497" lon="9.398041081171217"><ele>52.599999999999994</ele><time>2026-03-29T13:27:14.003Z</time></trkpt><trkpt lat="45.11663397749804" lon="9.397882257940774"><ele>52.400000000000006</ele><time>2026-03-29T13:27:15.003Z</time></trkpt><trkpt lat="45.116660476360714" lon="9.397740505606919"><ele>52.2</ele><time>2026-03-29T13:27:16.003Z</time></trkpt><trkpt lat="45.11668597774242" lon="9.397624873622554"><ele>52.0</ele><time>2026-03-29T13:27:17.003Z</time></trkpt><trkpt lat="45.116707515737716" lon="9.397536204921668"><ele>52.400000000000006</ele><time>2026-03-29T13:27:18.003Z</time></trkpt><trkpt lat="45.11673873426893" lon="9.397454091052488"><ele>52.800000000000004</ele><time>2026-03-29T13:27:20Z</time></trkpt><trkpt lat="45.11683855726973" lon="9.397487702923215"><ele>53.2</ele><time>2026-03-29T13:27:27Z</time></trkpt><trkpt lat="45.11692027398314" lon="9.39753842037999"><ele>53.6</ele><time>2026-03-29T13:27:28Z</time></trkpt><trkpt lat="45.1170176594984" lon="9.397585419340194"><ele>54.0</ele><time>2026-03-29T13:27:29Z</time></trkpt><trkpt lat="45.11711917554981" lon="9.39763673950207"><ele>54.0</ele><time>2026-03-29T13:27:30Z</time></trkpt><trkpt lat="45.11723798779474" lon="9.397691505308156"><ele>54.0</ele><time>2026-03-29T13:27:31Z</time></trkpt><trkpt lat="45.11735387069929" lon="9.397746802117565"><ele>54.0</ele><time>2026-03-29T13:27:32Z</time></trkpt><trkpt lat="45.11746731416197" lon="9.397800596156454"><ele>54.0</ele><time>2026-03-29T13:27:33Z</time></trkpt><trkpt lat="45.11759962984157" lon="9.397855883798652"><ele>54.0</ele><time>2026-03-29T13:27:34Z</time></trkpt><trkpt lat="45.11773758630336" lon="9.39791833477947"><ele>54.0</ele><time>2026-03-29T13:27:35Z</time></trkpt><trkpt lat="45.117885453747334" lon="9.39798192266575"><ele>54.0</ele><time>2026-03-29T13:27:36Z</time></trkpt><trkpt lat="45.118039220920686" lon="9.398048257037622"><ele>54.0</ele><time>2026-03-29T13:27:37Z</time></trkpt><trkpt lat="45.11820000061254" lon="9.398123468657564"><ele>54.0</ele><time>2026-03-29T13:27:38Z</time></trkpt><trkpt lat="45.11836120729778" lon="9.398202181403056"><ele>54.0</ele><time>2026-03-29T13:27:39Z</time></trkpt><trkpt lat="45.11851479883812" lon="9.39828199384903"><ele>54.0</ele><time>2026-03-29T13:27:40Z</time></trkpt><trkpt lat="45.11866594953618" lon="9.398361559785998"><ele>54.0</ele><time>2026-03-29T13:27:41Z</time></trkpt><trkpt lat="45.11881127876638" lon="9.398438134272398"><ele>54.0</ele><time>2026-03-29T13:27:42Z</time></trkpt><trkpt lat="45.11894570566148" lon="9.39850796821492"><ele>54.0</ele><time>2026-03-29T13:27:43Z</time></trkpt><trkpt lat="45.11907240377972" lon="9.398571859922884"><ele>54.0</ele><time>2026-03-29T13:27:44Z</time></trkpt><trkpt lat="45.11918553693644" lon="9.398626941091722"><ele>54.0</ele><time>2026-03-29T13:27:45Z</time></trkpt><trkpt lat="45.1192910557043" lon="9.39867952402071"><ele>54.0</ele><time>2026-03-29T13:27:46Z</time></trkpt><trkpt lat="45.119387087686725" lon="9.398733494492614"><ele>54.0</ele><time>2026-03-29T13:27:47Z</time></trkpt><trkpt lat="45.1194607060849" lon="9.398773275795342"><ele>54.0</ele><time>2026-03-29T13:27:48Z</time></trkpt><trkpt lat="45.11955088736371" lon="9.398725957412543"><ele>54.0</ele><time>2026-03-29T13:27:50.001Z</time></trkpt><trkpt lat="45.11958092468338" lon="9.398637827934682"><ele>54.0</ele><time>2026-03-29T13:27:51.001Z</time></trkpt><trkpt lat="45.11959799486572" lon="9.39850011055512"><ele>54.0</ele><time>2026-03-29T13:27:52.001Z</time></trkpt><trkpt lat="45.119631784199896" lon="9.39836612485701"><ele>54.0</ele><time>2026-03-29T13:27:53.001Z</time></trkpt><trkpt lat="45.11967476514201" lon="9.39820921167467"><ele>54.0</ele><time>2026-03-29T13:27:54.001Z</time></trkpt><trkpt lat="45.119721154304585" lon="9.398031703671535"><ele>54.0</ele><time>2026-03-29T13:27:55.001Z</time></trkpt><trkpt lat="45.11977390528914" lon="9.39783288666287"><ele>54.0</ele><time>2026-03-29T13:27:56.001Z</time></trkpt><trkpt lat="45.119830036090946" lon="9.397631314182894"><ele>54.0</ele><time>2026-03-29T13:27:57.001Z</time></trkpt><trkpt lat="45.11988850298213" lon="9.397422503557866"><ele>53.75</ele><time>2026-03-29T13:27:58.001Z</time></trkpt><trkpt lat="45.119946086372074" lon="9.39722982230548"><ele>53.5</ele><time>2026-03-29T13:27:59.001Z</time></trkpt><trkpt lat="45.120000526572355" lon="9.397055910315876"><ele>53.25</ele><time>2026-03-29T13:28:00.001Z</time></trkpt><trkpt lat="45.12005631569578" lon="9.396895742719744"><ele>53.0</ele><time>2026-03-29T13:28:01.001Z</time></trkpt><trkpt lat="45.12011083402832" lon="9.396756234340149"><ele>53.0</ele><time>2026-03-29T13:28:02.001Z</time></trkpt><trkpt lat="45.120167114230014" lon="9.39665383616039"><ele>53.0</ele><time>2026-03-29T13:28:03.001Z</time></trkpt><trkpt lat="45.1202328915036" lon="9.39656778772622"><ele>53.0</ele><time>2026-03-29T13:28:04.001Z</time></trkpt><trkpt lat="45.12031977192576" lon="9.3964656230266"><ele>53.0</ele><time>2026-03-29T13:28:05.001Z</time></trkpt><trkpt lat="45.12042673398963" lon="9.396359145564812"><ele>53.0</ele><time>2026-03-29T13:28:06.001Z</time></trkpt><trkpt lat="45.120543914005175" lon="9.396247871125968"><ele>53.0</ele><time>2026-03-29T13:28:07.001Z</time></trkpt><trkpt lat="45.12064394529376" lon="9.396141952023893"><ele>53.0</ele><time>2026-03-29T13:28:08.001Z</time></trkpt><trkpt lat="45.12072919197749" lon="9.396034341054433"><ele>53.0</ele><time>2026-03-29T13:28:09.001Z</time></trkpt><trkpt lat="45.120810360804775" lon="9.39591198322363"><ele>53.0</ele><time>2026-03-29T13:28:10.001Z</time></trkpt><trkpt lat="45.120888898140215" lon="9.39577422761121"><ele>52.75</ele><time>2026-03-29T13:28:11.001Z</time></trkpt><trkpt lat="45.1209734070697" lon="9.395614140057313"><ele>52.5</ele><time>2026-03-29T13:28:12.001Z</time></trkpt><trkpt lat="45.12105363858455" lon="9.395459799992434"><ele>52.25</ele><time>2026-03-29T13:28:13.001Z</time></trkpt><trkpt lat="45.12112675764626" lon="9.395331031769432"><ele>52.0</ele><time>2026-03-29T13:28:14.001Z</time></trkpt><trkpt lat="45.12120098936677" lon="9.395203209646223"><ele>52.0</ele><time>2026-03-29T13:28:15.001Z</time></trkpt><trkpt lat="45.121271940288594" lon="9.39505587257667"><ele>52.0</ele><time>2026-03-29T13:28:16.001Z</time></trkpt><trkpt lat="45.12133212105385" lon="9.394891734395644"><ele>52.0</ele><time>2026-03-29T13:28:17.001Z</time></trkpt><trkpt lat="45.1213874863767" lon="9.394712141974141"><ele>52.0</ele><time>2026-03-29T13:28:18.001Z</time></trkpt><trkpt lat="45.12144247524039" lon="9.394523070002469"><ele>52.0</ele><time>2026-03-29T13:28:19.001Z</time></trkpt><trkpt lat="45.121488262355" lon="9.394355956488768"><ele>52.0</ele><time>2026-03-29T13:28:20.001Z</time></trkpt><trkpt lat="45.12153243870176" lon="9.394187325766891"><ele>52.0</ele><time>2026-03-29T13:28:21.002Z</time></trkpt><trkpt lat="45.12157465376579" lon="9.394034062182765"><ele>52.0</ele><time>2026-03-29T13:28:22.002Z</time></trkpt><trkpt lat="45.1216153436586" lon="9.393905067234313"><ele>51.99999999999999</ele><time>2026-03-29T13:28:23.002Z</time></trkpt><trkpt lat="45.121653826572015" lon="9.393795952442208"><ele>52.0</ele><time>2026-03-29T13:28:24.002Z</time></trkpt><trkpt lat="45.12169673472474" lon="9.393694436490344"><ele>52.0</ele><time>2026-03-29T13:28:25.002Z</time></trkpt><trkpt lat="45.12174361131133" lon="9.393613483693013"><ele>52.0</ele><time>2026-03-29T13:28:26.002Z</time></trkpt><trkpt lat="45.12180166069706" lon="9.393539050000633"><ele>51.99999999999999</ele><time>2026-03-29T13:28:27.002Z</time></trkpt><trkpt lat="45.12188081574437" lon="9.393463980102961"><ele>52.0</ele><time>2026-03-29T13:28:28.002Z</time></trkpt><trkpt lat="45.12198972545887" lon="9.393367206265067"><ele>52.0</ele><time>2026-03-29T13:28:29.002Z</time></trkpt><trkpt lat="45.12211406638415" lon="9.39324742569639"><ele>52.0</ele><time>2026-03-29T13:28:30.002Z</time></trkpt><trkpt lat="45.12223948035609" lon="9.39311158624179"><ele>52.0</ele><time>2026-03-29T13:28:31.002Z</time></trkpt><trkpt lat="45.12234432070374" lon="9.392977681367299"><ele>52.0</ele><time>2026-03-29T13:28:32.002Z</time></trkpt><trkpt lat="45.12244417546633" lon="9.392863003800803"><ele>51.99999999999999</ele><time>2026-03-29T13:28:33.002Z</time></trkpt><trkpt lat="45.12252990778099" lon="9.392761852419577"><ele>52.0</ele><time>2026-03-29T13:28:34.002Z</time></trkpt><trkpt lat="45.12260776074025" lon="9.392668440193018"><ele>52.0</ele><time>2026-03-29T13:28:35.002Z</time></trkpt><trkpt lat="45.12267345038131" lon="9.392591277101074"><ele>52.0</ele><time>2026-03-29T13:28:36.002Z</time></trkpt><trkpt lat="45.12273547460178" lon="9.39253415180792"><ele>51.99999999999999</ele><time>2026-03-29T13:28:37.002Z</time></trkpt><trkpt lat="45.1228060280633" lon="9.39249934850619"><ele>52.0</ele><time>2026-03-29T13:28:38.002Z</time></trkpt><trkpt lat="45.122880114294816" lon="9.392496199909637"><ele>52.0</ele><time>2026-03-29T13:28:39.002Z</time></trkpt><trkpt lat="45.12296044365411" lon="9.392514059174957"><ele>52.0</ele><time>2026-03-29T13:28:40.002Z</time></trkpt><trkpt lat="45.123052310199874" lon="9.392547184727283"><ele>52.0</ele><time>2026-03-29T13:28:41.002Z</time></trkpt><trkpt lat="45.12317545785563" lon="9.392593315481223"><ele>52.0</ele><time>2026-03-29T13:28:42.002Z</time></trkpt><trkpt lat="45.12330285189222" lon="9.392636833748625"><ele>52.0</ele><time>2026-03-29T13:28:43.002Z</time></trkpt><trkpt lat="45.12341221071034" lon="9.39266762816457"><ele>52.33333333333333</ele><time>2026-03-29T13:28:44.002Z</time></trkpt><trkpt lat="45.1235086636828" lon="9.39269594566638"><ele>52.666666666666664</ele><time>2026-03-29T13:28:45.002Z</time></trkpt><trkpt lat="45.123581357404994" lon="9.392723061331868"><ele>53.0</ele><time>2026-03-29T13:28:46.002Z</time></trkpt><trkpt lat="45.123647577299074" lon="9.392751122921307"><ele>53.33333333333333</ele><time>2026-03-29T13:28:47.002Z</time></trkpt><trkpt lat="45.12371423065381" lon="9.392765892617705"><ele>53.666666666666664</ele><time>2026-03-29T13:28:48.002Z</time></trkpt><trkpt lat="45.1238245721662" lon="9.392739120920096"><ele>54.0</ele><time>2026-03-29T13:28:50.002Z</time></trkpt><trkpt lat="45.12385252381508" lon="9.392648137114946"><ele>54.0</ele><time>2026-03-29T13:28:51.002Z</time></trkpt><trkpt lat="45.123871343801156" lon="9.392560907457744"><ele>54.00000000000001</ele><time>2026-03-29T13:28:52.002Z</time></trkpt><trkpt lat="45.123885318420406" lon="9.392453417942278"><ele>54.00000000000001</ele><time>2026-03-29T13:28:53.002Z</time></trkpt><trkpt lat="45.123899273777674" lon="9.392303682348688"><ele>54.0</ele><time>2026-03-29T13:28:54.002Z</time></trkpt><trkpt lat="45.123921593776465" lon="9.392147449354317"><ele>54.0</ele><time>2026-03-29T13:28:55.003Z</time></trkpt><trkpt lat="45.12395215742626" lon="9.391988241458455"><ele>53.75</ele><time>2026-03-29T13:28:56.003Z</time></trkpt><trkpt lat="45.12399573782619" lon="9.391838306747818"><ele>53.5</ele><time>2026-03-29T13:28:57.003Z</time></trkpt><trkpt lat="45.12405741456289" lon="9.391676067886824"><ele>53.25</ele><time>2026-03-29T13:28:58.003Z</time></trkpt><trkpt lat="45.1241326637221" lon="9.391474946110808"><ele>53.0</ele><time>2026-03-29T13:28:59.003Z</time></trkpt><trkpt lat="45.124211810424754" lon="9.391235443235887"><ele>53.0</ele><time>2026-03-29T13:29:00.003Z</time></trkpt><trkpt lat="45.12428956188751" lon="9.390980857866303"><ele>53.0</ele><time>2026-03-29T13:29:01.003Z</time></trkpt><trkpt lat="45.12435395749058" lon="9.390748066301073"><ele>53.0</ele><time>2026-03-29T13:29:02.003Z</time></trkpt><trkpt lat="45.124412266392106" lon="9.390537026498174"><ele>53.0</ele><time>2026-03-29T13:29:03.003Z</time></trkpt><trkpt lat="45.124461567686616" lon="9.390344656137117"><ele>53.0</ele><time>2026-03-29T13:29:04.003Z</time></trkpt><trkpt lat="45.12450969953941" lon="9.3901648136362"><ele>53.0</ele><time>2026-03-29T13:29:05.003Z</time></trkpt><trkpt lat="45.12455707947634" lon="9.389984902012497"><ele>53.0</ele><time>2026-03-29T13:29:06.003Z</time></trkpt><trkpt lat="45.124602011453625" lon="9.389803396445167"><ele>53.333333333333336</ele><time>2026-03-29T13:29:07.003Z</time></trkpt><trkpt lat="45.1246392701203" lon="9.389619248551211"><ele>53.66666666666667</ele><time>2026-03-29T13:29:08.003Z</time></trkpt><trkpt lat="45.12466657416669" lon="9.389411161699133"><ele>54.0</ele><time>2026-03-29T13:29:09.003Z</time></trkpt><trkpt lat="45.12469548105915" lon="9.389149285904525"><ele>54.0</ele><time>2026-03-29T13:29:10.003Z</time></trkpt><trkpt lat="45.1247263499085" lon="9.388875568465215"><ele>54.0</ele><time>2026-03-29T13:29:11.003Z</time></trkpt><trkpt lat="45.12475172976567" lon="9.388651258201257"><ele>54.0</ele><time>2026-03-29T13:29:12.003Z</time></trkpt><trkpt lat="45.12477861034432" lon="9.38844769509278"><ele>54.0</ele><time>2026-03-29T13:29:13.003Z</time></trkpt><trkpt lat="45.124802538540074" lon="9.38826461607155"><ele>54.0</ele><time>2026-03-29T13:29:14.003Z</time></trkpt><trkpt lat="45.124825497057046" lon="9.388087671857132"><ele>54.0</ele><time>2026-03-29T13:29:15.003Z</time></trkpt><trkpt lat="45.124846372487255" lon="9.387930111916727"><ele>54.0</ele><time>2026-03-29T13:29:16.003Z</time></trkpt><trkpt lat="45.124870078144234" lon="9.387784809522074"><ele>54.0</ele><time>2026-03-29T13:29:17.003Z</time></trkpt><trkpt lat="45.12489947441946" lon="9.387651583842864"><ele>54.0</ele><time>2026-03-29T13:29:18.003Z</time></trkpt><trkpt lat="45.124931938171294" lon="9.387547775031175"><ele>54.0</ele><time>2026-03-29T13:29:19.003Z</time></trkpt><trkpt lat="45.12497470982853" lon="9.387461728100511"><ele>54.0</ele><time>2026-03-29T13:29:20.003Z</time></trkpt><trkpt lat="45.125033415001546" lon="9.387385769236905"><ele>54.0</ele><time>2026-03-29T13:29:21.003Z</time></trkpt><trkpt lat="45.125123460187446" lon="9.387328707627804"><ele>54.0</ele><time>2026-03-29T13:29:22.003Z</time></trkpt><trkpt lat="45.12522290274624" lon="9.387230514347179"><ele>53.66666666666667</ele><time>2026-03-29T13:29:23.003Z</time></trkpt><trkpt lat="45.125358701491486" lon="9.38714175589338"><ele>53.333333333333336</ele><time>2026-03-29T13:29:24.003Z</time></trkpt><trkpt lat="45.12550882671993" lon="9.387038754116752"><ele>53.0</ele><time>2026-03-29T13:29:25Z</time></trkpt><trkpt lat="45.12565755073401" lon="9.386926828674362"><ele>53.0</ele><time>2026-03-29T13:29:26Z</time></trkpt><trkpt lat="45.12581965295415" lon="9.386805841944584"><ele>53.0</ele><time>2026-03-29T13:29:27Z</time></trkpt><trkpt lat="45.125965341790945" lon="9.386692793167326"><ele>53.0</ele><time>2026-03-29T13:29:28Z</time></trkpt><trkpt lat="45.12609881586169" lon="9.386592225672679"><ele>53.0</ele><time>2026-03-29T13:29:29Z</time></trkpt><trkpt lat="45.12622022666752" lon="9.3864999310045"><ele>53.0</ele><time>2026-03-29T13:29:30Z</time></trkpt><trkpt lat="45.1263419357351" lon="9.386412495974835"><ele>53.0</ele><time>2026-03-29T13:29:31Z</time></trkpt><trkpt lat="45.12644970720829" lon="9.386346665917607"><ele>53.0</ele><time>2026-03-29T13:29:32Z</time></trkpt><trkpt lat="45.12656740407437" lon="9.386294476261945"><ele>53.5</ele><time>2026-03-29T13:29:33Z</time></trkpt><trkpt lat="45.12669302743129" lon="9.386253299252592"><ele>54.0</ele><time>2026-03-29T13:29:34Z</time></trkpt><trkpt lat="45.12681707651625" lon="9.386232159536908"><ele>54.5</ele><time>2026-03-29T13:29:35Z</time></trkpt><trkpt lat="45.12695116967254" lon="9.386218345123451"><ele>55.0</ele><time>2026-03-29T13:29:36Z</time></trkpt><trkpt lat="45.127109334308344" lon="9.386204725838907"><ele>55.0</ele><time>2026-03-29T13:29:37Z</time></trkpt><trkpt lat="45.12725976494741" lon="9.386190211448152"><ele>55.0</ele><time>2026-03-29T13:29:38Z</time></trkpt><trkpt lat="45.12740382923096" lon="9.386176415109984"><ele>55.0</ele><time>2026-03-29T13:29:39Z</time></trkpt><trkpt lat="45.12754990252662" lon="9.386157420002203"><ele>55.0</ele><time>2026-03-29T13:29:40Z</time></trkpt><trkpt lat="45.1276887337775" lon="9.38613240151415"><ele>54.666666666666664</ele><time>2026-03-29T13:29:41Z</time></trkpt><trkpt lat="45.127847318534435" lon="9.386101700051157"><ele>54.33333333333333</ele><time>2026-03-29T13:29:42Z</time></trkpt><trkpt lat="45.12801530850303" lon="9.386053741798795"><ele>54.0</ele><time>2026-03-29T13:29:43Z</time></trkpt><trkpt lat="45.128185712629495" lon="9.386002012479056"><ele>54.25</ele><time>2026-03-29T13:29:44Z</time></trkpt><trkpt lat="45.128341041875466" lon="9.385956353179543"><ele>54.5</ele><time>2026-03-29T13:29:45Z</time></trkpt><trkpt lat="45.128474877532106" lon="9.385916287698029"><ele>54.75</ele><time>2026-03-29T13:29:46Z</time></trkpt><trkpt lat="45.128609545718845" lon="9.385883944152944"><ele>55.0</ele><time>2026-03-29T13:29:47Z</time></trkpt><trkpt lat="45.12875480108772" lon="9.38585284907917"><ele>55.0</ele><time>2026-03-29T13:29:48Z</time></trkpt><trkpt lat="45.12890953533166" lon="9.38582616751542"><ele>55.0</ele><time>2026-03-29T13:29:49Z</time></trkpt><trkpt lat="45.12904298088327" lon="9.385807742734144"><ele>55.0</ele><time>2026-03-29T13:29:50Z</time></trkpt><trkpt lat="45.129163749878124" lon="9.385798637599127"><ele>55.0</ele><time>2026-03-29T13:29:51Z</time></trkpt><trkpt lat="45.129271737836234" lon="9.385794697161689"><ele>55.0</ele><time>2026-03-29T13:29:52Z</time></trkpt><trkpt lat="45.129377099260964" lon="9.385788767190089"><ele>55.0</ele><time>2026-03-29T13:29:53Z</time></trkpt><trkpt lat="45.129475634443736" lon="9.385773975298092"><ele>55.0</ele><time>2026-03-29T13:29:54.001Z</time></trkpt><trkpt lat="45.12958379316346" lon="9.385750034724019"><ele>55.0</ele><time>2026-03-29T13:29:55.001Z</time></trkpt><trkpt lat="45.12969641187223" lon="9.385704670445062"><ele>55.0</ele><time>2026-03-29T13:29:56.001Z</time></trkpt><trkpt lat="45.129804894145195" lon="9.385641233946577"><ele>55.0</ele><time>2026-03-29T13:29:57.001Z</time></trkpt><trkpt lat="45.129914876363635" lon="9.385560422178852"><ele>55.0</ele><time>2026-03-29T13:29:58.001Z</time></trkpt><trkpt lat="45.13004422147551" lon="9.385458603078312"><ele>55.0</ele><time>2026-03-29T13:29:59.001Z</time></trkpt><trkpt lat="45.13019034929562" lon="9.385345681048904"><ele>55.0</ele><time>2026-03-29T13:30:00.001Z</time></trkpt><trkpt lat="45.13034865299386" lon="9.385222335137666"><ele>55.0</ele><time>2026-03-29T13:30:01.001Z</time></trkpt><trkpt lat="45.13050833623583" lon="9.385097518039835"><ele>55.0</ele><time>2026-03-29T13:30:02.001Z</time></trkpt><trkpt lat="45.13064823503683" lon="9.384988575543348"><ele>55.0</ele><time>2026-03-29T13:30:03.001Z</time></trkpt><trkpt lat="45.13077560584394" lon="9.384893910352153"><ele>55.0</ele><time>2026-03-29T13:30:04.001Z</time></trkpt><trkpt lat="45.13090153784879" lon="9.384799846397856"><ele>55.0</ele><time>2026-03-29T13:30:05.001Z</time></trkpt><trkpt lat="45.13101702918366" lon="9.384713515082042"><ele>55.0</ele><time>2026-03-29T13:30:06.001Z</time></trkpt><trkpt lat="45.131121183693324" lon="9.384631813389882"><ele>55.0</ele><time>2026-03-29T13:30:07.001Z</time></trkpt><trkpt lat="45.13122004746224" lon="9.384552563068217"><ele>54.6</ele><time>2026-03-29T13:30:08.001Z</time></trkpt><trkpt lat="45.13131761659333" lon="9.384475158521568"><ele>54.2</ele><time>2026-03-29T13:30:09.001Z</time></trkpt><trkpt lat="45.1314106770989" lon="9.384401969722944"><ele>53.8</ele><time>2026-03-29T13:30:10.001Z</time></trkpt><trkpt lat="45.13149995317173" lon="9.384325424637838"><ele>53.4</ele><time>2026-03-29T13:30:11.001Z</time></trkpt><trkpt lat="45.13157056620784" lon="9.384262240623245"><ele>53.0</ele><time>2026-03-29T13:30:12.001Z</time></trkpt><trkpt lat="45.13163345918361" lon="9.384201643496244"><ele>53.00000000000001</ele><time>2026-03-29T13:30:13.001Z</time></trkpt><trkpt lat="45.13168778408395" lon="9.38414983730749"><ele>53.0</ele><time>2026-03-29T13:30:14.001Z</time></trkpt><trkpt lat="45.13175984830961" lon="9.384102231247041"><ele>53.0</ele><time>2026-03-29T13:30:16.001Z</time></trkpt><trkpt lat="45.131841391603615" lon="9.384242797878137"><ele>53.0</ele><time>2026-03-29T13:30:19.001Z</time></trkpt><trkpt lat="45.1318693437931" lon="9.384332143881865"><ele>53.00000000000001</ele><time>2026-03-29T13:30:20.001Z</time></trkpt><trkpt lat="45.13190741181797" lon="9.384443439769292"><ele>53.0</ele><time>2026-03-29T13:30:21.001Z</time></trkpt><trkpt lat="45.13194718460645" lon="9.384552042687268"><ele>53.0</ele><time>2026-03-29T13:30:22.001Z</time></trkpt><trkpt lat="45.13200081705285" lon="9.384643076087698"><ele>53.0</ele><time>2026-03-29T13:30:23.001Z</time></trkpt><trkpt lat="45.132044353829485" lon="9.384752940069975"><ele>53.0</ele><time>2026-03-29T13:30:24.001Z</time></trkpt><trkpt lat="45.13207560284308" lon="9.38488092325231"><ele>53.0</ele><time>2026-03-29T13:30:25.001Z</time></trkpt><trkpt lat="45.13212201064332" lon="9.385000971474852"><ele>53.0</ele><time>2026-03-29T13:30:26.002Z</time></trkpt><trkpt lat="45.13217403319152" lon="9.385106410351595"><ele>53.0</ele><time>2026-03-29T13:30:27.002Z</time></trkpt><trkpt lat="45.13221639840267" lon="9.385210760247922"><ele>53.0</ele><time>2026-03-29T13:30:28.002Z</time></trkpt><trkpt lat="45.13225142457754" lon="9.385311453906212"><ele>53.0</ele><time>2026-03-29T13:30:29.002Z</time></trkpt><trkpt lat="45.13227727008328" lon="9.3853947266983"><ele>53.0</ele><time>2026-03-29T13:30:30.002Z</time></trkpt><trkpt lat="45.13231699893533" lon="9.385503719649524"><ele>53.0</ele><time>2026-03-29T13:30:32.002Z</time></trkpt><trkpt lat="45.132480717970665" lon="9.385429660879206"><ele>53.0</ele><time>2026-03-29T13:30:40.002Z</time></trkpt><trkpt lat="45.13255072182688" lon="9.385388393628345"><ele>53.0</ele><time>2026-03-29T13:30:42.002Z</time></trkpt><trkpt lat="45.13264565914197" lon="9.385337535546695"><ele>53.0</ele><time>2026-03-29T13:30:44.002Z</time></trkpt><trkpt lat="45.132738925133914" lon="9.385292102799033"><ele>53.0</ele><time>2026-03-29T13:30:46.002Z</time></trkpt><trkpt lat="45.132846268460725" lon="9.385239228274656"><ele>53.0</ele><time>2026-03-29T13:30:48.002Z</time></trkpt><trkpt lat="45.13295632653226" lon="9.385186712118342"><ele>53.0</ele><time>2026-03-29T13:30:50.002Z</time></trkpt><trkpt lat="45.133060582747035" lon="9.38513693640196"><ele>53.0</ele><time>2026-03-29T13:30:52.002Z</time></trkpt><trkpt lat="45.1331666881588" lon="9.385087708432016"><ele>53.0</ele><time>2026-03-29T13:30:54.002Z</time></trkpt><trkpt lat="45.13327534740019" lon="9.385028580909832"><ele>53.0</ele><time>2026-03-29T13:30:56.002Z</time></trkpt><trkpt lat="45.133337064689705" lon="9.384998342144675"><ele>53.0</ele><time>2026-03-29T13:30:57.002Z</time></trkpt><trkpt lat="45.13339754568641" lon="9.384970456866062"><ele>53.16666666666667</ele><time>2026-03-29T13:30:58.002Z</time></trkpt><trkpt lat="45.133507271772324" lon="9.384914133283226"><ele>53.333333333333336</ele><time>2026-03-29T13:31:00.003Z</time></trkpt><trkpt lat="45.13360094956103" lon="9.384866642472305"><ele>53.5</ele><time>2026-03-29T13:31:02.003Z</time></trkpt><trkpt lat="45.133682961762425" lon="9.384828659700466"><ele>53.66666666666667</ele><time>2026-03-29T13:31:04.003Z</time></trkpt><trkpt lat="45.13374908029933" lon="9.384794787223422"><ele>53.833333333333336</ele><time>2026-03-29T13:31:07.003Z</time></trkpt><trkpt lat="45.13381569502279" lon="9.384769900697554"><ele>54.0</ele><time>2026-03-29T13:31:11.003Z</time></trkpt><trkpt lat="45.13381623285996" lon="9.384616065998754"><ele>54.0</ele><time>2026-03-29T13:31:14.003Z</time></trkpt><trkpt lat="45.13378117548179" lon="9.384537838470907"><ele>54.0</ele><time>2026-03-29T13:31:15.003Z</time></trkpt><trkpt lat="45.133757927993194" lon="9.384446620770946"><ele>54.0</ele><time>2026-03-29T13:31:16.003Z</time></trkpt><trkpt lat="45.13372791763177" lon="9.384257421999576"><ele>54.0</ele><time>2026-03-29T13:31:18.003Z</time></trkpt><trkpt lat="45.133712805780185" lon="9.384144875544282"><ele>54.0</ele><time>2026-03-29T13:31:19.003Z</time></trkpt><trkpt lat="45.133696178082424" lon="9.384019183515356"><ele>54.0</ele><time>2026-03-29T13:31:20.003Z</time></trkpt><trkpt lat="45.13367943316311" lon="9.383892853332783"><ele>53.800000000000004</ele><time>2026-03-29T13:31:21.003Z</time></trkpt><trkpt lat="45.133661665045814" lon="9.383786433050114"><ele>53.60000000000001</ele><time>2026-03-29T13:31:22.003Z</time></trkpt><trkpt lat="45.13363994446739" lon="9.38366772832631"><ele>53.4</ele><time>2026-03-29T13:31:23.003Z</time></trkpt><trkpt lat="45.13361600023021" lon="9.383532380669195"><ele>53.2</ele><time>2026-03-29T13:31:24.003Z</time></trkpt><trkpt lat="45.13359149618846" lon="9.38337738028052"><ele>53.0</ele><time>2026-03-29T13:31:25.003Z</time></trkpt><trkpt lat="45.133572003394086" lon="9.38322377799354"><ele>53.0</ele><time>2026-03-29T13:31:26.003Z</time></trkpt><trkpt lat="45.133561665815044" lon="9.383078110364544"><ele>53.0</ele><time>2026-03-29T13:31:27.003Z</time></trkpt><trkpt lat="45.133556364212865" lon="9.382941207797137"><ele>53.0</ele><time>2026-03-29T13:31:28.003Z</time></trkpt><trkpt lat="45.13355312298232" lon="9.382792616637957"><ele>53.0</ele><time>2026-03-29T13:31:29.003Z</time></trkpt><trkpt lat="45.13354932326635" lon="9.3826441724863"><ele>53.0</ele><time>2026-03-29T13:31:30.003Z</time></trkpt><trkpt lat="45.133541176248016" lon="9.382498156047783"><ele>53.0</ele><time>2026-03-29T13:31:31Z</time></trkpt><trkpt lat="45.13353289538055" lon="9.382336099102103"><ele>53.0</ele><time>2026-03-29T13:31:32Z</time></trkpt><trkpt lat="45.13352226570803" lon="9.38218908067059"><ele>53.0</ele><time>2026-03-29T13:31:33Z</time></trkpt><trkpt lat="45.13350760729445" lon="9.382064326960604"><ele>53.0</ele><time>2026-03-29T13:31:34Z</time></trkpt><trkpt lat="45.13349410206233" lon="9.381944346885744"><ele>53.0</ele><time>2026-03-29T13:31:35Z</time></trkpt><trkpt lat="45.13348089370126" lon="9.381835862518098"><ele>53.4</ele><time>2026-03-29T13:31:36Z</time></trkpt><trkpt lat="45.133471284292625" lon="9.381743300559636"><ele>53.8</ele><time>2026-03-29T13:31:37Z</time></trkpt><trkpt lat="45.133487257712304" lon="9.381636515575849"><ele>54.2</ele><time>2026-03-29T13:31:39Z</time></trkpt><trkpt lat="45.13358212259357" lon="9.381586206403544"><ele>54.6</ele><time>2026-03-29T13:31:42Z</time></trkpt><trkpt lat="45.133712364806165" lon="9.381636401577481"><ele>55.0</ele><time>2026-03-29T13:31:44Z</time></trkpt><trkpt lat="45.13381833567756" lon="9.381675829811225"><ele>55.0</ele><time>2026-03-29T13:31:45Z</time></trkpt><trkpt lat="45.133923398881834" lon="9.38171952545902"><ele>55.0</ele><time>2026-03-29T13:31:46Z</time></trkpt><trkpt lat="45.13402120688003" lon="9.381654964840054"><ele>55.0</ele><time>2026-03-29T13:31:47Z</time></trkpt><trkpt lat="45.134102382144484" lon="9.381680291721555"><ele>55.0</ele><time>2026-03-29T13:31:48Z</time></trkpt><trkpt lat="45.13418468311055" lon="9.3817041352711"><ele>55.0</ele><time>2026-03-29T13:31:49Z</time></trkpt><trkpt lat="45.134262767844305" lon="9.381713102121964"><ele>55.4</ele><time>2026-03-29T13:31:50Z</time></trkpt><trkpt lat="45.134361230677584" lon="9.381725990574543"><ele>55.8</ele><time>2026-03-29T13:31:52Z</time></trkpt><trkpt lat="45.13443708149543" lon="9.381835329464726"><ele>56.2</ele><time>2026-03-29T13:31:54Z</time></trkpt><trkpt lat="45.134509001450745" lon="9.381864727734252"><ele>56.6</ele><time>2026-03-29T13:31:56Z</time></trkpt><trkpt lat="45.13460450894788" lon="9.381945990815113"><ele>57.0</ele><time>2026-03-29T13:31:58Z</time></trkpt><trkpt lat="45.13466826968438" lon="9.381990553551146"><ele>57.0</ele><time>2026-03-29T13:31:59Z</time></trkpt><trkpt lat="45.13472853511839" lon="9.382047432341896"><ele>57.0</ele><time>2026-03-29T13:32:00Z</time></trkpt><trkpt lat="45.13478493645321" lon="9.38210693980412"><ele>57.0</ele><time>2026-03-29T13:32:01.001Z</time></trkpt><trkpt lat="45.13483746955776" lon="9.382178229534022"><ele>57.0</ele><time>2026-03-29T13:32:02.001Z</time></trkpt><trkpt lat="45.134896239896044" lon="9.38226285978446"><ele>57.0</ele><time>2026-03-29T13:32:03.001Z</time></trkpt><trkpt lat="45.13496515003108" lon="9.3823655245872"><ele>57.0</ele><time>2026-03-29T13:32:04.001Z</time></trkpt><trkpt lat="45.13503448395926" lon="9.38247291210352"><ele>56.8</ele><time>2026-03-29T13:32:05.001Z</time></trkpt><trkpt lat="45.135105280560445" lon="9.382565937766033"><ele>56.6</ele><time>2026-03-29T13:32:06.001Z</time></trkpt><trkpt lat="45.13516051178336" lon="9.382682621796123"><ele>56.39999999999999</ele><time>2026-03-29T13:32:07.001Z</time></trkpt><trkpt lat="45.135230038156294" lon="9.382766691073398"><ele>56.199999999999996</ele><time>2026-03-29T13:32:08.001Z</time></trkpt><trkpt lat="45.135284818584495" lon="9.382850009563539"><ele>56.0</ele><time>2026-03-29T13:32:09.001Z</time></trkpt><trkpt lat="45.13534614076608" lon="9.382950281684682"><ele>55.833333333333336</ele><time>2026-03-29T13:32:10.001Z</time></trkpt><trkpt lat="45.13540095163434" lon="9.383035028038227"><ele>55.66666666666667</ele><time>2026-03-29T13:32:11.001Z</time></trkpt><trkpt lat="45.13544036705204" lon="9.383123931133646"><ele>55.5</ele><time>2026-03-29T13:32:12.001Z</time></trkpt><trkpt lat="45.1354744640479" lon="9.383226732240866"><ele>55.33333333333333</ele><time>2026-03-29T13:32:13.001Z</time></trkpt><trkpt lat="45.13549024152832" lon="9.383344370048102"><ele>55.166666666666664</ele><time>2026-03-29T13:32:14.001Z</time></trkpt><trkpt lat="45.13552413043239" lon="9.383470633744606"><ele>55.0</ele><time>2026-03-29T13:32:15.001Z</time></trkpt><trkpt lat="45.13555803284765" lon="9.383604206302145"><ele>55.0</ele><time>2026-03-29T13:32:16.001Z</time></trkpt><trkpt lat="45.135613443735664" lon="9.38373079163207"><ele>55.0</ele><time>2026-03-29T13:32:17.001Z</time></trkpt><trkpt lat="45.1356481450079" lon="9.383859650314362"><ele>55.0</ele><time>2026-03-29T13:32:18.001Z</time></trkpt><trkpt lat="45.135705444264254" lon="9.383966571098865"><ele>55.0</ele><time>2026-03-29T13:32:19.001Z</time></trkpt><trkpt lat="45.13572317138751" lon="9.38413253857443"><ele>55.0</ele><time>2026-03-29T13:32:20.001Z</time></trkpt><trkpt lat="45.13576083880717" lon="9.38429111819839"><ele>55.0</ele><time>2026-03-29T13:32:21.001Z</time></trkpt><trkpt lat="45.135793440432856" lon="9.384450467193531"><ele>55.0</ele><time>2026-03-29T13:32:22.001Z</time></trkpt><trkpt lat="45.135825426492254" lon="9.384607375340536"><ele>55.0</ele><time>2026-03-29T13:32:23.001Z</time></trkpt><trkpt lat="45.135855048389914" lon="9.384780733382284"><ele>55.0</ele><time>2026-03-29T13:32:24.001Z</time></trkpt><trkpt lat="45.13588651691399" lon="9.384954291371901"><ele>55.0</ele><time>2026-03-29T13:32:25.001Z</time></trkpt><trkpt lat="45.135918195208966" lon="9.385128562139723"><ele>55.0</ele><time>2026-03-29T13:32:26.001Z</time></trkpt><trkpt lat="45.135947561691474" lon="9.385306139632368"><ele>55.0</ele><time>2026-03-29T13:32:27.001Z</time></trkpt><trkpt lat="45.135977935555616" lon="9.385476092396674"><ele>55.0</ele><time>2026-03-29T13:32:28.001Z</time></trkpt><trkpt lat="45.13600516326658" lon="9.38563428326126"><ele>55.0</ele><time>2026-03-29T13:32:29.001Z</time></trkpt><trkpt lat="45.136035468894384" lon="9.38577776167938"><ele>55.0</ele><time>2026-03-29T13:32:30.001Z</time></trkpt><trkpt lat="45.13606783481817" lon="9.385915889477813"><ele>55.0</ele><time>2026-03-29T13:32:31.001Z</time></trkpt><trkpt lat="45.13611182426499" lon="9.386035241413133"><ele>55.0</ele><time>2026-03-29T13:32:32.001Z</time></trkpt><trkpt lat="45.13616925493835" lon="9.386153891197333"><ele>55.0</ele><time>2026-03-29T13:32:33.001Z</time></trkpt><trkpt lat="45.136227541284825" lon="9.386252162494426"><ele>54.83333333333333</ele><time>2026-03-29T13:32:34.002Z</time></trkpt><trkpt lat="45.13628925437802" lon="9.386358325547787"><ele>54.666666666666664</ele><time>2026-03-29T13:32:35.002Z</time></trkpt><trkpt lat="45.13634235928845" lon="9.386466980569349"><ele>54.5</ele><time>2026-03-29T13:32:36.002Z</time></trkpt><trkpt lat="45.1363894940262" lon="9.386576873224007"><ele>54.33333333333333</ele><time>2026-03-29T13:32:37.002Z</time></trkpt><trkpt lat="45.13642695371291" lon="9.386685061323305"><ele>54.166666666666664</ele><time>2026-03-29T13:32:38.002Z</time></trkpt><trkpt lat="45.13644613531642" lon="9.386789166142366"><ele>54.0</ele><time>2026-03-29T13:32:39.002Z</time></trkpt><trkpt lat="45.136453590071575" lon="9.386909628219476"><ele>54.0</ele><time>2026-03-29T13:32:40.002Z</time></trkpt><trkpt lat="45.13645406830562" lon="9.387063845286153"><ele>54.00000000000001</ele><time>2026-03-29T13:32:41.002Z</time></trkpt><trkpt lat="45.1364521064753" lon="9.387235140601243"><ele>54.00000000000001</ele><time>2026-03-29T13:32:42.002Z</time></trkpt><trkpt lat="45.136451023463465" lon="9.3873974756654"><ele>54.0</ele><time>2026-03-29T13:32:43.002Z</time></trkpt><trkpt lat="45.13644985242562" lon="9.387538857406202"><ele>54.0</ele><time>2026-03-29T13:32:44.002Z</time></trkpt><trkpt lat="45.13644900746157" lon="9.387663917864256"><ele>54.0</ele><time>2026-03-29T13:32:45.002Z</time></trkpt><trkpt lat="45.13644113797964" lon="9.387778300367504"><ele>54.00000000000001</ele><time>2026-03-29T13:32:46.002Z</time></trkpt><trkpt lat="45.13642640959359" lon="9.387876358449537"><ele>54.00000000000001</ele><time>2026-03-29T13:32:47.002Z</time></trkpt><trkpt lat="45.1363925430866" lon="9.388048431398877"><ele>54.0</ele><time>2026-03-29T13:32:49.002Z</time></trkpt><trkpt lat="45.13641916530034" lon="9.388197403940758"><ele>54.0</ele><time>2026-03-29T13:32:51.002Z</time></trkpt><trkpt lat="45.13651533341886" lon="9.38831183305378"><ele>54.0</ele><time>2026-03-29T13:32:53.002Z</time></trkpt><trkpt lat="45.136554492502064" lon="9.388390588757138"><ele>54.0</ele><time>2026-03-29T13:32:54.002Z</time></trkpt><trkpt lat="45.136576055052245" lon="9.388476056276522"><ele>54.0</ele><time>2026-03-29T13:32:55.002Z</time></trkpt><trkpt lat="45.136575485906874" lon="9.388580546972726"><ele>54.0</ele><time>2026-03-29T13:32:56.002Z</time></trkpt><trkpt lat="45.136568099300035" lon="9.388706059664909"><ele>54.0</ele><time>2026-03-29T13:32:57.002Z</time></trkpt><trkpt lat="45.13656253468761" lon="9.388832224908656"><ele>54.0</ele><time>2026-03-29T13:32:58.002Z</time></trkpt><trkpt lat="45.136556066406314" lon="9.388963748023757"><ele>54.0</ele><time>2026-03-29T13:32:59.002Z</time></trkpt><trkpt lat="45.13655406448382" lon="9.3891038432662"><ele>54.00000000000001</ele><time>2026-03-29T13:33:00.002Z</time></trkpt><trkpt lat="45.136559342767676" lon="9.389233387106346"><ele>54.00000000000001</ele><time>2026-03-29T13:33:01.002Z</time></trkpt><trkpt lat="45.136574718354886" lon="9.389344467457146"><ele>54.0</ele><time>2026-03-29T13:33:02.002Z</time></trkpt><trkpt lat="45.13660370008935" lon="9.389461857105537"><ele>54.0</ele><time>2026-03-29T13:33:03.002Z</time></trkpt><trkpt lat="45.1366517377026" lon="9.389587526881277"><ele>54.0</ele><time>2026-03-29T13:33:04.002Z</time></trkpt><trkpt lat="45.13670836591936" lon="9.389714417505232"><ele>54.0</ele><time>2026-03-29T13:33:05.002Z</time></trkpt><trkpt lat="45.13676501314122" lon="9.389834697688805"><ele>54.0</ele><time>2026-03-29T13:33:06.002Z</time></trkpt><trkpt lat="45.13681927040181" lon="9.389926364594828"><ele>54.0</ele><time>2026-03-29T13:33:07.002Z</time></trkpt><trkpt lat="45.136870601719195" lon="9.39000878463741"><ele>54.0</ele><time>2026-03-29T13:33:08.003Z</time></trkpt><trkpt lat="45.13691992904671" lon="9.390078961362565"><ele>54.0</ele><time>2026-03-29T13:33:09.003Z</time></trkpt><trkpt lat="45.13697200311335" lon="9.390143657496415"><ele>54.0</ele><time>2026-03-29T13:33:10.003Z</time></trkpt><trkpt lat="45.13703061401114" lon="9.390217955763474"><ele>54.00000000000001</ele><time>2026-03-29T13:33:11.003Z</time></trkpt><trkpt lat="45.13709552809048" lon="9.39028938031692"><ele>54.00000000000001</ele><time>2026-03-29T13:33:12.003Z</time></trkpt><trkpt lat="45.13716355502564" lon="9.390363737938909"><ele>54.0</ele><time>2026-03-29T13:33:13.003Z</time></trkpt><trkpt lat="45.13724965530156" lon="9.39045963472848"><ele>54.0</ele><time>2026-03-29T13:33:14.003Z</time></trkpt><trkpt lat="45.137351731127055" lon="9.390555981327989"><ele>54.25</ele><time>2026-03-29T13:33:15.003Z</time></trkpt><trkpt lat="45.13745891121345" lon="9.390648775725495"><ele>54.5</ele><time>2026-03-29T13:33:16.003Z</time></trkpt><trkpt lat="45.13756970416304" lon="9.390741050778722"><ele>54.75</ele><time>2026-03-29T13:33:17.003Z</time></trkpt><trkpt lat="45.13766958082098" lon="9.390830095385937"><ele>55.0</ele><time>2026-03-29T13:33:18.003Z</time></trkpt><trkpt lat="45.13777329964354" lon="9.390921226002583"><ele>55.0</ele><time>2026-03-29T13:33:19.003Z</time></trkpt><trkpt lat="45.13786879084967" lon="9.391010831016773"><ele>55.0</ele><time>2026-03-29T13:33:20.003Z</time></trkpt><trkpt lat="45.137955523261226" lon="9.391110081415247"><ele>55.0</ele><time>2026-03-29T13:33:21.003Z</time></trkpt><trkpt lat="45.13805017743841" lon="9.391225847838308"><ele>55.0</ele><time>2026-03-29T13:33:22.003Z</time></trkpt><trkpt lat="45.138132554285875" lon="9.391344313001285"><ele>54.5</ele><time>2026-03-29T13:33:23.003Z</time></trkpt><trkpt lat="45.138220148157764" lon="9.391471613685848"><ele>54.0</ele><time>2026-03-29T13:33:24.003Z</time></trkpt><trkpt lat="45.13830463079814" lon="9.391595295312635"><ele>53.5</ele><time>2026-03-29T13:33:25.003Z</time></trkpt><trkpt lat="45.13839569517324" lon="9.391718248931285"><ele>53.0</ele><time>2026-03-29T13:33:26.003Z</time></trkpt><trkpt lat="45.13848474532655" lon="9.391840779042374"><ele>53.0</ele><time>2026-03-29T13:33:27.003Z</time></trkpt><trkpt lat="45.13857598428614" lon="9.391960185397368"><ele>53.0</ele><time>2026-03-29T13:33:28.003Z</time></trkpt><trkpt lat="45.138667177082525" lon="9.392086257439448"><ele>53.0</ele><time>2026-03-29T13:33:29.003Z</time></trkpt><trkpt lat="45.13875898294735" lon="9.392214127087962"><ele>53.0</ele><time>2026-03-29T13:33:30.003Z</time></trkpt><trkpt lat="45.13884274917171" lon="9.392330136856442"><ele>53.0</ele><time>2026-03-29T13:33:31.003Z</time></trkpt><trkpt lat="45.138921059208315" lon="9.39244477876293"><ele>53.0</ele><time>2026-03-29T13:33:32.003Z</time></trkpt><trkpt lat="45.13900249306686" lon="9.392559173584843"><ele>53.0</ele><time>2026-03-29T13:33:33.003Z</time></trkpt><trkpt lat="45.13907930058926" lon="9.392659797146543"><ele>53.0</ele><time>2026-03-29T13:33:34.003Z</time></trkpt><trkpt lat="45.13914923980709" lon="9.392737081087741"><ele>53.0</ele><time>2026-03-29T13:33:35.003Z</time></trkpt><trkpt lat="45.13922849472885" lon="9.39280254470157"><ele>53.0</ele><time>2026-03-29T13:33:36.003Z</time></trkpt><trkpt lat="45.1393287962762" lon="9.392858082606642"><ele>53.0</ele><time>2026-03-29T13:33:37Z</time></trkpt><trkpt lat="45.13943046228771" lon="9.392909840680302"><ele>53.0</ele><time>2026-03-29T13:33:38Z</time></trkpt><trkpt lat="45.13952776742503" lon="9.3929685034751"><ele>53.0</ele><time>2026-03-29T13:33:39Z</time></trkpt><trkpt lat="45.13961579466362" lon="9.393059699576924"><ele>53.0</ele><time>2026-03-29T13:33:40Z</time></trkpt><trkpt lat="45.139696006322225" lon="9.39315932636863"><ele>53.0</ele><time>2026-03-29T13:33:41Z</time></trkpt><trkpt lat="45.13977808906707" lon="9.39326647513624"><ele>53.0</ele><time>2026-03-29T13:33:42Z</time></trkpt><trkpt lat="45.13986052930851" lon="9.393374503577"><ele>53.0</ele><time>2026-03-29T13:33:43Z</time></trkpt><trkpt lat="45.13994049942513" lon="9.39347336273283"><ele>53.0</ele><time>2026-03-29T13:33:44Z</time></trkpt><trkpt lat="45.14001871228566" lon="9.393564068152731"><ele>53.0</ele><time>2026-03-29T13:33:45Z</time></trkpt><trkpt lat="45.14008530681863" lon="9.393645014286443"><ele>53.00000000000001</ele><time>2026-03-29T13:33:46Z</time></trkpt><trkpt lat="45.14015357085145" lon="9.39372752211946"><ele>53.0</ele><time>2026-03-29T13:33:47Z</time></trkpt><trkpt lat="45.1402226617652" lon="9.393813305715609"><ele>53.0</ele><time>2026-03-29T13:33:48Z</time></trkpt><trkpt lat="45.14028235608967" lon="9.3938836496869"><ele>53.0</ele><time>2026-03-29T13:33:49Z</time></trkpt><trkpt lat="45.14033923481633" lon="9.39394707722751"><ele>53.00000000000001</ele><time>2026-03-29T13:33:50Z</time></trkpt><trkpt lat="45.140430091945234" lon="9.394014846923243"><ele>53.0</ele><time>2026-03-29T13:33:52Z</time></trkpt><trkpt lat="45.14050702538274" lon="9.393978116011784"><ele>53.0</ele><time>2026-03-29T13:33:54Z</time></trkpt><trkpt lat="45.14058163023839" lon="9.393888967232709"><ele>53.0</ele><time>2026-03-29T13:33:56Z</time></trkpt><trkpt lat="45.140655670015256" lon="9.393776699233863"><ele>53.0</ele><time>2026-03-29T13:33:58Z</time></trkpt><trkpt lat="45.140716522041735" lon="9.393644008393515"><ele>53.0</ele><time>2026-03-29T13:34:00Z</time></trkpt><trkpt lat="45.14077847413189" lon="9.39352355527913"><ele>53.0</ele><time>2026-03-29T13:34:02Z</time></trkpt><trkpt lat="45.14085005500572" lon="9.393391538608412"><ele>53.0</ele><time>2026-03-29T13:34:04Z</time></trkpt><trkpt lat="45.1409136776398" lon="9.393248342090317"><ele>53.0</ele><time>2026-03-29T13:34:06Z</time></trkpt><trkpt lat="45.140963584908874" lon="9.393097635428678"><ele>53.0</ele><time>2026-03-29T13:34:08.001Z</time></trkpt><trkpt lat="45.14098887585125" lon="9.39300692237162"><ele>53.0</ele><time>2026-03-29T13:34:09.001Z</time></trkpt><trkpt lat="45.141018316057824" lon="9.392894305571858"><ele>53.0</ele><time>2026-03-29T13:34:10.001Z</time></trkpt><trkpt lat="45.14105348867196" lon="9.392755270225049"><ele>53.0</ele><time>2026-03-29T13:34:11.001Z</time></trkpt><trkpt lat="45.14109161216504" lon="9.392595077106746"><ele>53.0</ele><time>2026-03-29T13:34:12.001Z</time></trkpt><trkpt lat="45.14112991376092" lon="9.39243264211545"><ele>53.0</ele><time>2026-03-29T13:34:13.001Z</time></trkpt><trkpt lat="45.141164861693646" lon="9.392262577555195"><ele>53.0</ele><time>2026-03-29T13:34:14.001Z</time></trkpt><trkpt lat="45.141190695440585" lon="9.39209547058759"><ele>53.25</ele><time>2026-03-29T13:34:15.001Z</time></trkpt><trkpt lat="45.1412137214567" lon="9.391929245732587"><ele>53.5</ele><time>2026-03-29T13:34:16.001Z</time></trkpt><trkpt lat="45.14122946537995" lon="9.391763315830763"><ele>53.75</ele><time>2026-03-29T13:34:17.001Z</time></trkpt><trkpt lat="45.14125095630817" lon="9.391586987611328"><ele>54.0</ele><time>2026-03-29T13:34:18.001Z</time></trkpt><trkpt lat="45.1412804330412" lon="9.391422540588293"><ele>53.6</ele><time>2026-03-29T13:34:19.001Z</time></trkpt><trkpt lat="45.1413204042598" lon="9.391268253736108"><ele>53.2</ele><time>2026-03-29T13:34:20.001Z</time></trkpt><trkpt lat="45.14135635546539" lon="9.391130496181454"><ele>52.800000000000004</ele><time>2026-03-29T13:34:21.001Z</time></trkpt><trkpt lat="45.14138225242917" lon="9.391001868469552"><ele>52.400000000000006</ele><time>2026-03-29T13:34:22.001Z</time></trkpt><trkpt lat="45.14140482327453" lon="9.390879008924806"><ele>52.0</ele><time>2026-03-29T13:34:23.001Z</time></trkpt><trkpt lat="45.14143827180845" lon="9.390760366352934"><ele>52.0</ele><time>2026-03-29T13:34:24.001Z</time></trkpt><trkpt lat="45.141490680937615" lon="9.390642701499953"><ele>52.0</ele><time>2026-03-29T13:34:25.001Z</time></trkpt><trkpt lat="45.14155837187092" lon="9.39053622190083"><ele>52.0</ele><time>2026-03-29T13:34:26.001Z</time></trkpt><trkpt lat="45.141634843801555" lon="9.390443220883183"><ele>52.0</ele><time>2026-03-29T13:34:27.001Z</time></trkpt><trkpt lat="45.141703447156445" lon="9.390370130680576"><ele>52.0</ele><time>2026-03-29T13:34:28.001Z</time></trkpt><trkpt lat="45.14176565015744" lon="9.39031352916897"><ele>52.0</ele><time>2026-03-29T13:34:29.001Z</time></trkpt><trkpt lat="45.14182472737121" lon="9.390277672785963"><ele>52.0</ele><time>2026-03-29T13:34:30.001Z</time></trkpt><trkpt lat="45.141959834967714" lon="9.390321195320912"><ele>52.0</ele><time>2026-03-29T13:34:32.001Z</time></trkpt><trkpt lat="45.142030761286" lon="9.390386052238018"><ele>52.0</ele><time>2026-03-29T13:34:33.001Z</time></trkpt><trkpt lat="45.142118298348144" lon="9.390468508800272"><ele>52.0</ele><time>2026-03-29T13:34:34.001Z</time></trkpt><trkpt lat="45.14219984659495" lon="9.390545130336388"><ele>51.99999999999999</ele><time>2026-03-29T13:34:35.001Z</time></trkpt><trkpt lat="45.14226975805479" lon="9.390628123804161"><ele>52.0</ele><time>2026-03-29T13:34:36.001Z</time></trkpt><trkpt lat="45.142326203298154" lon="9.390703070445563"><ele>52.0</ele><time>2026-03-29T13:34:37.001Z</time></trkpt><trkpt lat="45.14237657527945" lon="9.390757018415476"><ele>52.0</ele><time>2026-03-29T13:34:38.001Z</time></trkpt><trkpt lat="45.1424339094555" lon="9.39079500634712"><ele>51.99999999999999</ele><time>2026-03-29T13:34:39.002Z</time></trkpt><trkpt lat="45.14253808677876" lon="9.390763057677733"><ele>52.0</ele><time>2026-03-29T13:34:41.002Z</time></trkpt><trkpt lat="45.14260798639476" lon="9.390602002707732"><ele>52.2</ele><time>2026-03-29T13:34:43.002Z</time></trkpt><trkpt lat="45.14264035019678" lon="9.390517298563655"><ele>52.400000000000006</ele><time>2026-03-29T13:34:44.002Z</time></trkpt><trkpt lat="45.14271728082842" lon="9.390394978416245"><ele>52.599999999999994</ele><time>2026-03-29T13:34:46.002Z</time></trkpt><trkpt lat="45.142794384998794" lon="9.3904129460296"><ele>52.8</ele><time>2026-03-29T13:34:48.002Z</time></trkpt><trkpt lat="45.142886513087056" lon="9.390508301995633"><ele>53.0</ele><time>2026-03-29T13:34:50.002Z</time></trkpt><trkpt lat="45.14295712640337" lon="9.390540724871803"><ele>53.0</ele><time>2026-03-29T13:34:51.002Z</time></trkpt><trkpt lat="45.14304830120895" lon="9.390551353190759"><ele>53.0</ele><time>2026-03-29T13:34:52.002Z</time></trkpt><trkpt lat="45.1431554991864" lon="9.390559316306625"><ele>53.0</ele><time>2026-03-29T13:34:53.002Z</time></trkpt><trkpt lat="45.14327733546254" lon="9.390569224035685"><ele>53.0</ele><time>2026-03-29T13:34:54.002Z</time></trkpt><trkpt lat="45.143403817777305" lon="9.390580791310915"><ele>53.0</ele><time>2026-03-29T13:34:55.002Z</time></trkpt><trkpt lat="45.14352523730615" lon="9.39059295778163"><ele>52.8</ele><time>2026-03-29T13:34:56.002Z</time></trkpt><trkpt lat="45.14363471888243" lon="9.39060621169197"><ele>52.599999999999994</ele><time>2026-03-29T13:34:57.002Z</time></trkpt><trkpt lat="45.14373416490328" lon="9.390621125388005"><ele>52.400000000000006</ele><time>2026-03-29T13:34:58.002Z</time></trkpt><trkpt lat="45.14384055469524" lon="9.390645167749588"><ele>52.2</ele><time>2026-03-29T13:34:59.002Z</time></trkpt><trkpt lat="45.14395670042224" lon="9.390673634456887"><ele>52.0</ele><time>2026-03-29T13:35:00.002Z</time></trkpt><trkpt lat="45.14407325298272" lon="9.390707253922148"><ele>51.99999999999999</ele><time>2026-03-29T13:35:01.002Z</time></trkpt><trkpt lat="45.14417491637664" lon="9.390734277628473"><ele>52.0</ele><time>2026-03-29T13:35:02.002Z</time></trkpt><trkpt lat="45.14426631110069" lon="9.390762380284624"><ele>52.0</ele><time>2026-03-29T13:35:03.002Z</time></trkpt><trkpt lat="45.14434109448235" lon="9.390784574277498"><ele>52.0</ele><time>2026-03-29T13:35:04.002Z</time></trkpt><trkpt lat="45.144412935868274" lon="9.390808816570365"><ele>51.99999999999999</ele><time>2026-03-29T13:35:05.002Z</time></trkpt><trkpt lat="45.1444952363167" lon="9.390876733978947"><ele>52.0</ele><time>2026-03-29T13:35:07.002Z</time></trkpt><trkpt lat="45.144510034865405" lon="9.391035514725651"><ele>52.0</ele><time>2026-03-29T13:35:09.002Z</time></trkpt><trkpt lat="45.14449273232892" lon="9.391147392682683"><ele>52.0</ele><time>2026-03-29T13:35:10.002Z</time></trkpt><trkpt lat="45.14446930340456" lon="9.39129013380005"><ele>52.0</ele><time>2026-03-29T13:35:11.002Z</time></trkpt><trkpt lat="45.144448261656215" lon="9.3914536238768"><ele>52.0</ele><time>2026-03-29T13:35:12.003Z</time></trkpt><trkpt lat="45.14443196859942" lon="9.391597461236378"><ele>52.0</ele><time>2026-03-29T13:35:13.003Z</time></trkpt><trkpt lat="45.14441844754921" lon="9.391721145448708"><ele>51.99999999999999</ele><time>2026-03-29T13:35:14.003Z</time></trkpt><trkpt lat="45.14440569247301" lon="9.391826285103296"><ele>52.0</ele><time>2026-03-29T13:35:15.003Z</time></trkpt><trkpt lat="45.14439321537408" lon="9.39192855597437"><ele>52.0</ele><time>2026-03-29T13:35:16.003Z</time></trkpt><trkpt lat="45.14438215065737" lon="9.392020493346873"><ele>52.0</ele><time>2026-03-29T13:35:17.003Z</time></trkpt><trkpt lat="45.144368727218804" lon="9.392141604928684"><ele>51.99999999999999</ele><time>2026-03-29T13:35:18.003Z</time></trkpt><trkpt lat="45.144352697191" lon="9.39226452554509"><ele>52.0</ele><time>2026-03-29T13:35:19.003Z</time></trkpt><trkpt lat="45.144342646062135" lon="9.392355852614912"><ele>52.33333333333333</ele><time>2026-03-29T13:35:20.003Z</time></trkpt><trkpt lat="45.14433150626092" lon="9.392478123403393"><ele>52.666666666666664</ele><time>2026-03-29T13:35:21.003Z</time></trkpt><trkpt lat="45.14431792625976" lon="9.392601671533397"><ele>53.0</ele><time>2026-03-29T13:35:22.003Z</time></trkpt><trkpt lat="45.14430398326726" lon="9.39273054040907"><ele>53.33333333333333</ele><time>2026-03-29T13:35:23.003Z</time></trkpt><trkpt lat="45.14428609719505" lon="9.392848455178376"><ele>53.666666666666664</ele><time>2026-03-29T13:35:24.003Z</time></trkpt><trkpt lat="45.14427231249652" lon="9.39296106717447"><ele>54.0</ele><time>2026-03-29T13:35:25.003Z</time></trkpt><trkpt lat="45.144259557402044" lon="9.393057579015409"><ele>54.166666666666664</ele><time>2026-03-29T13:35:26.003Z</time></trkpt><trkpt lat="45.14424760694638" lon="9.39315046660206"><ele>54.33333333333333</ele><time>2026-03-29T13:35:27.003Z</time></trkpt><trkpt lat="45.14425863808076" lon="9.393264704800803"><ele>54.5</ele><time>2026-03-29T13:35:29.003Z</time></trkpt><trkpt lat="45.14431960427653" lon="9.393326203465216"><ele>54.666666666666664</ele><time>2026-03-29T13:35:31.003Z</time></trkpt><trkpt lat="45.144437648344464" lon="9.39341503426498"><ele>54.83333333333333</ele><time>2026-03-29T13:35:33.003Z</time></trkpt><trkpt lat="45.14451862803537" lon="9.393474274081724"><ele>55.0</ele><time>2026-03-29T13:35:34.003Z</time></trkpt><trkpt lat="45.144596427187494" lon="9.393527034391626"><ele>54.99999999999999</ele><time>2026-03-29T13:35:35.003Z</time></trkpt><trkpt lat="45.14465821480448" lon="9.393574145734965"><ele>55.0</ele><time>2026-03-29T13:35:36.003Z</time></trkpt><trkpt lat="45.14477035640965" lon="9.393651528624511"><ele>55.0</ele><time>2026-03-29T13:35:38.003Z</time></trkpt><trkpt lat="45.144828039897696" lon="9.393695977697826"><ele>55.0</ele><time>2026-03-29T13:35:39.003Z</time></trkpt><trkpt lat="45.144891049647505" lon="9.393761310762242"><ele>54.99999999999999</ele><time>2026-03-29T13:35:40.003Z</time></trkpt><trkpt lat="45.14496211267407" lon="9.393842844522743"><ele>55.0</ele><time>2026-03-29T13:35:41.003Z</time></trkpt><trkpt lat="45.145035199288216" lon="9.393926310793612"><ele>54.4</ele><time>2026-03-29T13:35:42.003Z</time></trkpt><trkpt lat="45.14512317096519" lon="9.394018954763295"><ele>53.8</ele><time>2026-03-29T13:35:42.999Z</time></trkpt><trkpt lat="45.145207884559994" lon="9.394107908220587"><ele>53.2</ele><time>2026-03-29T13:35:43.999Z</time></trkpt><trkpt lat="45.14529611408368" lon="9.3941961852027"><ele>52.6</ele><time>2026-03-29T13:35:44.999Z</time></trkpt><trkpt lat="45.14538306155536" lon="9.394285202996786"><ele>52.0</ele><time>2026-03-29T13:35:45.999Z</time></trkpt><trkpt lat="45.145467283694934" lon="9.394369673778023"><ele>51.99999999999999</ele><time>2026-03-29T13:35:46.999Z</time></trkpt><trkpt lat="45.14554676159703" lon="9.394449172937922"><ele>52.0</ele><time>2026-03-29T13:35:47.999Z</time></trkpt><trkpt lat="45.14561767671345" lon="9.39452030291415"><ele>52.0</ele><time>2026-03-29T13:35:48.999Z</time></trkpt><trkpt lat="45.14568009765061" lon="9.394579125678378"><ele>52.0</ele><time>2026-03-29T13:35:49.999Z</time></trkpt><trkpt lat="45.145733172895966" lon="9.39463694797955"><ele>51.99999999999999</ele><time>2026-03-29T13:35:51Z</time></trkpt><trkpt lat="45.14577757174875" lon="9.394739028597398"><ele>52.0</ele><time>2026-03-29T13:35:53Z</time></trkpt><trkpt lat="45.14575815183533" lon="9.394863022575677"><ele>52.166666666666664</ele><time>2026-03-29T13:35:55Z</time></trkpt><trkpt lat="45.145731931682825" lon="9.394957208584387"><ele>52.33333333333333</ele><time>2026-03-29T13:35:56Z</time></trkpt><trkpt lat="45.14570174624283" lon="9.39505320935119"><ele>52.5</ele><time>2026-03-29T13:35:57Z</time></trkpt><trkpt lat="45.1456759012628" lon="9.395149851301184"><ele>52.66666666666667</ele><time>2026-03-29T13:35:58Z</time></trkpt><trkpt lat="45.14568869849204" lon="9.395302829818585"><ele>52.833333333333336</ele><time>2026-03-29T13:36:00Z</time></trkpt><trkpt lat="45.14577795177174" lon="9.395420145376374"><ele>53.0</ele><time>2026-03-29T13:36:02Z</time></trkpt><trkpt lat="45.145844908643106" lon="9.395488760795372"><ele>53.16666666666667</ele><time>2026-03-29T13:36:03Z</time></trkpt><trkpt lat="45.145916120525186" lon="9.395549889194209"><ele>53.333333333333336</ele><time>2026-03-29T13:36:04Z</time></trkpt><trkpt lat="45.146002825385644" lon="9.395626892905142"><ele>53.5</ele><time>2026-03-29T13:36:05Z</time></trkpt><trkpt lat="45.14608466916574" lon="9.39569234373226"><ele>53.66666666666667</ele><time>2026-03-29T13:36:06Z</time></trkpt><trkpt lat="45.1461581690492" lon="9.39573807156691"><ele>53.833333333333336</ele><time>2026-03-29T13:36:07Z</time></trkpt><trkpt lat="45.14623287630595" lon="9.395777814274258"><ele>54.0</ele><time>2026-03-29T13:36:08Z</time></trkpt><trkpt lat="45.14632462438774" lon="9.395822530673831"><ele>54.0</ele><time>2026-03-29T13:36:09Z</time></trkpt><trkpt lat="45.1464190061863" lon="9.395867027819477"><ele>54.00000000000001</ele><time>2026-03-29T13:36:10Z</time></trkpt><trkpt lat="45.146516772208365" lon="9.395912021749254"><ele>54.00000000000001</ele><time>2026-03-29T13:36:11Z</time></trkpt><trkpt lat="45.14662563216846" lon="9.39595774634962"><ele>54.0</ele><time>2026-03-29T13:36:12Z</time></trkpt><trkpt lat="45.14672549337093" lon="9.396011906352403"><ele>54.0</ele><time>2026-03-29T13:36:13Z</time></trkpt><trkpt lat="45.14681893411097" lon="9.396064204082471"><ele>53.800000000000004</ele><time>2026-03-29T13:36:14Z</time></trkpt><trkpt lat="45.14689531174474" lon="9.396104956651754"><ele>53.60000000000001</ele><time>2026-03-29T13:36:15Z</time></trkpt><trkpt lat="45.14698558382132" lon="9.396142724952279"><ele>53.4</ele><time>2026-03-29T13:36:16.001Z</time></trkpt><trkpt lat="45.147082463784066" lon="9.3961778755662"><ele>53.2</ele><time>2026-03-29T13:36:17.001Z</time></trkpt><trkpt lat="45.14718287640063" lon="9.396217821667317"><ele>53.0</ele><time>2026-03-29T13:36:18.001Z</time></trkpt><trkpt lat="45.147296793436276" lon="9.396273932023666"><ele>53.0</ele><time>2026-03-29T13:36:19.001Z</time></trkpt><trkpt lat="45.147414648750406" lon="9.396330777746016"><ele>53.0</ele><time>2026-03-29T13:36:20.001Z</time></trkpt><trkpt lat="45.1475331562541" lon="9.396382262733292"><ele>53.0</ele><time>2026-03-29T13:36:21.001Z</time></trkpt><trkpt lat="45.14763766711581" lon="9.396428966489681"><ele>53.0</ele><time>2026-03-29T13:36:22.001Z</time></trkpt><trkpt lat="45.14773757844968" lon="9.396470709128176"><ele>53.0</ele><time>2026-03-29T13:36:23.001Z</time></trkpt><trkpt lat="45.14782795926433" lon="9.396508564301874"><ele>53.0</ele><time>2026-03-29T13:36:24.001Z</time></trkpt><trkpt lat="45.14792964410112" lon="9.39655353821238"><ele>53.0</ele><time>2026-03-29T13:36:25.001Z</time></trkpt><trkpt lat="45.14802529899422" lon="9.39659286588076"><ele>53.0</ele><time>2026-03-29T13:36:26.001Z</time></trkpt><trkpt lat="45.14812698059302" lon="9.396633877628718"><ele>53.0</ele><time>2026-03-29T13:36:27.001Z</time></trkpt><trkpt lat="45.14823591275087" lon="9.396677582365198"><ele>53.0</ele><time>2026-03-29T13:36:28.001Z</time></trkpt><trkpt lat="45.14833991927804" lon="9.396717453106575"><ele>53.0</ele><time>2026-03-29T13:36:29.001Z</time></trkpt><trkpt lat="45.148441569633285" lon="9.39676079343831"><ele>53.0</ele><time>2026-03-29T13:36:30.001Z</time></trkpt><trkpt lat="45.148540867755486" lon="9.396800416533063"><ele>53.0</ele><time>2026-03-29T13:36:31.001Z</time></trkpt><trkpt lat="45.148650092553055" lon="9.396839920090903"><ele>53.0</ele><time>2026-03-29T13:36:32.001Z</time></trkpt><trkpt lat="45.1487605459734" lon="9.396887508960045"><ele>53.0</ele><time>2026-03-29T13:36:33.001Z</time></trkpt><trkpt lat="45.14886894420029" lon="9.396934272861579"><ele>53.0</ele><time>2026-03-29T13:36:34.001Z</time></trkpt><trkpt lat="45.148973590183765" lon="9.396980832881255"><ele>53.0</ele><time>2026-03-29T13:36:35.001Z</time></trkpt><trkpt lat="45.149078147861054" lon="9.397024417309563"><ele>53.0</ele><time>2026-03-29T13:36:36.001Z</time></trkpt><trkpt lat="45.14917299506596" lon="9.397064676123431"><ele>53.0</ele><time>2026-03-29T13:36:37.001Z</time></trkpt><trkpt lat="45.14926882239281" lon="9.39710848226358"><ele>53.0</ele><time>2026-03-29T13:36:38.001Z</time></trkpt><trkpt lat="45.149368065871414" lon="9.39715396779115"><ele>53.0</ele><time>2026-03-29T13:36:39.001Z</time></trkpt><trkpt lat="45.149465261910464" lon="9.397197521581898"><ele>53.0</ele><time>2026-03-29T13:36:40.001Z</time></trkpt><trkpt lat="45.149566863651" lon="9.397246269222428"><ele>53.0</ele><time>2026-03-29T13:36:41.001Z</time></trkpt><trkpt lat="45.149661141071824" lon="9.397301583417347"><ele>53.0</ele><time>2026-03-29T13:36:42.001Z</time></trkpt><trkpt lat="45.14975152593737" lon="9.397367457098365"><ele>53.0</ele><time>2026-03-29T13:36:43.001Z</time></trkpt><trkpt lat="45.149836129039166" lon="9.397434036434987"><ele>53.0</ele><time>2026-03-29T13:36:44.001Z</time></trkpt><trkpt lat="45.14993158712842" lon="9.397499425275297"><ele>53.0</ele><time>2026-03-29T13:36:45.001Z</time></trkpt><trkpt lat="45.15002787187871" lon="9.397558614927824"><ele>53.0</ele><time>2026-03-29T13:36:46.002Z</time></trkpt><trkpt lat="45.150129400110934" lon="9.397616686827165"><ele>53.0</ele><time>2026-03-29T13:36:47.002Z</time></trkpt><trkpt lat="45.15022883547718" lon="9.397670462046456"><ele>53.0</ele><time>2026-03-29T13:36:48.002Z</time></trkpt><trkpt lat="45.150327052239675" lon="9.397725081206428"><ele>53.0</ele><time>2026-03-29T13:36:49.002Z</time></trkpt><trkpt lat="45.1504196576534" lon="9.39778354568112"><ele>53.0</ele><time>2026-03-29T13:36:50.002Z</time></trkpt><trkpt lat="45.150513481670316" lon="9.397843023905127"><ele>53.0</ele><time>2026-03-29T13:36:51.002Z</time></trkpt><trkpt lat="45.15059626471295" lon="9.397895086848328"><ele>53.0</ele><time>2026-03-29T13:36:52.002Z</time></trkpt><trkpt lat="45.15066663063348" lon="9.397939415304933"><ele>53.00000000000001</ele><time>2026-03-29T13:36:53.002Z</time></trkpt><trkpt lat="45.15073505283277" lon="9.397992546939951"><ele>53.0</ele><time>2026-03-29T13:36:54.002Z</time></trkpt><trkpt lat="45.15079499913678" lon="9.39804351758614"><ele>53.0</ele><time>2026-03-29T13:36:55.002Z</time></trkpt><trkpt lat="45.15086092220769" lon="9.398076686423632"><ele>53.0</ele><time>2026-03-29T13:36:56.002Z</time></trkpt><trkpt lat="45.15094799190262" lon="9.398094709649635"><ele>53.00000000000001</ele><time>2026-03-29T13:36:57.002Z</time></trkpt><trkpt lat="45.1510461729518" lon="9.398133702345607"><ele>53.0</ele><time>2026-03-29T13:36:58.002Z</time></trkpt><trkpt lat="45.151139228557895" lon="9.39817833248369"><ele>53.0</ele><time>2026-03-29T13:36:59.002Z</time></trkpt><trkpt lat="45.1512405742881" lon="9.398228524063708"><ele>53.0</ele><time>2026-03-29T13:37:00.002Z</time></trkpt><trkpt lat="45.151343018779386" lon="9.398277781230515"><ele>53.0</ele><time>2026-03-29T13:37:01.002Z</time></trkpt><trkpt lat="45.15144483205389" lon="9.398324574082928"><ele>53.0</ele><time>2026-03-29T13:37:02.002Z</time></trkpt><trkpt lat="45.15154469625165" lon="9.398373086020964"><ele>53.0</ele><time>2026-03-29T13:37:03.002Z</time></trkpt><trkpt lat="45.1516448090284" lon="9.398419754758299"><ele>53.00000000000001</ele><time>2026-03-29T13:37:04.002Z</time></trkpt><trkpt lat="45.151743754054564" lon="9.398467236692435"><ele>53.0</ele><time>2026-03-29T13:37:05.002Z</time></trkpt><trkpt lat="45.151840029597835" lon="9.398512961550562"><ele>53.0</ele><time>2026-03-29T13:37:06.002Z</time></trkpt><trkpt lat="45.15192296608409" lon="9.39855226623592"><ele>53.0</ele><time>2026-03-29T13:37:07.002Z</time></trkpt><trkpt lat="45.151994357205986" lon="9.398582400140237"><ele>53.00000000000001</ele><time>2026-03-29T13:37:08.002Z</time></trkpt><trkpt lat="45.152062050949134" lon="9.39859658627274"><ele>53.0</ele><time>2026-03-29T13:37:09.002Z</time></trkpt><trkpt lat="45.15212733189822" lon="9.398593167418898"><ele>53.00000000000001</ele><time>2026-03-29T13:37:10.002Z</time></trkpt><trkpt lat="45.15219038124391" lon="9.398578587922408"><ele>53.0</ele><time>2026-03-29T13:37:11.002Z</time></trkpt><trkpt lat="45.152257342383" lon="9.39856490941301"><ele>53.0</ele><time>2026-03-29T13:37:12.002Z</time></trkpt><trkpt lat="45.152326412440715" lon="9.398555099954574"><ele>53.0</ele><time>2026-03-29T13:37:13.002Z</time></trkpt><trkpt lat="45.15244954838054" lon="9.398523908217479"><ele>53.00000000000001</ele><time>2026-03-29T13:37:15.002Z</time></trkpt><trkpt lat="45.15251359011167" lon="9.398512297978373"><ele>53.0</ele><time>2026-03-29T13:37:16.002Z</time></trkpt><trkpt lat="45.15263563033092" lon="9.398484776010928"><ele>53.2</ele><time>2026-03-29T13:37:18.002Z</time></trkpt><trkpt lat="45.152744848180504" lon="9.398469326791078"><ele>53.4</ele><time>2026-03-29T13:37:20.003Z</time></trkpt><trkpt lat="45.152855349005904" lon="9.398444503273048"><ele>53.60000000000001</ele><time>2026-03-29T13:37:22.003Z</time></trkpt><trkpt lat="45.15297776773059" lon="9.398485560331148"><ele>53.800000000000004</ele><time>2026-03-29T13:37:24.003Z</time></trkpt><trkpt lat="45.153049694362736" lon="9.39850137212849"><ele>54.0</ele><time>2026-03-29T13:37:25.003Z</time></trkpt><trkpt lat="45.153130477626846" lon="9.398519130899684"><ele>53.800000000000004</ele><time>2026-03-29T13:37:26.003Z</time></trkpt><trkpt lat="45.153224257787215" lon="9.398520553154276"><ele>53.60000000000001</ele><time>2026-03-29T13:37:27.003Z</time></trkpt><trkpt lat="45.153314431410564" lon="9.398553698503362"><ele>53.4</ele><time>2026-03-29T13:37:28.003Z</time></trkpt><trkpt lat="45.153401375931296" lon="9.398583239315592"><ele>53.2</ele><time>2026-03-29T13:37:29.003Z</time></trkpt><trkpt lat="45.15349213558998" lon="9.398610384147277"><ele>53.0</ele><time>2026-03-29T13:37:30.003Z</time></trkpt><trkpt lat="45.153585021457104" lon="9.398632264759536"><ele>53.00000000000001</ele><time>2026-03-29T13:37:31.003Z</time></trkpt><trkpt lat="45.15365365937436" lon="9.398643907297892"><ele>53.0</ele><time>2026-03-29T13:37:32.003Z</time></trkpt><trkpt lat="45.15372341799877" lon="9.398669649217755"><ele>53.0</ele><time>2026-03-29T13:37:33.003Z</time></trkpt><trkpt lat="45.15379389754148" lon="9.398685094782936"><ele>53.0</ele><time>2026-03-29T13:37:34.003Z</time></trkpt><trkpt lat="45.153876189013026" lon="9.398703228518308"><ele>53.00000000000001</ele><time>2026-03-29T13:37:35.003Z</time></trkpt><trkpt lat="45.153964498034505" lon="9.398723461416928"><ele>53.0</ele><time>2026-03-29T13:37:36.003Z</time></trkpt><trkpt lat="45.15405205804942" lon="9.398744702742361"><ele>53.599999999999994</ele><time>2026-03-29T13:37:37.003Z</time></trkpt><trkpt lat="45.15414502119633" lon="9.398768542989243"><ele>54.199999999999996</ele><time>2026-03-29T13:37:38.003Z</time></trkpt><trkpt lat="45.15423845652735" lon="9.3987890685515"><ele>54.8</ele><time>2026-03-29T13:37:39.003Z</time></trkpt><trkpt lat="45.1543329831448" lon="9.398811701455726"><ele>55.4</ele><time>2026-03-29T13:37:40.003Z</time></trkpt><trkpt lat="45.15442378275532" lon="9.398841607841527"><ele>56.0</ele><time>2026-03-29T13:37:41.003Z</time></trkpt><trkpt lat="45.154513361942264" lon="9.398875459869618"><ele>56.00000000000001</ele><time>2026-03-29T13:37:42.003Z</time></trkpt><trkpt lat="45.15459529625945" lon="9.398902761485308"><ele>56.0</ele><time>2026-03-29T13:37:43.003Z</time></trkpt><trkpt lat="45.15466797951997" lon="9.398927718379474"><ele>56.0</ele><time>2026-03-29T13:37:44.003Z</time></trkpt><trkpt lat="45.15472542162517" lon="9.398889813726415"><ele>56.0</ele><time>2026-03-29T13:37:45.003Z</time></trkpt><trkpt lat="45.15483996565654" lon="9.39876475581191"><ele>56.00000000000001</ele><time>2026-03-29T13:37:47.003Z</time></trkpt><trkpt lat="45.154913815716185" lon="9.398718147030387"><ele>56.0</ele><time>2026-03-29T13:37:48.003Z</time></trkpt><trkpt lat="45.15499502250638" lon="9.398695572407782"><ele>58.199999999999996</ele><time>2026-03-29T13:37:48.999Z</time></trkpt><trkpt lat="45.15509645296369" lon="9.398684095764752"><ele>60.39999999999999</ele><time>2026-03-29T13:37:49.999Z</time></trkpt><trkpt lat="45.15520109834982" lon="9.398671359408256"><ele>62.6</ele><time>2026-03-29T13:37:50.999Z</time></trkpt><trkpt lat="45.155310695209536" lon="9.398657182449629"><ele>64.8</ele><time>2026-03-29T13:37:51.999Z</time></trkpt><trkpt lat="45.155423385509756" lon="9.398640792911769"><ele>67.0</ele><time>2026-03-29T13:37:53Z</time></trkpt><trkpt lat="45.15551545378907" lon="9.398624285823795"><ele>67.0</ele><time>2026-03-29T13:37:54Z</time></trkpt><trkpt lat="45.15558712280317" lon="9.398616739351482"><ele>67.0</ele><time>2026-03-29T13:37:55Z</time></trkpt><trkpt lat="45.155651040309515" lon="9.398602434013803"><ele>67.0</ele><time>2026-03-29T13:37:56Z</time></trkpt><trkpt lat="45.155722467574286" lon="9.3985957989855"><ele>67.0</ele><time>2026-03-29T13:37:58Z</time></trkpt><trkpt lat="45.15569963912566" lon="9.398710086831395"><ele>67.0</ele><time>2026-03-29T13:38:04Z</time></trkpt><trkpt lat="45.155685833086835" lon="9.39887693728893"><ele>67.0</ele><time>2026-03-29T13:38:06Z</time></trkpt><trkpt lat="45.15567324818643" lon="9.399051252226737"><ele>67.4</ele><time>2026-03-29T13:38:08Z</time></trkpt><trkpt lat="45.15566616075985" lon="9.399155012164288"><ele>67.80000000000001</ele><time>2026-03-29T13:38:09Z</time></trkpt><trkpt lat="45.15565811331796" lon="9.399272826711982"><ele>68.2</ele><time>2026-03-29T13:38:10Z</time></trkpt><trkpt lat="45.15564833719872" lon="9.399415949095662"><ele>68.60000000000001</ele><time>2026-03-29T13:38:11Z</time></trkpt><trkpt lat="45.15565166950845" lon="9.39956117036838"><ele>69.0</ele><time>2026-03-29T13:38:12Z</time></trkpt><trkpt lat="45.15562204842692" lon="9.399716616552361"><ele>69.25</ele><time>2026-03-29T13:38:13Z</time></trkpt><trkpt lat="45.15562934570001" lon="9.399882063298264"><ele>69.5</ele><time>2026-03-29T13:38:14Z</time></trkpt><trkpt lat="45.15561715193379" lon="9.400041558764176"><ele>69.75</ele><time>2026-03-29T13:38:15Z</time></trkpt><trkpt lat="45.15561142517501" lon="9.400202562952789"><ele>70.0</ele><time>2026-03-29T13:38:16Z</time></trkpt><trkpt lat="45.15559550991597" lon="9.400364196307807"><ele>70.0</ele><time>2026-03-29T13:38:17Z</time></trkpt><trkpt lat="45.15558973835211" lon="9.400502617397379"><ele>70.0</ele><time>2026-03-29T13:38:18Z</time></trkpt><trkpt lat="45.15558332420108" lon="9.400627722009439"><ele>70.0</ele><time>2026-03-29T13:38:19Z</time></trkpt><trkpt lat="45.15558806912342" lon="9.400751306191527"><ele>70.0</ele><time>2026-03-29T13:38:20Z</time></trkpt><trkpt lat="45.15557155079069" lon="9.400858601505162"><ele>70.0</ele><time>2026-03-29T13:38:21.001Z</time></trkpt><trkpt lat="45.15556744870603" lon="9.400970072380922"><ele>70.0</ele><time>2026-03-29T13:38:22.001Z</time></trkpt><trkpt lat="45.15556607557762" lon="9.401060476502142"><ele>70.0</ele><time>2026-03-29T13:38:23.001Z</time></trkpt><trkpt lat="45.15557662622165" lon="9.401203892968848"><ele>70.0</ele><time>2026-03-29T13:38:25.001Z</time></trkpt><trkpt lat="45.15570220784796" lon="9.401270506064215"><ele>70.0</ele><time>2026-03-29T13:38:32.001Z</time></trkpt><trkpt lat="45.15583816495663" lon="9.401276555190176"><ele>70.0</ele><time>2026-03-29T13:38:34.001Z</time></trkpt><trkpt lat="45.155918555956006" lon="9.40128894296051"><ele>70.2</ele><time>2026-03-29T13:38:35.001Z</time></trkpt><trkpt lat="45.156004094337824" lon="9.40129278727854"><ele>70.4</ele><time>2026-03-29T13:38:36.001Z</time></trkpt><trkpt lat="45.156099811855455" lon="9.401306939215523"><ele>70.6</ele><time>2026-03-29T13:38:37.001Z</time></trkpt><trkpt lat="45.15620246314425" lon="9.401347243146185"><ele>70.8</ele><time>2026-03-29T13:38:38.001Z</time></trkpt><trkpt lat="45.15631958551063" lon="9.401362631488492"><ele>71.0</ele><time>2026-03-29T13:38:39.001Z</time></trkpt><trkpt lat="45.15641743297336" lon="9.401364884728416"><ele>71.0</ele><time>2026-03-29T13:38:40.001Z</time></trkpt><trkpt lat="45.15651600366987" lon="9.401367604618157"><ele>71.0</ele><time>2026-03-29T13:38:41.001Z</time></trkpt><trkpt lat="45.15661989370921" lon="9.40136962537718"><ele>71.0</ele><time>2026-03-29T13:38:42.001Z</time></trkpt><trkpt lat="45.1567181486392" lon="9.40136962537543"><ele>71.0</ele><time>2026-03-29T13:38:43.001Z</time></trkpt><trkpt lat="45.156817949098205" lon="9.401369627347757"><ele>71.0</ele><time>2026-03-29T13:38:44.001Z</time></trkpt><trkpt lat="45.15691727531063" lon="9.401369627347792"><ele>71.0</ele><time>2026-03-29T13:38:45.001Z</time></trkpt><trkpt lat="45.15701434388873" lon="9.401371360275574"><ele>71.0</ele><time>2026-03-29T13:38:46.001Z</time></trkpt><trkpt lat="45.157101451707554" lon="9.401372950051448"><ele>71.0</ele><time>2026-03-29T13:38:47.001Z</time></trkpt><trkpt lat="45.15717921335899" lon="9.401374369256288"><ele>71.0</ele><time>2026-03-29T13:38:48.001Z</time></trkpt><trkpt lat="45.15724659670115" lon="9.401373176690603"><ele>71.0</ele><time>2026-03-29T13:38:49.001Z</time></trkpt><trkpt lat="45.15730951394853" lon="9.401348164950704"><ele>71.0</ele><time>2026-03-29T13:38:50.001Z</time></trkpt><trkpt lat="45.157387227834434" lon="9.401366367513463"><ele>71.0</ele><time>2026-03-29T13:38:52.002Z</time></trkpt><trkpt lat="45.15744130774346" lon="9.401497997006405"><ele>71.0</ele><time>2026-03-29T13:38:56.002Z</time></trkpt><trkpt lat="45.15752529621979" lon="9.401479508204142"><ele>71.0</ele><time>2026-03-29T13:38:58.002Z</time></trkpt><trkpt lat="45.157602162250875" lon="9.401467914177507"><ele>71.0</ele><time>2026-03-29T13:38:59.002Z</time></trkpt><trkpt lat="45.157672814404684" lon="9.401460129658417"><ele>71.0</ele><time>2026-03-29T13:39:00.002Z</time></trkpt><trkpt lat="45.15774997228391" lon="9.401485193143237"><ele>71.0</ele><time>2026-03-29T13:39:01.002Z</time></trkpt><trkpt lat="45.15784147939888" lon="9.40148139729467"><ele>71.0</ele><time>2026-03-29T13:39:02.002Z</time></trkpt><trkpt lat="45.15794028716059" lon="9.401477298598849"><ele>71.0</ele><time>2026-03-29T13:39:03.002Z</time></trkpt><trkpt lat="45.15804421990444" lon="9.401472987316524"><ele>71.0</ele><time>2026-03-29T13:39:04.002Z</time></trkpt><trkpt lat="45.158147748076296" lon="9.401448918211727"><ele>71.0</ele><time>2026-03-29T13:39:05.002Z</time></trkpt><trkpt lat="45.15824964950324" lon="9.40145517178454"><ele>71.0</ele><time>2026-03-29T13:39:06.002Z</time></trkpt><trkpt lat="45.15836451958486" lon="9.401441840296648"><ele>70.5</ele><time>2026-03-29T13:39:07.002Z</time></trkpt><trkpt lat="45.15849193994476" lon="9.401436438871704"><ele>70.0</ele><time>2026-03-29T13:39:08.002Z</time></trkpt><trkpt lat="45.15862523407041" lon="9.401429841633522"><ele>69.5</ele><time>2026-03-29T13:39:09.002Z</time></trkpt><trkpt lat="45.15876306381491" lon="9.401423104272762"><ele>69.0</ele><time>2026-03-29T13:39:10.002Z</time></trkpt><trkpt lat="45.15889591920458" lon="9.401416960237372"><ele>69.0</ele><time>2026-03-29T13:39:11.002Z</time></trkpt><trkpt lat="45.1590318329216" lon="9.401414846483084"><ele>69.0</ele><time>2026-03-29T13:39:12.002Z</time></trkpt><trkpt lat="45.15916588211149" lon="9.401406390481785"><ele>69.0</ele><time>2026-03-29T13:39:13.002Z</time></trkpt><trkpt lat="45.15928714963854" lon="9.401398794513312"><ele>69.0</ele><time>2026-03-29T13:39:14.002Z</time></trkpt><trkpt lat="45.15939603176091" lon="9.401405732808628"><ele>68.60000000000001</ele><time>2026-03-29T13:39:15.002Z</time></trkpt><trkpt lat="45.15949153796481" lon="9.401393608122415"><ele>68.2</ele><time>2026-03-29T13:39:16.002Z</time></trkpt><trkpt lat="45.15956455032381" lon="9.401386766401341"><ele>67.80000000000001</ele><time>2026-03-29T13:39:17.002Z</time></trkpt><trkpt lat="45.15963728914146" lon="9.401370603532975"><ele>67.4</ele><time>2026-03-29T13:39:19.002Z</time></trkpt><trkpt lat="45.159734849764774" lon="9.401370649516984"><ele>67.0</ele><time>2026-03-29T13:39:26.003Z</time></trkpt><trkpt lat="45.15985622923298" lon="9.401362231584079"><ele>67.14285714285714</ele><time>2026-03-29T13:39:28.003Z</time></trkpt><trkpt lat="45.15993279118753" lon="9.401349193369697"><ele>67.28571428571428</ele><time>2026-03-29T13:39:29.003Z</time></trkpt><trkpt lat="45.160005794663434" lon="9.401326568725214"><ele>67.42857142857142</ele><time>2026-03-29T13:39:30.003Z</time></trkpt><trkpt lat="45.16006965110156" lon="9.401308616004203"><ele>67.57142857142857</ele><time>2026-03-29T13:39:31.003Z</time></trkpt><trkpt lat="45.160142151914" lon="9.401291168723908"><ele>67.71428571428571</ele><time>2026-03-29T13:39:32.003Z</time></trkpt><trkpt lat="45.16021190605011" lon="9.401271830081786"><ele>67.85714285714285</ele><time>2026-03-29T13:39:33.003Z</time></trkpt><trkpt lat="45.160277133935" lon="9.401248892998112"><ele>68.0</ele><time>2026-03-29T13:39:34.003Z</time></trkpt><trkpt lat="45.160341451308604" lon="9.401252261013802"><ele>68.0</ele><time>2026-03-29T13:39:35.003Z</time></trkpt><trkpt lat="45.16043040776829" lon="9.401246602715782"><ele>68.0</ele><time>2026-03-29T13:39:37.003Z</time></trkpt><trkpt lat="45.16052053577137" lon="9.401285654301487"><ele>68.0</ele><time>2026-03-29T13:42:18.001Z</time></trkpt><trkpt lat="45.160589226768614" lon="9.401301502736834"><ele>68.0</ele><time>2026-03-29T13:42:20.001Z</time></trkpt><trkpt lat="45.160656541654156" lon="9.401310260405593"><ele>68.0</ele><time>2026-03-29T13:42:22.001Z</time></trkpt><trkpt lat="45.16074486770344" lon="9.401309680347714"><ele>68.0</ele><time>2026-03-29T13:42:25.001Z</time></trkpt><trkpt lat="45.160821755141214" lon="9.401319345613393"><ele>68.0</ele><time>2026-03-29T13:42:28.001Z</time></trkpt><trkpt lat="45.160935591232096" lon="9.401318727888704"><ele>68.0</ele><time>2026-03-29T13:42:51.001Z</time></trkpt><trkpt lat="45.161060794684076" lon="9.40134220659773"><ele>68.0</ele><time>2026-03-29T13:42:53.001Z</time></trkpt><trkpt lat="45.161132482459486" lon="9.401346685944963"><ele>68.0</ele><time>2026-03-29T13:42:54.001Z</time></trkpt><trkpt lat="45.16121268526469" lon="9.40135662057162"><ele>68.0</ele><time>2026-03-29T13:42:55.001Z</time></trkpt><trkpt lat="45.1612908691677" lon="9.401370464467886"><ele>68.0</ele><time>2026-03-29T13:42:56.001Z</time></trkpt><trkpt lat="45.16136124736396" lon="9.401385224044411"><ele>68.0</ele><time>2026-03-29T13:42:57.001Z</time></trkpt><trkpt lat="45.16143217047247" lon="9.401404885294948"><ele>68.0</ele><time>2026-03-29T13:42:58.001Z</time></trkpt><trkpt lat="45.16150462006123" lon="9.401419344302926"><ele>68.0</ele><time>2026-03-29T13:42:59.001Z</time></trkpt><trkpt lat="45.161582192300095" lon="9.401434067876993"><ele>68.0</ele><time>2026-03-29T13:43:00.001Z</time></trkpt><trkpt lat="45.16165805609361" lon="9.401452465696519"><ele>68.0</ele><time>2026-03-29T13:43:01.001Z</time></trkpt><trkpt lat="45.16176616102905" lon="9.401475840312186"><ele>67.8</ele><time>2026-03-29T13:43:03.001Z</time></trkpt><trkpt lat="45.16188441281575" lon="9.401508691453905"><ele>67.6</ele><time>2026-03-29T13:43:05.001Z</time></trkpt><trkpt lat="45.16196524416169" lon="9.401548542343287"><ele>67.4</ele><time>2026-03-29T13:43:06.001Z</time></trkpt><trkpt lat="45.16206805403414" lon="9.40159185106756"><ele>67.2</ele><time>2026-03-29T13:43:07.001Z</time></trkpt><trkpt lat="45.162187811901866" lon="9.401618981248713"><ele>67.0</ele><time>2026-03-29T13:43:08.001Z</time></trkpt><trkpt lat="45.16230699041674" lon="9.40163690617264"><ele>67.5</ele><time>2026-03-29T13:43:09.001Z</time></trkpt><trkpt lat="45.16242983374391" lon="9.40165780118793"><ele>68.0</ele><time>2026-03-29T13:43:10.001Z</time></trkpt><trkpt lat="45.162559268055084" lon="9.401682179841824"><ele>68.5</ele><time>2026-03-29T13:43:11.001Z</time></trkpt><trkpt lat="45.162695050686835" lon="9.401711831228884"><ele>69.0</ele><time>2026-03-29T13:43:12.001Z</time></trkpt><trkpt lat="45.16282678879389" lon="9.4017427705817"><ele>69.0</ele><time>2026-03-29T13:43:13.001Z</time></trkpt><trkpt lat="45.162956344606705" lon="9.401774304413353"><ele>69.0</ele><time>2026-03-29T13:43:14.001Z</time></trkpt><trkpt lat="45.16308310387502" lon="9.401802427001346"><ele>69.0</ele><time>2026-03-29T13:43:15.001Z</time></trkpt><trkpt lat="45.163198876783234" lon="9.401827338140055"><ele>69.0</ele><time>2026-03-29T13:43:16.001Z</time></trkpt><trkpt lat="45.163306143485165" lon="9.401854260941551"><ele>69.0</ele><time>2026-03-29T13:43:17.001Z</time></trkpt><trkpt lat="45.16340960225043" lon="9.401886654201059"><ele>69.0</ele><time>2026-03-29T13:43:18.001Z</time></trkpt><trkpt lat="45.163514686355036" lon="9.401910122133659"><ele>69.0</ele><time>2026-03-29T13:43:19.001Z</time></trkpt><trkpt lat="45.16361655367511" lon="9.401925993466817"><ele>69.0</ele><time>2026-03-29T13:43:20.001Z</time></trkpt><trkpt lat="45.16370591313341" lon="9.40194233830946"><ele>69.0</ele><time>2026-03-29T13:43:21.001Z</time></trkpt><trkpt lat="45.163798678398685" lon="9.401964484528245"><ele>69.0</ele><time>2026-03-29T13:43:22.001Z</time></trkpt><trkpt lat="45.163890002452554" lon="9.401989051412869"><ele>69.0</ele><time>2026-03-29T13:43:23.001Z</time></trkpt><trkpt lat="45.16397624925401" lon="9.402004785432611"><ele>69.0</ele><time>2026-03-29T13:43:24.001Z</time></trkpt><trkpt lat="45.16406287047953" lon="9.402024295632216"><ele>69.0</ele><time>2026-03-29T13:43:25.001Z</time></trkpt><trkpt lat="45.164143395525265" lon="9.402045452227958"><ele>69.0</ele><time>2026-03-29T13:43:26.001Z</time></trkpt><trkpt lat="45.16421587672803" lon="9.40206215404286"><ele>69.0</ele><time>2026-03-29T13:43:27.001Z</time></trkpt><trkpt lat="45.16428327739517" lon="9.402074865519275"><ele>69.2</ele><time>2026-03-29T13:43:28.001Z</time></trkpt><trkpt lat="45.1643749569161" lon="9.40210684961849"><ele>69.4</ele><time>2026-03-29T13:43:30.001Z</time></trkpt><trkpt lat="45.16444346435265" lon="9.40197788252453"><ele>69.6</ele><time>2026-03-29T13:43:32.001Z</time></trkpt><trkpt lat="45.16445721707268" lon="9.401828319612726"><ele>69.8</ele><time>2026-03-29T13:43:34.001Z</time></trkpt><trkpt lat="45.16446312935192" lon="9.401695300825425"><ele>70.0</ele><time>2026-03-29T13:43:35.001Z</time></trkpt><trkpt lat="45.164478625599806" lon="9.401515070518176"><ele>69.6</ele><time>2026-03-29T13:43:36.001Z</time></trkpt><trkpt lat="45.16448638855553" lon="9.401323178661453"><ele>69.2</ele><time>2026-03-29T13:43:37.001Z</time></trkpt><trkpt lat="45.16450880092613" lon="9.401193197808361"><ele>68.8</ele><time>2026-03-29T13:43:38.001Z</time></trkpt><trkpt lat="45.1645086200831" lon="9.401087132866872"><ele>68.4</ele><time>2026-03-29T13:43:39.001Z</time></trkpt><trkpt lat="45.16451860655601" lon="9.400974320263805"><ele>68.0</ele><time>2026-03-29T13:43:40.001Z</time></trkpt><trkpt lat="45.16452948687626" lon="9.400857808280199"><ele>68.0</ele><time>2026-03-29T13:43:41.001Z</time></trkpt><trkpt lat="45.1645346858594" lon="9.400745002927042"><ele>68.0</ele><time>2026-03-29T13:43:42.001Z</time></trkpt><trkpt lat="45.16454577902802" lon="9.400645598667547"><ele>68.0</ele><time>2026-03-29T13:43:43.001Z</time></trkpt><trkpt lat="45.1645265156526" lon="9.40055035170378"><ele>68.0</ele><time>2026-03-29T13:43:44.001Z</time></trkpt><trkpt lat="45.16448147578129" lon="9.400472215070053"><ele>68.0</ele><time>2026-03-29T13:43:45.001Z</time></trkpt><trkpt lat="45.16445215988303" lon="9.40033776828372"><ele>68.0</ele><time>2026-03-29T13:43:47.001Z</time></trkpt><trkpt lat="45.164517344271665" lon="9.400205860686505"><ele>68.0</ele><time>2026-03-29T13:43:49.001Z</time></trkpt><trkpt lat="45.16459897881945" lon="9.400261470689328"><ele>68.0</ele><time>2026-03-29T13:43:50.001Z</time></trkpt><trkpt lat="45.16465844352999" lon="9.400310947215715"><ele>68.0</ele><time>2026-03-29T13:43:51.001Z</time></trkpt><trkpt lat="45.16472931960463" lon="9.400327794778256"><ele>68.0</ele><time>2026-03-29T13:43:52.001Z</time></trkpt><trkpt lat="45.16484610412839" lon="9.400365959347123"><ele>68.0</ele><time>2026-03-29T13:43:54.001Z</time></trkpt><trkpt lat="45.164917255523086" lon="9.400448824154825"><ele>68.0</ele><time>2026-03-29T13:43:56.001Z</time></trkpt><trkpt lat="45.16486782644578" lon="9.400620586642473"><ele>68.0</ele><time>2026-03-29T13:43:58.001Z</time></trkpt><trkpt lat="45.164866360346004" lon="9.400740036355632"><ele>68.0</ele><time>2026-03-29T13:43:59.001Z</time></trkpt><trkpt lat="45.16483713536879" lon="9.400886370661492"><ele>68.0</ele><time>2026-03-29T13:44:00.001Z</time></trkpt><trkpt lat="45.16481452024889" lon="9.401041783316568"><ele>68.0</ele><time>2026-03-29T13:44:01.001Z</time></trkpt><trkpt lat="45.164791936841304" lon="9.401184896802457"><ele>68.0</ele><time>2026-03-29T13:44:02.001Z</time></trkpt><trkpt lat="45.16475886020406" lon="9.401302276343817"><ele>68.4</ele><time>2026-03-29T13:44:03.001Z</time></trkpt><trkpt lat="45.16475763929918" lon="9.401438398926052"><ele>68.8</ele><time>2026-03-29T13:44:04.001Z</time></trkpt><trkpt lat="45.164755815547664" lon="9.401570392812058"><ele>69.2</ele><time>2026-03-29T13:44:05.001Z</time></trkpt><trkpt lat="45.16480739660069" lon="9.40170043286318"><ele>69.6</ele><time>2026-03-29T13:44:06.001Z</time></trkpt><trkpt lat="45.16482534102563" lon="9.401839519995269"><ele>70.0</ele><time>2026-03-29T13:44:06.998Z</time></trkpt><trkpt lat="45.16485535450284" lon="9.401967862307503"><ele>69.75</ele><time>2026-03-29T13:44:07.998Z</time></trkpt><trkpt lat="45.16487751128236" lon="9.402061247642596"><ele>69.5</ele><time>2026-03-29T13:44:08.998Z</time></trkpt><trkpt lat="45.164914690225004" lon="9.402197200156568"><ele>69.25</ele><time>2026-03-29T13:44:10.998Z</time></trkpt><trkpt lat="45.16515614383232" lon="9.402148461516196"><ele>69.0</ele><time>2026-03-29T13:44:13.999Z</time></trkpt><trkpt lat="45.16526753204227" lon="9.402118418407941"><ele>69.0</ele><time>2026-03-29T13:44:14.999Z</time></trkpt><trkpt lat="45.16538652071878" lon="9.402091492362278"><ele>69.0</ele><time>2026-03-29T13:44:15.999Z</time></trkpt><trkpt lat="45.16550010080692" lon="9.402074221093773"><ele>69.0</ele><time>2026-03-29T13:44:16.999Z</time></trkpt><trkpt lat="45.16560557527757" lon="9.402055976057817"><ele>69.0</ele><time>2026-03-29T13:44:17.999Z</time></trkpt><trkpt lat="45.16569351664479" lon="9.402039132956034"><ele>69.0</ele><time>2026-03-29T13:44:18.999Z</time></trkpt><trkpt lat="45.16578735175748" lon="9.402029890760687"><ele>68.75</ele><time>2026-03-29T13:44:19.999Z</time></trkpt><trkpt lat="45.16589148816032" lon="9.402038888564832"><ele>68.5</ele><time>2026-03-29T13:44:20.999Z</time></trkpt><trkpt lat="45.16600432988338" lon="9.402072737760932"><ele>68.25</ele><time>2026-03-29T13:44:21.999Z</time></trkpt><trkpt lat="45.166122814188704" lon="9.402118443232593"><ele>68.0</ele><time>2026-03-29T13:44:22.999Z</time></trkpt><trkpt lat="45.166251861957306" lon="9.402163360233235"><ele>68.0</ele><time>2026-03-29T13:44:23.999Z</time></trkpt><trkpt lat="45.16637997081751" lon="9.402205862750588"><ele>68.0</ele><time>2026-03-29T13:44:24.999Z</time></trkpt><trkpt lat="45.16651110429632" lon="9.40224889402824"><ele>68.0</ele><time>2026-03-29T13:44:25.999Z</time></trkpt><trkpt lat="45.16663876294517" lon="9.40228960825007"><ele>68.0</ele><time>2026-03-29T13:44:26.999Z</time></trkpt><trkpt lat="45.16676948535478" lon="9.402328007375129"><ele>68.0</ele><time>2026-03-29T13:44:27.999Z</time></trkpt><trkpt lat="45.16689648974431" lon="9.402362031909547"><ele>68.0</ele><time>2026-03-29T13:44:28.999Z</time></trkpt><trkpt lat="45.167017329846914" lon="9.40239104833739"><ele>68.0</ele><time>2026-03-29T13:44:29.999Z</time></trkpt><trkpt lat="45.167131384642005" lon="9.40241695586622"><ele>68.0</ele><time>2026-03-29T13:44:30.999Z</time></trkpt><trkpt lat="45.167248143068036" lon="9.402447952680207"><ele>67.75</ele><time>2026-03-29T13:44:32Z</time></trkpt><trkpt lat="45.167373007390815" lon="9.402484111485379"><ele>67.5</ele><time>2026-03-29T13:44:33Z</time></trkpt><trkpt lat="45.16749787640201" lon="9.402518469298222"><ele>67.25</ele><time>2026-03-29T13:44:34Z</time></trkpt><trkpt lat="45.167621952220195" lon="9.402550356111098"><ele>67.0</ele><time>2026-03-29T13:44:35Z</time></trkpt><trkpt lat="45.16775074297009" lon="9.402582923910435"><ele>67.0</ele><time>2026-03-29T13:44:36Z</time></trkpt><trkpt lat="45.16787102039297" lon="9.402615192792215"><ele>67.0</ele><time>2026-03-29T13:44:37Z</time></trkpt><trkpt lat="45.16799788208045" lon="9.402647305729001"><ele>67.0</ele><time>2026-03-29T13:44:38Z</time></trkpt><trkpt lat="45.16811345278957" lon="9.40267773372078"><ele>67.0</ele><time>2026-03-29T13:44:39Z</time></trkpt><trkpt lat="45.168220173320336" lon="9.402704307461185"><ele>67.16666666666666</ele><time>2026-03-29T13:44:40Z</time></trkpt><trkpt lat="45.168322547478226" lon="9.40273093537144"><ele>67.33333333333333</ele><time>2026-03-29T13:44:41Z</time></trkpt><trkpt lat="45.16840570105091" lon="9.402750276542356"><ele>67.5</ele><time>2026-03-29T13:44:42Z</time></trkpt><trkpt lat="45.168478058060906" lon="9.402767656920586"><ele>67.66666666666667</ele><time>2026-03-29T13:44:43Z</time></trkpt><trkpt lat="45.16857991492957" lon="9.40278728565579"><ele>67.83333333333334</ele><time>2026-03-29T13:44:45Z</time></trkpt><trkpt lat="45.16865895015663" lon="9.402749494819039"><ele>68.0</ele><time>2026-03-29T13:44:48Z</time></trkpt><trkpt lat="45.16868751283684" lon="9.402602258326844"><ele>68.0</ele><time>2026-03-29T13:44:50Z</time></trkpt><trkpt lat="45.16868372523944" lon="9.402498132463272"><ele>68.0</ele><time>2026-03-29T13:44:51Z</time></trkpt><trkpt lat="45.16867658195978" lon="9.402364932253464"><ele>68.0</ele><time>2026-03-29T13:44:52Z</time></trkpt><trkpt lat="45.16868645003534" lon="9.402191262565083"><ele>68.0</ele><time>2026-03-29T13:44:53Z</time></trkpt><trkpt lat="45.16870617773233" lon="9.401989136646602"><ele>68.0</ele><time>2026-03-29T13:44:54Z</time></trkpt><trkpt lat="45.168724223420824" lon="9.401797168947668"><ele>68.0</ele><time>2026-03-29T13:44:55Z</time></trkpt><trkpt lat="45.168737386922245" lon="9.401637857032895"><ele>68.0</ele><time>2026-03-29T13:44:56Z</time></trkpt><trkpt lat="45.16874990722119" lon="9.40148667304351"><ele>68.0</ele><time>2026-03-29T13:44:57Z</time></trkpt><trkpt lat="45.168760598478244" lon="9.401352066552837"><ele>68.0</ele><time>2026-03-29T13:44:58Z</time></trkpt><trkpt lat="45.168767211472364" lon="9.401237783985518"><ele>68.0</ele><time>2026-03-29T13:44:59Z</time></trkpt><trkpt lat="45.16877299074267" lon="9.401135159472535"><ele>68.0</ele><time>2026-03-29T13:45:00Z</time></trkpt><trkpt lat="45.16878107587094" lon="9.401043538475527"><ele>68.0</ele><time>2026-03-29T13:45:01Z</time></trkpt><trkpt lat="45.168835133045924" lon="9.400945425524906"><ele>68.0</ele><time>2026-03-29T13:45:03Z</time></trkpt><trkpt lat="45.16893356413878" lon="9.400943001046468"><ele>68.0</ele><time>2026-03-29T13:45:05.001Z</time></trkpt><trkpt lat="45.168999379142555" lon="9.400970850336536"><ele>68.0</ele><time>2026-03-29T13:45:06.001Z</time></trkpt><trkpt lat="45.16908159353574" lon="9.40100695458936"><ele>68.0</ele><time>2026-03-29T13:45:07.001Z</time></trkpt><trkpt lat="45.169175674907805" lon="9.401041818676752"><ele>68.4</ele><time>2026-03-29T13:45:08.001Z</time></trkpt><trkpt lat="45.16926503889871" lon="9.401067560141751"><ele>68.8</ele><time>2026-03-29T13:45:09.001Z</time></trkpt><trkpt lat="45.1693642777736" lon="9.401097314319962"><ele>69.2</ele><time>2026-03-29T13:45:10.001Z</time></trkpt><trkpt lat="45.16945828652071" lon="9.401127484641524"><ele>69.6</ele><time>2026-03-29T13:45:11.001Z</time></trkpt><trkpt lat="45.1695450842714" lon="9.40115448218069"><ele>70.0</ele><time>2026-03-29T13:45:12.001Z</time></trkpt><trkpt lat="45.16964368435535" lon="9.401195245345754"><ele>70.0</ele><time>2026-03-29T13:45:13.001Z</time></trkpt><trkpt lat="45.16973450889603" lon="9.40124652620309"><ele>70.0</ele><time>2026-03-29T13:45:14.001Z</time></trkpt><trkpt lat="45.16982179859655" lon="9.401306460705456"><ele>70.0</ele><time>2026-03-29T13:45:15.001Z</time></trkpt><trkpt lat="45.16990929523472" lon="9.401378638141193"><ele>70.0</ele><time>2026-03-29T13:45:16.001Z</time></trkpt><trkpt lat="45.16999658709843" lon="9.401450838799212"><ele>70.0</ele><time>2026-03-29T13:45:17.001Z</time></trkpt><trkpt lat="45.17008086390699" lon="9.401522377335738"><ele>69.6</ele><time>2026-03-29T13:45:18.001Z</time></trkpt><trkpt lat="45.17016773434255" lon="9.401595509803427"><ele>69.2</ele><time>2026-03-29T13:45:19.001Z</time></trkpt><trkpt lat="45.17024944327515" lon="9.401653023194838"><ele>68.8</ele><time>2026-03-29T13:45:20.001Z</time></trkpt><trkpt lat="45.17034537309917" lon="9.401713496629476"><ele>68.4</ele><time>2026-03-29T13:45:21.001Z</time></trkpt><trkpt lat="45.17044195979422" lon="9.40175195731933"><ele>68.0</ele><time>2026-03-29T13:45:22.001Z</time></trkpt><trkpt lat="45.170556065098545" lon="9.401783738439804"><ele>68.0</ele><time>2026-03-29T13:45:23.001Z</time></trkpt><trkpt lat="45.17067847798097" lon="9.401813583827785"><ele>68.0</ele><time>2026-03-29T13:45:24.001Z</time></trkpt><trkpt lat="45.17079137130884" lon="9.401837254281098"><ele>68.0</ele><time>2026-03-29T13:45:25.001Z</time></trkpt><trkpt lat="45.17090338678292" lon="9.40186582590736"><ele>68.0</ele><time>2026-03-29T13:45:26.001Z</time></trkpt><trkpt lat="45.171010553069486" lon="9.401897177943047"><ele>67.75</ele><time>2026-03-29T13:45:27.001Z</time></trkpt><trkpt lat="45.17112393305858" lon="9.401927053144396"><ele>67.5</ele><time>2026-03-29T13:45:28.001Z</time></trkpt><trkpt lat="45.171250915032466" lon="9.401960950654608"><ele>67.25</ele><time>2026-03-29T13:45:29.001Z</time></trkpt><trkpt lat="45.171384331805776" lon="9.401996042833465"><ele>67.0</ele><time>2026-03-29T13:45:30.001Z</time></trkpt><trkpt lat="45.17151715744928" lon="9.402033938546369"><ele>67.25</ele><time>2026-03-29T13:45:31.001Z</time></trkpt><trkpt lat="45.17165172950252" lon="9.402073392327543"><ele>67.5</ele><time>2026-03-29T13:45:32.001Z</time></trkpt><trkpt lat="45.17178485995577" lon="9.402111691117957"><ele>67.75</ele><time>2026-03-29T13:45:33.001Z</time></trkpt><trkpt lat="45.17191659940643" lon="9.402151363647015"><ele>68.0</ele><time>2026-03-29T13:45:34.001Z</time></trkpt><trkpt lat="45.172048334101696" lon="9.40218861274404"><ele>68.0</ele><time>2026-03-29T13:45:35.001Z</time></trkpt><trkpt lat="45.172172059098706" lon="9.402225132954886"><ele>68.0</ele><time>2026-03-29T13:45:36.001Z</time></trkpt><trkpt lat="45.172286959067314" lon="9.402260260220501"><ele>68.0</ele><time>2026-03-29T13:45:37.001Z</time></trkpt><trkpt lat="45.17239052021086" lon="9.402290424252557"><ele>68.0</ele><time>2026-03-29T13:45:38.001Z</time></trkpt><trkpt lat="45.17248997080503" lon="9.402317599032727"><ele>68.16666666666667</ele><time>2026-03-29T13:45:39.001Z</time></trkpt><trkpt lat="45.172574619820935" lon="9.402338333497083"><ele>68.33333333333334</ele><time>2026-03-29T13:45:40.001Z</time></trkpt><trkpt lat="45.17265464388478" lon="9.402363372065453"><ele>68.5</ele><time>2026-03-29T13:45:41.001Z</time></trkpt><trkpt lat="45.172728067609235" lon="9.402381981682614"><ele>68.66666666666667</ele><time>2026-03-29T13:45:42.001Z</time></trkpt><trkpt lat="45.17283394701805" lon="9.402393044363434"><ele>68.83333333333333</ele><time>2026-03-29T13:45:44.001Z</time></trkpt><trkpt lat="45.17290883634426" lon="9.402367963221208"><ele>69.0</ele><time>2026-03-29T13:45:46.001Z</time></trkpt><trkpt lat="45.17297782230326" lon="9.402378074651587"><ele>69.0</ele><time>2026-03-29T13:45:48.001Z</time></trkpt><trkpt lat="45.17310080572591" lon="9.40241206024993"><ele>69.0</ele><time>2026-03-29T13:45:50.001Z</time></trkpt><trkpt lat="45.17317502047721" lon="9.402455674118672"><ele>69.0</ele><time>2026-03-29T13:45:51.001Z</time></trkpt><trkpt lat="45.17325186811266" lon="9.402455088450669"><ele>69.0</ele><time>2026-03-29T13:45:52.001Z</time></trkpt><trkpt lat="45.17333813162674" lon="9.40247572912265"><ele>69.0</ele><time>2026-03-29T13:45:53.001Z</time></trkpt><trkpt lat="45.173423559834994" lon="9.40248747800843"><ele>68.8</ele><time>2026-03-29T13:45:54.001Z</time></trkpt><trkpt lat="45.17351474852073" lon="9.402522395199837"><ele>68.60000000000001</ele><time>2026-03-29T13:45:55.002Z</time></trkpt><trkpt lat="45.173618032136986" lon="9.4025233429014"><ele>68.4</ele><time>2026-03-29T13:45:56.002Z</time></trkpt><trkpt lat="45.17372629410532" lon="9.402548412081426"><ele>68.2</ele><time>2026-03-29T13:45:57.002Z</time></trkpt><trkpt lat="45.17382765405061" lon="9.402564867554258"><ele>68.0</ele><time>2026-03-29T13:45:58.002Z</time></trkpt><trkpt lat="45.17391446652421" lon="9.40258702305515"><ele>68.0</ele><time>2026-03-29T13:45:59.002Z</time></trkpt><trkpt lat="45.17399933327571" lon="9.402602979190505"><ele>68.0</ele><time>2026-03-29T13:46:00.002Z</time></trkpt><trkpt lat="45.17408290291807" lon="9.402619643633054"><ele>68.0</ele><time>2026-03-29T13:46:01.002Z</time></trkpt><trkpt lat="45.1741628267563" lon="9.402658686395162"><ele>68.0</ele><time>2026-03-29T13:46:02.002Z</time></trkpt><trkpt lat="45.17424970946433" lon="9.402656312379742"><ele>68.0</ele><time>2026-03-29T13:46:03.002Z</time></trkpt><trkpt lat="45.1743320112659" lon="9.402671414246933"><ele>68.0</ele><time>2026-03-29T13:46:04.002Z</time></trkpt><trkpt lat="45.17441267165127" lon="9.402682085698725"><ele>68.0</ele><time>2026-03-29T13:46:05.002Z</time></trkpt><trkpt lat="45.17450614137162" lon="9.402700512883635"><ele>68.0</ele><time>2026-03-29T13:46:06.002Z</time></trkpt><trkpt lat="45.174594087637374" lon="9.402722265519389"><ele>68.0</ele><time>2026-03-29T13:46:07.002Z</time></trkpt><trkpt lat="45.174668100275916" lon="9.402735080957035"><ele>68.0</ele><time>2026-03-29T13:46:08.002Z</time></trkpt><trkpt lat="45.17474747619517" lon="9.40275170305916"><ele>68.0</ele><time>2026-03-29T13:46:09.002Z</time></trkpt><trkpt lat="45.17482987679949" lon="9.402772223633326"><ele>68.0</ele><time>2026-03-29T13:46:10.002Z</time></trkpt><trkpt lat="45.17490022734662" lon="9.402778765606165"><ele>68.16666666666667</ele><time>2026-03-29T13:46:11.002Z</time></trkpt><trkpt lat="45.174993658534405" lon="9.402794104769722"><ele>68.33333333333334</ele><time>2026-03-29T13:46:12.998Z</time></trkpt><trkpt lat="45.17505839634542" lon="9.402802905509796"><ele>68.5</ele><time>2026-03-29T13:46:15.998Z</time></trkpt><trkpt lat="45.17510235168622" lon="9.40263562661628"><ele>68.66666666666667</ele><time>2026-03-29T13:46:16.998Z</time></trkpt><trkpt lat="45.17511427136866" lon="9.40253844249822"><ele>68.83333333333333</ele><time>2026-03-29T13:46:17.998Z</time></trkpt><trkpt lat="45.17512927284679" lon="9.402405562439025"><ele>69.0</ele><time>2026-03-29T13:46:18.998Z</time></trkpt><trkpt lat="45.17514851701562" lon="9.402247627621875"><ele>68.5</ele><time>2026-03-29T13:46:19.998Z</time></trkpt><trkpt lat="45.1751512111418" lon="9.402097250862179"><ele>68.0</ele><time>2026-03-29T13:46:20.998Z</time></trkpt><trkpt lat="45.17518656047075" lon="9.401944439706414"><ele>67.5</ele><time>2026-03-29T13:46:21.998Z</time></trkpt><trkpt lat="45.17521006818525" lon="9.401757094592092"><ele>67.0</ele><time>2026-03-29T13:46:22.998Z</time></trkpt><trkpt lat="45.17523572252139" lon="9.401552641980432"><ele>67.0</ele><time>2026-03-29T13:46:23.998Z</time></trkpt><trkpt lat="45.17526324713428" lon="9.401333284108365"><ele>67.0</ele><time>2026-03-29T13:46:24.998Z</time></trkpt><trkpt lat="45.175289866854186" lon="9.40112113784343"><ele>67.0</ele><time>2026-03-29T13:46:25.999Z</time></trkpt><trkpt lat="45.17531556350605" lon="9.400919503779898"><ele>67.0</ele><time>2026-03-29T13:46:26.999Z</time></trkpt><trkpt lat="45.17534332821329" lon="9.400704544963233"><ele>67.0</ele><time>2026-03-29T13:46:27.999Z</time></trkpt><trkpt lat="45.17537296780735" lon="9.400475070481336"><ele>67.0</ele><time>2026-03-29T13:46:28.999Z</time></trkpt><trkpt lat="45.17540161979143" lon="9.400248826238206"><ele>67.25</ele><time>2026-03-29T13:46:29.999Z</time></trkpt><trkpt lat="45.175427212897084" lon="9.400042510606895"><ele>67.5</ele><time>2026-03-29T13:46:30.999Z</time></trkpt><trkpt lat="45.17544960744337" lon="9.39986197974855"><ele>67.75</ele><time>2026-03-29T13:46:31.999Z</time></trkpt><trkpt lat="45.1754703192801" lon="9.399695013850817"><ele>68.0</ele><time>2026-03-29T13:46:32.999Z</time></trkpt><trkpt lat="45.17547544896858" lon="9.399521916226098"><ele>68.0</ele><time>2026-03-29T13:46:33.999Z</time></trkpt><trkpt lat="45.175495801684185" lon="9.399331386883581"><ele>68.0</ele><time>2026-03-29T13:46:34.999Z</time></trkpt><trkpt lat="45.17551447743341" lon="9.39913434902979"><ele>68.0</ele><time>2026-03-29T13:46:35.999Z</time></trkpt><trkpt lat="45.17553421003753" lon="9.398954294912707"><ele>68.0</ele><time>2026-03-29T13:46:36.999Z</time></trkpt><trkpt lat="45.175561654487545" lon="9.398762461276391"><ele>68.0</ele><time>2026-03-29T13:46:37.999Z</time></trkpt><trkpt lat="45.17561022187167" lon="9.398571100566414"><ele>68.0</ele><time>2026-03-29T13:46:38.999Z</time></trkpt><trkpt lat="45.175661424618205" lon="9.39837126637622"><ele>68.0</ele><time>2026-03-29T13:46:39.999Z</time></trkpt><trkpt lat="45.17570909987977" lon="9.398170483246954"><ele>68.0</ele><time>2026-03-29T13:46:40.999Z</time></trkpt><trkpt lat="45.175761507088154" lon="9.397940863022846"><ele>68.33333333333334</ele><time>2026-03-29T13:46:41.999Z</time></trkpt><trkpt lat="45.175806981323966" lon="9.397735763445937"><ele>68.66666666666667</ele><time>2026-03-29T13:46:43Z</time></trkpt><trkpt lat="45.17585938771" lon="9.397515044333176"><ele>69.0</ele><time>2026-03-29T13:46:44Z</time></trkpt><trkpt lat="45.17591319569784" lon="9.397291159529813"><ele>68.75</ele><time>2026-03-29T13:46:45Z</time></trkpt><trkpt lat="45.17596284178272" lon="9.397087077400792"><ele>68.5</ele><time>2026-03-29T13:46:46Z</time></trkpt><trkpt lat="45.176010418249476" lon="9.396902358382325"><ele>68.25</ele><time>2026-03-29T13:46:47Z</time></trkpt><trkpt lat="45.17606232965643" lon="9.396726142171316"><ele>68.0</ele><time>2026-03-29T13:46:48Z</time></trkpt><trkpt lat="45.176116523859335" lon="9.39655627844754"><ele>68.0</ele><time>2026-03-29T13:46:49Z</time></trkpt><trkpt lat="45.17616694478375" lon="9.396383448957122"><ele>68.0</ele><time>2026-03-29T13:46:50Z</time></trkpt><trkpt lat="45.17623111571309" lon="9.39621350139865"><ele>68.0</ele><time>2026-03-29T13:46:51Z</time></trkpt><trkpt lat="45.176279185103844" lon="9.396035824285203"><ele>68.0</ele><time>2026-03-29T13:46:52Z</time></trkpt><trkpt lat="45.176318166717415" lon="9.395862765728962"><ele>68.0</ele><time>2026-03-29T13:46:53Z</time></trkpt><trkpt lat="45.17632891256497" lon="9.39568121881119"><ele>68.0</ele><time>2026-03-29T13:46:54Z</time></trkpt><trkpt lat="45.17636703174499" lon="9.3955067692052"><ele>68.0</ele><time>2026-03-29T13:46:55Z</time></trkpt><trkpt lat="45.17636268529597" lon="9.395329639934795"><ele>68.0</ele><time>2026-03-29T13:46:56Z</time></trkpt><trkpt lat="45.17637372620381" lon="9.395143317945347"><ele>68.0</ele><time>2026-03-29T13:46:57Z</time></trkpt><trkpt lat="45.17639421472291" lon="9.39496304308989"><ele>68.0</ele><time>2026-03-29T13:46:58Z</time></trkpt><trkpt lat="45.17639774972567" lon="9.3947746752122"><ele>68.0</ele><time>2026-03-29T13:46:59Z</time></trkpt><trkpt lat="45.17642477317201" lon="9.394593007402968"><ele>68.0</ele><time>2026-03-29T13:47:00Z</time></trkpt><trkpt lat="45.176421171484876" lon="9.394401922013289"><ele>68.0</ele><time>2026-03-29T13:47:01Z</time></trkpt><trkpt lat="45.17644732635187" lon="9.394216727530488"><ele>68.0</ele><time>2026-03-29T13:47:02Z</time></trkpt><trkpt lat="45.176456124091985" lon="9.394037514307959"><ele>68.0</ele><time>2026-03-29T13:47:03Z</time></trkpt><trkpt lat="45.176449292576656" lon="9.393872273987705"><ele>68.0</ele><time>2026-03-29T13:47:04Z</time></trkpt><trkpt lat="45.17646798711657" lon="9.393715378658966"><ele>68.0</ele><time>2026-03-29T13:47:05Z</time></trkpt><trkpt lat="45.17645802596803" lon="9.39356594126567"><ele>68.0</ele><time>2026-03-29T13:47:06Z</time></trkpt><trkpt lat="45.1764627554531" lon="9.393432138009091"><ele>68.0</ele><time>2026-03-29T13:47:07Z</time></trkpt><trkpt lat="45.176480233618804" lon="9.393300759075418"><ele>68.0</ele><time>2026-03-29T13:47:08Z</time></trkpt><trkpt lat="45.176466884626954" lon="9.393180447536551"><ele>68.0</ele><time>2026-03-29T13:47:09Z</time></trkpt><trkpt lat="45.176470010977326" lon="9.3930695515151"><ele>68.0</ele><time>2026-03-29T13:47:10Z</time></trkpt><trkpt lat="45.176469451485104" lon="9.392971011671015"><ele>68.0</ele><time>2026-03-29T13:47:11Z</time></trkpt><trkpt lat="45.176460514091985" lon="9.392843073244816"><ele>68.0</ele><time>2026-03-29T13:47:13.001Z</time></trkpt><trkpt lat="45.17655073685768" lon="9.392766739788117"><ele>68.0</ele><time>2026-03-29T13:47:16.001Z</time></trkpt><trkpt lat="45.17662716959301" lon="9.39276263149629"><ele>68.0</ele><time>2026-03-29T13:47:17.001Z</time></trkpt><trkpt lat="45.17672375861117" lon="9.392759219931603"><ele>68.0</ele><time>2026-03-29T13:47:18.001Z</time></trkpt><trkpt lat="45.17682230434615" lon="9.39275305340121"><ele>68.0</ele><time>2026-03-29T13:47:19.001Z</time></trkpt><trkpt lat="45.17693823371814" lon="9.3927459111832"><ele>68.0</ele><time>2026-03-29T13:47:20.001Z</time></trkpt><trkpt lat="45.177069125728636" lon="9.392740857751058"><ele>68.0</ele><time>2026-03-29T13:47:21.001Z</time></trkpt><trkpt lat="45.177200853253844" lon="9.392740249467327"><ele>68.0</ele><time>2026-03-29T13:47:22.001Z</time></trkpt><trkpt lat="45.17732946711256" lon="9.39273747081569"><ele>68.0</ele><time>2026-03-29T13:47:23.001Z</time></trkpt><trkpt lat="45.17746583752835" lon="9.392737218678992"><ele>68.0</ele><time>2026-03-29T13:47:24.001Z</time></trkpt><trkpt lat="45.17761072939924" lon="9.392736423687781"><ele>68.0</ele><time>2026-03-29T13:47:25.001Z</time></trkpt><trkpt lat="45.17776568421262" lon="9.39273707552944"><ele>68.0</ele><time>2026-03-29T13:47:26.001Z</time></trkpt><trkpt lat="45.177939415016056" lon="9.392737136292146"><ele>68.0</ele><time>2026-03-29T13:47:27.001Z</time></trkpt><trkpt lat="45.17812155824032" lon="9.392734081340503"><ele>68.0</ele><time>2026-03-29T13:47:28.001Z</time></trkpt><trkpt lat="45.1782955581169" lon="9.392732515297483"><ele>68.0</ele><time>2026-03-29T13:47:29.001Z</time></trkpt><trkpt lat="45.1784664336226" lon="9.39272990749635"><ele>67.66666666666667</ele><time>2026-03-29T13:47:30.001Z</time></trkpt><trkpt lat="45.178644326499544" lon="9.392726673876492"><ele>67.33333333333333</ele><time>2026-03-29T13:47:31.001Z</time></trkpt><trkpt lat="45.17882483981954" lon="9.392721902213033"><ele>67.0</ele><time>2026-03-29T13:47:32.001Z</time></trkpt><trkpt lat="45.17899037672762" lon="9.392722964548868"><ele>67.25</ele><time>2026-03-29T13:47:33.001Z</time></trkpt><trkpt lat="45.17913816142751" lon="9.392738507066156"><ele>67.5</ele><time>2026-03-29T13:47:34.001Z</time></trkpt><trkpt lat="45.17927743180231" lon="9.392771069945427"><ele>67.75</ele><time>2026-03-29T13:47:35.001Z</time></trkpt><trkpt lat="45.17941786678175" lon="9.392821514810027"><ele>68.0</ele><time>2026-03-29T13:47:36.001Z</time></trkpt><trkpt lat="45.179570909683335" lon="9.392890296988487"><ele>68.0</ele><time>2026-03-29T13:47:37.001Z</time></trkpt><trkpt lat="45.179725139104015" lon="9.392987351763871"><ele>68.0</ele><time>2026-03-29T13:47:38.001Z</time></trkpt><trkpt lat="45.17987768207484" lon="9.393106982956635"><ele>68.0</ele><time>2026-03-29T13:47:39.001Z</time></trkpt><trkpt lat="45.18002444296607" lon="9.393250262083509"><ele>68.0</ele><time>2026-03-29T13:47:40.001Z</time></trkpt><trkpt lat="45.180176362001085" lon="9.393401323585762"><ele>68.0</ele><time>2026-03-29T13:47:41.001Z</time></trkpt><trkpt lat="45.1803212946492" lon="9.393545639862527"><ele>68.0</ele><time>2026-03-29T13:47:42.001Z</time></trkpt><trkpt lat="45.18046641229927" lon="9.393683166299615"><ele>68.0</ele><time>2026-03-29T13:47:43.001Z</time></trkpt><trkpt lat="45.1806097554188" lon="9.393809882926671"><ele>68.0</ele><time>2026-03-29T13:47:44.001Z</time></trkpt><trkpt lat="45.1807559946832" lon="9.39392931480566"><ele>68.0</ele><time>2026-03-29T13:47:45.001Z</time></trkpt><trkpt lat="45.180905955018844" lon="9.394037339377515"><ele>68.0</ele><time>2026-03-29T13:47:46.001Z</time></trkpt><trkpt lat="45.18106157235919" lon="9.394129044587002"><ele>68.0</ele><time>2026-03-29T13:47:47.001Z</time></trkpt><trkpt lat="45.18123054685044" lon="9.394192335690754"><ele>68.0</ele><time>2026-03-29T13:47:48.001Z</time></trkpt><trkpt lat="45.18140756925793" lon="9.394235373749071"><ele>68.0</ele><time>2026-03-29T13:47:49.001Z</time></trkpt><trkpt lat="45.1816016795038" lon="9.394269259778957"><ele>68.0</ele><time>2026-03-29T13:47:50.001Z</time></trkpt><trkpt lat="45.1818007724237" lon="9.394289912071752"><ele>68.0</ele><time>2026-03-29T13:47:51.002Z</time></trkpt><trkpt lat="45.181988848350784" lon="9.394307017487455"><ele>68.0</ele><time>2026-03-29T13:47:52.002Z</time></trkpt><trkpt lat="45.18217697465491" lon="9.394329463740128"><ele>68.0</ele><time>2026-03-29T13:47:53.002Z</time></trkpt><trkpt lat="45.18237032074446" lon="9.394351674288377"><ele>68.0</ele><time>2026-03-29T13:47:54.002Z</time></trkpt><trkpt lat="45.18257437220553" lon="9.394376214894073"><ele>68.0</ele><time>2026-03-29T13:47:55.002Z</time></trkpt><trkpt lat="45.18276613616438" lon="9.39439764075405"><ele>68.0</ele><time>2026-03-29T13:47:56.002Z</time></trkpt><trkpt lat="45.18297018340761" lon="9.394417806203377"><ele>68.0</ele><time>2026-03-29T13:47:57.002Z</time></trkpt><trkpt lat="45.18317603550249" lon="9.39443638309521"><ele>68.0</ele><time>2026-03-29T13:47:58.002Z</time></trkpt><trkpt lat="45.1833890479293" lon="9.394456983918593"><ele>68.0</ele><time>2026-03-29T13:47:59.002Z</time></trkpt><trkpt lat="45.18360643348248" lon="9.394474087884905"><ele>68.0</ele><time>2026-03-29T13:48:00.002Z</time></trkpt><trkpt lat="45.18382733609019" lon="9.394490919560191"><ele>67.66666666666667</ele><time>2026-03-29T13:48:01.002Z</time></trkpt><trkpt lat="45.184048861147005" lon="9.394515050765897"><ele>67.33333333333333</ele><time>2026-03-29T13:48:02.002Z</time></trkpt><trkpt lat="45.184266401473195" lon="9.394550645765172"><ele>67.0</ele><time>2026-03-29T13:48:03.002Z</time></trkpt><trkpt lat="45.18447864244056" lon="9.394599486378635"><ele>67.0</ele><time>2026-03-29T13:48:04.002Z</time></trkpt><trkpt lat="45.1846745623733" lon="9.394661588425782"><ele>67.0</ele><time>2026-03-29T13:48:05.002Z</time></trkpt><trkpt lat="45.18485968022361" lon="9.394720105593601"><ele>67.0</ele><time>2026-03-29T13:48:06.002Z</time></trkpt><trkpt lat="45.185031537937704" lon="9.394760721381644"><ele>67.0</ele><time>2026-03-29T13:48:07.002Z</time></trkpt><trkpt lat="45.18520160969724" lon="9.394778119132901"><ele>67.0</ele><time>2026-03-29T13:48:08.002Z</time></trkpt><trkpt lat="45.1853814069008" lon="9.394773920806827"><ele>67.0</ele><time>2026-03-29T13:48:09.002Z</time></trkpt><trkpt lat="45.18557260013719" lon="9.39474429369457"><ele>67.66666666666666</ele><time>2026-03-29T13:48:10.002Z</time></trkpt><trkpt lat="45.18575738677333" lon="9.39468475185107"><ele>68.33333333333333</ele><time>2026-03-29T13:48:11.002Z</time></trkpt><trkpt lat="45.185935881369204" lon="9.3946036505265"><ele>69.0</ele><time>2026-03-29T13:48:12.002Z</time></trkpt><trkpt lat="45.186098287474536" lon="9.394499249016265"><ele>69.66666666666667</ele><time>2026-03-29T13:48:13.002Z</time></trkpt><trkpt lat="45.186255922119166" lon="9.394369248297368"><ele>70.33333333333334</ele><time>2026-03-29T13:48:14.002Z</time></trkpt><trkpt lat="45.18640638322327" lon="9.394222389716925"><ele>71.0</ele><time>2026-03-29T13:48:15.002Z</time></trkpt><trkpt lat="45.18655538710985" lon="9.39405645687481"><ele>71.0</ele><time>2026-03-29T13:48:16.002Z</time></trkpt><trkpt lat="45.18670119865312" lon="9.393877639506913"><ele>71.0</ele><time>2026-03-29T13:48:17.002Z</time></trkpt><trkpt lat="45.18684597261805" lon="9.393702744257828"><ele>71.0</ele><time>2026-03-29T13:48:18.002Z</time></trkpt><trkpt lat="45.18698563911812" lon="9.393534344625946"><ele>71.66666666666667</ele><time>2026-03-29T13:48:18.998Z</time></trkpt><trkpt lat="45.18712448446029" lon="9.39337065865312"><ele>72.33333333333333</ele><time>2026-03-29T13:48:19.998Z</time></trkpt><trkpt lat="45.187253314390745" lon="9.393217884020059"><ele>73.0</ele><time>2026-03-29T13:48:20.998Z</time></trkpt><trkpt lat="45.187384493294445" lon="9.393062639286"><ele>73.33333333333333</ele><time>2026-03-29T13:48:21.998Z</time></trkpt><trkpt lat="45.18751778958822" lon="9.392908833852342"><ele>73.66666666666667</ele><time>2026-03-29T13:48:22.998Z</time></trkpt><trkpt lat="45.18764921176167" lon="9.392758480270583"><ele>74.0</ele><time>2026-03-29T13:48:23.998Z</time></trkpt><trkpt lat="45.187774595647014" lon="9.392612560837291"><ele>74.0</ele><time>2026-03-29T13:48:24.998Z</time></trkpt><trkpt lat="45.18789697349397" lon="9.392471683535039"><ele>74.0</ele><time>2026-03-29T13:48:25.998Z</time></trkpt><trkpt lat="45.18800798141208" lon="9.392338900100606"><ele>74.0</ele><time>2026-03-29T13:48:26.998Z</time></trkpt><trkpt lat="45.188121655554205" lon="9.392204412889908"><ele>74.60000000000001</ele><time>2026-03-29T13:48:27.998Z</time></trkpt><trkpt lat="45.18822455583555" lon="9.392082327657235"><ele>75.2</ele><time>2026-03-29T13:48:28.998Z</time></trkpt><trkpt lat="45.188314394516134" lon="9.391978362093512"><ele>75.80000000000001</ele><time>2026-03-29T13:48:29.998Z</time></trkpt><trkpt lat="45.18837954104416" lon="9.391904518866326"><ele>76.4</ele><time>2026-03-29T13:48:30.998Z</time></trkpt><trkpt lat="45.18844050241268" lon="9.391856307712896"><ele>77.0</ele><time>2026-03-29T13:48:32.998Z</time></trkpt><trkpt lat="45.18851987632044" lon="9.391832637566617"><ele>77.0</ele><time>2026-03-29T13:48:36.999Z</time></trkpt><trkpt lat="45.18863231243743" lon="9.391808271478892"><ele>77.0</ele><time>2026-03-29T13:48:38.999Z</time></trkpt><trkpt lat="45.188686098405334" lon="9.39176158460514"><ele>77.0</ele><time>2026-03-29T13:48:39.999Z</time></trkpt><trkpt lat="45.18873435169093" lon="9.391682829795144"><ele>77.0</ele><time>2026-03-29T13:48:40.999Z</time></trkpt><trkpt lat="45.18876660823667" lon="9.3915713502727"><ele>77.0</ele><time>2026-03-29T13:48:41.999Z</time></trkpt><trkpt lat="45.18875646554752" lon="9.391455745129742"><ele>77.0</ele><time>2026-03-29T13:48:42.999Z</time></trkpt><trkpt lat="45.18884990688313" lon="9.391334098684458"><ele>77.0</ele><time>2026-03-29T13:48:43.999Z</time></trkpt><trkpt lat="45.188930419743635" lon="9.391217333165788"><ele>77.0</ele><time>2026-03-29T13:48:44.999Z</time></trkpt><trkpt lat="45.189026480454636" lon="9.391113303288368"><ele>77.0</ele><time>2026-03-29T13:48:45.999Z</time></trkpt><trkpt lat="45.18912120217803" lon="9.39101973593093"><ele>77.0</ele><time>2026-03-29T13:48:46.999Z</time></trkpt><trkpt lat="45.18921518295049" lon="9.390901217803915"><ele>77.0</ele><time>2026-03-29T13:48:47.999Z</time></trkpt><trkpt lat="45.18931447245486" lon="9.39076780108449"><ele>77.0</ele><time>2026-03-29T13:48:48.999Z</time></trkpt><trkpt lat="45.18941871917071" lon="9.390631799227137"><ele>77.0</ele><time>2026-03-29T13:48:50Z</time></trkpt><trkpt lat="45.18952741270895" lon="9.390495360749787"><ele>77.0</ele><time>2026-03-29T13:48:51Z</time></trkpt><trkpt lat="45.189640197360355" lon="9.390358318093792"><ele>76.5</ele><time>2026-03-29T13:48:52Z</time></trkpt><trkpt lat="45.189755084115426" lon="9.39022184257482"><ele>76.0</ele><time>2026-03-29T13:48:53Z</time></trkpt><trkpt lat="45.189869752211294" lon="9.39008696537119"><ele>75.5</ele><time>2026-03-29T13:48:54Z</time></trkpt><trkpt lat="45.18998047139653" lon="9.389955237404312"><ele>75.0</ele><time>2026-03-29T13:48:55Z</time></trkpt><trkpt lat="45.19009702933513" lon="9.389811582333097"><ele>74.0</ele><time>2026-03-29T13:48:56Z</time></trkpt><trkpt lat="45.19021639066762" lon="9.389668154807644"><ele>73.0</ele><time>2026-03-29T13:48:57Z</time></trkpt><trkpt lat="45.19033684869857" lon="9.389520429333043"><ele>72.0</ele><time>2026-03-29T13:48:58Z</time></trkpt><trkpt lat="45.19046465450693" lon="9.389365825968236"><ele>72.0</ele><time>2026-03-29T13:48:59Z</time></trkpt><trkpt lat="45.190594222984174" lon="9.389209476081882"><ele>72.0</ele><time>2026-03-29T13:49:00Z</time></trkpt><trkpt lat="45.19072132745806" lon="9.389054685184478"><ele>72.0</ele><time>2026-03-29T13:49:01Z</time></trkpt><trkpt lat="45.19084762403506" lon="9.38890015063281"><ele>72.0</ele><time>2026-03-29T13:49:02Z</time></trkpt><trkpt lat="45.19098047517828" lon="9.388748199232996"><ele>72.0</ele><time>2026-03-29T13:49:03Z</time></trkpt><trkpt lat="45.19111208759818" lon="9.388593322483517"><ele>72.0</ele><time>2026-03-29T13:49:04Z</time></trkpt><trkpt lat="45.19124457326327" lon="9.38843425867089"><ele>72.0</ele><time>2026-03-29T13:49:05Z</time></trkpt><trkpt lat="45.191381248850035" lon="9.388269118049784"><ele>72.0</ele><time>2026-03-29T13:49:06Z</time></trkpt><trkpt lat="45.19151931086959" lon="9.388104945110124"><ele>72.0</ele><time>2026-03-29T13:49:07Z</time></trkpt><trkpt lat="45.19166776395852" lon="9.387928246402952"><ele>72.0</ele><time>2026-03-29T13:49:08Z</time></trkpt><trkpt lat="45.1918078732637" lon="9.387763091980778"><ele>72.0</ele><time>2026-03-29T13:49:09Z</time></trkpt><trkpt lat="45.191937934515934" lon="9.387611108148963"><ele>72.0</ele><time>2026-03-29T13:49:10Z</time></trkpt><trkpt lat="45.19206464896566" lon="9.387464146328448"><ele>72.0</ele><time>2026-03-29T13:49:11Z</time></trkpt><trkpt lat="45.19219496842488" lon="9.387314107748455"><ele>72.0</ele><time>2026-03-29T13:49:12Z</time></trkpt><trkpt lat="45.192324354977075" lon="9.38715925407101"><ele>72.0</ele><time>2026-03-29T13:49:13Z</time></trkpt><trkpt lat="45.192455997902925" lon="9.387005338129875"><ele>72.0</ele><time>2026-03-29T13:49:14Z</time></trkpt><trkpt lat="45.19258499824837" lon="9.386851364830532"><ele>72.0</ele><time>2026-03-29T13:49:15.001Z</time></trkpt><trkpt lat="45.19271123549512" lon="9.386701101873035"><ele>72.0</ele><time>2026-03-29T13:49:16.001Z</time></trkpt><trkpt lat="45.19283983907027" lon="9.386548829514718"><ele>72.0</ele><time>2026-03-29T13:49:17.001Z</time></trkpt><trkpt lat="45.19296742157341" lon="9.386394800628123"><ele>72.0</ele><time>2026-03-29T13:49:18.001Z</time></trkpt><trkpt lat="45.19309621220852" lon="9.3862395616789"><ele>72.0</ele><time>2026-03-29T13:49:19.001Z</time></trkpt><trkpt lat="45.193220994675855" lon="9.386089395890885"><ele>72.25</ele><time>2026-03-29T13:49:20.001Z</time></trkpt><trkpt lat="45.193338247900336" lon="9.38594648923314"><ele>72.5</ele><time>2026-03-29T13:49:21.001Z</time></trkpt><trkpt lat="45.19345131024708" lon="9.385809266341724"><ele>72.75</ele><time>2026-03-29T13:49:22.001Z</time></trkpt><trkpt lat="45.193556098306715" lon="9.385687134546492"><ele>73.0</ele><time>2026-03-29T13:49:23.001Z</time></trkpt><trkpt lat="45.19365761020368" lon="9.385573700524677"><ele>72.75</ele><time>2026-03-29T13:49:24.001Z</time></trkpt><trkpt lat="45.19374981737394" lon="9.385479412810009"><ele>72.5</ele><time>2026-03-29T13:49:25.001Z</time></trkpt><trkpt lat="45.193846291864084" lon="9.385417805698367"><ele>72.25</ele><time>2026-03-29T13:49:26.001Z</time></trkpt><trkpt lat="45.193957762010534" lon="9.38538145794741"><ele>72.0</ele><time>2026-03-29T13:49:27.001Z</time></trkpt><trkpt lat="45.19408485437346" lon="9.385368257693598"><ele>72.5</ele><time>2026-03-29T13:49:28.001Z</time></trkpt><trkpt lat="45.19422653506706" lon="9.38535791727184"><ele>73.0</ele><time>2026-03-29T13:49:29.001Z</time></trkpt><trkpt lat="45.19437083866876" lon="9.385343909308059"><ele>73.5</ele><time>2026-03-29T13:49:30.001Z</time></trkpt><trkpt lat="45.19452516893553" lon="9.385329764057179"><ele>74.0</ele><time>2026-03-29T13:49:31.001Z</time></trkpt><trkpt lat="45.194686729999965" lon="9.385310653181286"><ele>73.33333333333334</ele><time>2026-03-29T13:49:32.001Z</time></trkpt><trkpt lat="45.194854503313245" lon="9.385289882731897"><ele>72.66666666666667</ele><time>2026-03-29T13:49:33.001Z</time></trkpt><trkpt lat="45.19502701356543" lon="9.385268181436379"><ele>72.0</ele><time>2026-03-29T13:49:34.001Z</time></trkpt><trkpt lat="45.19519325388212" lon="9.385246850671855"><ele>72.0</ele><time>2026-03-29T13:49:35.001Z</time></trkpt><trkpt lat="45.195365799026774" lon="9.385226856851464"><ele>72.0</ele><time>2026-03-29T13:49:36.001Z</time></trkpt><trkpt lat="45.1955321133025" lon="9.385204678989163"><ele>72.0</ele><time>2026-03-29T13:49:37.001Z</time></trkpt><trkpt lat="45.19569174746803" lon="9.385185351248644"><ele>72.5</ele><time>2026-03-29T13:49:38.001Z</time></trkpt><trkpt lat="45.195837678505896" lon="9.385167360849417"><ele>73.0</ele><time>2026-03-29T13:49:39.001Z</time></trkpt><trkpt lat="45.195975072715264" lon="9.3851496231442"><ele>73.5</ele><time>2026-03-29T13:49:40.001Z</time></trkpt><trkpt lat="45.19611758267586" lon="9.385132848229306"><ele>74.0</ele><time>2026-03-29T13:49:41.001Z</time></trkpt><trkpt lat="45.196265223937296" lon="9.385112101212695"><ele>74.0</ele><time>2026-03-29T13:49:42.001Z</time></trkpt><trkpt lat="45.19641510513696" lon="9.385090430006358"><ele>74.0</ele><time>2026-03-29T13:49:43.001Z</time></trkpt><trkpt lat="45.19657147923895" lon="9.385064761012082"><ele>74.0</ele><time>2026-03-29T13:49:44.001Z</time></trkpt><trkpt lat="45.19672591961445" lon="9.385032827794317"><ele>74.33333333333334</ele><time>2026-03-29T13:49:45.001Z</time></trkpt><trkpt lat="45.19688086348057" lon="9.384995839016284"><ele>74.66666666666667</ele><time>2026-03-29T13:49:46.002Z</time></trkpt><trkpt lat="45.197033771687174" lon="9.384958332189063"><ele>75.0</ele><time>2026-03-29T13:49:47.002Z</time></trkpt><trkpt lat="45.19718529272421" lon="9.384920732632482"><ele>75.25</ele><time>2026-03-29T13:49:48.002Z</time></trkpt><trkpt lat="45.19733685240288" lon="9.384884927325139"><ele>75.5</ele><time>2026-03-29T13:49:49.002Z</time></trkpt><trkpt lat="45.19747690535572" lon="9.384851070654227"><ele>75.75</ele><time>2026-03-29T13:49:50.002Z</time></trkpt><trkpt lat="45.1976091334176" lon="9.384818302963222"><ele>76.0</ele><time>2026-03-29T13:49:51.002Z</time></trkpt><trkpt lat="45.1977337408594" lon="9.384787118939139"><ele>76.0</ele><time>2026-03-29T13:49:52.002Z</time></trkpt><trkpt lat="45.19784520857452" lon="9.384757250228867"><ele>76.0</ele><time>2026-03-29T13:49:53.002Z</time></trkpt><trkpt lat="45.19793680829478" lon="9.384735245912676"><ele>76.0</ele><time>2026-03-29T13:49:54.002Z</time></trkpt><trkpt lat="45.198006878678825" lon="9.384717565789401"><ele>76.0</ele><time>2026-03-29T13:49:55.002Z</time></trkpt><trkpt lat="45.19806524916014" lon="9.384670511434434"><ele>76.0</ele><time>2026-03-29T13:49:57.002Z</time></trkpt><trkpt lat="45.19813605929028" lon="9.384665367048475"><ele>76.0</ele><time>2026-03-29T13:50:35Z</time></trkpt><trkpt lat="45.19823332395483" lon="9.384663078723872"><ele>76.39999999999999</ele><time>2026-03-29T13:50:37Z</time></trkpt><trkpt lat="45.1982394516918" lon="9.384822935404582"><ele>76.8</ele><time>2026-03-29T13:50:39Z</time></trkpt><trkpt lat="45.19826365209246" lon="9.38494354795143"><ele>77.19999999999999</ele><time>2026-03-29T13:50:40Z</time></trkpt><trkpt lat="45.19828523623913" lon="9.385049921420714"><ele>77.6</ele><time>2026-03-29T13:50:41Z</time></trkpt><trkpt lat="45.19831019973659" lon="9.385168822748533"><ele>78.0</ele><time>2026-03-29T13:50:42Z</time></trkpt><trkpt lat="45.1983416437935" lon="9.385309270767705"><ele>78.0</ele><time>2026-03-29T13:50:43Z</time></trkpt><trkpt lat="45.19837740893664" lon="9.385469019289134"><ele>78.0</ele><time>2026-03-29T13:50:44Z</time></trkpt><trkpt lat="45.19840888932019" lon="9.385622195478986"><ele>78.0</ele><time>2026-03-29T13:50:45Z</time></trkpt><trkpt lat="45.19842302839942" lon="9.385774720886769"><ele>78.0</ele><time>2026-03-29T13:50:46Z</time></trkpt><trkpt lat="45.19843126687906" lon="9.385954026154291"><ele>77.25</ele><time>2026-03-29T13:50:47Z</time></trkpt><trkpt lat="45.19843648057688" lon="9.386139754335296"><ele>76.5</ele><time>2026-03-29T13:50:48Z</time></trkpt><trkpt lat="45.198439618350136" lon="9.386338171333465"><ele>75.75</ele><time>2026-03-29T13:50:49Z</time></trkpt><trkpt lat="45.1984423720085" lon="9.386541099524731"><ele>75.0</ele><time>2026-03-29T13:50:50Z</time></trkpt><trkpt lat="45.198445197489086" lon="9.386749320892905"><ele>75.0</ele><time>2026-03-29T13:50:51Z</time></trkpt><trkpt lat="45.198447630929024" lon="9.38692865054435"><ele>75.0</ele><time>2026-03-29T13:50:52Z</time></trkpt><trkpt lat="45.198450690530855" lon="9.387111085318443"><ele>75.0</ele><time>2026-03-29T13:50:53Z</time></trkpt><trkpt lat="45.19845357129242" lon="9.387289251992959"><ele>75.0</ele><time>2026-03-29T13:50:54Z</time></trkpt><trkpt lat="45.19847313224426" lon="9.387490950348074"><ele>75.0</ele><time>2026-03-29T13:50:55Z</time></trkpt><trkpt lat="45.19847867578053" lon="9.387698691374906"><ele>75.0</ele><time>2026-03-29T13:50:56.001Z</time></trkpt><trkpt lat="45.198478240263846" lon="9.387902588077056"><ele>75.0</ele><time>2026-03-29T13:50:57.001Z</time></trkpt><trkpt lat="45.198471725160964" lon="9.388084204114717"><ele>75.0</ele><time>2026-03-29T13:50:58.001Z</time></trkpt><trkpt lat="45.1984729311681" lon="9.388272602248048"><ele>75.0</ele><time>2026-03-29T13:50:59.001Z</time></trkpt><trkpt lat="45.1984783341771" lon="9.388466819749166"><ele>75.0</ele><time>2026-03-29T13:51:00.001Z</time></trkpt><trkpt lat="45.19848345340526" lon="9.388653688325705"><ele>75.0</ele><time>2026-03-29T13:51:01.001Z</time></trkpt><trkpt lat="45.19848715071139" lon="9.388818220994755"><ele>75.0</ele><time>2026-03-29T13:51:02.001Z</time></trkpt><trkpt lat="45.19849541578937" lon="9.388975480482381"><ele>75.0</ele><time>2026-03-29T13:51:03.001Z</time></trkpt><trkpt lat="45.19850520192242" lon="9.389137379598388"><ele>75.0</ele><time>2026-03-29T13:51:04.001Z</time></trkpt><trkpt lat="45.19851714025604" lon="9.38930048726793"><ele>75.0</ele><time>2026-03-29T13:51:05.001Z</time></trkpt><trkpt lat="45.19850528012061" lon="9.389458916519835"><ele>75.0</ele><time>2026-03-29T13:51:06.001Z</time></trkpt><trkpt lat="45.19850883391492" lon="9.389631117396357"><ele>75.0</ele><time>2026-03-29T13:51:07.001Z</time></trkpt><trkpt lat="45.198513014341835" lon="9.389804053178477"><ele>75.0</ele><time>2026-03-29T13:51:08.001Z</time></trkpt><trkpt lat="45.19851738870548" lon="9.389984203033332"><ele>75.0</ele><time>2026-03-29T13:51:09.001Z</time></trkpt><trkpt lat="45.19853734726193" lon="9.390166599658116"><ele>75.0</ele><time>2026-03-29T13:51:10.001Z</time></trkpt><trkpt lat="45.19853582762522" lon="9.390362424247348"><ele>75.0</ele><time>2026-03-29T13:51:11.001Z</time></trkpt><trkpt lat="45.19854270293529" lon="9.390570429460885"><ele>75.0</ele><time>2026-03-29T13:51:12.001Z</time></trkpt><trkpt lat="45.1985489341231" lon="9.390788743522405"><ele>75.0</ele><time>2026-03-29T13:51:13.001Z</time></trkpt><trkpt lat="45.1985521034343" lon="9.390995421233278"><ele>75.0</ele><time>2026-03-29T13:51:14.001Z</time></trkpt><trkpt lat="45.198558825525325" lon="9.391199035751868"><ele>75.25</ele><time>2026-03-29T13:51:15.001Z</time></trkpt><trkpt lat="45.198564999234854" lon="9.391410992624692"><ele>75.5</ele><time>2026-03-29T13:51:16.001Z</time></trkpt><trkpt lat="45.19857165941549" lon="9.391622822268143"><ele>75.75</ele><time>2026-03-29T13:51:17.001Z</time></trkpt><trkpt lat="45.198578169796264" lon="9.391824757276177"><ele>76.0</ele><time>2026-03-29T13:51:18.001Z</time></trkpt><trkpt lat="45.198584605278086" lon="9.392007378804456"><ele>76.25</ele><time>2026-03-29T13:51:19.001Z</time></trkpt><trkpt lat="45.19858955142957" lon="9.392176837514972"><ele>76.5</ele><time>2026-03-29T13:51:20.001Z</time></trkpt><trkpt lat="45.19859323096232" lon="9.392335300158141"><ele>76.75</ele><time>2026-03-29T13:51:21.001Z</time></trkpt><trkpt lat="45.198593719260266" lon="9.39249759549401"><ele>77.0</ele><time>2026-03-29T13:51:22.001Z</time></trkpt><trkpt lat="45.19859719537177" lon="9.392674909491634"><ele>77.0</ele><time>2026-03-29T13:51:23.001Z</time></trkpt><trkpt lat="45.198603156595624" lon="9.39285692346583"><ele>77.0</ele><time>2026-03-29T13:51:24.001Z</time></trkpt><trkpt lat="45.19860909787678" lon="9.393035856551514"><ele>77.0</ele><time>2026-03-29T13:51:25.002Z</time></trkpt><trkpt lat="45.198612262668206" lon="9.393221227974049"><ele>77.0</ele><time>2026-03-29T13:51:26.002Z</time></trkpt><trkpt lat="45.1986161196321" lon="9.393413054579664"><ele>77.0</ele><time>2026-03-29T13:51:27.002Z</time></trkpt><trkpt lat="45.198619488015" lon="9.393610187600657"><ele>77.0</ele><time>2026-03-29T13:51:28.002Z</time></trkpt><trkpt lat="45.19862702830944" lon="9.393811068007542"><ele>77.0</ele><time>2026-03-29T13:51:29.002Z</time></trkpt><trkpt lat="45.19863087426783" lon="9.394014142757403"><ele>77.0</ele><time>2026-03-29T13:51:30.002Z</time></trkpt><trkpt lat="45.19863779817233" lon="9.394221270324202"><ele>76.66666666666667</ele><time>2026-03-29T13:51:31.002Z</time></trkpt><trkpt lat="45.19863766256556" lon="9.39443454868958"><ele>76.33333333333333</ele><time>2026-03-29T13:51:32.002Z</time></trkpt><trkpt lat="45.198650049773335" lon="9.394669395870007"><ele>76.0</ele><time>2026-03-29T13:51:33.002Z</time></trkpt><trkpt lat="45.19865317082877" lon="9.3949204344374"><ele>75.66666666666666</ele><time>2026-03-29T13:51:34.002Z</time></trkpt><trkpt lat="45.19866303202754" lon="9.395159376805601"><ele>75.33333333333333</ele><time>2026-03-29T13:51:35.002Z</time></trkpt><trkpt lat="45.198667709310335" lon="9.395372603979503"><ele>75.0</ele><time>2026-03-29T13:51:36.002Z</time></trkpt><trkpt lat="45.19867573917526" lon="9.395588424927997"><ele>75.0</ele><time>2026-03-29T13:51:37.002Z</time></trkpt><trkpt lat="45.19868538870689" lon="9.395801325900223"><ele>75.0</ele><time>2026-03-29T13:51:38.002Z</time></trkpt><trkpt lat="45.19869369216461" lon="9.396011161143203"><ele>75.0</ele><time>2026-03-29T13:51:39.002Z</time></trkpt><trkpt lat="45.198700225715314" lon="9.39621037627904"><ele>75.0</ele><time>2026-03-29T13:51:40.002Z</time></trkpt><trkpt lat="45.19870547570803" lon="9.396398015271142"><ele>75.4</ele><time>2026-03-29T13:51:41.002Z</time></trkpt><trkpt lat="45.1987110848278" lon="9.396576674447259"><ele>75.8</ele><time>2026-03-29T13:51:42.002Z</time></trkpt><trkpt lat="45.198713966143366" lon="9.39673359129685"><ele>76.2</ele><time>2026-03-29T13:51:43.002Z</time></trkpt><trkpt lat="45.19871027563129" lon="9.396867435368303"><ele>76.6</ele><time>2026-03-29T13:51:44.002Z</time></trkpt><trkpt lat="45.19870136940392" lon="9.39698418741001"><ele>77.0</ele><time>2026-03-29T13:51:45.002Z</time></trkpt><trkpt lat="45.198696239924345" lon="9.397078910180195"><ele>76.8</ele><time>2026-03-29T13:51:46.002Z</time></trkpt><trkpt lat="45.1986724015179" lon="9.397220384067387"><ele>76.6</ele><time>2026-03-29T13:51:48.002Z</time></trkpt><trkpt lat="45.198816421124675" lon="9.397302059801534"><ele>76.39999999999999</ele><time>2026-03-29T13:51:51.002Z</time></trkpt><trkpt lat="45.198888557291994" lon="9.397304531925466"><ele>76.2</ele><time>2026-03-29T13:51:52.002Z</time></trkpt><trkpt lat="45.1989817925629" lon="9.397293296266767"><ele>76.0</ele><time>2026-03-29T13:51:53.002Z</time></trkpt><trkpt lat="45.19908026533233" lon="9.397288698010284"><ele>75.5</ele><time>2026-03-29T13:51:54.002Z</time></trkpt><trkpt lat="45.19918764448639" lon="9.397279474975557"><ele>75.0</ele><time>2026-03-29T13:51:55.002Z</time></trkpt><trkpt lat="45.19933851236378" lon="9.397260803972065"><ele>74.5</ele><time>2026-03-29T13:51:56.002Z</time></trkpt><trkpt lat="45.199476387638" lon="9.397254093066373"><ele>74.0</ele><time>2026-03-29T13:51:57.002Z</time></trkpt><trkpt lat="45.19960696740433" lon="9.397251905098237"><ele>74.0</ele><time>2026-03-29T13:51:58.002Z</time></trkpt><trkpt lat="45.19974817172834" lon="9.397250518330951"><ele>74.0</ele><time>2026-03-29T13:51:59.003Z</time></trkpt><trkpt lat="45.19989670731723" lon="9.397247635887902"><ele>74.0</ele><time>2026-03-29T13:52:00.003Z</time></trkpt><trkpt lat="45.20004803306496" lon="9.3972452145567"><ele>74.0</ele><time>2026-03-29T13:52:01.003Z</time></trkpt><trkpt lat="45.200199775179236" lon="9.397253739053857"><ele>74.0</ele><time>2026-03-29T13:52:02.003Z</time></trkpt><trkpt lat="45.200349077426786" lon="9.39725546961576"><ele>74.0</ele><time>2026-03-29T13:52:03.003Z</time></trkpt><trkpt lat="45.20049977426289" lon="9.39725617713666"><ele>74.0</ele><time>2026-03-29T13:52:04.003Z</time></trkpt><trkpt lat="45.20064214443987" lon="9.39725856493316"><ele>74.0</ele><time>2026-03-29T13:52:05.003Z</time></trkpt><trkpt lat="45.20079215270232" lon="9.39726151444432"><ele>74.33333333333334</ele><time>2026-03-29T13:52:06.003Z</time></trkpt><trkpt lat="45.20094147185378" lon="9.39725983819127"><ele>74.66666666666667</ele><time>2026-03-29T13:52:07.003Z</time></trkpt><trkpt lat="45.20110004376945" lon="9.397252085244661"><ele>75.0</ele><time>2026-03-29T13:52:08.003Z</time></trkpt><trkpt lat="45.2012569068928" lon="9.397247434653828"><ele>75.0</ele><time>2026-03-29T13:52:09.003Z</time></trkpt><trkpt lat="45.201408125374286" lon="9.397242653201024"><ele>75.0</ele><time>2026-03-29T13:52:10.003Z</time></trkpt><trkpt lat="45.20155134712896" lon="9.397231748642293"><ele>75.0</ele><time>2026-03-29T13:52:11.003Z</time></trkpt><trkpt lat="45.20169530804548" lon="9.397221680196237"><ele>75.0</ele><time>2026-03-29T13:52:12.003Z</time></trkpt><trkpt lat="45.2018575943536" lon="9.397216429880979"><ele>75.0</ele><time>2026-03-29T13:52:13.003Z</time></trkpt><trkpt lat="45.202019048157005" lon="9.397211956879119"><ele>75.0</ele><time>2026-03-29T13:52:14.003Z</time></trkpt><trkpt lat="45.202167145115084" lon="9.397208715133026"><ele>75.0</ele><time>2026-03-29T13:52:15.003Z</time></trkpt><trkpt lat="45.20231072321065" lon="9.397215002328856"><ele>75.0</ele><time>2026-03-29T13:52:16.003Z</time></trkpt><trkpt lat="45.202443706215966" lon="9.397227115231804"><ele>75.0</ele><time>2026-03-29T13:52:17.003Z</time></trkpt><trkpt lat="45.202571645158095" lon="9.397250490371231"><ele>75.0</ele><time>2026-03-29T13:52:18.003Z</time></trkpt><trkpt lat="45.202695292524645" lon="9.397275267774106"><ele>75.0</ele><time>2026-03-29T13:52:19.003Z</time></trkpt><trkpt lat="45.20282565945788" lon="9.397291508214291"><ele>75.0</ele><time>2026-03-29T13:52:20.003Z</time></trkpt><trkpt lat="45.20295864045054" lon="9.397296788018503"><ele>75.0</ele><time>2026-03-29T13:52:21.003Z</time></trkpt><trkpt lat="45.20307679308454" lon="9.397309565798489"><ele>75.0</ele><time>2026-03-29T13:52:22.003Z</time></trkpt><trkpt lat="45.20319068696075" lon="9.397296282144808"><ele>75.0</ele><time>2026-03-29T13:52:23.003Z</time></trkpt><trkpt lat="45.20330600918441" lon="9.39725222761003"><ele>75.25</ele><time>2026-03-29T13:52:24.003Z</time></trkpt><trkpt lat="45.20342489951893" lon="9.397187836389547"><ele>75.5</ele><time>2026-03-29T13:52:25.003Z</time></trkpt><trkpt lat="45.20355155127396" lon="9.3971074925316"><ele>75.75</ele><time>2026-03-29T13:52:26.003Z</time></trkpt><trkpt lat="45.203701181323154" lon="9.397039497456182"><ele>76.0</ele><time>2026-03-29T13:52:27.003Z</time></trkpt><trkpt lat="45.2038591874333" lon="9.396927250516033"><ele>76.33333333333333</ele><time>2026-03-29T13:52:28.003Z</time></trkpt><trkpt lat="45.20402785323893" lon="9.396834067946708"><ele>76.66666666666667</ele><time>2026-03-29T13:52:29.003Z</time></trkpt><trkpt lat="45.20418844934211" lon="9.396747721043935"><ele>77.0</ele><time>2026-03-29T13:52:30.003Z</time></trkpt><trkpt lat="45.20432516850797" lon="9.39666555090693"><ele>77.0</ele><time>2026-03-29T13:52:31Z</time></trkpt><trkpt lat="45.2044553865802" lon="9.39659043069479"><ele>77.0</ele><time>2026-03-29T13:52:32Z</time></trkpt><trkpt lat="45.2045823415445" lon="9.396516147732028"><ele>77.0</ele><time>2026-03-29T13:52:33Z</time></trkpt><trkpt lat="45.204693381725946" lon="9.396449552340204"><ele>77.0</ele><time>2026-03-29T13:52:34Z</time></trkpt><trkpt lat="45.20479276274911" lon="9.396382842706549"><ele>77.0</ele><time>2026-03-29T13:52:35Z</time></trkpt><trkpt lat="45.204895227847715" lon="9.396317684468087"><ele>77.0</ele><time>2026-03-29T13:52:36Z</time></trkpt><trkpt lat="45.20500793551911" lon="9.396244745044946"><ele>77.0</ele><time>2026-03-29T13:52:37Z</time></trkpt><trkpt lat="45.20511786320347" lon="9.396171992746646"><ele>77.0</ele><time>2026-03-29T13:52:38Z</time></trkpt><trkpt lat="45.205211632053995" lon="9.39609954009234"><ele>77.0</ele><time>2026-03-29T13:52:39Z</time></trkpt><trkpt lat="45.20529971059788" lon="9.396045570338918"><ele>77.0</ele><time>2026-03-29T13:52:40Z</time></trkpt><trkpt lat="45.20541462225428" lon="9.396016714650331"><ele>77.0</ele><time>2026-03-29T13:52:41Z</time></trkpt><trkpt lat="45.20554590602582" lon="9.395944168487574"><ele>77.0</ele><time>2026-03-29T13:52:42Z</time></trkpt><trkpt lat="45.205691379889295" lon="9.395895300312713"><ele>76.75</ele><time>2026-03-29T13:52:43Z</time></trkpt><trkpt lat="45.20583190718899" lon="9.395839672898786"><ele>76.5</ele><time>2026-03-29T13:52:44Z</time></trkpt><trkpt lat="45.205974541647876" lon="9.395781465964886"><ele>76.25</ele><time>2026-03-29T13:52:45Z</time></trkpt><trkpt lat="45.20612241428809" lon="9.395715458659737"><ele>76.0</ele><time>2026-03-29T13:52:46Z</time></trkpt><trkpt lat="45.20627561319008" lon="9.395660006280268"><ele>76.0</ele><time>2026-03-29T13:52:47Z</time></trkpt><trkpt lat="45.20641316216661" lon="9.395591948687876"><ele>76.0</ele><time>2026-03-29T13:52:48Z</time></trkpt><trkpt lat="45.20654002611242" lon="9.395526923617314"><ele>76.0</ele><time>2026-03-29T13:52:49Z</time></trkpt><trkpt lat="45.20665931656726" lon="9.395475951817797"><ele>76.0</ele><time>2026-03-29T13:52:50Z</time></trkpt><trkpt lat="45.20677648068898" lon="9.395414514187994"><ele>76.0</ele><time>2026-03-29T13:52:51Z</time></trkpt><trkpt lat="45.206886076828326" lon="9.395365696070643"><ele>76.0</ele><time>2026-03-29T13:52:52Z</time></trkpt><trkpt lat="45.206982040097834" lon="9.395318114667141"><ele>76.0</ele><time>2026-03-29T13:52:53Z</time></trkpt><trkpt lat="45.20707474659821" lon="9.395272276120409"><ele>76.0</ele><time>2026-03-29T13:52:54Z</time></trkpt><trkpt lat="45.20715268115803" lon="9.395230690452603"><ele>76.0</ele><time>2026-03-29T13:52:55Z</time></trkpt><trkpt lat="45.20726227419154" lon="9.3952063818675"><ele>76.0</ele><time>2026-03-29T13:52:57Z</time></trkpt><trkpt lat="45.2073323417673" lon="9.395310010070945"><ele>76.0</ele><time>2026-03-29T13:52:59Z</time></trkpt><trkpt lat="45.20743851832591" lon="9.395291725876916"><ele>76.0</ele><time>2026-03-29T13:53:01Z</time></trkpt><trkpt lat="45.20751462288564" lon="9.39527085314008"><ele>76.0</ele><time>2026-03-29T13:53:02Z</time></trkpt><trkpt lat="45.207610697580215" lon="9.395225446492505"><ele>76.0</ele><time>2026-03-29T13:53:03Z</time></trkpt><trkpt lat="45.20772372016183" lon="9.395199803244632"><ele>76.0</ele><time>2026-03-29T13:53:04Z</time></trkpt><trkpt lat="45.20783264802115" lon="9.395173167967748"><ele>76.0</ele><time>2026-03-29T13:53:05.001Z</time></trkpt><trkpt lat="45.207949769148414" lon="9.395144939340714"><ele>76.0</ele><time>2026-03-29T13:53:06.001Z</time></trkpt><trkpt lat="45.20807291784197" lon="9.395115865882845"><ele>76.0</ele><time>2026-03-29T13:53:07.001Z</time></trkpt><trkpt lat="45.20819413070729" lon="9.395082760421062"><ele>76.0</ele><time>2026-03-29T13:53:08.001Z</time></trkpt><trkpt lat="45.20831985575597" lon="9.395051044066982"><ele>76.0</ele><time>2026-03-29T13:53:09.001Z</time></trkpt><trkpt lat="45.20843234698237" lon="9.395021634964747"><ele>76.0</ele><time>2026-03-29T13:53:10.001Z</time></trkpt><trkpt lat="45.20853048017794" lon="9.394999717445964"><ele>76.0</ele><time>2026-03-29T13:53:11.001Z</time></trkpt><trkpt lat="45.20862245249927" lon="9.39497695204991"><ele>76.0</ele><time>2026-03-29T13:53:12.001Z</time></trkpt><trkpt lat="45.20870569479795" lon="9.394956044639"><ele>76.0</ele><time>2026-03-29T13:53:13.001Z</time></trkpt><trkpt lat="45.208782729440486" lon="9.39493653706995"><ele>76.0</ele><time>2026-03-29T13:53:14.001Z</time></trkpt><trkpt lat="45.20885313614871" lon="9.394918773347184"><ele>76.0</ele><time>2026-03-29T13:53:15.001Z</time></trkpt><trkpt lat="45.20895020578401" lon="9.394869566293615"><ele>76.0</ele><time>2026-03-29T13:53:17.001Z</time></trkpt><trkpt lat="45.20896408981477" lon="9.394728796445417"><ele>76.0</ele><time>2026-03-29T13:53:19.001Z</time></trkpt><trkpt lat="45.208920209286205" lon="9.394552487203482"><ele>75.75</ele><time>2026-03-29T13:53:21.001Z</time></trkpt><trkpt lat="45.20895706317066" lon="9.394415212756947"><ele>75.5</ele><time>2026-03-29T13:53:23.001Z</time></trkpt><trkpt lat="45.2090999210458" lon="9.394368562274408"><ele>75.25</ele><time>2026-03-29T13:53:25.001Z</time></trkpt><trkpt lat="45.20918867027014" lon="9.394311689589223"><ele>75.0</ele><time>2026-03-29T13:53:26.001Z</time></trkpt><trkpt lat="45.209290148093736" lon="9.394263429062228"><ele>74.8</ele><time>2026-03-29T13:53:27.001Z</time></trkpt><trkpt lat="45.20938461572787" lon="9.394217877273128"><ele>74.6</ele><time>2026-03-29T13:53:28.001Z</time></trkpt><trkpt lat="45.20947320467068" lon="9.39417610160238"><ele>74.4</ele><time>2026-03-29T13:53:29.001Z</time></trkpt><trkpt lat="45.209562248541665" lon="9.394133145389235"><ele>74.2</ele><time>2026-03-29T13:53:30.001Z</time></trkpt><trkpt lat="45.20965051576074" lon="9.394089618835162"><ele>74.0</ele><time>2026-03-29T13:53:31.001Z</time></trkpt><trkpt lat="45.209734962488284" lon="9.394051905371349"><ele>74.0</ele><time>2026-03-29T13:53:32.001Z</time></trkpt><trkpt lat="45.20981781356228" lon="9.394010131724782"><ele>74.0</ele><time>2026-03-29T13:53:33.001Z</time></trkpt><trkpt lat="45.20989954305377" lon="9.393976442884895"><ele>74.0</ele><time>2026-03-29T13:53:34.001Z</time></trkpt><trkpt lat="45.20997646635469" lon="9.393944321527112"><ele>74.0</ele><time>2026-03-29T13:53:35.001Z</time></trkpt><trkpt lat="45.21005495975097" lon="9.393935049277955"><ele>74.0</ele><time>2026-03-29T13:53:36.001Z</time></trkpt><trkpt lat="45.21013831061594" lon="9.393902174445147"><ele>74.0</ele><time>2026-03-29T13:53:37.002Z</time></trkpt><trkpt lat="45.21020793609455" lon="9.393852773359981"><ele>74.33333333333334</ele><time>2026-03-29T13:53:38.002Z</time></trkpt><trkpt lat="45.21027441545025" lon="9.393846014839768"><ele>74.66666666666667</ele><time>2026-03-29T13:53:39.002Z</time></trkpt><trkpt lat="45.21033227432347" lon="9.393801517929445"><ele>75.0</ele><time>2026-03-29T13:53:40.002Z</time></trkpt><trkpt lat="45.21044357673302" lon="9.393743161293042"><ele>75.33333333333333</ele><time>2026-03-29T13:53:42.002Z</time></trkpt><trkpt lat="45.210505765226074" lon="9.39370989393489"><ele>75.66666666666666</ele><time>2026-03-29T13:53:43.002Z</time></trkpt><trkpt lat="45.21057160052379" lon="9.39369476579389"><ele>76.0</ele><time>2026-03-29T13:53:44.002Z</time></trkpt><trkpt lat="45.210668662829725" lon="9.393647099258263"><ele>76.0</ele><time>2026-03-29T13:53:46.002Z</time></trkpt><trkpt lat="45.210674638863914" lon="9.393456478866614"><ele>76.0</ele><time>2026-03-29T13:53:47.002Z</time></trkpt><trkpt lat="45.210684773410975" lon="9.39336531281527"><ele>76.0</ele><time>2026-03-29T13:53:48.002Z</time></trkpt><trkpt lat="45.21063053849276" lon="9.393251431294429"><ele>76.0</ele><time>2026-03-29T13:53:49.002Z</time></trkpt><trkpt lat="45.21059979551699" lon="9.39312066173377"><ele>76.0</ele><time>2026-03-29T13:53:50.002Z</time></trkpt><trkpt lat="45.210549605220464" lon="9.392968276276457"><ele>75.5</ele><time>2026-03-29T13:53:51.002Z</time></trkpt><trkpt lat="45.21052103119148" lon="9.392789123276419"><ele>75.0</ele><time>2026-03-29T13:53:52.002Z</time></trkpt><trkpt lat="45.21047751992223" lon="9.392608508718858"><ele>74.5</ele><time>2026-03-29T13:53:53.002Z</time></trkpt><trkpt lat="45.21043271466298" lon="9.392422522406724"><ele>74.0</ele><time>2026-03-29T13:53:54.002Z</time></trkpt><trkpt lat="45.210391166180585" lon="9.39225005514381"><ele>74.0</ele><time>2026-03-29T13:53:55.002Z</time></trkpt><trkpt lat="45.21035572484017" lon="9.392105367268833"><ele>74.0</ele><time>2026-03-29T13:53:56.002Z</time></trkpt><trkpt lat="45.2103077463573" lon="9.391977381105367"><ele>74.0</ele><time>2026-03-29T13:53:57.002Z</time></trkpt><trkpt lat="45.21028561896286" lon="9.391836408302606"><ele>74.0</ele><time>2026-03-29T13:53:58.002Z</time></trkpt><trkpt lat="45.21023938382947" lon="9.391728665387268"><ele>74.0</ele><time>2026-03-29T13:53:59.002Z</time></trkpt><trkpt lat="45.21021680863432" lon="9.391625175053116"><ele>74.0</ele><time>2026-03-29T13:54:00.002Z</time></trkpt><trkpt lat="45.210214557857114" lon="9.391474781218028"><ele>74.0</ele><time>2026-03-29T13:54:02.002Z</time></trkpt><trkpt lat="45.210294621292554" lon="9.39139493960183"><ele>74.0</ele><time>2026-03-29T13:54:04.002Z</time></trkpt><trkpt lat="45.21036451306244" lon="9.391362467888897"><ele>74.0</ele><time>2026-03-29T13:54:05.002Z</time></trkpt><trkpt lat="45.21045397580222" lon="9.391320426372548"><ele>74.0</ele><time>2026-03-29T13:54:06.002Z</time></trkpt><trkpt lat="45.210561145635374" lon="9.391243983604946"><ele>74.25</ele><time>2026-03-29T13:54:07.002Z</time></trkpt><trkpt lat="45.2106894798574" lon="9.39117247328644"><ele>74.5</ele><time>2026-03-29T13:54:08.002Z</time></trkpt><trkpt lat="45.21082921571756" lon="9.391090638308306"><ele>74.75</ele><time>2026-03-29T13:54:09.002Z</time></trkpt><trkpt lat="45.21097036673432" lon="9.391004902812078"><ele>75.0</ele><time>2026-03-29T13:54:10.003Z</time></trkpt><trkpt lat="45.21110791478666" lon="9.390925260529812"><ele>75.0</ele><time>2026-03-29T13:54:11.003Z</time></trkpt><trkpt lat="45.211249834505416" lon="9.39084162602867"><ele>75.0</ele><time>2026-03-29T13:54:12.003Z</time></trkpt><trkpt lat="45.21140100779779" lon="9.39075350097176"><ele>75.0</ele><time>2026-03-29T13:54:13.003Z</time></trkpt><trkpt lat="45.211556096336544" lon="9.390673252836226"><ele>75.0</ele><time>2026-03-29T13:54:14.003Z</time></trkpt><trkpt lat="45.211701984729544" lon="9.390587496595934"><ele>75.0</ele><time>2026-03-29T13:54:15.003Z</time></trkpt><trkpt lat="45.211834376850746" lon="9.390509530299376"><ele>75.0</ele><time>2026-03-29T13:54:16.003Z</time></trkpt><trkpt lat="45.21196141203899" lon="9.390438762408067"><ele>75.0</ele><time>2026-03-29T13:54:17.003Z</time></trkpt><trkpt lat="45.21208499493435" lon="9.39037149203674"><ele>75.0</ele><time>2026-03-29T13:54:18.003Z</time></trkpt><trkpt lat="45.212213419544824" lon="9.390297735628359"><ele>75.0</ele><time>2026-03-29T13:54:19.003Z</time></trkpt><trkpt lat="45.2123491457094" lon="9.39022289273148"><ele>75.0</ele><time>2026-03-29T13:54:20.003Z</time></trkpt><trkpt lat="45.212482528575435" lon="9.39014750289494"><ele>75.0</ele><time>2026-03-29T13:54:21.003Z</time></trkpt><trkpt lat="45.21260828142938" lon="9.39007243472819"><ele>74.75</ele><time>2026-03-29T13:54:22.003Z</time></trkpt><trkpt lat="45.212739959133934" lon="9.39000110783971"><ele>74.5</ele><time>2026-03-29T13:54:23.003Z</time></trkpt><trkpt lat="45.21287904890727" lon="9.389925600546038"><ele>74.25</ele><time>2026-03-29T13:54:24.003Z</time></trkpt><trkpt lat="45.21301036372515" lon="9.389849881328608"><ele>74.0</ele><time>2026-03-29T13:54:25.003Z</time></trkpt><trkpt lat="45.21313095117761" lon="9.389782491774586"><ele>73.60000000000001</ele><time>2026-03-29T13:54:26.003Z</time></trkpt><trkpt lat="45.21323948176066" lon="9.389714722738354"><ele>73.2</ele><time>2026-03-29T13:54:27.003Z</time></trkpt><trkpt lat="45.21334066501854" lon="9.389653543370002"><ele>72.80000000000001</ele><time>2026-03-29T13:54:28.003Z</time></trkpt><trkpt lat="45.21343434085291" lon="9.389607557520645"><ele>72.4</ele><time>2026-03-29T13:54:29.003Z</time></trkpt><trkpt lat="45.21351974832114" lon="9.389558890733532"><ele>72.0</ele><time>2026-03-29T13:54:30.003Z</time></trkpt><trkpt lat="45.21359946181849" lon="9.389515057984019"><ele>72.0</ele><time>2026-03-29T13:54:31.003Z</time></trkpt><trkpt lat="45.213662358169955" lon="9.389476144599772"><ele>72.0</ele><time>2026-03-29T13:54:32.003Z</time></trkpt><trkpt lat="45.21375716118442" lon="9.389412406398211"><ele>72.0</ele><time>2026-03-29T13:54:34.003Z</time></trkpt><trkpt lat="45.213819386109165" lon="9.389305526690716"><ele>72.0</ele><time>2026-03-29T13:54:36.003Z</time></trkpt><trkpt lat="45.21377144720222" lon="9.3891994111169"><ele>72.0</ele><time>2026-03-29T13:54:36.999Z</time></trkpt><trkpt lat="45.21373069295795" lon="9.389048832407866"><ele>72.0</ele><time>2026-03-29T13:54:38.999Z</time></trkpt><trkpt lat="45.213682737809" lon="9.388958542479186"><ele>72.0</ele><time>2026-03-29T13:54:39.999Z</time></trkpt><trkpt lat="45.21364648641428" lon="9.38884888320018"><ele>72.0</ele><time>2026-03-29T13:54:40.999Z</time></trkpt><trkpt lat="45.213612288165066" lon="9.388689237903229"><ele>72.0</ele><time>2026-03-29T13:54:41.999Z</time></trkpt><trkpt lat="45.213552578010386" lon="9.388501238821425"><ele>72.0</ele><time>2026-03-29T13:54:42.999Z</time></trkpt><trkpt lat="45.21348699922557" lon="9.388294762317479"><ele>72.33333333333333</ele><time>2026-03-29T13:54:43.999Z</time></trkpt><trkpt lat="45.213413885773086" lon="9.388064562518801"><ele>72.66666666666666</ele><time>2026-03-29T13:54:44.999Z</time></trkpt><trkpt lat="45.213333963386006" lon="9.387871251972193"><ele>73.0</ele><time>2026-03-29T13:54:45.999Z</time></trkpt><trkpt lat="45.21327620334945" lon="9.387688677652568"><ele>73.25</ele><time>2026-03-29T13:54:46.999Z</time></trkpt><trkpt lat="45.21322530309969" lon="9.38752830019731"><ele>73.5</ele><time>2026-03-29T13:54:47.999Z</time></trkpt><trkpt lat="45.21317577225581" lon="9.387378781795357"><ele>73.75</ele><time>2026-03-29T13:54:48.999Z</time></trkpt><trkpt lat="45.21313706263531" lon="9.387246736447757"><ele>74.0</ele><time>2026-03-29T13:54:50Z</time></trkpt><trkpt lat="45.21309211727247" lon="9.387102915259144"><ele>74.25</ele><time>2026-03-29T13:54:51Z</time></trkpt><trkpt lat="45.2130430217358" lon="9.386953364857575"><ele>74.5</ele><time>2026-03-29T13:54:52Z</time></trkpt><trkpt lat="45.212987847874615" lon="9.386795183407303"><ele>74.75</ele><time>2026-03-29T13:54:53Z</time></trkpt><trkpt lat="45.212937921069134" lon="9.386634122112783"><ele>75.0</ele><time>2026-03-29T13:54:54Z</time></trkpt><trkpt lat="45.21288532491081" lon="9.38647157440198"><ele>74.5</ele><time>2026-03-29T13:54:55Z</time></trkpt><trkpt lat="45.21284770312563" lon="9.386295027561317"><ele>74.0</ele><time>2026-03-29T13:54:56Z</time></trkpt><trkpt lat="45.21278189252709" lon="9.386139559164269"><ele>73.5</ele><time>2026-03-29T13:54:57Z</time></trkpt><trkpt lat="45.21273123658584" lon="9.385985114491099"><ele>73.0</ele><time>2026-03-29T13:54:58Z</time></trkpt><trkpt lat="45.2126839394227" lon="9.385848342736413"><ele>73.0</ele><time>2026-03-29T13:54:59Z</time></trkpt><trkpt lat="45.21265595042391" lon="9.385711925442855"><ele>73.0</ele><time>2026-03-29T13:55:00Z</time></trkpt><trkpt lat="45.21260730104896" lon="9.385610570260674"><ele>73.0</ele><time>2026-03-29T13:55:01Z</time></trkpt><trkpt lat="45.21258905275676" lon="9.385516782881012"><ele>73.0</ele><time>2026-03-29T13:55:02Z</time></trkpt><trkpt lat="45.212547232989415" lon="9.385443246345877"><ele>73.0</ele><time>2026-03-29T13:55:03Z</time></trkpt><trkpt lat="45.21252066717222" lon="9.385326736515498"><ele>73.0</ele><time>2026-03-29T13:55:04Z</time></trkpt><trkpt lat="45.212474816792174" lon="9.385194342838025"><ele>73.0</ele><time>2026-03-29T13:55:05Z</time></trkpt><trkpt lat="45.21240799509234" lon="9.385034959624189"><ele>73.0</ele><time>2026-03-29T13:55:06Z</time></trkpt><trkpt lat="45.21235049785405" lon="9.384853497948804"><ele>73.0</ele><time>2026-03-29T13:55:07Z</time></trkpt><trkpt lat="45.21228480569588" lon="9.384665575222236"><ele>73.0</ele><time>2026-03-29T13:55:08Z</time></trkpt><trkpt lat="45.212213465145986" lon="9.384475610738873"><ele>73.25</ele><time>2026-03-29T13:55:09Z</time></trkpt><trkpt lat="45.21215675778874" lon="9.384280011509981"><ele>73.5</ele><time>2026-03-29T13:55:10.001Z</time></trkpt><trkpt lat="45.21207621366373" lon="9.384098972420789"><ele>73.75</ele><time>2026-03-29T13:55:11.001Z</time></trkpt><trkpt lat="45.21201427120837" lon="9.383926155363264"><ele>74.0</ele><time>2026-03-29T13:55:12.001Z</time></trkpt><trkpt lat="45.21195017904854" lon="9.383750768470996"><ele>74.0</ele><time>2026-03-29T13:55:13.001Z</time></trkpt><trkpt lat="45.211903828909875" lon="9.383571661766625"><ele>74.0</ele><time>2026-03-29T13:55:14.001Z</time></trkpt><trkpt lat="45.211846801672614" lon="9.383417699665674"><ele>74.0</ele><time>2026-03-29T13:55:15.001Z</time></trkpt><trkpt lat="45.211775679450426" lon="9.383277987491885"><ele>74.0</ele><time>2026-03-29T13:55:16.001Z</time></trkpt><trkpt lat="45.211720442494915" lon="9.383129069037816"><ele>74.0</ele><time>2026-03-29T13:55:17.001Z</time></trkpt><trkpt lat="45.21168296083123" lon="9.38298110528734"><ele>74.0</ele><time>2026-03-29T13:55:18.001Z</time></trkpt><trkpt lat="45.21162493645323" lon="9.382861473677396"><ele>74.0</ele><time>2026-03-29T13:55:19.001Z</time></trkpt><trkpt lat="45.21156994509177" lon="9.382745089659162"><ele>74.0</ele><time>2026-03-29T13:55:20.001Z</time></trkpt><trkpt lat="45.21154265111924" lon="9.382622839583304"><ele>74.0</ele><time>2026-03-29T13:55:21.001Z</time></trkpt><trkpt lat="45.211503766562075" lon="9.38250984213113"><ele>74.2</ele><time>2026-03-29T13:55:22.001Z</time></trkpt><trkpt lat="45.21146141772389" lon="9.38240703735625"><ele>74.4</ele><time>2026-03-29T13:55:23.001Z</time></trkpt><trkpt lat="45.21147036493915" lon="9.382276144396917"><ele>74.6</ele><time>2026-03-29T13:55:24.001Z</time></trkpt><trkpt lat="45.21147847751419" lon="9.382150611712381"><ele>74.8</ele><time>2026-03-29T13:55:25.001Z</time></trkpt><trkpt lat="45.21150139769993" lon="9.381998250011902"><ele>75.0</ele><time>2026-03-29T13:55:26.001Z</time></trkpt><trkpt lat="45.2115173169663" lon="9.381822389267949"><ele>74.6</ele><time>2026-03-29T13:55:27.001Z</time></trkpt><trkpt lat="45.21151567210139" lon="9.381659948437049"><ele>74.2</ele><time>2026-03-29T13:55:28.001Z</time></trkpt><trkpt lat="45.21151969060364" lon="9.38151576271705"><ele>73.8</ele><time>2026-03-29T13:55:29.001Z</time></trkpt><trkpt lat="45.2115140129984" lon="9.381376400915254"><ele>73.4</ele><time>2026-03-29T13:55:30.001Z</time></trkpt><trkpt lat="45.21150334050802" lon="9.381227500099484"><ele>73.0</ele><time>2026-03-29T13:55:31.001Z</time></trkpt><trkpt lat="45.211482160535155" lon="9.381090734808916"><ele>73.0</ele><time>2026-03-29T13:55:32.001Z</time></trkpt><trkpt lat="45.211451414049336" lon="9.380967798152831"><ele>73.0</ele><time>2026-03-29T13:55:33.001Z</time></trkpt><trkpt lat="45.2114162253743" lon="9.380828173929945"><ele>73.0</ele><time>2026-03-29T13:55:34.001Z</time></trkpt><trkpt lat="45.211400121454496" lon="9.38069301525006"><ele>73.0</ele><time>2026-03-29T13:55:35.001Z</time></trkpt><trkpt lat="45.211374235272054" lon="9.380572964225127"><ele>73.0</ele><time>2026-03-29T13:55:36.001Z</time></trkpt><trkpt lat="45.21133380672463" lon="9.380463302126186"><ele>72.83333333333333</ele><time>2026-03-29T13:55:37.001Z</time></trkpt><trkpt lat="45.21130613238976" lon="9.380333282577048"><ele>72.66666666666666</ele><time>2026-03-29T13:55:38.001Z</time></trkpt><trkpt lat="45.211269568525886" lon="9.380214634235346"><ele>72.5</ele><time>2026-03-29T13:55:39.002Z</time></trkpt><trkpt lat="45.21123807454708" lon="9.380097771560381"><ele>72.33333333333333</ele><time>2026-03-29T13:55:40.002Z</time></trkpt><trkpt lat="45.21120245464985" lon="9.379979595881014"><ele>72.16666666666667</ele><time>2026-03-29T13:55:41.002Z</time></trkpt><trkpt lat="45.21118003910792" lon="9.379871078177404"><ele>72.0</ele><time>2026-03-29T13:55:42.002Z</time></trkpt><trkpt lat="45.21117542196322" lon="9.37976555682556"><ele>72.16666666666667</ele><time>2026-03-29T13:55:43.002Z</time></trkpt><trkpt lat="45.211141423959006" lon="9.379660780134662"><ele>72.33333333333333</ele><time>2026-03-29T13:55:44.002Z</time></trkpt><trkpt lat="45.21112736358123" lon="9.379546388076546"><ele>72.5</ele><time>2026-03-29T13:55:45.002Z</time></trkpt><trkpt lat="45.211127786352016" lon="9.379440488326285"><ele>72.66666666666666</ele><time>2026-03-29T13:55:46.002Z</time></trkpt><trkpt lat="45.21110046392872" lon="9.37935363999811"><ele>72.83333333333333</ele><time>2026-03-29T13:55:47.002Z</time></trkpt><trkpt lat="45.211122674586726" lon="9.379209789563234"><ele>73.0</ele><time>2026-03-29T13:55:49.002Z</time></trkpt><trkpt lat="45.21123726719224" lon="9.379125180886836"><ele>73.0</ele><time>2026-03-29T13:55:51.002Z</time></trkpt><trkpt lat="45.2113230061502" lon="9.379049150193346"><ele>73.0</ele><time>2026-03-29T13:55:52.002Z</time></trkpt><trkpt lat="45.2114453054532" lon="9.378976398263546"><ele>73.0</ele><time>2026-03-29T13:55:53.002Z</time></trkpt><trkpt lat="45.21158119272151" lon="9.378891185651094"><ele>73.0</ele><time>2026-03-29T13:55:54.002Z</time></trkpt><trkpt lat="45.21171945691652" lon="9.37880207325414"><ele>72.8</ele><time>2026-03-29T13:55:55.002Z</time></trkpt><trkpt lat="45.21183479502924" lon="9.37872631553296"><ele>72.6</ele><time>2026-03-29T13:55:56.002Z</time></trkpt><trkpt lat="45.21193268190074" lon="9.37865935080608"><ele>72.4</ele><time>2026-03-29T13:55:57.002Z</time></trkpt><trkpt lat="45.21202335051108" lon="9.37859912848904"><ele>72.2</ele><time>2026-03-29T13:55:58.002Z</time></trkpt><trkpt lat="45.21210502069571" lon="9.378542424208003"><ele>72.0</ele><time>2026-03-29T13:55:59.002Z</time></trkpt><trkpt lat="45.212159830876935" lon="9.378489515936902"><ele>72.0</ele><time>2026-03-29T13:56:00.002Z</time></trkpt><trkpt lat="45.212236014195355" lon="9.378373596644415"><ele>72.0</ele><time>2026-03-29T13:56:02.002Z</time></trkpt><trkpt lat="45.2122241425427" lon="9.378272233033424"><ele>72.0</ele><time>2026-03-29T13:56:03.002Z</time></trkpt><trkpt lat="45.212211792553454" lon="9.378175071879593"><ele>72.0</ele><time>2026-03-29T13:56:04.002Z</time></trkpt><trkpt lat="45.21218353465413" lon="9.378053225424889"><ele>72.0</ele><time>2026-03-29T13:56:05.002Z</time></trkpt><trkpt lat="45.21214096965154" lon="9.377917545275462"><ele>72.0</ele><time>2026-03-29T13:56:06.002Z</time></trkpt><trkpt lat="45.21208137991014" lon="9.37773576769055"><ele>72.0</ele><time>2026-03-29T13:56:07.002Z</time></trkpt><trkpt lat="45.21201972132109" lon="9.377523068150621"><ele>72.0</ele><time>2026-03-29T13:56:08.002Z</time></trkpt><trkpt lat="45.211965718893474" lon="9.377312034609337"><ele>72.0</ele><time>2026-03-29T13:56:09.002Z</time></trkpt><trkpt lat="45.21189379173839" lon="9.377065285494387"><ele>71.66666666666667</ele><time>2026-03-29T13:56:10.002Z</time></trkpt><trkpt lat="45.21182680822057" lon="9.376824697910518"><ele>71.33333333333334</ele><time>2026-03-29T13:56:11.003Z</time></trkpt><trkpt lat="45.211767073886875" lon="9.376607138811494"><ele>71.0</ele><time>2026-03-29T13:56:12.003Z</time></trkpt><trkpt lat="45.21171126755037" lon="9.3763899350842"><ele>71.66666666666667</ele><time>2026-03-29T13:56:13.003Z</time></trkpt><trkpt lat="45.211654690476784" lon="9.376167178715624"><ele>72.33333333333333</ele><time>2026-03-29T13:56:14.003Z</time></trkpt><trkpt lat="45.21159872086566" lon="9.375952806998702"><ele>73.0</ele><time>2026-03-29T13:56:15.003Z</time></trkpt><trkpt lat="45.211542611957505" lon="9.375737499001227"><ele>73.0</ele><time>2026-03-29T13:56:16.003Z</time></trkpt><trkpt lat="45.21148696078438" lon="9.375523838820003"><ele>73.0</ele><time>2026-03-29T13:56:17.003Z</time></trkpt><trkpt lat="45.211438057425504" lon="9.375330530459344"><ele>73.0</ele><time>2026-03-29T13:56:18.003Z</time></trkpt><trkpt lat="45.21139200473371" lon="9.375154675663167"><ele>73.0</ele><time>2026-03-29T13:56:19.003Z</time></trkpt><trkpt lat="45.21134591868315" lon="9.374978480944787"><ele>73.25</ele><time>2026-03-29T13:56:20.003Z</time></trkpt><trkpt lat="45.21130118222596" lon="9.374806606045556"><ele>73.5</ele><time>2026-03-29T13:56:21.003Z</time></trkpt><trkpt lat="45.21125509761721" lon="9.374634885778578"><ele>73.75</ele><time>2026-03-29T13:56:22.003Z</time></trkpt><trkpt lat="45.21120963891078" lon="9.374464331018283"><ele>74.0</ele><time>2026-03-29T13:56:23.003Z</time></trkpt><trkpt lat="45.2111677465505" lon="9.374307299242886"><ele>73.60000000000001</ele><time>2026-03-29T13:56:24.003Z</time></trkpt><trkpt lat="45.211128352008316" lon="9.374163849243056"><ele>73.2</ele><time>2026-03-29T13:56:25.003Z</time></trkpt><trkpt lat="45.211091504153536" lon="9.374031798938073"><ele>72.80000000000001</ele><time>2026-03-29T13:56:26.003Z</time></trkpt><trkpt lat="45.21105609614065" lon="9.37390232900646"><ele>72.4</ele><time>2026-03-29T13:56:27.003Z</time></trkpt><trkpt lat="45.21101977632834" lon="9.373763698392667"><ele>72.0</ele><time>2026-03-29T13:56:28.003Z</time></trkpt><trkpt lat="45.21098154212861" lon="9.373599798469414"><ele>71.75</ele><time>2026-03-29T13:56:29.003Z</time></trkpt><trkpt lat="45.21094128640037" lon="9.373422944726842"><ele>71.5</ele><time>2026-03-29T13:56:30.003Z</time></trkpt><trkpt lat="45.21089990168629" lon="9.373240378856323"><ele>71.25</ele><time>2026-03-29T13:56:31.003Z</time></trkpt><trkpt lat="45.21086074606096" lon="9.373078126009496"><ele>71.0</ele><time>2026-03-29T13:56:32.003Z</time></trkpt><trkpt lat="45.21082181418345" lon="9.372916031083216"><ele>71.0</ele><time>2026-03-29T13:56:33.003Z</time></trkpt><trkpt lat="45.21077403348841" lon="9.372746382404639"><ele>71.0</ele><time>2026-03-29T13:56:34.003Z</time></trkpt><trkpt lat="45.21072697906149" lon="9.37258055585777"><ele>71.0</ele><time>2026-03-29T13:56:35.003Z</time></trkpt><trkpt lat="45.21067442663923" lon="9.372422264798471"><ele>71.0</ele><time>2026-03-29T13:56:36.003Z</time></trkpt><trkpt lat="45.21061829144819" lon="9.372273540737075"><ele>71.2</ele><time>2026-03-29T13:56:37.003Z</time></trkpt><trkpt lat="45.210567515126726" lon="9.372133282718904"><ele>71.39999999999999</ele><time>2026-03-29T13:56:38.003Z</time></trkpt><trkpt lat="45.2105143969537" lon="9.37198984758589"><ele>71.6</ele><time>2026-03-29T13:56:39.003Z</time></trkpt><trkpt lat="45.21045833600094" lon="9.371855292451228"><ele>71.8</ele><time>2026-03-29T13:56:40.003Z</time></trkpt><trkpt lat="45.21040598466578" lon="9.371725826222448"><ele>72.0</ele><time>2026-03-29T13:56:41.003Z</time></trkpt><trkpt lat="45.210352381451976" lon="9.371609755030947"><ele>72.0</ele><time>2026-03-29T13:56:42.003Z</time></trkpt><trkpt lat="45.21030767435531" lon="9.371505452744255"><ele>72.0</ele><time>2026-03-29T13:56:43Z</time></trkpt><trkpt lat="45.2102672004425" lon="9.371405967762353"><ele>72.0</ele><time>2026-03-29T13:56:44Z</time></trkpt><trkpt lat="45.210235292511015" lon="9.371323421893948"><ele>72.0</ele><time>2026-03-29T13:56:45Z</time></trkpt><trkpt lat="45.21020856488324" lon="9.371206152763897"><ele>72.0</ele><time>2026-03-29T13:56:47Z</time></trkpt><trkpt lat="45.21025974937755" lon="9.371091534218724"><ele>72.0</ele><time>2026-03-29T13:56:49Z</time></trkpt><trkpt lat="45.210315367260144" lon="9.371022124344016"><ele>72.0</ele><time>2026-03-29T13:56:50Z</time></trkpt><trkpt lat="45.21038529703255" lon="9.37092446520967"><ele>72.0</ele><time>2026-03-29T13:56:51Z</time></trkpt><trkpt lat="45.21045310571379" lon="9.37082645251401"><ele>72.0</ele><time>2026-03-29T13:56:52Z</time></trkpt><trkpt lat="45.21053192208101" lon="9.370706930227026"><ele>72.0</ele><time>2026-03-29T13:56:53Z</time></trkpt><trkpt lat="45.21062212941205" lon="9.370573201640578"><ele>72.0</ele><time>2026-03-29T13:56:54Z</time></trkpt><trkpt lat="45.210702046775424" lon="9.370448693903613"><ele>72.25</ele><time>2026-03-29T13:56:55Z</time></trkpt><trkpt lat="45.210782477245026" lon="9.370318513443989"><ele>72.5</ele><time>2026-03-29T13:56:56Z</time></trkpt><trkpt lat="45.21086548701428" lon="9.370176795538844"><ele>72.75</ele><time>2026-03-29T13:56:57Z</time></trkpt><trkpt lat="45.210952886095406" lon="9.370027688594071"><ele>73.0</ele><time>2026-03-29T13:56:58Z</time></trkpt><trkpt lat="45.21104035723965" lon="9.369869056631533"><ele>73.0</ele><time>2026-03-29T13:56:59Z</time></trkpt><trkpt lat="45.2111328415063" lon="9.369708046029317"><ele>73.0</ele><time>2026-03-29T13:57:00Z</time></trkpt><trkpt lat="45.21121819494878" lon="9.369541693515975"><ele>73.0</ele><time>2026-03-29T13:57:01Z</time></trkpt><trkpt lat="45.21129736711596" lon="9.369378037352108"><ele>73.0</ele><time>2026-03-29T13:57:02Z</time></trkpt><trkpt lat="45.21136970728938" lon="9.369227177095308"><ele>73.0</ele><time>2026-03-29T13:57:03Z</time></trkpt><trkpt lat="45.21143260897787" lon="9.369094678442751"><ele>73.0</ele><time>2026-03-29T13:57:04Z</time></trkpt><trkpt lat="45.211487787861095" lon="9.368975809526603"><ele>73.0</ele><time>2026-03-29T13:57:05Z</time></trkpt><trkpt lat="45.21154080691325" lon="9.36886796515452"><ele>73.0</ele><time>2026-03-29T13:57:06Z</time></trkpt><trkpt lat="45.21159868029322" lon="9.368769768641835"><ele>73.0</ele><time>2026-03-29T13:57:07Z</time></trkpt><trkpt lat="45.211660240424145" lon="9.368697325823467"><ele>73.0</ele><time>2026-03-29T13:57:08Z</time></trkpt><trkpt lat="45.211731968632314" lon="9.368642118993584"><ele>73.0</ele><time>2026-03-29T13:57:09Z</time></trkpt><trkpt lat="45.211811435338" lon="9.368565202678308"><ele>73.0</ele><time>2026-03-29T13:57:10Z</time></trkpt><trkpt lat="45.211869604848765" lon="9.368452999855394"><ele>73.0</ele><time>2026-03-29T13:57:11Z</time></trkpt><trkpt lat="45.211903156385056" lon="9.368306576021054"><ele>73.0</ele><time>2026-03-29T13:57:12Z</time></trkpt><trkpt lat="45.21192991351694" lon="9.368137258992782"><ele>73.0</ele><time>2026-03-29T13:57:13Z</time></trkpt><trkpt lat="45.21197655856701" lon="9.367975209401495"><ele>73.0</ele><time>2026-03-29T13:57:14.001Z</time></trkpt><trkpt lat="45.212052360429304" lon="9.367817051501246"><ele>73.0</ele><time>2026-03-29T13:57:15.001Z</time></trkpt><trkpt lat="45.212140096066555" lon="9.367645150438731"><ele>73.0</ele><time>2026-03-29T13:57:16.001Z</time></trkpt><trkpt lat="45.21224178524325" lon="9.367483320754262"><ele>73.0</ele><time>2026-03-29T13:57:17.001Z</time></trkpt><trkpt lat="45.21235373350351" lon="9.367330717968704"><ele>73.0</ele><time>2026-03-29T13:57:18.001Z</time></trkpt><trkpt lat="45.212461788977606" lon="9.36719233013494"><ele>73.0</ele><time>2026-03-29T13:57:19.001Z</time></trkpt><trkpt lat="45.21255906333157" lon="9.367057791445971"><ele>73.0</ele><time>2026-03-29T13:57:20.001Z</time></trkpt><trkpt lat="45.212660102376056" lon="9.366916274070071"><ele>73.0</ele><time>2026-03-29T13:57:21.001Z</time></trkpt><trkpt lat="45.21276932071765" lon="9.366778785107043"><ele>73.0</ele><time>2026-03-29T13:57:22.001Z</time></trkpt><trkpt lat="45.212884385592076" lon="9.366640749683244"><ele>73.0</ele><time>2026-03-29T13:57:23.001Z</time></trkpt><trkpt lat="45.21298985118546" lon="9.366520599083769"><ele>73.0</ele><time>2026-03-29T13:57:24.001Z</time></trkpt><trkpt lat="45.21308720040233" lon="9.366416511985749"><ele>73.16666666666666</ele><time>2026-03-29T13:57:25.001Z</time></trkpt><trkpt lat="45.213184410354856" lon="9.366325044009871"><ele>73.33333333333333</ele><time>2026-03-29T13:57:26.001Z</time></trkpt><trkpt lat="45.21326569734495" lon="9.366260128237899"><ele>73.5</ele><time>2026-03-29T13:57:27.001Z</time></trkpt><trkpt lat="45.21333581979754" lon="9.366233439108786"><ele>73.66666666666667</ele><time>2026-03-29T13:57:28.001Z</time></trkpt><trkpt lat="45.21340207290605" lon="9.36624064732219"><ele>73.83333333333334</ele><time>2026-03-29T13:57:29.001Z</time></trkpt><trkpt lat="45.21346637044204" lon="9.366265090769186"><ele>74.0</ele><time>2026-03-29T13:57:30.001Z</time></trkpt><trkpt lat="45.21353213777649" lon="9.366271145826337"><ele>74.0</ele><time>2026-03-29T13:57:31.001Z</time></trkpt><trkpt lat="45.213599526634596" lon="9.366234699789445"><ele>74.0</ele><time>2026-03-29T13:57:32.001Z</time></trkpt><trkpt lat="45.21365607560027" lon="9.366157673706036"><ele>74.0</ele><time>2026-03-29T13:57:33.001Z</time></trkpt><trkpt lat="45.21369485892085" lon="9.366050748246098"><ele>74.0</ele><time>2026-03-29T13:57:34.001Z</time></trkpt><trkpt lat="45.21372331270102" lon="9.365939075095246"><ele>74.0</ele><time>2026-03-29T13:57:35.001Z</time></trkpt><trkpt lat="45.21377309525514" lon="9.365839769372931"><ele>74.0</ele><time>2026-03-29T13:57:36.001Z</time></trkpt><trkpt lat="45.21385379906556" lon="9.36575681986698"><ele>74.0</ele><time>2026-03-29T13:57:37.001Z</time></trkpt><trkpt lat="45.213948634110736" lon="9.365663050570728"><ele>74.0</ele><time>2026-03-29T13:57:38.001Z</time></trkpt><trkpt lat="45.21403671831487" lon="9.365570421618346"><ele>74.0</ele><time>2026-03-29T13:57:39.001Z</time></trkpt><trkpt lat="45.21411304977132" lon="9.365470460909645"><ele>74.0</ele><time>2026-03-29T13:57:40.001Z</time></trkpt><trkpt lat="45.214188772985615" lon="9.365362631453785"><ele>74.0</ele><time>2026-03-29T13:57:41.001Z</time></trkpt><trkpt lat="45.214271936268034" lon="9.365248072635396"><ele>73.4</ele><time>2026-03-29T13:57:42.001Z</time></trkpt><trkpt lat="45.2143488945561" lon="9.365139706131858"><ele>72.80000000000001</ele><time>2026-03-29T13:57:43.001Z</time></trkpt><trkpt lat="45.21442193724174" lon="9.365033254975891"><ele>72.19999999999999</ele><time>2026-03-29T13:57:44.001Z</time></trkpt><trkpt lat="45.21449689071855" lon="9.364920537853772"><ele>71.6</ele><time>2026-03-29T13:57:45.001Z</time></trkpt><trkpt lat="45.21457027920108" lon="9.364792834068727"><ele>71.0</ele><time>2026-03-29T13:57:46.002Z</time></trkpt><trkpt lat="45.21464253322901" lon="9.364664816378514"><ele>71.0</ele><time>2026-03-29T13:57:47.002Z</time></trkpt><trkpt lat="45.21471738313237" lon="9.364527752314503"><ele>71.0</ele><time>2026-03-29T13:57:48.002Z</time></trkpt><trkpt lat="45.214796572490826" lon="9.364390258299212"><ele>71.0</ele><time>2026-03-29T13:57:49.002Z</time></trkpt><trkpt lat="45.214879218904244" lon="9.364250122104409"><ele>71.0</ele><time>2026-03-29T13:57:50.002Z</time></trkpt><trkpt lat="45.21496587610648" lon="9.364109281786066"><ele>71.0</ele><time>2026-03-29T13:57:51.002Z</time></trkpt><trkpt lat="45.21505142025272" lon="9.363964032185107"><ele>71.0</ele><time>2026-03-29T13:57:52.002Z</time></trkpt><trkpt lat="45.21513525981107" lon="9.363820495269952"><ele>71.0</ele><time>2026-03-29T13:57:53.002Z</time></trkpt><trkpt lat="45.215213828763716" lon="9.363677055636176"><ele>71.0</ele><time>2026-03-29T13:57:54.002Z</time></trkpt><trkpt lat="45.215287896833686" lon="9.363539333832293"><ele>70.75</ele><time>2026-03-29T13:57:55.002Z</time></trkpt><trkpt lat="45.21537187602125" lon="9.363410238626015"><ele>70.5</ele><time>2026-03-29T13:57:56.002Z</time></trkpt><trkpt lat="45.2154591087046" lon="9.363283927297202"><ele>70.25</ele><time>2026-03-29T13:57:57.002Z</time></trkpt><trkpt lat="45.21554516114658" lon="9.363160030846664"><ele>70.0</ele><time>2026-03-29T13:57:58.002Z</time></trkpt><trkpt lat="45.2156345616632" lon="9.363035805664024"><ele>70.0</ele><time>2026-03-29T13:57:59.002Z</time></trkpt><trkpt lat="45.21572047212006" lon="9.36291379330759"><ele>70.0</ele><time>2026-03-29T13:58:00.002Z</time></trkpt><trkpt lat="45.21579595824972" lon="9.36278216976643"><ele>70.0</ele><time>2026-03-29T13:58:01.002Z</time></trkpt><trkpt lat="45.21589115310948" lon="9.362655612235226"><ele>70.0</ele><time>2026-03-29T13:58:02.002Z</time></trkpt><trkpt lat="45.21598699176715" lon="9.362537715484402"><ele>70.0</ele><time>2026-03-29T13:58:03.002Z</time></trkpt><trkpt lat="45.21607172203801" lon="9.362426606210402"><ele>70.0</ele><time>2026-03-29T13:58:04.002Z</time></trkpt><trkpt lat="45.216151266466376" lon="9.36232701925633"><ele>70.0</ele><time>2026-03-29T13:58:05.002Z</time></trkpt><trkpt lat="45.21621848197015" lon="9.362248163657565"><ele>70.0</ele><time>2026-03-29T13:58:06.002Z</time></trkpt><trkpt lat="45.21631131299776" lon="9.362136987209709"><ele>70.0</ele><time>2026-03-29T13:58:32.003Z</time></trkpt><trkpt lat="45.216365086415" lon="9.362051438747333"><ele>70.0</ele><time>2026-03-29T13:58:33.003Z</time></trkpt><trkpt lat="45.21640452913684" lon="9.361964043999164"><ele>70.0</ele><time>2026-03-29T13:58:34.003Z</time></trkpt><trkpt lat="45.2164471683536" lon="9.361876252171044"><ele>70.0</ele><time>2026-03-29T13:58:35.003Z</time></trkpt><trkpt lat="45.216503962891494" lon="9.361824822231966"><ele>70.0</ele><time>2026-03-29T13:58:36.003Z</time></trkpt><trkpt lat="45.216572909332896" lon="9.361768001310967"><ele>70.0</ele><time>2026-03-29T13:58:37.003Z</time></trkpt><trkpt lat="45.21665167373978" lon="9.361702774298665"><ele>70.0</ele><time>2026-03-29T13:58:38.003Z</time></trkpt><trkpt lat="45.216741465653115" lon="9.361626517647922"><ele>69.8</ele><time>2026-03-29T13:58:39.003Z</time></trkpt><trkpt lat="45.216838237545446" lon="9.361534096665642"><ele>69.6</ele><time>2026-03-29T13:58:40.003Z</time></trkpt><trkpt lat="45.21691923943265" lon="9.361452407942076"><ele>69.4</ele><time>2026-03-29T13:58:41.003Z</time></trkpt><trkpt lat="45.21699498699444" lon="9.361378708601947"><ele>69.2</ele><time>2026-03-29T13:58:42.003Z</time></trkpt><trkpt lat="45.2170727550149" lon="9.361309245812901"><ele>69.0</ele><time>2026-03-29T13:58:43.003Z</time></trkpt><trkpt lat="45.21714222946745" lon="9.36123957039693"><ele>68.8</ele><time>2026-03-29T13:58:44.003Z</time></trkpt><trkpt lat="45.21721841468641" lon="9.361168508825457"><ele>68.60000000000001</ele><time>2026-03-29T13:58:45.003Z</time></trkpt><trkpt lat="45.21729298783424" lon="9.361092218534797"><ele>68.4</ele><time>2026-03-29T13:58:46.003Z</time></trkpt><trkpt lat="45.21736546887125" lon="9.361009655326951"><ele>68.2</ele><time>2026-03-29T13:58:47.003Z</time></trkpt><trkpt lat="45.21744198341542" lon="9.360937182023413"><ele>68.0</ele><time>2026-03-29T13:58:48.003Z</time></trkpt><trkpt lat="45.217511955542236" lon="9.360867240536722"><ele>68.4</ele><time>2026-03-29T13:58:49Z</time></trkpt><trkpt lat="45.21758013195594" lon="9.36079652937624"><ele>68.8</ele><time>2026-03-29T13:58:50Z</time></trkpt><trkpt lat="45.21764482008356" lon="9.360742046363377"><ele>69.2</ele><time>2026-03-29T13:58:51Z</time></trkpt><trkpt lat="45.21774832784978" lon="9.360704924607449"><ele>69.6</ele><time>2026-03-29T13:58:53Z</time></trkpt><trkpt lat="45.217823292765495" lon="9.360682135512532"><ele>70.0</ele><time>2026-03-29T13:58:55Z</time></trkpt><trkpt lat="45.217994675290505" lon="9.36093936323066"><ele>70.0</ele><time>2026-03-29T13:58:57Z</time></trkpt><trkpt lat="45.2180899771174" lon="9.361017349228584"><ele>70.0</ele><time>2026-03-29T13:58:58Z</time></trkpt><trkpt lat="45.21817874749986" lon="9.361122136985593"><ele>70.0</ele><time>2026-03-29T13:58:59Z</time></trkpt><trkpt lat="45.21826573307892" lon="9.36124971734287"><ele>70.0</ele><time>2026-03-29T13:59:00Z</time></trkpt><trkpt lat="45.218370518736414" lon="9.361345953998393"><ele>70.6</ele><time>2026-03-29T13:59:01Z</time></trkpt><trkpt lat="45.218464884748485" lon="9.361454523182132"><ele>71.2</ele><time>2026-03-29T13:59:02Z</time></trkpt><trkpt lat="45.21854739818389" lon="9.361574264555646"><ele>71.8</ele><time>2026-03-29T13:59:03Z</time></trkpt><trkpt lat="45.21861676243916" lon="9.361686613486928"><ele>72.4</ele><time>2026-03-29T13:59:04Z</time></trkpt><trkpt lat="45.21867646228435" lon="9.361796719161998"><ele>73.0</ele><time>2026-03-29T13:59:05Z</time></trkpt><trkpt lat="45.21872667936522" lon="9.361923485208392"><ele>73.0</ele><time>2026-03-29T13:59:06Z</time></trkpt><trkpt lat="45.21880736012219" lon="9.362023565684211"><ele>73.0</ele><time>2026-03-29T13:59:07Z</time></trkpt><trkpt lat="45.218876088388626" lon="9.36213155618611"><ele>73.0</ele><time>2026-03-29T13:59:08Z</time></trkpt><trkpt lat="45.21893299414974" lon="9.362237588887634"><ele>73.0</ele><time>2026-03-29T13:59:09Z</time></trkpt><trkpt lat="45.21899827151496" lon="9.362322202515397"><ele>73.0</ele><time>2026-03-29T13:59:10Z</time></trkpt><trkpt lat="45.21906293050345" lon="9.36241064312643"><ele>72.66666666666666</ele><time>2026-03-29T13:59:11Z</time></trkpt><trkpt lat="45.21912494696914" lon="9.362489375688604"><ele>72.33333333333333</ele><time>2026-03-29T13:59:12Z</time></trkpt><trkpt lat="45.21918186978247" lon="9.362558484356315"><ele>72.0</ele><time>2026-03-29T13:59:13Z</time></trkpt><trkpt lat="45.21923430420182" lon="9.362647509937126"><ele>71.66666666666667</ele><time>2026-03-29T13:59:14Z</time></trkpt><trkpt lat="45.21931608137448" lon="9.362708081772169"><ele>71.33333333333334</ele><time>2026-03-29T13:59:15Z</time></trkpt><trkpt lat="45.219397255545765" lon="9.362788407866152"><ele>71.0</ele><time>2026-03-29T13:59:16Z</time></trkpt><trkpt lat="45.21950213783203" lon="9.362863804368756"><ele>71.0</ele><time>2026-03-29T13:59:17Z</time></trkpt><trkpt lat="45.219604231100604" lon="9.362964539907804"><ele>71.0</ele><time>2026-03-29T13:59:18.001Z</time></trkpt><trkpt lat="45.21970517579738" lon="9.363051624114796"><ele>71.0</ele><time>2026-03-29T13:59:19.001Z</time></trkpt><trkpt lat="45.219808205683655" lon="9.3631309235059"><ele>71.0</ele><time>2026-03-29T13:59:20.001Z</time></trkpt><trkpt lat="45.2199172642823" lon="9.363212090601374"><ele>70.8</ele><time>2026-03-29T13:59:21.001Z</time></trkpt><trkpt lat="45.22002696760124" lon="9.363295237276885"><ele>70.6</ele><time>2026-03-29T13:59:22.001Z</time></trkpt><trkpt lat="45.22011863914045" lon="9.36336291568088"><ele>70.4</ele><time>2026-03-29T13:59:23.001Z</time></trkpt><trkpt lat="45.22020042202985" lon="9.36342397030955"><ele>70.2</ele><time>2026-03-29T13:59:24.001Z</time></trkpt><trkpt lat="45.22026612025886" lon="9.363494614956167"><ele>70.0</ele><time>2026-03-29T13:59:25.001Z</time></trkpt><trkpt lat="45.22032586278977" lon="9.363603835237686"><ele>70.0</ele><time>2026-03-29T13:59:26.001Z</time></trkpt><trkpt lat="45.22040199972609" lon="9.363707684685297"><ele>70.0</ele><time>2026-03-29T13:59:27.001Z</time></trkpt><trkpt lat="45.220481506459635" lon="9.363797670156563"><ele>70.0</ele><time>2026-03-29T13:59:28.001Z</time></trkpt><trkpt lat="45.220554759439416" lon="9.363867276860802"><ele>70.0</ele><time>2026-03-29T13:59:29.001Z</time></trkpt><trkpt lat="45.22062617867691" lon="9.363935497222457"><ele>70.0</ele><time>2026-03-29T13:59:30.001Z</time></trkpt><trkpt lat="45.22068732875655" lon="9.363988191663081"><ele>70.2</ele><time>2026-03-29T13:59:31.001Z</time></trkpt><trkpt lat="45.220775480774925" lon="9.363949712951062"><ele>70.4</ele><time>2026-03-29T13:59:32.001Z</time></trkpt><trkpt lat="45.22086901127103" lon="9.363929415305682"><ele>70.6</ele><time>2026-03-29T13:59:33.001Z</time></trkpt><trkpt lat="45.22097266709157" lon="9.363905354179265"><ele>70.8</ele><time>2026-03-29T13:59:34.001Z</time></trkpt><trkpt lat="45.22107696778449" lon="9.363861817035628"><ele>71.0</ele><time>2026-03-29T13:59:35.001Z</time></trkpt><trkpt lat="45.22119566151468" lon="9.363870066043434"><ele>71.2</ele><time>2026-03-29T13:59:36.001Z</time></trkpt><trkpt lat="45.22131048018307" lon="9.363843215468272"><ele>71.39999999999999</ele><time>2026-03-29T13:59:37.001Z</time></trkpt><trkpt lat="45.22141186858975" lon="9.363825618594694"><ele>71.6</ele><time>2026-03-29T13:59:38.001Z</time></trkpt><trkpt lat="45.22150100939147" lon="9.363812928921138"><ele>71.8</ele><time>2026-03-29T13:59:39.001Z</time></trkpt><trkpt lat="45.221583650744485" lon="9.36379591656549"><ele>72.0</ele><time>2026-03-29T13:59:40.001Z</time></trkpt><trkpt lat="45.221665370644445" lon="9.363776463415787"><ele>72.0</ele><time>2026-03-29T13:59:41.001Z</time></trkpt><trkpt lat="45.221752248294905" lon="9.363757559616252"><ele>72.0</ele><time>2026-03-29T13:59:42.001Z</time></trkpt><trkpt lat="45.2218226046522" lon="9.363681682980145"><ele>72.0</ele><time>2026-03-29T13:59:43.001Z</time></trkpt><trkpt lat="45.22188751772037" lon="9.363548448797285"><ele>72.0</ele><time>2026-03-29T13:59:44.001Z</time></trkpt><trkpt lat="45.22195246779708" lon="9.363422111637576"><ele>72.0</ele><time>2026-03-29T13:59:45.001Z</time></trkpt><trkpt lat="45.222015948308844" lon="9.363318463421205"><ele>72.0</ele><time>2026-03-29T13:59:46.001Z</time></trkpt><trkpt lat="45.222078521148724" lon="9.363253151075023"><ele>72.0</ele><time>2026-03-29T13:59:47.001Z</time></trkpt><trkpt lat="45.22214250768602" lon="9.36318334876545"><ele>72.0</ele><time>2026-03-29T13:59:48.001Z</time></trkpt><trkpt lat="45.222213751321505" lon="9.363133465973538"><ele>72.0</ele><time>2026-03-29T13:59:49.001Z</time></trkpt><trkpt lat="45.22228983705697" lon="9.363105547366919"><ele>72.0</ele><time>2026-03-29T13:59:50.001Z</time></trkpt><trkpt lat="45.22237429136174" lon="9.363084430408241"><ele>72.0</ele><time>2026-03-29T13:59:51.002Z</time></trkpt><trkpt lat="45.222480310188914" lon="9.363068717808694"><ele>72.0</ele><time>2026-03-29T13:59:52.002Z</time></trkpt><trkpt lat="45.2225862608428" lon="9.363043329641023"><ele>72.0</ele><time>2026-03-29T13:59:53.002Z</time></trkpt><trkpt lat="45.22270642006912" lon="9.363016262849195"><ele>72.0</ele><time>2026-03-29T13:59:54.002Z</time></trkpt><trkpt lat="45.2228285051699" lon="9.362977248557161"><ele>72.0</ele><time>2026-03-29T13:59:55.002Z</time></trkpt><trkpt lat="45.22295607387238" lon="9.362930304858722"><ele>71.75</ele><time>2026-03-29T13:59:56.002Z</time></trkpt><trkpt lat="45.223092772062756" lon="9.36287105062474"><ele>71.5</ele><time>2026-03-29T13:59:57.002Z</time></trkpt><trkpt lat="45.223226205021525" lon="9.362830215300749"><ele>71.25</ele><time>2026-03-29T13:59:58.002Z</time></trkpt><trkpt lat="45.223352377312104" lon="9.362797933693077"><ele>71.0</ele><time>2026-03-29T13:59:59.002Z</time></trkpt><trkpt lat="45.223489600432984" lon="9.362772194724066"><ele>71.0</ele><time>2026-03-29T14:00:00.002Z</time></trkpt><trkpt lat="45.22362807180712" lon="9.362750245725646"><ele>71.0</ele><time>2026-03-29T14:00:01.002Z</time></trkpt><trkpt lat="45.223777808188764" lon="9.362726544012506"><ele>71.0</ele><time>2026-03-29T14:00:02.002Z</time></trkpt><trkpt lat="45.22392866407136" lon="9.362704595626923"><ele>71.0</ele><time>2026-03-29T14:00:03.002Z</time></trkpt><trkpt lat="45.22407585596043" lon="9.362690841528742"><ele>71.0</ele><time>2026-03-29T14:00:04.002Z</time></trkpt><trkpt lat="45.22421595466001" lon="9.362686854330102"><ele>71.0</ele><time>2026-03-29T14:00:05.002Z</time></trkpt><trkpt lat="45.22435823904854" lon="9.362693481305856"><ele>71.0</ele><time>2026-03-29T14:00:06.002Z</time></trkpt><trkpt lat="45.22449008957932" lon="9.362708215957074"><ele>71.0</ele><time>2026-03-29T14:00:07.002Z</time></trkpt><trkpt lat="45.22460998277042" lon="9.362727049286049"><ele>71.0</ele><time>2026-03-29T14:00:08.002Z</time></trkpt><trkpt lat="45.224721929880175" lon="9.362748715344038"><ele>71.0</ele><time>2026-03-29T14:00:09.002Z</time></trkpt><trkpt lat="45.224837265727764" lon="9.36276095829311"><ele>71.0</ele><time>2026-03-29T14:00:10.002Z</time></trkpt><trkpt lat="45.22494568869308" lon="9.362775939855554"><ele>71.0</ele><time>2026-03-29T14:00:11.002Z</time></trkpt><trkpt lat="45.225048043478175" lon="9.362792125266038"><ele>71.0</ele><time>2026-03-29T14:00:12.002Z</time></trkpt><trkpt lat="45.225139732390254" lon="9.362813958357812"><ele>71.0</ele><time>2026-03-29T14:00:13.002Z</time></trkpt><trkpt lat="45.22523177435424" lon="9.362834791144962"><ele>71.0</ele><time>2026-03-29T14:00:14.002Z</time></trkpt><trkpt lat="45.22530967114333" lon="9.362859660317433"><ele>71.0</ele><time>2026-03-29T14:00:15.002Z</time></trkpt><trkpt lat="45.22538454855321" lon="9.362888717137357"><ele>71.0</ele><time>2026-03-29T14:00:16.002Z</time></trkpt><trkpt lat="45.22545068036524" lon="9.362918901739972"><ele>71.0</ele><time>2026-03-29T14:00:17.002Z</time></trkpt><trkpt lat="45.225513698014716" lon="9.362956817125909"><ele>71.0</ele><time>2026-03-29T14:00:18.002Z</time></trkpt><trkpt lat="45.22557344334995" lon="9.362988948054872"><ele>71.0</ele><time>2026-03-29T14:00:19.002Z</time></trkpt><trkpt lat="45.22568261220906" lon="9.36303220831287"><ele>71.0</ele><time>2026-03-29T14:00:21.002Z</time></trkpt><trkpt lat="45.225750386119344" lon="9.363025559078366"><ele>71.0</ele><time>2026-03-29T14:00:22.002Z</time></trkpt><trkpt lat="45.225836597850154" lon="9.363002805314531"><ele>71.0</ele><time>2026-03-29T14:00:23.002Z</time></trkpt><trkpt lat="45.22592835497295" lon="9.362976017218802"><ele>71.0</ele><time>2026-03-29T14:00:24.002Z</time></trkpt><trkpt lat="45.22603505535323" lon="9.362949713368447"><ele>71.0</ele><time>2026-03-29T14:00:25.003Z</time></trkpt><trkpt lat="45.2261548056628" lon="9.362926006946918"><ele>71.0</ele><time>2026-03-29T14:00:26.003Z</time></trkpt><trkpt lat="45.22627220184903" lon="9.362913352511605"><ele>71.0</ele><time>2026-03-29T14:00:27.003Z</time></trkpt><trkpt lat="45.22637977266484" lon="9.362900396868689"><ele>71.0</ele><time>2026-03-29T14:00:28.003Z</time></trkpt><trkpt lat="45.226488831253135" lon="9.36287717163052"><ele>71.39999999999999</ele><time>2026-03-29T14:00:29.003Z</time></trkpt><trkpt lat="45.22658805553553" lon="9.36285666184417"><ele>71.8</ele><time>2026-03-29T14:00:30.003Z</time></trkpt><trkpt lat="45.22667753032572" lon="9.362827802827"><ele>72.19999999999999</ele><time>2026-03-29T14:00:31.003Z</time></trkpt><trkpt lat="45.22675701205573" lon="9.362796313622203"><ele>72.6</ele><time>2026-03-29T14:00:32.003Z</time></trkpt><trkpt lat="45.22684185180328" lon="9.362748056454798"><ele>73.0</ele><time>2026-03-29T14:00:33.003Z</time></trkpt><trkpt lat="45.22691680049492" lon="9.362694382048442"><ele>73.0</ele><time>2026-03-29T14:00:34.003Z</time></trkpt><trkpt lat="45.226986629701265" lon="9.362634976154657"><ele>73.0</ele><time>2026-03-29T14:00:35.003Z</time></trkpt><trkpt lat="45.227053170393354" lon="9.362566937183324"><ele>73.0</ele><time>2026-03-29T14:00:36.003Z</time></trkpt><trkpt lat="45.22711595727995" lon="9.362500845927498"><ele>73.0</ele><time>2026-03-29T14:00:37.003Z</time></trkpt><trkpt lat="45.22718416538839" lon="9.362422530961128"><ele>73.0</ele><time>2026-03-29T14:00:38.003Z</time></trkpt><trkpt lat="45.22725291570406" lon="9.362346570100248"><ele>73.0</ele><time>2026-03-29T14:00:39.003Z</time></trkpt><trkpt lat="45.22732142193327" lon="9.36228013366548"><ele>72.25</ele><time>2026-03-29T14:00:40.003Z</time></trkpt><trkpt lat="45.22741192880164" lon="9.362196490663903"><ele>71.5</ele><time>2026-03-29T14:00:41.003Z</time></trkpt><trkpt lat="45.227515699643575" lon="9.362110797442213"><ele>70.75</ele><time>2026-03-29T14:00:42.003Z</time></trkpt><trkpt lat="45.2276292414486" lon="9.362017381184696"><ele>70.0</ele><time>2026-03-29T14:00:43.003Z</time></trkpt><trkpt lat="45.22774439707066" lon="9.361910543292987"><ele>70.0</ele><time>2026-03-29T14:00:44.003Z</time></trkpt><trkpt lat="45.227863246164794" lon="9.361787058485959"><ele>70.0</ele><time>2026-03-29T14:00:45.003Z</time></trkpt><trkpt lat="45.22797944878738" lon="9.361661145026062"><ele>70.0</ele><time>2026-03-29T14:00:46.003Z</time></trkpt><trkpt lat="45.22809805695135" lon="9.361535790540568"><ele>70.0</ele><time>2026-03-29T14:00:47.003Z</time></trkpt><trkpt lat="45.22820856299461" lon="9.361430410450884"><ele>70.25</ele><time>2026-03-29T14:00:48.003Z</time></trkpt><trkpt lat="45.22831828083573" lon="9.361332917222656"><ele>70.5</ele><time>2026-03-29T14:00:49.003Z</time></trkpt><trkpt lat="45.228429631991524" lon="9.361244955579247"><ele>70.75</ele><time>2026-03-29T14:00:50.003Z</time></trkpt><trkpt lat="45.22854190518981" lon="9.361160958063763"><ele>71.0</ele><time>2026-03-29T14:00:51.003Z</time></trkpt><trkpt lat="45.22864904334475" lon="9.361080189064383"><ele>71.0</ele><time>2026-03-29T14:00:52.003Z</time></trkpt><trkpt lat="45.22874742498718" lon="9.360984655349176"><ele>71.0</ele><time>2026-03-29T14:00:53.003Z</time></trkpt><trkpt lat="45.228838598324806" lon="9.360873263996837"><ele>71.0</ele><time>2026-03-29T14:00:54.003Z</time></trkpt><trkpt lat="45.22892559706119" lon="9.360745421791826"><ele>71.0</ele><time>2026-03-29T14:00:55Z</time></trkpt><trkpt lat="45.22901088505657" lon="9.36059873860523"><ele>71.5</ele><time>2026-03-29T14:00:56Z</time></trkpt><trkpt lat="45.22908980630032" lon="9.360443635847544"><ele>72.0</ele><time>2026-03-29T14:00:57Z</time></trkpt><trkpt lat="45.22917220959512" lon="9.360289679245819"><ele>72.5</ele><time>2026-03-29T14:00:58Z</time></trkpt><trkpt lat="45.22924371483846" lon="9.360159695740117"><ele>73.0</ele><time>2026-03-29T14:00:59Z</time></trkpt><trkpt lat="45.229316607039166" lon="9.360030621354907"><ele>73.0</ele><time>2026-03-29T14:01:00Z</time></trkpt><trkpt lat="45.22939341116304" lon="9.359906529531317"><ele>73.0</ele><time>2026-03-29T14:01:01Z</time></trkpt><trkpt lat="45.229485230569985" lon="9.359788253262982"><ele>73.0</ele><time>2026-03-29T14:01:02Z</time></trkpt><trkpt lat="45.229592984507455" lon="9.359683685998755"><ele>73.0</ele><time>2026-03-29T14:01:03Z</time></trkpt><trkpt lat="45.22971174149922" lon="9.35958257054864"><ele>72.66666666666666</ele><time>2026-03-29T14:01:04Z</time></trkpt><trkpt lat="45.22983700637732" lon="9.359465713824466"><ele>72.33333333333333</ele><time>2026-03-29T14:01:05Z</time></trkpt><trkpt lat="45.229973528619254" lon="9.359345157779641"><ele>72.0</ele><time>2026-03-29T14:01:06Z</time></trkpt><trkpt lat="45.23011637156486" lon="9.359235206790753"><ele>72.0</ele><time>2026-03-29T14:01:07Z</time></trkpt><trkpt lat="45.23026880787843" lon="9.359125659011688"><ele>72.0</ele><time>2026-03-29T14:01:08Z</time></trkpt><trkpt lat="45.23042055093197" lon="9.359027163553527"><ele>72.0</ele><time>2026-03-29T14:01:09Z</time></trkpt><trkpt lat="45.230572449786024" lon="9.358928403268298"><ele>72.33333333333333</ele><time>2026-03-29T14:01:10Z</time></trkpt><trkpt lat="45.230723104312204" lon="9.35883546090736"><ele>72.66666666666666</ele><time>2026-03-29T14:01:11Z</time></trkpt><trkpt lat="45.23086046372878" lon="9.358749719752447"><ele>73.0</ele><time>2026-03-29T14:01:12Z</time></trkpt><trkpt lat="45.231017517601245" lon="9.358660323055608"><ele>73.0</ele><time>2026-03-29T14:01:13Z</time></trkpt><trkpt lat="45.231174651369116" lon="9.358569036489843"><ele>73.0</ele><time>2026-03-29T14:01:14Z</time></trkpt><trkpt lat="45.23132203854963" lon="9.358485494594822"><ele>73.0</ele><time>2026-03-29T14:01:15Z</time></trkpt><trkpt lat="45.231476079569255" lon="9.358401429342775"><ele>72.33333333333333</ele><time>2026-03-29T14:01:16Z</time></trkpt><trkpt lat="45.23162698515565" lon="9.358317562617607"><ele>71.66666666666667</ele><time>2026-03-29T14:01:17Z</time></trkpt><trkpt lat="45.23176111104006" lon="9.35823602627795"><ele>71.0</ele><time>2026-03-29T14:01:18Z</time></trkpt><trkpt lat="45.231894061214994" lon="9.358148799446703"><ele>71.0</ele><time>2026-03-29T14:01:19Z</time></trkpt><trkpt lat="45.23202498215484" lon="9.35806021609559"><ele>71.0</ele><time>2026-03-29T14:01:20Z</time></trkpt><trkpt lat="45.232139543545486" lon="9.357977700574143"><ele>71.0</ele><time>2026-03-29T14:01:21Z</time></trkpt><trkpt lat="45.23224920442521" lon="9.357897649222757"><ele>71.0</ele><time>2026-03-29T14:01:22Z</time></trkpt><trkpt lat="45.232350763143245" lon="9.357831583665119"><ele>71.6</ele><time>2026-03-29T14:01:23Z</time></trkpt><trkpt lat="45.23244832724513" lon="9.357764388519145"><ele>72.19999999999999</ele><time>2026-03-29T14:01:24Z</time></trkpt><trkpt lat="45.232528514840226" lon="9.35769721639057"><ele>72.80000000000001</ele><time>2026-03-29T14:01:25.001Z</time></trkpt><trkpt lat="45.232604631331036" lon="9.35763004777553"><ele>73.4</ele><time>2026-03-29T14:01:26.001Z</time></trkpt><trkpt lat="45.23267025287708" lon="9.357553976291703"><ele>74.0</ele><time>2026-03-29T14:01:27.001Z</time></trkpt><trkpt lat="45.23272648189894" lon="9.3574705865779"><ele>74.0</ele><time>2026-03-29T14:01:28.001Z</time></trkpt><trkpt lat="45.23278006404846" lon="9.35738128483738"><ele>74.0</ele><time>2026-03-29T14:01:29.001Z</time></trkpt><trkpt lat="45.232832719277994" lon="9.357291335795031"><ele>74.0</ele><time>2026-03-29T14:01:30.001Z</time></trkpt><trkpt lat="45.23288467932606" lon="9.357198842570558"><ele>74.0</ele><time>2026-03-29T14:01:31.001Z</time></trkpt><trkpt lat="45.23294926575352" lon="9.357100486273307"><ele>74.0</ele><time>2026-03-29T14:01:32.001Z</time></trkpt><trkpt lat="45.23302402380339" lon="9.35699819484757"><ele>74.0</ele><time>2026-03-29T14:01:33.001Z</time></trkpt><trkpt lat="45.23311286154207" lon="9.356893100792188"><ele>73.8</ele><time>2026-03-29T14:01:34.001Z</time></trkpt><trkpt lat="45.23320001563738" lon="9.35679771068845"><ele>73.60000000000001</ele><time>2026-03-29T14:01:35.001Z</time></trkpt><trkpt lat="45.233279661640005" lon="9.356709196267746"><ele>73.4</ele><time>2026-03-29T14:01:36.001Z</time></trkpt><trkpt lat="45.233356340444075" lon="9.35661450389006"><ele>73.2</ele><time>2026-03-29T14:01:37.001Z</time></trkpt><trkpt lat="45.23342330779997" lon="9.356509207256158"><ele>73.0</ele><time>2026-03-29T14:01:38.001Z</time></trkpt><trkpt lat="45.23347687416729" lon="9.356397540359255"><ele>73.0</ele><time>2026-03-29T14:01:39.001Z</time></trkpt><trkpt lat="45.23352426400379" lon="9.356279200729153"><ele>73.0</ele><time>2026-03-29T14:01:40.001Z</time></trkpt><trkpt lat="45.23356600419281" lon="9.356167752678887"><ele>73.0</ele><time>2026-03-29T14:01:41.001Z</time></trkpt><trkpt lat="45.233606786449826" lon="9.356058490690836"><ele>73.0</ele><time>2026-03-29T14:01:42.001Z</time></trkpt><trkpt lat="45.233646413944925" lon="9.355959765896246"><ele>73.0</ele><time>2026-03-29T14:01:43.001Z</time></trkpt><trkpt lat="45.23368614867422" lon="9.35586621373528"><ele>73.0</ele><time>2026-03-29T14:01:44.001Z</time></trkpt><trkpt lat="45.233733632691944" lon="9.355756463322642"><ele>73.0</ele><time>2026-03-29T14:01:46.001Z</time></trkpt><trkpt lat="45.2337617088969" lon="9.355614657610682"><ele>73.0</ele><time>2026-03-29T14:01:49.001Z</time></trkpt><trkpt lat="45.233782237027064" lon="9.355457040046517"><ele>73.0</ele><time>2026-03-29T14:01:51.001Z</time></trkpt><trkpt lat="45.23378960895989" lon="9.355364722059248"><ele>73.0</ele><time>2026-03-29T14:01:52.001Z</time></trkpt><trkpt lat="45.23357378911229" lon="9.355225026811208"><ele>73.0</ele><time>2026-03-29T14:01:53.001Z</time></trkpt><trkpt lat="45.23352778936001" lon="9.355116924688732"><ele>73.0</ele><time>2026-03-29T14:01:54.001Z</time></trkpt><trkpt lat="45.23346881566986" lon="9.354983339281524"><ele>73.0</ele><time>2026-03-29T14:01:55.001Z</time></trkpt><trkpt lat="45.233427725482215" lon="9.354868042390526"><ele>73.0</ele><time>2026-03-29T14:01:56.001Z</time></trkpt><trkpt lat="45.233383490160804" lon="9.354760852580279"><ele>73.0</ele><time>2026-03-29T14:01:57.001Z</time></trkpt><trkpt lat="45.233324317581186" lon="9.35462166153146"><ele>73.0</ele><time>2026-03-29T14:01:58.001Z</time></trkpt><trkpt lat="45.233266076395374" lon="9.354487837646312"><ele>73.0</ele><time>2026-03-29T14:01:59.001Z</time></trkpt><trkpt lat="45.23321421341301" lon="9.354359288684456"><ele>73.0</ele><time>2026-03-29T14:02:00.001Z</time></trkpt><trkpt lat="45.233159327049435" lon="9.354222507720324"><ele>73.0</ele><time>2026-03-29T14:02:01.002Z</time></trkpt><trkpt lat="45.23311499276293" lon="9.354115379679735"><ele>73.0</ele><time>2026-03-29T14:02:02.002Z</time></trkpt><trkpt lat="45.23306772219261" lon="9.35400213079036"><ele>73.0</ele><time>2026-03-29T14:02:03.002Z</time></trkpt><trkpt lat="45.233017986236646" lon="9.353888381198232"><ele>73.0</ele><time>2026-03-29T14:02:04.002Z</time></trkpt><trkpt lat="45.232964197043884" lon="9.353768235925456"><ele>73.0</ele><time>2026-03-29T14:02:05.002Z</time></trkpt><trkpt lat="45.23291298531376" lon="9.3536435225412"><ele>73.0</ele><time>2026-03-29T14:02:06.002Z</time></trkpt><trkpt lat="45.23285916406868" lon="9.353511660534755"><ele>73.0</ele><time>2026-03-29T14:02:07.002Z</time></trkpt><trkpt lat="45.23280574755215" lon="9.353391325709152"><ele>72.8</ele><time>2026-03-29T14:02:08.002Z</time></trkpt><trkpt lat="45.232750801893104" lon="9.35327061202617"><ele>72.6</ele><time>2026-03-29T14:02:09.002Z</time></trkpt><trkpt lat="45.23269248765294" lon="9.35314283468913"><ele>72.4</ele><time>2026-03-29T14:02:10.002Z</time></trkpt><trkpt lat="45.23263251643194" lon="9.352996108102191"><ele>72.2</ele><time>2026-03-29T14:02:11.002Z</time></trkpt><trkpt lat="45.23257493600907" lon="9.352862864437379"><ele>72.0</ele><time>2026-03-29T14:02:12.002Z</time></trkpt><trkpt lat="45.23251584157884" lon="9.352723195148586"><ele>72.0</ele><time>2026-03-29T14:02:13.002Z</time></trkpt><trkpt lat="45.23245647504014" lon="9.352584799143882"><ele>72.0</ele><time>2026-03-29T14:02:14.002Z</time></trkpt><trkpt lat="45.23239669827766" lon="9.35244271725751"><ele>72.0</ele><time>2026-03-29T14:02:15.002Z</time></trkpt><trkpt lat="45.232340201371656" lon="9.352305916068959"><ele>72.0</ele><time>2026-03-29T14:02:16.002Z</time></trkpt><trkpt lat="45.23228196010556" lon="9.352164924585974"><ele>72.4</ele><time>2026-03-29T14:02:17.002Z</time></trkpt><trkpt lat="45.23222060941088" lon="9.352024666637643"><ele>72.80000000000001</ele><time>2026-03-29T14:02:18.002Z</time></trkpt><trkpt lat="45.23216384128675" lon="9.35189484337655"><ele>73.2</ele><time>2026-03-29T14:02:19.002Z</time></trkpt><trkpt lat="45.232109899497935" lon="9.351764908978348"><ele>73.60000000000001</ele><time>2026-03-29T14:02:20.002Z</time></trkpt><trkpt lat="45.23205442166297" lon="9.351630413435243"><ele>74.0</ele><time>2026-03-29T14:02:21.002Z</time></trkpt><trkpt lat="45.23200198952781" lon="9.351495912382598"><ele>74.0</ele><time>2026-03-29T14:02:22.002Z</time></trkpt><trkpt lat="45.23195248809104" lon="9.351361428084164"><ele>74.0</ele><time>2026-03-29T14:02:23.002Z</time></trkpt><trkpt lat="45.23189676610934" lon="9.351223436108544"><ele>74.0</ele><time>2026-03-29T14:02:24.002Z</time></trkpt><trkpt lat="45.23184141018713" lon="9.351090002024819"><ele>74.0</ele><time>2026-03-29T14:02:25.002Z</time></trkpt><trkpt lat="45.231790067923555" lon="9.350964549999015"><ele>74.0</ele><time>2026-03-29T14:02:26.002Z</time></trkpt><trkpt lat="45.23174227152515" lon="9.350851996076825"><ele>74.0</ele><time>2026-03-29T14:02:27.002Z</time></trkpt><trkpt lat="45.23169506276601" lon="9.350748256063794"><ele>74.0</ele><time>2026-03-29T14:02:28.002Z</time></trkpt><trkpt lat="45.231655637656694" lon="9.350655211868208"><ele>74.0</ele><time>2026-03-29T14:02:29.002Z</time></trkpt><trkpt lat="45.23161921852635" lon="9.35056701907568"><ele>74.0</ele><time>2026-03-29T14:02:30.002Z</time></trkpt><trkpt lat="45.23155965496815" lon="9.350462705996897"><ele>74.0</ele><time>2026-03-29T14:02:32.002Z</time></trkpt><trkpt lat="45.231548778088474" lon="9.350348809575262"><ele>74.0</ele><time>2026-03-29T14:02:35.002Z</time></trkpt><trkpt lat="45.23162388370675" lon="9.350286725036023"><ele>73.8</ele><time>2026-03-29T14:02:37.003Z</time></trkpt><trkpt lat="45.23169505929725" lon="9.350263930004868"><ele>73.60000000000001</ele><time>2026-03-29T14:02:38.003Z</time></trkpt><trkpt lat="45.23177323632152" lon="9.350231117491195"><ele>73.4</ele><time>2026-03-29T14:02:39.003Z</time></trkpt><trkpt lat="45.231850758791886" lon="9.350186541586512"><ele>73.2</ele><time>2026-03-29T14:02:40.003Z</time></trkpt><trkpt lat="45.2319371012609" lon="9.350135379992523"><ele>73.0</ele><time>2026-03-29T14:02:41.003Z</time></trkpt><trkpt lat="45.23206359108728" lon="9.35009064065602"><ele>73.0</ele><time>2026-03-29T14:02:42.003Z</time></trkpt><trkpt lat="45.232185113443435" lon="9.350048871918327"><ele>73.0</ele><time>2026-03-29T14:02:43.003Z</time></trkpt><trkpt lat="45.23232380037752" lon="9.350005901262863"><ele>73.0</ele><time>2026-03-29T14:02:44.003Z</time></trkpt><trkpt lat="45.232479801413675" lon="9.349950175683007"><ele>73.0</ele><time>2026-03-29T14:02:45.003Z</time></trkpt><trkpt lat="45.23263865514273" lon="9.34989860605464"><ele>72.66666666666666</ele><time>2026-03-29T14:02:46.003Z</time></trkpt><trkpt lat="45.232789311441195" lon="9.349852702397602"><ele>72.33333333333333</ele><time>2026-03-29T14:02:47.003Z</time></trkpt><trkpt lat="45.23294110760365" lon="9.349804584346671"><ele>72.0</ele><time>2026-03-29T14:02:48.003Z</time></trkpt><trkpt lat="45.233089138196384" lon="9.349752443566866"><ele>72.25</ele><time>2026-03-29T14:02:49.003Z</time></trkpt><trkpt lat="45.23322785064349" lon="9.349694364574615"><ele>72.5</ele><time>2026-03-29T14:02:50.003Z</time></trkpt><trkpt lat="45.23335254811933" lon="9.349618250906303"><ele>72.75</ele><time>2026-03-29T14:02:51.003Z</time></trkpt><trkpt lat="45.233474091445686" lon="9.349523203947394"><ele>73.0</ele><time>2026-03-29T14:02:52.003Z</time></trkpt><trkpt lat="45.23359762946785" lon="9.349422203233939"><ele>73.0</ele><time>2026-03-29T14:02:53.003Z</time></trkpt><trkpt lat="45.23372150639147" lon="9.349315604402024"><ele>73.0</ele><time>2026-03-29T14:02:54.003Z</time></trkpt><trkpt lat="45.23384803349985" lon="9.349202311575974"><ele>73.0</ele><time>2026-03-29T14:02:55.003Z</time></trkpt><trkpt lat="45.23396517317097" lon="9.349105492785958"><ele>73.0</ele><time>2026-03-29T14:02:56.003Z</time></trkpt><trkpt lat="45.23408524204238" lon="9.349029585117938"><ele>73.25</ele><time>2026-03-29T14:02:57.003Z</time></trkpt><trkpt lat="45.23421595122406" lon="9.348977630708974"><ele>73.5</ele><time>2026-03-29T14:02:58.003Z</time></trkpt><trkpt lat="45.234362366195946" lon="9.348957113562639"><ele>73.75</ele><time>2026-03-29T14:02:59.003Z</time></trkpt><trkpt lat="45.23451762813918" lon="9.348963177123087"><ele>74.0</ele><time>2026-03-29T14:03:00.003Z</time></trkpt><trkpt lat="45.23467250795405" lon="9.348981078685332"><ele>73.33333333333334</ele><time>2026-03-29T14:03:01Z</time></trkpt><trkpt lat="45.2348360109808" lon="9.349003485983475"><ele>72.66666666666667</ele><time>2026-03-29T14:03:02Z</time></trkpt><trkpt lat="45.23499679870372" lon="9.349025754919964"><ele>72.0</ele><time>2026-03-29T14:03:03Z</time></trkpt><trkpt lat="45.235148299715455" lon="9.349041668905873"><ele>72.0</ele><time>2026-03-29T14:03:04Z</time></trkpt><trkpt lat="45.235289574547075" lon="9.349046069520648"><ele>72.0</ele><time>2026-03-29T14:03:05Z</time></trkpt><trkpt lat="45.23541817264355" lon="9.349034139179711"><ele>72.0</ele><time>2026-03-29T14:03:06Z</time></trkpt><trkpt lat="45.235539733321346" lon="9.349015894852245"><ele>72.0</ele><time>2026-03-29T14:03:07Z</time></trkpt><trkpt lat="45.23564155449298" lon="9.349001674012905"><ele>72.0</ele><time>2026-03-29T14:03:08Z</time></trkpt><trkpt lat="45.23572415202542" lon="9.348990809591555"><ele>72.0</ele><time>2026-03-29T14:03:09Z</time></trkpt><trkpt lat="45.23578798541353" lon="9.348986067233948"><ele>72.0</ele><time>2026-03-29T14:03:10Z</time></trkpt><trkpt lat="45.23590475509011" lon="9.349023094273392"><ele>72.0</ele><time>2026-03-29T14:03:12Z</time></trkpt><trkpt lat="45.23597872303103" lon="9.349072976262818"><ele>72.0</ele><time>2026-03-29T14:03:13Z</time></trkpt><trkpt lat="45.23605714243513" lon="9.349104455096688"><ele>72.0</ele><time>2026-03-29T14:03:14Z</time></trkpt><trkpt lat="45.236125877182175" lon="9.34908505333689"><ele>72.0</ele><time>2026-03-29T14:03:15Z</time></trkpt><trkpt lat="45.236180696651736" lon="9.34902237187755"><ele>72.0</ele><time>2026-03-29T14:03:16Z</time></trkpt><trkpt lat="45.23622369457385" lon="9.348926960053058"><ele>72.0</ele><time>2026-03-29T14:03:17Z</time></trkpt><trkpt lat="45.23623582574885" lon="9.348820901412898"><ele>72.0</ele><time>2026-03-29T14:03:18Z</time></trkpt><trkpt lat="45.236207519650506" lon="9.348710933672011"><ele>72.0</ele><time>2026-03-29T14:03:19Z</time></trkpt><trkpt lat="45.23615687279007" lon="9.348603171822822"><ele>72.0</ele><time>2026-03-29T14:03:20Z</time></trkpt><trkpt lat="45.236093035329496" lon="9.348483473619877"><ele>72.5</ele><time>2026-03-29T14:03:21Z</time></trkpt><trkpt lat="45.23604377292801" lon="9.348330051168842"><ele>73.0</ele><time>2026-03-29T14:03:22Z</time></trkpt><trkpt lat="45.236025126375885" lon="9.348147247841057"><ele>73.5</ele><time>2026-03-29T14:03:23Z</time></trkpt><trkpt lat="45.23602089545619" lon="9.347968943833477"><ele>74.0</ele><time>2026-03-29T14:03:24Z</time></trkpt><trkpt lat="45.23602402949331" lon="9.347776099596732"><ele>74.0</ele><time>2026-03-29T14:03:25Z</time></trkpt><trkpt lat="45.23601718231167" lon="9.347559786516769"><ele>74.0</ele><time>2026-03-29T14:03:26Z</time></trkpt><trkpt lat="45.236003430727926" lon="9.347336228778982"><ele>74.0</ele><time>2026-03-29T14:03:27Z</time></trkpt><trkpt lat="45.235990137094724" lon="9.347100605521964"><ele>73.66666666666667</ele><time>2026-03-29T14:03:28Z</time></trkpt><trkpt lat="45.23598472286128" lon="9.346855088169356"><ele>73.33333333333333</ele><time>2026-03-29T14:03:29Z</time></trkpt><trkpt lat="45.235978272288435" lon="9.346621712079846"><ele>73.0</ele><time>2026-03-29T14:03:30Z</time></trkpt><trkpt lat="45.235975629092295" lon="9.346383639310343"><ele>72.33333333333333</ele><time>2026-03-29T14:03:31Z</time></trkpt><trkpt lat="45.235978646572256" lon="9.346134348175324"><ele>71.66666666666667</ele><time>2026-03-29T14:03:32Z</time></trkpt><trkpt lat="45.235990040421626" lon="9.345869362697432"><ele>71.0</ele><time>2026-03-29T14:03:33Z</time></trkpt><trkpt lat="45.2360082137095" lon="9.34559725708787"><ele>71.33333333333334</ele><time>2026-03-29T14:03:34.001Z</time></trkpt><trkpt lat="45.236036361280505" lon="9.345316529360483"><ele>71.66666666666667</ele><time>2026-03-29T14:03:35.001Z</time></trkpt><trkpt lat="45.236079051095004" lon="9.345035813772324"><ele>72.0</ele><time>2026-03-29T14:03:36.001Z</time></trkpt><trkpt lat="45.23613322206211" lon="9.34475283746833"><ele>71.33333333333333</ele><time>2026-03-29T14:03:37.001Z</time></trkpt><trkpt lat="45.23620096037172" lon="9.344486559899883"><ele>70.66666666666666</ele><time>2026-03-29T14:03:38.001Z</time></trkpt><trkpt lat="45.236277775812155" lon="9.344216539116939"><ele>70.0</ele><time>2026-03-29T14:03:39.001Z</time></trkpt><trkpt lat="45.23636531116986" lon="9.343941139928749"><ele>70.66666666666666</ele><time>2026-03-29T14:03:40.001Z</time></trkpt><trkpt lat="45.23646719980026" lon="9.343681500234341"><ele>71.33333333333333</ele><time>2026-03-29T14:03:41.001Z</time></trkpt><trkpt lat="45.236586447471545" lon="9.343425238312717"><ele>72.0</ele><time>2026-03-29T14:03:42.001Z</time></trkpt><trkpt lat="45.236714393799836" lon="9.343175765502172"><ele>72.0</ele><time>2026-03-29T14:03:43.001Z</time></trkpt><trkpt lat="45.23685772969079" lon="9.342937633033298"><ele>72.0</ele><time>2026-03-29T14:03:44.001Z</time></trkpt><trkpt lat="45.23700654176322" lon="9.342706739658881"><ele>72.0</ele><time>2026-03-29T14:03:45.001Z</time></trkpt><trkpt lat="45.237158723483425" lon="9.34250598772438"><ele>72.0</ele><time>2026-03-29T14:03:46.001Z</time></trkpt><trkpt lat="45.23732244678991" lon="9.342303744570557"><ele>72.0</ele><time>2026-03-29T14:03:47.001Z</time></trkpt><trkpt lat="45.2374981291653" lon="9.342116893397924"><ele>72.0</ele><time>2026-03-29T14:03:48.001Z</time></trkpt><trkpt lat="45.23767921452661" lon="9.341944753923553"><ele>72.0</ele><time>2026-03-29T14:03:49.001Z</time></trkpt><trkpt lat="45.23786889780485" lon="9.341770699523723"><ele>72.0</ele><time>2026-03-29T14:03:50.001Z</time></trkpt><trkpt lat="45.23805281425131" lon="9.34160280371344"><ele>72.0</ele><time>2026-03-29T14:03:51.001Z</time></trkpt><trkpt lat="45.23823431412941" lon="9.341434407105394"><ele>72.66666666666667</ele><time>2026-03-29T14:03:52.001Z</time></trkpt><trkpt lat="45.23841771751023" lon="9.341264720778472"><ele>73.33333333333334</ele><time>2026-03-29T14:03:53.001Z</time></trkpt><trkpt lat="45.23860648504382" lon="9.341093303184994"><ele>74.0</ele><time>2026-03-29T14:03:54.001Z</time></trkpt><trkpt lat="45.23879133321205" lon="9.340928799853534"><ele>73.66666666666667</ele><time>2026-03-29T14:03:55.001Z</time></trkpt><trkpt lat="45.23897989712646" lon="9.340760684287023"><ele>73.33333333333333</ele><time>2026-03-29T14:03:56.001Z</time></trkpt><trkpt lat="45.239159872422704" lon="9.340601041394413"><ele>73.0</ele><time>2026-03-29T14:03:57.001Z</time></trkpt><trkpt lat="45.23935266156292" lon="9.340429195799636"><ele>73.0</ele><time>2026-03-29T14:03:58.001Z</time></trkpt><trkpt lat="45.2395395266516" lon="9.340265140818008"><ele>73.0</ele><time>2026-03-29T14:03:59.001Z</time></trkpt><trkpt lat="45.23971992747344" lon="9.340106982737373"><ele>73.0</ele><time>2026-03-29T14:04:00.001Z</time></trkpt><trkpt lat="45.239912767874415" lon="9.339934216795742"><ele>73.0</ele><time>2026-03-29T14:04:01.001Z</time></trkpt><trkpt lat="45.24010771784861" lon="9.33976628657145"><ele>73.0</ele><time>2026-03-29T14:04:02.001Z</time></trkpt><trkpt lat="45.240296769236984" lon="9.33960736931765"><ele>73.0</ele><time>2026-03-29T14:04:03.001Z</time></trkpt><trkpt lat="45.240489270894535" lon="9.339440323154268"><ele>73.0</ele><time>2026-03-29T14:04:04.001Z</time></trkpt><trkpt lat="45.24068521410241" lon="9.339264609865173"><ele>73.0</ele><time>2026-03-29T14:04:05.001Z</time></trkpt><trkpt lat="45.240880077483446" lon="9.339089398792991"><ele>73.0</ele><time>2026-03-29T14:04:06.002Z</time></trkpt><trkpt lat="45.24107732781115" lon="9.338912034100979"><ele>73.0</ele><time>2026-03-29T14:04:07.002Z</time></trkpt><trkpt lat="45.24127541727982" lon="9.338740862942071"><ele>72.5</ele><time>2026-03-29T14:04:08.002Z</time></trkpt><trkpt lat="45.241470943285066" lon="9.338570936866482"><ele>72.0</ele><time>2026-03-29T14:04:09.002Z</time></trkpt><trkpt lat="45.24166150512727" lon="9.338400337010357"><ele>72.0</ele><time>2026-03-29T14:04:10.002Z</time></trkpt><trkpt lat="45.24184242030423" lon="9.338241696280285"><ele>72.0</ele><time>2026-03-29T14:04:11.002Z</time></trkpt><trkpt lat="45.242018030619775" lon="9.338082262868777"><ele>72.0</ele><time>2026-03-29T14:04:12.002Z</time></trkpt><trkpt lat="45.24218640278019" lon="9.337930466938891"><ele>72.66666666666667</ele><time>2026-03-29T14:04:13.002Z</time></trkpt><trkpt lat="45.242342016960805" lon="9.337788865612481"><ele>73.33333333333334</ele><time>2026-03-29T14:04:14.002Z</time></trkpt><trkpt lat="45.24249098843505" lon="9.337650855239746"><ele>74.0</ele><time>2026-03-29T14:04:15.002Z</time></trkpt><trkpt lat="45.2426284407199" lon="9.337529281682183"><ele>74.0</ele><time>2026-03-29T14:04:16.002Z</time></trkpt><trkpt lat="45.24275587193281" lon="9.337418332322484"><ele>74.0</ele><time>2026-03-29T14:04:17.002Z</time></trkpt><trkpt lat="45.24286303119271" lon="9.33732426352413"><ele>74.0</ele><time>2026-03-29T14:04:18.002Z</time></trkpt><trkpt lat="45.242961336378244" lon="9.337246207191747"><ele>74.0</ele><time>2026-03-29T14:04:19.002Z</time></trkpt><trkpt lat="45.24304911828972" lon="9.337187150476439"><ele>73.83333333333334</ele><time>2026-03-29T14:04:20.002Z</time></trkpt><trkpt lat="45.24312616128242" lon="9.337151019841057"><ele>73.66666666666667</ele><time>2026-03-29T14:04:21.002Z</time></trkpt><trkpt lat="45.243192522186824" lon="9.337124242997533"><ele>73.5</ele><time>2026-03-29T14:04:22.002Z</time></trkpt><trkpt lat="45.24325216598432" lon="9.337016994429694"><ele>73.33333333333333</ele><time>2026-03-29T14:04:24.002Z</time></trkpt><trkpt lat="45.243197259373225" lon="9.336899889908715"><ele>73.16666666666666</ele><time>2026-03-29T14:04:26.002Z</time></trkpt><trkpt lat="45.243140640369575" lon="9.336845049291197"><ele>73.0</ele><time>2026-03-29T14:04:27.002Z</time></trkpt><trkpt lat="45.24307809147164" lon="9.336761070553827"><ele>72.8</ele><time>2026-03-29T14:04:28.002Z</time></trkpt><trkpt lat="45.24302435188776" lon="9.336651382397882"><ele>72.6</ele><time>2026-03-29T14:04:29.002Z</time></trkpt><trkpt lat="45.2429707166718" lon="9.3365277121059"><ele>72.4</ele><time>2026-03-29T14:04:30.002Z</time></trkpt><trkpt lat="45.24292940429536" lon="9.336412099396686"><ele>72.2</ele><time>2026-03-29T14:04:31.002Z</time></trkpt><trkpt lat="45.24289464533755" lon="9.336285217583557"><ele>72.0</ele><time>2026-03-29T14:04:32.002Z</time></trkpt><trkpt lat="45.2428565421436" lon="9.336160195043195"><ele>72.0</ele><time>2026-03-29T14:04:33.002Z</time></trkpt><trkpt lat="45.242800368181044" lon="9.33602194217657"><ele>72.0</ele><time>2026-03-29T14:04:34.002Z</time></trkpt><trkpt lat="45.2427337602873" lon="9.33587090795177"><ele>72.0</ele><time>2026-03-29T14:04:35.002Z</time></trkpt><trkpt lat="45.242666240339446" lon="9.33571618938647"><ele>72.0</ele><time>2026-03-29T14:04:36.002Z</time></trkpt><trkpt lat="45.24259369344644" lon="9.3355497709316"><ele>72.5</ele><time>2026-03-29T14:04:37.002Z</time></trkpt><trkpt lat="45.242518517542756" lon="9.335374485704"><ele>73.0</ele><time>2026-03-29T14:04:38.002Z</time></trkpt><trkpt lat="45.24244170987037" lon="9.33519970071525"><ele>73.5</ele><time>2026-03-29T14:04:39.002Z</time></trkpt><trkpt lat="45.242367931770254" lon="9.33502708766677"><ele>74.0</ele><time>2026-03-29T14:04:40.003Z</time></trkpt><trkpt lat="45.24230145487399" lon="9.334873487189828"><ele>74.0</ele><time>2026-03-29T14:04:41.003Z</time></trkpt><trkpt lat="45.24224020348639" lon="9.334735712801276"><ele>74.0</ele><time>2026-03-29T14:04:42.003Z</time></trkpt><trkpt lat="45.24218343607428" lon="9.334602680679716"><ele>74.0</ele><time>2026-03-29T14:04:43.003Z</time></trkpt><trkpt lat="45.242135819917536" lon="9.334487052968043"><ele>74.0</ele><time>2026-03-29T14:04:44.003Z</time></trkpt><trkpt lat="45.24209280297548" lon="9.334377596235708"><ele>74.0</ele><time>2026-03-29T14:04:45.003Z</time></trkpt><trkpt lat="45.242059056271934" lon="9.334277202772942"><ele>74.0</ele><time>2026-03-29T14:04:46.003Z</time></trkpt><trkpt lat="45.242031312828644" lon="9.334178758875364"><ele>74.0</ele><time>2026-03-29T14:04:47.003Z</time></trkpt><trkpt lat="45.24202507541687" lon="9.334083342899136"><ele>74.0</ele><time>2026-03-29T14:04:48.003Z</time></trkpt><trkpt lat="45.242035588958856" lon="9.333989395664435"><ele>74.0</ele><time>2026-03-29T14:04:49.003Z</time></trkpt><trkpt lat="45.2421181050241" lon="9.33384140738292"><ele>74.0</ele><time>2026-03-29T14:04:51.003Z</time></trkpt><trkpt lat="45.24218216105211" lon="9.333757824472375"><ele>74.0</ele><time>2026-03-29T14:04:52.003Z</time></trkpt><trkpt lat="45.24225204742202" lon="9.333683626728444"><ele>73.83333333333334</ele><time>2026-03-29T14:04:53.003Z</time></trkpt><trkpt lat="45.24231505375585" lon="9.333606902005211"><ele>73.66666666666667</ele><time>2026-03-29T14:04:54.003Z</time></trkpt><trkpt lat="45.24237016549466" lon="9.333537180107065"><ele>73.5</ele><time>2026-03-29T14:04:55.003Z</time></trkpt><trkpt lat="45.242419922273115" lon="9.333469742106551"><ele>73.33333333333333</ele><time>2026-03-29T14:04:56.003Z</time></trkpt><trkpt lat="45.24248908557055" lon="9.333382063277407"><ele>73.16666666666666</ele><time>2026-03-29T14:04:57.003Z</time></trkpt><trkpt lat="45.24256588400573" lon="9.333274982252258"><ele>73.0</ele><time>2026-03-29T14:04:58.003Z</time></trkpt><trkpt lat="45.242650862623194" lon="9.333153843662311"><ele>73.0</ele><time>2026-03-29T14:04:59.003Z</time></trkpt><trkpt lat="45.242740571485335" lon="9.333026881963434"><ele>73.0</ele><time>2026-03-29T14:05:00.003Z</time></trkpt><trkpt lat="45.24283531699213" lon="9.33289482937009"><ele>73.0</ele><time>2026-03-29T14:05:01.003Z</time></trkpt><trkpt lat="45.24293827930693" lon="9.33275356539025"><ele>73.0</ele><time>2026-03-29T14:05:02.003Z</time></trkpt><trkpt lat="45.24304160710301" lon="9.332614223932884"><ele>73.5</ele><time>2026-03-29T14:05:03.003Z</time></trkpt><trkpt lat="45.243147528740685" lon="9.332474332368122"><ele>74.0</ele><time>2026-03-29T14:05:04.003Z</time></trkpt><trkpt lat="45.24325002669279" lon="9.332334328432612"><ele>74.5</ele><time>2026-03-29T14:05:05.003Z</time></trkpt><trkpt lat="45.243345016673445" lon="9.332208368502117"><ele>75.0</ele><time>2026-03-29T14:05:06.003Z</time></trkpt><trkpt lat="45.24343896584931" lon="9.33207906941993"><ele>75.0</ele><time>2026-03-29T14:05:07Z</time></trkpt><trkpt lat="45.24352774954451" lon="9.33194864545454"><ele>75.0</ele><time>2026-03-29T14:05:08Z</time></trkpt><trkpt lat="45.24361495569834" lon="9.331815989774217"><ele>75.0</ele><time>2026-03-29T14:05:09Z</time></trkpt><trkpt lat="45.243703959600026" lon="9.33167509667546"><ele>75.0</ele><time>2026-03-29T14:05:10Z</time></trkpt><trkpt lat="45.24378971405984" lon="9.331532731407197"><ele>75.0</ele><time>2026-03-29T14:05:11Z</time></trkpt><trkpt lat="45.24387548937003" lon="9.331390708790195"><ele>75.0</ele><time>2026-03-29T14:05:12Z</time></trkpt><trkpt lat="45.24395874744755" lon="9.33123626584632"><ele>75.0</ele><time>2026-03-29T14:05:13Z</time></trkpt><trkpt lat="45.24403630471016" lon="9.331076621110114"><ele>75.0</ele><time>2026-03-29T14:05:14Z</time></trkpt><trkpt lat="45.24411030710934" lon="9.33092359169672"><ele>75.0</ele><time>2026-03-29T14:05:15Z</time></trkpt><trkpt lat="45.24417482733296" lon="9.330783242712938"><ele>75.0</ele><time>2026-03-29T14:05:16Z</time></trkpt><trkpt lat="45.244229066587934" lon="9.330654117453445"><ele>75.0</ele><time>2026-03-29T14:05:17Z</time></trkpt><trkpt lat="45.24428119804264" lon="9.330530391469747"><ele>75.0</ele><time>2026-03-29T14:05:18Z</time></trkpt><trkpt lat="45.24434444071034" lon="9.330407310382903"><ele>75.0</ele><time>2026-03-29T14:05:19Z</time></trkpt><trkpt lat="45.24441618080005" lon="9.330289281135359"><ele>74.0</ele><time>2026-03-29T14:05:20Z</time></trkpt><trkpt lat="45.24450127465548" lon="9.330179190926026"><ele>73.0</ele><time>2026-03-29T14:05:21Z</time></trkpt><trkpt lat="45.24458668212975" lon="9.330059166470809"><ele>72.0</ele><time>2026-03-29T14:05:22Z</time></trkpt><trkpt lat="45.244671668254576" lon="9.329945875753186"><ele>71.0</ele><time>2026-03-29T14:05:23Z</time></trkpt><trkpt lat="45.244756813104246" lon="9.32985050400475"><ele>71.5</ele><time>2026-03-29T14:05:24Z</time></trkpt><trkpt lat="45.244829868995105" lon="9.329748809356243"><ele>72.0</ele><time>2026-03-29T14:05:25Z</time></trkpt><trkpt lat="45.24489912403162" lon="9.329665696091483"><ele>72.5</ele><time>2026-03-29T14:05:26Z</time></trkpt><trkpt lat="45.24496280927297" lon="9.32958586682043"><ele>73.0</ele><time>2026-03-29T14:05:27Z</time></trkpt><trkpt lat="45.24501660431063" lon="9.329529954104807"><ele>73.5</ele><time>2026-03-29T14:05:28Z</time></trkpt><trkpt lat="45.245108360677264" lon="9.329464487646781"><ele>74.0</ele><time>2026-03-29T14:05:30Z</time></trkpt><trkpt lat="45.245191788141966" lon="9.329467107490062"><ele>74.0</ele><time>2026-03-29T14:05:32Z</time></trkpt><trkpt lat="45.24523910912915" lon="9.329574671062186"><ele>74.0</ele><time>2026-03-29T14:05:34.001Z</time></trkpt><trkpt lat="45.24531523250217" lon="9.329683753459918"><ele>74.0</ele><time>2026-03-29T14:05:36.001Z</time></trkpt><trkpt lat="45.24539613678518" lon="9.32975013626827"><ele>74.0</ele><time>2026-03-29T14:05:38.001Z</time></trkpt><trkpt lat="45.245484610292635" lon="9.329690535217736"><ele>74.0</ele><time>2026-03-29T14:05:40.001Z</time></trkpt><trkpt lat="45.245573169379746" lon="9.329566782983271"><ele>74.2</ele><time>2026-03-29T14:05:42.001Z</time></trkpt><trkpt lat="45.24564484140149" lon="9.329396706472014"><ele>74.4</ele><time>2026-03-29T14:05:44.001Z</time></trkpt><trkpt lat="45.24570697883501" lon="9.329280733989519"><ele>74.6</ele><time>2026-03-29T14:05:45.001Z</time></trkpt><trkpt lat="45.24577238769383" lon="9.32917996770442"><ele>74.8</ele><time>2026-03-29T14:05:46.001Z</time></trkpt><trkpt lat="45.245839316877735" lon="9.329079883532026"><ele>75.0</ele><time>2026-03-29T14:05:47.001Z</time></trkpt><trkpt lat="45.24591680484106" lon="9.328977127827857"><ele>75.0</ele><time>2026-03-29T14:05:48.001Z</time></trkpt><trkpt lat="45.24600395633125" lon="9.328857468357544"><ele>75.0</ele><time>2026-03-29T14:05:49.001Z</time></trkpt><trkpt lat="45.24609663897315" lon="9.328725639772667"><ele>75.0</ele><time>2026-03-29T14:05:50.001Z</time></trkpt><trkpt lat="45.24618952098718" lon="9.328582850479245"><ele>75.0</ele><time>2026-03-29T14:05:51.001Z</time></trkpt><trkpt lat="45.2462982194455" lon="9.328409392472986"><ele>75.0</ele><time>2026-03-29T14:05:52.001Z</time></trkpt><trkpt lat="45.246423249689556" lon="9.328219509505844"><ele>75.0</ele><time>2026-03-29T14:05:53.001Z</time></trkpt><trkpt lat="45.24655893479033" lon="9.328013547609808"><ele>75.0</ele><time>2026-03-29T14:05:54.001Z</time></trkpt><trkpt lat="45.24669473040402" lon="9.327812976770923"><ele>74.66666666666667</ele><time>2026-03-29T14:05:55.001Z</time></trkpt><trkpt lat="45.24682494849872" lon="9.327619741761668"><ele>74.33333333333334</ele><time>2026-03-29T14:05:56.001Z</time></trkpt><trkpt lat="45.2469571894669" lon="9.32742245125133"><ele>74.0</ele><time>2026-03-29T14:05:57.001Z</time></trkpt><trkpt lat="45.24707714362593" lon="9.327243808974229"><ele>74.0</ele><time>2026-03-29T14:05:58.001Z</time></trkpt><trkpt lat="45.247189234929394" lon="9.327078292217998"><ele>74.0</ele><time>2026-03-29T14:05:59.001Z</time></trkpt><trkpt lat="45.247297775429146" lon="9.32691420276266"><ele>74.0</ele><time>2026-03-29T14:06:00.001Z</time></trkpt><trkpt lat="45.24740912072386" lon="9.326748529657397"><ele>74.33333333333334</ele><time>2026-03-29T14:06:01.001Z</time></trkpt><trkpt lat="45.2475172623499" lon="9.326589833445485"><ele>74.66666666666667</ele><time>2026-03-29T14:06:02.001Z</time></trkpt><trkpt lat="45.247630463995876" lon="9.326419291238189"><ele>75.0</ele><time>2026-03-29T14:06:03.001Z</time></trkpt><trkpt lat="45.2477325898655" lon="9.326264910365115"><ele>75.25</ele><time>2026-03-29T14:06:04.001Z</time></trkpt><trkpt lat="45.24782704749017" lon="9.326121645661585"><ele>75.5</ele><time>2026-03-29T14:06:05.001Z</time></trkpt><trkpt lat="45.24791040858066" lon="9.325995560850895"><ele>75.75</ele><time>2026-03-29T14:06:06.001Z</time></trkpt><trkpt lat="45.247985604782805" lon="9.32588499883051"><ele>76.0</ele><time>2026-03-29T14:06:07.001Z</time></trkpt><trkpt lat="45.248052995875085" lon="9.325786828906043"><ele>76.0</ele><time>2026-03-29T14:06:08.001Z</time></trkpt><trkpt lat="45.248102023435145" lon="9.32571084301473"><ele>76.0</ele><time>2026-03-29T14:06:09.002Z</time></trkpt><trkpt lat="45.2481487333137" lon="9.325642560568541"><ele>76.0</ele><time>2026-03-29T14:06:10.002Z</time></trkpt><trkpt lat="45.24820292595878" lon="9.325580609166847"><ele>76.0</ele><time>2026-03-29T14:06:12.002Z</time></trkpt><trkpt lat="45.2482718949795" lon="9.325690260161153"><ele>76.0</ele><time>2026-03-29T14:06:16.002Z</time></trkpt><trkpt lat="45.248306282369626" lon="9.325765613492107"><ele>76.0</ele><time>2026-03-29T14:06:17.002Z</time></trkpt><trkpt lat="45.24835979589182" lon="9.325835538226885"><ele>76.0</ele><time>2026-03-29T14:06:18.002Z</time></trkpt><trkpt lat="45.24841477457269" lon="9.325938589814411"><ele>76.0</ele><time>2026-03-29T14:06:19.002Z</time></trkpt><trkpt lat="45.24849624693396" lon="9.326062469776033"><ele>76.0</ele><time>2026-03-29T14:06:20.002Z</time></trkpt><trkpt lat="45.24858193866669" lon="9.326189710615573"><ele>76.0</ele><time>2026-03-29T14:06:21.002Z</time></trkpt><trkpt lat="45.248670412668524" lon="9.326314268538345"><ele>76.0</ele><time>2026-03-29T14:06:22.002Z</time></trkpt><trkpt lat="45.24876783579928" lon="9.32645809722897"><ele>76.0</ele><time>2026-03-29T14:06:23.002Z</time></trkpt><trkpt lat="45.24887139576442" lon="9.326613408468525"><ele>76.0</ele><time>2026-03-29T14:06:24.002Z</time></trkpt><trkpt lat="45.24897536429345" lon="9.326766827069077"><ele>76.0</ele><time>2026-03-29T14:06:25.002Z</time></trkpt><trkpt lat="45.249084163908535" lon="9.326928265824362"><ele>76.0</ele><time>2026-03-29T14:06:26.002Z</time></trkpt><trkpt lat="45.24919146795523" lon="9.32708367382307"><ele>76.0</ele><time>2026-03-29T14:06:27.002Z</time></trkpt><trkpt lat="45.24929024241655" lon="9.327240795893669"><ele>76.0</ele><time>2026-03-29T14:06:28.002Z</time></trkpt><trkpt lat="45.249390103089766" lon="9.327382255314197"><ele>76.0</ele><time>2026-03-29T14:06:29.002Z</time></trkpt><trkpt lat="45.249483817715515" lon="9.327524510916055"><ele>76.0</ele><time>2026-03-29T14:06:30.002Z</time></trkpt><trkpt lat="45.249573156399585" lon="9.327656109753217"><ele>76.0</ele><time>2026-03-29T14:06:31.002Z</time></trkpt><trkpt lat="45.24965830137829" lon="9.32777882088335"><ele>76.0</ele><time>2026-03-29T14:06:32.002Z</time></trkpt><trkpt lat="45.249741234014984" lon="9.327907546069321"><ele>76.0</ele><time>2026-03-29T14:06:33.002Z</time></trkpt><trkpt lat="45.249821513650794" lon="9.328039054204186"><ele>75.8</ele><time>2026-03-29T14:06:34.002Z</time></trkpt><trkpt lat="45.24990377617524" lon="9.328152123563033"><ele>75.6</ele><time>2026-03-29T14:06:35.002Z</time></trkpt><trkpt lat="45.249965742446555" lon="9.328242185638612"><ele>75.4</ele><time>2026-03-29T14:06:36.002Z</time></trkpt><trkpt lat="45.250025796629025" lon="9.328336038081162"><ele>75.2</ele><time>2026-03-29T14:06:38.002Z</time></trkpt><trkpt lat="45.25010209906161" lon="9.328452588752357"><ele>75.0</ele><time>2026-03-29T14:06:40.002Z</time></trkpt><trkpt lat="45.250158448011284" lon="9.328535639948203"><ele>75.0</ele><time>2026-03-29T14:06:41.002Z</time></trkpt><trkpt lat="45.25021496189894" lon="9.32862288342028"><ele>75.0</ele><time>2026-03-29T14:06:42.002Z</time></trkpt><trkpt lat="45.25027299826359" lon="9.328722585689299"><ele>75.0</ele><time>2026-03-29T14:06:43.002Z</time></trkpt><trkpt lat="45.25033067229826" lon="9.328831583177783"><ele>75.0</ele><time>2026-03-29T14:06:44.003Z</time></trkpt><trkpt lat="45.250385412969095" lon="9.328936542429942"><ele>75.0</ele><time>2026-03-29T14:06:45.003Z</time></trkpt><trkpt lat="45.25043663077125" lon="9.329032877103144"><ele>75.0</ele><time>2026-03-29T14:06:46.003Z</time></trkpt><trkpt lat="45.250458186225295" lon="9.329127004348045"><ele>75.0</ele><time>2026-03-29T14:06:47.003Z</time></trkpt><trkpt lat="45.25050667285529" lon="9.32924507609771"><ele>75.0</ele><time>2026-03-29T14:06:49.003Z</time></trkpt><trkpt lat="45.25075103449955" lon="9.329119111926305"><ele>75.0</ele><time>2026-03-29T14:06:52.003Z</time></trkpt><trkpt lat="45.250816662587276" lon="9.32907744438853"><ele>75.0</ele><time>2026-03-29T14:06:53.003Z</time></trkpt><trkpt lat="45.25088920936177" lon="9.329014181701227"><ele>75.0</ele><time>2026-03-29T14:06:54.003Z</time></trkpt><trkpt lat="45.250960029137616" lon="9.328939020751186"><ele>75.0</ele><time>2026-03-29T14:06:55.003Z</time></trkpt><trkpt lat="45.25105278465317" lon="9.328838712049315"><ele>75.0</ele><time>2026-03-29T14:06:56.003Z</time></trkpt><trkpt lat="45.25114442074109" lon="9.32873191676647"><ele>75.0</ele><time>2026-03-29T14:06:57.003Z</time></trkpt><trkpt lat="45.25123638276447" lon="9.328631218762526"><ele>75.0</ele><time>2026-03-29T14:06:58.003Z</time></trkpt><trkpt lat="45.25132719701505" lon="9.328536241851134"><ele>75.0</ele><time>2026-03-29T14:06:59.003Z</time></trkpt><trkpt lat="45.25141606649263" lon="9.328448506614668"><ele>75.0</ele><time>2026-03-29T14:07:00.003Z</time></trkpt><trkpt lat="45.25150495410764" lon="9.328357482176761"><ele>75.0</ele><time>2026-03-29T14:07:01.003Z</time></trkpt><trkpt lat="45.25159771608586" lon="9.328267369878105"><ele>75.0</ele><time>2026-03-29T14:07:02.003Z</time></trkpt><trkpt lat="45.251685720966044" lon="9.328167376803535"><ele>75.0</ele><time>2026-03-29T14:07:03.003Z</time></trkpt><trkpt lat="45.25176819652822" lon="9.328069481167688"><ele>75.2</ele><time>2026-03-29T14:07:04.003Z</time></trkpt><trkpt lat="45.251841452484" lon="9.327979706945284"><ele>75.4</ele><time>2026-03-29T14:07:05.003Z</time></trkpt><trkpt lat="45.25191595885936" lon="9.327901452005682"><ele>75.6</ele><time>2026-03-29T14:07:06.003Z</time></trkpt><trkpt lat="45.25199298880153" lon="9.327810536799165"><ele>75.8</ele><time>2026-03-29T14:07:07.003Z</time></trkpt><trkpt lat="45.25208460670876" lon="9.327722969671774"><ele>76.0</ele><time>2026-03-29T14:07:08.003Z</time></trkpt><trkpt lat="45.25217126903905" lon="9.327651051127097"><ele>76.0</ele><time>2026-03-29T14:07:09.003Z</time></trkpt><trkpt lat="45.25224566600392" lon="9.327572280682045"><ele>76.0</ele><time>2026-03-29T14:07:10.003Z</time></trkpt><trkpt lat="45.252331135307365" lon="9.327474708311316"><ele>76.0</ele><time>2026-03-29T14:07:11.003Z</time></trkpt><trkpt lat="45.25242492464485" lon="9.327370020607235"><ele>76.0</ele><time>2026-03-29T14:07:12.003Z</time></trkpt><trkpt lat="45.25251957476069" lon="9.327266803199041"><ele>76.0</ele><time>2026-03-29T14:07:13.001Z</time></trkpt><trkpt lat="45.25260830123776" lon="9.327178931653863"><ele>75.8</ele><time>2026-03-29T14:07:14.001Z</time></trkpt><trkpt lat="45.25269339765481" lon="9.32709057160997"><ele>75.6</ele><time>2026-03-29T14:07:15.001Z</time></trkpt><trkpt lat="45.252778855972345" lon="9.32699708888737"><ele>75.4</ele><time>2026-03-29T14:07:16.001Z</time></trkpt><trkpt lat="45.25286167358337" lon="9.326908045151349"><ele>75.2</ele><time>2026-03-29T14:07:17.001Z</time></trkpt><trkpt lat="45.252933992125335" lon="9.326831775873533"><ele>75.0</ele><time>2026-03-29T14:07:18.001Z</time></trkpt><trkpt lat="45.25299983441484" lon="9.326759790004939"><ele>75.0</ele><time>2026-03-29T14:07:19.001Z</time></trkpt><trkpt lat="45.25305109451125" lon="9.326701568933249"><ele>75.0</ele><time>2026-03-29T14:07:20.001Z</time></trkpt><trkpt lat="45.2531163067066" lon="9.3265890103181"><ele>75.0</ele><time>2026-03-29T14:07:22.001Z</time></trkpt><trkpt lat="45.253090937821106" lon="9.326482476808383"><ele>75.0</ele><time>2026-03-29T14:07:24.001Z</time></trkpt><trkpt lat="45.25305160859465" lon="9.3264067272572"><ele>75.0</ele><time>2026-03-29T14:07:25.001Z</time></trkpt><trkpt lat="45.25299781040153" lon="9.326311132170417"><ele>75.0</ele><time>2026-03-29T14:07:26.001Z</time></trkpt><trkpt lat="45.25293728991734" lon="9.326209151223775"><ele>75.4</ele><time>2026-03-29T14:07:27.001Z</time></trkpt><trkpt lat="45.25287029493128" lon="9.326086404482869"><ele>75.8</ele><time>2026-03-29T14:07:28.001Z</time></trkpt><trkpt lat="45.25280800565376" lon="9.325961356092586"><ele>76.2</ele><time>2026-03-29T14:07:29.001Z</time></trkpt><trkpt lat="45.25274495618217" lon="9.325842078414485"><ele>76.6</ele><time>2026-03-29T14:07:30.001Z</time></trkpt><trkpt lat="45.25268738017959" lon="9.325727875986635"><ele>77.0</ele><time>2026-03-29T14:07:31.001Z</time></trkpt><trkpt lat="45.25264213857576" lon="9.325639448961738"><ele>76.83333333333334</ele><time>2026-03-29T14:07:32.001Z</time></trkpt><trkpt lat="45.252600907432914" lon="9.325554543254306"><ele>76.66666666666667</ele><time>2026-03-29T14:07:33.001Z</time></trkpt><trkpt lat="45.25255810497521" lon="9.32546897319627"><ele>76.5</ele><time>2026-03-29T14:07:34.001Z</time></trkpt><trkpt lat="45.252488164923385" lon="9.325327427976632"><ele>76.33333333333333</ele><time>2026-03-29T14:07:36.001Z</time></trkpt><trkpt lat="45.252452768576624" lon="9.325241017279133"><ele>76.16666666666666</ele><time>2026-03-29T14:07:37.001Z</time></trkpt><trkpt lat="45.2524127388987" lon="9.32513745027028"><ele>76.0</ele><time>2026-03-29T14:07:38.001Z</time></trkpt><trkpt lat="45.252373382608496" lon="9.325032956925439"><ele>76.0</ele><time>2026-03-29T14:07:39.001Z</time></trkpt><trkpt lat="45.25232877162056" lon="9.324933156355225"><ele>76.0</ele><time>2026-03-29T14:07:40.001Z</time></trkpt><trkpt lat="45.25228484177138" lon="9.324842012631693"><ele>76.0</ele><time>2026-03-29T14:07:41.001Z</time></trkpt><trkpt lat="45.252230734187464" lon="9.32474483504333"><ele>76.0</ele><time>2026-03-29T14:07:42.001Z</time></trkpt><trkpt lat="45.25217834356918" lon="9.324636225506033"><ele>76.0</ele><time>2026-03-29T14:07:43.001Z</time></trkpt><trkpt lat="45.2521290524957" lon="9.324536326706648"><ele>76.0</ele><time>2026-03-29T14:07:44.001Z</time></trkpt><trkpt lat="45.25207626361181" lon="9.324431622494215"><ele>76.16666666666666</ele><time>2026-03-29T14:07:45.001Z</time></trkpt><trkpt lat="45.25202287361967" lon="9.324323282895255"><ele>76.33333333333333</ele><time>2026-03-29T14:07:46.001Z</time></trkpt><trkpt lat="45.25197249271442" lon="9.324223840087477"><ele>76.5</ele><time>2026-03-29T14:07:47.001Z</time></trkpt><trkpt lat="45.25192519200331" lon="9.324130250113628"><ele>76.66666666666667</ele><time>2026-03-29T14:07:48.001Z</time></trkpt><trkpt lat="45.25187645687736" lon="9.324032861608455"><ele>76.83333333333334</ele><time>2026-03-29T14:07:49.001Z</time></trkpt><trkpt lat="45.251820099801066" lon="9.32392381765545"><ele>77.0</ele><time>2026-03-29T14:07:50.001Z</time></trkpt><trkpt lat="45.251764729455395" lon="9.32381251395208"><ele>77.0</ele><time>2026-03-29T14:07:51.001Z</time></trkpt><trkpt lat="45.25170763881745" lon="9.323702294598151"><ele>77.0</ele><time>2026-03-29T14:07:52.001Z</time></trkpt><trkpt lat="45.25165100285166" lon="9.323587185213986"><ele>77.0</ele><time>2026-03-29T14:07:53.001Z</time></trkpt><trkpt lat="45.25159645982424" lon="9.323475817159771"><ele>77.0</ele><time>2026-03-29T14:07:54.001Z</time></trkpt><trkpt lat="45.2515412504973" lon="9.323362635388026"><ele>77.0</ele><time>2026-03-29T14:07:55.001Z</time></trkpt><trkpt lat="45.25148920890194" lon="9.323252952873963"><ele>76.8</ele><time>2026-03-29T14:07:56.001Z</time></trkpt><trkpt lat="45.251434075424164" lon="9.3231378199333"><ele>76.6</ele><time>2026-03-29T14:07:57.001Z</time></trkpt><trkpt lat="45.251376104368184" lon="9.32302065792537"><ele>76.39999999999999</ele><time>2026-03-29T14:07:58.001Z</time></trkpt><trkpt lat="45.25131803177344" lon="9.322903788452615"><ele>76.2</ele><time>2026-03-29T14:07:59.001Z</time></trkpt><trkpt lat="45.25126168195832" lon="9.322786227273202"><ele>76.0</ele><time>2026-03-29T14:08:00.001Z</time></trkpt><trkpt lat="45.25120009533052" lon="9.32266281969123"><ele>76.0</ele><time>2026-03-29T14:08:01.001Z</time></trkpt><trkpt lat="45.251136864437626" lon="9.322537061534995"><ele>76.0</ele><time>2026-03-29T14:08:02.001Z</time></trkpt><trkpt lat="45.25107698212289" lon="9.322414855370418"><ele>76.0</ele><time>2026-03-29T14:08:03.001Z</time></trkpt><trkpt lat="45.25101687202105" lon="9.322291112462137"><ele>76.0</ele><time>2026-03-29T14:08:04.001Z</time></trkpt><trkpt lat="45.25096343647897" lon="9.32218039184721"><ele>76.0</ele><time>2026-03-29T14:08:05.001Z</time></trkpt><trkpt lat="45.250908304188094" lon="9.322070537397527"><ele>76.0</ele><time>2026-03-29T14:08:06.001Z</time></trkpt><trkpt lat="45.250856258517096" lon="9.321961173557142"><ele>76.0</ele><time>2026-03-29T14:08:07.001Z</time></trkpt><trkpt lat="45.2508052548005" lon="9.321857741698526"><ele>76.0</ele><time>2026-03-29T14:08:08.001Z</time></trkpt><trkpt lat="45.250761457972864" lon="9.32176063070854"><ele>76.0</ele><time>2026-03-29T14:08:09.001Z</time></trkpt><trkpt lat="45.2507252941761" lon="9.321669885194112"><ele>76.0</ele><time>2026-03-29T14:08:10.001Z</time></trkpt><trkpt lat="45.2506955831716" lon="9.321501260711926"><ele>76.0</ele><time>2026-03-29T14:08:12.002Z</time></trkpt><trkpt lat="45.25067985024165" lon="9.321410510111638"><ele>76.0</ele><time>2026-03-29T14:08:13.002Z</time></trkpt><trkpt lat="45.25066880298903" lon="9.32131259774872"><ele>76.0</ele><time>2026-03-29T14:08:14.002Z</time></trkpt><trkpt lat="45.25065515722642" lon="9.321195885598152"><ele>76.0</ele><time>2026-03-29T14:08:15.002Z</time></trkpt><trkpt lat="45.250643137939285" lon="9.321088109295417"><ele>76.0</ele><time>2026-03-29T14:08:16.002Z</time></trkpt><trkpt lat="45.25062800377919" lon="9.320981398094109"><ele>76.0</ele><time>2026-03-29T14:08:17.002Z</time></trkpt><trkpt lat="45.25061044846334" lon="9.3208737521122"><ele>76.0</ele><time>2026-03-29T14:08:18.002Z</time></trkpt><trkpt lat="45.25059335653004" lon="9.32076422514804"><ele>76.0</ele><time>2026-03-29T14:08:19.002Z</time></trkpt><trkpt lat="45.250575918331826" lon="9.320639256539062"><ele>76.0</ele><time>2026-03-29T14:08:20.002Z</time></trkpt><trkpt lat="45.25056007223447" lon="9.320519966774773"><ele>76.0</ele><time>2026-03-29T14:08:21.002Z</time></trkpt><trkpt lat="45.25054653888062" lon="9.320413761239248"><ele>76.0</ele><time>2026-03-29T14:08:22.002Z</time></trkpt><trkpt lat="45.250527637274985" lon="9.32029819136989"><ele>76.0</ele><time>2026-03-29T14:08:23.002Z</time></trkpt><trkpt lat="45.250513995538334" lon="9.32019685576581"><ele>76.0</ele><time>2026-03-29T14:08:24.002Z</time></trkpt><trkpt lat="45.250500958734435" lon="9.320103257806847"><ele>76.0</ele><time>2026-03-29T14:08:25.002Z</time></trkpt><trkpt lat="45.25049212301912" lon="9.320007275386427"><ele>76.0</ele><time>2026-03-29T14:08:26.002Z</time></trkpt><trkpt lat="45.250481505645055" lon="9.319847703151574"><ele>76.0</ele><time>2026-03-29T14:08:28.002Z</time></trkpt><trkpt lat="45.250531541770755" lon="9.319759830640102"><ele>76.0</ele><time>2026-03-29T14:08:30.002Z</time></trkpt><trkpt lat="45.25063730287481" lon="9.319709227122342"><ele>76.0</ele><time>2026-03-29T14:08:32.002Z</time></trkpt><trkpt lat="45.25071396752806" lon="9.319674454209448"><ele>76.0</ele><time>2026-03-29T14:08:33.002Z</time></trkpt><trkpt lat="45.25079665654939" lon="9.319633122864387"><ele>76.0</ele><time>2026-03-29T14:08:34.002Z</time></trkpt><trkpt lat="45.25088284799595" lon="9.319592750770774"><ele>76.0</ele><time>2026-03-29T14:08:35.002Z</time></trkpt><trkpt lat="45.25096274454135" lon="9.319552194474145"><ele>76.0</ele><time>2026-03-29T14:08:36.002Z</time></trkpt><trkpt lat="45.251058273124244" lon="9.319506485099229"><ele>76.0</ele><time>2026-03-29T14:08:37.002Z</time></trkpt><trkpt lat="45.25113789063273" lon="9.319468977078872"><ele>76.0</ele><time>2026-03-29T14:08:38.002Z</time></trkpt><trkpt lat="45.25121933301244" lon="9.319432296004331"><ele>76.0</ele><time>2026-03-29T14:08:39.002Z</time></trkpt><trkpt lat="45.25129563535752" lon="9.319396223536023"><ele>76.0</ele><time>2026-03-29T14:08:40.002Z</time></trkpt><trkpt lat="45.25136723885392" lon="9.319363289364807"><ele>76.0</ele><time>2026-03-29T14:08:41.002Z</time></trkpt><trkpt lat="45.25144946864593" lon="9.31932214306735"><ele>76.0</ele><time>2026-03-29T14:08:42.002Z</time></trkpt><trkpt lat="45.25152198702568" lon="9.319286609667294"><ele>76.0</ele><time>2026-03-29T14:08:43.002Z</time></trkpt><trkpt lat="45.25160114399613" lon="9.319248073278786"><ele>76.0</ele><time>2026-03-29T14:08:44.002Z</time></trkpt><trkpt lat="45.25167331622372" lon="9.319219557145496"><ele>76.0</ele><time>2026-03-29T14:08:45.002Z</time></trkpt><trkpt lat="45.25175232692726" lon="9.319190998741528"><ele>76.0</ele><time>2026-03-29T14:08:46.002Z</time></trkpt><trkpt lat="45.251830771999394" lon="9.319157585102488"><ele>76.0</ele><time>2026-03-29T14:08:47.002Z</time></trkpt><trkpt lat="45.25191708461858" lon="9.319114179713116"><ele>76.0</ele><time>2026-03-29T14:08:48.002Z</time></trkpt><trkpt lat="45.252003185029025" lon="9.319070654625536"><ele>76.0</ele><time>2026-03-29T14:08:49.003Z</time></trkpt><trkpt lat="45.25209443328383" lon="9.319025342131763"><ele>76.0</ele><time>2026-03-29T14:08:50.003Z</time></trkpt><trkpt lat="45.25219242585357" lon="9.318979875530937"><ele>76.0</ele><time>2026-03-29T14:08:51.003Z</time></trkpt><trkpt lat="45.25226939777556" lon="9.318938765419285"><ele>76.0</ele><time>2026-03-29T14:08:52.003Z</time></trkpt><trkpt lat="45.25234927637383" lon="9.318905350955545"><ele>76.0</ele><time>2026-03-29T14:08:53.003Z</time></trkpt><trkpt lat="45.25242439875962" lon="9.318872173739958"><ele>76.0</ele><time>2026-03-29T14:08:54.003Z</time></trkpt><trkpt lat="45.2525048225421" lon="9.318836704068808"><ele>76.0</ele><time>2026-03-29T14:08:55.003Z</time></trkpt><trkpt lat="45.25257705618297" lon="9.318803825770111"><ele>76.0</ele><time>2026-03-29T14:08:56.003Z</time></trkpt><trkpt lat="45.252663578371006" lon="9.318761513463551"><ele>76.16666666666666</ele><time>2026-03-29T14:08:57.003Z</time></trkpt><trkpt lat="45.25274075467904" lon="9.318727910759502"><ele>76.33333333333333</ele><time>2026-03-29T14:08:58.003Z</time></trkpt><trkpt lat="45.252828378888175" lon="9.318685927664019"><ele>76.5</ele><time>2026-03-29T14:08:59.003Z</time></trkpt><trkpt lat="45.25290521508367" lon="9.318654512875186"><ele>76.66666666666667</ele><time>2026-03-29T14:09:00.003Z</time></trkpt><trkpt lat="45.25298443066716" lon="9.318619010334237"><ele>76.83333333333334</ele><time>2026-03-29T14:09:01.003Z</time></trkpt><trkpt lat="45.25306546804172" lon="9.318583025434897"><ele>77.0</ele><time>2026-03-29T14:09:02.003Z</time></trkpt><trkpt lat="45.25314727946418" lon="9.318545151126466"><ele>77.2</ele><time>2026-03-29T14:09:03.003Z</time></trkpt><trkpt lat="45.25322587051383" lon="9.318510855063188"><ele>77.4</ele><time>2026-03-29T14:09:04.003Z</time></trkpt><trkpt lat="45.253305011769584" lon="9.318476801714004"><ele>77.6</ele><time>2026-03-29T14:09:05.003Z</time></trkpt><trkpt lat="45.25339065718478" lon="9.318436687100546"><ele>77.8</ele><time>2026-03-29T14:09:06.003Z</time></trkpt><trkpt lat="45.25348929395044" lon="9.318394156331488"><ele>78.0</ele><time>2026-03-29T14:09:07.003Z</time></trkpt><trkpt lat="45.253585291769966" lon="9.318352635085716"><ele>78.0</ele><time>2026-03-29T14:09:08.003Z</time></trkpt><trkpt lat="45.25368391985039" lon="9.31830790852224"><ele>78.0</ele><time>2026-03-29T14:09:09.003Z</time></trkpt><trkpt lat="45.25377158839308" lon="9.318268022557312"><ele>78.0</ele><time>2026-03-29T14:09:10.003Z</time></trkpt><trkpt lat="45.25385635820809" lon="9.318228335156899"><ele>78.0</ele><time>2026-03-29T14:09:11.003Z</time></trkpt><trkpt lat="45.253931394850625" lon="9.318196507496197"><ele>78.0</ele><time>2026-03-29T14:09:12.003Z</time></trkpt><trkpt lat="45.2540085404047" lon="9.318162654583302"><ele>78.0</ele><time>2026-03-29T14:09:13.003Z</time></trkpt><trkpt lat="45.25408179414876" lon="9.318129912759016"><ele>77.83333333333333</ele><time>2026-03-29T14:09:14.003Z</time></trkpt><trkpt lat="45.25419181080707" lon="9.318093331137515"><ele>77.66666666666667</ele><time>2026-03-29T14:09:16.003Z</time></trkpt><trkpt lat="45.254260591269365" lon="9.318072847284755"><ele>77.5</ele><time>2026-03-29T14:09:26Z</time></trkpt><trkpt lat="45.2543175920247" lon="9.318006181994965"><ele>77.33333333333334</ele><time>2026-03-29T14:09:38.001Z</time></trkpt><trkpt lat="45.25430716938574" lon="9.317910510014826"><ele>77.16666666666667</ele><time>2026-03-29T14:09:40.001Z</time></trkpt><trkpt lat="45.25428501277468" lon="9.317794330864496"><ele>77.0</ele><time>2026-03-29T14:09:41.001Z</time></trkpt><trkpt lat="45.25424642790284" lon="9.31765699144994"><ele>77.0</ele><time>2026-03-29T14:09:42.001Z</time></trkpt><trkpt lat="45.2542260329605" lon="9.317569213978754"><ele>77.0</ele><time>2026-03-29T14:09:43.001Z</time></trkpt><trkpt lat="45.2541999231833" lon="9.317452853272206"><ele>77.0</ele><time>2026-03-29T14:09:44.001Z</time></trkpt><trkpt lat="45.25416805635034" lon="9.317307525464356"><ele>77.0</ele><time>2026-03-29T14:09:45.001Z</time></trkpt><trkpt lat="45.25413778854007" lon="9.3171517254623"><ele>77.0</ele><time>2026-03-29T14:09:46.001Z</time></trkpt><trkpt lat="45.25411086789408" lon="9.317006081675174"><ele>77.0</ele><time>2026-03-29T14:09:47.001Z</time></trkpt><trkpt lat="45.254083258571676" lon="9.316854696136065"><ele>77.0</ele><time>2026-03-29T14:09:48.001Z</time></trkpt><trkpt lat="45.254052819371196" lon="9.316694714562418"><ele>77.0</ele><time>2026-03-29T14:09:49.001Z</time></trkpt><trkpt lat="45.25402181294854" lon="9.316537043087916"><ele>77.0</ele><time>2026-03-29T14:09:50.001Z</time></trkpt><trkpt lat="45.25400071818841" lon="9.316376965577257"><ele>77.0</ele><time>2026-03-29T14:09:51.001Z</time></trkpt><trkpt lat="45.253966348812" lon="9.31621132901871"><ele>77.0</ele><time>2026-03-29T14:09:52.001Z</time></trkpt><trkpt lat="45.25393456601228" lon="9.316038360513103"><ele>77.0</ele><time>2026-03-29T14:09:53.001Z</time></trkpt><trkpt lat="45.25390145725662" lon="9.315866958865886"><ele>77.0</ele><time>2026-03-29T14:09:54.001Z</time></trkpt><trkpt lat="45.25387207156028" lon="9.315694569215626"><ele>77.0</ele><time>2026-03-29T14:09:55.001Z</time></trkpt><trkpt lat="45.25384360830337" lon="9.315533242851183"><ele>77.0</ele><time>2026-03-29T14:09:56.001Z</time></trkpt><trkpt lat="45.25381865912276" lon="9.31538041049704"><ele>77.0</ele><time>2026-03-29T14:09:57.001Z</time></trkpt><trkpt lat="45.253793146050285" lon="9.315248827555077"><ele>77.0</ele><time>2026-03-29T14:09:58.001Z</time></trkpt><trkpt lat="45.253764784031304" lon="9.315118209018612"><ele>77.0</ele><time>2026-03-29T14:09:59.001Z</time></trkpt><trkpt lat="45.25373032879943" lon="9.314998689671668"><ele>77.0</ele><time>2026-03-29T14:10:00.001Z</time></trkpt><trkpt lat="45.25368837488546" lon="9.314863891014832"><ele>77.0</ele><time>2026-03-29T14:10:01.001Z</time></trkpt><trkpt lat="45.25363967840749" lon="9.314729431847242"><ele>77.0</ele><time>2026-03-29T14:10:02.001Z</time></trkpt><trkpt lat="45.25358906972937" lon="9.3145959771473"><ele>77.0</ele><time>2026-03-29T14:10:03.001Z</time></trkpt><trkpt lat="45.25353976309201" lon="9.314473466343415"><ele>77.0</ele><time>2026-03-29T14:10:04.001Z</time></trkpt><trkpt lat="45.25349327774648" lon="9.314373059805423"><ele>77.0</ele><time>2026-03-29T14:10:05.001Z</time></trkpt><trkpt lat="45.25344204125439" lon="9.314256259932316"><ele>77.0</ele><time>2026-03-29T14:10:06.001Z</time></trkpt><trkpt lat="45.25338557360012" lon="9.314135702729855"><ele>77.0</ele><time>2026-03-29T14:10:07.001Z</time></trkpt><trkpt lat="45.25332594840276" lon="9.314002460091276"><ele>77.0</ele><time>2026-03-29T14:10:08.001Z</time></trkpt><trkpt lat="45.253255861468546" lon="9.313870373840247"><ele>77.0</ele><time>2026-03-29T14:10:09.001Z</time></trkpt><trkpt lat="45.25318829464386" lon="9.313736762270816"><ele>77.0</ele><time>2026-03-29T14:10:10.001Z</time></trkpt><trkpt lat="45.25312131437703" lon="9.31360601022106"><ele>77.0</ele><time>2026-03-29T14:10:11.001Z</time></trkpt><trkpt lat="45.25305433009624" lon="9.313472065851455"><ele>77.0</ele><time>2026-03-29T14:10:12.001Z</time></trkpt><trkpt lat="45.25298814189277" lon="9.313340561663598"><ele>77.0</ele><time>2026-03-29T14:10:13.001Z</time></trkpt><trkpt lat="45.25292175502523" lon="9.313206120868044"><ele>77.25</ele><time>2026-03-29T14:10:14.001Z</time></trkpt><trkpt lat="45.25285468170379" lon="9.3130677587657"><ele>77.5</ele><time>2026-03-29T14:10:15.001Z</time></trkpt><trkpt lat="45.2527874751404" lon="9.312932472468118"><ele>77.75</ele><time>2026-03-29T14:10:16.001Z</time></trkpt><trkpt lat="45.252717101600005" lon="9.312795492249968"><ele>78.0</ele><time>2026-03-29T14:10:17.001Z</time></trkpt><trkpt lat="45.25264868806848" lon="9.312657471076191"><ele>78.0</ele><time>2026-03-29T14:10:18.001Z</time></trkpt><trkpt lat="45.25258362640146" lon="9.312522286525269"><ele>78.0</ele><time>2026-03-29T14:10:19.002Z</time></trkpt><trkpt lat="45.25252341547418" lon="9.312390742407489"><ele>78.0</ele><time>2026-03-29T14:10:20.002Z</time></trkpt><trkpt lat="45.25246249070669" lon="9.312265267994778"><ele>78.0</ele><time>2026-03-29T14:10:21.002Z</time></trkpt><trkpt lat="45.25240281366362" lon="9.3121425847355"><ele>78.0</ele><time>2026-03-29T14:10:22.002Z</time></trkpt><trkpt lat="45.25235338839237" lon="9.312047488060143"><ele>77.8</ele><time>2026-03-29T14:10:23.002Z</time></trkpt><trkpt lat="45.25229494432667" lon="9.311959610703003"><ele>77.6</ele><time>2026-03-29T14:10:24.002Z</time></trkpt><trkpt lat="45.25222928528938" lon="9.311897353109744"><ele>77.4</ele><time>2026-03-29T14:10:25.002Z</time></trkpt><trkpt lat="45.25214363000605" lon="9.311832392859616"><ele>77.2</ele><time>2026-03-29T14:10:26.002Z</time></trkpt><trkpt lat="45.25202696924705" lon="9.31174769415971"><ele>77.0</ele><time>2026-03-29T14:10:27.002Z</time></trkpt><trkpt lat="45.25188991198621" lon="9.311643988976709"><ele>76.66666666666667</ele><time>2026-03-29T14:10:28.002Z</time></trkpt><trkpt lat="45.25175101138727" lon="9.311529924824514"><ele>76.33333333333333</ele><time>2026-03-29T14:10:29.002Z</time></trkpt><trkpt lat="45.2516112969454" lon="9.311412468444463"><ele>76.0</ele><time>2026-03-29T14:10:30.002Z</time></trkpt><trkpt lat="45.251486148630505" lon="9.311307142992758"><ele>75.75</ele><time>2026-03-29T14:10:31.002Z</time></trkpt><trkpt lat="45.251371221230535" lon="9.311216309190716"><ele>75.5</ele><time>2026-03-29T14:10:32.002Z</time></trkpt><trkpt lat="45.25126872257935" lon="9.311129095806935"><ele>75.25</ele><time>2026-03-29T14:10:33.002Z</time></trkpt><trkpt lat="45.25116958060906" lon="9.311049093209723"><ele>75.0</ele><time>2026-03-29T14:10:34.002Z</time></trkpt><trkpt lat="45.25108036031546" lon="9.310975982483157"><ele>75.0</ele><time>2026-03-29T14:10:35.002Z</time></trkpt><trkpt lat="45.25100096149256" lon="9.310905445895521"><ele>75.0</ele><time>2026-03-29T14:10:36.002Z</time></trkpt><trkpt lat="45.250934825996495" lon="9.310851334640839"><ele>75.0</ele><time>2026-03-29T14:10:37.002Z</time></trkpt><trkpt lat="45.250871890018544" lon="9.310800486934923"><ele>75.0</ele><time>2026-03-29T14:10:38.002Z</time></trkpt><trkpt lat="45.25081810979091" lon="9.310753454276014"><ele>75.0</ele><time>2026-03-29T14:10:39.002Z</time></trkpt><trkpt lat="45.25072964960583" lon="9.310672853257758"><ele>75.0</ele><time>2026-03-29T14:10:41.002Z</time></trkpt><trkpt lat="45.25070172475413" lon="9.310583142802757"><ele>75.16666666666667</ele><time>2026-03-29T14:10:45.002Z</time></trkpt><trkpt lat="45.25076121080202" lon="9.310496002926548"><ele>75.33333333333333</ele><time>2026-03-29T14:10:47.002Z</time></trkpt><trkpt lat="45.25082367301938" lon="9.310445409045691"><ele>75.5</ele><time>2026-03-29T14:10:48.002Z</time></trkpt><trkpt lat="45.25087522174022" lon="9.310379384897802"><ele>75.66666666666666</ele><time>2026-03-29T14:10:49.002Z</time></trkpt><trkpt lat="45.25092797166995" lon="9.31029740560419"><ele>75.83333333333333</ele><time>2026-03-29T14:10:50.002Z</time></trkpt><trkpt lat="45.25096466177048" lon="9.310223255994918"><ele>76.0</ele><time>2026-03-29T14:10:51.002Z</time></trkpt><trkpt lat="45.25101929955393" lon="9.310096390116566"><ele>76.0</ele><time>2026-03-29T14:10:53.002Z</time></trkpt><trkpt lat="45.251065458492924" lon="9.309985673069642"><ele>76.0</ele><time>2026-03-29T14:10:55.002Z</time></trkpt><trkpt lat="45.2510792833205" lon="9.30989162886297"><ele>76.0</ele><time>2026-03-29T14:10:57.002Z</time></trkpt><trkpt lat="45.251094534870866" lon="9.309776022297475"><ele>76.0</ele><time>2026-03-29T14:11:15.003Z</time></trkpt><trkpt lat="45.25110260090447" lon="9.309673651313142"><ele>76.0</ele><time>2026-03-29T14:11:17.003Z</time></trkpt><trkpt lat="45.25110534598077" lon="9.309583536717158"><ele>76.0</ele><time>2026-03-29T14:11:18.003Z</time></trkpt><trkpt lat="45.251087102408" lon="9.309411932054884"><ele>76.8</ele><time>2026-03-29T14:11:20.003Z</time></trkpt><trkpt lat="45.25108459331132" lon="9.30930409065924"><ele>77.6</ele><time>2026-03-29T14:11:21.003Z</time></trkpt><trkpt lat="45.25109659654167" lon="9.30918148530173"><ele>78.4</ele><time>2026-03-29T14:11:22.003Z</time></trkpt><trkpt lat="45.25107762308747" lon="9.309048202905803"><ele>79.2</ele><time>2026-03-29T14:11:23.003Z</time></trkpt><trkpt lat="45.25107829233387" lon="9.308906589912612"><ele>80.0</ele><time>2026-03-29T14:11:24.003Z</time></trkpt><trkpt lat="45.25107504128559" lon="9.308764162612105"><ele>80.4</ele><time>2026-03-29T14:11:25.001Z</time></trkpt><trkpt lat="45.25109047892017" lon="9.308612327979054"><ele>80.8</ele><time>2026-03-29T14:11:26.001Z</time></trkpt><trkpt lat="45.2510911138015" lon="9.308492271777514"><ele>81.19999999999999</ele><time>2026-03-29T14:11:27.001Z</time></trkpt><trkpt lat="45.25109402461106" lon="9.30836655690744"><ele>81.6</ele><time>2026-03-29T14:11:28.001Z</time></trkpt><trkpt lat="45.25109711161464" lon="9.308237931711414"><ele>82.0</ele><time>2026-03-29T14:11:29.001Z</time></trkpt><trkpt lat="45.25110167361315" lon="9.308111179492325"><ele>82.0</ele><time>2026-03-29T14:11:30.001Z</time></trkpt><trkpt lat="45.251093665549234" lon="9.30798264094799"><ele>82.0</ele><time>2026-03-29T14:11:31.001Z</time></trkpt><trkpt lat="45.25111778638117" lon="9.307887109333086"><ele>82.0</ele><time>2026-03-29T14:11:32.001Z</time></trkpt><trkpt lat="45.2511185793843" lon="9.30777549597034"><ele>82.0</ele><time>2026-03-29T14:11:33.001Z</time></trkpt><trkpt lat="45.251137946836856" lon="9.307681734838672"><ele>82.0</ele><time>2026-03-29T14:11:34.001Z</time></trkpt><trkpt lat="45.251151050878924" lon="9.307591085923049"><ele>82.0</ele><time>2026-03-29T14:11:35.001Z</time></trkpt><trkpt lat="45.251183897506166" lon="9.307437070704436"><ele>82.0</ele><time>2026-03-29T14:11:37.001Z</time></trkpt><trkpt lat="45.251209323856294" lon="9.307338852481207"><ele>82.0</ele><time>2026-03-29T14:11:38.001Z</time></trkpt><trkpt lat="45.251240588674406" lon="9.307213050136692"><ele>82.0</ele><time>2026-03-29T14:11:39.001Z</time></trkpt><trkpt lat="45.25129009518137" lon="9.307068661871467"><ele>82.0</ele><time>2026-03-29T14:11:40.001Z</time></trkpt><trkpt lat="45.2513351312153" lon="9.30693222592914"><ele>82.0</ele><time>2026-03-29T14:11:41.001Z</time></trkpt><trkpt lat="45.251378973244144" lon="9.306805447053446"><ele>82.39999999999999</ele><time>2026-03-29T14:11:42.001Z</time></trkpt><trkpt lat="45.25144776228674" lon="9.306680705137202"><ele>82.8</ele><time>2026-03-29T14:11:43.001Z</time></trkpt><trkpt lat="45.251500529875045" lon="9.306554130013287"><ele>83.2</ele><time>2026-03-29T14:11:44.001Z</time></trkpt><trkpt lat="45.25153820478741" lon="9.306414963534598"><ele>83.6</ele><time>2026-03-29T14:11:45.001Z</time></trkpt><trkpt lat="45.251592224811695" lon="9.306287648000204"><ele>84.0</ele><time>2026-03-29T14:11:46.001Z</time></trkpt><trkpt lat="45.25162490528047" lon="9.30615346289828"><ele>82.75</ele><time>2026-03-29T14:11:47.001Z</time></trkpt><trkpt lat="45.25165312161433" lon="9.305991595281132"><ele>81.5</ele><time>2026-03-29T14:11:48.001Z</time></trkpt><trkpt lat="45.25166401261601" lon="9.305846265071363"><ele>80.25</ele><time>2026-03-29T14:11:49.001Z</time></trkpt><trkpt lat="45.25167784516026" lon="9.305682470452842"><ele>79.0</ele><time>2026-03-29T14:11:50.001Z</time></trkpt><trkpt lat="45.25169399372237" lon="9.305522019963414"><ele>78.60000000000001</ele><time>2026-03-29T14:11:51.001Z</time></trkpt><trkpt lat="45.251707849909174" lon="9.305351545582322"><ele>78.2</ele><time>2026-03-29T14:11:52.001Z</time></trkpt><trkpt lat="45.25173795156699" lon="9.305194172950731"><ele>77.80000000000001</ele><time>2026-03-29T14:11:53.001Z</time></trkpt><trkpt lat="45.251749531138294" lon="9.305061351965477"><ele>77.4</ele><time>2026-03-29T14:11:54.001Z</time></trkpt><trkpt lat="45.251744966093575" lon="9.304917547627484"><ele>77.0</ele><time>2026-03-29T14:11:55.001Z</time></trkpt><trkpt lat="45.251755721028765" lon="9.304797276118014"><ele>77.33333333333334</ele><time>2026-03-29T14:11:56.001Z</time></trkpt><trkpt lat="45.25178631207629" lon="9.30469104489255"><ele>77.66666666666667</ele><time>2026-03-29T14:11:57.001Z</time></trkpt><trkpt lat="45.25181232037479" lon="9.304608430720569"><ele>78.0</ele><time>2026-03-29T14:11:58.001Z</time></trkpt><trkpt lat="45.25183573363441" lon="9.304517154759845"><ele>78.33333333333333</ele><time>2026-03-29T14:11:59.001Z</time></trkpt><trkpt lat="45.25188767357761" lon="9.304439611805458"><ele>78.66666666666666</ele><time>2026-03-29T14:12:00.001Z</time></trkpt><trkpt lat="45.251944140787536" lon="9.304357548282896"><ele>79.0</ele><time>2026-03-29T14:12:01.001Z</time></trkpt><trkpt lat="45.25199810336586" lon="9.304253694586455"><ele>79.0</ele><time>2026-03-29T14:12:02.001Z</time></trkpt><trkpt lat="45.25206874454924" lon="9.304155598357717"><ele>79.0</ele><time>2026-03-29T14:12:03.001Z</time></trkpt><trkpt lat="45.25213783305732" lon="9.304060828057931"><ele>79.0</ele><time>2026-03-29T14:12:04.001Z</time></trkpt><trkpt lat="45.25221255792908" lon="9.303963710102174"><ele>79.0</ele><time>2026-03-29T14:12:05.001Z</time></trkpt><trkpt lat="45.25229409645633" lon="9.303859197694653"><ele>79.0</ele><time>2026-03-29T14:12:06.001Z</time></trkpt><trkpt lat="45.25237280272066" lon="9.303753966934083"><ele>79.4</ele><time>2026-03-29T14:12:07.001Z</time></trkpt><trkpt lat="45.25245116175606" lon="9.303649708694012"><ele>79.80000000000001</ele><time>2026-03-29T14:12:08.001Z</time></trkpt><trkpt lat="45.25251757546454" lon="9.303559773429923"><ele>80.19999999999999</ele><time>2026-03-29T14:12:09.001Z</time></trkpt><trkpt lat="45.25259192140437" lon="9.303459292710144"><ele>80.6</ele><time>2026-03-29T14:12:10.001Z</time></trkpt><trkpt lat="45.2526587290573" lon="9.303362289215062"><ele>81.0</ele><time>2026-03-29T14:12:11.001Z</time></trkpt><trkpt lat="45.25272941505272" lon="9.303267364388008"><ele>81.0</ele><time>2026-03-29T14:12:12.001Z</time></trkpt><trkpt lat="45.25279433974599" lon="9.303180661126667"><ele>81.0</ele><time>2026-03-29T14:12:13.001Z</time></trkpt><trkpt lat="45.25287001591823" lon="9.303098321078089"><ele>81.0</ele><time>2026-03-29T14:12:14.001Z</time></trkpt><trkpt lat="45.2529294002979" lon="9.302991599185692"><ele>81.0</ele><time>2026-03-29T14:12:15.001Z</time></trkpt><trkpt lat="45.25298130553307" lon="9.302918265637278"><ele>81.0</ele><time>2026-03-29T14:12:16.001Z</time></trkpt><trkpt lat="45.253028976276504" lon="9.302852876597807"><ele>81.0</ele><time>2026-03-29T14:12:17.001Z</time></trkpt><trkpt lat="45.25307678692263" lon="9.302788318719854"><ele>80.5</ele><time>2026-03-29T14:12:18.001Z</time></trkpt><trkpt lat="45.253137787017245" lon="9.302708351176909"><ele>80.0</ele><time>2026-03-29T14:12:20.001Z</time></trkpt><trkpt lat="45.25320428452554" lon="9.302644785361847"><ele>79.5</ele><time>2026-03-29T14:12:24.001Z</time></trkpt><trkpt lat="45.253248325551226" lon="9.302580657122308"><ele>79.0</ele><time>2026-03-29T14:12:27.001Z</time></trkpt><trkpt lat="45.25331628952089" lon="9.302480165528948"><ele>78.5</ele><time>2026-03-29T14:12:29.001Z</time></trkpt><trkpt lat="45.2533760259479" lon="9.302383027350766"><ele>78.0</ele><time>2026-03-29T14:12:31.002Z</time></trkpt><trkpt lat="45.253430610269305" lon="9.302316705291304"><ele>78.0</ele><time>2026-03-29T14:12:33.002Z</time></trkpt><trkpt lat="45.253495860987684" lon="9.302231006085751"><ele>78.0</ele><time>2026-03-29T14:12:35.002Z</time></trkpt><trkpt lat="45.253582087218795" lon="9.302144816892753"><ele>78.0</ele><time>2026-03-29T14:12:37.002Z</time></trkpt><trkpt lat="45.25365836806616" lon="9.30214517914487"><ele>78.0</ele><time>2026-03-29T14:12:38.002Z</time></trkpt><trkpt lat="45.25376578663677" lon="9.302113773143372"><ele>78.0</ele><time>2026-03-29T14:12:39.002Z</time></trkpt><trkpt lat="45.253876276402245" lon="9.30203978664761"><ele>78.0</ele><time>2026-03-29T14:12:40.002Z</time></trkpt><trkpt lat="45.25398189665121" lon="9.301981780674852"><ele>78.0</ele><time>2026-03-29T14:12:41.002Z</time></trkpt><trkpt lat="45.254087647007594" lon="9.301911409225712"><ele>78.0</ele><time>2026-03-29T14:12:42.002Z</time></trkpt><trkpt lat="45.25420767020081" lon="9.301821500144712"><ele>78.0</ele><time>2026-03-29T14:12:43.002Z</time></trkpt><trkpt lat="45.25433974934968" lon="9.30172104289049"><ele>78.0</ele><time>2026-03-29T14:12:44.002Z</time></trkpt><trkpt lat="45.25449276394026" lon="9.301608817993838"><ele>78.0</ele><time>2026-03-29T14:12:45.002Z</time></trkpt><trkpt lat="45.2546574632207" lon="9.301488745796679"><ele>78.0</ele><time>2026-03-29T14:12:46.002Z</time></trkpt><trkpt lat="45.25481202579847" lon="9.301376007690848"><ele>78.0</ele><time>2026-03-29T14:12:47.002Z</time></trkpt><trkpt lat="45.25496591987816" lon="9.301268711528852"><ele>78.0</ele><time>2026-03-29T14:12:48.002Z</time></trkpt><trkpt lat="45.25513416191135" lon="9.30114932275656"><ele>78.0</ele><time>2026-03-29T14:12:49.002Z</time></trkpt><trkpt lat="45.25531688805211" lon="9.30101617803623"><ele>78.0</ele><time>2026-03-29T14:12:50.002Z</time></trkpt><trkpt lat="45.25551199325827" lon="9.30087322773534"><ele>78.0</ele><time>2026-03-29T14:12:51.002Z</time></trkpt><trkpt lat="45.25571011044069" lon="9.300730204991387"><ele>78.0</ele><time>2026-03-29T14:12:52.002Z</time></trkpt><trkpt lat="45.255896887517885" lon="9.300595601387878"><ele>77.66666666666667</ele><time>2026-03-29T14:12:53.002Z</time></trkpt><trkpt lat="45.2560805286239" lon="9.30046587068055"><ele>77.33333333333334</ele><time>2026-03-29T14:12:54.002Z</time></trkpt><trkpt lat="45.25627610334637" lon="9.300327125462532"><ele>77.0</ele><time>2026-03-29T14:12:55.002Z</time></trkpt><trkpt lat="45.25648211105169" lon="9.300179430953817"><ele>77.0</ele><time>2026-03-29T14:12:56.002Z</time></trkpt><trkpt lat="45.25668970884359" lon="9.300032679681498"><ele>77.0</ele><time>2026-03-29T14:12:57.002Z</time></trkpt><trkpt lat="45.25688650061143" lon="9.299893685266179"><ele>77.0</ele><time>2026-03-29T14:12:58.002Z</time></trkpt><trkpt lat="45.257068117150496" lon="9.299766851922447"><ele>77.0</ele><time>2026-03-29T14:12:59.002Z</time></trkpt><trkpt lat="45.25724892098275" lon="9.299639880555683"><ele>77.0</ele><time>2026-03-29T14:13:00.002Z</time></trkpt><trkpt lat="45.257425663548" lon="9.299518717495882"><ele>77.33333333333334</ele><time>2026-03-29T14:13:01.002Z</time></trkpt><trkpt lat="45.25760828540963" lon="9.299394254996985"><ele>77.66666666666667</ele><time>2026-03-29T14:13:02.002Z</time></trkpt><trkpt lat="45.25778666061836" lon="9.299271670779246"><ele>78.0</ele><time>2026-03-29T14:13:03.002Z</time></trkpt><trkpt lat="45.25796193585404" lon="9.299149666337415"><ele>78.0</ele><time>2026-03-29T14:13:04.002Z</time></trkpt><trkpt lat="45.258147091173235" lon="9.299018250092102"><ele>78.0</ele><time>2026-03-29T14:13:05.002Z</time></trkpt><trkpt lat="45.258335945444834" lon="9.298881306657256"><ele>78.0</ele><time>2026-03-29T14:13:06.002Z</time></trkpt><trkpt lat="45.25852549207053" lon="9.298744591231157"><ele>78.33333333333333</ele><time>2026-03-29T14:13:07.002Z</time></trkpt><trkpt lat="45.25870353637552" lon="9.29862054841482"><ele>78.66666666666666</ele><time>2026-03-29T14:13:08.002Z</time></trkpt><trkpt lat="45.25887554270502" lon="9.298498591045854"><ele>79.0</ele><time>2026-03-29T14:13:09.002Z</time></trkpt><trkpt lat="45.25905924473064" lon="9.29836510850322"><ele>79.0</ele><time>2026-03-29T14:13:10.002Z</time></trkpt><trkpt lat="45.25924834647428" lon="9.298229302373828"><ele>79.0</ele><time>2026-03-29T14:13:11.003Z</time></trkpt><trkpt lat="45.25944406253976" lon="9.29809399411208"><ele>79.0</ele><time>2026-03-29T14:13:12.003Z</time></trkpt><trkpt lat="45.25963015464385" lon="9.297971413875644"><ele>78.66666666666666</ele><time>2026-03-29T14:13:13.003Z</time></trkpt><trkpt lat="45.25981362848337" lon="9.297853601616572"><ele>78.33333333333333</ele><time>2026-03-29T14:13:14.003Z</time></trkpt><trkpt lat="45.25999855327847" lon="9.297741147440158"><ele>78.0</ele><time>2026-03-29T14:13:15.003Z</time></trkpt><trkpt lat="45.26018673337261" lon="9.29763395538617"><ele>78.0</ele><time>2026-03-29T14:13:16.003Z</time></trkpt><trkpt lat="45.26037748126981" lon="9.297542591178422"><ele>78.0</ele><time>2026-03-29T14:13:17.003Z</time></trkpt><trkpt lat="45.260567618417745" lon="9.297462543405263"><ele>78.0</ele><time>2026-03-29T14:13:18.003Z</time></trkpt><trkpt lat="45.2607655823846" lon="9.297386616339214"><ele>78.33333333333333</ele><time>2026-03-29T14:13:19.003Z</time></trkpt><trkpt lat="45.2609729826867" lon="9.297308724809875"><ele>78.66666666666666</ele><time>2026-03-29T14:13:20.003Z</time></trkpt><trkpt lat="45.26118289332396" lon="9.297236936373428"><ele>79.0</ele><time>2026-03-29T14:13:21.003Z</time></trkpt><trkpt lat="45.26139467186119" lon="9.297163285390681"><ele>79.0</ele><time>2026-03-29T14:13:22.003Z</time></trkpt><trkpt lat="45.26160949191318" lon="9.297089608978842"><ele>79.0</ele><time>2026-03-29T14:13:23.003Z</time></trkpt><trkpt lat="45.261827265738916" lon="9.297023402761045"><ele>79.0</ele><time>2026-03-29T14:13:24.003Z</time></trkpt><trkpt lat="45.26204626195287" lon="9.296957521274832"><ele>79.0</ele><time>2026-03-29T14:13:25.003Z</time></trkpt><trkpt lat="45.26227233930991" lon="9.296899734435211"><ele>79.0</ele><time>2026-03-29T14:13:26.003Z</time></trkpt><trkpt lat="45.26249536051481" lon="9.296848817555734"><ele>78.0</ele><time>2026-03-29T14:13:27.003Z</time></trkpt><trkpt lat="45.262719189545" lon="9.296802162512403"><ele>77.0</ele><time>2026-03-29T14:13:28.003Z</time></trkpt><trkpt lat="45.26294276130631" lon="9.296763779714066"><ele>77.33333333333334</ele><time>2026-03-29T14:13:29.003Z</time></trkpt><trkpt lat="45.26317236852548" lon="9.296742376232467"><ele>77.66666666666667</ele><time>2026-03-29T14:13:30.003Z</time></trkpt><trkpt lat="45.263381571885304" lon="9.296737958414047"><ele>78.0</ele><time>2026-03-29T14:13:31Z</time></trkpt><trkpt lat="45.263598839701494" lon="9.296746379105517"><ele>78.0</ele><time>2026-03-29T14:13:32Z</time></trkpt><trkpt lat="45.2638107519048" lon="9.296760939688054"><ele>78.0</ele><time>2026-03-29T14:13:33Z</time></trkpt><trkpt lat="45.26401421407113" lon="9.296770351269595"><ele>78.0</ele><time>2026-03-29T14:13:34Z</time></trkpt><trkpt lat="45.264200608916" lon="9.296769234573004"><ele>78.66666666666667</ele><time>2026-03-29T14:13:35Z</time></trkpt><trkpt lat="45.26438669411675" lon="9.296756868875342"><ele>79.33333333333334</ele><time>2026-03-29T14:13:36Z</time></trkpt><trkpt lat="45.264579564433866" lon="9.296727016245914"><ele>80.0</ele><time>2026-03-29T14:13:37Z</time></trkpt><trkpt lat="45.2647829141106" lon="9.296675282670318"><ele>81.0</ele><time>2026-03-29T14:13:38Z</time></trkpt><trkpt lat="45.26499426364504" lon="9.29661371645807"><ele>82.0</ele><time>2026-03-29T14:13:39Z</time></trkpt><trkpt lat="45.2652028079507" lon="9.296552846466467"><ele>83.0</ele><time>2026-03-29T14:13:40Z</time></trkpt><trkpt lat="45.26541458448601" lon="9.296492645753256"><ele>83.0</ele><time>2026-03-29T14:13:41Z</time></trkpt><trkpt lat="45.26560638314882" lon="9.296437550273502"><ele>83.0</ele><time>2026-03-29T14:13:42Z</time></trkpt><trkpt lat="45.26578288195389" lon="9.296393636875083"><ele>83.0</ele><time>2026-03-29T14:13:43Z</time></trkpt><trkpt lat="45.265940881890984" lon="9.296368043129478"><ele>82.25</ele><time>2026-03-29T14:13:44Z</time></trkpt><trkpt lat="45.266089242316795" lon="9.296361325678944"><ele>81.5</ele><time>2026-03-29T14:13:45Z</time></trkpt><trkpt lat="45.26623735223527" lon="9.296374296795925"><ele>80.75</ele><time>2026-03-29T14:13:46Z</time></trkpt><trkpt lat="45.26636481966938" lon="9.29641986192531"><ele>80.0</ele><time>2026-03-29T14:13:47Z</time></trkpt><trkpt lat="45.26648728536619" lon="9.296486999378066"><ele>80.0</ele><time>2026-03-29T14:13:48Z</time></trkpt><trkpt lat="45.266596742767874" lon="9.296562682649732"><ele>80.0</ele><time>2026-03-29T14:13:49Z</time></trkpt><trkpt lat="45.26669490630739" lon="9.296649268795"><ele>80.0</ele><time>2026-03-29T14:13:50Z</time></trkpt><trkpt lat="45.26677847470979" lon="9.296707649256831"><ele>80.0</ele><time>2026-03-29T14:13:51Z</time></trkpt><trkpt lat="45.266821119208174" lon="9.296833196411084"><ele>80.0</ele><time>2026-03-29T14:13:52Z</time></trkpt><trkpt lat="45.266844655991" lon="9.296940413994264"><ele>80.0</ele><time>2026-03-29T14:13:53Z</time></trkpt><trkpt lat="45.266849515003926" lon="9.297056975671078"><ele>80.0</ele><time>2026-03-29T14:13:54Z</time></trkpt><trkpt lat="45.26685418909897" lon="9.297156003735486"><ele>80.0</ele><time>2026-03-29T14:13:55Z</time></trkpt><trkpt lat="45.26687775370611" lon="9.297259089680562"><ele>80.0</ele><time>2026-03-29T14:13:56Z</time></trkpt><trkpt lat="45.26693199752578" lon="9.297353501116525"><ele>80.0</ele><time>2026-03-29T14:13:57Z</time></trkpt><trkpt lat="45.26700666582444" lon="9.297411307223276"><ele>80.0</ele><time>2026-03-29T14:13:58Z</time></trkpt><trkpt lat="45.26709167361589" lon="9.297422023146387"><ele>80.0</ele><time>2026-03-29T14:13:59Z</time></trkpt><trkpt lat="45.267163092900816" lon="9.297388508150684"><ele>80.0</ele><time>2026-03-29T14:14:00Z</time></trkpt><trkpt lat="45.26723515152411" lon="9.297312023420126"><ele>80.0</ele><time>2026-03-29T14:14:01Z</time></trkpt><trkpt lat="45.26729553990795" lon="9.297211649828615"><ele>80.0</ele><time>2026-03-29T14:14:02Z</time></trkpt><trkpt lat="45.26734461267727" lon="9.297077234092546"><ele>80.0</ele><time>2026-03-29T14:14:03Z</time></trkpt><trkpt lat="45.2673996949865" lon="9.296950230941968"><ele>80.0</ele><time>2026-03-29T14:14:04.001Z</time></trkpt><trkpt lat="45.267487460158186" lon="9.296845128019674"><ele>80.0</ele><time>2026-03-29T14:14:05.001Z</time></trkpt><trkpt lat="45.26759962452963" lon="9.296766813147965"><ele>80.0</ele><time>2026-03-29T14:14:06.001Z</time></trkpt><trkpt lat="45.26774460655634" lon="9.296686147664563"><ele>80.0</ele><time>2026-03-29T14:14:07.001Z</time></trkpt><trkpt lat="45.267887052395245" lon="9.296604550963352"><ele>80.0</ele><time>2026-03-29T14:14:08.001Z</time></trkpt><trkpt lat="45.268024250088985" lon="9.296518827359835"><ele>80.0</ele><time>2026-03-29T14:14:09.001Z</time></trkpt><trkpt lat="45.26817325735007" lon="9.296414434960882"><ele>80.0</ele><time>2026-03-29T14:14:10.001Z</time></trkpt><trkpt lat="45.268330688157974" lon="9.296301337733281"><ele>81.33333333333334</ele><time>2026-03-29T14:14:11.001Z</time></trkpt><trkpt lat="45.26849347052782" lon="9.296191641641446"><ele>82.66666666666667</ele><time>2026-03-29T14:14:12.001Z</time></trkpt><trkpt lat="45.268663608599226" lon="9.296086994787446"><ele>84.0</ele><time>2026-03-29T14:14:13.001Z</time></trkpt><trkpt lat="45.26883725475165" lon="9.295981793481035"><ele>83.0</ele><time>2026-03-29T14:14:14.001Z</time></trkpt><trkpt lat="45.269007910241946" lon="9.2958730992307"><ele>82.0</ele><time>2026-03-29T14:14:15.001Z</time></trkpt><trkpt lat="45.269183771543375" lon="9.295760931895565"><ele>81.0</ele><time>2026-03-29T14:14:16.001Z</time></trkpt><trkpt lat="45.26935719049536" lon="9.295649133447489"><ele>81.0</ele><time>2026-03-29T14:14:17.001Z</time></trkpt><trkpt lat="45.26953974887883" lon="9.295533301413014"><ele>81.0</ele><time>2026-03-29T14:14:18.001Z</time></trkpt><trkpt lat="45.26973090553226" lon="9.295417006193793"><ele>81.0</ele><time>2026-03-29T14:14:19.001Z</time></trkpt><trkpt lat="45.269925117000966" lon="9.295296530324999"><ele>80.66666666666667</ele><time>2026-03-29T14:14:20.001Z</time></trkpt><trkpt lat="45.27011677441081" lon="9.295172850622182"><ele>80.33333333333334</ele><time>2026-03-29T14:14:21.001Z</time></trkpt><trkpt lat="45.2702991191277" lon="9.29505468023661"><ele>80.0</ele><time>2026-03-29T14:14:22.001Z</time></trkpt><trkpt lat="45.27048108964832" lon="9.294937270118629"><ele>80.0</ele><time>2026-03-29T14:14:23.001Z</time></trkpt><trkpt lat="45.27066942366631" lon="9.294814829478083"><ele>80.0</ele><time>2026-03-29T14:14:24.001Z</time></trkpt><trkpt lat="45.27085729229858" lon="9.294689397028739"><ele>80.0</ele><time>2026-03-29T14:14:25.001Z</time></trkpt><trkpt lat="45.27104741948912" lon="9.294554473994811"><ele>80.66666666666667</ele><time>2026-03-29T14:14:26.001Z</time></trkpt><trkpt lat="45.27123879176463" lon="9.294416116626547"><ele>81.33333333333333</ele><time>2026-03-29T14:14:27.001Z</time></trkpt><trkpt lat="45.27142994325594" lon="9.294274649968285"><ele>82.0</ele><time>2026-03-29T14:14:28.001Z</time></trkpt><trkpt lat="45.27162439611922" lon="9.294140254505125"><ele>82.0</ele><time>2026-03-29T14:14:29.001Z</time></trkpt><trkpt lat="45.27182510973419" lon="9.293991617558184"><ele>82.0</ele><time>2026-03-29T14:14:30.001Z</time></trkpt><trkpt lat="45.27202338044444" lon="9.293839271754607"><ele>82.0</ele><time>2026-03-29T14:14:31.001Z</time></trkpt><trkpt lat="45.272225196001656" lon="9.293695548918949"><ele>82.0</ele><time>2026-03-29T14:14:32.001Z</time></trkpt><trkpt lat="45.27242243731695" lon="9.293551895721784"><ele>82.0</ele><time>2026-03-29T14:14:33.001Z</time></trkpt><trkpt lat="45.272624061614955" lon="9.293405833860758"><ele>82.0</ele><time>2026-03-29T14:14:34.001Z</time></trkpt><trkpt lat="45.272813103203916" lon="9.293267663899561"><ele>82.0</ele><time>2026-03-29T14:14:35.001Z</time></trkpt><trkpt lat="45.272995945596755" lon="9.293136896244064"><ele>82.0</ele><time>2026-03-29T14:14:36.001Z</time></trkpt><trkpt lat="45.27316961003888" lon="9.293013761347675"><ele>82.0</ele><time>2026-03-29T14:14:37.001Z</time></trkpt><trkpt lat="45.27332373576006" lon="9.29289935990175"><ele>82.0</ele><time>2026-03-29T14:14:38.001Z</time></trkpt><trkpt lat="45.27348312054293" lon="9.292782323542978"><ele>82.0</ele><time>2026-03-29T14:14:39.001Z</time></trkpt><trkpt lat="45.27364128932958" lon="9.292672011015679"><ele>82.0</ele><time>2026-03-29T14:14:40.001Z</time></trkpt><trkpt lat="45.27378902511022" lon="9.292574680321882"><ele>82.0</ele><time>2026-03-29T14:14:41.001Z</time></trkpt><trkpt lat="45.27396342729179" lon="9.292456898011975"><ele>82.0</ele><time>2026-03-29T14:14:42.001Z</time></trkpt><trkpt lat="45.274133446414446" lon="9.292347968130077"><ele>81.66666666666666</ele><time>2026-03-29T14:14:43.001Z</time></trkpt><trkpt lat="45.27431193452969" lon="9.292226475386673"><ele>81.33333333333333</ele><time>2026-03-29T14:14:44.001Z</time></trkpt><trkpt lat="45.27449285373334" lon="9.292101136307483"><ele>81.0</ele><time>2026-03-29T14:14:45.002Z</time></trkpt><trkpt lat="45.274674449495016" lon="9.29197588779034"><ele>81.0</ele><time>2026-03-29T14:14:46.002Z</time></trkpt><trkpt lat="45.27484585722147" lon="9.291859679510338"><ele>81.0</ele><time>2026-03-29T14:14:47.002Z</time></trkpt><trkpt lat="45.27501421455998" lon="9.291746978821024"><ele>81.0</ele><time>2026-03-29T14:14:48.002Z</time></trkpt><trkpt lat="45.2751788912143" lon="9.291638468333907"><ele>81.0</ele><time>2026-03-29T14:14:49.002Z</time></trkpt><trkpt lat="45.27533511919172" lon="9.291541495434297"><ele>81.0</ele><time>2026-03-29T14:14:50.002Z</time></trkpt><trkpt lat="45.27549171512451" lon="9.291452100651814"><ele>81.0</ele><time>2026-03-29T14:14:51.002Z</time></trkpt><trkpt lat="45.27564112531081" lon="9.291368685615803"><ele>81.25</ele><time>2026-03-29T14:14:52.002Z</time></trkpt><trkpt lat="45.27577809635174" lon="9.291303562076939"><ele>81.5</ele><time>2026-03-29T14:14:53.002Z</time></trkpt><trkpt lat="45.27591279947376" lon="9.291239032344592"><ele>81.75</ele><time>2026-03-29T14:14:54.002Z</time></trkpt><trkpt lat="45.2760348997017" lon="9.291184314603377"><ele>82.0</ele><time>2026-03-29T14:14:55.002Z</time></trkpt><trkpt lat="45.276150154761666" lon="9.291139378477846"><ele>82.0</ele><time>2026-03-29T14:14:56.002Z</time></trkpt><trkpt lat="45.27626269463042" lon="9.291093473430742"><ele>82.0</ele><time>2026-03-29T14:14:57.002Z</time></trkpt><trkpt lat="45.276377663539115" lon="9.291044534359916"><ele>82.0</ele><time>2026-03-29T14:14:58.002Z</time></trkpt><trkpt lat="45.27651029287116" lon="9.29098705185248"><ele>82.0</ele><time>2026-03-29T14:14:59.002Z</time></trkpt><trkpt lat="45.27664364578586" lon="9.290932672756517"><ele>82.0</ele><time>2026-03-29T14:15:00.002Z</time></trkpt><trkpt lat="45.276779355294856" lon="9.290873844242913"><ele>82.0</ele><time>2026-03-29T14:15:01.002Z</time></trkpt><trkpt lat="45.276921199370946" lon="9.290812140053218"><ele>82.0</ele><time>2026-03-29T14:15:02.002Z</time></trkpt><trkpt lat="45.27705367138354" lon="9.290756856899607"><ele>82.0</ele><time>2026-03-29T14:15:03.002Z</time></trkpt><trkpt lat="45.277185242247" lon="9.290701045654988"><ele>82.25</ele><time>2026-03-29T14:15:04.002Z</time></trkpt><trkpt lat="45.277315306448834" lon="9.290645770732725"><ele>82.5</ele><time>2026-03-29T14:15:05.002Z</time></trkpt><trkpt lat="45.27743648983474" lon="9.29059297914142"><ele>82.75</ele><time>2026-03-29T14:15:06.002Z</time></trkpt><trkpt lat="45.27755625631397" lon="9.290538610071225"><ele>83.0</ele><time>2026-03-29T14:15:07.002Z</time></trkpt><trkpt lat="45.27767282719728" lon="9.29048729952322"><ele>83.0</ele><time>2026-03-29T14:15:08.002Z</time></trkpt><trkpt lat="45.27778494829673" lon="9.290435007002023"><ele>83.0</ele><time>2026-03-29T14:15:09.002Z</time></trkpt><trkpt lat="45.27789488507909" lon="9.29038374880791"><ele>83.0</ele><time>2026-03-29T14:15:10.002Z</time></trkpt><trkpt lat="45.27800578109641" lon="9.29033164593894"><ele>83.0</ele><time>2026-03-29T14:15:11.002Z</time></trkpt><trkpt lat="45.2781198618258" lon="9.290279352141198"><ele>82.75</ele><time>2026-03-29T14:15:12.002Z</time></trkpt><trkpt lat="45.278233808226005" lon="9.290225591488216"><ele>82.5</ele><time>2026-03-29T14:15:13.002Z</time></trkpt><trkpt lat="45.27834287077607" lon="9.290172109774243"><ele>82.25</ele><time>2026-03-29T14:15:14.002Z</time></trkpt><trkpt lat="45.278457871968136" lon="9.290118945891527"><ele>82.0</ele><time>2026-03-29T14:15:15.002Z</time></trkpt><trkpt lat="45.27856717549492" lon="9.290071792647938"><ele>82.0</ele><time>2026-03-29T14:15:16.002Z</time></trkpt><trkpt lat="45.27867723969449" lon="9.290025670540025"><ele>82.0</ele><time>2026-03-29T14:15:17.002Z</time></trkpt><trkpt lat="45.278786372811076" lon="9.289977777756866"><ele>82.0</ele><time>2026-03-29T14:15:18.002Z</time></trkpt><trkpt lat="45.2788931021664" lon="9.289930702407029"><ele>82.0</ele><time>2026-03-29T14:15:19.002Z</time></trkpt><trkpt lat="45.27899113973456" lon="9.289887088740823"><ele>82.0</ele><time>2026-03-29T14:15:20.002Z</time></trkpt><trkpt lat="45.279085642635444" lon="9.289843295754498"><ele>82.0</ele><time>2026-03-29T14:15:21.002Z</time></trkpt><trkpt lat="45.27917338710624" lon="9.289802027401228"><ele>82.0</ele><time>2026-03-29T14:15:22.002Z</time></trkpt><trkpt lat="45.27925871003406" lon="9.289764112078368"><ele>82.0</ele><time>2026-03-29T14:15:23.002Z</time></trkpt><trkpt lat="45.27933890571396" lon="9.28973283858361"><ele>82.0</ele><time>2026-03-29T14:15:24.002Z</time></trkpt><trkpt lat="45.27941781334603" lon="9.289707552856282"><ele>82.0</ele><time>2026-03-29T14:15:25.002Z</time></trkpt><trkpt lat="45.279490483797325" lon="9.289693457884175"><ele>82.0</ele><time>2026-03-29T14:15:26.002Z</time></trkpt><trkpt lat="45.27955839090728" lon="9.28970554103411"><ele>81.99999999999999</ele><time>2026-03-29T14:15:27.003Z</time></trkpt><trkpt lat="45.27961850597155" lon="9.289738386132981"><ele>82.0</ele><time>2026-03-29T14:15:28.003Z</time></trkpt><trkpt lat="45.27968278581948" lon="9.2897732746461"><ele>82.0</ele><time>2026-03-29T14:15:29.003Z</time></trkpt><trkpt lat="45.27975548350773" lon="9.289798073483942"><ele>82.0</ele><time>2026-03-29T14:15:30.003Z</time></trkpt><trkpt lat="45.27983295621497" lon="9.289796855998325"><ele>82.0</ele><time>2026-03-29T14:15:31.003Z</time></trkpt><trkpt lat="45.27990324376103" lon="9.289757902596664"><ele>81.99999999999999</ele><time>2026-03-29T14:15:32.003Z</time></trkpt><trkpt lat="45.27996010119889" lon="9.289688686283178"><ele>82.0</ele><time>2026-03-29T14:15:33.003Z</time></trkpt><trkpt lat="45.279995380051965" lon="9.289594200824586"><ele>82.0</ele><time>2026-03-29T14:15:34.003Z</time></trkpt><trkpt lat="45.28000834303476" lon="9.289487700827754"><ele>82.0</ele><time>2026-03-29T14:15:35.003Z</time></trkpt><trkpt lat="45.27998575864892" lon="9.289391529233828"><ele>82.0</ele><time>2026-03-29T14:15:36.003Z</time></trkpt><trkpt lat="45.27994698980475" lon="9.289307867675896"><ele>82.0</ele><time>2026-03-29T14:15:37Z</time></trkpt><trkpt lat="45.2798832348226" lon="9.289228367497815"><ele>82.0</ele><time>2026-03-29T14:15:38Z</time></trkpt><trkpt lat="45.279807990719526" lon="9.28914721084168"><ele>82.0</ele><time>2026-03-29T14:15:39Z</time></trkpt><trkpt lat="45.27972917306622" lon="9.289054692607731"><ele>82.0</ele><time>2026-03-29T14:15:40Z</time></trkpt><trkpt lat="45.279661333855984" lon="9.288928614367533"><ele>82.0</ele><time>2026-03-29T14:15:41Z</time></trkpt><trkpt lat="45.279608260414285" lon="9.288764606473801"><ele>82.0</ele><time>2026-03-29T14:15:42Z</time></trkpt><trkpt lat="45.27956451732921" lon="9.288582500281908"><ele>82.0</ele><time>2026-03-29T14:15:43Z</time></trkpt><trkpt lat="45.27952237701665" lon="9.288383513083367"><ele>82.0</ele><time>2026-03-29T14:15:44Z</time></trkpt><trkpt lat="45.279483256583944" lon="9.288166860791145"><ele>82.0</ele><time>2026-03-29T14:15:45Z</time></trkpt><trkpt lat="45.27944075912302" lon="9.287926510388013"><ele>82.0</ele><time>2026-03-29T14:15:46Z</time></trkpt><trkpt lat="45.27939171677092" lon="9.28766483453213"><ele>82.0</ele><time>2026-03-29T14:15:47Z</time></trkpt><trkpt lat="45.27934092692841" lon="9.287415019187737"><ele>82.0</ele><time>2026-03-29T14:15:48Z</time></trkpt><trkpt lat="45.27929167473197" lon="9.287155682083812"><ele>82.0</ele><time>2026-03-29T14:15:49Z</time></trkpt><trkpt lat="45.279241251999075" lon="9.2868891800311"><ele>81.66666666666666</ele><time>2026-03-29T14:15:50Z</time></trkpt><trkpt lat="45.279191426544614" lon="9.286623925186047"><ele>81.33333333333333</ele><time>2026-03-29T14:15:51Z</time></trkpt><trkpt lat="45.27914025087686" lon="9.286361752550151"><ele>81.0</ele><time>2026-03-29T14:15:52Z</time></trkpt><trkpt lat="45.27909545953547" lon="9.286119734498662"><ele>81.0</ele><time>2026-03-29T14:15:53Z</time></trkpt><trkpt lat="45.27905062636733" lon="9.285890308316871"><ele>81.0</ele><time>2026-03-29T14:15:54Z</time></trkpt><trkpt lat="45.27900578570069" lon="9.285659236749334"><ele>81.0</ele><time>2026-03-29T14:15:55Z</time></trkpt><trkpt lat="45.27896281663674" lon="9.285420576334653"><ele>81.33333333333333</ele><time>2026-03-29T14:15:56Z</time></trkpt><trkpt lat="45.27891929727218" lon="9.28517640942474"><ele>81.66666666666666</ele><time>2026-03-29T14:15:57Z</time></trkpt><trkpt lat="45.27887822271786" lon="9.284933085053693"><ele>82.0</ele><time>2026-03-29T14:15:58Z</time></trkpt><trkpt lat="45.278832038817285" lon="9.284685618764607"><ele>82.0</ele><time>2026-03-29T14:15:59Z</time></trkpt><trkpt lat="45.27878274699588" lon="9.284437430566497"><ele>82.0</ele><time>2026-03-29T14:16:00Z</time></trkpt><trkpt lat="45.278726459711756" lon="9.28419130409478"><ele>82.0</ele><time>2026-03-29T14:16:01Z</time></trkpt><trkpt lat="45.27867589962964" lon="9.283944144666537"><ele>82.33333333333333</ele><time>2026-03-29T14:16:02Z</time></trkpt><trkpt lat="45.27863401070236" lon="9.283712999185227"><ele>82.66666666666667</ele><time>2026-03-29T14:16:03Z</time></trkpt><trkpt lat="45.27859828673589" lon="9.283501268442096"><ele>83.0</ele><time>2026-03-29T14:16:04Z</time></trkpt><trkpt lat="45.27857136074924" lon="9.283308744794269"><ele>83.0</ele><time>2026-03-29T14:16:05Z</time></trkpt><trkpt lat="45.27858096210674" lon="9.283128265349488"><ele>83.0</ele><time>2026-03-29T14:16:06Z</time></trkpt><trkpt lat="45.27859151311086" lon="9.2829450037297"><ele>83.0</ele><time>2026-03-29T14:16:07Z</time></trkpt><trkpt lat="45.278600540692075" lon="9.28275861052165"><ele>83.0</ele><time>2026-03-29T14:16:08Z</time></trkpt><trkpt lat="45.27862505384002" lon="9.28256486644654"><ele>82.75</ele><time>2026-03-29T14:16:09Z</time></trkpt><trkpt lat="45.27863938990946" lon="9.282356435935581"><ele>82.5</ele><time>2026-03-29T14:16:10Z</time></trkpt><trkpt lat="45.27865105038825" lon="9.282147487806917"><ele>82.25</ele><time>2026-03-29T14:16:11Z</time></trkpt><trkpt lat="45.27866994843837" lon="9.281955349559352"><ele>82.0</ele><time>2026-03-29T14:16:12Z</time></trkpt><trkpt lat="45.278694871093876" lon="9.281795767319325"><ele>82.0</ele><time>2026-03-29T14:16:13Z</time></trkpt><trkpt lat="45.278745621188996" lon="9.281674345846975"><ele>82.0</ele><time>2026-03-29T14:16:14Z</time></trkpt><trkpt lat="45.27881473405425" lon="9.281578716598824"><ele>82.0</ele><time>2026-03-29T14:16:15Z</time></trkpt><trkpt lat="45.278907969607694" lon="9.28149875602497"><ele>82.0</ele><time>2026-03-29T14:16:16Z</time></trkpt><trkpt lat="45.2790325418733" lon="9.281407203566943"><ele>82.0</ele><time>2026-03-29T14:16:17Z</time></trkpt><trkpt lat="45.279176105238015" lon="9.28130974377195"><ele>82.0</ele><time>2026-03-29T14:16:18.001Z</time></trkpt><trkpt lat="45.27932935908054" lon="9.281204538741473"><ele>82.0</ele><time>2026-03-29T14:16:19.001Z</time></trkpt><trkpt lat="45.27948691957001" lon="9.281094245873886"><ele>82.0</ele><time>2026-03-29T14:16:20.001Z</time></trkpt><trkpt lat="45.27963814852501" lon="9.280988049284392"><ele>82.25</ele><time>2026-03-29T14:16:21.001Z</time></trkpt><trkpt lat="45.27977393587265" lon="9.280890613024159"><ele>82.5</ele><time>2026-03-29T14:16:22.001Z</time></trkpt><trkpt lat="45.279898115334035" lon="9.280803944616979"><ele>82.75</ele><time>2026-03-29T14:16:23.001Z</time></trkpt><trkpt lat="45.28001512856647" lon="9.28072540987409"><ele>83.0</ele><time>2026-03-29T14:16:24.001Z</time></trkpt><trkpt lat="45.28013082596687" lon="9.280656442016053"><ele>83.75</ele><time>2026-03-29T14:16:25.001Z</time></trkpt><trkpt lat="45.28023926806104" lon="9.280585029306623"><ele>84.5</ele><time>2026-03-29T14:16:26.001Z</time></trkpt><trkpt lat="45.28034401760017" lon="9.280519475914154"><ele>85.25</ele><time>2026-03-29T14:16:27.001Z</time></trkpt><trkpt lat="45.28044371633064" lon="9.28046045682774"><ele>86.0</ele><time>2026-03-29T14:16:28.001Z</time></trkpt><trkpt lat="45.280555796334944" lon="9.280395114304289"><ele>84.66666666666667</ele><time>2026-03-29T14:16:29.001Z</time></trkpt><trkpt lat="45.28068039276879" lon="9.280314498123314"><ele>83.33333333333333</ele><time>2026-03-29T14:16:30.001Z</time></trkpt><trkpt lat="45.280815950858674" lon="9.280227291758948"><ele>82.0</ele><time>2026-03-29T14:16:31.001Z</time></trkpt><trkpt lat="45.2809650403646" lon="9.28012417292974"><ele>82.0</ele><time>2026-03-29T14:16:32.001Z</time></trkpt><trkpt lat="45.281118793109265" lon="9.280014472273262"><ele>82.0</ele><time>2026-03-29T14:16:33.001Z</time></trkpt><trkpt lat="45.28126862589069" lon="9.27991283266151"><ele>82.0</ele><time>2026-03-29T14:16:34.001Z</time></trkpt><trkpt lat="45.28140107532161" lon="9.279823848095061"><ele>81.75</ele><time>2026-03-29T14:16:35.001Z</time></trkpt><trkpt lat="45.28152493922797" lon="9.279742515486062"><ele>81.5</ele><time>2026-03-29T14:16:36.001Z</time></trkpt><trkpt lat="45.28164495757885" lon="9.27965937210741"><ele>81.25</ele><time>2026-03-29T14:16:37.001Z</time></trkpt><trkpt lat="45.281775528505946" lon="9.2795681930426"><ele>81.0</ele><time>2026-03-29T14:16:38.001Z</time></trkpt><trkpt lat="45.28191965261213" lon="9.279476515911098"><ele>81.0</ele><time>2026-03-29T14:16:39.001Z</time></trkpt><trkpt lat="45.282073743838495" lon="9.279387274796118"><ele>81.0</ele><time>2026-03-29T14:16:40.001Z</time></trkpt><trkpt lat="45.28222313914896" lon="9.279305943088332"><ele>81.0</ele><time>2026-03-29T14:16:41.001Z</time></trkpt><trkpt lat="45.28235878680842" lon="9.279229758964354"><ele>80.6</ele><time>2026-03-29T14:16:42.001Z</time></trkpt><trkpt lat="45.28246813669351" lon="9.279167065084415"><ele>80.19999999999999</ele><time>2026-03-29T14:16:43.001Z</time></trkpt><trkpt lat="45.282549199350655" lon="9.279109590094322"><ele>79.80000000000001</ele><time>2026-03-29T14:16:44.001Z</time></trkpt><trkpt lat="45.28259468307814" lon="9.27902735429881"><ele>79.4</ele><time>2026-03-29T14:16:45.001Z</time></trkpt><trkpt lat="45.28261333228073" lon="9.278918774387762"><ele>79.0</ele><time>2026-03-29T14:16:46.001Z</time></trkpt><trkpt lat="45.28261293028187" lon="9.278782415163393"><ele>78.75</ele><time>2026-03-29T14:16:47.001Z</time></trkpt><trkpt lat="45.28259470387006" lon="9.278617212282276"><ele>78.5</ele><time>2026-03-29T14:16:48.001Z</time></trkpt><trkpt lat="45.28256746852599" lon="9.278439425773882"><ele>78.25</ele><time>2026-03-29T14:16:49.001Z</time></trkpt><trkpt lat="45.28253597607475" lon="9.27826657138028"><ele>78.0</ele><time>2026-03-29T14:16:50.001Z</time></trkpt><trkpt lat="45.28251371296853" lon="9.278099808284432"><ele>78.0</ele><time>2026-03-29T14:16:51.001Z</time></trkpt><trkpt lat="45.28249069454231" lon="9.277950655936522"><ele>78.0</ele><time>2026-03-29T14:16:52.001Z</time></trkpt><trkpt lat="45.2824718860773" lon="9.277827762487115"><ele>78.0</ele><time>2026-03-29T14:16:53.001Z</time></trkpt><trkpt lat="45.28246055173927" lon="9.277729102533717"><ele>78.0</ele><time>2026-03-29T14:16:54.001Z</time></trkpt><trkpt lat="45.28246031287926" lon="9.277615774820337"><ele>78.0</ele><time>2026-03-29T14:16:56.002Z</time></trkpt><trkpt lat="45.282558732106054" lon="9.277565915931516"><ele>78.0</ele><time>2026-03-29T14:16:58.002Z</time></trkpt><trkpt lat="45.282627745525055" lon="9.277561584683218"><ele>78.0</ele><time>2026-03-29T14:16:59.002Z</time></trkpt><trkpt lat="45.28272770135786" lon="9.277557105404938"><ele>78.0</ele><time>2026-03-29T14:17:00.002Z</time></trkpt><trkpt lat="45.28283201417478" lon="9.277524764657304"><ele>78.0</ele><time>2026-03-29T14:17:01.002Z</time></trkpt><trkpt lat="45.282937667745145" lon="9.2774617161863"><ele>78.0</ele><time>2026-03-29T14:17:02.002Z</time></trkpt><trkpt lat="45.28303897137391" lon="9.277371528945315"><ele>78.0</ele><time>2026-03-29T14:17:03.002Z</time></trkpt><trkpt lat="45.28314586952917" lon="9.27727957119111"><ele>78.0</ele><time>2026-03-29T14:17:04.002Z</time></trkpt><trkpt lat="45.28325584348153" lon="9.27718668964871"><ele>78.0</ele><time>2026-03-29T14:17:05.002Z</time></trkpt><trkpt lat="45.283370124459815" lon="9.277098109283703"><ele>78.0</ele><time>2026-03-29T14:17:06.002Z</time></trkpt><trkpt lat="45.283489436075484" lon="9.277028355389465"><ele>77.75</ele><time>2026-03-29T14:17:07.002Z</time></trkpt><trkpt lat="45.28361478986769" lon="9.276967868621837"><ele>77.5</ele><time>2026-03-29T14:17:08.002Z</time></trkpt><trkpt lat="45.28374234217288" lon="9.276904869230696"><ele>77.25</ele><time>2026-03-29T14:17:09.002Z</time></trkpt><trkpt lat="45.28386020071883" lon="9.276819062330137"><ele>77.0</ele><time>2026-03-29T14:17:10.002Z</time></trkpt><trkpt lat="45.2839728625115" lon="9.276706864208549"><ele>77.0</ele><time>2026-03-29T14:17:11.002Z</time></trkpt><trkpt lat="45.284087708830235" lon="9.276590799931645"><ele>77.0</ele><time>2026-03-29T14:17:12.002Z</time></trkpt><trkpt lat="45.28419745420741" lon="9.276467161704717"><ele>77.0</ele><time>2026-03-29T14:17:13.002Z</time></trkpt><trkpt lat="45.284307169625855" lon="9.276339283376515"><ele>77.0</ele><time>2026-03-29T14:17:14.002Z</time></trkpt><trkpt lat="45.284423592577056" lon="9.276209228475512"><ele>76.66666666666667</ele><time>2026-03-29T14:17:15.002Z</time></trkpt><trkpt lat="45.284543559521666" lon="9.276077260979376"><ele>76.33333333333333</ele><time>2026-03-29T14:17:16.002Z</time></trkpt><trkpt lat="45.28466505689291" lon="9.275945390266354"><ele>76.0</ele><time>2026-03-29T14:17:17.002Z</time></trkpt><trkpt lat="45.28478297382065" lon="9.275817305771184"><ele>76.75</ele><time>2026-03-29T14:17:18.002Z</time></trkpt><trkpt lat="45.2848921291315" lon="9.275694041134088"><ele>77.5</ele><time>2026-03-29T14:17:19.002Z</time></trkpt><trkpt lat="45.28500561663861" lon="9.275569363716627"><ele>78.25</ele><time>2026-03-29T14:17:20.002Z</time></trkpt><trkpt lat="45.28510608150748" lon="9.275460986430105"><ele>79.0</ele><time>2026-03-29T14:17:21.002Z</time></trkpt><trkpt lat="45.28520087805034" lon="9.275358946619088"><ele>79.0</ele><time>2026-03-29T14:17:22.002Z</time></trkpt><trkpt lat="45.285283630138636" lon="9.275267089778652"><ele>79.0</ele><time>2026-03-29T14:17:23.002Z</time></trkpt><trkpt lat="45.285356274542245" lon="9.275178295532012"><ele>79.0</ele><time>2026-03-29T14:17:24.002Z</time></trkpt><trkpt lat="45.28541474239062" lon="9.275082439217694"><ele>79.0</ele><time>2026-03-29T14:17:25.002Z</time></trkpt><trkpt lat="45.28545713194733" lon="9.274970489253981"><ele>79.0</ele><time>2026-03-29T14:17:26.002Z</time></trkpt><trkpt lat="45.285485511767234" lon="9.274843663372366"><ele>78.8</ele><time>2026-03-29T14:17:27.002Z</time></trkpt><trkpt lat="45.285495694951614" lon="9.274697668159453"><ele>78.60000000000001</ele><time>2026-03-29T14:17:28.002Z</time></trkpt><trkpt lat="45.28549318097891" lon="9.27454099676293"><ele>78.4</ele><time>2026-03-29T14:17:29.002Z</time></trkpt><trkpt lat="45.28549694184933" lon="9.274378584948545"><ele>78.2</ele><time>2026-03-29T14:17:30.002Z</time></trkpt><trkpt lat="45.28549238215041" lon="9.274222601236334"><ele>78.0</ele><time>2026-03-29T14:17:31.002Z</time></trkpt><trkpt lat="45.28549428762341" lon="9.274082385653838"><ele>78.0</ele><time>2026-03-29T14:17:32.002Z</time></trkpt><trkpt lat="45.2855029573121" lon="9.273941446538737"><ele>78.0</ele><time>2026-03-29T14:17:33.002Z</time></trkpt><trkpt lat="45.2855246926896" lon="9.273826988935735"><ele>78.0</ele><time>2026-03-29T14:17:34.002Z</time></trkpt><trkpt lat="45.285561651760815" lon="9.273723741434878"><ele>78.0</ele><time>2026-03-29T14:17:35.003Z</time></trkpt><trkpt lat="45.285611298623344" lon="9.273637816482127"><ele>78.0</ele><time>2026-03-29T14:17:36.003Z</time></trkpt><trkpt lat="45.2856768089795" lon="9.273558225707305"><ele>78.0</ele><time>2026-03-29T14:17:37.003Z</time></trkpt><trkpt lat="45.285763935307216" lon="9.273483949542316"><ele>78.0</ele><time>2026-03-29T14:17:38.003Z</time></trkpt><trkpt lat="45.28587567528913" lon="9.273409874921844"><ele>78.0</ele><time>2026-03-29T14:17:39.003Z</time></trkpt><trkpt lat="45.28599476166737" lon="9.273338697545213"><ele>78.0</ele><time>2026-03-29T14:17:40.003Z</time></trkpt><trkpt lat="45.286116176683734" lon="9.273274007240664"><ele>78.0</ele><time>2026-03-29T14:17:41.003Z</time></trkpt><trkpt lat="45.28623227822317" lon="9.273219153108576"><ele>78.0</ele><time>2026-03-29T14:17:42.003Z</time></trkpt><trkpt lat="45.28634407256421" lon="9.2731713342016"><ele>78.0</ele><time>2026-03-29T14:17:43Z</time></trkpt><trkpt lat="45.28644799497393" lon="9.273133397253163"><ele>78.0</ele><time>2026-03-29T14:17:44Z</time></trkpt><trkpt lat="45.286551702925095" lon="9.273104970979928"><ele>78.0</ele><time>2026-03-29T14:17:45Z</time></trkpt><trkpt lat="45.28664835491496" lon="9.273084776996306"><ele>78.0</ele><time>2026-03-29T14:17:46Z</time></trkpt><trkpt lat="45.28673425758307" lon="9.273071720823085"><ele>78.33333333333333</ele><time>2026-03-29T14:17:47Z</time></trkpt><trkpt lat="45.28681677766241" lon="9.27304178141858"><ele>78.66666666666667</ele><time>2026-03-29T14:17:48Z</time></trkpt><trkpt lat="45.28688829733413" lon="9.272993656687047"><ele>79.0</ele><time>2026-03-29T14:17:49Z</time></trkpt><trkpt lat="45.286946141210755" lon="9.272921752170731"><ele>79.33333333333334</ele><time>2026-03-29T14:17:50Z</time></trkpt><trkpt lat="45.28700157951242" lon="9.272826386928458"><ele>79.66666666666667</ele><time>2026-03-29T14:17:51Z</time></trkpt><trkpt lat="45.28705623640105" lon="9.272704894869394"><ele>80.0</ele><time>2026-03-29T14:17:52Z</time></trkpt><trkpt lat="45.28710420041426" lon="9.272569700912285"><ele>80.0</ele><time>2026-03-29T14:17:53Z</time></trkpt><trkpt lat="45.287156966418586" lon="9.272419545244231"><ele>80.0</ele><time>2026-03-29T14:17:54Z</time></trkpt><trkpt lat="45.28722473008955" lon="9.272247869814734"><ele>80.0</ele><time>2026-03-29T14:17:55Z</time></trkpt><trkpt lat="45.28730023210757" lon="9.272074992327653"><ele>80.0</ele><time>2026-03-29T14:17:56Z</time></trkpt><trkpt lat="45.287369771970226" lon="9.271908088632458"><ele>80.25</ele><time>2026-03-29T14:17:57Z</time></trkpt><trkpt lat="45.28744289874645" lon="9.27174847741849"><ele>80.5</ele><time>2026-03-29T14:17:58Z</time></trkpt><trkpt lat="45.28750720580609" lon="9.27159582790642"><ele>80.75</ele><time>2026-03-29T14:17:59Z</time></trkpt><trkpt lat="45.28756340887672" lon="9.271465465624653"><ele>81.0</ele><time>2026-03-29T14:18:00Z</time></trkpt><trkpt lat="45.28762182372052" lon="9.271338577890349"><ele>81.0</ele><time>2026-03-29T14:18:01Z</time></trkpt><trkpt lat="45.28769010924198" lon="9.271210249192757"><ele>81.0</ele><time>2026-03-29T14:18:02Z</time></trkpt><trkpt lat="45.287762157935134" lon="9.2710961158235"><ele>81.0</ele><time>2026-03-29T14:18:03Z</time></trkpt><trkpt lat="45.28784839903217" lon="9.270973951336403"><ele>81.0</ele><time>2026-03-29T14:18:04Z</time></trkpt><trkpt lat="45.28794494724676" lon="9.270844107923885"><ele>81.0</ele><time>2026-03-29T14:18:05Z</time></trkpt><trkpt lat="45.28804394429637" lon="9.270712864720652"><ele>81.0</ele><time>2026-03-29T14:18:06Z</time></trkpt><trkpt lat="45.28814824894009" lon="9.270581936239376"><ele>81.0</ele><time>2026-03-29T14:18:07Z</time></trkpt><trkpt lat="45.2882495808065" lon="9.270454353363625"><ele>81.0</ele><time>2026-03-29T14:18:08Z</time></trkpt><trkpt lat="45.28835443524362" lon="9.270321790341216"><ele>81.0</ele><time>2026-03-29T14:18:09Z</time></trkpt><trkpt lat="45.288459310083105" lon="9.270189452993"><ele>81.0</ele><time>2026-03-29T14:18:10Z</time></trkpt><trkpt lat="45.28856965777699" lon="9.27005598269331"><ele>81.0</ele><time>2026-03-29T14:18:11Z</time></trkpt><trkpt lat="45.28867752931662" lon="9.269928880934454"><ele>81.0</ele><time>2026-03-29T14:18:12Z</time></trkpt><trkpt lat="45.28878495234441" lon="9.269801698560997"><ele>80.75</ele><time>2026-03-29T14:18:13Z</time></trkpt><trkpt lat="45.28888946116286" lon="9.269673191068462"><ele>80.5</ele><time>2026-03-29T14:18:14Z</time></trkpt><trkpt lat="45.28899120210644" lon="9.269547848063477"><ele>80.25</ele><time>2026-03-29T14:18:15Z</time></trkpt><trkpt lat="45.28909250137976" lon="9.269430715955455"><ele>80.0</ele><time>2026-03-29T14:18:16Z</time></trkpt><trkpt lat="45.28919050042982" lon="9.269313305898343"><ele>80.4</ele><time>2026-03-29T14:18:17Z</time></trkpt><trkpt lat="45.289288036360446" lon="9.26919563547285"><ele>80.8</ele><time>2026-03-29T14:18:18Z</time></trkpt><trkpt lat="45.289378231528325" lon="9.269088040482714"><ele>81.19999999999999</ele><time>2026-03-29T14:18:19Z</time></trkpt><trkpt lat="45.28946000495067" lon="9.268992933450086"><ele>81.6</ele><time>2026-03-29T14:18:20Z</time></trkpt><trkpt lat="45.289532865323835" lon="9.268903400365973"><ele>82.0</ele><time>2026-03-29T14:18:21Z</time></trkpt><trkpt lat="45.289611392735274" lon="9.268813571102573"><ele>82.0</ele><time>2026-03-29T14:18:22Z</time></trkpt><trkpt lat="45.28968135428802" lon="9.268730167350274"><ele>82.0</ele><time>2026-03-29T14:18:23.001Z</time></trkpt><trkpt lat="45.289765292168916" lon="9.268642932026694"><ele>82.0</ele><time>2026-03-29T14:18:24.001Z</time></trkpt><trkpt lat="45.28984656789413" lon="9.268567922436015"><ele>82.0</ele><time>2026-03-29T14:18:25.001Z</time></trkpt><trkpt lat="45.28994093042364" lon="9.268480124798536"><ele>82.0</ele><time>2026-03-29T14:18:26.001Z</time></trkpt><trkpt lat="45.29004213016192" lon="9.268393573558095"><ele>82.0</ele><time>2026-03-29T14:18:27.001Z</time></trkpt><trkpt lat="45.29014661463532" lon="9.268310625598774"><ele>82.0</ele><time>2026-03-29T14:18:28.001Z</time></trkpt><trkpt lat="45.29025678930705" lon="9.268229565394938"><ele>82.0</ele><time>2026-03-29T14:18:29.001Z</time></trkpt><trkpt lat="45.29036966528815" lon="9.268150764334877"><ele>82.0</ele><time>2026-03-29T14:18:30.001Z</time></trkpt><trkpt lat="45.29049236498678" lon="9.268071727614444"><ele>82.25</ele><time>2026-03-29T14:18:31.001Z</time></trkpt><trkpt lat="45.29060562052307" lon="9.267989374868215"><ele>82.5</ele><time>2026-03-29T14:18:32.001Z</time></trkpt><trkpt lat="45.29071270396831" lon="9.267908721162794"><ele>82.75</ele><time>2026-03-29T14:18:33.001Z</time></trkpt><trkpt lat="45.29082602386844" lon="9.267837936942358"><ele>83.0</ele><time>2026-03-29T14:18:34.001Z</time></trkpt><trkpt lat="45.29092451311339" lon="9.267774866637406"><ele>83.0</ele><time>2026-03-29T14:18:35.001Z</time></trkpt><trkpt lat="45.29103934020718" lon="9.267704771418156"><ele>83.0</ele><time>2026-03-29T14:18:36.001Z</time></trkpt><trkpt lat="45.29114470635413" lon="9.267648748061825"><ele>83.0</ele><time>2026-03-29T14:18:37.001Z</time></trkpt><trkpt lat="45.29126053872015" lon="9.267587693663533"><ele>83.0</ele><time>2026-03-29T14:18:38.001Z</time></trkpt><trkpt lat="45.29137774283017" lon="9.267521750511607"><ele>83.0</ele><time>2026-03-29T14:18:39.001Z</time></trkpt><trkpt lat="45.291503402888566" lon="9.267455436253746"><ele>83.0</ele><time>2026-03-29T14:18:40.001Z</time></trkpt><trkpt lat="45.29161958029935" lon="9.267406901272302"><ele>83.0</ele><time>2026-03-29T14:18:41.001Z</time></trkpt><trkpt lat="45.29172919326698" lon="9.267339046783926"><ele>83.0</ele><time>2026-03-29T14:18:42.001Z</time></trkpt><trkpt lat="45.29182947974329" lon="9.267276763937556"><ele>83.0</ele><time>2026-03-29T14:18:43.001Z</time></trkpt><trkpt lat="45.291935155356796" lon="9.267222333671759"><ele>83.0</ele><time>2026-03-29T14:18:44.001Z</time></trkpt><trkpt lat="45.29202214574751" lon="9.267174125448394"><ele>83.0</ele><time>2026-03-29T14:18:45.001Z</time></trkpt><trkpt lat="45.292110345373366" lon="9.267134396508446"><ele>83.0</ele><time>2026-03-29T14:18:46.001Z</time></trkpt><trkpt lat="45.292196587302" lon="9.267090492848146"><ele>83.0</ele><time>2026-03-29T14:18:47.001Z</time></trkpt><trkpt lat="45.29227545177186" lon="9.267064238874434"><ele>83.4</ele><time>2026-03-29T14:18:48.001Z</time></trkpt><trkpt lat="45.292374924760686" lon="9.267059429906983"><ele>83.80000000000001</ele><time>2026-03-29T14:18:49.001Z</time></trkpt><trkpt lat="45.29248474725621" lon="9.267012616282049"><ele>84.2</ele><time>2026-03-29T14:18:50.001Z</time></trkpt><trkpt lat="45.292594946140746" lon="9.266980871515859"><ele>84.6</ele><time>2026-03-29T14:18:51.001Z</time></trkpt><trkpt lat="45.29271144952527" lon="9.266933083606295"><ele>85.0</ele><time>2026-03-29T14:18:52.001Z</time></trkpt><trkpt lat="45.29283756836768" lon="9.266884122510676"><ele>85.0</ele><time>2026-03-29T14:18:53.001Z</time></trkpt><trkpt lat="45.2929701000386" lon="9.266831507850394"><ele>85.0</ele><time>2026-03-29T14:18:54.001Z</time></trkpt><trkpt lat="45.293091781836075" lon="9.266780726959915"><ele>85.0</ele><time>2026-03-29T14:18:55.001Z</time></trkpt><trkpt lat="45.2932051824271" lon="9.266733520996903"><ele>85.0</ele><time>2026-03-29T14:18:56.001Z</time></trkpt><trkpt lat="45.29330652678979" lon="9.266689360346632"><ele>84.83333333333333</ele><time>2026-03-29T14:18:57.001Z</time></trkpt><trkpt lat="45.293400545467634" lon="9.266645727200945"><ele>84.66666666666666</ele><time>2026-03-29T14:18:58.001Z</time></trkpt><trkpt lat="45.293483736491964" lon="9.266611874912973"><ele>84.5</ele><time>2026-03-29T14:18:59.002Z</time></trkpt><trkpt lat="45.29356212415886" lon="9.266589945235928"><ele>84.33333333333333</ele><time>2026-03-29T14:19:00.002Z</time></trkpt><trkpt lat="45.293634711594045" lon="9.266592470519976"><ele>84.16666666666667</ele><time>2026-03-29T14:19:01.002Z</time></trkpt><trkpt lat="45.29370358638848" lon="9.266626368002658"><ele>84.0</ele><time>2026-03-29T14:19:02.002Z</time></trkpt><trkpt lat="45.293764129165375" lon="9.266679229656217"><ele>84.0</ele><time>2026-03-29T14:19:03.002Z</time></trkpt><trkpt lat="45.29381582661585" lon="9.26676100211189"><ele>84.0</ele><time>2026-03-29T14:19:04.002Z</time></trkpt><trkpt lat="45.29382611006662" lon="9.266862365183384"><ele>84.0</ele><time>2026-03-29T14:19:05.002Z</time></trkpt><trkpt lat="45.293845413080724" lon="9.266977499511965"><ele>84.0</ele><time>2026-03-29T14:19:06.002Z</time></trkpt><trkpt lat="45.29387898185104" lon="9.267130204854098"><ele>84.0</ele><time>2026-03-29T14:19:07.002Z</time></trkpt><trkpt lat="45.293935754230965" lon="9.267301864701382"><ele>83.75</ele><time>2026-03-29T14:19:08.002Z</time></trkpt><trkpt lat="45.293968695135185" lon="9.267492475078269"><ele>83.5</ele><time>2026-03-29T14:19:09.002Z</time></trkpt><trkpt lat="45.29400813882898" lon="9.26767202238094"><ele>83.25</ele><time>2026-03-29T14:19:10.002Z</time></trkpt><trkpt lat="45.29404080056141" lon="9.26782911106675"><ele>83.0</ele><time>2026-03-29T14:19:11.002Z</time></trkpt><trkpt lat="45.294074860592225" lon="9.26797918962384"><ele>83.16666666666667</ele><time>2026-03-29T14:19:12.002Z</time></trkpt><trkpt lat="45.29410586057449" lon="9.268113969912958"><ele>83.33333333333334</ele><time>2026-03-29T14:19:13.002Z</time></trkpt><trkpt lat="45.29413626715534" lon="9.268233356938685"><ele>83.5</ele><time>2026-03-29T14:19:14.002Z</time></trkpt><trkpt lat="45.29416517632957" lon="9.26833488772482"><ele>83.66666666666667</ele><time>2026-03-29T14:19:15.002Z</time></trkpt><trkpt lat="45.294195319386134" lon="9.268417740408186"><ele>83.83333333333333</ele><time>2026-03-29T14:19:16.002Z</time></trkpt><trkpt lat="45.294234566204736" lon="9.268490665767045"><ele>84.0</ele><time>2026-03-29T14:19:17.002Z</time></trkpt><trkpt lat="45.294287606417306" lon="9.268551425372982"><ele>84.0</ele><time>2026-03-29T14:19:18.002Z</time></trkpt><trkpt lat="45.2943495058944" lon="9.268598714285435"><ele>84.0</ele><time>2026-03-29T14:19:19.002Z</time></trkpt><trkpt lat="45.294421259823594" lon="9.26862599118655"><ele>84.0</ele><time>2026-03-29T14:19:20.002Z</time></trkpt><trkpt lat="45.294513144334964" lon="9.268647854049933"><ele>84.0</ele><time>2026-03-29T14:19:21.002Z</time></trkpt><trkpt lat="45.29461626449896" lon="9.268672825332533"><ele>84.0</ele><time>2026-03-29T14:19:22.002Z</time></trkpt><trkpt lat="45.294730211420536" lon="9.268692700616464"><ele>84.0</ele><time>2026-03-29T14:19:23.002Z</time></trkpt><trkpt lat="45.294840033122775" lon="9.268708848915507"><ele>84.0</ele><time>2026-03-29T14:19:24.002Z</time></trkpt><trkpt lat="45.29495696767991" lon="9.26871505929732"><ele>84.0</ele><time>2026-03-29T14:19:25.002Z</time></trkpt><trkpt lat="45.29506222287165" lon="9.268710379126418"><ele>84.0</ele><time>2026-03-29T14:19:26.002Z</time></trkpt><trkpt lat="45.29516904025818" lon="9.268697800787153"><ele>84.0</ele><time>2026-03-29T14:19:27.002Z</time></trkpt><trkpt lat="45.29527814430466" lon="9.268679791712762"><ele>84.0</ele><time>2026-03-29T14:19:28.002Z</time></trkpt><trkpt lat="45.29539681910391" lon="9.268659241069063"><ele>84.0</ele><time>2026-03-29T14:19:29.002Z</time></trkpt><trkpt lat="45.295524718765" lon="9.268634988850458"><ele>84.0</ele><time>2026-03-29T14:19:30.002Z</time></trkpt><trkpt lat="45.2956548482537" lon="9.268612741601432"><ele>84.0</ele><time>2026-03-29T14:19:31.002Z</time></trkpt><trkpt lat="45.2957866869125" lon="9.268591640459238"><ele>84.0</ele><time>2026-03-29T14:19:32.002Z</time></trkpt><trkpt lat="45.295922603124644" lon="9.268573291664213"><ele>84.0</ele><time>2026-03-29T14:19:33.002Z</time></trkpt><trkpt lat="45.29606286710555" lon="9.26855069256712"><ele>84.0</ele><time>2026-03-29T14:19:34.002Z</time></trkpt><trkpt lat="45.29620033616609" lon="9.268530916141684"><ele>84.0</ele><time>2026-03-29T14:19:35.002Z</time></trkpt><trkpt lat="45.29633604201375" lon="9.26851153998919"><ele>84.0</ele><time>2026-03-29T14:19:36.003Z</time></trkpt><trkpt lat="45.29645697000305" lon="9.268494092256393"><ele>84.0</ele><time>2026-03-29T14:19:37.003Z</time></trkpt><trkpt lat="45.29656905836765" lon="9.26847339913304"><ele>84.0</ele><time>2026-03-29T14:19:38.003Z</time></trkpt><trkpt lat="45.29668273857115" lon="9.268453630705961"><ele>84.0</ele><time>2026-03-29T14:19:39.003Z</time></trkpt><trkpt lat="45.29679597233736" lon="9.268433070718705"><ele>84.0</ele><time>2026-03-29T14:19:40.003Z</time></trkpt><trkpt lat="45.29691216313608" lon="9.268408724110193"><ele>84.0</ele><time>2026-03-29T14:19:41.003Z</time></trkpt><trkpt lat="45.297028443297194" lon="9.268385313162321"><ele>84.0</ele><time>2026-03-29T14:19:42.003Z</time></trkpt><trkpt lat="45.29713112252778" lon="9.268360504694348"><ele>84.0</ele><time>2026-03-29T14:19:43.003Z</time></trkpt><trkpt lat="45.29722520427294" lon="9.268340339554083"><ele>84.0</ele><time>2026-03-29T14:19:44.003Z</time></trkpt><trkpt lat="45.29731564607683" lon="9.26831842700804"><ele>84.0</ele><time>2026-03-29T14:19:45.003Z</time></trkpt><trkpt lat="45.29740271144433" lon="9.26829852807034"><ele>84.0</ele><time>2026-03-29T14:19:46.003Z</time></trkpt><trkpt lat="45.297493382017855" lon="9.268280053881211"><ele>84.0</ele><time>2026-03-29T14:19:47.003Z</time></trkpt><trkpt lat="45.29758021202528" lon="9.26826242950408"><ele>84.0</ele><time>2026-03-29T14:19:48.003Z</time></trkpt><trkpt lat="45.29766403204694" lon="9.268244641345115"><ele>84.0</ele><time>2026-03-29T14:19:49Z</time></trkpt><trkpt lat="45.297750234516194" lon="9.268224574791823"><ele>84.0</ele><time>2026-03-29T14:19:50Z</time></trkpt><trkpt lat="45.29782988659256" lon="9.26820331492684"><ele>84.0</ele><time>2026-03-29T14:19:51Z</time></trkpt><trkpt lat="45.29790783536063" lon="9.268184187945781"><ele>84.0</ele><time>2026-03-29T14:19:52Z</time></trkpt><trkpt lat="45.29798328561365" lon="9.268165980698361"><ele>84.0</ele><time>2026-03-29T14:19:53Z</time></trkpt><trkpt lat="45.298064188900675" lon="9.2681512310429"><ele>84.0</ele><time>2026-03-29T14:19:53.999Z</time></trkpt><trkpt lat="45.298135986510445" lon="9.268138883238267"><ele>84.0</ele><time>2026-03-29T14:19:54.999Z</time></trkpt><trkpt lat="45.2982138026073" lon="9.268119016161371"><ele>84.0</ele><time>2026-03-29T14:19:55.999Z</time></trkpt><trkpt lat="45.29829496506115" lon="9.268098337913447"><ele>84.0</ele><time>2026-03-29T14:19:56.999Z</time></trkpt><trkpt lat="45.29837627869188" lon="9.268079359250164"><ele>84.0</ele><time>2026-03-29T14:19:58Z</time></trkpt><trkpt lat="45.29845677270401" lon="9.268059339316004"><ele>84.0</ele><time>2026-03-29T14:19:59Z</time></trkpt><trkpt lat="45.29855446998469" lon="9.268035430740627"><ele>84.0</ele><time>2026-03-29T14:20:00Z</time></trkpt><trkpt lat="45.29865792682759" lon="9.26800907232861"><ele>84.0</ele><time>2026-03-29T14:20:01Z</time></trkpt><trkpt lat="45.29877144278324" lon="9.267983866650065"><ele>84.0</ele><time>2026-03-29T14:20:02Z</time></trkpt><trkpt lat="45.29889625625936" lon="9.267956480362148"><ele>84.0</ele><time>2026-03-29T14:20:03Z</time></trkpt><trkpt lat="45.29902520330343" lon="9.26792048832983"><ele>84.0</ele><time>2026-03-29T14:20:04Z</time></trkpt><trkpt lat="45.29916305171519" lon="9.26788729506908"><ele>84.0</ele><time>2026-03-29T14:20:05Z</time></trkpt><trkpt lat="45.29928829394436" lon="9.26785517849307"><ele>84.0</ele><time>2026-03-29T14:20:06Z</time></trkpt><trkpt lat="45.29941199119686" lon="9.26782781242686"><ele>84.0</ele><time>2026-03-29T14:20:07Z</time></trkpt><trkpt lat="45.299537846464204" lon="9.26779840227743"><ele>84.0</ele><time>2026-03-29T14:20:08Z</time></trkpt><trkpt lat="45.299659115327714" lon="9.267770872894449"><ele>84.0</ele><time>2026-03-29T14:20:09Z</time></trkpt><trkpt lat="45.299787752359606" lon="9.267734293476025"><ele>83.75</ele><time>2026-03-29T14:20:10Z</time></trkpt><trkpt lat="45.2999114764687" lon="9.267695443159504"><ele>83.5</ele><time>2026-03-29T14:20:11Z</time></trkpt><trkpt lat="45.30004019626231" lon="9.267660641315569"><ele>83.25</ele><time>2026-03-29T14:20:12Z</time></trkpt><trkpt lat="45.30015586298169" lon="9.267618438802819"><ele>83.0</ele><time>2026-03-29T14:20:13Z</time></trkpt><trkpt lat="45.300263751946936" lon="9.267581905886324"><ele>83.0</ele><time>2026-03-29T14:20:14Z</time></trkpt><trkpt lat="45.300356540836226" lon="9.2675505454216"><ele>83.0</ele><time>2026-03-29T14:20:15Z</time></trkpt><trkpt lat="45.30045214646552" lon="9.267522665862257"><ele>83.0</ele><time>2026-03-29T14:20:16Z</time></trkpt><trkpt lat="45.30054924584165" lon="9.2674925037874"><ele>83.0</ele><time>2026-03-29T14:20:17Z</time></trkpt><trkpt lat="45.300652915583875" lon="9.267455572916411"><ele>83.0</ele><time>2026-03-29T14:20:18Z</time></trkpt><trkpt lat="45.30074836722631" lon="9.26742956289841"><ele>83.2</ele><time>2026-03-29T14:20:19Z</time></trkpt><trkpt lat="45.30084265829419" lon="9.267398725399687"><ele>83.4</ele><time>2026-03-29T14:20:20Z</time></trkpt><trkpt lat="45.300936980508986" lon="9.267363111747585"><ele>83.60000000000001</ele><time>2026-03-29T14:20:21Z</time></trkpt><trkpt lat="45.30104855905596" lon="9.267333677597811"><ele>83.80000000000001</ele><time>2026-03-29T14:20:22Z</time></trkpt><trkpt lat="45.301163115911585" lon="9.267298457057844"><ele>84.0</ele><time>2026-03-29T14:20:23Z</time></trkpt><trkpt lat="45.30128296013085" lon="9.267258415407593"><ele>84.0</ele><time>2026-03-29T14:20:24.001Z</time></trkpt><trkpt lat="45.301396205052875" lon="9.267219539212379"><ele>84.0</ele><time>2026-03-29T14:20:25.001Z</time></trkpt><trkpt lat="45.30151446298202" lon="9.267177941164098"><ele>84.0</ele><time>2026-03-29T14:20:26.001Z</time></trkpt><trkpt lat="45.30163190395109" lon="9.267135285354728"><ele>84.0</ele><time>2026-03-29T14:20:27.001Z</time></trkpt><trkpt lat="45.301745682302354" lon="9.267085577477465"><ele>84.0</ele><time>2026-03-29T14:20:28.001Z</time></trkpt><trkpt lat="45.30185771829513" lon="9.267038364187473"><ele>84.0</ele><time>2026-03-29T14:20:29.001Z</time></trkpt><trkpt lat="45.301968981623666" lon="9.266998039033597"><ele>84.0</ele><time>2026-03-29T14:20:30.001Z</time></trkpt><trkpt lat="45.302077759719054" lon="9.266950543317666"><ele>84.0</ele><time>2026-03-29T14:20:31.001Z</time></trkpt><trkpt lat="45.302190500948356" lon="9.266919970868674"><ele>84.25</ele><time>2026-03-29T14:20:32.001Z</time></trkpt><trkpt lat="45.302299504252325" lon="9.266841252324777"><ele>84.5</ele><time>2026-03-29T14:20:33.001Z</time></trkpt><trkpt lat="45.302426140351294" lon="9.266781383763693"><ele>84.75</ele><time>2026-03-29T14:20:34.001Z</time></trkpt><trkpt lat="45.30254956785616" lon="9.266717429845968"><ele>85.0</ele><time>2026-03-29T14:20:35.001Z</time></trkpt><trkpt lat="45.30267311891367" lon="9.266655981312606"><ele>85.0</ele><time>2026-03-29T14:20:36.001Z</time></trkpt><trkpt lat="45.302797666014136" lon="9.266600991842719"><ele>85.0</ele><time>2026-03-29T14:20:37.001Z</time></trkpt><trkpt lat="45.302916655246456" lon="9.266548480158448"><ele>85.0</ele><time>2026-03-29T14:20:38.001Z</time></trkpt><trkpt lat="45.30303820258048" lon="9.266502032349132"><ele>85.0</ele><time>2026-03-29T14:20:39.001Z</time></trkpt><trkpt lat="45.30315777191155" lon="9.26646327184398"><ele>84.75</ele><time>2026-03-29T14:20:40.001Z</time></trkpt><trkpt lat="45.303274320159886" lon="9.266419807063427"><ele>84.5</ele><time>2026-03-29T14:20:41.001Z</time></trkpt><trkpt lat="45.30339239032533" lon="9.26637755644228"><ele>84.25</ele><time>2026-03-29T14:20:42.001Z</time></trkpt><trkpt lat="45.303502810379165" lon="9.266332196075794"><ele>84.0</ele><time>2026-03-29T14:20:43.001Z</time></trkpt><trkpt lat="45.30361525001608" lon="9.266290823468852"><ele>84.0</ele><time>2026-03-29T14:20:44.001Z</time></trkpt><trkpt lat="45.303727699362334" lon="9.266253743252102"><ele>84.0</ele><time>2026-03-29T14:20:45.001Z</time></trkpt><trkpt lat="45.30383526261463" lon="9.26621464295853"><ele>84.0</ele><time>2026-03-29T14:20:46.001Z</time></trkpt><trkpt lat="45.30393622631901" lon="9.266186694636527"><ele>84.0</ele><time>2026-03-29T14:20:47.001Z</time></trkpt><trkpt lat="45.30404491831316" lon="9.266147524297352"><ele>84.0</ele><time>2026-03-29T14:20:48.001Z</time></trkpt><trkpt lat="45.304162495110056" lon="9.266075594430616"><ele>84.33333333333333</ele><time>2026-03-29T14:20:49.001Z</time></trkpt><trkpt lat="45.30429510044177" lon="9.26602049189409"><ele>84.66666666666666</ele><time>2026-03-29T14:20:50.001Z</time></trkpt><trkpt lat="45.30444421885139" lon="9.26595395816084"><ele>85.0</ele><time>2026-03-29T14:20:51.001Z</time></trkpt><trkpt lat="45.30460571295836" lon="9.265882486880805"><ele>85.0</ele><time>2026-03-29T14:20:52.001Z</time></trkpt><trkpt lat="45.30474118514507" lon="9.265819199800417"><ele>85.0</ele><time>2026-03-29T14:20:53.001Z</time></trkpt><trkpt lat="45.304860606500824" lon="9.265762417886156"><ele>85.0</ele><time>2026-03-29T14:20:54.001Z</time></trkpt><trkpt lat="45.30496949260961" lon="9.265700049896065"><ele>85.0</ele><time>2026-03-29T14:20:55.001Z</time></trkpt><trkpt lat="45.3050714770291" lon="9.265650753350307"><ele>84.83333333333333</ele><time>2026-03-29T14:20:56.001Z</time></trkpt><trkpt lat="45.30517133888614" lon="9.265625807015859"><ele>84.66666666666666</ele><time>2026-03-29T14:20:57.001Z</time></trkpt><trkpt lat="45.305259482303974" lon="9.265582092368547"><ele>84.5</ele><time>2026-03-29T14:20:58.002Z</time></trkpt><trkpt lat="45.305337268896416" lon="9.26554351418102"><ele>84.33333333333333</ele><time>2026-03-29T14:20:59.002Z</time></trkpt><trkpt lat="45.30540949405667" lon="9.265506970874323"><ele>84.16666666666667</ele><time>2026-03-29T14:21:00.002Z</time></trkpt><trkpt lat="45.305482312581084" lon="9.265469957675565"><ele>84.0</ele><time>2026-03-29T14:21:01.002Z</time></trkpt><trkpt lat="45.30554249573231" lon="9.265435613836784"><ele>84.2</ele><time>2026-03-29T14:21:02.002Z</time></trkpt><trkpt lat="45.30560172440354" lon="9.265394823373951"><ele>84.4</ele><time>2026-03-29T14:21:04.002Z</time></trkpt><trkpt lat="45.30567599364257" lon="9.265229425490071"><ele>84.6</ele><time>2026-03-29T14:21:07.002Z</time></trkpt><trkpt lat="45.30573582459345" lon="9.265352310768492"><ele>84.8</ele><time>2026-03-29T14:21:08.002Z</time></trkpt><trkpt lat="45.305787671063165" lon="9.265467206968381"><ele>85.0</ele><time>2026-03-29T14:21:09.002Z</time></trkpt><trkpt lat="45.305866990513934" lon="9.265590896524106"><ele>85.0</ele><time>2026-03-29T14:21:10.002Z</time></trkpt><trkpt lat="45.30595280401281" lon="9.265738255998658"><ele>85.0</ele><time>2026-03-29T14:21:11.002Z</time></trkpt><trkpt lat="45.306051258694254" lon="9.265891669086129"><ele>85.0</ele><time>2026-03-29T14:21:12.002Z</time></trkpt><trkpt lat="45.30611829083457" lon="9.26601661046225"><ele>85.0</ele><time>2026-03-29T14:21:13.002Z</time></trkpt><trkpt lat="45.30620564138" lon="9.266158496036534"><ele>85.0</ele><time>2026-03-29T14:21:14.002Z</time></trkpt><trkpt lat="45.30629672849714" lon="9.266314620257168"><ele>85.0</ele><time>2026-03-29T14:21:15.002Z</time></trkpt><trkpt lat="45.30639847277847" lon="9.266484882043647"><ele>85.0</ele><time>2026-03-29T14:21:16.002Z</time></trkpt><trkpt lat="45.30649837570573" lon="9.266657893121323"><ele>85.66666666666666</ele><time>2026-03-29T14:21:17.002Z</time></trkpt><trkpt lat="45.30660284190888" lon="9.266834481858899"><ele>86.33333333333333</ele><time>2026-03-29T14:21:18.002Z</time></trkpt><trkpt lat="45.30669905724122" lon="9.267000552155626"><ele>87.0</ele><time>2026-03-29T14:21:19.002Z</time></trkpt><trkpt lat="45.30679425760295" lon="9.267164276883669"><ele>86.75</ele><time>2026-03-29T14:21:20.002Z</time></trkpt><trkpt lat="45.30688792843957" lon="9.267324106492568"><ele>86.5</ele><time>2026-03-29T14:21:21.002Z</time></trkpt><trkpt lat="45.30698148666571" lon="9.26748299499244"><ele>86.25</ele><time>2026-03-29T14:21:22.002Z</time></trkpt><trkpt lat="45.30707042989413" lon="9.267632640153328"><ele>86.0</ele><time>2026-03-29T14:21:23.002Z</time></trkpt><trkpt lat="45.30715378474891" lon="9.267773956369155"><ele>86.0</ele><time>2026-03-29T14:21:24.002Z</time></trkpt><trkpt lat="45.30722787227118" lon="9.267903212617702"><ele>86.0</ele><time>2026-03-29T14:21:25.002Z</time></trkpt><trkpt lat="45.30729492473673" lon="9.268024276022704"><ele>86.0</ele><time>2026-03-29T14:21:26.002Z</time></trkpt><trkpt lat="45.307356261471945" lon="9.268136289518921"><ele>86.0</ele><time>2026-03-29T14:21:27.002Z</time></trkpt><trkpt lat="45.3074037925139" lon="9.268235612699804"><ele>86.0</ele><time>2026-03-29T14:21:28.002Z</time></trkpt><trkpt lat="45.30743757747541" lon="9.268320615571808"><ele>86.0</ele><time>2026-03-29T14:21:29.002Z</time></trkpt><trkpt lat="45.30747013844899" lon="9.268407867443596"><ele>86.0</ele><time>2026-03-29T14:21:30.002Z</time></trkpt><trkpt lat="45.30749630051734" lon="9.268569454423664"><ele>86.0</ele><time>2026-03-29T14:21:32.002Z</time></trkpt><trkpt lat="45.30753290157998" lon="9.268719312109354"><ele>86.0</ele><time>2026-03-29T14:21:34.003Z</time></trkpt><trkpt lat="45.307598687218956" lon="9.268776594672374"><ele>86.0</ele><time>2026-03-29T14:21:35.003Z</time></trkpt><trkpt lat="45.307681060891326" lon="9.268819345445065"><ele>86.0</ele><time>2026-03-29T14:21:36.003Z</time></trkpt><trkpt lat="45.30779176942937" lon="9.26885136452498"><ele>86.0</ele><time>2026-03-29T14:21:37.003Z</time></trkpt><trkpt lat="45.307878992444614" lon="9.268970273113254"><ele>86.0</ele><time>2026-03-29T14:21:38.003Z</time></trkpt><trkpt lat="45.30796839862461" lon="9.269016406215698"><ele>86.0</ele><time>2026-03-29T14:21:39.003Z</time></trkpt><trkpt lat="45.30808310894095" lon="9.269075595539332"><ele>86.25</ele><time>2026-03-29T14:21:40.003Z</time></trkpt><trkpt lat="45.30801794712854" lon="9.269251216987413"><ele>86.5</ele><time>2026-03-29T14:21:41.003Z</time></trkpt><trkpt lat="45.30809176022392" lon="9.269388956455161"><ele>86.75</ele><time>2026-03-29T14:21:42.003Z</time></trkpt><trkpt lat="45.30817099072562" lon="9.26953746939582"><ele>87.0</ele><time>2026-03-29T14:21:43.003Z</time></trkpt><trkpt lat="45.30825621450724" lon="9.26967548358754"><ele>87.0</ele><time>2026-03-29T14:21:44.003Z</time></trkpt><trkpt lat="45.308335256807595" lon="9.26981115294456"><ele>87.0</ele><time>2026-03-29T14:21:45.003Z</time></trkpt><trkpt lat="45.30842294448693" lon="9.269954152002724"><ele>87.0</ele><time>2026-03-29T14:21:46.003Z</time></trkpt><trkpt lat="45.30850636673814" lon="9.270100477992973"><ele>87.0</ele><time>2026-03-29T14:21:47.003Z</time></trkpt><trkpt lat="45.308588994978734" lon="9.27024920551674"><ele>87.0</ele><time>2026-03-29T14:21:48.003Z</time></trkpt><trkpt lat="45.308667967257236" lon="9.270387170508592"><ele>87.0</ele><time>2026-03-29T14:21:49.003Z</time></trkpt><trkpt lat="45.30874638135721" lon="9.270531041670724"><ele>87.0</ele><time>2026-03-29T14:21:50.003Z</time></trkpt><trkpt lat="45.30881583685322" lon="9.27065957596361"><ele>87.0</ele><time>2026-03-29T14:21:51.003Z</time></trkpt><trkpt lat="45.30888473284476" lon="9.27077518916292"><ele>86.8</ele><time>2026-03-29T14:21:52.003Z</time></trkpt><trkpt lat="45.308949723283305" lon="9.27089127506777"><ele>86.6</ele><time>2026-03-29T14:21:53.003Z</time></trkpt><trkpt lat="45.30901465580384" lon="9.271005130942092"><ele>86.39999999999999</ele><time>2026-03-29T14:21:54.003Z</time></trkpt><trkpt lat="45.309070033459435" lon="9.271113240545592"><ele>86.19999999999999</ele><time>2026-03-29T14:21:55Z</time></trkpt><trkpt lat="45.30911188980938" lon="9.271213361881284"><ele>86.0</ele><time>2026-03-29T14:21:56Z</time></trkpt><trkpt lat="45.30914193764552" lon="9.271321309680117"><ele>86.0</ele><time>2026-03-29T14:21:57Z</time></trkpt><trkpt lat="45.30912102288637" lon="9.271439380817064"><ele>86.0</ele><time>2026-03-29T14:21:58Z</time></trkpt><trkpt lat="45.309122114504525" lon="9.271553124083042"><ele>86.0</ele><time>2026-03-29T14:21:59Z</time></trkpt><trkpt lat="45.30912341583906" lon="9.271673055324387"><ele>86.0</ele><time>2026-03-29T14:22:00Z</time></trkpt><trkpt lat="45.30912048431864" lon="9.271791858786926"><ele>86.0</ele><time>2026-03-29T14:22:01Z</time></trkpt><trkpt lat="45.30913984140293" lon="9.27189992959958"><ele>86.0</ele><time>2026-03-29T14:22:02Z</time></trkpt><trkpt lat="45.30917503819722" lon="9.271979620517998"><ele>86.33333333333334</ele><time>2026-03-29T14:22:03Z</time></trkpt><trkpt lat="45.309237165862605" lon="9.272037925547243"><ele>86.66666666666667</ele><time>2026-03-29T14:22:04Z</time></trkpt><trkpt lat="45.30931202184166" lon="9.272077268612334"><ele>87.0</ele><time>2026-03-29T14:22:05Z</time></trkpt><trkpt lat="45.30939234700093" lon="9.27209748628817"><ele>87.33333333333333</ele><time>2026-03-29T14:22:06Z</time></trkpt><trkpt lat="45.30947601160049" lon="9.272074294571526"><ele>87.66666666666666</ele><time>2026-03-29T14:22:07Z</time></trkpt><trkpt lat="45.309536694792364" lon="9.27203952643797"><ele>88.0</ele><time>2026-03-29T14:22:08Z</time></trkpt><trkpt lat="45.30961206687034" lon="9.271973430860724"><ele>88.0</ele><time>2026-03-29T14:22:09Z</time></trkpt><trkpt lat="45.30966351959538" lon="9.271887389522746"><ele>88.0</ele><time>2026-03-29T14:22:10Z</time></trkpt><trkpt lat="45.30973270376311" lon="9.271812850699302"><ele>88.0</ele><time>2026-03-29T14:22:11Z</time></trkpt><trkpt lat="45.30978916041065" lon="9.271706910073565"><ele>88.0</ele><time>2026-03-29T14:22:12Z</time></trkpt><trkpt lat="45.309864829087736" lon="9.271612626137832"><ele>88.0</ele><time>2026-03-29T14:22:13Z</time></trkpt><trkpt lat="45.30996511163507" lon="9.271521974437599"><ele>88.0</ele><time>2026-03-29T14:22:14Z</time></trkpt><trkpt lat="45.31008024463722" lon="9.27142219334126"><ele>88.0</ele><time>2026-03-29T14:22:15Z</time></trkpt><trkpt lat="45.31019923362646" lon="9.271292339390833"><ele>88.0</ele><time>2026-03-29T14:22:16Z</time></trkpt><trkpt lat="45.310338233997115" lon="9.271179402621874"><ele>88.0</ele><time>2026-03-29T14:22:17Z</time></trkpt><trkpt lat="45.31046882308205" lon="9.27107891733695"><ele>87.75</ele><time>2026-03-29T14:22:18Z</time></trkpt><trkpt lat="45.31058717651472" lon="9.270992892347845"><ele>87.5</ele><time>2026-03-29T14:22:19Z</time></trkpt><trkpt lat="45.31070619511938" lon="9.270908809749972"><ele>87.25</ele><time>2026-03-29T14:22:20Z</time></trkpt><trkpt lat="45.31082882211574" lon="9.27082289896283"><ele>87.0</ele><time>2026-03-29T14:22:21Z</time></trkpt><trkpt lat="45.310947735733855" lon="9.270764180514806"><ele>87.0</ele><time>2026-03-29T14:22:22Z</time></trkpt><trkpt lat="45.31105875540204" lon="9.270678411816192"><ele>87.0</ele><time>2026-03-29T14:22:23Z</time></trkpt><trkpt lat="45.311181122883035" lon="9.27057899002936"><ele>87.0</ele><time>2026-03-29T14:22:24Z</time></trkpt><trkpt lat="45.31130299818848" lon="9.270472664307686"><ele>87.0</ele><time>2026-03-29T14:22:25Z</time></trkpt><trkpt lat="45.311415183208396" lon="9.270326565150407"><ele>87.0</ele><time>2026-03-29T14:22:26Z</time></trkpt><trkpt lat="45.31157738423883" lon="9.270230794202218"><ele>87.0</ele><time>2026-03-29T14:22:27Z</time></trkpt><trkpt lat="45.311732922434544" lon="9.270114057995434"><ele>87.0</ele><time>2026-03-29T14:22:28Z</time></trkpt><trkpt lat="45.31189266153969" lon="9.269999040487939"><ele>87.0</ele><time>2026-03-29T14:22:29.001Z</time></trkpt><trkpt lat="45.31204671980801" lon="9.269895606814673"><ele>87.0</ele><time>2026-03-29T14:22:30.001Z</time></trkpt><trkpt lat="45.31218760418894" lon="9.269797969814215"><ele>87.0</ele><time>2026-03-29T14:22:31.001Z</time></trkpt><trkpt lat="45.312323524659995" lon="9.269702543734764"><ele>87.0</ele><time>2026-03-29T14:22:32.001Z</time></trkpt><trkpt lat="45.312467369201336" lon="9.26960120570613"><ele>87.0</ele><time>2026-03-29T14:22:33.001Z</time></trkpt><trkpt lat="45.31261231129235" lon="9.269504984684058"><ele>87.0</ele><time>2026-03-29T14:22:34.001Z</time></trkpt><trkpt lat="45.312755674978504" lon="9.269402485785685"><ele>87.0</ele><time>2026-03-29T14:22:35.001Z</time></trkpt><trkpt lat="45.31289729821031" lon="9.26930282921915"><ele>87.0</ele><time>2026-03-29T14:22:36.001Z</time></trkpt><trkpt lat="45.313039202814615" lon="9.269200599697061"><ele>87.0</ele><time>2026-03-29T14:22:37.001Z</time></trkpt><trkpt lat="45.31318282353931" lon="9.269094286632008"><ele>87.0</ele><time>2026-03-29T14:22:38.001Z</time></trkpt><trkpt lat="45.31332850798149" lon="9.268985693256294"><ele>87.0</ele><time>2026-03-29T14:22:39.001Z</time></trkpt><trkpt lat="45.31347104859559" lon="9.268875927426937"><ele>87.0</ele><time>2026-03-29T14:22:40.001Z</time></trkpt><trkpt lat="45.313616437078" lon="9.268760550534955"><ele>87.0</ele><time>2026-03-29T14:22:41.001Z</time></trkpt><trkpt lat="45.313756440145234" lon="9.268644886549508"><ele>87.0</ele><time>2026-03-29T14:22:42.001Z</time></trkpt><trkpt lat="45.31389836881185" lon="9.268525249515685"><ele>87.0</ele><time>2026-03-29T14:22:43.001Z</time></trkpt><trkpt lat="45.314033389948804" lon="9.268414047593758"><ele>87.25</ele><time>2026-03-29T14:22:44.001Z</time></trkpt><trkpt lat="45.3141597875862" lon="9.26831303014908"><ele>87.5</ele><time>2026-03-29T14:22:45.001Z</time></trkpt><trkpt lat="45.314278526469714" lon="9.268221593095882"><ele>87.75</ele><time>2026-03-29T14:22:46.001Z</time></trkpt><trkpt lat="45.31438912453969" lon="9.268135332650354"><ele>88.0</ele><time>2026-03-29T14:22:47.001Z</time></trkpt><trkpt lat="45.31448484471807" lon="9.26805326462405"><ele>88.0</ele><time>2026-03-29T14:22:48.001Z</time></trkpt><trkpt lat="45.3145849115009" lon="9.267963017993864"><ele>88.0</ele><time>2026-03-29T14:22:49.001Z</time></trkpt><trkpt lat="45.31467812033601" lon="9.267893376459828"><ele>88.0</ele><time>2026-03-29T14:22:50.001Z</time></trkpt><trkpt lat="45.31476821179744" lon="9.267834499373338"><ele>88.0</ele><time>2026-03-29T14:22:51.001Z</time></trkpt><trkpt lat="45.31484961447732" lon="9.26778488315063"><ele>88.0</ele><time>2026-03-29T14:22:52.001Z</time></trkpt><trkpt lat="45.314917698961565" lon="9.267730838214867"><ele>88.0</ele><time>2026-03-29T14:22:53.001Z</time></trkpt><trkpt lat="45.31497741405161" lon="9.267672800024474"><ele>88.0</ele><time>2026-03-29T14:22:54.001Z</time></trkpt><trkpt lat="45.31502791005001" lon="9.267618893707073"><ele>88.0</ele><time>2026-03-29T14:22:55.001Z</time></trkpt><trkpt lat="45.315106677785444" lon="9.267532554471597"><ele>88.0</ele><time>2026-03-29T14:22:57.001Z</time></trkpt><trkpt lat="45.315161096209586" lon="9.267479036458996"><ele>88.0</ele><time>2026-03-29T14:23:33.002Z</time></trkpt><trkpt lat="45.31525868331725" lon="9.267387840245402"><ele>88.0</ele><time>2026-03-29T14:23:35.002Z</time></trkpt><trkpt lat="45.315354864563076" lon="9.267270808967478"><ele>87.83333333333333</ele><time>2026-03-29T14:23:37.002Z</time></trkpt><trkpt lat="45.31540797133801" lon="9.26719976854589"><ele>87.66666666666666</ele><time>2026-03-29T14:23:38.002Z</time></trkpt><trkpt lat="45.31546376790354" lon="9.267137489519708"><ele>87.5</ele><time>2026-03-29T14:23:39.002Z</time></trkpt><trkpt lat="45.31553218571413" lon="9.267069883728603"><ele>87.33333333333333</ele><time>2026-03-29T14:23:40.003Z</time></trkpt><trkpt lat="45.31559862921309" lon="9.267004305695561"><ele>87.16666666666667</ele><time>2026-03-29T14:23:41.003Z</time></trkpt><trkpt lat="45.31566474510566" lon="9.26694318266955"><ele>87.0</ele><time>2026-03-29T14:23:42.003Z</time></trkpt><trkpt lat="45.31574006199856" lon="9.266861223934205"><ele>87.0</ele><time>2026-03-29T14:23:43.003Z</time></trkpt><trkpt lat="45.31583303321466" lon="9.266758258555386"><ele>87.0</ele><time>2026-03-29T14:23:44.003Z</time></trkpt><trkpt lat="45.315936184195905" lon="9.266638954767988"><ele>87.0</ele><time>2026-03-29T14:23:45.003Z</time></trkpt><trkpt lat="45.31603611977449" lon="9.266531273368567"><ele>87.0</ele><time>2026-03-29T14:23:46.003Z</time></trkpt><trkpt lat="45.31613415585996" lon="9.266436201481564"><ele>87.0</ele><time>2026-03-29T14:23:47.003Z</time></trkpt><trkpt lat="45.31624910437939" lon="9.266327066136512"><ele>87.0</ele><time>2026-03-29T14:23:48.003Z</time></trkpt><trkpt lat="45.31637173892496" lon="9.266203796813853"><ele>87.0</ele><time>2026-03-29T14:23:49.003Z</time></trkpt><trkpt lat="45.31650606512815" lon="9.266071436331229"><ele>87.66666666666667</ele><time>2026-03-29T14:23:50.003Z</time></trkpt><trkpt lat="45.31664573106885" lon="9.265940800650068"><ele>88.33333333333334</ele><time>2026-03-29T14:23:51.003Z</time></trkpt><trkpt lat="45.316780246260336" lon="9.26581262446958"><ele>89.0</ele><time>2026-03-29T14:23:52.003Z</time></trkpt><trkpt lat="45.316912193107896" lon="9.265680281200144"><ele>88.66666666666667</ele><time>2026-03-29T14:23:53.003Z</time></trkpt><trkpt lat="45.31705054258146" lon="9.265532960308402"><ele>88.33333333333333</ele><time>2026-03-29T14:23:54.003Z</time></trkpt><trkpt lat="45.31719957053282" lon="9.26538888565188"><ele>88.0</ele><time>2026-03-29T14:23:55.003Z</time></trkpt><trkpt lat="45.317361295185606" lon="9.265223620925015"><ele>88.0</ele><time>2026-03-29T14:23:56.003Z</time></trkpt><trkpt lat="45.31753597147032" lon="9.265056920180466"><ele>88.0</ele><time>2026-03-29T14:23:57.003Z</time></trkpt><trkpt lat="45.31769260235272" lon="9.264900792026427"><ele>88.0</ele><time>2026-03-29T14:23:58.003Z</time></trkpt><trkpt lat="45.31784379429019" lon="9.264767117883842"><ele>88.0</ele><time>2026-03-29T14:23:59.003Z</time></trkpt><trkpt lat="45.317998919496844" lon="9.264632214775975"><ele>88.0</ele><time>2026-03-29T14:24:00.003Z</time></trkpt><trkpt lat="45.31815023715429" lon="9.264493668979066"><ele>88.0</ele><time>2026-03-29T14:24:01Z</time></trkpt><trkpt lat="45.31831101132068" lon="9.2643518930948"><ele>88.33333333333333</ele><time>2026-03-29T14:24:02Z</time></trkpt><trkpt lat="45.31846235460269" lon="9.264224406348564"><ele>88.66666666666667</ele><time>2026-03-29T14:24:03Z</time></trkpt><trkpt lat="45.31861850796081" lon="9.26409834739332"><ele>89.0</ele><time>2026-03-29T14:24:04Z</time></trkpt><trkpt lat="45.31877248644856" lon="9.263972016008678"><ele>89.0</ele><time>2026-03-29T14:24:05Z</time></trkpt><trkpt lat="45.31892479531298" lon="9.263858160690921"><ele>89.0</ele><time>2026-03-29T14:24:06Z</time></trkpt><trkpt lat="45.319070105101325" lon="9.263747639194081"><ele>89.0</ele><time>2026-03-29T14:24:07Z</time></trkpt><trkpt lat="45.319216953140156" lon="9.263636191847748"><ele>89.0</ele><time>2026-03-29T14:24:08Z</time></trkpt><trkpt lat="45.31936750819403" lon="9.263522090261432"><ele>89.0</ele><time>2026-03-29T14:24:09Z</time></trkpt><trkpt lat="45.319513775218454" lon="9.263404572693055"><ele>89.0</ele><time>2026-03-29T14:24:10Z</time></trkpt><trkpt lat="45.319661577595205" lon="9.26330086038961"><ele>88.75</ele><time>2026-03-29T14:24:11Z</time></trkpt><trkpt lat="45.31980165153063" lon="9.263195432202345"><ele>88.5</ele><time>2026-03-29T14:24:12Z</time></trkpt><trkpt lat="45.31993382840212" lon="9.26309569734897"><ele>88.25</ele><time>2026-03-29T14:24:13Z</time></trkpt><trkpt lat="45.32006065565631" lon="9.263007752010267"><ele>88.0</ele><time>2026-03-29T14:24:14Z</time></trkpt><trkpt lat="45.32018989012" lon="9.262904762711848"><ele>87.66666666666666</ele><time>2026-03-29T14:24:15Z</time></trkpt><trkpt lat="45.32031970442193" lon="9.262789753594118"><ele>87.33333333333333</ele><time>2026-03-29T14:24:16Z</time></trkpt><trkpt lat="45.32044952062175" lon="9.262673647829256"><ele>87.0</ele><time>2026-03-29T14:24:17Z</time></trkpt><trkpt lat="45.32058149010188" lon="9.26255299118378"><ele>87.0</ele><time>2026-03-29T14:24:18Z</time></trkpt><trkpt lat="45.320708039199175" lon="9.262433409638218"><ele>87.0</ele><time>2026-03-29T14:24:19Z</time></trkpt><trkpt lat="45.32084159214988" lon="9.262300966815614"><ele>87.0</ele><time>2026-03-29T14:24:20Z</time></trkpt><trkpt lat="45.32097577218758" lon="9.262162305997785"><ele>88.0</ele><time>2026-03-29T14:24:21Z</time></trkpt><trkpt lat="45.32111322592172" lon="9.262017231258778"><ele>89.0</ele><time>2026-03-29T14:24:22Z</time></trkpt><trkpt lat="45.32124930970792" lon="9.261863466958573"><ele>90.0</ele><time>2026-03-29T14:24:23Z</time></trkpt><trkpt lat="45.321381552837586" lon="9.261709924222664"><ele>89.66666666666667</ele><time>2026-03-29T14:24:24Z</time></trkpt><trkpt lat="45.32151258925345" lon="9.261551994361433"><ele>89.33333333333334</ele><time>2026-03-29T14:24:25Z</time></trkpt><trkpt lat="45.321642666594855" lon="9.261387314724129"><ele>89.0</ele><time>2026-03-29T14:24:26Z</time></trkpt><trkpt lat="45.32177102513175" lon="9.261216937140594"><ele>89.0</ele><time>2026-03-29T14:24:27Z</time></trkpt><trkpt lat="45.321900126531915" lon="9.261037073676427"><ele>89.0</ele><time>2026-03-29T14:24:28Z</time></trkpt><trkpt lat="45.32202976391258" lon="9.26085941691172"><ele>89.0</ele><time>2026-03-29T14:24:29Z</time></trkpt><trkpt lat="45.3221510440769" lon="9.26067595064033"><ele>89.0</ele><time>2026-03-29T14:24:30Z</time></trkpt><trkpt lat="45.322278444136174" lon="9.260485953066805"><ele>89.0</ele><time>2026-03-29T14:24:31Z</time></trkpt><trkpt lat="45.32240280284039" lon="9.26030170127199"><ele>89.0</ele><time>2026-03-29T14:24:32Z</time></trkpt><trkpt lat="45.32253034072857" lon="9.26011657420917"><ele>89.0</ele><time>2026-03-29T14:24:33Z</time></trkpt><trkpt lat="45.322653685994844" lon="9.259940203149306"><ele>89.0</ele><time>2026-03-29T14:24:34Z</time></trkpt><trkpt lat="45.32277806931703" lon="9.259754524138737"><ele>89.0</ele><time>2026-03-29T14:24:35Z</time></trkpt><trkpt lat="45.32289786936862" lon="9.259571315358682"><ele>89.0</ele><time>2026-03-29T14:24:36Z</time></trkpt><trkpt lat="45.32302360437622" lon="9.25939622628599"><ele>89.0</ele><time>2026-03-29T14:24:37Z</time></trkpt><trkpt lat="45.323141226434856" lon="9.259230739055175"><ele>89.0</ele><time>2026-03-29T14:24:38.001Z</time></trkpt><trkpt lat="45.32325634480306" lon="9.259055539846901"><ele>90.0</ele><time>2026-03-29T14:24:39.001Z</time></trkpt><trkpt lat="45.323370387520306" lon="9.258880331054291"><ele>91.0</ele><time>2026-03-29T14:24:40.001Z</time></trkpt><trkpt lat="45.323487667502725" lon="9.258711809420484"><ele>92.0</ele><time>2026-03-29T14:24:41.001Z</time></trkpt><trkpt lat="45.323604459740885" lon="9.258542150224716"><ele>92.0</ele><time>2026-03-29T14:24:42.001Z</time></trkpt><trkpt lat="45.32372355582068" lon="9.258376629634638"><ele>92.0</ele><time>2026-03-29T14:24:43.001Z</time></trkpt><trkpt lat="45.32384719185855" lon="9.25822267112134"><ele>92.0</ele><time>2026-03-29T14:24:44.001Z</time></trkpt><trkpt lat="45.32397279281392" lon="9.258069063810664"><ele>91.0</ele><time>2026-03-29T14:24:45.001Z</time></trkpt><trkpt lat="45.32409794075236" lon="9.257917857105586"><ele>90.0</ele><time>2026-03-29T14:24:46.001Z</time></trkpt><trkpt lat="45.32423062229595" lon="9.257766635403021"><ele>89.0</ele><time>2026-03-29T14:24:47.001Z</time></trkpt><trkpt lat="45.32437257587614" lon="9.257609795266735"><ele>89.0</ele><time>2026-03-29T14:24:48.001Z</time></trkpt><trkpt lat="45.32451572225317" lon="9.257459047229807"><ele>89.0</ele><time>2026-03-29T14:24:49.001Z</time></trkpt><trkpt lat="45.32466011678027" lon="9.257310535808937"><ele>89.0</ele><time>2026-03-29T14:24:50.001Z</time></trkpt><trkpt lat="45.32480630030831" lon="9.257163196295032"><ele>88.66666666666667</ele><time>2026-03-29T14:24:51.001Z</time></trkpt><trkpt lat="45.32495461259489" lon="9.257027742300664"><ele>88.33333333333333</ele><time>2026-03-29T14:24:52.001Z</time></trkpt><trkpt lat="45.32510328457672" lon="9.256896335246886"><ele>88.0</ele><time>2026-03-29T14:24:53.001Z</time></trkpt><trkpt lat="45.32525354068617" lon="9.256768046857564"><ele>88.0</ele><time>2026-03-29T14:24:54.001Z</time></trkpt><trkpt lat="45.32540537455195" lon="9.256638643541297"><ele>88.0</ele><time>2026-03-29T14:24:55.001Z</time></trkpt><trkpt lat="45.3255602708711" lon="9.256506599221632"><ele>88.0</ele><time>2026-03-29T14:24:56.001Z</time></trkpt><trkpt lat="45.32572165267339" lon="9.256374236699662"><ele>88.0</ele><time>2026-03-29T14:24:57.001Z</time></trkpt><trkpt lat="45.325873496032905" lon="9.256217223421904"><ele>88.0</ele><time>2026-03-29T14:24:58.001Z</time></trkpt><trkpt lat="45.32603614151068" lon="9.256085048513004"><ele>88.0</ele><time>2026-03-29T14:24:59.001Z</time></trkpt><trkpt lat="45.326202414416514" lon="9.255952651398783"><ele>88.0</ele><time>2026-03-29T14:25:00.001Z</time></trkpt><trkpt lat="45.32636913641947" lon="9.255818989338653"><ele>88.0</ele><time>2026-03-29T14:25:01.001Z</time></trkpt><trkpt lat="45.32653884495301" lon="9.255685747535018"><ele>88.0</ele><time>2026-03-29T14:25:02.001Z</time></trkpt><trkpt lat="45.326712569088876" lon="9.255547472858122"><ele>88.66666666666666</ele><time>2026-03-29T14:25:03.001Z</time></trkpt><trkpt lat="45.32688589435584" lon="9.255408328311443"><ele>89.33333333333333</ele><time>2026-03-29T14:25:04.001Z</time></trkpt><trkpt lat="45.32705689876881" lon="9.25526370874316"><ele>90.0</ele><time>2026-03-29T14:25:05.001Z</time></trkpt><trkpt lat="45.327227504519996" lon="9.255119346819765"><ele>90.0</ele><time>2026-03-29T14:25:06.001Z</time></trkpt><trkpt lat="45.32739856365236" lon="9.254976074129186"><ele>90.0</ele><time>2026-03-29T14:25:07.001Z</time></trkpt><trkpt lat="45.32757394099389" lon="9.254829807872156"><ele>90.0</ele><time>2026-03-29T14:25:08.001Z</time></trkpt><trkpt lat="45.327745226492304" lon="9.25468220470605"><ele>90.0</ele><time>2026-03-29T14:25:09.001Z</time></trkpt><trkpt lat="45.32791944714078" lon="9.254532127206788"><ele>90.0</ele><time>2026-03-29T14:25:10.001Z</time></trkpt><trkpt lat="45.32809321169494" lon="9.254383913433387"><ele>90.0</ele><time>2026-03-29T14:25:11.002Z</time></trkpt><trkpt lat="45.328265885251014" lon="9.254244090889676"><ele>90.0</ele><time>2026-03-29T14:25:12.002Z</time></trkpt><trkpt lat="45.32844086166627" lon="9.254102918123113"><ele>90.0</ele><time>2026-03-29T14:25:13.002Z</time></trkpt><trkpt lat="45.328616152174504" lon="9.253963802223879"><ele>90.0</ele><time>2026-03-29T14:25:14.002Z</time></trkpt><trkpt lat="45.328794055699404" lon="9.25382052914804"><ele>90.0</ele><time>2026-03-29T14:25:15.002Z</time></trkpt><trkpt lat="45.32896628847983" lon="9.253674064611413"><ele>90.0</ele><time>2026-03-29T14:25:16.002Z</time></trkpt><trkpt lat="45.32914462697747" lon="9.253524721613376"><ele>90.0</ele><time>2026-03-29T14:25:17.002Z</time></trkpt><trkpt lat="45.32932777643127" lon="9.253370041423308"><ele>90.0</ele><time>2026-03-29T14:25:18.002Z</time></trkpt><trkpt lat="45.32951673386316" lon="9.25321114299888"><ele>90.0</ele><time>2026-03-29T14:25:19.002Z</time></trkpt><trkpt lat="45.32970844098289" lon="9.253037508379883"><ele>90.0</ele><time>2026-03-29T14:25:20.002Z</time></trkpt><trkpt lat="45.32990343007693" lon="9.25288648685946"><ele>90.0</ele><time>2026-03-29T14:25:21.002Z</time></trkpt><trkpt lat="45.3300957961846" lon="9.25272320368969"><ele>90.0</ele><time>2026-03-29T14:25:22.002Z</time></trkpt><trkpt lat="45.33028660926316" lon="9.252565051628958"><ele>90.0</ele><time>2026-03-29T14:25:23.002Z</time></trkpt><trkpt lat="45.330476000816155" lon="9.252410640428424"><ele>90.33333333333333</ele><time>2026-03-29T14:25:24.002Z</time></trkpt><trkpt lat="45.33066497343782" lon="9.252256845215232"><ele>90.66666666666666</ele><time>2026-03-29T14:25:25.002Z</time></trkpt><trkpt lat="45.330854209094404" lon="9.25211577063073"><ele>91.0</ele><time>2026-03-29T14:25:26.002Z</time></trkpt><trkpt lat="45.33105159159194" lon="9.251978138869013"><ele>91.0</ele><time>2026-03-29T14:25:27.002Z</time></trkpt><trkpt lat="45.331247874938974" lon="9.251847433041176"><ele>91.0</ele><time>2026-03-29T14:25:28.002Z</time></trkpt><trkpt lat="45.33144447906378" lon="9.251722531063564"><ele>91.0</ele><time>2026-03-29T14:25:29.002Z</time></trkpt><trkpt lat="45.33163923786358" lon="9.251608973599565"><ele>91.0</ele><time>2026-03-29T14:25:30.002Z</time></trkpt><trkpt lat="45.33183042998007" lon="9.251499287578007"><ele>91.0</ele><time>2026-03-29T14:25:31.002Z</time></trkpt><trkpt lat="45.3320262825134" lon="9.251401039487138"><ele>91.0</ele><time>2026-03-29T14:25:32.002Z</time></trkpt><trkpt lat="45.33222124893929" lon="9.251308293530913"><ele>91.33333333333333</ele><time>2026-03-29T14:25:33.002Z</time></trkpt><trkpt lat="45.33241646727377" lon="9.251218883267592"><ele>91.66666666666667</ele><time>2026-03-29T14:25:34.002Z</time></trkpt><trkpt lat="45.33260091036033" lon="9.251141021016805"><ele>92.0</ele><time>2026-03-29T14:25:35.002Z</time></trkpt><trkpt lat="45.33277876321859" lon="9.251075307302036"><ele>92.0</ele><time>2026-03-29T14:25:36.002Z</time></trkpt><trkpt lat="45.33295706554114" lon="9.251014276978015"><ele>92.0</ele><time>2026-03-29T14:25:37.002Z</time></trkpt><trkpt lat="45.33313763645511" lon="9.250968378833534"><ele>92.0</ele><time>2026-03-29T14:25:38.002Z</time></trkpt><trkpt lat="45.33332384248892" lon="9.250920051423154"><ele>92.33333333333334</ele><time>2026-03-29T14:25:39.002Z</time></trkpt><trkpt lat="45.33350971938702" lon="9.250868172970463"><ele>92.66666666666667</ele><time>2026-03-29T14:25:40.002Z</time></trkpt><trkpt lat="45.33368859557218" lon="9.250819708423318"><ele>93.0</ele><time>2026-03-29T14:25:41.002Z</time></trkpt><trkpt lat="45.333862179762676" lon="9.250769591873762"><ele>92.66666666666667</ele><time>2026-03-29T14:25:42.002Z</time></trkpt><trkpt lat="45.33403088379211" lon="9.25072325937277"><ele>92.33333333333334</ele><time>2026-03-29T14:25:43.002Z</time></trkpt><trkpt lat="45.334205379356064" lon="9.250671931476944"><ele>92.0</ele><time>2026-03-29T14:25:44.002Z</time></trkpt><trkpt lat="45.334365882859025" lon="9.250624351916318"><ele>91.5</ele><time>2026-03-29T14:25:45.002Z</time></trkpt><trkpt lat="45.33451372166141" lon="9.25057445442024"><ele>91.0</ele><time>2026-03-29T14:25:46.003Z</time></trkpt><trkpt lat="45.3346557132839" lon="9.250530775657435"><ele>90.5</ele><time>2026-03-29T14:25:47.003Z</time></trkpt><trkpt lat="45.3348031743321" lon="9.250477460626346"><ele>90.0</ele><time>2026-03-29T14:25:48.003Z</time></trkpt><trkpt lat="45.33495485030413" lon="9.250400229826052"><ele>91.33333333333333</ele><time>2026-03-29T14:25:49.003Z</time></trkpt><trkpt lat="45.33511729832464" lon="9.250318846762806"><ele>92.66666666666666</ele><time>2026-03-29T14:25:50.003Z</time></trkpt><trkpt lat="45.33527550082456" lon="9.250229323573818"><ele>94.0</ele><time>2026-03-29T14:25:51.003Z</time></trkpt><trkpt lat="45.335433509161675" lon="9.250158508675515"><ele>94.0</ele><time>2026-03-29T14:25:52.003Z</time></trkpt><trkpt lat="45.335577291183704" lon="9.250096250531293"><ele>94.0</ele><time>2026-03-29T14:25:53.003Z</time></trkpt><trkpt lat="45.335708517250936" lon="9.250037004892206"><ele>94.0</ele><time>2026-03-29T14:25:54.003Z</time></trkpt><trkpt lat="45.33582871329051" lon="9.24998135166312"><ele>94.0</ele><time>2026-03-29T14:25:55.003Z</time></trkpt><trkpt lat="45.335946166533475" lon="9.24994814905393"><ele>94.0</ele><time>2026-03-29T14:25:56.003Z</time></trkpt><trkpt lat="45.336041471301584" lon="9.249912101334157"><ele>94.0</ele><time>2026-03-29T14:25:57.003Z</time></trkpt><trkpt lat="45.336112365391784" lon="9.249895184231887"><ele>94.0</ele><time>2026-03-29T14:25:58.003Z</time></trkpt><trkpt lat="45.33618011475925" lon="9.249924791809441"><ele>94.0</ele><time>2026-03-29T14:26:00.003Z</time></trkpt><trkpt lat="45.33627962804133" lon="9.249996622980788"><ele>94.0</ele><time>2026-03-29T14:26:02.003Z</time></trkpt><trkpt lat="45.33634748737795" lon="9.250055837011693"><ele>94.0</ele><time>2026-03-29T14:26:03.003Z</time></trkpt><trkpt lat="45.33641861640194" lon="9.25013030667204"><ele>93.6</ele><time>2026-03-29T14:26:04.003Z</time></trkpt><trkpt lat="45.33648675169566" lon="9.25021647337629"><ele>93.2</ele><time>2026-03-29T14:26:05.003Z</time></trkpt><trkpt lat="45.33656393379701" lon="9.250330249529394"><ele>92.8</ele><time>2026-03-29T14:26:06.003Z</time></trkpt><trkpt lat="45.336639215957426" lon="9.25047449682683"><ele>92.39999999999999</ele><time>2026-03-29T14:26:07Z</time></trkpt><trkpt lat="45.336699799329296" lon="9.250618037323704"><ele>92.0</ele><time>2026-03-29T14:26:08Z</time></trkpt><trkpt lat="45.33675549375574" lon="9.250770227742594"><ele>91.5</ele><time>2026-03-29T14:26:09Z</time></trkpt><trkpt lat="45.33681829212507" lon="9.250941215317225"><ele>91.0</ele><time>2026-03-29T14:26:10Z</time></trkpt><trkpt lat="45.3368797987878" lon="9.25111729826605"><ele>90.5</ele><time>2026-03-29T14:26:11Z</time></trkpt><trkpt lat="45.33694205626725" lon="9.251296897071349"><ele>90.0</ele><time>2026-03-29T14:26:12Z</time></trkpt><trkpt lat="45.3370020341516" lon="9.251475411094892"><ele>89.75</ele><time>2026-03-29T14:26:13Z</time></trkpt><trkpt lat="45.33706409094841" lon="9.251648912874654"><ele>89.5</ele><time>2026-03-29T14:26:14Z</time></trkpt><trkpt lat="45.33712723272163" lon="9.251827085560443"><ele>89.25</ele><time>2026-03-29T14:26:15Z</time></trkpt><trkpt lat="45.337189547203764" lon="9.252011710522048"><ele>89.0</ele><time>2026-03-29T14:26:16Z</time></trkpt><trkpt lat="45.33725259101283" lon="9.252190683766154"><ele>89.25</ele><time>2026-03-29T14:26:17Z</time></trkpt><trkpt lat="45.3373176731244" lon="9.252375530293744"><ele>89.5</ele><time>2026-03-29T14:26:18Z</time></trkpt><trkpt lat="45.337383221778616" lon="9.252561820426045"><ele>89.75</ele><time>2026-03-29T14:26:19Z</time></trkpt><trkpt lat="45.33744795285553" lon="9.252751178412828"><ele>90.0</ele><time>2026-03-29T14:26:20Z</time></trkpt><trkpt lat="45.33751335607973" lon="9.252942690192551"><ele>90.0</ele><time>2026-03-29T14:26:21Z</time></trkpt><trkpt lat="45.33758137061779" lon="9.253137439919934"><ele>90.0</ele><time>2026-03-29T14:26:22Z</time></trkpt><trkpt lat="45.33765174859443" lon="9.253337386067221"><ele>90.0</ele><time>2026-03-29T14:26:23Z</time></trkpt><trkpt lat="45.33772284218306" lon="9.253539087419673"><ele>90.0</ele><time>2026-03-29T14:26:24Z</time></trkpt><trkpt lat="45.33779187719155" lon="9.253734784188469"><ele>90.0</ele><time>2026-03-29T14:26:25Z</time></trkpt><trkpt lat="45.33785453221802" lon="9.253916999389574"><ele>90.0</ele><time>2026-03-29T14:26:26Z</time></trkpt><trkpt lat="45.33792112074175" lon="9.254112834749389"><ele>90.0</ele><time>2026-03-29T14:26:27Z</time></trkpt><trkpt lat="45.337992030947326" lon="9.254313382102584"><ele>90.0</ele><time>2026-03-29T14:26:28Z</time></trkpt><trkpt lat="45.33806237046986" lon="9.254518814016391"><ele>90.0</ele><time>2026-03-29T14:26:29Z</time></trkpt><trkpt lat="45.33813217405189" lon="9.254722002513233"><ele>90.0</ele><time>2026-03-29T14:26:30Z</time></trkpt><trkpt lat="45.3382006939491" lon="9.254919777015418"><ele>90.0</ele><time>2026-03-29T14:26:31Z</time></trkpt><trkpt lat="45.33827347573694" lon="9.255118727731178"><ele>90.0</ele><time>2026-03-29T14:26:32Z</time></trkpt><trkpt lat="45.33834424040467" lon="9.255314474507738"><ele>90.0</ele><time>2026-03-29T14:26:33Z</time></trkpt><trkpt lat="45.338417633521345" lon="9.25551997108779"><ele>90.33333333333333</ele><time>2026-03-29T14:26:34Z</time></trkpt><trkpt lat="45.33849113768082" lon="9.255729010443723"><ele>90.66666666666666</ele><time>2026-03-29T14:26:35Z</time></trkpt><trkpt lat="45.338564452728356" lon="9.255935922976994"><ele>91.0</ele><time>2026-03-29T14:26:36Z</time></trkpt><trkpt lat="45.338636032977405" lon="9.256142852231847"><ele>91.0</ele><time>2026-03-29T14:26:37Z</time></trkpt><trkpt lat="45.338708058948065" lon="9.256351126551968"><ele>91.0</ele><time>2026-03-29T14:26:38Z</time></trkpt><trkpt lat="45.3387813826678" lon="9.256561050725887"><ele>91.0</ele><time>2026-03-29T14:26:39Z</time></trkpt><trkpt lat="45.338856845553885" lon="9.256772725106295"><ele>90.33333333333333</ele><time>2026-03-29T14:26:40.001Z</time></trkpt><trkpt lat="45.338934150336605" lon="9.256988599590658"><ele>89.66666666666667</ele><time>2026-03-29T14:26:41.001Z</time></trkpt><trkpt lat="45.33901187526871" lon="9.257209348741434"><ele>89.0</ele><time>2026-03-29T14:26:42.001Z</time></trkpt><trkpt lat="45.339090186243325" lon="9.257437044104"><ele>89.0</ele><time>2026-03-29T14:26:43.001Z</time></trkpt><trkpt lat="45.33916876399964" lon="9.257665801508955"><ele>89.0</ele><time>2026-03-29T14:26:44.001Z</time></trkpt><trkpt lat="45.33924905722752" lon="9.257891786966328"><ele>89.0</ele><time>2026-03-29T14:26:45.001Z</time></trkpt><trkpt lat="45.33932826926465" lon="9.25811116433387"><ele>89.0</ele><time>2026-03-29T14:26:46.001Z</time></trkpt><trkpt lat="45.339408263523175" lon="9.258338449077062"><ele>89.0</ele><time>2026-03-29T14:26:47.001Z</time></trkpt><trkpt lat="45.33948861299451" lon="9.258569595818058"><ele>89.0</ele><time>2026-03-29T14:26:48.001Z</time></trkpt><trkpt lat="45.33956484798834" lon="9.258793100273804"><ele>88.66666666666667</ele><time>2026-03-29T14:26:49.001Z</time></trkpt><trkpt lat="45.33962369821494" lon="9.259021157138738"><ele>88.33333333333333</ele><time>2026-03-29T14:26:50.001Z</time></trkpt><trkpt lat="45.33971248370302" lon="9.259224148317331"><ele>88.0</ele><time>2026-03-29T14:26:51.001Z</time></trkpt><trkpt lat="45.33978444366567" lon="9.25943479693878"><ele>88.66666666666666</ele><time>2026-03-29T14:26:52.001Z</time></trkpt><trkpt lat="45.33984327100079" lon="9.259653819869918"><ele>89.33333333333333</ele><time>2026-03-29T14:26:53.001Z</time></trkpt><trkpt lat="45.33992657228684" lon="9.259850573809453"><ele>90.0</ele><time>2026-03-29T14:26:54.001Z</time></trkpt><trkpt lat="45.33999837032667" lon="9.260052825940743"><ele>90.0</ele><time>2026-03-29T14:26:55.001Z</time></trkpt><trkpt lat="45.34006854028624" lon="9.260254894138933"><ele>90.0</ele><time>2026-03-29T14:26:56.001Z</time></trkpt><trkpt lat="45.340124391985334" lon="9.260465098194166"><ele>90.0</ele><time>2026-03-29T14:26:57.001Z</time></trkpt><trkpt lat="45.34019158521705" lon="9.260659106984743"><ele>89.66666666666667</ele><time>2026-03-29T14:26:58.001Z</time></trkpt><trkpt lat="45.34026139837677" lon="9.260860679434263"><ele>89.33333333333334</ele><time>2026-03-29T14:26:59.001Z</time></trkpt><trkpt lat="45.34032850416429" lon="9.261054435476499"><ele>89.0</ele><time>2026-03-29T14:27:00.001Z</time></trkpt><trkpt lat="45.3403913361953" lon="9.26123585161811"><ele>89.0</ele><time>2026-03-29T14:27:01.001Z</time></trkpt><trkpt lat="45.340451747217976" lon="9.261410277170274"><ele>89.0</ele><time>2026-03-29T14:27:02.001Z</time></trkpt><trkpt lat="45.340511316979345" lon="9.261580378749898"><ele>89.0</ele><time>2026-03-29T14:27:03.001Z</time></trkpt><trkpt lat="45.340587201919334" lon="9.261746040958235"><ele>89.0</ele><time>2026-03-29T14:27:04.001Z</time></trkpt><trkpt lat="45.34063289558883" lon="9.261929181762268"><ele>89.0</ele><time>2026-03-29T14:27:05.001Z</time></trkpt><trkpt lat="45.34070476110489" lon="9.262088218203415"><ele>89.0</ele><time>2026-03-29T14:27:06.001Z</time></trkpt><trkpt lat="45.34076056750582" lon="9.262265628351088"><ele>89.0</ele><time>2026-03-29T14:27:07.001Z</time></trkpt><trkpt lat="45.34082615456462" lon="9.26244417263112"><ele>89.0</ele><time>2026-03-29T14:27:08.001Z</time></trkpt><trkpt lat="45.34088367176287" lon="9.262622079305313"><ele>89.0</ele><time>2026-03-29T14:27:09.001Z</time></trkpt><trkpt lat="45.34094590771093" lon="9.262805807165911"><ele>89.0</ele><time>2026-03-29T14:27:10.001Z</time></trkpt><trkpt lat="45.341011555354875" lon="9.262994650360838"><ele>89.0</ele><time>2026-03-29T14:27:11.001Z</time></trkpt><trkpt lat="45.341077929395716" lon="9.26318364711383"><ele>89.0</ele><time>2026-03-29T14:27:12.001Z</time></trkpt><trkpt lat="45.34114433960753" lon="9.263378589529687"><ele>89.33333333333334</ele><time>2026-03-29T14:27:13.001Z</time></trkpt><trkpt lat="45.34121093839698" lon="9.263571117705803"><ele>89.66666666666667</ele><time>2026-03-29T14:27:14.002Z</time></trkpt><trkpt lat="45.34127948059631" lon="9.26376435182875"><ele>90.0</ele><time>2026-03-29T14:27:15.002Z</time></trkpt><trkpt lat="45.341348659611256" lon="9.263956957602076"><ele>89.66666666666667</ele><time>2026-03-29T14:27:16.002Z</time></trkpt><trkpt lat="45.341417059834086" lon="9.264155754790165"><ele>89.33333333333334</ele><time>2026-03-29T14:27:17.002Z</time></trkpt><trkpt lat="45.34148691827148" lon="9.264357658668308"><ele>89.0</ele><time>2026-03-29T14:27:18.002Z</time></trkpt><trkpt lat="45.34155776870287" lon="9.26455904874332"><ele>89.0</ele><time>2026-03-29T14:27:19.002Z</time></trkpt><trkpt lat="45.34162410804875" lon="9.26475836576357"><ele>89.0</ele><time>2026-03-29T14:27:20.002Z</time></trkpt><trkpt lat="45.34169230886652" lon="9.26495747466552"><ele>89.0</ele><time>2026-03-29T14:27:21.002Z</time></trkpt><trkpt lat="45.34175930206614" lon="9.265151498032342"><ele>89.0</ele><time>2026-03-29T14:27:22.002Z</time></trkpt><trkpt lat="45.34182907406439" lon="9.265348026984416"><ele>89.0</ele><time>2026-03-29T14:27:23.002Z</time></trkpt><trkpt lat="45.3418992653876" lon="9.265545951734792"><ele>89.0</ele><time>2026-03-29T14:27:24.002Z</time></trkpt><trkpt lat="45.34197054458131" lon="9.265741545550643"><ele>89.0</ele><time>2026-03-29T14:27:25.002Z</time></trkpt><trkpt lat="45.342044242635374" lon="9.265941186616363"><ele>89.0</ele><time>2026-03-29T14:27:26.002Z</time></trkpt><trkpt lat="45.342114304993544" lon="9.266142599836414"><ele>89.0</ele><time>2026-03-29T14:27:27.002Z</time></trkpt><trkpt lat="45.34218346889692" lon="9.26634849777778"><ele>88.66666666666667</ele><time>2026-03-29T14:27:28.002Z</time></trkpt><trkpt lat="45.34225422968981" lon="9.266558942806379"><ele>88.33333333333333</ele><time>2026-03-29T14:27:29.002Z</time></trkpt><trkpt lat="45.342327082923276" lon="9.266768587004158"><ele>88.0</ele><time>2026-03-29T14:27:30.002Z</time></trkpt><trkpt lat="45.342401768553785" lon="9.266978793530722"><ele>88.0</ele><time>2026-03-29T14:27:31.002Z</time></trkpt><trkpt lat="45.34247278934128" lon="9.267180902480224"><ele>88.0</ele><time>2026-03-29T14:27:32.002Z</time></trkpt><trkpt lat="45.342547258686174" lon="9.267391711403407"><ele>88.0</ele><time>2026-03-29T14:27:33.002Z</time></trkpt><trkpt lat="45.342617922868996" lon="9.267594826379632"><ele>88.25</ele><time>2026-03-29T14:27:34.002Z</time></trkpt><trkpt lat="45.3426867570687" lon="9.267791907687569"><ele>88.5</ele><time>2026-03-29T14:27:35.002Z</time></trkpt><trkpt lat="45.342752165900784" lon="9.26798482095737"><ele>88.75</ele><time>2026-03-29T14:27:36.002Z</time></trkpt><trkpt lat="45.34281516278934" lon="9.268169066297475"><ele>89.0</ele><time>2026-03-29T14:27:37.002Z</time></trkpt><trkpt lat="45.342878862081115" lon="9.268347147272403"><ele>89.25</ele><time>2026-03-29T14:27:38.002Z</time></trkpt><trkpt lat="45.342940753796235" lon="9.268526758149287"><ele>89.5</ele><time>2026-03-29T14:27:39.002Z</time></trkpt><trkpt lat="45.342998643892905" lon="9.26869801916759"><ele>89.75</ele><time>2026-03-29T14:27:40.002Z</time></trkpt><trkpt lat="45.34305892693695" lon="9.268871251902448"><ele>90.0</ele><time>2026-03-29T14:27:41.002Z</time></trkpt><trkpt lat="45.343116881030575" lon="9.26903832468673"><ele>90.4</ele><time>2026-03-29T14:27:42.002Z</time></trkpt><trkpt lat="45.34317574266989" lon="9.269185789889661"><ele>90.8</ele><time>2026-03-29T14:27:43.002Z</time></trkpt><trkpt lat="45.34321502617536" lon="9.269320450268397"><ele>91.19999999999999</ele><time>2026-03-29T14:27:44.002Z</time></trkpt><trkpt lat="45.34325017998999" lon="9.26944496876838"><ele>91.6</ele><time>2026-03-29T14:27:45.002Z</time></trkpt><trkpt lat="45.34327815721406" lon="9.269557008693688"><ele>92.0</ele><time>2026-03-29T14:27:46.002Z</time></trkpt><trkpt lat="45.343296598250056" lon="9.269649419272673"><ele>91.83333333333334</ele><time>2026-03-29T14:27:47.002Z</time></trkpt><trkpt lat="45.34330707135766" lon="9.2697840437276"><ele>91.66666666666667</ele><time>2026-03-29T14:27:49.003Z</time></trkpt><trkpt lat="45.34330595242214" lon="9.269887141123462"><ele>91.5</ele><time>2026-03-29T14:27:51.003Z</time></trkpt><trkpt lat="45.34330212395356" lon="9.270002362050459"><ele>91.33333333333333</ele><time>2026-03-29T14:27:52.003Z</time></trkpt><trkpt lat="45.343300242967885" lon="9.2701103981867"><ele>91.16666666666666</ele><time>2026-03-29T14:27:53.003Z</time></trkpt><trkpt lat="45.34332638434593" lon="9.270202973271994"><ele>91.0</ele><time>2026-03-29T14:27:54.003Z</time></trkpt><trkpt lat="45.343380847810856" lon="9.270307574603217"><ele>91.0</ele><time>2026-03-29T14:27:55.003Z</time></trkpt><trkpt lat="45.343456120984385" lon="9.270400454054176"><ele>91.0</ele><time>2026-03-29T14:27:56.003Z</time></trkpt><trkpt lat="45.34354186654269" lon="9.27049344673569"><ele>91.0</ele><time>2026-03-29T14:27:57.003Z</time></trkpt><trkpt lat="45.34363712493095" lon="9.270609930823134"><ele>91.0</ele><time>2026-03-29T14:27:58.003Z</time></trkpt><trkpt lat="45.34370812258242" lon="9.270736247765278"><ele>91.0</ele><time>2026-03-29T14:27:59.003Z</time></trkpt><trkpt lat="45.343769835427366" lon="9.270894766334642"><ele>91.0</ele><time>2026-03-29T14:28:00.003Z</time></trkpt><trkpt lat="45.34382879578954" lon="9.271075564504823"><ele>91.0</ele><time>2026-03-29T14:28:01.003Z</time></trkpt><trkpt lat="45.34389298429349" lon="9.271272436042514"><ele>91.0</ele><time>2026-03-29T14:28:02.003Z</time></trkpt><trkpt lat="45.34396213723001" lon="9.271475199032693"><ele>91.25</ele><time>2026-03-29T14:28:03.003Z</time></trkpt><trkpt lat="45.344028600293655" lon="9.271670585074448"><ele>91.5</ele><time>2026-03-29T14:28:04.003Z</time></trkpt><trkpt lat="45.34409110426353" lon="9.271854665933219"><ele>91.75</ele><time>2026-03-29T14:28:05.003Z</time></trkpt><trkpt lat="45.34415785583263" lon="9.27204753903202"><ele>92.0</ele><time>2026-03-29T14:28:06.003Z</time></trkpt><trkpt lat="45.34422752075119" lon="9.272244817561488"><ele>91.66666666666667</ele><time>2026-03-29T14:28:07.003Z</time></trkpt><trkpt lat="45.344301236960774" lon="9.272451011340658"><ele>91.33333333333333</ele><time>2026-03-29T14:28:08.003Z</time></trkpt><trkpt lat="45.34437412145981" lon="9.272656820169171"><ele>91.0</ele><time>2026-03-29T14:28:09.003Z</time></trkpt><trkpt lat="45.34444611198046" lon="9.272864525928163"><ele>91.0</ele><time>2026-03-29T14:28:10.003Z</time></trkpt><trkpt lat="45.344516384104764" lon="9.273071033617109"><ele>91.0</ele><time>2026-03-29T14:28:11.003Z</time></trkpt><trkpt lat="45.34458150074153" lon="9.273262728286344"><ele>91.0</ele><time>2026-03-29T14:28:12.003Z</time></trkpt><trkpt lat="45.34464804153432" lon="9.273453684294045"><ele>91.33333333333333</ele><time>2026-03-29T14:28:12.999Z</time></trkpt><trkpt lat="45.34471845732184" lon="9.27365083588114"><ele>91.66666666666667</ele><time>2026-03-29T14:28:13.999Z</time></trkpt><trkpt lat="45.34479041227415" lon="9.273851852079524"><ele>92.0</ele><time>2026-03-29T14:28:14.999Z</time></trkpt><trkpt lat="45.34486258531696" lon="9.274059213788362"><ele>92.33333333333334</ele><time>2026-03-29T14:28:15.999Z</time></trkpt><trkpt lat="45.3449331379325" lon="9.274264048591975"><ele>92.66666666666667</ele><time>2026-03-29T14:28:16.999Z</time></trkpt><trkpt lat="45.345005555844416" lon="9.27447421559594"><ele>93.0</ele><time>2026-03-29T14:28:18Z</time></trkpt><trkpt lat="45.345076077933534" lon="9.27467991232483"><ele>92.33333333333333</ele><time>2026-03-29T14:28:18.999Z</time></trkpt><trkpt lat="45.34514894196997" lon="9.274889046833676"><ele>91.66666666666666</ele><time>2026-03-29T14:28:19.999Z</time></trkpt><trkpt lat="45.34522146289459" lon="9.27509227142347"><ele>91.0</ele><time>2026-03-29T14:28:21Z</time></trkpt><trkpt lat="45.34529167543097" lon="9.27528923827748"><ele>91.0</ele><time>2026-03-29T14:28:22Z</time></trkpt><trkpt lat="45.34535833983543" lon="9.275482397660339"><ele>91.0</ele><time>2026-03-29T14:28:23Z</time></trkpt><trkpt lat="45.34542417241473" lon="9.275673429524389"><ele>91.0</ele><time>2026-03-29T14:28:24Z</time></trkpt><trkpt lat="45.345490219252454" lon="9.275866642450925"><ele>90.66666666666666</ele><time>2026-03-29T14:28:25Z</time></trkpt><trkpt lat="45.34555547266739" lon="9.276060198982647"><ele>90.33333333333333</ele><time>2026-03-29T14:28:26Z</time></trkpt><trkpt lat="45.345621887097685" lon="9.276255091204545"><ele>90.0</ele><time>2026-03-29T14:28:27Z</time></trkpt><trkpt lat="45.34568753658636" lon="9.276456241530504"><ele>90.0</ele><time>2026-03-29T14:28:28Z</time></trkpt><trkpt lat="45.34575734582472" lon="9.276653727121634"><ele>90.0</ele><time>2026-03-29T14:28:29Z</time></trkpt><trkpt lat="45.34582891497983" lon="9.276849063911401"><ele>90.0</ele><time>2026-03-29T14:28:30Z</time></trkpt><trkpt lat="45.34589612622918" lon="9.277049426002716"><ele>90.0</ele><time>2026-03-29T14:28:31Z</time></trkpt><trkpt lat="45.34596263000996" lon="9.27724846123352"><ele>90.0</ele><time>2026-03-29T14:28:32Z</time></trkpt><trkpt lat="45.346027672294305" lon="9.277441890275952"><ele>90.0</ele><time>2026-03-29T14:28:33Z</time></trkpt><trkpt lat="45.346093107576216" lon="9.277631461150545"><ele>89.75</ele><time>2026-03-29T14:28:34Z</time></trkpt><trkpt lat="45.3461607764231" lon="9.277823776464722"><ele>89.5</ele><time>2026-03-29T14:28:35Z</time></trkpt><trkpt lat="45.346226400295045" lon="9.278008392379986"><ele>89.25</ele><time>2026-03-29T14:28:36Z</time></trkpt><trkpt lat="45.34629338523805" lon="9.278199730541507"><ele>89.0</ele><time>2026-03-29T14:28:37Z</time></trkpt><trkpt lat="45.34636256369817" lon="9.27839430776279"><ele>89.33333333333334</ele><time>2026-03-29T14:28:38Z</time></trkpt><trkpt lat="45.34643063148156" lon="9.278587334101701"><ele>89.66666666666667</ele><time>2026-03-29T14:28:39Z</time></trkpt><trkpt lat="45.346498359340245" lon="9.278779574865364"><ele>90.0</ele><time>2026-03-29T14:28:40Z</time></trkpt><trkpt lat="45.34656464858411" lon="9.27897249490333"><ele>90.0</ele><time>2026-03-29T14:28:41Z</time></trkpt><trkpt lat="45.34662897738939" lon="9.279156433178908"><ele>90.0</ele><time>2026-03-29T14:28:42Z</time></trkpt><trkpt lat="45.346693629319596" lon="9.279341644147895"><ele>90.0</ele><time>2026-03-29T14:28:43Z</time></trkpt><trkpt lat="45.34675428321015" lon="9.279519022646834"><ele>90.0</ele><time>2026-03-29T14:28:44Z</time></trkpt><trkpt lat="45.34681540989428" lon="9.279696697667562"><ele>90.0</ele><time>2026-03-29T14:28:45Z</time></trkpt><trkpt lat="45.346877090416115" lon="9.279875128487147"><ele>90.0</ele><time>2026-03-29T14:28:46Z</time></trkpt><trkpt lat="45.3469400640898" lon="9.280052720219107"><ele>90.0</ele><time>2026-03-29T14:28:47Z</time></trkpt><trkpt lat="45.347001297458284" lon="9.28023580376503"><ele>90.0</ele><time>2026-03-29T14:28:48Z</time></trkpt><trkpt lat="45.34706177232362" lon="9.280413839910963"><ele>90.0</ele><time>2026-03-29T14:28:49Z</time></trkpt><trkpt lat="45.34712285745712" lon="9.280595468236086"><ele>90.0</ele><time>2026-03-29T14:28:50Z</time></trkpt><trkpt lat="45.34718109024265" lon="9.280761480812506"><ele>90.0</ele><time>2026-03-29T14:28:51Z</time></trkpt><trkpt lat="45.34723698586998" lon="9.280916865327102"><ele>90.0</ele><time>2026-03-29T14:28:52Z</time></trkpt><trkpt lat="45.347285894572316" lon="9.281062192267193"><ele>90.0</ele><time>2026-03-29T14:28:53.001Z</time></trkpt><trkpt lat="45.34733142366038" lon="9.28120324513851"><ele>90.0</ele><time>2026-03-29T14:28:54.001Z</time></trkpt><trkpt lat="45.34736948353579" lon="9.281344139534045"><ele>90.0</ele><time>2026-03-29T14:28:55.001Z</time></trkpt><trkpt lat="45.34740374372485" lon="9.281482848041502"><ele>90.0</ele><time>2026-03-29T14:28:56.001Z</time></trkpt><trkpt lat="45.34742351979447" lon="9.281613999684186"><ele>90.0</ele><time>2026-03-29T14:28:57.001Z</time></trkpt><trkpt lat="45.34743912809465" lon="9.281739916037111"><ele>90.0</ele><time>2026-03-29T14:28:58.001Z</time></trkpt><trkpt lat="45.34744856031527" lon="9.28187305251963"><ele>90.0</ele><time>2026-03-29T14:28:59.001Z</time></trkpt><trkpt lat="45.347450644814565" lon="9.281990564024271"><ele>90.0</ele><time>2026-03-29T14:29:00.001Z</time></trkpt><trkpt lat="45.34745705430035" lon="9.282101833275728"><ele>90.0</ele><time>2026-03-29T14:29:01.001Z</time></trkpt><trkpt lat="45.347475907740744" lon="9.282218167678236"><ele>90.0</ele><time>2026-03-29T14:29:02.001Z</time></trkpt><trkpt lat="45.34750734085175" lon="9.282347341580147"><ele>90.0</ele><time>2026-03-29T14:29:03.001Z</time></trkpt><trkpt lat="45.34754840036841" lon="9.28246002273253"><ele>90.0</ele><time>2026-03-29T14:29:04.001Z</time></trkpt><trkpt lat="45.34760514125449" lon="9.282556453921583"><ele>90.0</ele><time>2026-03-29T14:29:05.001Z</time></trkpt><trkpt lat="45.34767744580183" lon="9.282648175149317"><ele>90.0</ele><time>2026-03-29T14:29:06.001Z</time></trkpt><trkpt lat="45.34776531879404" lon="9.282758523973314"><ele>90.0</ele><time>2026-03-29T14:29:07.001Z</time></trkpt><trkpt lat="45.34786585969146" lon="9.282891238882208"><ele>90.0</ele><time>2026-03-29T14:29:08.001Z</time></trkpt><trkpt lat="45.34796296276168" lon="9.283050003412013"><ele>90.0</ele><time>2026-03-29T14:29:09.001Z</time></trkpt><trkpt lat="45.348042459268854" lon="9.28321788455706"><ele>90.0</ele><time>2026-03-29T14:29:10.001Z</time></trkpt><trkpt lat="45.34810515266553" lon="9.283386297198108"><ele>90.0</ele><time>2026-03-29T14:29:11.001Z</time></trkpt><trkpt lat="45.348168574022594" lon="9.283574508597853"><ele>90.0</ele><time>2026-03-29T14:29:12.001Z</time></trkpt><trkpt lat="45.348229414426676" lon="9.28375595821179"><ele>89.75</ele><time>2026-03-29T14:29:13.001Z</time></trkpt><trkpt lat="45.34828796995017" lon="9.283915277308914"><ele>89.5</ele><time>2026-03-29T14:29:14.001Z</time></trkpt><trkpt lat="45.34835210250975" lon="9.284091041481751"><ele>89.25</ele><time>2026-03-29T14:29:15.001Z</time></trkpt><trkpt lat="45.348412288407545" lon="9.284282447921742"><ele>89.0</ele><time>2026-03-29T14:29:16.001Z</time></trkpt><trkpt lat="45.348482120202505" lon="9.284481049817288"><ele>90.0</ele><time>2026-03-29T14:29:17.001Z</time></trkpt><trkpt lat="45.3485534078083" lon="9.284687388506674"><ele>91.0</ele><time>2026-03-29T14:29:18.001Z</time></trkpt><trkpt lat="45.34862273506252" lon="9.28488636348098"><ele>92.0</ele><time>2026-03-29T14:29:19.001Z</time></trkpt><trkpt lat="45.34869074712796" lon="9.285079803433408"><ele>92.0</ele><time>2026-03-29T14:29:20.001Z</time></trkpt><trkpt lat="45.34875804000713" lon="9.285273149316795"><ele>92.0</ele><time>2026-03-29T14:29:21.001Z</time></trkpt><trkpt lat="45.348821433523554" lon="9.285469002326638"><ele>92.0</ele><time>2026-03-29T14:29:22.001Z</time></trkpt><trkpt lat="45.34889086978412" lon="9.285672353486982"><ele>92.0</ele><time>2026-03-29T14:29:23.001Z</time></trkpt><trkpt lat="45.34896157974518" lon="9.285879614175183"><ele>92.0</ele><time>2026-03-29T14:29:24.001Z</time></trkpt><trkpt lat="45.349034931048905" lon="9.286086350976207"><ele>92.0</ele><time>2026-03-29T14:29:25.002Z</time></trkpt><trkpt lat="45.34911123374413" lon="9.286304769205664"><ele>91.33333333333334</ele><time>2026-03-29T14:29:26.002Z</time></trkpt><trkpt lat="45.349189167979" lon="9.286524771810615"><ele>90.66666666666667</ele><time>2026-03-29T14:29:27.002Z</time></trkpt><trkpt lat="45.34926970596067" lon="9.286751162122545"><ele>90.0</ele><time>2026-03-29T14:29:28.002Z</time></trkpt><trkpt lat="45.349346340118764" lon="9.286973799862077"><ele>90.0</ele><time>2026-03-29T14:29:29.002Z</time></trkpt><trkpt lat="45.349424951439985" lon="9.287197246758408"><ele>90.0</ele><time>2026-03-29T14:29:30.002Z</time></trkpt><trkpt lat="45.34950218180505" lon="9.287413527866743"><ele>90.0</ele><time>2026-03-29T14:29:31.002Z</time></trkpt><trkpt lat="45.34957688354638" lon="9.287624761108939"><ele>90.0</ele><time>2026-03-29T14:29:32.002Z</time></trkpt><trkpt lat="45.34964677578122" lon="9.287833971530407"><ele>90.0</ele><time>2026-03-29T14:29:33.002Z</time></trkpt><trkpt lat="45.349714245788874" lon="9.288033487377717"><ele>90.0</ele><time>2026-03-29T14:29:34.002Z</time></trkpt><trkpt lat="45.34977858747053" lon="9.288220746746344"><ele>90.0</ele><time>2026-03-29T14:29:35.002Z</time></trkpt><trkpt lat="45.34984060850305" lon="9.288396309164698"><ele>90.0</ele><time>2026-03-29T14:29:36.002Z</time></trkpt><trkpt lat="45.349898568540546" lon="9.288561966194406"><ele>90.0</ele><time>2026-03-29T14:29:37.002Z</time></trkpt><trkpt lat="45.34995672254444" lon="9.28872444626219"><ele>90.0</ele><time>2026-03-29T14:29:38.002Z</time></trkpt><trkpt lat="45.35001398731853" lon="9.288891020547602"><ele>89.75</ele><time>2026-03-29T14:29:39.002Z</time></trkpt><trkpt lat="45.35007596040174" lon="9.289060897265614"><ele>89.5</ele><time>2026-03-29T14:29:40.002Z</time></trkpt><trkpt lat="45.35013843808846" lon="9.289237979798465"><ele>89.25</ele><time>2026-03-29T14:29:41.002Z</time></trkpt><trkpt lat="45.35020243565824" lon="9.289419736480305"><ele>89.0</ele><time>2026-03-29T14:29:42.002Z</time></trkpt><trkpt lat="45.350267782954546" lon="9.289607657073784"><ele>89.0</ele><time>2026-03-29T14:29:43.002Z</time></trkpt><trkpt lat="45.35033425222206" lon="9.289803516912977"><ele>89.0</ele><time>2026-03-29T14:29:44.002Z</time></trkpt><trkpt lat="45.3504080991603" lon="9.29000857803072"><ele>89.0</ele><time>2026-03-29T14:29:45.002Z</time></trkpt><trkpt lat="45.35048144084153" lon="9.290216168162758"><ele>89.0</ele><time>2026-03-29T14:29:46.002Z</time></trkpt><trkpt lat="45.35055376110454" lon="9.290425522420817"><ele>89.0</ele><time>2026-03-29T14:29:47.002Z</time></trkpt><trkpt lat="45.35062244832142" lon="9.29062648263832"><ele>89.0</ele><time>2026-03-29T14:29:48.002Z</time></trkpt><trkpt lat="45.350690224045906" lon="9.290824060641587"><ele>89.0</ele><time>2026-03-29T14:29:49.002Z</time></trkpt><trkpt lat="45.35076499679724" lon="9.291023196732743"><ele>89.0</ele><time>2026-03-29T14:29:50.002Z</time></trkpt><trkpt lat="45.35083418160905" lon="9.291218807785482"><ele>89.0</ele><time>2026-03-29T14:29:51.002Z</time></trkpt><trkpt lat="45.350903378779414" lon="9.291409875509856"><ele>89.0</ele><time>2026-03-29T14:29:52.002Z</time></trkpt><trkpt lat="45.350972022944866" lon="9.291600399920467"><ele>89.0</ele><time>2026-03-29T14:29:53.002Z</time></trkpt><trkpt lat="45.35104196691691" lon="9.291798991497293"><ele>89.0</ele><time>2026-03-29T14:29:54.002Z</time></trkpt><trkpt lat="45.351115591901525" lon="9.292005589900597"><ele>89.0</ele><time>2026-03-29T14:29:55.002Z</time></trkpt><trkpt lat="45.35118507602347" lon="9.292246750576425"><ele>89.0</ele><time>2026-03-29T14:29:56.002Z</time></trkpt><trkpt lat="45.351260347865114" lon="9.292463022218369"><ele>89.0</ele><time>2026-03-29T14:29:57.002Z</time></trkpt><trkpt lat="45.35133107032861" lon="9.29266622247228"><ele>89.33333333333334</ele><time>2026-03-29T14:29:58.003Z</time></trkpt><trkpt lat="45.35140572763469" lon="9.292880728372616"><ele>89.66666666666667</ele><time>2026-03-29T14:29:59.003Z</time></trkpt><trkpt lat="45.35148671109459" lon="9.293113302390493"><ele>90.0</ele><time>2026-03-29T14:30:00.003Z</time></trkpt><trkpt lat="45.3515751764154" lon="9.293367108068015"><ele>90.0</ele><time>2026-03-29T14:30:01.003Z</time></trkpt><trkpt lat="45.35166124037876" lon="9.29361448068248"><ele>90.0</ele><time>2026-03-29T14:30:02.003Z</time></trkpt><trkpt lat="45.351744318104075" lon="9.293853900637105"><ele>90.0</ele><time>2026-03-29T14:30:03.003Z</time></trkpt><trkpt lat="45.35183657189475" lon="9.294071077998133"><ele>89.66666666666667</ele><time>2026-03-29T14:30:04.003Z</time></trkpt><trkpt lat="45.35190749130493" lon="9.294280551573776"><ele>89.33333333333334</ele><time>2026-03-29T14:30:05.003Z</time></trkpt><trkpt lat="45.3519773402565" lon="9.29447846304888"><ele>89.0</ele><time>2026-03-29T14:30:06.003Z</time></trkpt><trkpt lat="45.352039418492986" lon="9.294664880025081"><ele>89.25</ele><time>2026-03-29T14:30:07.003Z</time></trkpt><trkpt lat="45.35209973699039" lon="9.294843221820516"><ele>89.5</ele><time>2026-03-29T14:30:08.003Z</time></trkpt><trkpt lat="45.352158799546615" lon="9.295017659715812"><ele>89.75</ele><time>2026-03-29T14:30:09.003Z</time></trkpt><trkpt lat="45.35222578487736" lon="9.295196563844119"><ele>90.0</ele><time>2026-03-29T14:30:10.003Z</time></trkpt><trkpt lat="45.352289234517556" lon="9.295381500523684"><ele>90.0</ele><time>2026-03-29T14:30:11.003Z</time></trkpt><trkpt lat="45.35235442772774" lon="9.295568078226207"><ele>90.0</ele><time>2026-03-29T14:30:12.003Z</time></trkpt><trkpt lat="45.35240619603213" lon="9.295760708380259"><ele>90.0</ele><time>2026-03-29T14:30:13.003Z</time></trkpt><trkpt lat="45.35248197223745" lon="9.295933411465008"><ele>90.0</ele><time>2026-03-29T14:30:14.003Z</time></trkpt><trkpt lat="45.3525423447205" lon="9.296112081609767"><ele>90.5</ele><time>2026-03-29T14:30:15.003Z</time></trkpt><trkpt lat="45.352602528750104" lon="9.296286521778983"><ele>91.0</ele><time>2026-03-29T14:30:16.003Z</time></trkpt><trkpt lat="45.35265773154266" lon="9.296447613755717"><ele>91.5</ele><time>2026-03-29T14:30:17.003Z</time></trkpt><trkpt lat="45.3527139957056" lon="9.296622841862746"><ele>92.0</ele><time>2026-03-29T14:30:18.003Z</time></trkpt><trkpt lat="45.3527766292767" lon="9.296802985195503"><ele>92.0</ele><time>2026-03-29T14:30:18.999Z</time></trkpt><trkpt lat="45.3528390958753" lon="9.296990196841834"><ele>92.0</ele><time>2026-03-29T14:30:19.999Z</time></trkpt><trkpt lat="45.352905635440145" lon="9.297161936687576"><ele>92.0</ele><time>2026-03-29T14:30:20.999Z</time></trkpt><trkpt lat="45.352962768156324" lon="9.297329983702166"><ele>92.0</ele><time>2026-03-29T14:30:21.999Z</time></trkpt><trkpt lat="45.3530150126224" lon="9.297494883777736"><ele>91.75</ele><time>2026-03-29T14:30:22.999Z</time></trkpt><trkpt lat="45.35307385625988" lon="9.297659116555053"><ele>91.5</ele><time>2026-03-29T14:30:23.999Z</time></trkpt><trkpt lat="45.35313250815535" lon="9.297821011204856"><ele>91.25</ele><time>2026-03-29T14:30:24.999Z</time></trkpt><trkpt lat="45.35318802341558" lon="9.297975287473193"><ele>91.0</ele><time>2026-03-29T14:30:25.999Z</time></trkpt><trkpt lat="45.353239651214224" lon="9.298125201683648"><ele>90.8</ele><time>2026-03-29T14:30:26.999Z</time></trkpt><trkpt lat="45.35329095101232" lon="9.298270761903218"><ele>90.6</ele><time>2026-03-29T14:30:27.999Z</time></trkpt><trkpt lat="45.35334438917758" lon="9.298412261716186"><ele>90.4</ele><time>2026-03-29T14:30:28.999Z</time></trkpt><trkpt lat="45.35339850860641" lon="9.298555094508911"><ele>90.2</ele><time>2026-03-29T14:30:30Z</time></trkpt><trkpt lat="45.35344713073293" lon="9.298685075764237"><ele>90.0</ele><time>2026-03-29T14:30:31Z</time></trkpt><trkpt lat="45.35349368695555" lon="9.29881094159555"><ele>89.6</ele><time>2026-03-29T14:30:32Z</time></trkpt><trkpt lat="45.35353894546551" lon="9.298944172519562"><ele>89.2</ele><time>2026-03-29T14:30:33Z</time></trkpt><trkpt lat="45.35357729934428" lon="9.29907117197138"><ele>88.80000000000001</ele><time>2026-03-29T14:30:34Z</time></trkpt><trkpt lat="45.35361202534675" lon="9.299198510528806"><ele>88.4</ele><time>2026-03-29T14:30:35Z</time></trkpt><trkpt lat="45.35363540303445" lon="9.299319366219777"><ele>88.0</ele><time>2026-03-29T14:30:36Z</time></trkpt><trkpt lat="45.35364619234957" lon="9.299434548215933"><ele>88.0</ele><time>2026-03-29T14:30:37Z</time></trkpt><trkpt lat="45.353650814875316" lon="9.299556022862498"><ele>88.0</ele><time>2026-03-29T14:30:38Z</time></trkpt><trkpt lat="45.353670365907085" lon="9.29967435296999"><ele>88.0</ele><time>2026-03-29T14:30:39Z</time></trkpt><trkpt lat="45.353718902287184" lon="9.299765598444392"><ele>88.0</ele><time>2026-03-29T14:30:40Z</time></trkpt><trkpt lat="45.353789403147964" lon="9.299843908454239"><ele>88.0</ele><time>2026-03-29T14:30:41Z</time></trkpt><trkpt lat="45.353873392533174" lon="9.299922855808264"><ele>88.0</ele><time>2026-03-29T14:30:42Z</time></trkpt><trkpt lat="45.35395808653912" lon="9.300042994487919"><ele>89.66666666666666</ele><time>2026-03-29T14:30:43Z</time></trkpt><trkpt lat="45.35403215131027" lon="9.300209654319472"><ele>91.33333333333333</ele><time>2026-03-29T14:30:44Z</time></trkpt><trkpt lat="45.35410181802012" lon="9.30041667454534"><ele>93.0</ele><time>2026-03-29T14:30:45Z</time></trkpt><trkpt lat="45.35417469873025" lon="9.300648115410954"><ele>93.0</ele><time>2026-03-29T14:30:46Z</time></trkpt><trkpt lat="45.35424844856054" lon="9.300884480021393"><ele>93.0</ele><time>2026-03-29T14:30:47Z</time></trkpt><trkpt lat="45.354324672792444" lon="9.301110167211617"><ele>93.0</ele><time>2026-03-29T14:30:48Z</time></trkpt><trkpt lat="45.35440293885269" lon="9.301351483998276"><ele>93.33333333333333</ele><time>2026-03-29T14:30:49Z</time></trkpt><trkpt lat="45.354490760578756" lon="9.301604505264535"><ele>93.66666666666666</ele><time>2026-03-29T14:30:50Z</time></trkpt><trkpt lat="45.354581444378866" lon="9.30186353283431"><ele>94.0</ele><time>2026-03-29T14:30:51Z</time></trkpt><trkpt lat="45.354675841959164" lon="9.30212590260566"><ele>93.33333333333333</ele><time>2026-03-29T14:30:52Z</time></trkpt><trkpt lat="45.35476648343281" lon="9.302383672073278"><ele>92.66666666666667</ele><time>2026-03-29T14:30:53.001Z</time></trkpt><trkpt lat="45.354850780853354" lon="9.302629103679674"><ele>92.0</ele><time>2026-03-29T14:30:54.001Z</time></trkpt><trkpt lat="45.35493702411014" lon="9.30287826488962"><ele>91.66666666666667</ele><time>2026-03-29T14:30:55.001Z</time></trkpt><trkpt lat="45.35502806746611" lon="9.303132666044167"><ele>91.33333333333333</ele><time>2026-03-29T14:30:56.001Z</time></trkpt><trkpt lat="45.35511313657284" lon="9.303391562392736"><ele>91.0</ele><time>2026-03-29T14:30:57.001Z</time></trkpt><trkpt lat="45.355198910579006" lon="9.303653418245059"><ele>90.66666666666666</ele><time>2026-03-29T14:30:58.001Z</time></trkpt><trkpt lat="45.35528604289792" lon="9.303915486476933"><ele>90.33333333333333</ele><time>2026-03-29T14:30:59.001Z</time></trkpt><trkpt lat="45.35536480204016" lon="9.30417697181396"><ele>90.0</ele><time>2026-03-29T14:31:00.001Z</time></trkpt><trkpt lat="45.3554374441609" lon="9.304434957261348"><ele>90.0</ele><time>2026-03-29T14:31:01.001Z</time></trkpt><trkpt lat="45.35549618556358" lon="9.304682852062701"><ele>90.0</ele><time>2026-03-29T14:31:02.001Z</time></trkpt><trkpt lat="45.35555269602817" lon="9.304928210698318"><ele>90.0</ele><time>2026-03-29T14:31:03.001Z</time></trkpt><trkpt lat="45.355603469528624" lon="9.305159461438635"><ele>90.66666666666667</ele><time>2026-03-29T14:31:04.001Z</time></trkpt><trkpt lat="45.35565140913769" lon="9.305387957296729"><ele>91.33333333333334</ele><time>2026-03-29T14:31:05.001Z</time></trkpt><trkpt lat="45.35569804055676" lon="9.305602553500446"><ele>92.0</ele><time>2026-03-29T14:31:06.001Z</time></trkpt><trkpt lat="45.35574631808975" lon="9.305800298090519"><ele>92.25</ele><time>2026-03-29T14:31:07.001Z</time></trkpt><trkpt lat="45.35580532833481" lon="9.30599488272943"><ele>92.5</ele><time>2026-03-29T14:31:08.001Z</time></trkpt><trkpt lat="45.3558698607772" lon="9.306162977104952"><ele>92.75</ele><time>2026-03-29T14:31:09.001Z</time></trkpt><trkpt lat="45.3559295865228" lon="9.306301292421596"><ele>93.0</ele><time>2026-03-29T14:31:10.001Z</time></trkpt><trkpt lat="45.35598757544092" lon="9.306400733640894"><ele>93.0</ele><time>2026-03-29T14:31:11.001Z</time></trkpt><trkpt lat="45.35601507920506" lon="9.306492340467154"><ele>93.0</ele><time>2026-03-29T14:31:12.001Z</time></trkpt><trkpt lat="45.3561671163494" lon="9.306465888022048"><ele>93.0</ele><time>2026-03-29T14:31:14.001Z</time></trkpt><trkpt lat="45.35621947991196" lon="9.3064000270172"><ele>93.0</ele><time>2026-03-29T14:31:15.001Z</time></trkpt><trkpt lat="45.35626942882414" lon="9.30628015757259"><ele>93.0</ele><time>2026-03-29T14:31:17.001Z</time></trkpt><trkpt lat="45.35631371924056" lon="9.306196606611232"><ele>93.0</ele><time>2026-03-29T14:31:18.001Z</time></trkpt><trkpt lat="45.3563801047905" lon="9.306114677767429"><ele>93.0</ele><time>2026-03-29T14:31:19.001Z</time></trkpt><trkpt lat="45.356438387097825" lon="9.305999274048228"><ele>93.0</ele><time>2026-03-29T14:31:20.001Z</time></trkpt><trkpt lat="45.35650853369848" lon="9.305877322299912"><ele>93.0</ele><time>2026-03-29T14:31:21.001Z</time></trkpt><trkpt lat="45.35657468801022" lon="9.305768270484542"><ele>93.0</ele><time>2026-03-29T14:31:22.001Z</time></trkpt><trkpt lat="45.35665023827924" lon="9.305652919973808"><ele>93.0</ele><time>2026-03-29T14:31:23.001Z</time></trkpt><trkpt lat="45.35673814155048" lon="9.305525308670463"><ele>93.0</ele><time>2026-03-29T14:31:24.002Z</time></trkpt><trkpt lat="45.356833861993955" lon="9.305392913720425"><ele>93.0</ele><time>2026-03-29T14:31:25.002Z</time></trkpt><trkpt lat="45.356937396884696" lon="9.305260189591726"><ele>93.0</ele><time>2026-03-29T14:31:26.002Z</time></trkpt><trkpt lat="45.357045357865054" lon="9.305124219161167"><ele>93.0</ele><time>2026-03-29T14:31:27.002Z</time></trkpt><trkpt lat="45.357148754200814" lon="9.30499032118984"><ele>93.0</ele><time>2026-03-29T14:31:28.002Z</time></trkpt><trkpt lat="45.35724223099023" lon="9.30487106764164"><ele>93.0</ele><time>2026-03-29T14:31:29.002Z</time></trkpt><trkpt lat="45.35732531908845" lon="9.304752232018677"><ele>93.0</ele><time>2026-03-29T14:31:30.002Z</time></trkpt><trkpt lat="45.357423983245816" lon="9.304643589801463"><ele>93.25</ele><time>2026-03-29T14:31:31.002Z</time></trkpt><trkpt lat="45.35751334441425" lon="9.30451007195396"><ele>93.5</ele><time>2026-03-29T14:31:32.002Z</time></trkpt><trkpt lat="45.357589107675516" lon="9.304358415268597"><ele>93.75</ele><time>2026-03-29T14:31:33.002Z</time></trkpt><trkpt lat="45.357650104421296" lon="9.304194249651125"><ele>94.0</ele><time>2026-03-29T14:31:34.002Z</time></trkpt><trkpt lat="45.35770257701789" lon="9.304047268392905"><ele>94.0</ele><time>2026-03-29T14:31:35.002Z</time></trkpt><trkpt lat="45.357748863192136" lon="9.303909805431555"><ele>94.0</ele><time>2026-03-29T14:31:36.002Z</time></trkpt><trkpt lat="45.35778971508127" lon="9.303787365813475"><ele>94.0</ele><time>2026-03-29T14:31:37.002Z</time></trkpt><trkpt lat="45.35783149962368" lon="9.303666242615611"><ele>94.0</ele><time>2026-03-29T14:31:38.002Z</time></trkpt><trkpt lat="45.35786924652377" lon="9.303556368098953"><ele>94.0</ele><time>2026-03-29T14:31:39.002Z</time></trkpt><trkpt lat="45.35790543333037" lon="9.303451455135288"><ele>94.0</ele><time>2026-03-29T14:31:40.002Z</time></trkpt><trkpt lat="45.357946074135405" lon="9.303333488246347"><ele>94.0</ele><time>2026-03-29T14:31:41.002Z</time></trkpt><trkpt lat="45.357986948706554" lon="9.303214614211559"><ele>94.0</ele><time>2026-03-29T14:31:42.002Z</time></trkpt><trkpt lat="45.35803794512502" lon="9.303066303142588"><ele>94.0</ele><time>2026-03-29T14:31:43.002Z</time></trkpt><trkpt lat="45.358090724228525" lon="9.302907790048431"><ele>94.0</ele><time>2026-03-29T14:31:44.002Z</time></trkpt><trkpt lat="45.35814695500594" lon="9.302728938311256"><ele>93.75</ele><time>2026-03-29T14:31:45.002Z</time></trkpt><trkpt lat="45.3581902180697" lon="9.302522657617363"><ele>93.5</ele><time>2026-03-29T14:31:46.002Z</time></trkpt><trkpt lat="45.35819220614363" lon="9.30232659887749"><ele>93.25</ele><time>2026-03-29T14:31:47.002Z</time></trkpt><trkpt lat="45.35823161631378" lon="9.302141407342091"><ele>93.0</ele><time>2026-03-29T14:31:48.002Z</time></trkpt><trkpt lat="45.35826435220873" lon="9.301949666247591"><ele>93.0</ele><time>2026-03-29T14:31:49.002Z</time></trkpt><trkpt lat="45.35829498398288" lon="9.301752738770897"><ele>93.0</ele><time>2026-03-29T14:31:50.002Z</time></trkpt><trkpt lat="45.35832167701431" lon="9.301546774955503"><ele>93.0</ele><time>2026-03-29T14:31:51.002Z</time></trkpt><trkpt lat="45.3583304760931" lon="9.301351939903622"><ele>93.0</ele><time>2026-03-29T14:31:52.002Z</time></trkpt><trkpt lat="45.3583714337163" lon="9.30116837092907"><ele>93.0</ele><time>2026-03-29T14:31:53.002Z</time></trkpt><trkpt lat="45.358398362908176" lon="9.300970710346181"><ele>93.0</ele><time>2026-03-29T14:31:54.002Z</time></trkpt><trkpt lat="45.35843481258022" lon="9.300769724605228"><ele>93.0</ele><time>2026-03-29T14:31:55.002Z</time></trkpt><trkpt lat="45.35847014678311" lon="9.300560222407162"><ele>93.0</ele><time>2026-03-29T14:31:56.003Z</time></trkpt><trkpt lat="45.358510663455576" lon="9.300351614961155"><ele>93.33333333333333</ele><time>2026-03-29T14:31:57.003Z</time></trkpt><trkpt lat="45.35856430070006" lon="9.300139196318709"><ele>93.66666666666666</ele><time>2026-03-29T14:31:58.003Z</time></trkpt><trkpt lat="45.35862566998048" lon="9.29992907245639"><ele>94.0</ele><time>2026-03-29T14:31:59.003Z</time></trkpt><trkpt lat="45.35869674650412" lon="9.299712561241986"><ele>94.0</ele><time>2026-03-29T14:32:00.003Z</time></trkpt><trkpt lat="45.35877202705663" lon="9.299503392515577"><ele>94.0</ele><time>2026-03-29T14:32:01.003Z</time></trkpt><trkpt lat="45.35885443659989" lon="9.29929852315788"><ele>94.0</ele><time>2026-03-29T14:32:02.003Z</time></trkpt><trkpt lat="45.35893881006546" lon="9.299113672297223"><ele>93.0</ele><time>2026-03-29T14:32:03.003Z</time></trkpt><trkpt lat="45.35902981146501" lon="9.298924679452515"><ele>92.0</ele><time>2026-03-29T14:32:04.003Z</time></trkpt><trkpt lat="45.35913239670346" lon="9.298735702677249"><ele>91.0</ele><time>2026-03-29T14:32:05.003Z</time></trkpt><trkpt lat="45.359244903984774" lon="9.298549581486231"><ele>91.0</ele><time>2026-03-29T14:32:06.003Z</time></trkpt><trkpt lat="45.35935682473317" lon="9.29834986549408"><ele>91.0</ele><time>2026-03-29T14:32:07.003Z</time></trkpt><trkpt lat="45.35946566320977" lon="9.298146732230778"><ele>91.0</ele><time>2026-03-29T14:32:08.003Z</time></trkpt><trkpt lat="45.35964696267117" lon="9.298012784795134"><ele>91.0</ele><time>2026-03-29T14:32:09.003Z</time></trkpt><trkpt lat="45.35979263958973" lon="9.297834416303473"><ele>91.0</ele><time>2026-03-29T14:32:10.003Z</time></trkpt><trkpt lat="45.359943371438916" lon="9.297652079499027"><ele>91.0</ele><time>2026-03-29T14:32:11.003Z</time></trkpt><trkpt lat="45.36009971233973" lon="9.297466531406103"><ele>91.0</ele><time>2026-03-29T14:32:12.003Z</time></trkpt><trkpt lat="45.36024998955134" lon="9.297287721703412"><ele>91.0</ele><time>2026-03-29T14:32:13.003Z</time></trkpt><trkpt lat="45.36040255764895" lon="9.2971087095922"><ele>91.0</ele><time>2026-03-29T14:32:14.003Z</time></trkpt><trkpt lat="45.360560379609176" lon="9.296922195093273"><ele>91.0</ele><time>2026-03-29T14:32:15.003Z</time></trkpt><trkpt lat="45.36072316789355" lon="9.296723970162219"><ele>91.0</ele><time>2026-03-29T14:32:16.003Z</time></trkpt><trkpt lat="45.36088774542401" lon="9.296516800518642"><ele>91.0</ele><time>2026-03-29T14:32:17.003Z</time></trkpt><trkpt lat="45.361056123653576" lon="9.296308247043262"><ele>91.0</ele><time>2026-03-29T14:32:18.003Z</time></trkpt><trkpt lat="45.361229918188904" lon="9.296101242771833"><ele>91.0</ele><time>2026-03-29T14:32:19.003Z</time></trkpt><trkpt lat="45.36140791360427" lon="9.295892750470527"><ele>91.0</ele><time>2026-03-29T14:32:20.003Z</time></trkpt><trkpt lat="45.36158637846507" lon="9.295681941982965"><ele>91.0</ele><time>2026-03-29T14:32:21.003Z</time></trkpt><trkpt lat="45.36176452970194" lon="9.295470941700103"><ele>91.0</ele><time>2026-03-29T14:32:22.003Z</time></trkpt><trkpt lat="45.36193723791902" lon="9.295264262519598"><ele>91.0</ele><time>2026-03-29T14:32:23.003Z</time></trkpt><trkpt lat="45.36211867885026" lon="9.29505052342038"><ele>91.0</ele><time>2026-03-29T14:32:24.003Z</time></trkpt><trkpt lat="45.362299860520594" lon="9.294836085173845"><ele>91.0</ele><time>2026-03-29T14:32:25Z</time></trkpt><trkpt lat="45.36248996798552" lon="9.294615239264981"><ele>91.0</ele><time>2026-03-29T14:32:26Z</time></trkpt><trkpt lat="45.36267478107207" lon="9.294397632941504"><ele>91.0</ele><time>2026-03-29T14:32:27Z</time></trkpt><trkpt lat="45.362866386715154" lon="9.294172787243287"><ele>91.5</ele><time>2026-03-29T14:32:28Z</time></trkpt><trkpt lat="45.36305569029105" lon="9.293949274786517"><ele>92.0</ele><time>2026-03-29T14:32:29Z</time></trkpt><trkpt lat="45.363244393180295" lon="9.293727562452329"><ele>92.0</ele><time>2026-03-29T14:32:30Z</time></trkpt><trkpt lat="45.36343371650165" lon="9.29350841411489"><ele>92.0</ele><time>2026-03-29T14:32:31Z</time></trkpt><trkpt lat="45.36361517690477" lon="9.293293169400476"><ele>92.0</ele><time>2026-03-29T14:32:32Z</time></trkpt><trkpt lat="45.363800144205676" lon="9.293075929586013"><ele>92.0</ele><time>2026-03-29T14:32:33Z</time></trkpt><trkpt lat="45.36399113179839" lon="9.292863545875145"><ele>91.5</ele><time>2026-03-29T14:32:34Z</time></trkpt><trkpt lat="45.36417241685877" lon="9.292640684310987"><ele>91.0</ele><time>2026-03-29T14:32:35Z</time></trkpt><trkpt lat="45.36435529345214" lon="9.292424780526012"><ele>91.0</ele><time>2026-03-29T14:32:36Z</time></trkpt><trkpt lat="45.36453961235857" lon="9.292207674572488"><ele>91.0</ele><time>2026-03-29T14:32:37Z</time></trkpt><trkpt lat="45.36472502697091" lon="9.291987325389567"><ele>91.0</ele><time>2026-03-29T14:32:38Z</time></trkpt><trkpt lat="45.3649068006705" lon="9.291769351543156"><ele>91.0</ele><time>2026-03-29T14:32:39Z</time></trkpt><trkpt lat="45.36508886245477" lon="9.29155206144534"><ele>92.0</ele><time>2026-03-29T14:32:40Z</time></trkpt><trkpt lat="45.36527074807488" lon="9.291336674709745"><ele>93.0</ele><time>2026-03-29T14:32:41Z</time></trkpt><trkpt lat="45.36544994392011" lon="9.29112767534056"><ele>92.5</ele><time>2026-03-29T14:32:42Z</time></trkpt><trkpt lat="45.365628944929455" lon="9.290920861848726"><ele>92.0</ele><time>2026-03-29T14:32:43Z</time></trkpt><trkpt lat="45.36581016382087" lon="9.290713309705485"><ele>92.5</ele><time>2026-03-29T14:32:44Z</time></trkpt><trkpt lat="45.36599046925742" lon="9.290504909920257"><ele>93.0</ele><time>2026-03-29T14:32:45Z</time></trkpt><trkpt lat="45.366171702478" lon="9.290289750148625"><ele>93.0</ele><time>2026-03-29T14:32:46Z</time></trkpt><trkpt lat="45.36635159731677" lon="9.290075137504004"><ele>93.0</ele><time>2026-03-29T14:32:47Z</time></trkpt><trkpt lat="45.36653233253691" lon="9.289859504675709"><ele>92.5</ele><time>2026-03-29T14:32:48Z</time></trkpt><trkpt lat="45.366715299213226" lon="9.28964173630973"><ele>92.0</ele><time>2026-03-29T14:32:49Z</time></trkpt><trkpt lat="45.36689624653222" lon="9.289425231059248"><ele>92.0</ele><time>2026-03-29T14:32:50Z</time></trkpt><trkpt lat="45.367079515930264" lon="9.289207227469179"><ele>92.0</ele><time>2026-03-29T14:32:51Z</time></trkpt><trkpt lat="45.36726643082089" lon="9.288985132004505"><ele>92.0</ele><time>2026-03-29T14:32:52Z</time></trkpt><trkpt lat="45.36745304269485" lon="9.288765035039603"><ele>92.0</ele><time>2026-03-29T14:32:53Z</time></trkpt><trkpt lat="45.367637448862425" lon="9.288549000841451"><ele>92.0</ele><time>2026-03-29T14:32:54Z</time></trkpt><trkpt lat="45.367818254875644" lon="9.288338023861227"><ele>92.0</ele><time>2026-03-29T14:32:55Z</time></trkpt><trkpt lat="45.367994661209295" lon="9.288129482607278"><ele>92.33333333333334</ele><time>2026-03-29T14:32:56.001Z</time></trkpt><trkpt lat="45.368163995071335" lon="9.287928382754288"><ele>92.66666666666667</ele><time>2026-03-29T14:32:57.001Z</time></trkpt><trkpt lat="45.36833788835305" lon="9.28772869659463"><ele>93.0</ele><time>2026-03-29T14:32:58.001Z</time></trkpt><trkpt lat="45.368513146571495" lon="9.287524953137671"><ele>93.0</ele><time>2026-03-29T14:32:59.001Z</time></trkpt><trkpt lat="45.36868521184127" lon="9.287319479997658"><ele>93.0</ele><time>2026-03-29T14:33:00.001Z</time></trkpt><trkpt lat="45.36885463974222" lon="9.28711561762276"><ele>93.0</ele><time>2026-03-29T14:33:01.001Z</time></trkpt><trkpt lat="45.36901903528025" lon="9.28691760118194"><ele>93.0</ele><time>2026-03-29T14:33:02.001Z</time></trkpt><trkpt lat="45.36918976759159" lon="9.286718056617175"><ele>93.0</ele><time>2026-03-29T14:33:03.001Z</time></trkpt><trkpt lat="45.369349956827214" lon="9.28651857378799"><ele>93.0</ele><time>2026-03-29T14:33:04.001Z</time></trkpt><trkpt lat="45.36952021545249" lon="9.286324625482125"><ele>93.0</ele><time>2026-03-29T14:33:05.001Z</time></trkpt><trkpt lat="45.369688418968195" lon="9.286127662120137"><ele>93.0</ele><time>2026-03-29T14:33:06.001Z</time></trkpt><trkpt lat="45.36985190693123" lon="9.285938890606776"><ele>93.0</ele><time>2026-03-29T14:33:07.001Z</time></trkpt><trkpt lat="45.370014173806794" lon="9.28574594623461"><ele>93.0</ele><time>2026-03-29T14:33:08.001Z</time></trkpt><trkpt lat="45.37017714258803" lon="9.28554842068177"><ele>93.0</ele><time>2026-03-29T14:33:09.001Z</time></trkpt><trkpt lat="45.370340006066854" lon="9.28536357478126"><ele>93.0</ele><time>2026-03-29T14:33:10.001Z</time></trkpt><trkpt lat="45.37049427646296" lon="9.285185881283011"><ele>93.0</ele><time>2026-03-29T14:33:11.001Z</time></trkpt><trkpt lat="45.37064848406501" lon="9.285008758337328"><ele>93.0</ele><time>2026-03-29T14:33:12.001Z</time></trkpt><trkpt lat="45.37081206014282" lon="9.284824215510938"><ele>93.0</ele><time>2026-03-29T14:33:13.001Z</time></trkpt><trkpt lat="45.37097932088838" lon="9.28463427073494"><ele>93.0</ele><time>2026-03-29T14:33:14.001Z</time></trkpt><trkpt lat="45.371143820918384" lon="9.284442822158688"><ele>93.0</ele><time>2026-03-29T14:33:15.001Z</time></trkpt><trkpt lat="45.371307737092366" lon="9.284249414378595"><ele>93.0</ele><time>2026-03-29T14:33:16.001Z</time></trkpt><trkpt lat="45.37147448596316" lon="9.284050035948901"><ele>93.33333333333333</ele><time>2026-03-29T14:33:17.001Z</time></trkpt><trkpt lat="45.371642158863544" lon="9.283854025235554"><ele>93.66666666666666</ele><time>2026-03-29T14:33:18.001Z</time></trkpt><trkpt lat="45.371811192738626" lon="9.28365654062692"><ele>94.0</ele><time>2026-03-29T14:33:19.001Z</time></trkpt><trkpt lat="45.37198050988003" lon="9.28345833505009"><ele>94.0</ele><time>2026-03-29T14:33:20.001Z</time></trkpt><trkpt lat="45.37215120262217" lon="9.2832561029445"><ele>94.0</ele><time>2026-03-29T14:33:21.001Z</time></trkpt><trkpt lat="45.37232195674771" lon="9.28305436997802"><ele>94.0</ele><time>2026-03-29T14:33:22.001Z</time></trkpt><trkpt lat="45.37249918171591" lon="9.282844473354217"><ele>93.5</ele><time>2026-03-29T14:33:23.001Z</time></trkpt><trkpt lat="45.37267611633785" lon="9.28263459854264"><ele>93.0</ele><time>2026-03-29T14:33:24.001Z</time></trkpt><trkpt lat="45.37285623158787" lon="9.282419688279601"><ele>93.0</ele><time>2026-03-29T14:33:25.001Z</time></trkpt><trkpt lat="45.373041956913056" lon="9.282198036573876"><ele>93.0</ele><time>2026-03-29T14:33:26.001Z</time></trkpt><trkpt lat="45.37322491196632" lon="9.28197963409502"><ele>93.0</ele><time>2026-03-29T14:33:27.001Z</time></trkpt><trkpt lat="45.373406092238795" lon="9.281764370388"><ele>93.0</ele><time>2026-03-29T14:33:28.002Z</time></trkpt><trkpt lat="45.37358874529114" lon="9.281546129085273"><ele>93.0</ele><time>2026-03-29T14:33:29.002Z</time></trkpt><trkpt lat="45.3737826110451" lon="9.281315629920671"><ele>93.0</ele><time>2026-03-29T14:33:30.002Z</time></trkpt><trkpt lat="45.37398402804423" lon="9.281074804036358"><ele>93.0</ele><time>2026-03-29T14:33:31.002Z</time></trkpt><trkpt lat="45.37419350012141" lon="9.280832078774974"><ele>93.0</ele><time>2026-03-29T14:33:32.002Z</time></trkpt><trkpt lat="45.374401804896564" lon="9.280591377264056"><ele>93.5</ele><time>2026-03-29T14:33:33.002Z</time></trkpt><trkpt lat="45.37460695726143" lon="9.280352987964715"><ele>94.0</ele><time>2026-03-29T14:33:34.002Z</time></trkpt><trkpt lat="45.374804357034364" lon="9.280118977369547"><ele>94.0</ele><time>2026-03-29T14:33:35.002Z</time></trkpt><trkpt lat="45.37499800561608" lon="9.279889290979254"><ele>94.0</ele><time>2026-03-29T14:33:36.002Z</time></trkpt><trkpt lat="45.37519565469242" lon="9.2796542692989"><ele>94.5</ele><time>2026-03-29T14:33:37.002Z</time></trkpt><trkpt lat="45.37539265466931" lon="9.279414332192415"><ele>95.0</ele><time>2026-03-29T14:33:38.002Z</time></trkpt><trkpt lat="45.3756003106312" lon="9.279162728480062"><ele>94.5</ele><time>2026-03-29T14:33:39.002Z</time></trkpt><trkpt lat="45.375819873126964" lon="9.278910076731787"><ele>94.0</ele><time>2026-03-29T14:33:40.002Z</time></trkpt><trkpt lat="45.37604442043125" lon="9.278665032888165"><ele>94.0</ele><time>2026-03-29T14:33:41.002Z</time></trkpt><trkpt lat="45.37626397743001" lon="9.278421933390327"><ele>94.0</ele><time>2026-03-29T14:33:42.002Z</time></trkpt><trkpt lat="45.37647399769983" lon="9.278179029808786"><ele>95.0</ele><time>2026-03-29T14:33:43.002Z</time></trkpt><trkpt lat="45.37668126930574" lon="9.277932978700568"><ele>96.0</ele><time>2026-03-29T14:33:44.002Z</time></trkpt><trkpt lat="45.37688484695332" lon="9.277694892322947"><ele>96.0</ele><time>2026-03-29T14:33:45.002Z</time></trkpt><trkpt lat="45.3770897598057" lon="9.277457714569765"><ele>96.0</ele><time>2026-03-29T14:33:46.002Z</time></trkpt><trkpt lat="45.3772937017515" lon="9.277218497568775"><ele>96.0</ele><time>2026-03-29T14:33:47.002Z</time></trkpt><trkpt lat="45.37749518647706" lon="9.276980619983528"><ele>96.0</ele><time>2026-03-29T14:33:48.002Z</time></trkpt><trkpt lat="45.37769636662867" lon="9.276744015016769"><ele>96.0</ele><time>2026-03-29T14:33:49.002Z</time></trkpt><trkpt lat="45.377897828500956" lon="9.276507817861631"><ele>96.0</ele><time>2026-03-29T14:33:50.002Z</time></trkpt><trkpt lat="45.37809806975216" lon="9.276273074979008"><ele>96.0</ele><time>2026-03-29T14:33:51.002Z</time></trkpt><trkpt lat="45.378296942072645" lon="9.276040229242168"><ele>96.0</ele><time>2026-03-29T14:33:52.002Z</time></trkpt><trkpt lat="45.37849752925451" lon="9.275803134434415"><ele>96.0</ele><time>2026-03-29T14:33:53.002Z</time></trkpt><trkpt lat="45.37869443435963" lon="9.275572334950793"><ele>96.0</ele><time>2026-03-29T14:33:54.002Z</time></trkpt><trkpt lat="45.378894954072415" lon="9.27534185949255"><ele>95.5</ele><time>2026-03-29T14:33:55.002Z</time></trkpt><trkpt lat="45.379094262371204" lon="9.27510570771323"><ele>95.0</ele><time>2026-03-29T14:33:56.002Z</time></trkpt><trkpt lat="45.37929805591949" lon="9.2748769693807"><ele>94.5</ele><time>2026-03-29T14:33:57.002Z</time></trkpt><trkpt lat="45.3794928592345" lon="9.274649667377561"><ele>94.0</ele><time>2026-03-29T14:33:58.002Z</time></trkpt><trkpt lat="45.37968864259008" lon="9.274421151068049"><ele>94.0</ele><time>2026-03-29T14:33:59.002Z</time></trkpt><trkpt lat="45.379884268224316" lon="9.274191195038254"><ele>94.0</ele><time>2026-03-29T14:34:00.002Z</time></trkpt><trkpt lat="45.38007638079943" lon="9.273960309757546"><ele>95.5</ele><time>2026-03-29T14:34:01.003Z</time></trkpt><trkpt lat="45.38026996186217" lon="9.273731096858018"><ele>97.0</ele><time>2026-03-29T14:34:02.003Z</time></trkpt><trkpt lat="45.38046460199384" lon="9.273504018765987"><ele>96.5</ele><time>2026-03-29T14:34:03.003Z</time></trkpt><trkpt lat="45.38066241292213" lon="9.273271284995891"><ele>96.0</ele><time>2026-03-29T14:34:04.003Z</time></trkpt><trkpt lat="45.38085824965124" lon="9.273039509341995"><ele>96.0</ele><time>2026-03-29T14:34:05.003Z</time></trkpt><trkpt lat="45.38105583951433" lon="9.272805297809604"><ele>96.0</ele><time>2026-03-29T14:34:06.003Z</time></trkpt><trkpt lat="45.38125344123249" lon="9.272573606720751"><ele>96.0</ele><time>2026-03-29T14:34:07.003Z</time></trkpt><trkpt lat="45.381450853441315" lon="9.272342322045485"><ele>96.0</ele><time>2026-03-29T14:34:08.003Z</time></trkpt><trkpt lat="45.38164843617182" lon="9.27210973314881"><ele>96.0</ele><time>2026-03-29T14:34:09.003Z</time></trkpt><trkpt lat="45.38184829482753" lon="9.271875094352493"><ele>96.0</ele><time>2026-03-29T14:34:10.003Z</time></trkpt><trkpt lat="45.382047275321824" lon="9.271642744603254"><ele>95.0</ele><time>2026-03-29T14:34:11.003Z</time></trkpt><trkpt lat="45.3822444499319" lon="9.271409909734093"><ele>94.0</ele><time>2026-03-29T14:34:12.003Z</time></trkpt><trkpt lat="45.382448945397144" lon="9.271168015667946"><ele>94.0</ele><time>2026-03-29T14:34:13.003Z</time></trkpt><trkpt lat="45.3826501181437" lon="9.270930434924848"><ele>94.0</ele><time>2026-03-29T14:34:14.003Z</time></trkpt><trkpt lat="45.382851627601994" lon="9.270696311086459"><ele>95.5</ele><time>2026-03-29T14:34:15.003Z</time></trkpt><trkpt lat="45.383053562813046" lon="9.270459994743995"><ele>97.0</ele><time>2026-03-29T14:34:16.003Z</time></trkpt><trkpt lat="45.383256394122725" lon="9.270221269028996"><ele>97.0</ele><time>2026-03-29T14:34:17.003Z</time></trkpt><trkpt lat="45.3834589147531" lon="9.269983439456487"><ele>97.0</ele><time>2026-03-29T14:34:18.003Z</time></trkpt><trkpt lat="45.38366202037175" lon="9.269744149704435"><ele>97.5</ele><time>2026-03-29T14:34:19.003Z</time></trkpt><trkpt lat="45.383862708556485" lon="9.269507475257683"><ele>98.0</ele><time>2026-03-29T14:34:20.003Z</time></trkpt><trkpt lat="45.38406243243148" lon="9.26926424671705"><ele>98.0</ele><time>2026-03-29T14:34:21.003Z</time></trkpt><trkpt lat="45.38426552109295" lon="9.269031539035032"><ele>98.0</ele><time>2026-03-29T14:34:22.003Z</time></trkpt><trkpt lat="45.384466856101916" lon="9.268793601666285"><ele>97.5</ele><time>2026-03-29T14:34:23.003Z</time></trkpt><trkpt lat="45.38468280521911" lon="9.268537424069969"><ele>97.0</ele><time>2026-03-29T14:34:24.003Z</time></trkpt><trkpt lat="45.38488275226845" lon="9.268307692550554"><ele>97.0</ele><time>2026-03-29T14:34:25.003Z</time></trkpt><trkpt lat="45.3850696902251" lon="9.268082210027773"><ele>97.0</ele><time>2026-03-29T14:34:26.003Z</time></trkpt><trkpt lat="45.38525705715533" lon="9.267862442425239"><ele>97.0</ele><time>2026-03-29T14:34:27.003Z</time></trkpt><trkpt lat="45.38544894729893" lon="9.267637844332857"><ele>97.0</ele><time>2026-03-29T14:34:28.003Z</time></trkpt><trkpt lat="45.38563616451112" lon="9.267418384267943"><ele>97.0</ele><time>2026-03-29T14:34:29.003Z</time></trkpt><trkpt lat="45.38582373181392" lon="9.267200333903915"><ele>97.0</ele><time>2026-03-29T14:34:30.003Z</time></trkpt><trkpt lat="45.38601243782242" lon="9.266983196762196"><ele>97.0</ele><time>2026-03-29T14:34:30.999Z</time></trkpt><trkpt lat="45.386198292138644" lon="9.26676530225919"><ele>97.0</ele><time>2026-03-29T14:34:31.999Z</time></trkpt><trkpt lat="45.38638397489235" lon="9.266545509268228"><ele>97.0</ele><time>2026-03-29T14:34:32.999Z</time></trkpt><trkpt lat="45.38657087911136" lon="9.266323039241732"><ele>97.0</ele><time>2026-03-29T14:34:33.999Z</time></trkpt><trkpt lat="45.38675490054938" lon="9.266105801992824"><ele>97.0</ele><time>2026-03-29T14:34:34.999Z</time></trkpt><trkpt lat="45.38694435833585" lon="9.26588266321524"><ele>97.0</ele><time>2026-03-29T14:34:36Z</time></trkpt><trkpt lat="45.387126361884235" lon="9.265668271947682"><ele>97.5</ele><time>2026-03-29T14:34:37Z</time></trkpt><trkpt lat="45.387314851087005" lon="9.265447360084037"><ele>98.0</ele><time>2026-03-29T14:34:38Z</time></trkpt><trkpt lat="45.387499774271916" lon="9.265228581436322"><ele>98.0</ele><time>2026-03-29T14:34:39Z</time></trkpt><trkpt lat="45.38768392476667" lon="9.265007469693106"><ele>98.0</ele><time>2026-03-29T14:34:40Z</time></trkpt><trkpt lat="45.38786894087587" lon="9.264785953666719"><ele>96.5</ele><time>2026-03-29T14:34:41Z</time></trkpt><trkpt lat="45.38805250176979" lon="9.264570403288246"><ele>95.0</ele><time>2026-03-29T14:34:42Z</time></trkpt><trkpt lat="45.38823554349434" lon="9.264356323843389"><ele>95.0</ele><time>2026-03-29T14:34:43Z</time></trkpt><trkpt lat="45.38840651422843" lon="9.26415650362501"><ele>95.0</ele><time>2026-03-29T14:34:44Z</time></trkpt><trkpt lat="45.38857712464235" lon="9.263958152368122"><ele>95.0</ele><time>2026-03-29T14:34:45Z</time></trkpt><trkpt lat="45.388743766931405" lon="9.26376312900463"><ele>95.33333333333334</ele><time>2026-03-29T14:34:46Z</time></trkpt><trkpt lat="45.388909815068835" lon="9.26357140028611"><ele>95.66666666666667</ele><time>2026-03-29T14:34:47Z</time></trkpt><trkpt lat="45.389091068619386" lon="9.263362327045716"><ele>96.0</ele><time>2026-03-29T14:34:48Z</time></trkpt><trkpt lat="45.38927718506108" lon="9.263160699626152"><ele>96.0</ele><time>2026-03-29T14:34:49Z</time></trkpt><trkpt lat="45.38947136014791" lon="9.262960966128562"><ele>96.0</ele><time>2026-03-29T14:34:50Z</time></trkpt><trkpt lat="45.389681824768935" lon="9.262757234070131"><ele>96.0</ele><time>2026-03-29T14:34:51Z</time></trkpt><trkpt lat="45.38989300796008" lon="9.26256743518402"><ele>96.0</ele><time>2026-03-29T14:34:52Z</time></trkpt><trkpt lat="45.390105076192725" lon="9.262395835795724"><ele>97.5</ele><time>2026-03-29T14:34:53Z</time></trkpt><trkpt lat="45.39031349002524" lon="9.262238189804158"><ele>99.0</ele><time>2026-03-29T14:34:54Z</time></trkpt><trkpt lat="45.390518927330426" lon="9.262084518868559"><ele>99.0</ele><time>2026-03-29T14:34:55Z</time></trkpt><trkpt lat="45.390730248959954" lon="9.261934970269024"><ele>99.0</ele><time>2026-03-29T14:34:56Z</time></trkpt><trkpt lat="45.39093525744054" lon="9.261798362205433"><ele>99.0</ele><time>2026-03-29T14:34:57Z</time></trkpt><trkpt lat="45.391137177905065" lon="9.261669393425063"><ele>99.0</ele><time>2026-03-29T14:34:58Z</time></trkpt><trkpt lat="45.39133683910972" lon="9.261547331671549"><ele>99.0</ele><time>2026-03-29T14:34:59Z</time></trkpt><trkpt lat="45.391542112128064" lon="9.261429505094531"><ele>98.66666666666666</ele><time>2026-03-29T14:35:00Z</time></trkpt><trkpt lat="45.39174218255548" lon="9.261325271203306"><ele>98.33333333333333</ele><time>2026-03-29T14:35:01Z</time></trkpt><trkpt lat="45.391948257473004" lon="9.261221407379738"><ele>98.0</ele><time>2026-03-29T14:35:02Z</time></trkpt><trkpt lat="45.39215169615739" lon="9.261127602725706"><ele>99.0</ele><time>2026-03-29T14:35:03Z</time></trkpt><trkpt lat="45.39235415117755" lon="9.261037919046043"><ele>100.0</ele><time>2026-03-29T14:35:04Z</time></trkpt><trkpt lat="45.39255434626604" lon="9.260956087414225"><ele>101.0</ele><time>2026-03-29T14:35:05Z</time></trkpt><trkpt lat="45.39276268319372" lon="9.260871677128053"><ele>101.0</ele><time>2026-03-29T14:35:06Z</time></trkpt><trkpt lat="45.39297249957095" lon="9.260801506854518"><ele>101.0</ele><time>2026-03-29T14:35:07Z</time></trkpt><trkpt lat="45.39318138218773" lon="9.260736607161201"><ele>101.0</ele><time>2026-03-29T14:35:08Z</time></trkpt><trkpt lat="45.39339262387702" lon="9.26067782047342"><ele>101.0</ele><time>2026-03-29T14:35:09Z</time></trkpt><trkpt lat="45.393600990789025" lon="9.260623531426653"><ele>101.0</ele><time>2026-03-29T14:35:10Z</time></trkpt><trkpt lat="45.39380561097343" lon="9.260574176595764"><ele>101.0</ele><time>2026-03-29T14:35:11Z</time></trkpt><trkpt lat="45.394024202481546" lon="9.260530535588078"><ele>101.5</ele><time>2026-03-29T14:35:12Z</time></trkpt><trkpt lat="45.394257770903366" lon="9.260487297848114"><ele>102.0</ele><time>2026-03-29T14:35:13Z</time></trkpt><trkpt lat="45.394489383221206" lon="9.260454408824119"><ele>101.33333333333334</ele><time>2026-03-29T14:35:14Z</time></trkpt><trkpt lat="45.39471172868258" lon="9.260433233153822"><ele>100.66666666666667</ele><time>2026-03-29T14:35:15.001Z</time></trkpt><trkpt lat="45.3949380038718" lon="9.260416311394314"><ele>100.0</ele><time>2026-03-29T14:35:16.001Z</time></trkpt><trkpt lat="45.39515942832574" lon="9.260406958332688"><ele>100.0</ele><time>2026-03-29T14:35:17.001Z</time></trkpt><trkpt lat="45.39537354266254" lon="9.260405460944693"><ele>100.0</ele><time>2026-03-29T14:35:18.001Z</time></trkpt><trkpt lat="45.39558089859705" lon="9.26040574198161"><ele>100.0</ele><time>2026-03-29T14:35:19.001Z</time></trkpt><trkpt lat="45.39578425524183" lon="9.260413223589376"><ele>100.0</ele><time>2026-03-29T14:35:20.001Z</time></trkpt><trkpt lat="45.39598935248976" lon="9.260425882078547"><ele>100.0</ele><time>2026-03-29T14:35:21.001Z</time></trkpt><trkpt lat="45.39619792240384" lon="9.26044327845868"><ele>100.0</ele><time>2026-03-29T14:35:22.001Z</time></trkpt><trkpt lat="45.39640925647795" lon="9.26046626525677"><ele>100.0</ele><time>2026-03-29T14:35:23.001Z</time></trkpt><trkpt lat="45.39662612315074" lon="9.260491780136965"><ele>100.0</ele><time>2026-03-29T14:35:24.001Z</time></trkpt><trkpt lat="45.39685056054332" lon="9.260515793292695"><ele>100.0</ele><time>2026-03-29T14:35:25.001Z</time></trkpt><trkpt lat="45.39707885056328" lon="9.260541754301002"><ele>100.5</ele><time>2026-03-29T14:35:26.001Z</time></trkpt><trkpt lat="45.39730932194848" lon="9.260569962544407"><ele>101.0</ele><time>2026-03-29T14:35:27.001Z</time></trkpt><trkpt lat="45.39753543772709" lon="9.260598761376727"><ele>100.5</ele><time>2026-03-29T14:35:28.001Z</time></trkpt><trkpt lat="45.397760308883186" lon="9.260627762085342"><ele>100.0</ele><time>2026-03-29T14:35:29.001Z</time></trkpt><trkpt lat="45.397985804486524" lon="9.260649004561579"><ele>100.33333333333334</ele><time>2026-03-29T14:35:30.001Z</time></trkpt><trkpt lat="45.398204717407545" lon="9.260680026985634"><ele>100.66666666666666</ele><time>2026-03-29T14:35:31.001Z</time></trkpt><trkpt lat="45.39843136615719" lon="9.260711892403167"><ele>101.0</ele><time>2026-03-29T14:35:32.001Z</time></trkpt><trkpt lat="45.398646194996296" lon="9.260730066147401"><ele>101.0</ele><time>2026-03-29T14:35:33.001Z</time></trkpt><trkpt lat="45.39886380638831" lon="9.260754597628209"><ele>101.0</ele><time>2026-03-29T14:35:34.001Z</time></trkpt><trkpt lat="45.39908882022756" lon="9.260779671526144"><ele>101.0</ele><time>2026-03-29T14:35:35.001Z</time></trkpt><trkpt lat="45.39931466300578" lon="9.260803309921391"><ele>101.0</ele><time>2026-03-29T14:35:36.001Z</time></trkpt><trkpt lat="45.39954263226309" lon="9.260828882704626"><ele>101.0</ele><time>2026-03-29T14:35:37.001Z</time></trkpt><trkpt lat="45.39977221113354" lon="9.260857652894114"><ele>99.5</ele><time>2026-03-29T14:35:38.001Z</time></trkpt><trkpt lat="45.40000940508589" lon="9.260883230452416"><ele>98.0</ele><time>2026-03-29T14:35:39.001Z</time></trkpt><trkpt lat="45.400243800811715" lon="9.260905400616139"><ele>98.0</ele><time>2026-03-29T14:35:40.001Z</time></trkpt><trkpt lat="45.40047542074049" lon="9.260927962686827"><ele>98.0</ele><time>2026-03-29T14:35:41.001Z</time></trkpt><trkpt lat="45.4007049821433" lon="9.260953888472446"><ele>98.0</ele><time>2026-03-29T14:35:42.001Z</time></trkpt><trkpt lat="45.40093377001545" lon="9.26098048138729"><ele>98.0</ele><time>2026-03-29T14:35:43.001Z</time></trkpt><trkpt lat="45.40115584500559" lon="9.261004325327866"><ele>98.33333333333333</ele><time>2026-03-29T14:35:44.001Z</time></trkpt><trkpt lat="45.40137472441538" lon="9.261029948200807"><ele>98.66666666666666</ele><time>2026-03-29T14:35:45.001Z</time></trkpt><trkpt lat="45.40159304051855" lon="9.261054554053134"><ele>99.0</ele><time>2026-03-29T14:35:46.001Z</time></trkpt><trkpt lat="45.401817856088186" lon="9.2610803430081"><ele>99.0</ele><time>2026-03-29T14:35:47.001Z</time></trkpt><trkpt lat="45.40204082194775" lon="9.261105780008474"><ele>99.0</ele><time>2026-03-29T14:35:48.002Z</time></trkpt><trkpt lat="45.402262465536644" lon="9.261131493777983"><ele>99.0</ele><time>2026-03-29T14:35:49.002Z</time></trkpt><trkpt lat="45.402493207939386" lon="9.261159612276826"><ele>99.0</ele><time>2026-03-29T14:35:50.002Z</time></trkpt><trkpt lat="45.402724958279" lon="9.261187427774484"><ele>99.0</ele><time>2026-03-29T14:35:51.002Z</time></trkpt><trkpt lat="45.40295297704165" lon="9.261217941552939"><ele>99.5</ele><time>2026-03-29T14:35:52.002Z</time></trkpt><trkpt lat="45.4031841732945" lon="9.261253504686055"><ele>100.0</ele><time>2026-03-29T14:35:53.002Z</time></trkpt><trkpt lat="45.403412219374985" lon="9.261287259021689"><ele>100.0</ele><time>2026-03-29T14:35:54.002Z</time></trkpt><trkpt lat="45.403644603446054" lon="9.261320970637266"><ele>100.0</ele><time>2026-03-29T14:35:55.002Z</time></trkpt><trkpt lat="45.40387826094549" lon="9.261351854292348"><ele>99.5</ele><time>2026-03-29T14:35:56.002Z</time></trkpt><trkpt lat="45.404108870646276" lon="9.261377778544134"><ele>99.0</ele><time>2026-03-29T14:35:57.002Z</time></trkpt><trkpt lat="45.4043412202762" lon="9.261404021096862"><ele>99.0</ele><time>2026-03-29T14:35:58.002Z</time></trkpt><trkpt lat="45.40456994110239" lon="9.261431420545673"><ele>99.0</ele><time>2026-03-29T14:35:59.002Z</time></trkpt><trkpt lat="45.40479718408817" lon="9.261456930132757"><ele>99.0</ele><time>2026-03-29T14:36:00.002Z</time></trkpt><trkpt lat="45.40501297303378" lon="9.261483830952074"><ele>99.0</ele><time>2026-03-29T14:36:01.002Z</time></trkpt><trkpt lat="45.40522840576994" lon="9.26150556987681"><ele>99.0</ele><time>2026-03-29T14:36:02.002Z</time></trkpt><trkpt lat="45.405441631237835" lon="9.261523416168501"><ele>99.0</ele><time>2026-03-29T14:36:03.002Z</time></trkpt><trkpt lat="45.40565317152503" lon="9.261536361973281"><ele>99.0</ele><time>2026-03-29T14:36:04.002Z</time></trkpt><trkpt lat="45.4058662318296" lon="9.261538264296872"><ele>99.0</ele><time>2026-03-29T14:36:05.002Z</time></trkpt><trkpt lat="45.406076472723065" lon="9.261528878371635"><ele>99.0</ele><time>2026-03-29T14:36:06.002Z</time></trkpt><trkpt lat="45.4062854165905" lon="9.26150516831088"><ele>99.0</ele><time>2026-03-29T14:36:07.002Z</time></trkpt><trkpt lat="45.406493516216464" lon="9.261467638231997"><ele>99.0</ele><time>2026-03-29T14:36:08.002Z</time></trkpt><trkpt lat="45.406698603128824" lon="9.261418032861762"><ele>99.0</ele><time>2026-03-29T14:36:09.002Z</time></trkpt><trkpt lat="45.40688888465899" lon="9.261362016757433"><ele>99.0</ele><time>2026-03-29T14:36:10.002Z</time></trkpt><trkpt lat="45.407079432067" lon="9.261292183855282"><ele>99.0</ele><time>2026-03-29T14:36:11.002Z</time></trkpt><trkpt lat="45.40726766779239" lon="9.261215957211167"><ele>98.66666666666666</ele><time>2026-03-29T14:36:12.002Z</time></trkpt><trkpt lat="45.407443165883045" lon="9.261122897324"><ele>98.33333333333333</ele><time>2026-03-29T14:36:13.002Z</time></trkpt><trkpt lat="45.40761704527895" lon="9.261022750183539"><ele>98.0</ele><time>2026-03-29T14:36:14.002Z</time></trkpt><trkpt lat="45.40778388479962" lon="9.26091817203994"><ele>98.0</ele><time>2026-03-29T14:36:15.002Z</time></trkpt><trkpt lat="45.40794627846044" lon="9.260797374135576"><ele>98.0</ele><time>2026-03-29T14:36:16.002Z</time></trkpt><trkpt lat="45.40811033869117" lon="9.260662431114332"><ele>98.0</ele><time>2026-03-29T14:36:17.002Z</time></trkpt><trkpt lat="45.40827200887972" lon="9.260519083276717"><ele>98.0</ele><time>2026-03-29T14:36:18.002Z</time></trkpt><trkpt lat="45.40843010567702" lon="9.260363545207325"><ele>98.0</ele><time>2026-03-29T14:36:19.002Z</time></trkpt><trkpt lat="45.408593636443534" lon="9.26018522810365"><ele>98.0</ele><time>2026-03-29T14:36:20.002Z</time></trkpt><trkpt lat="45.40875606638284" lon="9.259998387560481"><ele>98.0</ele><time>2026-03-29T14:36:21.002Z</time></trkpt><trkpt lat="45.40891674060689" lon="9.259799092960217"><ele>98.0</ele><time>2026-03-29T14:36:22.003Z</time></trkpt><trkpt lat="45.40908159138647" lon="9.259587386884325"><ele>98.0</ele><time>2026-03-29T14:36:23.003Z</time></trkpt><trkpt lat="45.40925764353628" lon="9.259369029611063"><ele>98.0</ele><time>2026-03-29T14:36:24.003Z</time></trkpt><trkpt lat="45.40943572688464" lon="9.259145684523874"><ele>98.0</ele><time>2026-03-29T14:36:25.003Z</time></trkpt><trkpt lat="45.4096150227563" lon="9.258923246131092"><ele>100.0</ele><time>2026-03-29T14:36:26.003Z</time></trkpt><trkpt lat="45.409792596892366" lon="9.258700532693679"><ele>102.0</ele><time>2026-03-29T14:36:27.003Z</time></trkpt><trkpt lat="45.40997136590678" lon="9.258478065761"><ele>102.0</ele><time>2026-03-29T14:36:28.003Z</time></trkpt><trkpt lat="45.41014564682194" lon="9.258260087426065"><ele>102.0</ele><time>2026-03-29T14:36:29.003Z</time></trkpt><trkpt lat="45.4103137697906" lon="9.258048203274598"><ele>102.0</ele><time>2026-03-29T14:36:30.003Z</time></trkpt><trkpt lat="45.4104847244226" lon="9.257833528175462"><ele>102.0</ele><time>2026-03-29T14:36:31.003Z</time></trkpt><trkpt lat="45.410655050462886" lon="9.257612681700747"><ele>102.0</ele><time>2026-03-29T14:36:32.003Z</time></trkpt><trkpt lat="45.410828777020015" lon="9.257392772183678"><ele>102.0</ele><time>2026-03-29T14:36:33.003Z</time></trkpt><trkpt lat="45.41100732850535" lon="9.257162045090306"><ele>101.5</ele><time>2026-03-29T14:36:34.003Z</time></trkpt><trkpt lat="45.41117788436699" lon="9.256941600196862"><ele>101.0</ele><time>2026-03-29T14:36:35.003Z</time></trkpt><trkpt lat="45.41135442704695" lon="9.256722393667488"><ele>101.0</ele><time>2026-03-29T14:36:36.003Z</time></trkpt><trkpt lat="45.41153312662901" lon="9.25649854955047"><ele>101.0</ele><time>2026-03-29T14:36:36.999Z</time></trkpt><trkpt lat="45.41171181597489" lon="9.256280010842072"><ele>100.5</ele><time>2026-03-29T14:36:37.999Z</time></trkpt><trkpt lat="45.41188812675907" lon="9.25606078971165"><ele>100.0</ele><time>2026-03-29T14:36:38.999Z</time></trkpt><trkpt lat="45.41206569132873" lon="9.255833701950541"><ele>100.0</ele><time>2026-03-29T14:36:39.999Z</time></trkpt><trkpt lat="45.41224580376776" lon="9.255606290988803"><ele>100.0</ele><time>2026-03-29T14:36:40.999Z</time></trkpt><trkpt lat="45.41242836257036" lon="9.255378043605212"><ele>100.0</ele><time>2026-03-29T14:36:41.999Z</time></trkpt><trkpt lat="45.41261060663409" lon="9.255149582798612"><ele>100.0</ele><time>2026-03-29T14:36:42.999Z</time></trkpt><trkpt lat="45.412791977614894" lon="9.254917357657758"><ele>100.5</ele><time>2026-03-29T14:36:43.999Z</time></trkpt><trkpt lat="45.41297703973106" lon="9.254679110429649"><ele>101.0</ele><time>2026-03-29T14:36:45Z</time></trkpt><trkpt lat="45.413163746853655" lon="9.25443213308397"><ele>101.0</ele><time>2026-03-29T14:36:46Z</time></trkpt><trkpt lat="45.413349351157066" lon="9.254186847843064"><ele>101.0</ele><time>2026-03-29T14:36:47Z</time></trkpt><trkpt lat="45.41352858297839" lon="9.253949417004977"><ele>102.0</ele><time>2026-03-29T14:36:48Z</time></trkpt><trkpt lat="45.41370484046505" lon="9.253717528421424"><ele>103.0</ele><time>2026-03-29T14:36:49Z</time></trkpt><trkpt lat="45.41388145599344" lon="9.253482416391664"><ele>103.0</ele><time>2026-03-29T14:36:50Z</time></trkpt><trkpt lat="45.414060680545596" lon="9.25323790761506"><ele>103.0</ele><time>2026-03-29T14:36:51Z</time></trkpt><trkpt lat="45.41423646764719" lon="9.252989442010508"><ele>104.5</ele><time>2026-03-29T14:36:52Z</time></trkpt><trkpt lat="45.41441300236522" lon="9.252736722695323"><ele>106.0</ele><time>2026-03-29T14:36:53Z</time></trkpt><trkpt lat="45.41458584256557" lon="9.252486270394506"><ele>102.5</ele><time>2026-03-29T14:36:54Z</time></trkpt><trkpt lat="45.41475851837697" lon="9.25223285451231"><ele>99.0</ele><time>2026-03-29T14:36:55Z</time></trkpt><trkpt lat="45.41492844766139" lon="9.251977755763637"><ele>99.0</ele><time>2026-03-29T14:36:56Z</time></trkpt><trkpt lat="45.41510155629321" lon="9.251720163392697"><ele>99.0</ele><time>2026-03-29T14:36:57Z</time></trkpt><trkpt lat="45.415275514429716" lon="9.251462696848467"><ele>99.0</ele><time>2026-03-29T14:36:58Z</time></trkpt><trkpt lat="45.415448485780225" lon="9.251205712507433"><ele>99.0</ele><time>2026-03-29T14:36:59Z</time></trkpt><trkpt lat="45.41562179826377" lon="9.250949125089384"><ele>99.5</ele><time>2026-03-29T14:37:00Z</time></trkpt><trkpt lat="45.41579680950952" lon="9.25069869147869"><ele>100.0</ele><time>2026-03-29T14:37:01Z</time></trkpt><trkpt lat="45.4159724120225" lon="9.250447022435726"><ele>101.5</ele><time>2026-03-29T14:37:02Z</time></trkpt><trkpt lat="45.41614349844798" lon="9.250196813630737"><ele>103.0</ele><time>2026-03-29T14:37:03Z</time></trkpt><trkpt lat="45.41631037943462" lon="9.249949038978796"><ele>102.5</ele><time>2026-03-29T14:37:04Z</time></trkpt><trkpt lat="45.41647962465645" lon="9.24969676378234"><ele>102.0</ele><time>2026-03-29T14:37:05Z</time></trkpt><trkpt lat="45.416644724949954" lon="9.249446244500232"><ele>102.0</ele><time>2026-03-29T14:37:06Z</time></trkpt><trkpt lat="45.416812305724704" lon="9.249191375710001"><ele>102.0</ele><time>2026-03-29T14:37:07Z</time></trkpt><trkpt lat="45.41698343503154" lon="9.248930006571056"><ele>100.0</ele><time>2026-03-29T14:37:08Z</time></trkpt><trkpt lat="45.41715649556251" lon="9.248672055823032"><ele>98.0</ele><time>2026-03-29T14:37:09Z</time></trkpt><trkpt lat="45.41733382127498" lon="9.248420406765"><ele>98.0</ele><time>2026-03-29T14:37:10Z</time></trkpt><trkpt lat="45.41751739242256" lon="9.248176107229167"><ele>98.0</ele><time>2026-03-29T14:37:11Z</time></trkpt><trkpt lat="45.41770541114396" lon="9.247938918030789"><ele>99.0</ele><time>2026-03-29T14:37:12.001Z</time></trkpt><trkpt lat="45.41789967844247" lon="9.247712535932006"><ele>100.0</ele><time>2026-03-29T14:37:13.001Z</time></trkpt><trkpt lat="45.41810217177013" lon="9.247499860298754"><ele>100.5</ele><time>2026-03-29T14:37:14.001Z</time></trkpt><trkpt lat="45.418310829800404" lon="9.247296764582739"><ele>101.0</ele><time>2026-03-29T14:37:15.001Z</time></trkpt><trkpt lat="45.41852397964601" lon="9.247108569624533"><ele>101.0</ele><time>2026-03-29T14:37:16.001Z</time></trkpt><trkpt lat="45.41874561182314" lon="9.24693778589779"><ele>101.0</ele><time>2026-03-29T14:37:17.001Z</time></trkpt><trkpt lat="45.418971507771" lon="9.246785917965743"><ele>103.0</ele><time>2026-03-29T14:37:18.001Z</time></trkpt><trkpt lat="45.419204704291175" lon="9.246643923495396"><ele>105.0</ele><time>2026-03-29T14:37:19.001Z</time></trkpt><trkpt lat="45.419438288635774" lon="9.246512707611114"><ele>105.0</ele><time>2026-03-29T14:37:20.001Z</time></trkpt><trkpt lat="45.419680546896224" lon="9.246402933287982"><ele>105.0</ele><time>2026-03-29T14:37:21.001Z</time></trkpt><trkpt lat="45.41992177400953" lon="9.24631065384802"><ele>105.0</ele><time>2026-03-29T14:37:22.001Z</time></trkpt><trkpt lat="45.420171273561614" lon="9.246237321526504"><ele>105.0</ele><time>2026-03-29T14:37:23.001Z</time></trkpt><trkpt lat="45.42042666268902" lon="9.246178831007187"><ele>106.0</ele><time>2026-03-29T14:37:24.001Z</time></trkpt><trkpt lat="45.42067563935253" lon="9.246131255503881"><ele>107.0</ele><time>2026-03-29T14:37:25.001Z</time></trkpt><trkpt lat="45.4209221543583" lon="9.246093817960654"><ele>107.0</ele><time>2026-03-29T14:37:26.001Z</time></trkpt><trkpt lat="45.42117172450452" lon="9.246061259732109"><ele>107.0</ele><time>2026-03-29T14:37:27.001Z</time></trkpt><trkpt lat="45.42141486536233" lon="9.246030489797807"><ele>107.0</ele><time>2026-03-29T14:37:28.001Z</time></trkpt><trkpt lat="45.42165123604727" lon="9.246003814778042"><ele>107.0</ele><time>2026-03-29T14:37:29.001Z</time></trkpt><trkpt lat="45.4218937802316" lon="9.245970863258107"><ele>107.0</ele><time>2026-03-29T14:37:30.001Z</time></trkpt><trkpt lat="45.422130848179386" lon="9.245936003263752"><ele>107.0</ele><time>2026-03-29T14:37:31.001Z</time></trkpt><trkpt lat="45.42236844906031" lon="9.245902739839254"><ele>106.0</ele><time>2026-03-29T14:37:32.001Z</time></trkpt><trkpt lat="45.42260478482391" lon="9.245873809450238"><ele>105.0</ele><time>2026-03-29T14:37:33.001Z</time></trkpt><trkpt lat="45.422839874926865" lon="9.245845466431021"><ele>104.0</ele><time>2026-03-29T14:37:34.001Z</time></trkpt><trkpt lat="45.42307462804969" lon="9.245818379140157"><ele>103.0</ele><time>2026-03-29T14:37:35.001Z</time></trkpt><trkpt lat="45.423309024045565" lon="9.245790341308158"><ele>103.0</ele><time>2026-03-29T14:37:36.001Z</time></trkpt><trkpt lat="45.42354717475533" lon="9.245760541060806"><ele>103.0</ele><time>2026-03-29T14:37:37.001Z</time></trkpt><trkpt lat="45.42377788046469" lon="9.245734869468377"><ele>102.5</ele><time>2026-03-29T14:37:38.001Z</time></trkpt><trkpt lat="45.424011862133874" lon="9.245707985904696"><ele>102.0</ele><time>2026-03-29T14:37:39.001Z</time></trkpt><trkpt lat="45.42424066593089" lon="9.245681015549073"><ele>102.0</ele><time>2026-03-29T14:37:40.001Z</time></trkpt><trkpt lat="45.424472333866" lon="9.24565636142709"><ele>102.0</ele><time>2026-03-29T14:37:41.001Z</time></trkpt><trkpt lat="45.424696538834155" lon="9.24563204600143"><ele>102.66666666666666</ele><time>2026-03-29T14:37:42.001Z</time></trkpt><trkpt lat="45.42491947452839" lon="9.245608182409153"><ele>103.33333333333333</ele><time>2026-03-29T14:37:43.002Z</time></trkpt><trkpt lat="45.42513812439918" lon="9.24559598126501"><ele>104.0</ele><time>2026-03-29T14:37:44.002Z</time></trkpt><trkpt lat="45.42535181750744" lon="9.245595098944339"><ele>104.0</ele><time>2026-03-29T14:37:45.002Z</time></trkpt><trkpt lat="45.425564328644256" lon="9.245609718821628"><ele>104.0</ele><time>2026-03-29T14:37:46.002Z</time></trkpt><trkpt lat="45.42577194727237" lon="9.245644670387795"><ele>104.0</ele><time>2026-03-29T14:37:47.002Z</time></trkpt><trkpt lat="45.42597619402831" lon="9.245694309177866"><ele>104.0</ele><time>2026-03-29T14:37:48.002Z</time></trkpt><trkpt lat="45.42617557326384" lon="9.245760904491164"><ele>104.0</ele><time>2026-03-29T14:37:49.002Z</time></trkpt><trkpt lat="45.42636960619346" lon="9.245837171702469"><ele>104.0</ele><time>2026-03-29T14:37:50.002Z</time></trkpt><trkpt lat="45.42656334002839" lon="9.245919690559885"><ele>103.0</ele><time>2026-03-29T14:37:51.002Z</time></trkpt><trkpt lat="45.42675298590636" lon="9.246012281438787"><ele>102.0</ele><time>2026-03-29T14:37:52.002Z</time></trkpt><trkpt lat="45.426940655966696" lon="9.246115787659669"><ele>101.0</ele><time>2026-03-29T14:37:53.002Z</time></trkpt><trkpt lat="45.427124518547075" lon="9.24622859935038"><ele>102.0</ele><time>2026-03-29T14:37:54.002Z</time></trkpt><trkpt lat="45.42730259934573" lon="9.246353357778428"><ele>103.0</ele><time>2026-03-29T14:37:55.002Z</time></trkpt><trkpt lat="45.42747744872875" lon="9.246492940004462"><ele>104.0</ele><time>2026-03-29T14:37:56.002Z</time></trkpt><trkpt lat="45.427651069570445" lon="9.246640249805477"><ele>104.66666666666666</ele><time>2026-03-29T14:37:57.002Z</time></trkpt><trkpt lat="45.42782143597386" lon="9.246801367659414"><ele>105.33333333333334</ele><time>2026-03-29T14:37:58.002Z</time></trkpt><trkpt lat="45.42799270550815" lon="9.246975011953403"><ele>106.0</ele><time>2026-03-29T14:37:59.002Z</time></trkpt><trkpt lat="45.42816061759095" lon="9.24716579679411"><ele>107.66666666666667</ele><time>2026-03-29T14:38:00.002Z</time></trkpt><trkpt lat="45.42831911974729" lon="9.247367498496343"><ele>109.33333333333334</ele><time>2026-03-29T14:38:01.002Z</time></trkpt><trkpt lat="45.42846334807634" lon="9.247562917220638"><ele>111.0</ele><time>2026-03-29T14:38:02.002Z</time></trkpt><trkpt lat="45.42860326432349" lon="9.247767777474127"><ele>111.0</ele><time>2026-03-29T14:38:03.002Z</time></trkpt><trkpt lat="45.428734994686224" lon="9.247976294048577"><ele>111.0</ele><time>2026-03-29T14:38:04.002Z</time></trkpt><trkpt lat="45.42887130277312" lon="9.248192146930156"><ele>111.0</ele><time>2026-03-29T14:38:05.002Z</time></trkpt><trkpt lat="45.42900675659427" lon="9.24841798280583"><ele>110.66666666666666</ele><time>2026-03-29T14:38:06.002Z</time></trkpt><trkpt lat="45.42914206716401" lon="9.248640737005267"><ele>110.33333333333333</ele><time>2026-03-29T14:38:07.002Z</time></trkpt><trkpt lat="45.42928060563248" lon="9.248866190418301"><ele>110.0</ele><time>2026-03-29T14:38:08.002Z</time></trkpt><trkpt lat="45.429418313120784" lon="9.24909139706336"><ele>109.33333333333333</ele><time>2026-03-29T14:38:09.002Z</time></trkpt><trkpt lat="45.42955987625913" lon="9.249314711353003"><ele>108.66666666666666</ele><time>2026-03-29T14:38:10.002Z</time></trkpt><trkpt lat="45.42971366457428" lon="9.249545893146284"><ele>108.0</ele><time>2026-03-29T14:38:11.002Z</time></trkpt><trkpt lat="45.429886478343384" lon="9.249807362194172"><ele>107.5</ele><time>2026-03-29T14:38:12.002Z</time></trkpt><trkpt lat="45.43006352920697" lon="9.250087823185657"><ele>107.0</ele><time>2026-03-29T14:38:13.002Z</time></trkpt><trkpt lat="45.43025036842917" lon="9.250384456975286"><ele>106.5</ele><time>2026-03-29T14:38:14.002Z</time></trkpt><trkpt lat="45.43043996016115" lon="9.250683488520917"><ele>106.0</ele><time>2026-03-29T14:38:15.002Z</time></trkpt><trkpt lat="45.43062465490762" lon="9.250979370118332"><ele>106.0</ele><time>2026-03-29T14:38:16.003Z</time></trkpt><trkpt lat="45.430807402533084" lon="9.251267206527857"><ele>106.0</ele><time>2026-03-29T14:38:17.003Z</time></trkpt><trkpt lat="45.43098962033731" lon="9.251552893010413"><ele>106.0</ele><time>2026-03-29T14:38:18.003Z</time></trkpt><trkpt lat="45.431171420506026" lon="9.25182171729443"><ele>106.0</ele><time>2026-03-29T14:38:19.003Z</time></trkpt><trkpt lat="45.43135507886899" lon="9.252079608548296"><ele>105.0</ele><time>2026-03-29T14:38:20.003Z</time></trkpt><trkpt lat="45.43154527622559" lon="9.25233553627104"><ele>104.0</ele><time>2026-03-29T14:38:21.003Z</time></trkpt><trkpt lat="45.431740151008896" lon="9.252587130284441"><ele>104.0</ele><time>2026-03-29T14:38:22.003Z</time></trkpt><trkpt lat="45.43194101200981" lon="9.252832156584043"><ele>104.0</ele><time>2026-03-29T14:38:23.003Z</time></trkpt><trkpt lat="45.43214459784911" lon="9.253066444025396"><ele>103.0</ele><time>2026-03-29T14:38:24.003Z</time></trkpt><trkpt lat="45.43235053609428" lon="9.253292260687314"><ele>102.0</ele><time>2026-03-29T14:38:25.003Z</time></trkpt><trkpt lat="45.43255132130904" lon="9.253503531465544"><ele>102.0</ele><time>2026-03-29T14:38:26.003Z</time></trkpt><trkpt lat="45.432759490314844" lon="9.253713173787132"><ele>102.0</ele><time>2026-03-29T14:38:27.003Z</time></trkpt><trkpt lat="45.43297190608811" lon="9.253913530056138"><ele>104.5</ele><time>2026-03-29T14:38:28.003Z</time></trkpt><trkpt lat="45.43319127761318" lon="9.254109234501843"><ele>107.0</ele><time>2026-03-29T14:38:29.003Z</time></trkpt><trkpt lat="45.43340710361875" lon="9.254300966756862"><ele>107.0</ele><time>2026-03-29T14:38:30.003Z</time></trkpt><trkpt lat="45.43363351408861" lon="9.2544873363259"><ele>107.0</ele><time>2026-03-29T14:38:31.003Z</time></trkpt><trkpt lat="45.43385102948865" lon="9.254659376702103"><ele>107.0</ele><time>2026-03-29T14:38:32.003Z</time></trkpt><trkpt lat="45.43406502455383" lon="9.254817731050771"><ele>107.0</ele><time>2026-03-29T14:38:33.003Z</time></trkpt><trkpt lat="45.434279226033105" lon="9.254966887023812"><ele>107.0</ele><time>2026-03-29T14:38:34.003Z</time></trkpt><trkpt lat="45.43449530423284" lon="9.255110553389956"><ele>107.0</ele><time>2026-03-29T14:38:35.003Z</time></trkpt><trkpt lat="45.43470508379882" lon="9.255242277302498"><ele>106.5</ele><time>2026-03-29T14:38:36.003Z</time></trkpt><trkpt lat="45.43491975808086" lon="9.255373286326508"><ele>106.0</ele><time>2026-03-29T14:38:37.003Z</time></trkpt><trkpt lat="45.435132221946915" lon="9.255496890946066"><ele>106.0</ele><time>2026-03-29T14:38:38.003Z</time></trkpt><trkpt lat="45.43534474742611" lon="9.255611158993503"><ele>106.0</ele><time>2026-03-29T14:38:39.003Z</time></trkpt><trkpt lat="45.4355481668689" lon="9.255716867867148"><ele>106.0</ele><time>2026-03-29T14:38:40.003Z</time></trkpt><trkpt lat="45.43577707017821" lon="9.255828057290902"><ele>107.0</ele><time>2026-03-29T14:38:41.003Z</time></trkpt><trkpt lat="45.435993030315146" lon="9.255910356066844"><ele>108.0</ele><time>2026-03-29T14:38:42.003Z</time></trkpt><trkpt lat="45.436211800546495" lon="9.25599850766989"><ele>107.0</ele><time>2026-03-29T14:38:43Z</time></trkpt><trkpt lat="45.43642678983454" lon="9.256084493356015"><ele>106.0</ele><time>2026-03-29T14:38:44Z</time></trkpt><trkpt lat="45.43664775611583" lon="9.256166552750152"><ele>106.0</ele><time>2026-03-29T14:38:45Z</time></trkpt><trkpt lat="45.43686751114032" lon="9.25624241282504"><ele>106.0</ele><time>2026-03-29T14:38:46Z</time></trkpt><trkpt lat="45.437095058899935" lon="9.256315799131235"><ele>107.0</ele><time>2026-03-29T14:38:47Z</time></trkpt><trkpt lat="45.437322230175" lon="9.2563874111274"><ele>108.0</ele><time>2026-03-29T14:38:48Z</time></trkpt><trkpt lat="45.437554510867876" lon="9.256455024772151"><ele>106.66666666666666</ele><time>2026-03-29T14:38:49Z</time></trkpt><trkpt lat="45.43777912542571" lon="9.256525448243023"><ele>105.33333333333333</ele><time>2026-03-29T14:38:50Z</time></trkpt><trkpt lat="45.437994562793314" lon="9.256585001421907"><ele>104.0</ele><time>2026-03-29T14:38:51Z</time></trkpt><trkpt lat="45.43820253999342" lon="9.256639023513154"><ele>104.0</ele><time>2026-03-29T14:38:52Z</time></trkpt><trkpt lat="45.43841376421558" lon="9.256697121678652"><ele>104.0</ele><time>2026-03-29T14:38:53Z</time></trkpt><trkpt lat="45.43862879262186" lon="9.256757515015215"><ele>104.0</ele><time>2026-03-29T14:38:54Z</time></trkpt><trkpt lat="45.43884260966093" lon="9.256818488068994"><ele>104.0</ele><time>2026-03-29T14:38:55Z</time></trkpt><trkpt lat="45.43905836973686" lon="9.256880777800927"><ele>104.0</ele><time>2026-03-29T14:38:56Z</time></trkpt><trkpt lat="45.43927487406241" lon="9.256942548932832"><ele>104.0</ele><time>2026-03-29T14:38:57Z</time></trkpt><trkpt lat="45.43949420141771" lon="9.257002773736474"><ele>104.5</ele><time>2026-03-29T14:38:58Z</time></trkpt><trkpt lat="45.439714625259306" lon="9.257065678417598"><ele>105.0</ele><time>2026-03-29T14:38:59Z</time></trkpt><trkpt lat="45.43993868139462" lon="9.257130812049827"><ele>105.0</ele><time>2026-03-29T14:39:00Z</time></trkpt><trkpt lat="45.44016552008145" lon="9.25719827671372"><ele>105.0</ele><time>2026-03-29T14:39:01Z</time></trkpt><trkpt lat="45.44040315509466" lon="9.25726888362274"><ele>104.0</ele><time>2026-03-29T14:39:02Z</time></trkpt><trkpt lat="45.44064106062166" lon="9.257339408172877"><ele>103.0</ele><time>2026-03-29T14:39:03Z</time></trkpt><trkpt lat="45.44088781471231" lon="9.257409272300807"><ele>103.0</ele><time>2026-03-29T14:39:04Z</time></trkpt><trkpt lat="45.44113199359098" lon="9.257477289138194"><ele>103.0</ele><time>2026-03-29T14:39:05Z</time></trkpt><trkpt lat="45.441375954235816" lon="9.257547121081444"><ele>100.5</ele><time>2026-03-29T14:39:06Z</time></trkpt><trkpt lat="45.44162021439846" lon="9.257617094749397"><ele>98.0</ele><time>2026-03-29T14:39:07Z</time></trkpt><trkpt lat="45.44186556294585" lon="9.257687184652559"><ele>98.0</ele><time>2026-03-29T14:39:08Z</time></trkpt><trkpt lat="45.44210700994589" lon="9.25775609928536"><ele>98.0</ele><time>2026-03-29T14:39:09Z</time></trkpt><trkpt lat="45.442345888878236" lon="9.257824120691478"><ele>101.0</ele><time>2026-03-29T14:39:10Z</time></trkpt><trkpt lat="45.44258649169591" lon="9.257889047532272"><ele>104.0</ele><time>2026-03-29T14:39:11Z</time></trkpt><trkpt lat="45.44281479681958" lon="9.257954781773925"><ele>100.5</ele><time>2026-03-29T14:39:12Z</time></trkpt><trkpt lat="45.44304056011662" lon="9.25802113716117"><ele>97.0</ele><time>2026-03-29T14:39:13Z</time></trkpt><trkpt lat="45.44326463801557" lon="9.258087316251496"><ele>99.0</ele><time>2026-03-29T14:39:14Z</time></trkpt><trkpt lat="45.443483193977094" lon="9.258148681773143"><ele>101.0</ele><time>2026-03-29T14:39:15Z</time></trkpt><trkpt lat="45.44370777830316" lon="9.258211694920895"><ele>98.0</ele><time>2026-03-29T14:39:16.001Z</time></trkpt><trkpt lat="45.4439257820436" lon="9.25827411291245"><ele>95.0</ele><time>2026-03-29T14:39:17.001Z</time></trkpt><trkpt lat="45.444145287649086" lon="9.258337050075543"><ele>92.0</ele><time>2026-03-29T14:39:18.001Z</time></trkpt><trkpt lat="45.44436410040237" lon="9.258395454686221"><ele>92.0</ele><time>2026-03-29T14:39:19.001Z</time></trkpt><trkpt lat="45.44457598995211" lon="9.258451186970897"><ele>92.0</ele><time>2026-03-29T14:39:20.001Z</time></trkpt><trkpt lat="45.444793975018634" lon="9.2585121945103"><ele>92.0</ele><time>2026-03-29T14:39:21.001Z</time></trkpt><trkpt lat="45.44502262954136" lon="9.258575062347123"><ele>91.5</ele><time>2026-03-29T14:39:22.001Z</time></trkpt><trkpt lat="45.44526336437637" lon="9.258638630811808"><ele>91.0</ele><time>2026-03-29T14:39:23.001Z</time></trkpt><trkpt lat="45.4455175295986" lon="9.258711410726171"><ele>96.0</ele><time>2026-03-29T14:39:24.001Z</time></trkpt><trkpt lat="45.445767966604706" lon="9.258787805465785"><ele>101.0</ele><time>2026-03-29T14:39:25.001Z</time></trkpt><trkpt lat="45.44600087883383" lon="9.258857190488003"><ele>101.0</ele><time>2026-03-29T14:39:26.001Z</time></trkpt><trkpt lat="45.44622221250635" lon="9.258919435947414"><ele>101.0</ele><time>2026-03-29T14:39:27.001Z</time></trkpt><trkpt lat="45.446448878547784" lon="9.258980026780968"><ele>103.5</ele><time>2026-03-29T14:39:28.001Z</time></trkpt><trkpt lat="45.44668595857838" lon="9.25903250257347"><ele>106.0</ele><time>2026-03-29T14:39:29.001Z</time></trkpt><trkpt lat="45.446927506785144" lon="9.259072960479637"><ele>107.0</ele><time>2026-03-29T14:39:30.001Z</time></trkpt><trkpt lat="45.44717562560787" lon="9.259096234399967"><ele>108.0</ele><time>2026-03-29T14:39:31.001Z</time></trkpt><trkpt lat="45.44742164879247" lon="9.259102354457617"><ele>108.0</ele><time>2026-03-29T14:39:32.001Z</time></trkpt><trkpt lat="45.447654856408896" lon="9.259102577017423"><ele>108.0</ele><time>2026-03-29T14:39:33.001Z</time></trkpt><trkpt lat="45.44788105154094" lon="9.259090484035946"><ele>106.5</ele><time>2026-03-29T14:39:34.001Z</time></trkpt><trkpt lat="45.4481082455346" lon="9.259069704115806"><ele>105.0</ele><time>2026-03-29T14:39:35.001Z</time></trkpt><trkpt lat="45.44833215334996" lon="9.259032383724882"><ele>105.0</ele><time>2026-03-29T14:39:36.001Z</time></trkpt><trkpt lat="45.44856273915559" lon="9.258982376194512"><ele>105.0</ele><time>2026-03-29T14:39:37.001Z</time></trkpt><trkpt lat="45.448795700971225" lon="9.258919978710708"><ele>107.0</ele><time>2026-03-29T14:39:38.001Z</time></trkpt><trkpt lat="45.44902984109354" lon="9.25884277738718"><ele>109.0</ele><time>2026-03-29T14:39:39.001Z</time></trkpt><trkpt lat="45.449262222503194" lon="9.258755751000793"><ele>109.0</ele><time>2026-03-29T14:39:40.001Z</time></trkpt><trkpt lat="45.44949440396197" lon="9.25866239363008"><ele>109.0</ele><time>2026-03-29T14:39:41.001Z</time></trkpt><trkpt lat="45.449722883073605" lon="9.258561249902586"><ele>110.5</ele><time>2026-03-29T14:39:42.001Z</time></trkpt><trkpt lat="45.44994893966894" lon="9.258447089081075"><ele>112.0</ele><time>2026-03-29T14:39:43.001Z</time></trkpt><trkpt lat="45.450167739947744" lon="9.258318706992931"><ele>112.0</ele><time>2026-03-29T14:39:44.001Z</time></trkpt><trkpt lat="45.45038364592926" lon="9.258182019802565"><ele>112.0</ele><time>2026-03-29T14:39:45.001Z</time></trkpt><trkpt lat="45.450593790102836" lon="9.25803688474718"><ele>112.0</ele><time>2026-03-29T14:39:46.001Z</time></trkpt><trkpt lat="45.450801649958024" lon="9.257886834941159"><ele>112.0</ele><time>2026-03-29T14:39:47.001Z</time></trkpt><trkpt lat="45.45100881075872" lon="9.257730521993828"><ele>112.0</ele><time>2026-03-29T14:39:48.001Z</time></trkpt><trkpt lat="45.45121375551362" lon="9.257561923943069"><ele>112.0</ele><time>2026-03-29T14:39:49.002Z</time></trkpt><trkpt lat="45.451421946101895" lon="9.257387342946167"><ele>111.5</ele><time>2026-03-29T14:39:50.002Z</time></trkpt><trkpt lat="45.45162849230749" lon="9.257210719529832"><ele>111.0</ele><time>2026-03-29T14:39:51.002Z</time></trkpt><trkpt lat="45.451834930820205" lon="9.257033968338147"><ele>111.0</ele><time>2026-03-29T14:39:52.002Z</time></trkpt><trkpt lat="45.45203920189325" lon="9.2568601257533"><ele>111.0</ele><time>2026-03-29T14:39:53.002Z</time></trkpt><trkpt lat="45.45223802443703" lon="9.256692267095337"><ele>110.5</ele><time>2026-03-29T14:39:54.002Z</time></trkpt><trkpt lat="45.452435190376576" lon="9.256526349681623"><ele>110.0</ele><time>2026-03-29T14:39:55.002Z</time></trkpt><trkpt lat="45.452629128747816" lon="9.256361731940226"><ele>110.0</ele><time>2026-03-29T14:39:56.002Z</time></trkpt><trkpt lat="45.45282085607728" lon="9.256198172781742"><ele>110.0</ele><time>2026-03-29T14:39:57.002Z</time></trkpt><trkpt lat="45.45300667004071" lon="9.256035732096638"><ele>110.0</ele><time>2026-03-29T14:39:58.002Z</time></trkpt><trkpt lat="45.45319747868568" lon="9.255873672366812"><ele>110.0</ele><time>2026-03-29T14:39:59.002Z</time></trkpt><trkpt lat="45.45338802117361" lon="9.255716768986304"><ele>110.0</ele><time>2026-03-29T14:40:00.002Z</time></trkpt><trkpt lat="45.45357623394916" lon="9.255557070988242"><ele>110.0</ele><time>2026-03-29T14:40:01.002Z</time></trkpt><trkpt lat="45.453772144721114" lon="9.255383534903201"><ele>110.5</ele><time>2026-03-29T14:40:02.002Z</time></trkpt><trkpt lat="45.45397396624919" lon="9.255209270743524"><ele>111.0</ele><time>2026-03-29T14:40:03.002Z</time></trkpt><trkpt lat="45.454172885979695" lon="9.2550354159484"><ele>111.0</ele><time>2026-03-29T14:40:04.002Z</time></trkpt><trkpt lat="45.454372393448196" lon="9.25486584494887"><ele>111.0</ele><time>2026-03-29T14:40:05.002Z</time></trkpt><trkpt lat="45.45457719425593" lon="9.254695230575113"><ele>113.0</ele><time>2026-03-29T14:40:06.002Z</time></trkpt><trkpt lat="45.45478223409022" lon="9.254525179638105"><ele>115.0</ele><time>2026-03-29T14:40:07.002Z</time></trkpt><trkpt lat="45.45499026138064" lon="9.254351963373582"><ele>115.0</ele><time>2026-03-29T14:40:08.002Z</time></trkpt><trkpt lat="45.45519644372452" lon="9.254179599547657"><ele>115.0</ele><time>2026-03-29T14:40:09.002Z</time></trkpt><trkpt lat="45.45540457706842" lon="9.254007884634605"><ele>113.0</ele><time>2026-03-29T14:40:10.002Z</time></trkpt><trkpt lat="45.4556130894149" lon="9.253835833667805"><ele>111.0</ele><time>2026-03-29T14:40:11.002Z</time></trkpt><trkpt lat="45.45582023277474" lon="9.253666414295612"><ele>111.0</ele><time>2026-03-29T14:40:12.002Z</time></trkpt><trkpt lat="45.45603013792738" lon="9.253492703556383"><ele>111.0</ele><time>2026-03-29T14:40:13.002Z</time></trkpt><trkpt lat="45.456244019681066" lon="9.253318293782137"><ele>111.5</ele><time>2026-03-29T14:40:14.002Z</time></trkpt><trkpt lat="45.45645522002157" lon="9.253143609624106"><ele>112.0</ele><time>2026-03-29T14:40:15.002Z</time></trkpt><trkpt lat="45.45667192952333" lon="9.2529679020851"><ele>112.0</ele><time>2026-03-29T14:40:16.002Z</time></trkpt><trkpt lat="45.45689137079759" lon="9.252802557052147"><ele>112.0</ele><time>2026-03-29T14:40:17.002Z</time></trkpt><trkpt lat="45.457113703408105" lon="9.25264486819999"><ele>112.5</ele><time>2026-03-29T14:40:18.002Z</time></trkpt><trkpt lat="45.4573400605867" lon="9.252500706173699"><ele>113.0</ele><time>2026-03-29T14:40:19.002Z</time></trkpt><trkpt lat="45.45756741420806" lon="9.25237794157247"><ele>113.5</ele><time>2026-03-29T14:40:20.002Z</time></trkpt><trkpt lat="45.45779651467204" lon="9.252254357492946"><ele>114.0</ele><time>2026-03-29T14:40:21.002Z</time></trkpt><trkpt lat="45.458023354887516" lon="9.252134283412088"><ele>114.0</ele><time>2026-03-29T14:40:22.002Z</time></trkpt><trkpt lat="45.458255461754085" lon="9.252022147157556"><ele>114.0</ele><time>2026-03-29T14:40:23.002Z</time></trkpt><trkpt lat="45.458495304852505" lon="9.251918691678522"><ele>114.0</ele><time>2026-03-29T14:40:24.003Z</time></trkpt><trkpt lat="45.45872616676071" lon="9.251826629377137"><ele>114.0</ele><time>2026-03-29T14:40:25.003Z</time></trkpt><trkpt lat="45.458962083071775" lon="9.25174275563497"><ele>113.5</ele><time>2026-03-29T14:40:26.003Z</time></trkpt><trkpt lat="45.45920226255765" lon="9.251662015815908"><ele>113.0</ele><time>2026-03-29T14:40:27.003Z</time></trkpt><trkpt lat="45.45944586848231" lon="9.251595329029959"><ele>114.5</ele><time>2026-03-29T14:40:28.003Z</time></trkpt><trkpt lat="45.459687705390714" lon="9.251539409855187"><ele>116.0</ele><time>2026-03-29T14:40:29.003Z</time></trkpt><trkpt lat="45.459925892499705" lon="9.251492366497365"><ele>114.5</ele><time>2026-03-29T14:40:30.003Z</time></trkpt><trkpt lat="45.46017043935128" lon="9.251448023792538"><ele>113.0</ele><time>2026-03-29T14:40:31.003Z</time></trkpt><trkpt lat="45.46040685017032" lon="9.251417786050984"><ele>115.0</ele><time>2026-03-29T14:40:32.003Z</time></trkpt><trkpt lat="45.460642217322736" lon="9.25139623489613"><ele>117.0</ele><time>2026-03-29T14:40:33.003Z</time></trkpt><trkpt lat="45.46087247649492" lon="9.25138877018467"><ele>117.0</ele><time>2026-03-29T14:40:34.003Z</time></trkpt><trkpt lat="45.46110179804392" lon="9.251389396349465"><ele>117.0</ele><time>2026-03-29T14:40:35.003Z</time></trkpt><trkpt lat="45.46132988796182" lon="9.251399980947491"><ele>116.5</ele><time>2026-03-29T14:40:36.003Z</time></trkpt><trkpt lat="45.46155763539362" lon="9.25141784517352"><ele>116.0</ele><time>2026-03-29T14:40:37.003Z</time></trkpt><trkpt lat="45.46179043293965" lon="9.251445387427816"><ele>115.5</ele><time>2026-03-29T14:40:38.003Z</time></trkpt><trkpt lat="45.462023857926" lon="9.251478559577217"><ele>115.0</ele><time>2026-03-29T14:40:39.003Z</time></trkpt><trkpt lat="45.4622618768829" lon="9.251516358603032"><ele>113.0</ele><time>2026-03-29T14:40:40.003Z</time></trkpt><trkpt lat="45.46250432624406" lon="9.251562783563692"><ele>111.0</ele><time>2026-03-29T14:40:41.003Z</time></trkpt><trkpt lat="45.46274503217538" lon="9.25162054827948"><ele>109.5</ele><time>2026-03-29T14:40:42.003Z</time></trkpt><trkpt lat="45.46298055904301" lon="9.251686994068603"><ele>108.0</ele><time>2026-03-29T14:40:43.003Z</time></trkpt><trkpt lat="45.463205170425155" lon="9.251756651378146"><ele>108.0</ele><time>2026-03-29T14:40:44.003Z</time></trkpt><trkpt lat="45.46342766672868" lon="9.251821341007213"><ele>108.0</ele><time>2026-03-29T14:40:45.003Z</time></trkpt><trkpt lat="45.46365206024766" lon="9.25188645884928"><ele>108.5</ele><time>2026-03-29T14:40:46.003Z</time></trkpt><trkpt lat="45.46388082662356" lon="9.251951090750511"><ele>109.0</ele><time>2026-03-29T14:40:47.003Z</time></trkpt><trkpt lat="45.46411150058355" lon="9.252015377047332"><ele>109.0</ele><time>2026-03-29T14:40:48.003Z</time></trkpt><trkpt lat="45.464335459315166" lon="9.25207644512854"><ele>109.0</ele><time>2026-03-29T14:40:48.998Z</time></trkpt><trkpt lat="45.464555865164584" lon="9.252135850328951"><ele>110.33333333333334</ele><time>2026-03-29T14:40:49.998Z</time></trkpt><trkpt lat="45.46476674099743" lon="9.252188905961658"><ele>111.66666666666666</ele><time>2026-03-29T14:40:50.999Z</time></trkpt><trkpt lat="45.46497023496625" lon="9.25223016737144"><ele>113.0</ele><time>2026-03-29T14:40:51.999Z</time></trkpt><trkpt lat="45.465166268659765" lon="9.252263998660244"><ele>113.33333333333333</ele><time>2026-03-29T14:40:52.999Z</time></trkpt><trkpt lat="45.46535251468344" lon="9.252289828354165"><ele>113.66666666666666</ele><time>2026-03-29T14:40:53.999Z</time></trkpt><trkpt lat="45.465534427638346" lon="9.25230290308487"><ele>114.0</ele><time>2026-03-29T14:40:54.999Z</time></trkpt><trkpt lat="45.46572794860137" lon="9.252314537763144"><ele>114.0</ele><time>2026-03-29T14:40:55.999Z</time></trkpt><trkpt lat="45.465935584905814" lon="9.252326889704827"><ele>114.0</ele><time>2026-03-29T14:40:56.999Z</time></trkpt><trkpt lat="45.466142165763564" lon="9.252331128387672"><ele>114.0</ele><time>2026-03-29T14:40:57.999Z</time></trkpt><trkpt lat="45.46634710324396" lon="9.252325072710162"><ele>114.33333333333334</ele><time>2026-03-29T14:40:58.999Z</time></trkpt><trkpt lat="45.46655349108672" lon="9.252314244791089"><ele>114.66666666666667</ele><time>2026-03-29T14:40:59.999Z</time></trkpt><trkpt lat="45.466758126312705" lon="9.252301067293425"><ele>115.0</ele><time>2026-03-29T14:41:00.999Z</time></trkpt><trkpt lat="45.46696580551414" lon="9.252289498268595"><ele>115.0</ele><time>2026-03-29T14:41:01.999Z</time></trkpt><trkpt lat="45.46717028758315" lon="9.252278077885434"><ele>115.0</ele><time>2026-03-29T14:41:02.999Z</time></trkpt><trkpt lat="45.46737785438714" lon="9.252266509646633"><ele>115.0</ele><time>2026-03-29T14:41:03.999Z</time></trkpt><trkpt lat="45.46758263881493" lon="9.252252295175262"><ele>115.0</ele><time>2026-03-29T14:41:04.999Z</time></trkpt><trkpt lat="45.46777651968833" lon="9.252241082129657"><ele>115.0</ele><time>2026-03-29T14:41:05.999Z</time></trkpt><trkpt lat="45.467957616505686" lon="9.252230523498074"><ele>115.0</ele><time>2026-03-29T14:41:07Z</time></trkpt><trkpt lat="45.46813587925747" lon="9.252223531665082"><ele>115.0</ele><time>2026-03-29T14:41:08Z</time></trkpt><trkpt lat="45.46832290903648" lon="9.25221508033638"><ele>115.0</ele><time>2026-03-29T14:41:09Z</time></trkpt><trkpt lat="45.46850938795396" lon="9.25221419526978"><ele>115.0</ele><time>2026-03-29T14:41:10Z</time></trkpt><trkpt lat="45.46870416143759" lon="9.252211258839866"><ele>114.0</ele><time>2026-03-29T14:41:11Z</time></trkpt><trkpt lat="45.46889535522752" lon="9.252205589806243"><ele>113.0</ele><time>2026-03-29T14:41:12Z</time></trkpt><trkpt lat="45.46908684189283" lon="9.252200335641268"><ele>112.0</ele><time>2026-03-29T14:41:13Z</time></trkpt><trkpt lat="45.469281388831256" lon="9.25219761040641"><ele>112.0</ele><time>2026-03-29T14:41:14Z</time></trkpt><trkpt lat="45.46947631630546" lon="9.252201249206692"><ele>112.0</ele><time>2026-03-29T14:41:15Z</time></trkpt><trkpt lat="45.469679947289436" lon="9.252208390127425"><ele>112.0</ele><time>2026-03-29T14:41:16Z</time></trkpt><trkpt lat="45.46988351468401" lon="9.252219930959651"><ele>112.33333333333334</ele><time>2026-03-29T14:41:17Z</time></trkpt><trkpt lat="45.470081225993944" lon="9.252234479928497"><ele>112.66666666666666</ele><time>2026-03-29T14:41:18Z</time></trkpt><trkpt lat="45.470279601974156" lon="9.252250450901853"><ele>113.0</ele><time>2026-03-29T14:41:19Z</time></trkpt><trkpt lat="45.4704795006006" lon="9.252273029645837"><ele>114.0</ele><time>2026-03-29T14:41:20Z</time></trkpt><trkpt lat="45.470676848234895" lon="9.252296691231406"><ele>115.0</ele><time>2026-03-29T14:41:21Z</time></trkpt><trkpt lat="45.47087088553603" lon="9.252323315246638"><ele>116.0</ele><time>2026-03-29T14:41:22Z</time></trkpt><trkpt lat="45.47106346772115" lon="9.252353438715845"><ele>116.0</ele><time>2026-03-29T14:41:23Z</time></trkpt><trkpt lat="45.47125730408091" lon="9.25238055251832"><ele>116.0</ele><time>2026-03-29T14:41:24Z</time></trkpt><trkpt lat="45.47145130543649" lon="9.252412670935248"><ele>116.0</ele><time>2026-03-29T14:41:25Z</time></trkpt><trkpt lat="45.47164599297809" lon="9.252455985739513"><ele>116.33333333333333</ele><time>2026-03-29T14:41:26.001Z</time></trkpt><trkpt lat="45.471842828798806" lon="9.25250457844973"><ele>116.66666666666666</ele><time>2026-03-29T14:41:27.001Z</time></trkpt><trkpt lat="45.472043761493914" lon="9.252551600295947"><ele>117.0</ele><time>2026-03-29T14:41:28.001Z</time></trkpt><trkpt lat="45.47224656201466" lon="9.25260136840442"><ele>118.33333333333334</ele><time>2026-03-29T14:41:29.001Z</time></trkpt><trkpt lat="45.472445170012676" lon="9.252654688084068"><ele>119.66666666666667</ele><time>2026-03-29T14:41:30.001Z</time></trkpt><trkpt lat="45.472647599093115" lon="9.252710701651063"><ele>121.0</ele><time>2026-03-29T14:41:31.001Z</time></trkpt><trkpt lat="45.472848619626554" lon="9.252772305764267"><ele>120.33333333333334</ele><time>2026-03-29T14:41:32.001Z</time></trkpt><trkpt lat="45.47304659863604" lon="9.252839055362289"><ele>119.66666666666666</ele><time>2026-03-29T14:41:33.001Z</time></trkpt><trkpt lat="45.47324312403608" lon="9.252906818023117"><ele>119.0</ele><time>2026-03-29T14:41:34.001Z</time></trkpt><trkpt lat="45.47344759283882" lon="9.252971861798184"><ele>119.0</ele><time>2026-03-29T14:41:35.001Z</time></trkpt><trkpt lat="45.47364367305753" lon="9.253040557576862"><ele>119.0</ele><time>2026-03-29T14:41:36.001Z</time></trkpt><trkpt lat="45.473835628637" lon="9.253103914225637"><ele>119.0</ele><time>2026-03-29T14:41:37.001Z</time></trkpt><trkpt lat="45.474036391600336" lon="9.2531692999182"><ele>119.5</ele><time>2026-03-29T14:41:38.001Z</time></trkpt><trkpt lat="45.47424446267112" lon="9.253235295755195"><ele>120.0</ele><time>2026-03-29T14:41:39.001Z</time></trkpt><trkpt lat="45.474477813314095" lon="9.253299276599671"><ele>120.0</ele><time>2026-03-29T14:41:40.001Z</time></trkpt><trkpt lat="45.474729327407225" lon="9.25336697019829"><ele>120.0</ele><time>2026-03-29T14:41:41.001Z</time></trkpt><trkpt lat="45.474999635555555" lon="9.253447237453448"><ele>120.0</ele><time>2026-03-29T14:41:42.001Z</time></trkpt><trkpt lat="45.47527517471688" lon="9.253532587587133"><ele>120.0</ele><time>2026-03-29T14:41:43.001Z</time></trkpt><trkpt lat="45.47554966008424" lon="9.25360420908603"><ele>118.5</ele><time>2026-03-29T14:41:44.001Z</time></trkpt><trkpt lat="45.47581383701344" lon="9.253658028338732"><ele>117.0</ele><time>2026-03-29T14:41:45.001Z</time></trkpt><trkpt lat="45.476073391102354" lon="9.253691193599256"><ele>117.0</ele><time>2026-03-29T14:41:46.001Z</time></trkpt><trkpt lat="45.47634121277693" lon="9.253705879276309"><ele>117.0</ele><time>2026-03-29T14:41:47.001Z</time></trkpt><trkpt lat="45.47661620711031" lon="9.253699636569555"><ele>117.0</ele><time>2026-03-29T14:41:48.001Z</time></trkpt><trkpt lat="45.47688954488186" lon="9.253677326004514"><ele>117.0</ele><time>2026-03-29T14:41:49.001Z</time></trkpt><trkpt lat="45.47717178144901" lon="9.253631043804496"><ele>115.5</ele><time>2026-03-29T14:41:50.001Z</time></trkpt><trkpt lat="45.47745004358221" lon="9.253570996842653"><ele>114.0</ele><time>2026-03-29T14:41:51.001Z</time></trkpt><trkpt lat="45.477724822901756" lon="9.25349168468151"><ele>115.5</ele><time>2026-03-29T14:41:52.001Z</time></trkpt><trkpt lat="45.477991397875066" lon="9.253395466135581"><ele>117.0</ele><time>2026-03-29T14:41:53.001Z</time></trkpt><trkpt lat="45.47826286490276" lon="9.253282961192038"><ele>117.0</ele><time>2026-03-29T14:41:54.002Z</time></trkpt><trkpt lat="45.47852456712537" lon="9.253168239929318"><ele>117.0</ele><time>2026-03-29T14:41:55.002Z</time></trkpt><trkpt lat="45.4787866212238" lon="9.253051290696412"><ele>118.0</ele><time>2026-03-29T14:41:56.002Z</time></trkpt><trkpt lat="45.479043397803885" lon="9.252933848089143"><ele>119.0</ele><time>2026-03-29T14:41:57.002Z</time></trkpt><trkpt lat="45.47929385854361" lon="9.252820631165697"><ele>119.0</ele><time>2026-03-29T14:41:58.002Z</time></trkpt><trkpt lat="45.47952089743707" lon="9.252718202284855"><ele>119.0</ele><time>2026-03-29T14:41:59.002Z</time></trkpt><trkpt lat="45.47974296035615" lon="9.252617824933559"><ele>118.0</ele><time>2026-03-29T14:42:00.002Z</time></trkpt><trkpt lat="45.47996506808855" lon="9.252516011516438"><ele>117.0</ele><time>2026-03-29T14:42:01.002Z</time></trkpt><trkpt lat="45.480190288949956" lon="9.252413264777825"><ele>117.0</ele><time>2026-03-29T14:42:02.002Z</time></trkpt><trkpt lat="45.48041590910873" lon="9.25231157278037"><ele>117.0</ele><time>2026-03-29T14:42:03.002Z</time></trkpt><trkpt lat="45.48063855349291" lon="9.252212089428259"><ele>118.33333333333334</ele><time>2026-03-29T14:42:04.002Z</time></trkpt><trkpt lat="45.48084352827614" lon="9.252123391500092"><ele>119.66666666666667</ele><time>2026-03-29T14:42:05.002Z</time></trkpt><trkpt lat="45.48105141275578" lon="9.252036459535399"><ele>121.0</ele><time>2026-03-29T14:42:06.002Z</time></trkpt><trkpt lat="45.48125479254687" lon="9.251952835125893"><ele>121.0</ele><time>2026-03-29T14:42:07.002Z</time></trkpt><trkpt lat="45.481443601273355" lon="9.251876590975817"><ele>121.0</ele><time>2026-03-29T14:42:08.002Z</time></trkpt><trkpt lat="45.48163186126146" lon="9.251804131517266"><ele>121.0</ele><time>2026-03-29T14:42:09.002Z</time></trkpt><trkpt lat="45.48182179381575" lon="9.251723652623701"><ele>121.0</ele><time>2026-03-29T14:42:10.002Z</time></trkpt><trkpt lat="45.482009460529504" lon="9.251644205062076"><ele>121.0</ele><time>2026-03-29T14:42:11.002Z</time></trkpt><trkpt lat="45.48219666762596" lon="9.251568613077154"><ele>121.0</ele><time>2026-03-29T14:42:12.002Z</time></trkpt><trkpt lat="45.48239126311299" lon="9.251496374396428"><ele>120.66666666666667</ele><time>2026-03-29T14:42:13.002Z</time></trkpt><trkpt lat="45.48259504950315" lon="9.251428278694108"><ele>120.33333333333334</ele><time>2026-03-29T14:42:14.002Z</time></trkpt><trkpt lat="45.482786391857246" lon="9.251374949635125"><ele>120.0</ele><time>2026-03-29T14:42:15.002Z</time></trkpt><trkpt lat="45.48296976231572" lon="9.251328250686981"><ele>119.33333333333334</ele><time>2026-03-29T14:42:16.002Z</time></trkpt><trkpt lat="45.48315588914157" lon="9.251288378641062"><ele>118.66666666666667</ele><time>2026-03-29T14:42:17.002Z</time></trkpt><trkpt lat="45.48334463839822" lon="9.251255794656302"><ele>118.0</ele><time>2026-03-29T14:42:18.002Z</time></trkpt><trkpt lat="45.48354021222993" lon="9.251231537491659"><ele>118.0</ele><time>2026-03-29T14:42:19.002Z</time></trkpt><trkpt lat="45.483733040188234" lon="9.251218333085424"><ele>118.0</ele><time>2026-03-29T14:42:20.002Z</time></trkpt><trkpt lat="45.48392584396057" lon="9.251211805957142"><ele>118.0</ele><time>2026-03-29T14:42:21.002Z</time></trkpt><trkpt lat="45.484123846662015" lon="9.25120798164585"><ele>118.0</ele><time>2026-03-29T14:42:22.002Z</time></trkpt><trkpt lat="45.48431887537752" lon="9.251209235954091"><ele>118.0</ele><time>2026-03-29T14:42:23.002Z</time></trkpt><trkpt lat="45.484514259229435" lon="9.251216205391037"><ele>118.0</ele><time>2026-03-29T14:42:24.002Z</time></trkpt><trkpt lat="45.48470820503586" lon="9.251228177030182"><ele>118.0</ele><time>2026-03-29T14:42:25.002Z</time></trkpt><trkpt lat="45.484896112381726" lon="9.251250239393253"><ele>118.0</ele><time>2026-03-29T14:42:26.002Z</time></trkpt><trkpt lat="45.48508140631638" lon="9.251276212900738"><ele>118.0</ele><time>2026-03-29T14:42:27.003Z</time></trkpt><trkpt lat="45.48526051552912" lon="9.251304414117682"><ele>118.0</ele><time>2026-03-29T14:42:28.003Z</time></trkpt><trkpt lat="45.48544314413998" lon="9.251334286050481"><ele>118.0</ele><time>2026-03-29T14:42:29.003Z</time></trkpt><trkpt lat="45.485633620814795" lon="9.251363362117523"><ele>118.0</ele><time>2026-03-29T14:42:30.003Z</time></trkpt><trkpt lat="45.485834223608535" lon="9.251393868971476"><ele>118.0</ele><time>2026-03-29T14:42:31.003Z</time></trkpt><trkpt lat="45.486031923077476" lon="9.251423746779727"><ele>118.0</ele><time>2026-03-29T14:42:32.003Z</time></trkpt><trkpt lat="45.48623076714489" lon="9.251455354342438"><ele>118.0</ele><time>2026-03-29T14:42:33.003Z</time></trkpt><trkpt lat="45.48642792415153" lon="9.251483111261948"><ele>118.33333333333334</ele><time>2026-03-29T14:42:34.003Z</time></trkpt><trkpt lat="45.486630896458536" lon="9.251513097778458"><ele>118.66666666666666</ele><time>2026-03-29T14:42:35.003Z</time></trkpt><trkpt lat="45.486839811226616" lon="9.251545171651529"><ele>119.0</ele><time>2026-03-29T14:42:36.003Z</time></trkpt><trkpt lat="45.48705037297556" lon="9.251577962965444"><ele>118.66666666666666</ele><time>2026-03-29T14:42:37.003Z</time></trkpt><trkpt lat="45.48726395649879" lon="9.251606257625852"><ele>118.33333333333334</ele><time>2026-03-29T14:42:38.003Z</time></trkpt><trkpt lat="45.487478483989044" lon="9.251635215495625"><ele>118.0</ele><time>2026-03-29T14:42:39.003Z</time></trkpt><trkpt lat="45.48769317841882" lon="9.251666367589086"><ele>118.0</ele><time>2026-03-29T14:42:40.003Z</time></trkpt><trkpt lat="45.48790292672492" lon="9.251699868861461"><ele>118.0</ele><time>2026-03-29T14:42:41.003Z</time></trkpt><trkpt lat="45.488115438685234" lon="9.25173326503533"><ele>118.0</ele><time>2026-03-29T14:42:42.003Z</time></trkpt><trkpt lat="45.4883314559401" lon="9.251765758251585"><ele>118.33333333333334</ele><time>2026-03-29T14:42:43.003Z</time></trkpt><trkpt lat="45.488550197020565" lon="9.251796883263658"><ele>118.66666666666666</ele><time>2026-03-29T14:42:44.003Z</time></trkpt><trkpt lat="45.48877081749524" lon="9.251828159609815"><ele>119.0</ele><time>2026-03-29T14:42:45.003Z</time></trkpt><trkpt lat="45.488988451158676" lon="9.251860613486448"><ele>119.66666666666666</ele><time>2026-03-29T14:42:46.003Z</time></trkpt><trkpt lat="45.48920956321082" lon="9.251895877720045"><ele>120.33333333333334</ele><time>2026-03-29T14:42:47.003Z</time></trkpt><trkpt lat="45.48943337514828" lon="9.25193050739532"><ele>121.0</ele><time>2026-03-29T14:42:48.003Z</time></trkpt><trkpt lat="45.48965595734767" lon="9.251965123716653"><ele>121.0</ele><time>2026-03-29T14:42:49.003Z</time></trkpt><trkpt lat="45.48988560225239" lon="9.252004334299025"><ele>121.0</ele><time>2026-03-29T14:42:50.003Z</time></trkpt><trkpt lat="45.490116441803835" lon="9.252048157569972"><ele>121.0</ele><time>2026-03-29T14:42:51.003Z</time></trkpt><trkpt lat="45.49034019065421" lon="9.252090291102455"><ele>121.0</ele><time>2026-03-29T14:42:52.003Z</time></trkpt><trkpt lat="45.490551797963555" lon="9.252140120742608"><ele>121.0</ele><time>2026-03-29T14:42:53.003Z</time></trkpt><trkpt lat="45.49075926016069" lon="9.252195153940312"><ele>121.0</ele><time>2026-03-29T14:42:54.003Z</time></trkpt><trkpt lat="45.49097259390898" lon="9.252261665209156"><ele>121.0</ele><time>2026-03-29T14:42:54.999Z</time></trkpt><trkpt lat="45.49118808464606" lon="9.252338003949248"><ele>121.0</ele><time>2026-03-29T14:42:55.999Z</time></trkpt><trkpt lat="45.49140292889342" lon="9.252420444656046"><ele>122.33333333333334</ele><time>2026-03-29T14:42:56.999Z</time></trkpt><trkpt lat="45.491619534925924" lon="9.252509261875863"><ele>123.66666666666666</ele><time>2026-03-29T14:42:57.999Z</time></trkpt><trkpt lat="45.49183207021949" lon="9.252606283643193"><ele>125.0</ele><time>2026-03-29T14:42:58.999Z</time></trkpt><trkpt lat="45.49203918360547" lon="9.252708687417899"><ele>123.66666666666666</ele><time>2026-03-29T14:42:59.999Z</time></trkpt><trkpt lat="45.49223906810348" lon="9.252815178935375"><ele>122.33333333333334</ele><time>2026-03-29T14:43:00.999Z</time></trkpt><trkpt lat="45.492433040950836" lon="9.252927785908595"><ele>121.0</ele><time>2026-03-29T14:43:01.999Z</time></trkpt><trkpt lat="45.492633354190595" lon="9.253053470365431"><ele>121.0</ele><time>2026-03-29T14:43:02.999Z</time></trkpt><trkpt lat="45.49283184084264" lon="9.253185950256672"><ele>121.0</ele><time>2026-03-29T14:43:03.999Z</time></trkpt><trkpt lat="45.493029858330566" lon="9.25332099357585"><ele>121.0</ele><time>2026-03-29T14:43:04.999Z</time></trkpt><trkpt lat="45.49323127773413" lon="9.253458660565334"><ele>121.0</ele><time>2026-03-29T14:43:05.999Z</time></trkpt><trkpt lat="45.49342914044623" lon="9.2535949963985"><ele>121.0</ele><time>2026-03-29T14:43:06.999Z</time></trkpt><trkpt lat="45.49362868974085" lon="9.25372968887045"><ele>121.0</ele><time>2026-03-29T14:43:07.999Z</time></trkpt><trkpt lat="45.493820956439414" lon="9.253862222468706"><ele>120.66666666666667</ele><time>2026-03-29T14:43:08.999Z</time></trkpt><trkpt lat="45.49401719217399" lon="9.253996804428578"><ele>120.33333333333334</ele><time>2026-03-29T14:43:09.999Z</time></trkpt><trkpt lat="45.49421663345111" lon="9.254132934139799"><ele>120.0</ele><time>2026-03-29T14:43:10.999Z</time></trkpt><trkpt lat="45.49441056290284" lon="9.254268757957476"><ele>120.0</ele><time>2026-03-29T14:43:12Z</time></trkpt><trkpt lat="45.49460124553346" lon="9.25439746392011"><ele>120.0</ele><time>2026-03-29T14:43:13Z</time></trkpt><trkpt lat="45.494787660334666" lon="9.254525099572982"><ele>120.0</ele><time>2026-03-29T14:43:14Z</time></trkpt><trkpt lat="45.494978565944535" lon="9.254653546421734"><ele>120.0</ele><time>2026-03-29T14:43:15Z</time></trkpt><trkpt lat="45.49517176361513" lon="9.254778967455838"><ele>120.0</ele><time>2026-03-29T14:43:16Z</time></trkpt><trkpt lat="45.495365761931104" lon="9.254899768085213"><ele>120.0</ele><time>2026-03-29T14:43:17Z</time></trkpt><trkpt lat="45.495564369010275" lon="9.25501791069903"><ele>121.0</ele><time>2026-03-29T14:43:18Z</time></trkpt><trkpt lat="45.49576644415537" lon="9.25512602648406"><ele>122.0</ele><time>2026-03-29T14:43:19Z</time></trkpt><trkpt lat="45.49597399438356" lon="9.25522247444334"><ele>123.0</ele><time>2026-03-29T14:43:20Z</time></trkpt><trkpt lat="45.49618386915694" lon="9.255307336251139"><ele>121.66666666666666</ele><time>2026-03-29T14:43:21Z</time></trkpt><trkpt lat="45.49639709221883" lon="9.255377513350846"><ele>120.33333333333333</ele><time>2026-03-29T14:43:22Z</time></trkpt><trkpt lat="45.496613263644235" lon="9.255440170059842"><ele>119.0</ele><time>2026-03-29T14:43:23Z</time></trkpt><trkpt lat="45.49682828323165" lon="9.255489407815539"><ele>119.0</ele><time>2026-03-29T14:43:24Z</time></trkpt><trkpt lat="45.497041590699915" lon="9.255531193384673"><ele>119.0</ele><time>2026-03-29T14:43:25Z</time></trkpt><trkpt lat="45.49725436862555" lon="9.255557466109167"><ele>119.0</ele><time>2026-03-29T14:43:26Z</time></trkpt><trkpt lat="45.49746202751467" lon="9.255578073369513"><ele>120.0</ele><time>2026-03-29T14:43:27Z</time></trkpt><trkpt lat="45.497668332975564" lon="9.255595849251051"><ele>121.0</ele><time>2026-03-29T14:43:28Z</time></trkpt><trkpt lat="45.49787507268485" lon="9.255619278914779"><ele>122.0</ele><time>2026-03-29T14:43:29Z</time></trkpt><trkpt lat="45.498084732039885" lon="9.255643475266355"><ele>122.0</ele><time>2026-03-29T14:43:30Z</time></trkpt><trkpt lat="45.49829601524531" lon="9.255664793274494"><ele>122.0</ele><time>2026-03-29T14:43:31.001Z</time></trkpt><trkpt lat="45.498502667101945" lon="9.255684836056329"><ele>122.0</ele><time>2026-03-29T14:43:32.001Z</time></trkpt><trkpt lat="45.49871034775806" lon="9.255706383750521"><ele>123.33333333333333</ele><time>2026-03-29T14:43:33.001Z</time></trkpt><trkpt lat="45.49891630566859" lon="9.255726432201822"><ele>124.66666666666666</ele><time>2026-03-29T14:43:34.001Z</time></trkpt><trkpt lat="45.499123077142436" lon="9.255748359746672"><ele>126.0</ele><time>2026-03-29T14:43:35.001Z</time></trkpt><trkpt lat="45.499333119310926" lon="9.255770514717975"><ele>126.0</ele><time>2026-03-29T14:43:36.001Z</time></trkpt><trkpt lat="45.49953543735861" lon="9.255794734493437"><ele>126.0</ele><time>2026-03-29T14:43:37.001Z</time></trkpt><trkpt lat="45.4997403406159" lon="9.255819171747792"><ele>126.0</ele><time>2026-03-29T14:43:38.001Z</time></trkpt><trkpt lat="45.49995279751428" lon="9.255845380486516"><ele>125.33333333333334</ele><time>2026-03-29T14:43:39.001Z</time></trkpt><trkpt lat="45.50017539692992" lon="9.255878100603057"><ele>124.66666666666667</ele><time>2026-03-29T14:43:40.001Z</time></trkpt><trkpt lat="45.500396813187876" lon="9.255923404847865"><ele>124.0</ele><time>2026-03-29T14:43:41.001Z</time></trkpt><trkpt lat="45.50060764103468" lon="9.255987007685043"><ele>123.0</ele><time>2026-03-29T14:43:42.001Z</time></trkpt><trkpt lat="45.50081648389154" lon="9.256064665588514"><ele>122.0</ele><time>2026-03-29T14:43:43.001Z</time></trkpt><trkpt lat="45.50102065619371" lon="9.25615638194643"><ele>121.0</ele><time>2026-03-29T14:43:44.001Z</time></trkpt><trkpt lat="45.50122158893126" lon="9.256261859313472"><ele>121.33333333333334</ele><time>2026-03-29T14:43:45.001Z</time></trkpt><trkpt lat="45.50141713803377" lon="9.256374927173496"><ele>121.66666666666666</ele><time>2026-03-29T14:43:46.001Z</time></trkpt><trkpt lat="45.50160583145991" lon="9.256493105827627"><ele>122.0</ele><time>2026-03-29T14:43:47.001Z</time></trkpt><trkpt lat="45.50179368032697" lon="9.256620692069573"><ele>121.33333333333333</ele><time>2026-03-29T14:43:48.001Z</time></trkpt><trkpt lat="45.50197798634808" lon="9.256759903054977"><ele>120.66666666666666</ele><time>2026-03-29T14:43:49.001Z</time></trkpt><trkpt lat="45.502162887401155" lon="9.256907705616738"><ele>120.0</ele><time>2026-03-29T14:43:50.001Z</time></trkpt><trkpt lat="45.502345430561824" lon="9.257052451613658"><ele>120.0</ele><time>2026-03-29T14:43:51.001Z</time></trkpt><trkpt lat="45.50252846213057" lon="9.257191524335568"><ele>120.0</ele><time>2026-03-29T14:43:52.001Z</time></trkpt><trkpt lat="45.50271196730594" lon="9.25733370306887"><ele>120.0</ele><time>2026-03-29T14:43:53.001Z</time></trkpt><trkpt lat="45.50289574462753" lon="9.257480135625775"><ele>120.0</ele><time>2026-03-29T14:43:54.001Z</time></trkpt><trkpt lat="45.50308278040831" lon="9.257626680939197"><ele>120.0</ele><time>2026-03-29T14:43:55.001Z</time></trkpt><trkpt lat="45.50327250407243" lon="9.257773020138895"><ele>120.0</ele><time>2026-03-29T14:43:56.001Z</time></trkpt><trkpt lat="45.503458520413744" lon="9.257915465415126"><ele>120.0</ele><time>2026-03-29T14:43:57.001Z</time></trkpt><trkpt lat="45.503644946588686" lon="9.258059978257723"><ele>120.0</ele><time>2026-03-29T14:43:58.001Z</time></trkpt><trkpt lat="45.503828020987136" lon="9.258201034250819"><ele>120.0</ele><time>2026-03-29T14:43:59.002Z</time></trkpt><trkpt lat="45.504001397160536" lon="9.258336094651956"><ele>121.0</ele><time>2026-03-29T14:44:00.002Z</time></trkpt><trkpt lat="45.504174066019175" lon="9.258471825796759"><ele>122.0</ele><time>2026-03-29T14:44:01.002Z</time></trkpt><trkpt lat="45.50434440506447" lon="9.25860760977347"><ele>123.0</ele><time>2026-03-29T14:44:02.002Z</time></trkpt><trkpt lat="45.50451705686899" lon="9.258746281662102"><ele>123.0</ele><time>2026-03-29T14:44:03.002Z</time></trkpt><trkpt lat="45.50468307429671" lon="9.258880198465997"><ele>123.0</ele><time>2026-03-29T14:44:04.002Z</time></trkpt><trkpt lat="45.50485337774127" lon="9.259016186207477"><ele>123.0</ele><time>2026-03-29T14:44:05.002Z</time></trkpt><trkpt lat="45.50501964281452" lon="9.259147227825935"><ele>122.33333333333334</ele><time>2026-03-29T14:44:06.002Z</time></trkpt><trkpt lat="45.50518477282027" lon="9.259277690604284"><ele>121.66666666666667</ele><time>2026-03-29T14:44:07.002Z</time></trkpt><trkpt lat="45.505341675399684" lon="9.259403238468446"><ele>121.0</ele><time>2026-03-29T14:44:08.002Z</time></trkpt><trkpt lat="45.505492184710576" lon="9.259523182520702"><ele>121.0</ele><time>2026-03-29T14:44:09.002Z</time></trkpt><trkpt lat="45.505630320783" lon="9.259637236764553"><ele>121.0</ele><time>2026-03-29T14:44:10.002Z</time></trkpt><trkpt lat="45.50575154710575" lon="9.259751813417378"><ele>121.0</ele><time>2026-03-29T14:44:11.002Z</time></trkpt><trkpt lat="45.50586219786978" lon="9.259874138803115"><ele>121.0</ele><time>2026-03-29T14:44:12.002Z</time></trkpt><trkpt lat="45.50596021725244" lon="9.25999832953423"><ele>121.5</ele><time>2026-03-29T14:44:13.002Z</time></trkpt><trkpt lat="45.50604157344364" lon="9.260126505784731"><ele>122.0</ele><time>2026-03-29T14:44:14.002Z</time></trkpt><trkpt lat="45.50611835289957" lon="9.26025306121654"><ele>122.5</ele><time>2026-03-29T14:44:15.002Z</time></trkpt><trkpt lat="45.5061957465986" lon="9.260363532617339"><ele>123.0</ele><time>2026-03-29T14:44:16.002Z</time></trkpt><trkpt lat="45.50628225210085" lon="9.260453773928202"><ele>123.0</ele><time>2026-03-29T14:44:17.002Z</time></trkpt><trkpt lat="45.5063739928928" lon="9.260514666979514"><ele>123.00000000000001</ele><time>2026-03-29T14:44:18.002Z</time></trkpt><trkpt lat="45.506468675991265" lon="9.260564987486172"><ele>123.00000000000001</ele><time>2026-03-29T14:44:19.002Z</time></trkpt><trkpt lat="45.50655836971356" lon="9.260620886493662"><ele>123.0</ele><time>2026-03-29T14:44:20.002Z</time></trkpt><trkpt lat="45.506638726276634" lon="9.260675336449095"><ele>123.0</ele><time>2026-03-29T14:44:21.002Z</time></trkpt><trkpt lat="45.50670879098386" lon="9.26072554817455"><ele>123.16666666666667</ele><time>2026-03-29T14:44:22.002Z</time></trkpt><trkpt lat="45.50677167151379" lon="9.260774077044553"><ele>123.33333333333334</ele><time>2026-03-29T14:44:23.002Z</time></trkpt><trkpt lat="45.50686030513581" lon="9.260836619873848"><ele>123.5</ele><time>2026-03-29T14:44:25.002Z</time></trkpt><trkpt lat="45.506945908789504" lon="9.260952758417162"><ele>123.66666666666667</ele><time>2026-03-29T14:44:39.003Z</time></trkpt><trkpt lat="45.507000027734236" lon="9.261009749405854"><ele>123.83333333333334</ele><time>2026-03-29T14:44:40.003Z</time></trkpt><trkpt lat="45.507070880354206" lon="9.261064167902811"><ele>124.0</ele><time>2026-03-29T14:44:41.003Z</time></trkpt><trkpt lat="45.507143952344975" lon="9.261113334442674"><ele>124.00000000000001</ele><time>2026-03-29T14:44:42.003Z</time></trkpt><trkpt lat="45.50720935857636" lon="9.261170726065261"><ele>124.0</ele><time>2026-03-29T14:44:43.003Z</time></trkpt><trkpt lat="45.50728477493032" lon="9.261229827486561"><ele>124.0</ele><time>2026-03-29T14:44:44.003Z</time></trkpt><trkpt lat="45.50736777588751" lon="9.261274440393102"><ele>124.0</ele><time>2026-03-29T14:44:45.003Z</time></trkpt><trkpt lat="45.50744317192093" lon="9.261301958712133"><ele>124.00000000000001</ele><time>2026-03-29T14:44:46.003Z</time></trkpt><trkpt lat="45.507537377728504" lon="9.261327020884204"><ele>124.0</ele><time>2026-03-29T14:44:47.003Z</time></trkpt><trkpt lat="45.50764218219144" lon="9.261339836144984"><ele>124.0</ele><time>2026-03-29T14:44:48.003Z</time></trkpt><trkpt lat="45.50775505266149" lon="9.261364082632806"><ele>124.0</ele><time>2026-03-29T14:44:49.003Z</time></trkpt><trkpt lat="45.507882836079446" lon="9.261410384307633"><ele>124.0</ele><time>2026-03-29T14:44:50.003Z</time></trkpt><trkpt lat="45.50800773825383" lon="9.261479025157923"><ele>124.0</ele><time>2026-03-29T14:44:51.003Z</time></trkpt><trkpt lat="45.50813317693392" lon="9.261491670132328"><ele>124.33333333333334</ele><time>2026-03-29T14:44:52.003Z</time></trkpt><trkpt lat="45.50825595468039" lon="9.261636466690252"><ele>124.66666666666666</ele><time>2026-03-29T14:44:53.003Z</time></trkpt><trkpt lat="45.50840108453401" lon="9.261721441890247"><ele>125.0</ele><time>2026-03-29T14:44:54.003Z</time></trkpt><trkpt lat="45.50855732583649" lon="9.261799785795068"><ele>125.0</ele><time>2026-03-29T14:44:55.003Z</time></trkpt><trkpt lat="45.508733738902826" lon="9.261873620632008"><ele>125.0</ele><time>2026-03-29T14:44:56.003Z</time></trkpt><trkpt lat="45.50891918393303" lon="9.26193522430559"><ele>125.0</ele><time>2026-03-29T14:44:57.003Z</time></trkpt><trkpt lat="45.509091539091365" lon="9.261978761331088"><ele>125.0</ele><time>2026-03-29T14:44:58.003Z</time></trkpt><trkpt lat="45.50927434926628" lon="9.262016177308624"><ele>125.0</ele><time>2026-03-29T14:44:59.003Z</time></trkpt><trkpt lat="45.50946297762565" lon="9.262043225856617"><ele>125.0</ele><time>2026-03-29T14:45:00.003Z</time></trkpt><trkpt lat="45.5096606704922" lon="9.262052148786243"><ele>125.0</ele><time>2026-03-29T14:45:00.998Z</time></trkpt><trkpt lat="45.50986800366163" lon="9.262046592819233"><ele>125.0</ele><time>2026-03-29T14:45:01.998Z</time></trkpt><trkpt lat="45.51007712534069" lon="9.262027146835393"><ele>125.0</ele><time>2026-03-29T14:45:02.999Z</time></trkpt><trkpt lat="45.510269018916546" lon="9.261993423313212"><ele>125.0</ele><time>2026-03-29T14:45:03.999Z</time></trkpt><trkpt lat="45.51046547840225" lon="9.261941738962447"><ele>125.0</ele><time>2026-03-29T14:45:04.999Z</time></trkpt><trkpt lat="45.51066639042852" lon="9.26188005501764"><ele>125.0</ele><time>2026-03-29T14:45:05.999Z</time></trkpt><trkpt lat="45.51087105528649" lon="9.261814139990106"><ele>125.0</ele><time>2026-03-29T14:45:06.999Z</time></trkpt><trkpt lat="45.511079002980125" lon="9.261752149723424"><ele>125.0</ele><time>2026-03-29T14:45:07.999Z</time></trkpt><trkpt lat="45.51128876439936" lon="9.261702733646175"><ele>125.0</ele><time>2026-03-29T14:45:08.999Z</time></trkpt><trkpt lat="45.51148557550192" lon="9.261689922152756"><ele>125.66666666666666</ele><time>2026-03-29T14:45:09.999Z</time></trkpt><trkpt lat="45.51169692692962" lon="9.26169868963045"><ele>126.33333333333334</ele><time>2026-03-29T14:45:10.999Z</time></trkpt><trkpt lat="45.51189249334106" lon="9.26169088374831"><ele>127.0</ele><time>2026-03-29T14:45:11.999Z</time></trkpt><trkpt lat="45.51209212937816" lon="9.261720628690442"><ele>127.0</ele><time>2026-03-29T14:45:12.999Z</time></trkpt><trkpt lat="45.512300790620905" lon="9.261787000951873"><ele>127.0</ele><time>2026-03-29T14:45:13.999Z</time></trkpt><trkpt lat="45.512509147477815" lon="9.261866206499354"><ele>127.0</ele><time>2026-03-29T14:45:14.999Z</time></trkpt><trkpt lat="45.51272232782846" lon="9.26195662639925"><ele>128.0</ele><time>2026-03-29T14:45:15.999Z</time></trkpt><trkpt lat="45.51293969728461" lon="9.26204431558067"><ele>129.0</ele><time>2026-03-29T14:45:16.999Z</time></trkpt><trkpt lat="45.51315275291656" lon="9.262117657994173"><ele>130.0</ele><time>2026-03-29T14:45:18Z</time></trkpt><trkpt lat="45.513355696657314" lon="9.262178749931046"><ele>130.0</ele><time>2026-03-29T14:45:19Z</time></trkpt><trkpt lat="45.513563854407536" lon="9.26221743469788"><ele>130.0</ele><time>2026-03-29T14:45:20Z</time></trkpt><trkpt lat="45.51377860211586" lon="9.262224636586478"><ele>130.0</ele><time>2026-03-29T14:45:21Z</time></trkpt><trkpt lat="45.51400592568658" lon="9.262215466546602"><ele>130.33333333333334</ele><time>2026-03-29T14:45:22Z</time></trkpt><trkpt lat="45.514228884651736" lon="9.262200381815653"><ele>130.66666666666666</ele><time>2026-03-29T14:45:23Z</time></trkpt><trkpt lat="45.51444919395401" lon="9.262189397154263"><ele>131.0</ele><time>2026-03-29T14:45:24Z</time></trkpt><trkpt lat="45.51465985922183" lon="9.262180100834524"><ele>130.33333333333331</ele><time>2026-03-29T14:45:25Z</time></trkpt><trkpt lat="45.51487176177748" lon="9.262171228870486"><ele>129.66666666666666</ele><time>2026-03-29T14:45:26Z</time></trkpt><trkpt lat="45.51508321318583" lon="9.262157523729266"><ele>129.0</ele><time>2026-03-29T14:45:27Z</time></trkpt><trkpt lat="45.51529473127456" lon="9.262136657313581"><ele>128.66666666666666</ele><time>2026-03-29T14:45:28Z</time></trkpt><trkpt lat="45.51550083968356" lon="9.262111215588877"><ele>128.33333333333331</ele><time>2026-03-29T14:45:29Z</time></trkpt><trkpt lat="45.51570743506327" lon="9.262084080315072"><ele>128.0</ele><time>2026-03-29T14:45:30Z</time></trkpt><trkpt lat="45.51591001238162" lon="9.262056860828972"><ele>128.0</ele><time>2026-03-29T14:45:31Z</time></trkpt><trkpt lat="45.516104212387695" lon="9.26202748238397"><ele>128.0</ele><time>2026-03-29T14:45:32Z</time></trkpt><trkpt lat="45.516301205574834" lon="9.261989214187357"><ele>128.0</ele><time>2026-03-29T14:45:33Z</time></trkpt><trkpt lat="45.51649414562189" lon="9.261952832897798"><ele>127.0</ele><time>2026-03-29T14:45:34Z</time></trkpt><trkpt lat="45.51669896805476" lon="9.261916500292068"><ele>126.0</ele><time>2026-03-29T14:45:35Z</time></trkpt><trkpt lat="45.51690709178581" lon="9.261880217439947"><ele>125.0</ele><time>2026-03-29T14:45:36Z</time></trkpt><trkpt lat="45.51711968647271" lon="9.261843170877352"><ele>124.0</ele><time>2026-03-29T14:45:37.001Z</time></trkpt><trkpt lat="45.51734398004228" lon="9.261805974009297"><ele>123.0</ele><time>2026-03-29T14:45:38.001Z</time></trkpt><trkpt lat="45.51757329416842" lon="9.261768488808078"><ele>123.0</ele><time>2026-03-29T14:45:39.001Z</time></trkpt><trkpt lat="45.517813579278226" lon="9.261728209315345"><ele>123.0</ele><time>2026-03-29T14:45:40.001Z</time></trkpt><trkpt lat="45.51805378028633" lon="9.261689890151544"><ele>124.0</ele><time>2026-03-29T14:45:41.001Z</time></trkpt><trkpt lat="45.518293184926286" lon="9.261651898522285"><ele>125.0</ele><time>2026-03-29T14:45:42.001Z</time></trkpt><trkpt lat="45.518535607725816" lon="9.261613950016931"><ele>127.0</ele><time>2026-03-29T14:45:43.001Z</time></trkpt><trkpt lat="45.51877052398334" lon="9.26157969104387"><ele>129.0</ele><time>2026-03-29T14:45:44.001Z</time></trkpt><trkpt lat="45.51900139059967" lon="9.261544229168221"><ele>129.0</ele><time>2026-03-29T14:45:45.001Z</time></trkpt><trkpt lat="45.51923054404253" lon="9.26150583167827"><ele>129.0</ele><time>2026-03-29T14:45:46.001Z</time></trkpt><trkpt lat="45.519460124074605" lon="9.261467102758962"><ele>129.5</ele><time>2026-03-29T14:45:47.001Z</time></trkpt><trkpt lat="45.51968797221454" lon="9.261424989611069"><ele>130.0</ele><time>2026-03-29T14:45:48.001Z</time></trkpt><trkpt lat="45.519915568297655" lon="9.261380149944696"><ele>130.0</ele><time>2026-03-29T14:45:49.001Z</time></trkpt><trkpt lat="45.52014386113307" lon="9.261328009957177"><ele>130.0</ele><time>2026-03-29T14:45:50.001Z</time></trkpt><trkpt lat="45.52037729562341" lon="9.261266967660598"><ele>129.5</ele><time>2026-03-29T14:45:51.001Z</time></trkpt><trkpt lat="45.52061471006486" lon="9.261200220549327"><ele>129.0</ele><time>2026-03-29T14:45:52.001Z</time></trkpt><trkpt lat="45.520852710255134" lon="9.26113235126873"><ele>129.0</ele><time>2026-03-29T14:45:53.001Z</time></trkpt><trkpt lat="45.52108940121042" lon="9.261062179723162"><ele>129.0</ele><time>2026-03-29T14:45:54.001Z</time></trkpt><trkpt lat="45.52132550227388" lon="9.260993392224165"><ele>130.0</ele><time>2026-03-29T14:45:55.001Z</time></trkpt><trkpt lat="45.521559094202466" lon="9.260924679872911"><ele>131.0</ele><time>2026-03-29T14:45:56.001Z</time></trkpt><trkpt lat="45.521788836592236" lon="9.260860375589496"><ele>131.0</ele><time>2026-03-29T14:45:57.001Z</time></trkpt><trkpt lat="45.52202255386768" lon="9.26080005994485"><ele>131.0</ele><time>2026-03-29T14:45:58.001Z</time></trkpt><trkpt lat="45.52225553624111" lon="9.260732622281454"><ele>129.5</ele><time>2026-03-29T14:45:59.001Z</time></trkpt><trkpt lat="45.52248892013663" lon="9.26066753862528"><ele>128.0</ele><time>2026-03-29T14:46:00.001Z</time></trkpt><trkpt lat="45.522718694835916" lon="9.26060733076761"><ele>129.0</ele><time>2026-03-29T14:46:01.001Z</time></trkpt><trkpt lat="45.52294450219997" lon="9.26056948576204"><ele>130.0</ele><time>2026-03-29T14:46:02.001Z</time></trkpt><trkpt lat="45.52317336982302" lon="9.260562522844566"><ele>130.0</ele><time>2026-03-29T14:46:03.001Z</time></trkpt><trkpt lat="45.52340514547704" lon="9.260575380817292"><ele>130.0</ele><time>2026-03-29T14:46:04.001Z</time></trkpt><trkpt lat="45.52363644053141" lon="9.2606139839317"><ele>131.0</ele><time>2026-03-29T14:46:05.002Z</time></trkpt><trkpt lat="45.523862579527226" lon="9.260678160876864"><ele>132.0</ele><time>2026-03-29T14:46:06.002Z</time></trkpt><trkpt lat="45.5240811763058" lon="9.26075767048225"><ele>132.0</ele><time>2026-03-29T14:46:07.002Z</time></trkpt><trkpt lat="45.52428693693718" lon="9.260864457937032"><ele>132.0</ele><time>2026-03-29T14:46:08.002Z</time></trkpt><trkpt lat="45.524496852624075" lon="9.26099908050388"><ele>132.0</ele><time>2026-03-29T14:46:09.002Z</time></trkpt><trkpt lat="45.52469332015783" lon="9.261138356137376"><ele>131.66666666666666</ele><time>2026-03-29T14:46:10.002Z</time></trkpt><trkpt lat="45.524871582452484" lon="9.2612869074578"><ele>131.33333333333331</ele><time>2026-03-29T14:46:11.002Z</time></trkpt><trkpt lat="45.525048976264934" lon="9.261452809222497"><ele>131.0</ele><time>2026-03-29T14:46:12.002Z</time></trkpt><trkpt lat="45.525220574349376" lon="9.261648189279226"><ele>131.0</ele><time>2026-03-29T14:46:13.002Z</time></trkpt><trkpt lat="45.52538281874927" lon="9.261861882615502"><ele>131.0</ele><time>2026-03-29T14:46:14.002Z</time></trkpt><trkpt lat="45.52553887328954" lon="9.262107593600382"><ele>132.0</ele><time>2026-03-29T14:46:15.002Z</time></trkpt><trkpt lat="45.52568883769987" lon="9.262379930251889"><ele>133.0</ele><time>2026-03-29T14:46:16.002Z</time></trkpt><trkpt lat="45.52582479452386" lon="9.26267300659333"><ele>133.0</ele><time>2026-03-29T14:46:17.002Z</time></trkpt><trkpt lat="45.52594433921173" lon="9.26298041585917"><ele>133.0</ele><time>2026-03-29T14:46:18.002Z</time></trkpt><trkpt lat="45.52604569571759" lon="9.263297974602908"><ele>134.0</ele><time>2026-03-29T14:46:19.002Z</time></trkpt><trkpt lat="45.52613779404389" lon="9.263622263323963"><ele>135.0</ele><time>2026-03-29T14:46:20.002Z</time></trkpt><trkpt lat="45.52623212391674" lon="9.263931604960217"><ele>136.0</ele><time>2026-03-29T14:46:21.002Z</time></trkpt><trkpt lat="45.526343107185774" lon="9.264229160228787"><ele>137.0</ele><time>2026-03-29T14:46:22.002Z</time></trkpt><trkpt lat="45.5264684439669" lon="9.264504751488985"><ele>137.0</ele><time>2026-03-29T14:46:23.002Z</time></trkpt><trkpt lat="45.526604495648655" lon="9.264755944563925"><ele>137.0</ele><time>2026-03-29T14:46:24.002Z</time></trkpt><trkpt lat="45.5267587026618" lon="9.264996556637328"><ele>137.0</ele><time>2026-03-29T14:46:25.002Z</time></trkpt><trkpt lat="45.526930291976896" lon="9.265231097339605"><ele>137.0</ele><time>2026-03-29T14:46:26.002Z</time></trkpt><trkpt lat="45.52710924002866" lon="9.265454755220189"><ele>137.5</ele><time>2026-03-29T14:46:27.002Z</time></trkpt><trkpt lat="45.527292393741824" lon="9.265657710439545"><ele>138.0</ele><time>2026-03-29T14:46:28.002Z</time></trkpt><trkpt lat="45.527480334897255" lon="9.26584477132501"><ele>138.0</ele><time>2026-03-29T14:46:29.002Z</time></trkpt><trkpt lat="45.52767284726133" lon="9.266008868256966"><ele>138.0</ele><time>2026-03-29T14:46:30.002Z</time></trkpt><trkpt lat="45.527868371050324" lon="9.266156878229278"><ele>138.0</ele><time>2026-03-29T14:46:31.002Z</time></trkpt><trkpt lat="45.52806547661316" lon="9.266303740207666"><ele>137.0</ele><time>2026-03-29T14:46:32.002Z</time></trkpt><trkpt lat="45.52826778402706" lon="9.266454804080503"><ele>136.0</ele><time>2026-03-29T14:46:33.002Z</time></trkpt><trkpt lat="45.52847728057938" lon="9.26660457589164"><ele>136.0</ele><time>2026-03-29T14:46:34.002Z</time></trkpt><trkpt lat="45.52868979429366" lon="9.26675802186366"><ele>136.0</ele><time>2026-03-29T14:46:35.002Z</time></trkpt><trkpt lat="45.5288925044147" lon="9.26691327221557"><ele>135.0</ele><time>2026-03-29T14:46:36.002Z</time></trkpt><trkpt lat="45.529093135700876" lon="9.267078361111231"><ele>134.0</ele><time>2026-03-29T14:46:37.002Z</time></trkpt><trkpt lat="45.529298018146164" lon="9.267269733621214"><ele>134.0</ele><time>2026-03-29T14:46:38.003Z</time></trkpt><trkpt lat="45.529496060590986" lon="9.267484016966362"><ele>134.0</ele><time>2026-03-29T14:46:39.003Z</time></trkpt><trkpt lat="45.529696119926854" lon="9.267729191581626"><ele>134.0</ele><time>2026-03-29T14:46:40.003Z</time></trkpt><trkpt lat="45.529884709524055" lon="9.267990177398543"><ele>134.0</ele><time>2026-03-29T14:46:41.003Z</time></trkpt><trkpt lat="45.53006084587772" lon="9.268263940059384"><ele>135.0</ele><time>2026-03-29T14:46:42.003Z</time></trkpt><trkpt lat="45.53022591180716" lon="9.268551393736747"><ele>136.0</ele><time>2026-03-29T14:46:43.003Z</time></trkpt><trkpt lat="45.53038324568412" lon="9.26885213968866"><ele>136.5</ele><time>2026-03-29T14:46:44.003Z</time></trkpt><trkpt lat="45.530531798804084" lon="9.269164162725506"><ele>137.0</ele><time>2026-03-29T14:46:45.003Z</time></trkpt><trkpt lat="45.530679617245994" lon="9.269479395212642"><ele>136.5</ele><time>2026-03-29T14:46:46.003Z</time></trkpt><trkpt lat="45.530831464219595" lon="9.269794238888101"><ele>136.0</ele><time>2026-03-29T14:46:47.003Z</time></trkpt><trkpt lat="45.5309774616942" lon="9.27010951586237"><ele>136.0</ele><time>2026-03-29T14:46:48.003Z</time></trkpt><trkpt lat="45.53112242416824" lon="9.270425923516562"><ele>136.0</ele><time>2026-03-29T14:46:49.003Z</time></trkpt><trkpt lat="45.53126500888512" lon="9.270742052280452"><ele>135.5</ele><time>2026-03-29T14:46:50.003Z</time></trkpt><trkpt lat="45.53141403369029" lon="9.271054262021611"><ele>135.0</ele><time>2026-03-29T14:46:51.003Z</time></trkpt><trkpt lat="45.53156954843038" lon="9.271371747875543"><ele>134.0</ele><time>2026-03-29T14:46:52.003Z</time></trkpt><trkpt lat="45.531722284136" lon="9.27168939987914"><ele>133.0</ele><time>2026-03-29T14:46:53.003Z</time></trkpt><trkpt lat="45.531877883158494" lon="9.272015565193971"><ele>133.5</ele><time>2026-03-29T14:46:54.003Z</time></trkpt><trkpt lat="45.532030158625155" lon="9.27234100438652"><ele>134.0</ele><time>2026-03-29T14:46:55.003Z</time></trkpt><trkpt lat="45.532184235921676" lon="9.27266501047431"><ele>134.5</ele><time>2026-03-29T14:46:56.003Z</time></trkpt><trkpt lat="45.53233891160543" lon="9.272988866714966"><ele>135.0</ele><time>2026-03-29T14:46:57.003Z</time></trkpt><trkpt lat="45.53249626429564" lon="9.273310681410184"><ele>135.5</ele><time>2026-03-29T14:46:58.003Z</time></trkpt><trkpt lat="45.53265479607764" lon="9.273634837292818"><ele>136.0</ele><time>2026-03-29T14:46:59.003Z</time></trkpt><trkpt lat="45.532811893318986" lon="9.273957565072505"><ele>136.5</ele><time>2026-03-29T14:47:00.003Z</time></trkpt><trkpt lat="45.532970132286515" lon="9.274283100354813"><ele>137.0</ele><time>2026-03-29T14:47:01.003Z</time></trkpt><trkpt lat="45.53313055525939" lon="9.274613391873682"><ele>136.5</ele><time>2026-03-29T14:47:02.003Z</time></trkpt><trkpt lat="45.533284080729395" lon="9.274943188046818"><ele>136.0</ele><time>2026-03-29T14:47:03.003Z</time></trkpt><trkpt lat="45.53344454033829" lon="9.275282882412316"><ele>136.0</ele><time>2026-03-29T14:47:04.003Z</time></trkpt><trkpt lat="45.53360626115993" lon="9.275625653556666"><ele>136.0</ele><time>2026-03-29T14:47:05.003Z</time></trkpt><trkpt lat="45.53377023219784" lon="9.275971815395708"><ele>136.0</ele><time>2026-03-29T14:47:06.003Z</time></trkpt><trkpt lat="45.53393415882699" lon="9.276316060101147"><ele>136.0</ele><time>2026-03-29T14:47:06.998Z</time></trkpt><trkpt lat="45.53409520687683" lon="9.276658634239318"><ele>135.5</ele><time>2026-03-29T14:47:07.998Z</time></trkpt><trkpt lat="45.5342591026175" lon="9.277009280558323"><ele>135.0</ele><time>2026-03-29T14:47:08.999Z</time></trkpt><trkpt lat="45.53442201509488" lon="9.27734609385762"><ele>137.0</ele><time>2026-03-29T14:47:09.999Z</time></trkpt><trkpt lat="45.53458048087164" lon="9.277685558762457"><ele>139.0</ele><time>2026-03-29T14:47:10.999Z</time></trkpt><trkpt lat="45.53473759543297" lon="9.278016127994967"><ele>138.0</ele><time>2026-03-29T14:47:11.999Z</time></trkpt><trkpt lat="45.5348947835028" lon="9.278342023545258"><ele>137.0</ele><time>2026-03-29T14:47:12.999Z</time></trkpt><trkpt lat="45.53504979346579" lon="9.278667995777353"><ele>137.5</ele><time>2026-03-29T14:47:13.999Z</time></trkpt><trkpt lat="45.53520435713509" lon="9.278992034966091"><ele>138.0</ele><time>2026-03-29T14:47:14.999Z</time></trkpt><trkpt lat="45.535361090591714" lon="9.27931435773338"><ele>137.5</ele><time>2026-03-29T14:47:15.999Z</time></trkpt><trkpt lat="45.53551366286091" lon="9.27963358273796"><ele>137.0</ele><time>2026-03-29T14:47:16.999Z</time></trkpt><trkpt lat="45.53566477763236" lon="9.279948710534331"><ele>137.0</ele><time>2026-03-29T14:47:17.999Z</time></trkpt><trkpt lat="45.53581801439225" lon="9.280266125116114"><ele>137.0</ele><time>2026-03-29T14:47:18.999Z</time></trkpt><trkpt lat="45.53596955115318" lon="9.280577730770109"><ele>137.5</ele><time>2026-03-29T14:47:19.999Z</time></trkpt><trkpt lat="45.53612607296066" lon="9.280891648193085"><ele>138.0</ele><time>2026-03-29T14:47:20.999Z</time></trkpt><trkpt lat="45.53628065832761" lon="9.281201929686109"><ele>138.0</ele><time>2026-03-29T14:47:21.999Z</time></trkpt><trkpt lat="45.53643878196993" lon="9.281514808670664"><ele>138.0</ele><time>2026-03-29T14:47:22.999Z</time></trkpt><trkpt lat="45.53659755654807" lon="9.28182492254617"><ele>138.0</ele><time>2026-03-29T14:47:23.999Z</time></trkpt><trkpt lat="45.53675782231544" lon="9.282133915296614"><ele>138.0</ele><time>2026-03-29T14:47:24.999Z</time></trkpt><trkpt lat="45.536917000802625" lon="9.282437354981909"><ele>138.5</ele><time>2026-03-29T14:47:26Z</time></trkpt><trkpt lat="45.537071189833" lon="9.282741160783978"><ele>139.0</ele><time>2026-03-29T14:47:27Z</time></trkpt><trkpt lat="45.53721810491796" lon="9.283021036308055"><ele>139.0</ele><time>2026-03-29T14:47:28Z</time></trkpt><trkpt lat="45.53735469853258" lon="9.283279942412724"><ele>139.0</ele><time>2026-03-29T14:47:29Z</time></trkpt><trkpt lat="45.53748116463757" lon="9.283541998782532"><ele>139.0</ele><time>2026-03-29T14:47:30Z</time></trkpt><trkpt lat="45.53759430215851" lon="9.28380440181354"><ele>139.0</ele><time>2026-03-29T14:47:31Z</time></trkpt><trkpt lat="45.53769428208582" lon="9.28407673381184"><ele>139.0</ele><time>2026-03-29T14:47:32Z</time></trkpt><trkpt lat="45.537775750611075" lon="9.28436700238285"><ele>140.0</ele><time>2026-03-29T14:47:33Z</time></trkpt><trkpt lat="45.5378397397923" lon="9.28466691834289"><ele>141.0</ele><time>2026-03-29T14:47:34Z</time></trkpt><trkpt lat="45.5378850082945" lon="9.284971278154831"><ele>142.0</ele><time>2026-03-29T14:47:35Z</time></trkpt><trkpt lat="45.537910995452506" lon="9.285294427205507"><ele>139.5</ele><time>2026-03-29T14:47:36Z</time></trkpt><trkpt lat="45.53791981855022" lon="9.28562393511611"><ele>137.0</ele><time>2026-03-29T14:47:37Z</time></trkpt><trkpt lat="45.53790807116837" lon="9.285949812506246"><ele>138.0</ele><time>2026-03-29T14:47:38Z</time></trkpt><trkpt lat="45.537878080171815" lon="9.286268168498173"><ele>139.0</ele><time>2026-03-29T14:47:39Z</time></trkpt><trkpt lat="45.53782221661616" lon="9.28659264514142"><ele>139.0</ele><time>2026-03-29T14:47:40Z</time></trkpt><trkpt lat="45.53775623467688" lon="9.28692142908819"><ele>139.0</ele><time>2026-03-29T14:47:41Z</time></trkpt><trkpt lat="45.53766629381368" lon="9.287236040406789"><ele>137.5</ele><time>2026-03-29T14:47:42Z</time></trkpt><trkpt lat="45.53755928209397" lon="9.287541701112186"><ele>136.0</ele><time>2026-03-29T14:47:43Z</time></trkpt><trkpt lat="45.53743355052832" lon="9.287837739026667"><ele>135.5</ele><time>2026-03-29T14:47:44Z</time></trkpt><trkpt lat="45.53730079168051" lon="9.288150843721013"><ele>135.0</ele><time>2026-03-29T14:47:45Z</time></trkpt><trkpt lat="45.53716756603929" lon="9.288463367842946"><ele>134.5</ele><time>2026-03-29T14:47:46.001Z</time></trkpt><trkpt lat="45.53704382454543" lon="9.288801699605612"><ele>134.0</ele><time>2026-03-29T14:47:47.001Z</time></trkpt><trkpt lat="45.536946728538624" lon="9.28914236415333"><ele>134.5</ele><time>2026-03-29T14:47:48.001Z</time></trkpt><trkpt lat="45.5368652388775" lon="9.289497224714795"><ele>135.0</ele><time>2026-03-29T14:47:49.001Z</time></trkpt><trkpt lat="45.536816868703475" lon="9.289864829321807"><ele>135.0</ele><time>2026-03-29T14:47:50.001Z</time></trkpt><trkpt lat="45.53676517259406" lon="9.290228860637285"><ele>135.0</ele><time>2026-03-29T14:47:51.001Z</time></trkpt><trkpt lat="45.53673649197808" lon="9.290599128282675"><ele>135.0</ele><time>2026-03-29T14:47:52.001Z</time></trkpt><trkpt lat="45.53672582785613" lon="9.290967208194228"><ele>135.0</ele><time>2026-03-29T14:47:53.001Z</time></trkpt><trkpt lat="45.53673508351154" lon="9.291336379173453"><ele>133.5</ele><time>2026-03-29T14:47:54.001Z</time></trkpt><trkpt lat="45.536760992141986" lon="9.291698542591096"><ele>132.0</ele><time>2026-03-29T14:47:55.001Z</time></trkpt><trkpt lat="45.536807033864456" lon="9.292057206778228"><ele>133.5</ele><time>2026-03-29T14:47:56.001Z</time></trkpt><trkpt lat="45.53686518757051" lon="9.292432608806568"><ele>135.0</ele><time>2026-03-29T14:47:57.001Z</time></trkpt><trkpt lat="45.53692116553445" lon="9.292817945615543"><ele>135.0</ele><time>2026-03-29T14:47:58.001Z</time></trkpt><trkpt lat="45.536972658141416" lon="9.293211273452874"><ele>135.0</ele><time>2026-03-29T14:47:59.001Z</time></trkpt><trkpt lat="45.53701936719088" lon="9.293613381497478"><ele>138.5</ele><time>2026-03-29T14:48:00.001Z</time></trkpt><trkpt lat="45.53706451360068" lon="9.294020653550852"><ele>142.0</ele><time>2026-03-29T14:48:01.001Z</time></trkpt><trkpt lat="45.537107344762234" lon="9.294426000376042"><ele>141.0</ele><time>2026-03-29T14:48:02.001Z</time></trkpt><trkpt lat="45.5371507780875" lon="9.294835947383104"><ele>140.0</ele><time>2026-03-29T14:48:03.001Z</time></trkpt><trkpt lat="45.53719391374" lon="9.295248766493529"><ele>137.0</ele><time>2026-03-29T14:48:04.001Z</time></trkpt><trkpt lat="45.53723666823501" lon="9.29565840199725"><ele>134.0</ele><time>2026-03-29T14:48:05.001Z</time></trkpt><trkpt lat="45.53728043470741" lon="9.296069988466995"><ele>133.5</ele><time>2026-03-29T14:48:06.001Z</time></trkpt><trkpt lat="45.537317406698904" lon="9.296478065848774"><ele>133.0</ele><time>2026-03-29T14:48:07.001Z</time></trkpt><trkpt lat="45.537364491806045" lon="9.296873692236924"><ele>132.0</ele><time>2026-03-29T14:48:08.001Z</time></trkpt><trkpt lat="45.53740735568424" lon="9.297281744618331"><ele>131.0</ele><time>2026-03-29T14:48:09.001Z</time></trkpt><trkpt lat="45.53744743185452" lon="9.297684432652934"><ele>131.0</ele><time>2026-03-29T14:48:10.001Z</time></trkpt><trkpt lat="45.53749136308517" lon="9.298079098440716"><ele>131.0</ele><time>2026-03-29T14:48:11.001Z</time></trkpt><trkpt lat="45.53753720071436" lon="9.298478054238696"><ele>131.5</ele><time>2026-03-29T14:48:12.001Z</time></trkpt><trkpt lat="45.53757852831499" lon="9.298873367163532"><ele>132.0</ele><time>2026-03-29T14:48:13.001Z</time></trkpt><trkpt lat="45.53761945787638" lon="9.299267053745833"><ele>132.0</ele><time>2026-03-29T14:48:14.001Z</time></trkpt><trkpt lat="45.53766567462426" lon="9.299665289421235"><ele>132.0</ele><time>2026-03-29T14:48:15.002Z</time></trkpt><trkpt lat="45.53770384491608" lon="9.300058438107973"><ele>132.0</ele><time>2026-03-29T14:48:16.002Z</time></trkpt><trkpt lat="45.53775034128252" lon="9.30045395398552"><ele>132.0</ele><time>2026-03-29T14:48:17.002Z</time></trkpt><trkpt lat="45.53779779505395" lon="9.300848623102242"><ele>133.0</ele><time>2026-03-29T14:48:18.002Z</time></trkpt><trkpt lat="45.53784264830744" lon="9.301244850075935"><ele>134.0</ele><time>2026-03-29T14:48:19.002Z</time></trkpt><trkpt lat="45.53788628462297" lon="9.30164506867934"><ele>135.0</ele><time>2026-03-29T14:48:20.002Z</time></trkpt><trkpt lat="45.53792577370826" lon="9.302039056959048"><ele>136.0</ele><time>2026-03-29T14:48:21.002Z</time></trkpt><trkpt lat="45.53796797722124" lon="9.302435360334993"><ele>136.0</ele><time>2026-03-29T14:48:22.002Z</time></trkpt><trkpt lat="45.53801345646835" lon="9.302832676660058"><ele>136.0</ele><time>2026-03-29T14:48:23.002Z</time></trkpt><trkpt lat="45.53805573839992" lon="9.303225145214638"><ele>135.0</ele><time>2026-03-29T14:48:24.002Z</time></trkpt><trkpt lat="45.538096433391495" lon="9.303620325814373"><ele>134.0</ele><time>2026-03-29T14:48:25.002Z</time></trkpt><trkpt lat="45.53813912764313" lon="9.304013165534986"><ele>134.0</ele><time>2026-03-29T14:48:26.002Z</time></trkpt><trkpt lat="45.53818165512674" lon="9.304406564816917"><ele>134.0</ele><time>2026-03-29T14:48:27.002Z</time></trkpt><trkpt lat="45.5382194751628" lon="9.304795929511608"><ele>134.5</ele><time>2026-03-29T14:48:28.002Z</time></trkpt><trkpt lat="45.538255472430215" lon="9.305183743440798"><ele>135.0</ele><time>2026-03-29T14:48:29.002Z</time></trkpt><trkpt lat="45.53829638012284" lon="9.305586063503771"><ele>134.0</ele><time>2026-03-29T14:48:30.002Z</time></trkpt><trkpt lat="45.53833135967549" lon="9.305972937381"><ele>133.0</ele><time>2026-03-29T14:48:31.002Z</time></trkpt><trkpt lat="45.53836932297759" lon="9.306362802190344"><ele>133.0</ele><time>2026-03-29T14:48:32.002Z</time></trkpt><trkpt lat="45.53840616830843" lon="9.306751002653938"><ele>133.0</ele><time>2026-03-29T14:48:33.002Z</time></trkpt><trkpt lat="45.5384477541103" lon="9.30714103751946"><ele>135.0</ele><time>2026-03-29T14:48:34.002Z</time></trkpt><trkpt lat="45.53848840041128" lon="9.307532753596037"><ele>137.0</ele><time>2026-03-29T14:48:35.002Z</time></trkpt><trkpt lat="45.538526889709445" lon="9.307926073442633"><ele>137.5</ele><time>2026-03-29T14:48:36.002Z</time></trkpt><trkpt lat="45.538568793719335" lon="9.308323268298578"><ele>138.0</ele><time>2026-03-29T14:48:37.002Z</time></trkpt><trkpt lat="45.53861123272622" lon="9.308722624562314"><ele>137.0</ele><time>2026-03-29T14:48:38.002Z</time></trkpt><trkpt lat="45.5386508321085" lon="9.309123844374"><ele>136.0</ele><time>2026-03-29T14:48:39.002Z</time></trkpt><trkpt lat="45.538691353020994" lon="9.309524194592361"><ele>136.5</ele><time>2026-03-29T14:48:40.002Z</time></trkpt><trkpt lat="45.538733469686406" lon="9.309923040837363"><ele>137.0</ele><time>2026-03-29T14:48:41.002Z</time></trkpt><trkpt lat="45.53877654810908" lon="9.310321203333345"><ele>136.0</ele><time>2026-03-29T14:48:42.002Z</time></trkpt><trkpt lat="45.538821064455924" lon="9.310721190320304"><ele>135.0</ele><time>2026-03-29T14:48:43.002Z</time></trkpt><trkpt lat="45.538865424182156" lon="9.311116934713448"><ele>134.5</ele><time>2026-03-29T14:48:44.002Z</time></trkpt><trkpt lat="45.538914596522275" lon="9.311504126975944"><ele>134.0</ele><time>2026-03-29T14:48:45.002Z</time></trkpt><trkpt lat="45.53897366505577" lon="9.311877432683636"><ele>134.0</ele><time>2026-03-29T14:48:46.002Z</time></trkpt><trkpt lat="45.53904628324971" lon="9.312236167538174"><ele>134.0</ele><time>2026-03-29T14:48:47.002Z</time></trkpt><trkpt lat="45.53913003225786" lon="9.312590257061732"><ele>134.5</ele><time>2026-03-29T14:48:48.003Z</time></trkpt><trkpt lat="45.53922599493369" lon="9.312938795483202"><ele>135.0</ele><time>2026-03-29T14:48:49.003Z</time></trkpt><trkpt lat="45.53934118386021" lon="9.313272542073172"><ele>135.0</ele><time>2026-03-29T14:48:50.003Z</time></trkpt><trkpt lat="45.539469908188906" lon="9.313606532734836"><ele>135.0</ele><time>2026-03-29T14:48:51.003Z</time></trkpt><trkpt lat="45.539614370449975" lon="9.313931466517294"><ele>135.0</ele><time>2026-03-29T14:48:52.003Z</time></trkpt><trkpt lat="45.53976829114033" lon="9.314246756335562"><ele>135.0</ele><time>2026-03-29T14:48:53.003Z</time></trkpt><trkpt lat="45.53993216122929" lon="9.314551845465372"><ele>135.5</ele><time>2026-03-29T14:48:54.003Z</time></trkpt><trkpt lat="45.540110356156895" lon="9.314846463625415"><ele>136.0</ele><time>2026-03-29T14:48:55.003Z</time></trkpt><trkpt lat="45.54029950216699" lon="9.315118707770234"><ele>136.0</ele><time>2026-03-29T14:48:56.003Z</time></trkpt><trkpt lat="45.540502521595464" lon="9.315369836010376"><ele>136.0</ele><time>2026-03-29T14:48:57.003Z</time></trkpt><trkpt lat="45.54071606743335" lon="9.315604960425173"><ele>136.0</ele><time>2026-03-29T14:48:58.003Z</time></trkpt><trkpt lat="45.54093585217414" lon="9.315819766293398"><ele>136.0</ele><time>2026-03-29T14:48:59.003Z</time></trkpt><trkpt lat="45.54116841278962" lon="9.316013027680091"><ele>136.5</ele><time>2026-03-29T14:49:00.003Z</time></trkpt><trkpt lat="45.541410169332124" lon="9.31619446585566"><ele>137.0</ele><time>2026-03-29T14:49:01.003Z</time></trkpt><trkpt lat="45.54166237543126" lon="9.316362376847835"><ele>138.0</ele><time>2026-03-29T14:49:02.003Z</time></trkpt><trkpt lat="45.54192526786218" lon="9.316525654501294"><ele>139.0</ele><time>2026-03-29T14:49:03.003Z</time></trkpt><trkpt lat="45.542192817950855" lon="9.316691579750744"><ele>139.5</ele><time>2026-03-29T14:49:04.003Z</time></trkpt><trkpt lat="45.54245571060713" lon="9.316859484141181"><ele>140.0</ele><time>2026-03-29T14:49:05.003Z</time></trkpt><trkpt lat="45.542716279311634" lon="9.31702663573068"><ele>140.0</ele><time>2026-03-29T14:49:06.003Z</time></trkpt><trkpt lat="45.54296873194562" lon="9.317203106583904"><ele>140.0</ele><time>2026-03-29T14:49:07.003Z</time></trkpt><trkpt lat="45.5432157280791" lon="9.317388048233907"><ele>140.0</ele><time>2026-03-29T14:49:08.003Z</time></trkpt><trkpt lat="45.543447556593314" lon="9.31757826169663"><ele>140.0</ele><time>2026-03-29T14:49:09.003Z</time></trkpt><trkpt lat="45.54367297378136" lon="9.317784200087013"><ele>140.0</ele><time>2026-03-29T14:49:10.003Z</time></trkpt><trkpt lat="45.54388611496914" lon="9.318010510736054"><ele>140.0</ele><time>2026-03-29T14:49:11.003Z</time></trkpt><trkpt lat="45.544086746313056" lon="9.31825285510952"><ele>140.0</ele><time>2026-03-29T14:49:12.003Z</time></trkpt><trkpt lat="45.54427606069072" lon="9.318509908993347"><ele>140.0</ele><time>2026-03-29T14:49:12.998Z</time></trkpt><trkpt lat="45.54445742037048" lon="9.318777872646503"><ele>140.5</ele><time>2026-03-29T14:49:13.998Z</time></trkpt><trkpt lat="45.54462925216755" lon="9.319072233871676"><ele>141.0</ele><time>2026-03-29T14:49:14.998Z</time></trkpt><trkpt lat="45.54478883263824" lon="9.31937715174591"><ele>141.0</ele><time>2026-03-29T14:49:15.998Z</time></trkpt><trkpt lat="45.54493764546357" lon="9.319691486999329"><ele>141.0</ele><time>2026-03-29T14:49:16.999Z</time></trkpt><trkpt lat="45.545071667143574" lon="9.320026474257746"><ele>141.5</ele><time>2026-03-29T14:49:17.999Z</time></trkpt><trkpt lat="45.545199683753054" lon="9.320364260224354"><ele>142.0</ele><time>2026-03-29T14:49:18.999Z</time></trkpt><trkpt lat="45.545324231304924" lon="9.320704448335382"><ele>141.0</ele><time>2026-03-29T14:49:19.999Z</time></trkpt><trkpt lat="45.54545015693468" lon="9.321044255778315"><ele>140.0</ele><time>2026-03-29T14:49:20.999Z</time></trkpt><trkpt lat="45.545581054171045" lon="9.321375379024314"><ele>140.5</ele><time>2026-03-29T14:49:21.999Z</time></trkpt><trkpt lat="45.545717214082266" lon="9.321704338837922"><ele>141.0</ele><time>2026-03-29T14:49:22.999Z</time></trkpt><trkpt lat="45.545857998012146" lon="9.32202360918933"><ele>141.0</ele><time>2026-03-29T14:49:23.999Z</time></trkpt><trkpt lat="45.54600449454537" lon="9.322335548831283"><ele>141.0</ele><time>2026-03-29T14:49:24.999Z</time></trkpt><trkpt lat="45.546155391080376" lon="9.322639869993932"><ele>141.5</ele><time>2026-03-29T14:49:25.999Z</time></trkpt><trkpt lat="45.54631136619229" lon="9.322930057740157"><ele>142.0</ele><time>2026-03-29T14:49:26.999Z</time></trkpt><trkpt lat="45.54647854218174" lon="9.323220701585889"><ele>142.0</ele><time>2026-03-29T14:49:27.999Z</time></trkpt><trkpt lat="45.5466447536681" lon="9.32348621912194"><ele>142.0</ele><time>2026-03-29T14:49:28.999Z</time></trkpt><trkpt lat="45.546820030809684" lon="9.323753447424869"><ele>142.0</ele><time>2026-03-29T14:49:29.999Z</time></trkpt><trkpt lat="45.54699754336577" lon="9.324010445259349"><ele>142.0</ele><time>2026-03-29T14:49:30.999Z</time></trkpt><trkpt lat="45.54717628594319" lon="9.32425905889399"><ele>142.5</ele><time>2026-03-29T14:49:32Z</time></trkpt><trkpt lat="45.54736813699629" lon="9.324503100691942"><ele>143.0</ele><time>2026-03-29T14:49:33Z</time></trkpt><trkpt lat="45.54756315358" lon="9.324730571067166"><ele>143.5</ele><time>2026-03-29T14:49:34Z</time></trkpt><trkpt lat="45.5477601533772" lon="9.32495241134017"><ele>144.0</ele><time>2026-03-29T14:49:35Z</time></trkpt><trkpt lat="45.547963601737806" lon="9.325164714588677"><ele>144.5</ele><time>2026-03-29T14:49:36Z</time></trkpt><trkpt lat="45.54817338978546" lon="9.325370861790761"><ele>145.0</ele><time>2026-03-29T14:49:37Z</time></trkpt><trkpt lat="45.54837719352557" lon="9.325558642108945"><ele>144.0</ele><time>2026-03-29T14:49:38Z</time></trkpt><trkpt lat="45.54859687218039" lon="9.325753579973382"><ele>143.0</ele><time>2026-03-29T14:49:39Z</time></trkpt><trkpt lat="45.54881896927835" lon="9.325932651355338"><ele>142.0</ele><time>2026-03-29T14:49:40Z</time></trkpt><trkpt lat="45.54904289966485" lon="9.32609736379448"><ele>141.0</ele><time>2026-03-29T14:49:41Z</time></trkpt><trkpt lat="45.54927162839423" lon="9.32624732434114"><ele>141.0</ele><time>2026-03-29T14:49:42Z</time></trkpt><trkpt lat="45.54949668996511" lon="9.32638602651539"><ele>141.0</ele><time>2026-03-29T14:49:43Z</time></trkpt><trkpt lat="45.54971822921046" lon="9.326515612031775"><ele>142.0</ele><time>2026-03-29T14:49:44Z</time></trkpt><trkpt lat="45.54992180269053" lon="9.326634677806158"><ele>143.0</ele><time>2026-03-29T14:49:45Z</time></trkpt><trkpt lat="45.55011635650788" lon="9.32674923502228"><ele>144.0</ele><time>2026-03-29T14:49:46Z</time></trkpt><trkpt lat="45.5503084244235" lon="9.326860093288346"><ele>143.33333333333334</ele><time>2026-03-29T14:49:47Z</time></trkpt><trkpt lat="45.55050226325671" lon="9.326974065872191"><ele>142.66666666666669</ele><time>2026-03-29T14:49:48Z</time></trkpt><trkpt lat="45.55068895133181" lon="9.327084781567786"><ele>142.0</ele><time>2026-03-29T14:49:49Z</time></trkpt><trkpt lat="45.55087551047911" lon="9.327194293840469"><ele>142.66666666666669</ele><time>2026-03-29T14:49:50Z</time></trkpt><trkpt lat="45.55106820471675" lon="9.32730716039637"><ele>143.33333333333334</ele><time>2026-03-29T14:49:51.001Z</time></trkpt><trkpt lat="45.55126795219496" lon="9.327422229775875"><ele>144.0</ele><time>2026-03-29T14:49:52.001Z</time></trkpt><trkpt lat="45.5514732793452" lon="9.327541592944101"><ele>144.0</ele><time>2026-03-29T14:49:53.001Z</time></trkpt><trkpt lat="45.55168304528893" lon="9.327663961988872"><ele>144.0</ele><time>2026-03-29T14:49:54.001Z</time></trkpt><trkpt lat="45.551887819101374" lon="9.327789341018722"><ele>144.0</ele><time>2026-03-29T14:49:55.001Z</time></trkpt><trkpt lat="45.55207952372589" lon="9.327907520400785"><ele>144.33333333333334</ele><time>2026-03-29T14:49:56.001Z</time></trkpt><trkpt lat="45.55226874760274" lon="9.328021939382925"><ele>144.66666666666669</ele><time>2026-03-29T14:49:57.001Z</time></trkpt><trkpt lat="45.55245833858582" lon="9.328131950073473"><ele>145.0</ele><time>2026-03-29T14:49:58.001Z</time></trkpt><trkpt lat="45.55265336509445" lon="9.328243458631086"><ele>145.0</ele><time>2026-03-29T14:49:59.001Z</time></trkpt><trkpt lat="45.552854750290614" lon="9.328357960863336"><ele>145.0</ele><time>2026-03-29T14:50:00.001Z</time></trkpt><trkpt lat="45.55306217270244" lon="9.32847694915494"><ele>145.0</ele><time>2026-03-29T14:50:01.001Z</time></trkpt><trkpt lat="45.55326820559226" lon="9.328598129161785"><ele>144.33333333333334</ele><time>2026-03-29T14:50:02.001Z</time></trkpt><trkpt lat="45.55347861152645" lon="9.328722485418076"><ele>143.66666666666666</ele><time>2026-03-29T14:50:03.001Z</time></trkpt><trkpt lat="45.553678851554785" lon="9.328840674441016"><ele>143.0</ele><time>2026-03-29T14:50:04.001Z</time></trkpt><trkpt lat="45.55388010486091" lon="9.328957295289264"><ele>145.0</ele><time>2026-03-29T14:50:05.001Z</time></trkpt><trkpt lat="45.5540806228947" lon="9.329072314831185"><ele>147.0</ele><time>2026-03-29T14:50:06.001Z</time></trkpt><trkpt lat="45.55430722980786" lon="9.32919065175255"><ele>148.0</ele><time>2026-03-29T14:50:07.001Z</time></trkpt><trkpt lat="45.554549856121966" lon="9.329317890039103"><ele>149.0</ele><time>2026-03-29T14:50:08.001Z</time></trkpt><trkpt lat="45.55479351510133" lon="9.329452444551954"><ele>149.0</ele><time>2026-03-29T14:50:09.001Z</time></trkpt><trkpt lat="45.55505110310597" lon="9.329607013886699"><ele>149.0</ele><time>2026-03-29T14:50:10.001Z</time></trkpt><trkpt lat="45.55530103137717" lon="9.329754736942345"><ele>148.0</ele><time>2026-03-29T14:50:11.001Z</time></trkpt><trkpt lat="45.555554121876796" lon="9.32990871721042"><ele>147.0</ele><time>2026-03-29T14:50:12.001Z</time></trkpt><trkpt lat="45.55581142825132" lon="9.330059836889976"><ele>147.0</ele><time>2026-03-29T14:50:13.001Z</time></trkpt><trkpt lat="45.55606386791492" lon="9.33020579376143"><ele>147.0</ele><time>2026-03-29T14:50:14.001Z</time></trkpt><trkpt lat="45.556317705354765" lon="9.330353671037244"><ele>148.5</ele><time>2026-03-29T14:50:15.001Z</time></trkpt><trkpt lat="45.55656747314899" lon="9.330502959272053"><ele>150.0</ele><time>2026-03-29T14:50:16.001Z</time></trkpt><trkpt lat="45.55681795648861" lon="9.330649814326303"><ele>151.0</ele><time>2026-03-29T14:50:17.001Z</time></trkpt><trkpt lat="45.55706816046842" lon="9.330793824736865"><ele>152.0</ele><time>2026-03-29T14:50:18.002Z</time></trkpt><trkpt lat="45.55731737128992" lon="9.330935779382083"><ele>152.0</ele><time>2026-03-29T14:50:19.002Z</time></trkpt><trkpt lat="45.55756680360431" lon="9.331084243211668"><ele>152.0</ele><time>2026-03-29T14:50:20.002Z</time></trkpt><trkpt lat="45.55781299387053" lon="9.331228150967148"><ele>152.0</ele><time>2026-03-29T14:50:21.002Z</time></trkpt><trkpt lat="45.558056733932354" lon="9.33137034317233"><ele>152.0</ele><time>2026-03-29T14:50:22.002Z</time></trkpt><trkpt lat="45.55829603232761" lon="9.33151499785515"><ele>151.5</ele><time>2026-03-29T14:50:23.002Z</time></trkpt><trkpt lat="45.55852899368245" lon="9.331658907364059"><ele>151.0</ele><time>2026-03-29T14:50:24.002Z</time></trkpt><trkpt lat="45.558760197241035" lon="9.331799712079015"><ele>150.0</ele><time>2026-03-29T14:50:25.002Z</time></trkpt><trkpt lat="45.558985630156755" lon="9.331934814854502"><ele>149.0</ele><time>2026-03-29T14:50:26.002Z</time></trkpt><trkpt lat="45.55920761868096" lon="9.332067107135309"><ele>149.0</ele><time>2026-03-29T14:50:27.002Z</time></trkpt><trkpt lat="45.55941285372076" lon="9.332187383055013"><ele>149.0</ele><time>2026-03-29T14:50:28.002Z</time></trkpt><trkpt lat="45.55960630657661" lon="9.332303873717128"><ele>149.0</ele><time>2026-03-29T14:50:29.002Z</time></trkpt><trkpt lat="45.55978584046547" lon="9.332419262212358"><ele>149.66666666666666</ele><time>2026-03-29T14:50:30.002Z</time></trkpt><trkpt lat="45.559961856264515" lon="9.33253130103988"><ele>150.33333333333334</ele><time>2026-03-29T14:50:31.002Z</time></trkpt><trkpt lat="45.56013671581845" lon="9.332644505490526"><ele>151.0</ele><time>2026-03-29T14:50:32.002Z</time></trkpt><trkpt lat="45.56030304890057" lon="9.332757952786103"><ele>151.0</ele><time>2026-03-29T14:50:33.002Z</time></trkpt><trkpt lat="45.56044722777274" lon="9.332895581254242"><ele>151.0</ele><time>2026-03-29T14:50:34.002Z</time></trkpt><trkpt lat="45.560586092918186" lon="9.333021409249326"><ele>151.0</ele><time>2026-03-29T14:50:35.002Z</time></trkpt><trkpt lat="45.5607108343032" lon="9.333131125846696"><ele>151.2</ele><time>2026-03-29T14:50:36.002Z</time></trkpt><trkpt lat="45.56082334879641" lon="9.33322222660342"><ele>151.39999999999998</ele><time>2026-03-29T14:50:37.002Z</time></trkpt><trkpt lat="45.560925625138644" lon="9.333300546532273"><ele>151.6</ele><time>2026-03-29T14:50:38.002Z</time></trkpt><trkpt lat="45.561018763318934" lon="9.333368607549314"><ele>151.79999999999998</ele><time>2026-03-29T14:50:39.002Z</time></trkpt><trkpt lat="45.56109823708955" lon="9.333422657440877"><ele>152.0</ele><time>2026-03-29T14:50:40.002Z</time></trkpt><trkpt lat="45.56116823963901" lon="9.333467700103416"><ele>152.79999999999998</ele><time>2026-03-29T14:50:41.002Z</time></trkpt><trkpt lat="45.561243879229174" lon="9.333513489519353"><ele>153.6</ele><time>2026-03-29T14:50:42.002Z</time></trkpt><trkpt lat="45.561315889833004" lon="9.33355098188045"><ele>154.39999999999998</ele><time>2026-03-29T14:50:43.002Z</time></trkpt><trkpt lat="45.56143027803547" lon="9.333598653566105"><ele>155.2</ele><time>2026-03-29T14:50:44.002Z</time></trkpt><trkpt lat="45.561549847909276" lon="9.333638936862757"><ele>156.0</ele><time>2026-03-29T14:50:45.002Z</time></trkpt><trkpt lat="45.561697707948355" lon="9.333682942625146"><ele>156.0</ele><time>2026-03-29T14:50:46.002Z</time></trkpt><trkpt lat="45.56185455090129" lon="9.333730019291162"><ele>156.0</ele><time>2026-03-29T14:50:47.002Z</time></trkpt><trkpt lat="45.562005694028855" lon="9.333752310892136"><ele>156.0</ele><time>2026-03-29T14:50:48.002Z</time></trkpt><trkpt lat="45.5621456455746" lon="9.333824592234382"><ele>155.33333333333334</ele><time>2026-03-29T14:50:49.002Z</time></trkpt><trkpt lat="45.562298476230325" lon="9.33390787303339"><ele>154.66666666666669</ele><time>2026-03-29T14:50:50.002Z</time></trkpt><trkpt lat="45.562467613277924" lon="9.334010472050302"><ele>154.0</ele><time>2026-03-29T14:50:51.003Z</time></trkpt><trkpt lat="45.562639342392565" lon="9.334125975845865"><ele>154.0</ele><time>2026-03-29T14:50:52.003Z</time></trkpt><trkpt lat="45.562797837404496" lon="9.334252660208117"><ele>154.0</ele><time>2026-03-29T14:50:53.003Z</time></trkpt><trkpt lat="45.56295759365211" lon="9.334390475780069"><ele>154.0</ele><time>2026-03-29T14:50:54.003Z</time></trkpt><trkpt lat="45.563119130231414" lon="9.334537631629882"><ele>154.0</ele><time>2026-03-29T14:50:55.003Z</time></trkpt><trkpt lat="45.56328830152655" lon="9.334701098291038"><ele>154.0</ele><time>2026-03-29T14:50:56.003Z</time></trkpt><trkpt lat="45.563468629468794" lon="9.33487454503843"><ele>154.0</ele><time>2026-03-29T14:50:57.003Z</time></trkpt><trkpt lat="45.56365188149066" lon="9.33504061367035"><ele>154.66666666666669</ele><time>2026-03-29T14:50:58.003Z</time></trkpt><trkpt lat="45.5638332743682" lon="9.335195832710326"><ele>155.33333333333334</ele><time>2026-03-29T14:50:59.003Z</time></trkpt><trkpt lat="45.56400504985018" lon="9.335329143528302"><ele>156.0</ele><time>2026-03-29T14:51:00.003Z</time></trkpt><trkpt lat="45.564187153370376" lon="9.335449305979086"><ele>156.0</ele><time>2026-03-29T14:51:01.003Z</time></trkpt><trkpt lat="45.564378222468285" lon="9.335558690452972"><ele>156.0</ele><time>2026-03-29T14:51:02.003Z</time></trkpt><trkpt lat="45.56458280658031" lon="9.335651220893366"><ele>156.0</ele><time>2026-03-29T14:51:03.003Z</time></trkpt><trkpt lat="45.56478824923789" lon="9.335731877023438"><ele>155.33333333333334</ele><time>2026-03-29T14:51:04.003Z</time></trkpt><trkpt lat="45.565003206286924" lon="9.335799887999123"><ele>154.66666666666669</ele><time>2026-03-29T14:51:05.003Z</time></trkpt><trkpt lat="45.56522265692343" lon="9.335868822481165"><ele>154.0</ele><time>2026-03-29T14:51:06.003Z</time></trkpt><trkpt lat="45.565441258967766" lon="9.335938414698306"><ele>156.5</ele><time>2026-03-29T14:51:07.003Z</time></trkpt><trkpt lat="45.56566660116057" lon="9.336018431893669"><ele>159.0</ele><time>2026-03-29T14:51:08.003Z</time></trkpt><trkpt lat="45.56589741131161" lon="9.336106624547318"><ele>159.0</ele><time>2026-03-29T14:51:09.003Z</time></trkpt><trkpt lat="45.56611790682174" lon="9.336203150084375"><ele>159.0</ele><time>2026-03-29T14:51:10.003Z</time></trkpt><trkpt lat="45.56634751439011" lon="9.336305969413942"><ele>158.5</ele><time>2026-03-29T14:51:11.003Z</time></trkpt><trkpt lat="45.56657558830993" lon="9.336412626173091"><ele>158.0</ele><time>2026-03-29T14:51:12.003Z</time></trkpt><trkpt lat="45.5668121497066" lon="9.33651897096184"><ele>157.5</ele><time>2026-03-29T14:51:13.003Z</time></trkpt><trkpt lat="45.56704614367199" lon="9.336624088242685"><ele>157.0</ele><time>2026-03-29T14:51:14.003Z</time></trkpt><trkpt lat="45.567289954897326" lon="9.336728440092562"><ele>157.0</ele><time>2026-03-29T14:51:15.003Z</time></trkpt><trkpt lat="45.56752828709169" lon="9.336833629728295"><ele>157.0</ele><time>2026-03-29T14:51:16.003Z</time></trkpt><trkpt lat="45.567769814612944" lon="9.33694648296134"><ele>157.0</ele><time>2026-03-29T14:51:17.003Z</time></trkpt><trkpt lat="45.56800625008148" lon="9.337060697317616"><ele>157.0</ele><time>2026-03-29T14:51:18.003Z</time></trkpt><trkpt lat="45.568244821673645" lon="9.337181953361306"><ele>157.5</ele><time>2026-03-29T14:51:18.999Z</time></trkpt><trkpt lat="45.568481817436954" lon="9.337309472932768"><ele>158.0</ele><time>2026-03-29T14:51:19.999Z</time></trkpt><trkpt lat="45.56871993425753" lon="9.337439706848517"><ele>158.0</ele><time>2026-03-29T14:51:20.999Z</time></trkpt><trkpt lat="45.56895531612278" lon="9.337576027672526"><ele>158.0</ele><time>2026-03-29T14:51:21.999Z</time></trkpt><trkpt lat="45.569189882696215" lon="9.337716589629386"><ele>158.0</ele><time>2026-03-29T14:51:22.999Z</time></trkpt><trkpt lat="45.5694241537085" lon="9.337860586204819"><ele>158.0</ele><time>2026-03-29T14:51:23.999Z</time></trkpt><trkpt lat="45.56965788428267" lon="9.33800703308279"><ele>156.5</ele><time>2026-03-29T14:51:24.999Z</time></trkpt><trkpt lat="45.56989262221996" lon="9.338154989366858"><ele>155.0</ele><time>2026-03-29T14:51:25.999Z</time></trkpt><trkpt lat="45.57012340486795" lon="9.338302676405887"><ele>155.0</ele><time>2026-03-29T14:51:26.999Z</time></trkpt><trkpt lat="45.57035431601125" lon="9.33844883422327"><ele>155.0</ele><time>2026-03-29T14:51:27.999Z</time></trkpt><trkpt lat="45.57059250780068" lon="9.33859348141884"><ele>155.5</ele><time>2026-03-29T14:51:29Z</time></trkpt><trkpt lat="45.57082034169039" lon="9.338737022376728"><ele>156.0</ele><time>2026-03-29T14:51:30Z</time></trkpt><trkpt lat="45.57105527029955" lon="9.338881946775608"><ele>157.0</ele><time>2026-03-29T14:51:31Z</time></trkpt><trkpt lat="45.57128344821837" lon="9.3390266190196"><ele>158.0</ele><time>2026-03-29T14:51:32Z</time></trkpt><trkpt lat="45.57151554157238" lon="9.339169943230457"><ele>158.0</ele><time>2026-03-29T14:51:33Z</time></trkpt><trkpt lat="45.57174644207016" lon="9.339312933264702"><ele>158.0</ele><time>2026-03-29T14:51:34Z</time></trkpt><trkpt lat="45.57197513438204" lon="9.339456557063121"><ele>159.0</ele><time>2026-03-29T14:51:35Z</time></trkpt><trkpt lat="45.57220255917149" lon="9.33959953389624"><ele>160.0</ele><time>2026-03-29T14:51:36Z</time></trkpt><trkpt lat="45.57243165628043" lon="9.339741380480886"><ele>160.5</ele><time>2026-03-29T14:51:37Z</time></trkpt><trkpt lat="45.572661032047876" lon="9.339880969484117"><ele>161.0</ele><time>2026-03-29T14:51:38Z</time></trkpt><trkpt lat="45.5728916027322" lon="9.340022518988219"><ele>161.5</ele><time>2026-03-29T14:51:39Z</time></trkpt><trkpt lat="45.57312043764284" lon="9.340166189097284"><ele>162.0</ele><time>2026-03-29T14:51:40Z</time></trkpt><trkpt lat="45.57335013474099" lon="9.340306095601145"><ele>162.0</ele><time>2026-03-29T14:51:41Z</time></trkpt><trkpt lat="45.57358272570194" lon="9.340442525500869"><ele>162.0</ele><time>2026-03-29T14:51:42Z</time></trkpt><trkpt lat="45.573813891095455" lon="9.34057639223105"><ele>161.0</ele><time>2026-03-29T14:51:43Z</time></trkpt><trkpt lat="45.574046848558716" lon="9.340707230322758"><ele>160.0</ele><time>2026-03-29T14:51:44Z</time></trkpt><trkpt lat="45.574278646572004" lon="9.34083681573972"><ele>160.0</ele><time>2026-03-29T14:51:45Z</time></trkpt><trkpt lat="45.57451469700516" lon="9.340964334633517"><ele>160.0</ele><time>2026-03-29T14:51:46Z</time></trkpt><trkpt lat="45.574749485525125" lon="9.341092306721686"><ele>160.0</ele><time>2026-03-29T14:51:47Z</time></trkpt><trkpt lat="45.57497989696473" lon="9.341218733478547"><ele>160.0</ele><time>2026-03-29T14:51:48Z</time></trkpt><trkpt lat="45.575219406881644" lon="9.34134057265618"><ele>161.0</ele><time>2026-03-29T14:51:49Z</time></trkpt><trkpt lat="45.57545264814918" lon="9.341463128260216"><ele>162.0</ele><time>2026-03-29T14:51:50Z</time></trkpt><trkpt lat="45.57569259206854" lon="9.341575843520664"><ele>162.0</ele><time>2026-03-29T14:51:51Z</time></trkpt><trkpt lat="45.57593053296204" lon="9.341686549613298"><ele>162.0</ele><time>2026-03-29T14:51:52Z</time></trkpt><trkpt lat="45.57617027106957" lon="9.341792437055206"><ele>163.0</ele><time>2026-03-29T14:51:53Z</time></trkpt><trkpt lat="45.57640713849312" lon="9.341899278910457"><ele>164.0</ele><time>2026-03-29T14:51:54.001Z</time></trkpt><trkpt lat="45.57663806534683" lon="9.342006134040851"><ele>164.0</ele><time>2026-03-29T14:51:55.001Z</time></trkpt><trkpt lat="45.57686602250787" lon="9.342111598304705"><ele>164.0</ele><time>2026-03-29T14:51:56.001Z</time></trkpt><trkpt lat="45.577092577789365" lon="9.342214378366714"><ele>164.0</ele><time>2026-03-29T14:51:57.001Z</time></trkpt><trkpt lat="45.577315853895925" lon="9.342320029587032"><ele>164.0</ele><time>2026-03-29T14:51:58.001Z</time></trkpt><trkpt lat="45.57753894256934" lon="9.342421334691968"><ele>164.0</ele><time>2026-03-29T14:51:59.001Z</time></trkpt><trkpt lat="45.57775976538747" lon="9.342527134912157"><ele>164.0</ele><time>2026-03-29T14:52:00.001Z</time></trkpt><trkpt lat="45.57798396003507" lon="9.342628565288035"><ele>163.5</ele><time>2026-03-29T14:52:01.001Z</time></trkpt><trkpt lat="45.57820145141779" lon="9.342735206743843"><ele>163.0</ele><time>2026-03-29T14:52:02.001Z</time></trkpt><trkpt lat="45.578423712039076" lon="9.342833626535409"><ele>163.0</ele><time>2026-03-29T14:52:03.001Z</time></trkpt><trkpt lat="45.57864274607978" lon="9.342934589696595"><ele>163.0</ele><time>2026-03-29T14:52:04.001Z</time></trkpt><trkpt lat="45.57886804839519" lon="9.34303164353656"><ele>162.5</ele><time>2026-03-29T14:52:05.001Z</time></trkpt><trkpt lat="45.57908769459403" lon="9.34313260317017"><ele>162.0</ele><time>2026-03-29T14:52:06.001Z</time></trkpt><trkpt lat="45.57930738843002" lon="9.343239349188263"><ele>164.0</ele><time>2026-03-29T14:52:07.001Z</time></trkpt><trkpt lat="45.579524258088775" lon="9.343346610896969"><ele>166.0</ele><time>2026-03-29T14:52:08.001Z</time></trkpt><trkpt lat="45.57974039758767" lon="9.343461119596205"><ele>166.0</ele><time>2026-03-29T14:52:09.001Z</time></trkpt><trkpt lat="45.579950197634425" lon="9.343580541578941"><ele>166.0</ele><time>2026-03-29T14:52:10.001Z</time></trkpt><trkpt lat="45.58014802542611" lon="9.34371339619886"><ele>166.0</ele><time>2026-03-29T14:52:11.001Z</time></trkpt><trkpt lat="45.580340443983715" lon="9.343860480785771"><ele>165.66666666666669</ele><time>2026-03-29T14:52:12.001Z</time></trkpt><trkpt lat="45.58051946495033" lon="9.344019610112026"><ele>165.33333333333334</ele><time>2026-03-29T14:52:13.001Z</time></trkpt><trkpt lat="45.58068796639276" lon="9.344189039273411"><ele>165.0</ele><time>2026-03-29T14:52:14.001Z</time></trkpt><trkpt lat="45.580851534500006" lon="9.344367314167714"><ele>165.0</ele><time>2026-03-29T14:52:15.001Z</time></trkpt><trkpt lat="45.58100124102112" lon="9.344545767477083"><ele>165.0</ele><time>2026-03-29T14:52:16.001Z</time></trkpt><trkpt lat="45.58114242704762" lon="9.344718124362767"><ele>165.0</ele><time>2026-03-29T14:52:17.001Z</time></trkpt><trkpt lat="45.58127043992394" lon="9.34488612622873"><ele>165.66666666666666</ele><time>2026-03-29T14:52:18.001Z</time></trkpt><trkpt lat="45.581388207208256" lon="9.345050925899457"><ele>166.33333333333331</ele><time>2026-03-29T14:52:19.001Z</time></trkpt><trkpt lat="45.58149975974898" lon="9.345209324823156"><ele>167.0</ele><time>2026-03-29T14:52:20.001Z</time></trkpt><trkpt lat="45.581611563169936" lon="9.345362795399243"><ele>167.0</ele><time>2026-03-29T14:52:21.001Z</time></trkpt><trkpt lat="45.58171848863306" lon="9.34550429300748"><ele>167.0</ele><time>2026-03-29T14:52:22.001Z</time></trkpt><trkpt lat="45.58182582344475" lon="9.345645743029333"><ele>167.0</ele><time>2026-03-29T14:52:23.001Z</time></trkpt><trkpt lat="45.581928894319944" lon="9.345787238173523"><ele>167.0</ele><time>2026-03-29T14:52:24.001Z</time></trkpt><trkpt lat="45.58202551195797" lon="9.345920844661713"><ele>166.5</ele><time>2026-03-29T14:52:25.002Z</time></trkpt><trkpt lat="45.58211513965186" lon="9.346041222117854"><ele>166.0</ele><time>2026-03-29T14:52:26.002Z</time></trkpt><trkpt lat="45.58218831789292" lon="9.346125657655048"><ele>165.5</ele><time>2026-03-29T14:52:27.002Z</time></trkpt><trkpt lat="45.58223888940177" lon="9.346181178761451"><ele>165.0</ele><time>2026-03-29T14:52:28.002Z</time></trkpt><trkpt lat="45.58229795515444" lon="9.34622502873439"><ele>164.5</ele><time>2026-03-29T14:52:30.002Z</time></trkpt><trkpt lat="45.582357999632286" lon="9.346169278018156"><ele>164.0</ele><time>2026-03-29T14:52:31.002Z</time></trkpt><trkpt lat="45.582409991075735" lon="9.346117121003783"><ele>164.0</ele><time>2026-03-29T14:52:33.002Z</time></trkpt><trkpt lat="45.582482547385574" lon="9.346057224653718"><ele>164.0</ele><time>2026-03-29T14:52:40.002Z</time></trkpt><trkpt lat="45.58251358153794" lon="9.345931211116563"><ele>164.0</ele><time>2026-03-29T14:52:41.002Z</time></trkpt><trkpt lat="45.58254945299696" lon="9.345826709873785"><ele>164.0</ele><time>2026-03-29T14:52:42.002Z</time></trkpt><trkpt lat="45.582585037852354" lon="9.345707975891468"><ele>164.0</ele><time>2026-03-29T14:52:43.002Z</time></trkpt><trkpt lat="45.58263544054207" lon="9.34557202170377"><ele>164.0</ele><time>2026-03-29T14:52:44.002Z</time></trkpt><trkpt lat="45.582712430736485" lon="9.345435122462776"><ele>164.0</ele><time>2026-03-29T14:52:45.002Z</time></trkpt><trkpt lat="45.58278058105111" lon="9.345314100260603"><ele>164.0</ele><time>2026-03-29T14:52:46.002Z</time></trkpt><trkpt lat="45.58286075739666" lon="9.345193751113117"><ele>164.0</ele><time>2026-03-29T14:52:47.002Z</time></trkpt><trkpt lat="45.58295206893571" lon="9.345033899475363"><ele>164.75</ele><time>2026-03-29T14:52:48.002Z</time></trkpt><trkpt lat="45.58306163228092" lon="9.344921245401249"><ele>165.5</ele><time>2026-03-29T14:52:49.002Z</time></trkpt><trkpt lat="45.58317353403416" lon="9.344824720638178"><ele>166.25</ele><time>2026-03-29T14:52:50.002Z</time></trkpt><trkpt lat="45.5832835767764" lon="9.344748189825644"><ele>167.0</ele><time>2026-03-29T14:52:51.002Z</time></trkpt><trkpt lat="45.58337989769033" lon="9.344677942471003"><ele>167.0</ele><time>2026-03-29T14:52:52.002Z</time></trkpt><trkpt lat="45.58347921800385" lon="9.344609523507133"><ele>167.0</ele><time>2026-03-29T14:52:53.002Z</time></trkpt><trkpt lat="45.58359318834538" lon="9.344563642644948"><ele>167.0</ele><time>2026-03-29T14:52:54.002Z</time></trkpt><trkpt lat="45.5836886878009" lon="9.344482858418798"><ele>167.0</ele><time>2026-03-29T14:52:55.002Z</time></trkpt><trkpt lat="45.583750801771416" lon="9.344328637218318"><ele>167.25</ele><time>2026-03-29T14:52:56.002Z</time></trkpt><trkpt lat="45.58381124609422" lon="9.344174120645487"><ele>167.5</ele><time>2026-03-29T14:52:57.002Z</time></trkpt><trkpt lat="45.58386744208119" lon="9.34399446820749"><ele>167.75</ele><time>2026-03-29T14:52:58.003Z</time></trkpt><trkpt lat="45.583950620069004" lon="9.343828457455821"><ele>168.0</ele><time>2026-03-29T14:52:59.003Z</time></trkpt><trkpt lat="45.584015627869235" lon="9.343659707786038"><ele>168.0</ele><time>2026-03-29T14:53:00.003Z</time></trkpt><trkpt lat="45.58407647122664" lon="9.343501353722802"><ele>168.0</ele><time>2026-03-29T14:53:01.003Z</time></trkpt><trkpt lat="45.5841161917853" lon="9.343357612698844"><ele>168.0</ele><time>2026-03-29T14:53:02.003Z</time></trkpt><trkpt lat="45.584165846896035" lon="9.343233604053708"><ele>168.0</ele><time>2026-03-29T14:53:03.003Z</time></trkpt><trkpt lat="45.58421109780603" lon="9.343112932831396"><ele>168.0</ele><time>2026-03-29T14:53:04.003Z</time></trkpt><trkpt lat="45.58426384022838" lon="9.34296483549133"><ele>167.75</ele><time>2026-03-29T14:53:05.003Z</time></trkpt><trkpt lat="45.58432843634413" lon="9.342791820087161"><ele>167.5</ele><time>2026-03-29T14:53:06.003Z</time></trkpt><trkpt lat="45.584393398111885" lon="9.342615282710737"><ele>167.25</ele><time>2026-03-29T14:53:07.003Z</time></trkpt><trkpt lat="45.584478150781386" lon="9.342441813927342"><ele>167.0</ele><time>2026-03-29T14:53:08.003Z</time></trkpt><trkpt lat="45.58454846715527" lon="9.34225655570908"><ele>167.75</ele><time>2026-03-29T14:53:09.003Z</time></trkpt><trkpt lat="45.58461745049069" lon="9.342075497402684"><ele>168.5</ele><time>2026-03-29T14:53:10.003Z</time></trkpt><trkpt lat="45.584673152327895" lon="9.341884479346568"><ele>169.25</ele><time>2026-03-29T14:53:11.003Z</time></trkpt><trkpt lat="45.58474225032346" lon="9.341696260110778"><ele>170.0</ele><time>2026-03-29T14:53:12.003Z</time></trkpt><trkpt lat="45.584814079380735" lon="9.34151933260034"><ele>170.0</ele><time>2026-03-29T14:53:13.003Z</time></trkpt><trkpt lat="45.58488179654305" lon="9.341346580862366"><ele>170.0</ele><time>2026-03-29T14:53:14.003Z</time></trkpt><trkpt lat="45.584943731587884" lon="9.34118239921445"><ele>170.0</ele><time>2026-03-29T14:53:15.003Z</time></trkpt><trkpt lat="45.58500525259566" lon="9.341028990711617"><ele>170.0</ele><time>2026-03-29T14:53:16.003Z</time></trkpt><trkpt lat="45.58506514566563" lon="9.340879344266142"><ele>170.0</ele><time>2026-03-29T14:53:17.003Z</time></trkpt><trkpt lat="45.58513207032046" lon="9.340750036466531"><ele>170.0</ele><time>2026-03-29T14:53:18.003Z</time></trkpt><trkpt lat="45.5851719849377" lon="9.340610384312361"><ele>170.0</ele><time>2026-03-29T14:53:19.003Z</time></trkpt><trkpt lat="45.58521893017568" lon="9.340489006841393"><ele>170.0</ele><time>2026-03-29T14:53:20.003Z</time></trkpt><trkpt lat="45.58526424689822" lon="9.340389559874033"><ele>170.0</ele><time>2026-03-29T14:53:21.003Z</time></trkpt><trkpt lat="45.58530935772161" lon="9.340315706639107"><ele>169.8</ele><time>2026-03-29T14:53:22.003Z</time></trkpt><trkpt lat="45.585379151533495" lon="9.340200530704609"><ele>169.6</ele><time>2026-03-29T14:53:24.003Z</time></trkpt><trkpt lat="45.58525494032102" lon="9.340084954122533"><ele>169.39999999999998</ele><time>2026-03-29T14:53:27.999Z</time></trkpt><trkpt lat="45.58517395345283" lon="9.340041455352173"><ele>169.2</ele><time>2026-03-29T14:53:28.999Z</time></trkpt><trkpt lat="45.58509302549708" lon="9.340016515507363"><ele>169.0</ele><time>2026-03-29T14:53:29.999Z</time></trkpt><trkpt lat="45.58500582556216" lon="9.339999854773723"><ele>169.0</ele><time>2026-03-29T14:53:30.999Z</time></trkpt><trkpt lat="45.58489684196471" lon="9.339978747661437"><ele>169.0</ele><time>2026-03-29T14:53:31.999Z</time></trkpt><trkpt lat="45.58478373638512" lon="9.339942774206548"><ele>169.0</ele><time>2026-03-29T14:53:32.999Z</time></trkpt><trkpt lat="45.58467788639676" lon="9.339909430486218"><ele>169.0</ele><time>2026-03-29T14:53:33.999Z</time></trkpt><trkpt lat="45.58457571847072" lon="9.339881049307388"><ele>169.0</ele><time>2026-03-29T14:53:34.999Z</time></trkpt><trkpt lat="45.584465902783414" lon="9.339838447296614"><ele>169.0</ele><time>2026-03-29T14:53:35.999Z</time></trkpt><trkpt lat="45.584340834947646" lon="9.3398062307566"><ele>169.0</ele><time>2026-03-29T14:53:36.999Z</time></trkpt><trkpt lat="45.58422088553458" lon="9.339769203462831"><ele>169.0</ele><time>2026-03-29T14:53:37.999Z</time></trkpt><trkpt lat="45.58407695359562" lon="9.339719783599332"><ele>169.0</ele><time>2026-03-29T14:53:38.999Z</time></trkpt><trkpt lat="45.583975672781676" lon="9.339700091269426"><ele>169.0</ele><time>2026-03-29T14:53:39.999Z</time></trkpt><trkpt lat="45.58388837452088" lon="9.339681178167973"><ele>169.0</ele><time>2026-03-29T14:53:40.999Z</time></trkpt><trkpt lat="45.583786075565044" lon="9.339642810285724"><ele>169.0</ele><time>2026-03-29T14:53:41.999Z</time></trkpt><trkpt lat="45.58370022938084" lon="9.339620257255499"><ele>169.0</ele><time>2026-03-29T14:53:43Z</time></trkpt><trkpt lat="45.58362304628327" lon="9.339598052611263"><ele>169.0</ele><time>2026-03-29T14:53:44Z</time></trkpt><trkpt lat="45.58356247343435" lon="9.339570847630608"><ele>169.0</ele><time>2026-03-29T14:53:45Z</time></trkpt><trkpt lat="45.583506267947335" lon="9.33946763613761"><ele>169.0</ele><time>2026-03-29T14:53:47Z</time></trkpt><trkpt lat="45.583531618507465" lon="9.33933985005889"><ele>169.0</ele><time>2026-03-29T14:53:49Z</time></trkpt><trkpt lat="45.583545638724765" lon="9.33922301688962"><ele>169.0</ele><time>2026-03-29T14:53:50Z</time></trkpt><trkpt lat="45.58356143616399" lon="9.339091758950962"><ele>169.0</ele><time>2026-03-29T14:53:51Z</time></trkpt><trkpt lat="45.58357652137424" lon="9.338966418090207"><ele>169.0</ele><time>2026-03-29T14:53:52Z</time></trkpt><trkpt lat="45.58359044385456" lon="9.338850739702867"><ele>169.0</ele><time>2026-03-29T14:53:53Z</time></trkpt><trkpt lat="45.583595659786454" lon="9.33870920543324"><ele>169.0</ele><time>2026-03-29T14:53:54Z</time></trkpt><trkpt lat="45.58362395111515" lon="9.338552004391904"><ele>169.0</ele><time>2026-03-29T14:53:55Z</time></trkpt><trkpt lat="45.58364413473223" lon="9.338386219340258"><ele>169.0</ele><time>2026-03-29T14:53:56Z</time></trkpt><trkpt lat="45.583667742064335" lon="9.338221727448417"><ele>169.0</ele><time>2026-03-29T14:53:57Z</time></trkpt><trkpt lat="45.58369344623025" lon="9.338046935443279"><ele>168.75</ele><time>2026-03-29T14:53:58Z</time></trkpt><trkpt lat="45.58371351101913" lon="9.337865883402065"><ele>168.5</ele><time>2026-03-29T14:53:59Z</time></trkpt><trkpt lat="45.58374414694537" lon="9.337682383164575"><ele>168.25</ele><time>2026-03-29T14:54:00Z</time></trkpt><trkpt lat="45.583761554001775" lon="9.337494490079408"><ele>168.0</ele><time>2026-03-29T14:54:01Z</time></trkpt><trkpt lat="45.58377890688255" lon="9.337323624689736"><ele>167.8</ele><time>2026-03-29T14:54:02Z</time></trkpt><trkpt lat="45.583806368775406" lon="9.33717164970399"><ele>167.60000000000002</ele><time>2026-03-29T14:54:03.001Z</time></trkpt><trkpt lat="45.58382130921176" lon="9.337023225173136"><ele>167.39999999999998</ele><time>2026-03-29T14:54:04.001Z</time></trkpt><trkpt lat="45.58383355086716" lon="9.336882192244925"><ele>167.2</ele><time>2026-03-29T14:54:05.001Z</time></trkpt><trkpt lat="45.583845451072726" lon="9.336739465841754"><ele>167.0</ele><time>2026-03-29T14:54:06.001Z</time></trkpt><trkpt lat="45.58385536842986" lon="9.33657867589115"><ele>167.0</ele><time>2026-03-29T14:54:07.001Z</time></trkpt><trkpt lat="45.58387916232477" lon="9.336421135388674"><ele>167.0</ele><time>2026-03-29T14:54:08.001Z</time></trkpt><trkpt lat="45.58389693920418" lon="9.336241344108828"><ele>167.0</ele><time>2026-03-29T14:54:09.001Z</time></trkpt><trkpt lat="45.58390021122233" lon="9.336066110373121"><ele>167.0</ele><time>2026-03-29T14:54:10.001Z</time></trkpt><trkpt lat="45.583921682954404" lon="9.335918994065478"><ele>167.5</ele><time>2026-03-29T14:54:11.001Z</time></trkpt><trkpt lat="45.58394182661159" lon="9.335773268846241"><ele>168.0</ele><time>2026-03-29T14:54:12.001Z</time></trkpt><trkpt lat="45.58395545960974" lon="9.335658057930944"><ele>168.5</ele><time>2026-03-29T14:54:13.001Z</time></trkpt><trkpt lat="45.583994414048526" lon="9.33553558231153"><ele>169.0</ele><time>2026-03-29T14:54:15.001Z</time></trkpt><trkpt lat="45.58407542866376" lon="9.335569141602642"><ele>169.5</ele><time>2026-03-29T14:54:17.001Z</time></trkpt><trkpt lat="45.584148785683944" lon="9.335589152178576"><ele>170.0</ele><time>2026-03-29T14:54:19.001Z</time></trkpt><trkpt lat="45.58421287864061" lon="9.33560663564468"><ele>170.0</ele><time>2026-03-29T14:54:21.001Z</time></trkpt><trkpt lat="45.58428119596865" lon="9.335615405324088"><ele>170.0</ele><time>2026-03-29T14:54:23.001Z</time></trkpt><trkpt lat="45.58432793901323" lon="9.335676719792623"><ele>170.0</ele><time>2026-03-29T14:55:05.003Z</time></trkpt><trkpt lat="45.58428746934654" lon="9.336002427777862"><ele>170.0</ele><time>2026-03-29T14:55:13.003Z</time></trkpt><trkpt lat="45.584221980345156" lon="9.33605975042483"><ele>170.0</ele><time>2026-03-29T14:55:16.003Z</time></trkpt><trkpt lat="45.58418615988358" lon="9.335973734563678"><ele>170.0</ele><time>2026-03-29T14:55:21.003Z</time></trkpt><trkpt lat="45.58400918346318" lon="9.336112032168105"><ele>170.0</ele><time>2026-03-29T14:55:25.003Z</time></trkpt><trkpt lat="45.58480894662986" lon="9.335978161552303"><ele>170.0</ele><time>2026-03-29T14:56:13.001Z</time></trkpt><trkpt lat="45.58470421474973" lon="9.336074134343617"><ele>170.0</ele><time>2026-03-29T14:56:29.001Z</time></trkpt><trkpt lat="45.58427859415898" lon="9.335979821469085"><ele>170.0</ele><time>2026-03-29T14:56:31.001Z</time></trkpt><trkpt lat="45.58450648565391" lon="9.335947567605727"><ele>170.0</ele><time>2026-03-29T14:56:41.002Z</time></trkpt><trkpt lat="45.5842572613469" lon="9.336019075351722"><ele>170.0</ele><time>2026-03-29T14:57:39.002Z</time></trkpt><trkpt lat="45.58450648565391" lon="9.335947567605727"><ele>170.0</ele><time>2026-03-29T14:57:53.001Z</time></trkpt><trkpt lat="45.58425976100444" lon="9.336017219010426"><ele>170.0</ele><time>2026-03-29T14:58:04.001Z</time></trkpt><trkpt lat="45.58450648565391" lon="9.335947567605727"><ele>170.0</ele><time>2026-03-29T14:58:51.001Z</time></trkpt><trkpt lat="45.58426830685977" lon="9.335975083391839"><ele>170.0</ele><time>2026-03-29T14:59:05.001Z</time></trkpt><trkpt lat="45.58450648565391" lon="9.335947567605727"><ele>170.0</ele><time>2026-03-29T14:59:14.001Z</time></trkpt><trkpt lat="45.58429033207929" lon="9.335894096534792"><ele>170.0</ele><time>2026-03-29T14:59:51.001Z</time></trkpt><trkpt lat="45.58450648565391" lon="9.335947567605727"><ele>170.0</ele><time>2026-03-29T15:00:40.001Z</time></trkpt><trkpt lat="45.58424531896816" lon="9.335945394129293"><ele>170.0</ele><time>2026-03-29T15:00:51.001Z</time></trkpt><trkpt lat="45.58442178652237" lon="9.335958464079852"><ele>170.0</ele><time>2026-03-29T15:01:14.001Z</time></trkpt><trkpt lat="45.58423390995606" lon="9.335966199095633"><ele>170.0</ele><time>2026-03-29T15:01:34.001Z</time></trkpt><trkpt lat="45.58433163685729" lon="9.33597926984955"><ele>170.0</ele><time>2026-03-29T15:03:22.001Z</time></trkpt><trkpt lat="45.58426805367648" lon="9.33597263476423"><ele>170.0</ele><time>2026-03-29T15:03:55.001Z</time></trkpt><trkpt lat="45.584288849537806" lon="9.335813540974012"><ele>170.0</ele><time>2026-03-29T15:04:53Z</time></trkpt><trkpt lat="45.58419112018551" lon="9.335892333795442"><ele>170.0</ele><time>2026-03-29T15:05:36.001Z</time></trkpt><trkpt lat="45.58422808461592" lon="9.335602468649318"><ele>170.0</ele><time>2026-03-29T15:06:13.001Z</time></trkpt><trkpt lat="45.58422326343583" lon="9.335903485690197"><ele>170.0</ele><time>2026-03-29T15:06:16.001Z</time></trkpt><trkpt lat="45.584202096840244" lon="9.335672808819762"><ele>170.0</ele><time>2026-03-29T15:06:52Z</time></trkpt><trkpt lat="45.58425867468666" lon="9.335569795229786"><ele>170.0</ele><time>2026-03-29T15:06:59Z</time></trkpt><trkpt lat="45.58419538586577" lon="9.33555614226686"><ele>170.0</ele><time>2026-03-29T15:07:06Z</time></trkpt><trkpt lat="45.58423141645329" lon="9.335821059980693"><ele>170.0</ele><time>2026-03-29T15:07:08Z</time></trkpt><trkpt lat="45.58426324841443" lon="9.335611150868152"><ele>170.0</ele><time>2026-03-29T15:08:20.001Z</time></trkpt><trkpt lat="45.584277785425876" lon="9.335514558487885"><ele>170.0</ele><time>2026-03-29T15:08:24.001Z</time></trkpt><trkpt lat="45.58426288512449" lon="9.335781945258331"><ele>170.0</ele><time>2026-03-29T15:08:28.001Z</time></trkpt><trkpt lat="45.5843925336803" lon="9.335362762221447"><ele>170.0</ele><time>2026-03-29T15:09:54Z</time></trkpt><trkpt lat="45.58431702560533" lon="9.3358730649098"><ele>170.0</ele><time>2026-03-29T15:10:24.001Z</time></trkpt><trkpt lat="45.58479973503662" lon="9.335300353037566"><ele>170.0</ele><time>2026-03-29T15:11:02Z</time></trkpt><trkpt lat="45.58431688629984" lon="9.335899802269333"><ele>170.0</ele><time>2026-03-29T15:11:35Z</time></trkpt><trkpt lat="45.584220833975095" lon="9.335793646125708"><ele>170.0</ele><time>2026-03-29T15:13:14Z</time></trkpt><trkpt lat="45.584201388413405" lon="9.335920055715443"><ele>170.0</ele><time>2026-03-29T15:13:45Z</time></trkpt><trkpt lat="45.58412720425056" lon="9.336127638362397"><ele>170.0</ele><time>2026-03-29T15:14:41.999Z</time></trkpt><trkpt lat="45.584229086568456" lon="9.335882188760989"><ele>170.0</ele><time>2026-03-29T15:29:18.999Z</time></trkpt></trkseg></trk></gpx>